<?xml version="1.0" encoding="UTF-8" standalone="no" ?>
<gpx xmlns="http://www.topografix.com/GPX/1/1" xmlns:xsi="http://www.w3.org/2001/XMLSchema-instance" xsi:schemaLocation="http://www.topografix.com/GPX/1/1 http://www.topografix.com/GPX/1/1/gpx.xsd" version="1.1" creator="VisuGPX - https://www.visugpx.com">
  <metadata>
    <name>La colline du Vernois</name>
    <desc><![CDATA[Terrain encore pas détrempé, voir presque sec. Grand soleil après les brumes matinales]]></desc>
  </metadata>
  <trk>
    <name><![CDATA[Rue Antoine Coysevox]]></name>
    <desc><![CDATA[]]></desc>
    <trkseg>
      <trkpt lat="47.51795" lon="6.77508">
        <ele>351.6</ele>
        <time>2014-10-26T07:47:37.000Z</time>
      </trkpt>
      <trkpt lat="47.51798" lon="6.77512">
        <ele>368.9</ele>
        <time>2014-10-26T07:47:40.000Z</time>
      </trkpt>
      <trkpt lat="47.518" lon="6.77511">
        <ele>374.9</ele>
        <time>2014-10-26T07:47:41.000Z</time>
      </trkpt>
      <trkpt lat="47.51799" lon="6.7751">
        <ele>376.2</ele>
        <time>2014-10-26T07:47:42.000Z</time>
      </trkpt>
      <trkpt lat="47.51795" lon="6.77507">
        <ele>375.1</ele>
        <time>2014-10-26T07:47:43.000Z</time>
      </trkpt>
      <trkpt lat="47.51798" lon="6.77506">
        <ele>384.4</ele>
        <time>2014-10-26T07:47:47.000Z</time>
      </trkpt>
      <trkpt lat="47.51799" lon="6.77504">
        <ele>387.5</ele>
        <time>2014-10-26T07:47:48.000Z</time>
      </trkpt>
      <trkpt lat="47.51798" lon="6.77504">
        <ele>389.5</ele>
        <time>2014-10-26T07:48:31.999Z</time>
      </trkpt>
      <trkpt lat="47.51788" lon="6.77504">
        <ele>349.2</ele>
        <time>2014-10-26T07:48:35.000Z</time>
      </trkpt>
      <trkpt lat="47.51793" lon="6.77503">
        <ele>357.6</ele>
        <time>2014-10-26T07:49:31.000Z</time>
      </trkpt>
      <trkpt lat="47.51793" lon="6.77502">
        <ele>357.8</ele>
        <time>2014-10-26T07:49:32.000Z</time>
      </trkpt>
      <trkpt lat="47.5179" lon="6.77501">
        <ele>360.2</ele>
        <time>2014-10-26T07:49:39.000Z</time>
      </trkpt>
      <trkpt lat="47.51788" lon="6.77498">
        <ele>366.3</ele>
        <time>2014-10-26T07:49:40.000Z</time>
      </trkpt>
      <trkpt lat="47.51786" lon="6.77496">
        <ele>369.7</ele>
        <time>2014-10-26T07:49:41.000Z</time>
      </trkpt>
      <trkpt lat="47.51783" lon="6.77494">
        <ele>373.7</ele>
        <time>2014-10-26T07:49:42.000Z</time>
      </trkpt>
      <trkpt lat="47.5178" lon="6.77492">
        <ele>375.1</ele>
        <time>2014-10-26T07:49:43.000Z</time>
      </trkpt>
      <trkpt lat="47.51777" lon="6.7749">
        <ele>376.8</ele>
        <time>2014-10-26T07:49:44.000Z</time>
      </trkpt>
      <trkpt lat="47.51774" lon="6.77488">
        <ele>378</ele>
        <time>2014-10-26T07:49:45.000Z</time>
      </trkpt>
      <trkpt lat="47.51769" lon="6.77487">
        <ele>380.3</ele>
        <time>2014-10-26T07:49:46.000Z</time>
      </trkpt>
      <trkpt lat="47.51766" lon="6.77486">
        <ele>382.8</ele>
        <time>2014-10-26T07:49:47.000Z</time>
      </trkpt>
      <trkpt lat="47.51762" lon="6.77485">
        <ele>384.9</ele>
        <time>2014-10-26T07:49:48.000Z</time>
      </trkpt>
      <trkpt lat="47.51758" lon="6.77484">
        <ele>385.3</ele>
        <time>2014-10-26T07:49:49.000Z</time>
      </trkpt>
      <trkpt lat="47.51753" lon="6.77484">
        <ele>386.5</ele>
        <time>2014-10-26T07:49:50.000Z</time>
      </trkpt>
      <trkpt lat="47.51749" lon="6.77483">
        <ele>388.8</ele>
        <time>2014-10-26T07:49:51.000Z</time>
      </trkpt>
      <trkpt lat="47.51745" lon="6.77482">
        <ele>390.3</ele>
        <time>2014-10-26T07:49:52.000Z</time>
      </trkpt>
      <trkpt lat="47.51741" lon="6.77481">
        <ele>391.6</ele>
        <time>2014-10-26T07:49:53.000Z</time>
      </trkpt>
      <trkpt lat="47.51737" lon="6.7748">
        <ele>391.6</ele>
        <time>2014-10-26T07:49:54.000Z</time>
      </trkpt>
      <trkpt lat="47.51734" lon="6.77481">
        <ele>391.8</ele>
        <time>2014-10-26T07:49:55.000Z</time>
      </trkpt>
      <trkpt lat="47.5173" lon="6.77488">
        <ele>392.2</ele>
        <time>2014-10-26T07:49:56.000Z</time>
      </trkpt>
      <trkpt lat="47.51727" lon="6.77494">
        <ele>392.4</ele>
        <time>2014-10-26T07:49:57.000Z</time>
      </trkpt>
      <trkpt lat="47.51725" lon="6.77499">
        <ele>394.6</ele>
        <time>2014-10-26T07:49:58.000Z</time>
      </trkpt>
      <trkpt lat="47.51723" lon="6.77506">
        <ele>395.8</ele>
        <time>2014-10-26T07:49:59.000Z</time>
      </trkpt>
      <trkpt lat="47.51722" lon="6.77513">
        <ele>396.5</ele>
        <time>2014-10-26T07:50:00.000Z</time>
      </trkpt>
      <trkpt lat="47.51721" lon="6.77519">
        <ele>396.7</ele>
        <time>2014-10-26T07:50:01.000Z</time>
      </trkpt>
      <trkpt lat="47.5172" lon="6.77527">
        <ele>397.2</ele>
        <time>2014-10-26T07:50:02.000Z</time>
      </trkpt>
      <trkpt lat="47.51718" lon="6.77534">
        <ele>397.3</ele>
        <time>2014-10-26T07:50:03.000Z</time>
      </trkpt>
      <trkpt lat="47.51718" lon="6.77541">
        <ele>397.9</ele>
        <time>2014-10-26T07:50:04.000Z</time>
      </trkpt>
      <trkpt lat="47.51717" lon="6.77547">
        <ele>398.2</ele>
        <time>2014-10-26T07:50:05.000Z</time>
      </trkpt>
      <trkpt lat="47.51715" lon="6.7755">
        <ele>398.4</ele>
        <time>2014-10-26T07:50:06.000Z</time>
      </trkpt>
      <trkpt lat="47.51713" lon="6.77551">
        <ele>399.9</ele>
        <time>2014-10-26T07:50:07.000Z</time>
      </trkpt>
      <trkpt lat="47.5171" lon="6.7755">
        <ele>401.2</ele>
        <time>2014-10-26T07:50:08.000Z</time>
      </trkpt>
      <trkpt lat="47.51708" lon="6.77549">
        <ele>402</ele>
        <time>2014-10-26T07:50:09.000Z</time>
      </trkpt>
      <trkpt lat="47.51705" lon="6.77548">
        <ele>402.4</ele>
        <time>2014-10-26T07:50:10.000Z</time>
      </trkpt>
      <trkpt lat="47.51703" lon="6.77547">
        <ele>402.5</ele>
        <time>2014-10-26T07:50:11.000Z</time>
      </trkpt>
      <trkpt lat="47.51698" lon="6.77542">
        <ele>404.3</ele>
        <time>2014-10-26T07:50:12.000Z</time>
      </trkpt>
      <trkpt lat="47.51693" lon="6.77536">
        <ele>403.5</ele>
        <time>2014-10-26T07:50:13.000Z</time>
      </trkpt>
      <trkpt lat="47.51687" lon="6.7753">
        <ele>402.6</ele>
        <time>2014-10-26T07:50:14.000Z</time>
      </trkpt>
      <trkpt lat="47.51683" lon="6.77524">
        <ele>402.2</ele>
        <time>2014-10-26T07:50:15.000Z</time>
      </trkpt>
      <trkpt lat="47.51677" lon="6.77518">
        <ele>401.5</ele>
        <time>2014-10-26T07:50:16.000Z</time>
      </trkpt>
      <trkpt lat="47.51672" lon="6.77512">
        <ele>400.9</ele>
        <time>2014-10-26T07:50:17.000Z</time>
      </trkpt>
      <trkpt lat="47.51667" lon="6.77506">
        <ele>400.5</ele>
        <time>2014-10-26T07:50:18.000Z</time>
      </trkpt>
      <trkpt lat="47.51663" lon="6.77501">
        <ele>399.9</ele>
        <time>2014-10-26T07:50:19.000Z</time>
      </trkpt>
      <trkpt lat="47.51659" lon="6.77496">
        <ele>399.9</ele>
        <time>2014-10-26T07:50:20.000Z</time>
      </trkpt>
      <trkpt lat="47.51652" lon="6.7749">
        <ele>398.8</ele>
        <time>2014-10-26T07:50:21.000Z</time>
      </trkpt>
      <trkpt lat="47.51647" lon="6.77483">
        <ele>398.2</ele>
        <time>2014-10-26T07:50:22.000Z</time>
      </trkpt>
      <trkpt lat="47.51641" lon="6.77476">
        <ele>397.9</ele>
        <time>2014-10-26T07:50:23.000Z</time>
      </trkpt>
      <trkpt lat="47.51635" lon="6.7747">
        <ele>397.7</ele>
        <time>2014-10-26T07:50:24.000Z</time>
      </trkpt>
      <trkpt lat="47.51629" lon="6.77463">
        <ele>397.3</ele>
        <time>2014-10-26T07:50:25.000Z</time>
      </trkpt>
      <trkpt lat="47.51623" lon="6.77456">
        <ele>396.5</ele>
        <time>2014-10-26T07:50:26.000Z</time>
      </trkpt>
      <trkpt lat="47.51616" lon="6.77449">
        <ele>395.9</ele>
        <time>2014-10-26T07:50:27.000Z</time>
      </trkpt>
      <trkpt lat="47.5161" lon="6.77442">
        <ele>395.4</ele>
        <time>2014-10-26T07:50:28.000Z</time>
      </trkpt>
      <trkpt lat="47.51604" lon="6.77436">
        <ele>395.6</ele>
        <time>2014-10-26T07:50:29.000Z</time>
      </trkpt>
      <trkpt lat="47.51598" lon="6.77428">
        <ele>394.7</ele>
        <time>2014-10-26T07:50:30.000Z</time>
      </trkpt>
      <trkpt lat="47.51592" lon="6.77421">
        <ele>394.6</ele>
        <time>2014-10-26T07:50:31.000Z</time>
      </trkpt>
      <trkpt lat="47.51586" lon="6.77413">
        <ele>394.8</ele>
        <time>2014-10-26T07:50:32.000Z</time>
      </trkpt>
      <trkpt lat="47.51568" lon="6.77396">
        <ele>347.2</ele>
        <time>2014-10-26T07:50:35.000Z</time>
      </trkpt>
      <trkpt lat="47.51555" lon="6.77385">
        <ele>347.7</ele>
        <time>2014-10-26T07:50:36.000Z</time>
      </trkpt>
      <trkpt lat="47.51545" lon="6.77376">
        <ele>348.4</ele>
        <time>2014-10-26T07:50:37.000Z</time>
      </trkpt>
      <trkpt lat="47.51537" lon="6.77366">
        <ele>349.1</ele>
        <time>2014-10-26T07:50:38.000Z</time>
      </trkpt>
      <trkpt lat="47.51527" lon="6.77355">
        <ele>350</ele>
        <time>2014-10-26T07:50:39.000Z</time>
      </trkpt>
      <trkpt lat="47.51518" lon="6.77346">
        <ele>350.1</ele>
        <time>2014-10-26T07:50:40.000Z</time>
      </trkpt>
      <trkpt lat="47.51511" lon="6.77338">
        <ele>350</ele>
        <time>2014-10-26T07:50:41.000Z</time>
      </trkpt>
      <trkpt lat="47.51503" lon="6.77329">
        <ele>350.2</ele>
        <time>2014-10-26T07:50:42.000Z</time>
      </trkpt>
      <trkpt lat="47.51495" lon="6.77319">
        <ele>349.6</ele>
        <time>2014-10-26T07:50:43.000Z</time>
      </trkpt>
      <trkpt lat="47.51487" lon="6.7731">
        <ele>350</ele>
        <time>2014-10-26T07:50:44.000Z</time>
      </trkpt>
      <trkpt lat="47.51482" lon="6.77298">
        <ele>350.7</ele>
        <time>2014-10-26T07:50:45.000Z</time>
      </trkpt>
      <trkpt lat="47.51481" lon="6.77285">
        <ele>352.5</ele>
        <time>2014-10-26T07:50:46.000Z</time>
      </trkpt>
      <trkpt lat="47.5148" lon="6.77273">
        <ele>353.6</ele>
        <time>2014-10-26T07:50:47.000Z</time>
      </trkpt>
      <trkpt lat="47.51479" lon="6.7726">
        <ele>354.5</ele>
        <time>2014-10-26T07:50:48.000Z</time>
      </trkpt>
      <trkpt lat="47.5148" lon="6.77246">
        <ele>355.9</ele>
        <time>2014-10-26T07:50:49.000Z</time>
      </trkpt>
      <trkpt lat="47.51479" lon="6.77233">
        <ele>355.9</ele>
        <time>2014-10-26T07:50:50.000Z</time>
      </trkpt>
      <trkpt lat="47.51479" lon="6.77221">
        <ele>358.1</ele>
        <time>2014-10-26T07:50:51.000Z</time>
      </trkpt>
      <trkpt lat="47.51477" lon="6.77212">
        <ele>359.7</ele>
        <time>2014-10-26T07:50:52.000Z</time>
      </trkpt>
      <trkpt lat="47.51471" lon="6.77206">
        <ele>359.8</ele>
        <time>2014-10-26T07:50:53.000Z</time>
      </trkpt>
      <trkpt lat="47.51465" lon="6.77202">
        <ele>360.9</ele>
        <time>2014-10-26T07:50:54.000Z</time>
      </trkpt>
      <trkpt lat="47.51457" lon="6.77203">
        <ele>360.9</ele>
        <time>2014-10-26T07:50:55.000Z</time>
      </trkpt>
      <trkpt lat="47.5145" lon="6.77207">
        <ele>361.5</ele>
        <time>2014-10-26T07:50:56.000Z</time>
      </trkpt>
      <trkpt lat="47.51442" lon="6.77211">
        <ele>361.9</ele>
        <time>2014-10-26T07:50:57.000Z</time>
      </trkpt>
      <trkpt lat="47.51433" lon="6.77214">
        <ele>362.4</ele>
        <time>2014-10-26T07:50:58.000Z</time>
      </trkpt>
      <trkpt lat="47.51426" lon="6.77217">
        <ele>363</ele>
        <time>2014-10-26T07:50:59.000Z</time>
      </trkpt>
      <trkpt lat="47.51419" lon="6.77221">
        <ele>363.8</ele>
        <time>2014-10-26T07:51:00.000Z</time>
      </trkpt>
      <trkpt lat="47.51412" lon="6.77224">
        <ele>364.5</ele>
        <time>2014-10-26T07:51:01.000Z</time>
      </trkpt>
      <trkpt lat="47.51405" lon="6.77227">
        <ele>365.2</ele>
        <time>2014-10-26T07:51:02.000Z</time>
      </trkpt>
      <trkpt lat="47.514" lon="6.7723">
        <ele>365.7</ele>
        <time>2014-10-26T07:51:03.000Z</time>
      </trkpt>
      <trkpt lat="47.51394" lon="6.77234">
        <ele>366.3</ele>
        <time>2014-10-26T07:51:04.000Z</time>
      </trkpt>
      <trkpt lat="47.51389" lon="6.77238">
        <ele>367.4</ele>
        <time>2014-10-26T07:51:05.000Z</time>
      </trkpt>
      <trkpt lat="47.51384" lon="6.77241">
        <ele>368.5</ele>
        <time>2014-10-26T07:51:06.000Z</time>
      </trkpt>
      <trkpt lat="47.51379" lon="6.77244">
        <ele>369.2</ele>
        <time>2014-10-26T07:51:07.000Z</time>
      </trkpt>
      <trkpt lat="47.51375" lon="6.77247">
        <ele>370.3</ele>
        <time>2014-10-26T07:51:08.000Z</time>
      </trkpt>
      <trkpt lat="47.5137" lon="6.7725">
        <ele>371.4</ele>
        <time>2014-10-26T07:51:09.000Z</time>
      </trkpt>
      <trkpt lat="47.51366" lon="6.77253">
        <ele>372.3</ele>
        <time>2014-10-26T07:51:10.000Z</time>
      </trkpt>
      <trkpt lat="47.51362" lon="6.77256">
        <ele>373.3</ele>
        <time>2014-10-26T07:51:11.000Z</time>
      </trkpt>
      <trkpt lat="47.51358" lon="6.77259">
        <ele>374.5</ele>
        <time>2014-10-26T07:51:12.000Z</time>
      </trkpt>
      <trkpt lat="47.51354" lon="6.77262">
        <ele>374.9</ele>
        <time>2014-10-26T07:51:13.000Z</time>
      </trkpt>
      <trkpt lat="47.51351" lon="6.77266">
        <ele>375.5</ele>
        <time>2014-10-26T07:51:14.000Z</time>
      </trkpt>
      <trkpt lat="47.51348" lon="6.77269">
        <ele>376.4</ele>
        <time>2014-10-26T07:51:15.000Z</time>
      </trkpt>
      <trkpt lat="47.51345" lon="6.77271">
        <ele>377.1</ele>
        <time>2014-10-26T07:51:16.000Z</time>
      </trkpt>
      <trkpt lat="47.51342" lon="6.77274">
        <ele>378.5</ele>
        <time>2014-10-26T07:51:17.000Z</time>
      </trkpt>
      <trkpt lat="47.51339" lon="6.77276">
        <ele>379.3</ele>
        <time>2014-10-26T07:51:18.000Z</time>
      </trkpt>
      <trkpt lat="47.51335" lon="6.77278">
        <ele>380</ele>
        <time>2014-10-26T07:51:19.000Z</time>
      </trkpt>
      <trkpt lat="47.51332" lon="6.7728">
        <ele>380.6</ele>
        <time>2014-10-26T07:51:20.000Z</time>
      </trkpt>
      <trkpt lat="47.51329" lon="6.77281">
        <ele>381.2</ele>
        <time>2014-10-26T07:51:21.000Z</time>
      </trkpt>
      <trkpt lat="47.51326" lon="6.77282">
        <ele>381.8</ele>
        <time>2014-10-26T07:51:22.000Z</time>
      </trkpt>
      <trkpt lat="47.51322" lon="6.77283">
        <ele>382.4</ele>
        <time>2014-10-26T07:51:23.000Z</time>
      </trkpt>
      <trkpt lat="47.51318" lon="6.77283">
        <ele>383.1</ele>
        <time>2014-10-26T07:51:24.000Z</time>
      </trkpt>
      <trkpt lat="47.51315" lon="6.77282">
        <ele>383.3</ele>
        <time>2014-10-26T07:51:25.000Z</time>
      </trkpt>
      <trkpt lat="47.51311" lon="6.77281">
        <ele>383.9</ele>
        <time>2014-10-26T07:51:26.000Z</time>
      </trkpt>
      <trkpt lat="47.51307" lon="6.7728">
        <ele>383.9</ele>
        <time>2014-10-26T07:51:27.000Z</time>
      </trkpt>
      <trkpt lat="47.51303" lon="6.77278">
        <ele>383.8</ele>
        <time>2014-10-26T07:51:28.000Z</time>
      </trkpt>
      <trkpt lat="47.51299" lon="6.77276">
        <ele>384.2</ele>
        <time>2014-10-26T07:51:29.000Z</time>
      </trkpt>
      <trkpt lat="47.51296" lon="6.77274">
        <ele>384.8</ele>
        <time>2014-10-26T07:51:30.000Z</time>
      </trkpt>
      <trkpt lat="47.51292" lon="6.77272">
        <ele>385.3</ele>
        <time>2014-10-26T07:51:31.000Z</time>
      </trkpt>
      <trkpt lat="47.51288" lon="6.7727">
        <ele>385.6</ele>
        <time>2014-10-26T07:51:32.000Z</time>
      </trkpt>
      <trkpt lat="47.51284" lon="6.77269">
        <ele>386</ele>
        <time>2014-10-26T07:51:33.000Z</time>
      </trkpt>
      <trkpt lat="47.51273" lon="6.77263">
        <ele>384</ele>
        <time>2014-10-26T07:51:36.000Z</time>
      </trkpt>
      <trkpt lat="47.51269" lon="6.77261">
        <ele>383.8</ele>
        <time>2014-10-26T07:51:37.000Z</time>
      </trkpt>
      <trkpt lat="47.51263" lon="6.77256">
        <ele>383.9</ele>
        <time>2014-10-26T07:51:38.000Z</time>
      </trkpt>
      <trkpt lat="47.5126" lon="6.77252">
        <ele>383.7</ele>
        <time>2014-10-26T07:51:39.000Z</time>
      </trkpt>
      <trkpt lat="47.51256" lon="6.77247">
        <ele>383.2</ele>
        <time>2014-10-26T07:51:40.000Z</time>
      </trkpt>
      <trkpt lat="47.51253" lon="6.77241">
        <ele>383.3</ele>
        <time>2014-10-26T07:51:41.000Z</time>
      </trkpt>
      <trkpt lat="47.5125" lon="6.77235">
        <ele>383.2</ele>
        <time>2014-10-26T07:51:42.000Z</time>
      </trkpt>
      <trkpt lat="47.51247" lon="6.77229">
        <ele>383.1</ele>
        <time>2014-10-26T07:51:43.000Z</time>
      </trkpt>
      <trkpt lat="47.51245" lon="6.77225">
        <ele>384.1</ele>
        <time>2014-10-26T07:51:44.000Z</time>
      </trkpt>
      <trkpt lat="47.51241" lon="6.77216">
        <ele>383.3</ele>
        <time>2014-10-26T07:51:45.000Z</time>
      </trkpt>
      <trkpt lat="47.51238" lon="6.77208">
        <ele>383</ele>
        <time>2014-10-26T07:51:46.000Z</time>
      </trkpt>
      <trkpt lat="47.51234" lon="6.77202">
        <ele>382.6</ele>
        <time>2014-10-26T07:51:47.000Z</time>
      </trkpt>
      <trkpt lat="47.5123" lon="6.77195">
        <ele>382.5</ele>
        <time>2014-10-26T07:51:48.000Z</time>
      </trkpt>
      <trkpt lat="47.51226" lon="6.77188">
        <ele>381.7</ele>
        <time>2014-10-26T07:51:49.000Z</time>
      </trkpt>
      <trkpt lat="47.51222" lon="6.77181">
        <ele>381.8</ele>
        <time>2014-10-26T07:51:50.000Z</time>
      </trkpt>
      <trkpt lat="47.51218" lon="6.77172">
        <ele>381.3</ele>
        <time>2014-10-26T07:51:51.000Z</time>
      </trkpt>
      <trkpt lat="47.51215" lon="6.77167">
        <ele>382.3</ele>
        <time>2014-10-26T07:51:52.000Z</time>
      </trkpt>
      <trkpt lat="47.51211" lon="6.77158">
        <ele>381.6</ele>
        <time>2014-10-26T07:51:53.000Z</time>
      </trkpt>
      <trkpt lat="47.51206" lon="6.77151">
        <ele>380.5</ele>
        <time>2014-10-26T07:51:54.000Z</time>
      </trkpt>
      <trkpt lat="47.51202" lon="6.77143">
        <ele>380.2</ele>
        <time>2014-10-26T07:51:55.000Z</time>
      </trkpt>
      <trkpt lat="47.51198" lon="6.77134">
        <ele>379.8</ele>
        <time>2014-10-26T07:51:56.000Z</time>
      </trkpt>
      <trkpt lat="47.51193" lon="6.77125">
        <ele>379.6</ele>
        <time>2014-10-26T07:51:57.000Z</time>
      </trkpt>
      <trkpt lat="47.51188" lon="6.77116">
        <ele>379.4</ele>
        <time>2014-10-26T07:51:58.000Z</time>
      </trkpt>
      <trkpt lat="47.51183" lon="6.77108">
        <ele>379.9</ele>
        <time>2014-10-26T07:51:59.000Z</time>
      </trkpt>
      <trkpt lat="47.51179" lon="6.77099">
        <ele>379.8</ele>
        <time>2014-10-26T07:52:00.000Z</time>
      </trkpt>
      <trkpt lat="47.51174" lon="6.77091">
        <ele>380</ele>
        <time>2014-10-26T07:52:01.000Z</time>
      </trkpt>
      <trkpt lat="47.51169" lon="6.77082">
        <ele>379.6</ele>
        <time>2014-10-26T07:52:02.000Z</time>
      </trkpt>
      <trkpt lat="47.51164" lon="6.77075">
        <ele>379</ele>
        <time>2014-10-26T07:52:03.000Z</time>
      </trkpt>
      <trkpt lat="47.51158" lon="6.77068">
        <ele>378.6</ele>
        <time>2014-10-26T07:52:04.000Z</time>
      </trkpt>
      <trkpt lat="47.51153" lon="6.77062">
        <ele>378.2</ele>
        <time>2014-10-26T07:52:05.000Z</time>
      </trkpt>
      <trkpt lat="47.51146" lon="6.77057">
        <ele>377.8</ele>
        <time>2014-10-26T07:52:06.000Z</time>
      </trkpt>
      <trkpt lat="47.51141" lon="6.77052">
        <ele>377.2</ele>
        <time>2014-10-26T07:52:07.000Z</time>
      </trkpt>
      <trkpt lat="47.51137" lon="6.77048">
        <ele>378.6</ele>
        <time>2014-10-26T07:52:08.000Z</time>
      </trkpt>
      <trkpt lat="47.51133" lon="6.77043">
        <ele>378.3</ele>
        <time>2014-10-26T07:52:09.000Z</time>
      </trkpt>
      <trkpt lat="47.51127" lon="6.77037">
        <ele>378.6</ele>
        <time>2014-10-26T07:52:10.000Z</time>
      </trkpt>
      <trkpt lat="47.51121" lon="6.77031">
        <ele>377.7</ele>
        <time>2014-10-26T07:52:11.000Z</time>
      </trkpt>
      <trkpt lat="47.51115" lon="6.77026">
        <ele>377.3</ele>
        <time>2014-10-26T07:52:12.000Z</time>
      </trkpt>
      <trkpt lat="47.51109" lon="6.77021">
        <ele>377.5</ele>
        <time>2014-10-26T07:52:13.000Z</time>
      </trkpt>
      <trkpt lat="47.51103" lon="6.77015">
        <ele>377.6</ele>
        <time>2014-10-26T07:52:14.000Z</time>
      </trkpt>
      <trkpt lat="47.51097" lon="6.7701">
        <ele>377.7</ele>
        <time>2014-10-26T07:52:15.000Z</time>
      </trkpt>
      <trkpt lat="47.51092" lon="6.77005">
        <ele>378.4</ele>
        <time>2014-10-26T07:52:16.000Z</time>
      </trkpt>
      <trkpt lat="47.51087" lon="6.77001">
        <ele>378.1</ele>
        <time>2014-10-26T07:52:17.000Z</time>
      </trkpt>
      <trkpt lat="47.51081" lon="6.76996">
        <ele>378</ele>
        <time>2014-10-26T07:52:18.000Z</time>
      </trkpt>
      <trkpt lat="47.51075" lon="6.76991">
        <ele>378.2</ele>
        <time>2014-10-26T07:52:19.000Z</time>
      </trkpt>
      <trkpt lat="47.51069" lon="6.76986">
        <ele>377.9</ele>
        <time>2014-10-26T07:52:20.000Z</time>
      </trkpt>
      <trkpt lat="47.51063" lon="6.76981">
        <ele>377.6</ele>
        <time>2014-10-26T07:52:21.000Z</time>
      </trkpt>
      <trkpt lat="47.51057" lon="6.76975">
        <ele>377.5</ele>
        <time>2014-10-26T07:52:22.000Z</time>
      </trkpt>
      <trkpt lat="47.51052" lon="6.7697">
        <ele>377.3</ele>
        <time>2014-10-26T07:52:23.000Z</time>
      </trkpt>
      <trkpt lat="47.51045" lon="6.76965">
        <ele>376.9</ele>
        <time>2014-10-26T07:52:24.000Z</time>
      </trkpt>
      <trkpt lat="47.5104" lon="6.7696">
        <ele>376.5</ele>
        <time>2014-10-26T07:52:25.000Z</time>
      </trkpt>
      <trkpt lat="47.51034" lon="6.76956">
        <ele>376.6</ele>
        <time>2014-10-26T07:52:26.000Z</time>
      </trkpt>
      <trkpt lat="47.51029" lon="6.76952">
        <ele>376.5</ele>
        <time>2014-10-26T07:52:27.000Z</time>
      </trkpt>
      <trkpt lat="47.51023" lon="6.76948">
        <ele>376.5</ele>
        <time>2014-10-26T07:52:28.000Z</time>
      </trkpt>
      <trkpt lat="47.51018" lon="6.76944">
        <ele>376.6</ele>
        <time>2014-10-26T07:52:29.000Z</time>
      </trkpt>
      <trkpt lat="47.51016" lon="6.7694">
        <ele>379</ele>
        <time>2014-10-26T07:52:30.000Z</time>
      </trkpt>
      <trkpt lat="47.51012" lon="6.76936">
        <ele>379.9</ele>
        <time>2014-10-26T07:52:31.000Z</time>
      </trkpt>
      <trkpt lat="47.51008" lon="6.76933">
        <ele>380</ele>
        <time>2014-10-26T07:52:32.000Z</time>
      </trkpt>
      <trkpt lat="47.50995" lon="6.76919">
        <ele>374.2</ele>
        <time>2014-10-26T07:52:35.000Z</time>
      </trkpt>
      <trkpt lat="47.50993" lon="6.76909">
        <ele>374.3</ele>
        <time>2014-10-26T07:52:36.000Z</time>
      </trkpt>
      <trkpt lat="47.5099" lon="6.76903">
        <ele>375.2</ele>
        <time>2014-10-26T07:52:37.000Z</time>
      </trkpt>
      <trkpt lat="47.50986" lon="6.76901">
        <ele>375.9</ele>
        <time>2014-10-26T07:52:38.000Z</time>
      </trkpt>
      <trkpt lat="47.50984" lon="6.76901">
        <ele>376.6</ele>
        <time>2014-10-26T07:52:39.000Z</time>
      </trkpt>
      <trkpt lat="47.50979" lon="6.769">
        <ele>383.3</ele>
        <time>2014-10-26T07:52:41.000Z</time>
      </trkpt>
      <trkpt lat="47.50974" lon="6.76898">
        <ele>384.3</ele>
        <time>2014-10-26T07:52:42.000Z</time>
      </trkpt>
      <trkpt lat="47.50971" lon="6.76895">
        <ele>385.5</ele>
        <time>2014-10-26T07:52:43.000Z</time>
      </trkpt>
      <trkpt lat="47.50967" lon="6.76891">
        <ele>386.7</ele>
        <time>2014-10-26T07:52:44.000Z</time>
      </trkpt>
      <trkpt lat="47.50962" lon="6.76887">
        <ele>387.6</ele>
        <time>2014-10-26T07:52:45.000Z</time>
      </trkpt>
      <trkpt lat="47.50957" lon="6.76883">
        <ele>388.1</ele>
        <time>2014-10-26T07:52:46.000Z</time>
      </trkpt>
      <trkpt lat="47.50953" lon="6.76879">
        <ele>388.3</ele>
        <time>2014-10-26T07:52:47.000Z</time>
      </trkpt>
      <trkpt lat="47.50948" lon="6.76874">
        <ele>388</ele>
        <time>2014-10-26T07:52:48.000Z</time>
      </trkpt>
      <trkpt lat="47.50944" lon="6.76869">
        <ele>388.1</ele>
        <time>2014-10-26T07:52:49.000Z</time>
      </trkpt>
      <trkpt lat="47.5094" lon="6.76864">
        <ele>388.3</ele>
        <time>2014-10-26T07:52:50.000Z</time>
      </trkpt>
      <trkpt lat="47.50935" lon="6.76858">
        <ele>388.7</ele>
        <time>2014-10-26T07:52:51.000Z</time>
      </trkpt>
      <trkpt lat="47.50932" lon="6.76853">
        <ele>389.3</ele>
        <time>2014-10-26T07:52:52.000Z</time>
      </trkpt>
      <trkpt lat="47.50929" lon="6.76847">
        <ele>389.7</ele>
        <time>2014-10-26T07:52:53.000Z</time>
      </trkpt>
      <trkpt lat="47.50926" lon="6.76841">
        <ele>389.4</ele>
        <time>2014-10-26T07:52:54.000Z</time>
      </trkpt>
      <trkpt lat="47.50922" lon="6.76835">
        <ele>389.4</ele>
        <time>2014-10-26T07:52:55.000Z</time>
      </trkpt>
      <trkpt lat="47.50919" lon="6.76829">
        <ele>389.5</ele>
        <time>2014-10-26T07:52:56.000Z</time>
      </trkpt>
      <trkpt lat="47.50917" lon="6.76823">
        <ele>390.4</ele>
        <time>2014-10-26T07:52:57.000Z</time>
      </trkpt>
      <trkpt lat="47.50914" lon="6.76816">
        <ele>390.3</ele>
        <time>2014-10-26T07:52:58.000Z</time>
      </trkpt>
      <trkpt lat="47.50912" lon="6.7681">
        <ele>391</ele>
        <time>2014-10-26T07:52:59.000Z</time>
      </trkpt>
      <trkpt lat="47.50909" lon="6.76804">
        <ele>390.7</ele>
        <time>2014-10-26T07:53:00.000Z</time>
      </trkpt>
      <trkpt lat="47.50907" lon="6.76799">
        <ele>390.6</ele>
        <time>2014-10-26T07:53:01.000Z</time>
      </trkpt>
      <trkpt lat="47.50905" lon="6.76793">
        <ele>390.9</ele>
        <time>2014-10-26T07:53:02.000Z</time>
      </trkpt>
      <trkpt lat="47.50902" lon="6.76788">
        <ele>391</ele>
        <time>2014-10-26T07:53:03.000Z</time>
      </trkpt>
      <trkpt lat="47.509" lon="6.76782">
        <ele>390.9</ele>
        <time>2014-10-26T07:53:04.000Z</time>
      </trkpt>
      <trkpt lat="47.50898" lon="6.76776">
        <ele>390.8</ele>
        <time>2014-10-26T07:53:05.000Z</time>
      </trkpt>
      <trkpt lat="47.50896" lon="6.7677">
        <ele>391</ele>
        <time>2014-10-26T07:53:06.000Z</time>
      </trkpt>
      <trkpt lat="47.50894" lon="6.76766">
        <ele>390.7</ele>
        <time>2014-10-26T07:53:07.000Z</time>
      </trkpt>
      <trkpt lat="47.50891" lon="6.76761">
        <ele>391</ele>
        <time>2014-10-26T07:53:08.000Z</time>
      </trkpt>
      <trkpt lat="47.50889" lon="6.76756">
        <ele>390.9</ele>
        <time>2014-10-26T07:53:09.000Z</time>
      </trkpt>
      <trkpt lat="47.50888" lon="6.76751">
        <ele>392.1</ele>
        <time>2014-10-26T07:53:10.000Z</time>
      </trkpt>
      <trkpt lat="47.50886" lon="6.76746">
        <ele>391.4</ele>
        <time>2014-10-26T07:53:11.000Z</time>
      </trkpt>
      <trkpt lat="47.50884" lon="6.76741">
        <ele>391.6</ele>
        <time>2014-10-26T07:53:12.000Z</time>
      </trkpt>
      <trkpt lat="47.50882" lon="6.76735">
        <ele>392.4</ele>
        <time>2014-10-26T07:53:13.000Z</time>
      </trkpt>
      <trkpt lat="47.5088" lon="6.76729">
        <ele>392.2</ele>
        <time>2014-10-26T07:53:14.000Z</time>
      </trkpt>
      <trkpt lat="47.50878" lon="6.76724">
        <ele>392.3</ele>
        <time>2014-10-26T07:53:15.000Z</time>
      </trkpt>
      <trkpt lat="47.50876" lon="6.76718">
        <ele>392.8</ele>
        <time>2014-10-26T07:53:16.000Z</time>
      </trkpt>
      <trkpt lat="47.50874" lon="6.76713">
        <ele>392.9</ele>
        <time>2014-10-26T07:53:17.000Z</time>
      </trkpt>
      <trkpt lat="47.50872" lon="6.76708">
        <ele>393.2</ele>
        <time>2014-10-26T07:53:18.000Z</time>
      </trkpt>
      <trkpt lat="47.5087" lon="6.76703">
        <ele>393.8</ele>
        <time>2014-10-26T07:53:19.000Z</time>
      </trkpt>
      <trkpt lat="47.50868" lon="6.76698">
        <ele>393.8</ele>
        <time>2014-10-26T07:53:20.000Z</time>
      </trkpt>
      <trkpt lat="47.50867" lon="6.76692">
        <ele>393.8</ele>
        <time>2014-10-26T07:53:21.000Z</time>
      </trkpt>
      <trkpt lat="47.50865" lon="6.76687">
        <ele>395.1</ele>
        <time>2014-10-26T07:53:22.000Z</time>
      </trkpt>
      <trkpt lat="47.50863" lon="6.76682">
        <ele>395.6</ele>
        <time>2014-10-26T07:53:23.000Z</time>
      </trkpt>
      <trkpt lat="47.5086" lon="6.76677">
        <ele>396.3</ele>
        <time>2014-10-26T07:53:24.000Z</time>
      </trkpt>
      <trkpt lat="47.50858" lon="6.76672">
        <ele>396.2</ele>
        <time>2014-10-26T07:53:25.000Z</time>
      </trkpt>
      <trkpt lat="47.50856" lon="6.76667">
        <ele>396.9</ele>
        <time>2014-10-26T07:53:26.000Z</time>
      </trkpt>
      <trkpt lat="47.50854" lon="6.76662">
        <ele>398.4</ele>
        <time>2014-10-26T07:53:27.000Z</time>
      </trkpt>
      <trkpt lat="47.50853" lon="6.76657">
        <ele>398.6</ele>
        <time>2014-10-26T07:53:28.000Z</time>
      </trkpt>
      <trkpt lat="47.50851" lon="6.76653">
        <ele>399.9</ele>
        <time>2014-10-26T07:53:29.000Z</time>
      </trkpt>
      <trkpt lat="47.50849" lon="6.76649">
        <ele>399.7</ele>
        <time>2014-10-26T07:53:30.000Z</time>
      </trkpt>
      <trkpt lat="47.50848" lon="6.76646">
        <ele>400</ele>
        <time>2014-10-26T07:53:31.000Z</time>
      </trkpt>
      <trkpt lat="47.50846" lon="6.76642">
        <ele>400.1</ele>
        <time>2014-10-26T07:53:32.000Z</time>
      </trkpt>
      <trkpt lat="47.50841" lon="6.7663">
        <ele>398.6</ele>
        <time>2014-10-26T07:53:35.000Z</time>
      </trkpt>
      <trkpt lat="47.50839" lon="6.76626">
        <ele>399.2</ele>
        <time>2014-10-26T07:53:36.000Z</time>
      </trkpt>
      <trkpt lat="47.50837" lon="6.76623">
        <ele>399.4</ele>
        <time>2014-10-26T07:53:37.000Z</time>
      </trkpt>
      <trkpt lat="47.50835" lon="6.76619">
        <ele>400</ele>
        <time>2014-10-26T07:53:38.000Z</time>
      </trkpt>
      <trkpt lat="47.50834" lon="6.76615">
        <ele>400.9</ele>
        <time>2014-10-26T07:53:39.000Z</time>
      </trkpt>
      <trkpt lat="47.50832" lon="6.76611">
        <ele>401.4</ele>
        <time>2014-10-26T07:53:40.000Z</time>
      </trkpt>
      <trkpt lat="47.50831" lon="6.76607">
        <ele>401.7</ele>
        <time>2014-10-26T07:53:41.000Z</time>
      </trkpt>
      <trkpt lat="47.5083" lon="6.76603">
        <ele>401.9</ele>
        <time>2014-10-26T07:53:42.000Z</time>
      </trkpt>
      <trkpt lat="47.50829" lon="6.76601">
        <ele>402.1</ele>
        <time>2014-10-26T07:53:43.000Z</time>
      </trkpt>
      <trkpt lat="47.50825" lon="6.76599">
        <ele>399.3</ele>
        <time>2014-10-26T07:53:45.000Z</time>
      </trkpt>
      <trkpt lat="47.50822" lon="6.76601">
        <ele>398.6</ele>
        <time>2014-10-26T07:53:46.000Z</time>
      </trkpt>
      <trkpt lat="47.50819" lon="6.76602">
        <ele>398.3</ele>
        <time>2014-10-26T07:53:47.000Z</time>
      </trkpt>
      <trkpt lat="47.50816" lon="6.76602">
        <ele>399.1</ele>
        <time>2014-10-26T07:53:48.000Z</time>
      </trkpt>
      <trkpt lat="47.50815" lon="6.766">
        <ele>399.3</ele>
        <time>2014-10-26T07:53:49.000Z</time>
      </trkpt>
      <trkpt lat="47.50813" lon="6.76597">
        <ele>399.8</ele>
        <time>2014-10-26T07:53:50.000Z</time>
      </trkpt>
      <trkpt lat="47.50812" lon="6.76593">
        <ele>399.3</ele>
        <time>2014-10-26T07:53:51.000Z</time>
      </trkpt>
      <trkpt lat="47.5081" lon="6.76591">
        <ele>399.8</ele>
        <time>2014-10-26T07:53:52.000Z</time>
      </trkpt>
      <trkpt lat="47.50808" lon="6.7659">
        <ele>400</ele>
        <time>2014-10-26T07:53:53.000Z</time>
      </trkpt>
      <trkpt lat="47.50805" lon="6.7659">
        <ele>400.2</ele>
        <time>2014-10-26T07:53:54.000Z</time>
      </trkpt>
      <trkpt lat="47.50802" lon="6.76593">
        <ele>400.6</ele>
        <time>2014-10-26T07:53:56.000Z</time>
      </trkpt>
      <trkpt lat="47.508" lon="6.76594">
        <ele>400.8</ele>
        <time>2014-10-26T07:53:57.000Z</time>
      </trkpt>
      <trkpt lat="47.50796" lon="6.76596">
        <ele>400.7</ele>
        <time>2014-10-26T07:53:59.000Z</time>
      </trkpt>
      <trkpt lat="47.50794" lon="6.76596">
        <ele>399.9</ele>
        <time>2014-10-26T07:54:00.000Z</time>
      </trkpt>
      <trkpt lat="47.50791" lon="6.76596">
        <ele>397.1</ele>
        <time>2014-10-26T07:54:01.000Z</time>
      </trkpt>
      <trkpt lat="47.50788" lon="6.76597">
        <ele>396.9</ele>
        <time>2014-10-26T07:54:02.000Z</time>
      </trkpt>
      <trkpt lat="47.50784" lon="6.76597">
        <ele>396.9</ele>
        <time>2014-10-26T07:54:03.000Z</time>
      </trkpt>
      <trkpt lat="47.50781" lon="6.76598">
        <ele>396.8</ele>
        <time>2014-10-26T07:54:04.000Z</time>
      </trkpt>
      <trkpt lat="47.50777" lon="6.76598">
        <ele>397.1</ele>
        <time>2014-10-26T07:54:05.000Z</time>
      </trkpt>
      <trkpt lat="47.50773" lon="6.76598">
        <ele>397.1</ele>
        <time>2014-10-26T07:54:06.000Z</time>
      </trkpt>
      <trkpt lat="47.5077" lon="6.76598">
        <ele>397.6</ele>
        <time>2014-10-26T07:54:07.000Z</time>
      </trkpt>
      <trkpt lat="47.50766" lon="6.76598">
        <ele>397.5</ele>
        <time>2014-10-26T07:54:08.000Z</time>
      </trkpt>
      <trkpt lat="47.50763" lon="6.76598">
        <ele>397.8</ele>
        <time>2014-10-26T07:54:09.000Z</time>
      </trkpt>
      <trkpt lat="47.50759" lon="6.76598">
        <ele>398.1</ele>
        <time>2014-10-26T07:54:10.000Z</time>
      </trkpt>
      <trkpt lat="47.50755" lon="6.76598">
        <ele>398.3</ele>
        <time>2014-10-26T07:54:11.000Z</time>
      </trkpt>
      <trkpt lat="47.50752" lon="6.76598">
        <ele>398.6</ele>
        <time>2014-10-26T07:54:12.000Z</time>
      </trkpt>
      <trkpt lat="47.50748" lon="6.76598">
        <ele>398.7</ele>
        <time>2014-10-26T07:54:13.000Z</time>
      </trkpt>
      <trkpt lat="47.50745" lon="6.76598">
        <ele>398.9</ele>
        <time>2014-10-26T07:54:14.000Z</time>
      </trkpt>
      <trkpt lat="47.50741" lon="6.76598">
        <ele>399.1</ele>
        <time>2014-10-26T07:54:15.000Z</time>
      </trkpt>
      <trkpt lat="47.50738" lon="6.76597">
        <ele>399.4</ele>
        <time>2014-10-26T07:54:16.000Z</time>
      </trkpt>
      <trkpt lat="47.50734" lon="6.76597">
        <ele>399.6</ele>
        <time>2014-10-26T07:54:17.000Z</time>
      </trkpt>
      <trkpt lat="47.5073" lon="6.76596">
        <ele>399.8</ele>
        <time>2014-10-26T07:54:18.000Z</time>
      </trkpt>
      <trkpt lat="47.50727" lon="6.76595">
        <ele>400.3</ele>
        <time>2014-10-26T07:54:19.000Z</time>
      </trkpt>
      <trkpt lat="47.50723" lon="6.76594">
        <ele>400</ele>
        <time>2014-10-26T07:54:20.000Z</time>
      </trkpt>
      <trkpt lat="47.50719" lon="6.76593">
        <ele>400.1</ele>
        <time>2014-10-26T07:54:21.000Z</time>
      </trkpt>
      <trkpt lat="47.50715" lon="6.76593">
        <ele>400</ele>
        <time>2014-10-26T07:54:22.000Z</time>
      </trkpt>
      <trkpt lat="47.50711" lon="6.76592">
        <ele>400</ele>
        <time>2014-10-26T07:54:23.000Z</time>
      </trkpt>
      <trkpt lat="47.50707" lon="6.76592">
        <ele>399.8</ele>
        <time>2014-10-26T07:54:24.000Z</time>
      </trkpt>
      <trkpt lat="47.50703" lon="6.76591">
        <ele>399.7</ele>
        <time>2014-10-26T07:54:25.000Z</time>
      </trkpt>
      <trkpt lat="47.507" lon="6.76591">
        <ele>399.7</ele>
        <time>2014-10-26T07:54:26.000Z</time>
      </trkpt>
      <trkpt lat="47.50696" lon="6.76591">
        <ele>399.9</ele>
        <time>2014-10-26T07:54:27.000Z</time>
      </trkpt>
      <trkpt lat="47.50693" lon="6.76591">
        <ele>400</ele>
        <time>2014-10-26T07:54:28.000Z</time>
      </trkpt>
      <trkpt lat="47.5069" lon="6.76591">
        <ele>400.2</ele>
        <time>2014-10-26T07:54:29.000Z</time>
      </trkpt>
      <trkpt lat="47.50687" lon="6.76591">
        <ele>399.9</ele>
        <time>2014-10-26T07:54:30.000Z</time>
      </trkpt>
      <trkpt lat="47.50683" lon="6.76592">
        <ele>399.8</ele>
        <time>2014-10-26T07:54:31.000Z</time>
      </trkpt>
      <trkpt lat="47.5068" lon="6.76592">
        <ele>400.1</ele>
        <time>2014-10-26T07:54:32.000Z</time>
      </trkpt>
      <trkpt lat="47.50677" lon="6.76593">
        <ele>400.2</ele>
        <time>2014-10-26T07:54:33.000Z</time>
      </trkpt>
      <trkpt lat="47.50667" lon="6.76595">
        <ele>398.8</ele>
        <time>2014-10-26T07:54:36.000Z</time>
      </trkpt>
      <trkpt lat="47.50664" lon="6.76596">
        <ele>399</ele>
        <time>2014-10-26T07:54:37.000Z</time>
      </trkpt>
      <trkpt lat="47.50661" lon="6.76597">
        <ele>399.6</ele>
        <time>2014-10-26T07:54:38.000Z</time>
      </trkpt>
      <trkpt lat="47.50657" lon="6.76598">
        <ele>400</ele>
        <time>2014-10-26T07:54:39.000Z</time>
      </trkpt>
      <trkpt lat="47.50654" lon="6.766">
        <ele>399.9</ele>
        <time>2014-10-26T07:54:40.000Z</time>
      </trkpt>
      <trkpt lat="47.50651" lon="6.76601">
        <ele>399.9</ele>
        <time>2014-10-26T07:54:41.000Z</time>
      </trkpt>
      <trkpt lat="47.50647" lon="6.76602">
        <ele>400.4</ele>
        <time>2014-10-26T07:54:42.000Z</time>
      </trkpt>
      <trkpt lat="47.50644" lon="6.76603">
        <ele>400.8</ele>
        <time>2014-10-26T07:54:43.000Z</time>
      </trkpt>
      <trkpt lat="47.50641" lon="6.76605">
        <ele>401</ele>
        <time>2014-10-26T07:54:44.000Z</time>
      </trkpt>
      <trkpt lat="47.50638" lon="6.76606">
        <ele>401.2</ele>
        <time>2014-10-26T07:54:45.000Z</time>
      </trkpt>
      <trkpt lat="47.50635" lon="6.76608">
        <ele>401.5</ele>
        <time>2014-10-26T07:54:46.000Z</time>
      </trkpt>
      <trkpt lat="47.50632" lon="6.7661">
        <ele>401.9</ele>
        <time>2014-10-26T07:54:47.000Z</time>
      </trkpt>
      <trkpt lat="47.50629" lon="6.76612">
        <ele>401.8</ele>
        <time>2014-10-26T07:54:48.000Z</time>
      </trkpt>
      <trkpt lat="47.50625" lon="6.76614">
        <ele>402</ele>
        <time>2014-10-26T07:54:49.000Z</time>
      </trkpt>
      <trkpt lat="47.50622" lon="6.76615">
        <ele>401.6</ele>
        <time>2014-10-26T07:54:50.000Z</time>
      </trkpt>
      <trkpt lat="47.50619" lon="6.76617">
        <ele>402</ele>
        <time>2014-10-26T07:54:51.000Z</time>
      </trkpt>
      <trkpt lat="47.50615" lon="6.76619">
        <ele>402.2</ele>
        <time>2014-10-26T07:54:52.000Z</time>
      </trkpt>
      <trkpt lat="47.50612" lon="6.7662">
        <ele>402.3</ele>
        <time>2014-10-26T07:54:53.000Z</time>
      </trkpt>
      <trkpt lat="47.50609" lon="6.76622">
        <ele>401.6</ele>
        <time>2014-10-26T07:54:54.000Z</time>
      </trkpt>
      <trkpt lat="47.50606" lon="6.76623">
        <ele>401.9</ele>
        <time>2014-10-26T07:54:55.000Z</time>
      </trkpt>
      <trkpt lat="47.50602" lon="6.76625">
        <ele>401.9</ele>
        <time>2014-10-26T07:54:56.000Z</time>
      </trkpt>
      <trkpt lat="47.50599" lon="6.76626">
        <ele>402.2</ele>
        <time>2014-10-26T07:54:57.000Z</time>
      </trkpt>
      <trkpt lat="47.50596" lon="6.76627">
        <ele>402</ele>
        <time>2014-10-26T07:54:58.000Z</time>
      </trkpt>
      <trkpt lat="47.50593" lon="6.76628">
        <ele>401.8</ele>
        <time>2014-10-26T07:54:59.000Z</time>
      </trkpt>
      <trkpt lat="47.50589" lon="6.76629">
        <ele>401.9</ele>
        <time>2014-10-26T07:55:00.000Z</time>
      </trkpt>
      <trkpt lat="47.50586" lon="6.7663">
        <ele>402.1</ele>
        <time>2014-10-26T07:55:01.000Z</time>
      </trkpt>
      <trkpt lat="47.50583" lon="6.76631">
        <ele>402.1</ele>
        <time>2014-10-26T07:55:02.000Z</time>
      </trkpt>
      <trkpt lat="47.50579" lon="6.76632">
        <ele>402.3</ele>
        <time>2014-10-26T07:55:03.000Z</time>
      </trkpt>
      <trkpt lat="47.50576" lon="6.76633">
        <ele>402.4</ele>
        <time>2014-10-26T07:55:04.000Z</time>
      </trkpt>
      <trkpt lat="47.50573" lon="6.76633">
        <ele>402.6</ele>
        <time>2014-10-26T07:55:05.000Z</time>
      </trkpt>
      <trkpt lat="47.5057" lon="6.76634">
        <ele>402.9</ele>
        <time>2014-10-26T07:55:06.000Z</time>
      </trkpt>
      <trkpt lat="47.50567" lon="6.76635">
        <ele>402.9</ele>
        <time>2014-10-26T07:55:07.000Z</time>
      </trkpt>
      <trkpt lat="47.50564" lon="6.76636">
        <ele>403.2</ele>
        <time>2014-10-26T07:55:08.000Z</time>
      </trkpt>
      <trkpt lat="47.50561" lon="6.76637">
        <ele>403.3</ele>
        <time>2014-10-26T07:55:09.000Z</time>
      </trkpt>
      <trkpt lat="47.50558" lon="6.76638">
        <ele>403.5</ele>
        <time>2014-10-26T07:55:10.000Z</time>
      </trkpt>
      <trkpt lat="47.50556" lon="6.76639">
        <ele>403.7</ele>
        <time>2014-10-26T07:55:11.000Z</time>
      </trkpt>
      <trkpt lat="47.50553" lon="6.7664">
        <ele>404.6</ele>
        <time>2014-10-26T07:55:12.000Z</time>
      </trkpt>
      <trkpt lat="47.5055" lon="6.76641">
        <ele>404.8</ele>
        <time>2014-10-26T07:55:13.000Z</time>
      </trkpt>
      <trkpt lat="47.50546" lon="6.76643">
        <ele>404.6</ele>
        <time>2014-10-26T07:55:14.000Z</time>
      </trkpt>
      <trkpt lat="47.50543" lon="6.76644">
        <ele>404.5</ele>
        <time>2014-10-26T07:55:15.000Z</time>
      </trkpt>
      <trkpt lat="47.50539" lon="6.76645">
        <ele>404.4</ele>
        <time>2014-10-26T07:55:16.000Z</time>
      </trkpt>
      <trkpt lat="47.50536" lon="6.76646">
        <ele>404.3</ele>
        <time>2014-10-26T07:55:17.000Z</time>
      </trkpt>
      <trkpt lat="47.50532" lon="6.76647">
        <ele>403.9</ele>
        <time>2014-10-26T07:55:18.000Z</time>
      </trkpt>
      <trkpt lat="47.50528" lon="6.76648">
        <ele>403.8</ele>
        <time>2014-10-26T07:55:19.000Z</time>
      </trkpt>
      <trkpt lat="47.50523" lon="6.76649">
        <ele>403.6</ele>
        <time>2014-10-26T07:55:20.000Z</time>
      </trkpt>
      <trkpt lat="47.50518" lon="6.76651">
        <ele>403.5</ele>
        <time>2014-10-26T07:55:21.000Z</time>
      </trkpt>
      <trkpt lat="47.50514" lon="6.76652">
        <ele>403.8</ele>
        <time>2014-10-26T07:55:22.000Z</time>
      </trkpt>
      <trkpt lat="47.50509" lon="6.76653">
        <ele>403.2</ele>
        <time>2014-10-26T07:55:23.000Z</time>
      </trkpt>
      <trkpt lat="47.50504" lon="6.76655">
        <ele>403.4</ele>
        <time>2014-10-26T07:55:24.000Z</time>
      </trkpt>
      <trkpt lat="47.50499" lon="6.76656">
        <ele>403.1</ele>
        <time>2014-10-26T07:55:25.000Z</time>
      </trkpt>
      <trkpt lat="47.50494" lon="6.76658">
        <ele>403.1</ele>
        <time>2014-10-26T07:55:26.000Z</time>
      </trkpt>
      <trkpt lat="47.50489" lon="6.7666">
        <ele>402.9</ele>
        <time>2014-10-26T07:55:27.000Z</time>
      </trkpt>
      <trkpt lat="47.50484" lon="6.76662">
        <ele>402.6</ele>
        <time>2014-10-26T07:55:28.000Z</time>
      </trkpt>
      <trkpt lat="47.50478" lon="6.76664">
        <ele>402.5</ele>
        <time>2014-10-26T07:55:29.000Z</time>
      </trkpt>
      <trkpt lat="47.50473" lon="6.76666">
        <ele>402.4</ele>
        <time>2014-10-26T07:55:30.000Z</time>
      </trkpt>
      <trkpt lat="47.50468" lon="6.76668">
        <ele>402.5</ele>
        <time>2014-10-26T07:55:31.000Z</time>
      </trkpt>
      <trkpt lat="47.50463" lon="6.7667">
        <ele>402.3</ele>
        <time>2014-10-26T07:55:32.000Z</time>
      </trkpt>
      <trkpt lat="47.50449" lon="6.76676">
        <ele>400.6</ele>
        <time>2014-10-26T07:55:35.000Z</time>
      </trkpt>
      <trkpt lat="47.50444" lon="6.76678">
        <ele>400.4</ele>
        <time>2014-10-26T07:55:36.000Z</time>
      </trkpt>
      <trkpt lat="47.50439" lon="6.7668">
        <ele>400.4</ele>
        <time>2014-10-26T07:55:37.000Z</time>
      </trkpt>
      <trkpt lat="47.50434" lon="6.76682">
        <ele>400.1</ele>
        <time>2014-10-26T07:55:38.000Z</time>
      </trkpt>
      <trkpt lat="47.50429" lon="6.76684">
        <ele>399.9</ele>
        <time>2014-10-26T07:55:39.000Z</time>
      </trkpt>
      <trkpt lat="47.50425" lon="6.76686">
        <ele>400.9</ele>
        <time>2014-10-26T07:55:40.000Z</time>
      </trkpt>
      <trkpt lat="47.50421" lon="6.76688">
        <ele>401.4</ele>
        <time>2014-10-26T07:55:41.000Z</time>
      </trkpt>
      <trkpt lat="47.50416" lon="6.7669">
        <ele>401.6</ele>
        <time>2014-10-26T07:55:42.000Z</time>
      </trkpt>
      <trkpt lat="47.50412" lon="6.76691">
        <ele>401.4</ele>
        <time>2014-10-26T07:55:43.000Z</time>
      </trkpt>
      <trkpt lat="47.50407" lon="6.76693">
        <ele>401.8</ele>
        <time>2014-10-26T07:55:44.000Z</time>
      </trkpt>
      <trkpt lat="47.50403" lon="6.76695">
        <ele>401.8</ele>
        <time>2014-10-26T07:55:45.000Z</time>
      </trkpt>
      <trkpt lat="47.50399" lon="6.76697">
        <ele>401.6</ele>
        <time>2014-10-26T07:55:46.000Z</time>
      </trkpt>
      <trkpt lat="47.50394" lon="6.76699">
        <ele>401.7</ele>
        <time>2014-10-26T07:55:47.000Z</time>
      </trkpt>
      <trkpt lat="47.5039" lon="6.76701">
        <ele>401.9</ele>
        <time>2014-10-26T07:55:48.000Z</time>
      </trkpt>
      <trkpt lat="47.50386" lon="6.76704">
        <ele>402.1</ele>
        <time>2014-10-26T07:55:49.000Z</time>
      </trkpt>
      <trkpt lat="47.50382" lon="6.76706">
        <ele>402.3</ele>
        <time>2014-10-26T07:55:50.000Z</time>
      </trkpt>
      <trkpt lat="47.50378" lon="6.76708">
        <ele>401.9</ele>
        <time>2014-10-26T07:55:51.000Z</time>
      </trkpt>
      <trkpt lat="47.50374" lon="6.76709">
        <ele>402</ele>
        <time>2014-10-26T07:55:52.000Z</time>
      </trkpt>
      <trkpt lat="47.50369" lon="6.7671">
        <ele>402</ele>
        <time>2014-10-26T07:55:53.000Z</time>
      </trkpt>
      <trkpt lat="47.50365" lon="6.76712">
        <ele>402.1</ele>
        <time>2014-10-26T07:55:54.000Z</time>
      </trkpt>
      <trkpt lat="47.50361" lon="6.76714">
        <ele>402</ele>
        <time>2014-10-26T07:55:55.000Z</time>
      </trkpt>
      <trkpt lat="47.50356" lon="6.76716">
        <ele>402</ele>
        <time>2014-10-26T07:55:56.000Z</time>
      </trkpt>
      <trkpt lat="47.50352" lon="6.76718">
        <ele>401.9</ele>
        <time>2014-10-26T07:55:57.000Z</time>
      </trkpt>
      <trkpt lat="47.50347" lon="6.76719">
        <ele>402.1</ele>
        <time>2014-10-26T07:55:58.000Z</time>
      </trkpt>
      <trkpt lat="47.50343" lon="6.76721">
        <ele>402.5</ele>
        <time>2014-10-26T07:55:59.000Z</time>
      </trkpt>
      <trkpt lat="47.50339" lon="6.76723">
        <ele>402.5</ele>
        <time>2014-10-26T07:56:00.000Z</time>
      </trkpt>
      <trkpt lat="47.50335" lon="6.76724">
        <ele>402.4</ele>
        <time>2014-10-26T07:56:01.000Z</time>
      </trkpt>
      <trkpt lat="47.50331" lon="6.76726">
        <ele>402.7</ele>
        <time>2014-10-26T07:56:02.000Z</time>
      </trkpt>
      <trkpt lat="47.50326" lon="6.76727">
        <ele>402.9</ele>
        <time>2014-10-26T07:56:03.000Z</time>
      </trkpt>
      <trkpt lat="47.50322" lon="6.76729">
        <ele>402.8</ele>
        <time>2014-10-26T07:56:04.000Z</time>
      </trkpt>
      <trkpt lat="47.50318" lon="6.76731">
        <ele>402.6</ele>
        <time>2014-10-26T07:56:05.000Z</time>
      </trkpt>
      <trkpt lat="47.50314" lon="6.76733">
        <ele>402.5</ele>
        <time>2014-10-26T07:56:06.000Z</time>
      </trkpt>
      <trkpt lat="47.5031" lon="6.76735">
        <ele>402.3</ele>
        <time>2014-10-26T07:56:07.000Z</time>
      </trkpt>
      <trkpt lat="47.50306" lon="6.76736">
        <ele>402.4</ele>
        <time>2014-10-26T07:56:08.000Z</time>
      </trkpt>
      <trkpt lat="47.50303" lon="6.76738">
        <ele>402.3</ele>
        <time>2014-10-26T07:56:09.000Z</time>
      </trkpt>
      <trkpt lat="47.50299" lon="6.76738">
        <ele>402.2</ele>
        <time>2014-10-26T07:56:10.000Z</time>
      </trkpt>
      <trkpt lat="47.50296" lon="6.76739">
        <ele>401.9</ele>
        <time>2014-10-26T07:56:11.000Z</time>
      </trkpt>
      <trkpt lat="47.50293" lon="6.7674">
        <ele>402.1</ele>
        <time>2014-10-26T07:56:12.000Z</time>
      </trkpt>
      <trkpt lat="47.50289" lon="6.7674">
        <ele>402</ele>
        <time>2014-10-26T07:56:13.000Z</time>
      </trkpt>
      <trkpt lat="47.50286" lon="6.7674">
        <ele>402.8</ele>
        <time>2014-10-26T07:56:14.000Z</time>
      </trkpt>
      <trkpt lat="47.50282" lon="6.76741">
        <ele>402.6</ele>
        <time>2014-10-26T07:56:15.000Z</time>
      </trkpt>
      <trkpt lat="47.50278" lon="6.76741">
        <ele>403.1</ele>
        <time>2014-10-26T07:56:16.000Z</time>
      </trkpt>
      <trkpt lat="47.50274" lon="6.76742">
        <ele>402.9</ele>
        <time>2014-10-26T07:56:17.000Z</time>
      </trkpt>
      <trkpt lat="47.50271" lon="6.76743">
        <ele>403</ele>
        <time>2014-10-26T07:56:18.000Z</time>
      </trkpt>
      <trkpt lat="47.50268" lon="6.76744">
        <ele>403.2</ele>
        <time>2014-10-26T07:56:19.000Z</time>
      </trkpt>
      <trkpt lat="47.50264" lon="6.76745">
        <ele>402.9</ele>
        <time>2014-10-26T07:56:20.000Z</time>
      </trkpt>
      <trkpt lat="47.50261" lon="6.76746">
        <ele>403</ele>
        <time>2014-10-26T07:56:21.000Z</time>
      </trkpt>
      <trkpt lat="47.50258" lon="6.76747">
        <ele>403.1</ele>
        <time>2014-10-26T07:56:22.000Z</time>
      </trkpt>
      <trkpt lat="47.50254" lon="6.76748">
        <ele>403.3</ele>
        <time>2014-10-26T07:56:23.000Z</time>
      </trkpt>
      <trkpt lat="47.50251" lon="6.76747">
        <ele>403.5</ele>
        <time>2014-10-26T07:56:24.000Z</time>
      </trkpt>
      <trkpt lat="47.50249" lon="6.76746">
        <ele>403.5</ele>
        <time>2014-10-26T07:56:25.000Z</time>
      </trkpt>
      <trkpt lat="47.50246" lon="6.76743">
        <ele>403.4</ele>
        <time>2014-10-26T07:56:26.000Z</time>
      </trkpt>
      <trkpt lat="47.50244" lon="6.7674">
        <ele>403.2</ele>
        <time>2014-10-26T07:56:27.000Z</time>
      </trkpt>
      <trkpt lat="47.50243" lon="6.76737">
        <ele>403.5</ele>
        <time>2014-10-26T07:56:28.000Z</time>
      </trkpt>
      <trkpt lat="47.50241" lon="6.76733">
        <ele>404.4</ele>
        <time>2014-10-26T07:56:29.000Z</time>
      </trkpt>
      <trkpt lat="47.5024" lon="6.76729">
        <ele>405</ele>
        <time>2014-10-26T07:56:30.000Z</time>
      </trkpt>
      <trkpt lat="47.50238" lon="6.76725">
        <ele>405.3</ele>
        <time>2014-10-26T07:56:31.000Z</time>
      </trkpt>
      <trkpt lat="47.50236" lon="6.76721">
        <ele>405.7</ele>
        <time>2014-10-26T07:56:32.000Z</time>
      </trkpt>
      <trkpt lat="47.50231" lon="6.76709">
        <ele>404.4</ele>
        <time>2014-10-26T07:56:35.000Z</time>
      </trkpt>
      <trkpt lat="47.50229" lon="6.76705">
        <ele>404.8</ele>
        <time>2014-10-26T07:56:36.000Z</time>
      </trkpt>
      <trkpt lat="47.50227" lon="6.767">
        <ele>404.7</ele>
        <time>2014-10-26T07:56:37.000Z</time>
      </trkpt>
      <trkpt lat="47.50226" lon="6.76695">
        <ele>405.4</ele>
        <time>2014-10-26T07:56:38.000Z</time>
      </trkpt>
      <trkpt lat="47.50224" lon="6.7669">
        <ele>405.5</ele>
        <time>2014-10-26T07:56:39.000Z</time>
      </trkpt>
      <trkpt lat="47.50222" lon="6.76685">
        <ele>405.9</ele>
        <time>2014-10-26T07:56:40.000Z</time>
      </trkpt>
      <trkpt lat="47.50221" lon="6.7668">
        <ele>405.5</ele>
        <time>2014-10-26T07:56:41.000Z</time>
      </trkpt>
      <trkpt lat="47.50219" lon="6.76675">
        <ele>405.7</ele>
        <time>2014-10-26T07:56:42.000Z</time>
      </trkpt>
      <trkpt lat="47.50217" lon="6.7667">
        <ele>405.6</ele>
        <time>2014-10-26T07:56:43.000Z</time>
      </trkpt>
      <trkpt lat="47.50215" lon="6.76664">
        <ele>406.2</ele>
        <time>2014-10-26T07:56:44.000Z</time>
      </trkpt>
      <trkpt lat="47.50214" lon="6.76658">
        <ele>406.2</ele>
        <time>2014-10-26T07:56:45.000Z</time>
      </trkpt>
      <trkpt lat="47.50212" lon="6.76653">
        <ele>405.6</ele>
        <time>2014-10-26T07:56:46.000Z</time>
      </trkpt>
      <trkpt lat="47.5021" lon="6.76647">
        <ele>405.8</ele>
        <time>2014-10-26T07:56:47.000Z</time>
      </trkpt>
      <trkpt lat="47.50208" lon="6.76642">
        <ele>405.7</ele>
        <time>2014-10-26T07:56:48.000Z</time>
      </trkpt>
      <trkpt lat="47.50206" lon="6.76636">
        <ele>405.3</ele>
        <time>2014-10-26T07:56:49.000Z</time>
      </trkpt>
      <trkpt lat="47.50204" lon="6.76631">
        <ele>405.2</ele>
        <time>2014-10-26T07:56:50.000Z</time>
      </trkpt>
      <trkpt lat="47.50202" lon="6.76626">
        <ele>404.9</ele>
        <time>2014-10-26T07:56:51.000Z</time>
      </trkpt>
      <trkpt lat="47.502" lon="6.7662">
        <ele>404.6</ele>
        <time>2014-10-26T07:56:52.000Z</time>
      </trkpt>
      <trkpt lat="47.50199" lon="6.76616">
        <ele>404.5</ele>
        <time>2014-10-26T07:56:53.000Z</time>
      </trkpt>
      <trkpt lat="47.50198" lon="6.76611">
        <ele>404.3</ele>
        <time>2014-10-26T07:56:54.000Z</time>
      </trkpt>
      <trkpt lat="47.50197" lon="6.76607">
        <ele>404.8</ele>
        <time>2014-10-26T07:56:55.000Z</time>
      </trkpt>
      <trkpt lat="47.50197" lon="6.76603">
        <ele>405.2</ele>
        <time>2014-10-26T07:56:56.000Z</time>
      </trkpt>
      <trkpt lat="47.50197" lon="6.76599">
        <ele>405.2</ele>
        <time>2014-10-26T07:56:57.000Z</time>
      </trkpt>
      <trkpt lat="47.50196" lon="6.76594">
        <ele>403.2</ele>
        <time>2014-10-26T07:56:58.000Z</time>
      </trkpt>
      <trkpt lat="47.50196" lon="6.76589">
        <ele>403.1</ele>
        <time>2014-10-26T07:56:59.000Z</time>
      </trkpt>
      <trkpt lat="47.50196" lon="6.76585">
        <ele>403</ele>
        <time>2014-10-26T07:57:00.000Z</time>
      </trkpt>
      <trkpt lat="47.50195" lon="6.76581">
        <ele>404.3</ele>
        <time>2014-10-26T07:57:01.000Z</time>
      </trkpt>
      <trkpt lat="47.50195" lon="6.76576">
        <ele>404.3</ele>
        <time>2014-10-26T07:57:03.000Z</time>
      </trkpt>
      <trkpt lat="47.50195" lon="6.76574">
        <ele>404.2</ele>
        <time>2014-10-26T07:57:04.000Z</time>
      </trkpt>
      <trkpt lat="47.50198" lon="6.76571">
        <ele>404.7</ele>
        <time>2014-10-26T07:57:06.000Z</time>
      </trkpt>
      <trkpt lat="47.502" lon="6.7657">
        <ele>404.9</ele>
        <time>2014-10-26T07:57:07.000Z</time>
      </trkpt>
      <trkpt lat="47.50203" lon="6.76569">
        <ele>405.3</ele>
        <time>2014-10-26T07:57:08.000Z</time>
      </trkpt>
      <trkpt lat="47.50205" lon="6.76569">
        <ele>405.7</ele>
        <time>2014-10-26T07:57:09.000Z</time>
      </trkpt>
      <trkpt lat="47.50208" lon="6.76569">
        <ele>406.2</ele>
        <time>2014-10-26T07:57:10.000Z</time>
      </trkpt>
      <trkpt lat="47.50211" lon="6.76569">
        <ele>406.4</ele>
        <time>2014-10-26T07:57:11.000Z</time>
      </trkpt>
      <trkpt lat="47.50215" lon="6.76566">
        <ele>406.9</ele>
        <time>2014-10-26T07:57:13.000Z</time>
      </trkpt>
      <trkpt lat="47.50216" lon="6.76563">
        <ele>407.7</ele>
        <time>2014-10-26T07:57:14.000Z</time>
      </trkpt>
      <trkpt lat="47.50216" lon="6.76559">
        <ele>408.3</ele>
        <time>2014-10-26T07:57:15.000Z</time>
      </trkpt>
      <trkpt lat="47.50216" lon="6.76555">
        <ele>409</ele>
        <time>2014-10-26T07:57:16.000Z</time>
      </trkpt>
      <trkpt lat="47.50216" lon="6.76551">
        <ele>409.9</ele>
        <time>2014-10-26T07:57:17.000Z</time>
      </trkpt>
      <trkpt lat="47.50215" lon="6.76547">
        <ele>410.5</ele>
        <time>2014-10-26T07:57:18.000Z</time>
      </trkpt>
      <trkpt lat="47.50215" lon="6.76542">
        <ele>411.8</ele>
        <time>2014-10-26T07:57:19.000Z</time>
      </trkpt>
      <trkpt lat="47.50215" lon="6.76537">
        <ele>413.3</ele>
        <time>2014-10-26T07:57:20.000Z</time>
      </trkpt>
      <trkpt lat="47.50214" lon="6.76531">
        <ele>414.1</ele>
        <time>2014-10-26T07:57:21.000Z</time>
      </trkpt>
      <trkpt lat="47.50214" lon="6.76525">
        <ele>415</ele>
        <time>2014-10-26T07:57:22.000Z</time>
      </trkpt>
      <trkpt lat="47.50214" lon="6.76519">
        <ele>416</ele>
        <time>2014-10-26T07:57:23.000Z</time>
      </trkpt>
      <trkpt lat="47.50213" lon="6.76511">
        <ele>416.3</ele>
        <time>2014-10-26T07:57:24.000Z</time>
      </trkpt>
      <trkpt lat="47.50212" lon="6.76503">
        <ele>416.8</ele>
        <time>2014-10-26T07:57:25.000Z</time>
      </trkpt>
      <trkpt lat="47.50205" lon="6.76483">
        <ele>418.1</ele>
        <time>2014-10-26T07:57:26.000Z</time>
      </trkpt>
      <trkpt lat="47.50204" lon="6.76473">
        <ele>418.6</ele>
        <time>2014-10-26T07:57:27.000Z</time>
      </trkpt>
      <trkpt lat="47.50202" lon="6.76461">
        <ele>418.8</ele>
        <time>2014-10-26T07:57:28.000Z</time>
      </trkpt>
      <trkpt lat="47.50199" lon="6.7645">
        <ele>418.9</ele>
        <time>2014-10-26T07:57:29.000Z</time>
      </trkpt>
      <trkpt lat="47.50198" lon="6.76443">
        <ele>419.2</ele>
        <time>2014-10-26T07:57:30.000Z</time>
      </trkpt>
      <trkpt lat="47.50196" lon="6.76433">
        <ele>419.6</ele>
        <time>2014-10-26T07:57:31.000Z</time>
      </trkpt>
      <trkpt lat="47.50195" lon="6.76426">
        <ele>420.2</ele>
        <time>2014-10-26T07:57:32.000Z</time>
      </trkpt>
      <trkpt lat="47.50191" lon="6.76402">
        <ele>410.1</ele>
        <time>2014-10-26T07:57:35.000Z</time>
      </trkpt>
      <trkpt lat="47.5019" lon="6.76389">
        <ele>410.3</ele>
        <time>2014-10-26T07:57:36.000Z</time>
      </trkpt>
      <trkpt lat="47.50189" lon="6.76378">
        <ele>410.4</ele>
        <time>2014-10-26T07:57:37.000Z</time>
      </trkpt>
      <trkpt lat="47.50187" lon="6.76367">
        <ele>410.4</ele>
        <time>2014-10-26T07:57:38.000Z</time>
      </trkpt>
      <trkpt lat="47.50186" lon="6.76354">
        <ele>410.3</ele>
        <time>2014-10-26T07:57:39.000Z</time>
      </trkpt>
      <trkpt lat="47.50184" lon="6.76345">
        <ele>410.2</ele>
        <time>2014-10-26T07:57:40.000Z</time>
      </trkpt>
      <trkpt lat="47.50182" lon="6.76335">
        <ele>410.2</ele>
        <time>2014-10-26T07:57:41.000Z</time>
      </trkpt>
      <trkpt lat="47.50181" lon="6.76326">
        <ele>410.5</ele>
        <time>2014-10-26T07:57:42.000Z</time>
      </trkpt>
      <trkpt lat="47.50175" lon="6.76318">
        <ele>411</ele>
        <time>2014-10-26T07:57:43.000Z</time>
      </trkpt>
      <trkpt lat="47.5017" lon="6.76308">
        <ele>412</ele>
        <time>2014-10-26T07:57:44.000Z</time>
      </trkpt>
      <trkpt lat="47.50168" lon="6.76297">
        <ele>412.4</ele>
        <time>2014-10-26T07:57:45.000Z</time>
      </trkpt>
      <trkpt lat="47.50163" lon="6.76288">
        <ele>412.9</ele>
        <time>2014-10-26T07:57:46.000Z</time>
      </trkpt>
      <trkpt lat="47.50158" lon="6.76279">
        <ele>413.5</ele>
        <time>2014-10-26T07:57:47.000Z</time>
      </trkpt>
      <trkpt lat="47.50152" lon="6.76269">
        <ele>413.8</ele>
        <time>2014-10-26T07:57:48.000Z</time>
      </trkpt>
      <trkpt lat="47.50151" lon="6.76258">
        <ele>414</ele>
        <time>2014-10-26T07:57:49.000Z</time>
      </trkpt>
      <trkpt lat="47.5015" lon="6.76247">
        <ele>414.4</ele>
        <time>2014-10-26T07:57:50.000Z</time>
      </trkpt>
      <trkpt lat="47.50146" lon="6.76234">
        <ele>414.8</ele>
        <time>2014-10-26T07:57:51.000Z</time>
      </trkpt>
      <trkpt lat="47.50144" lon="6.76226">
        <ele>414.2</ele>
        <time>2014-10-26T07:57:52.000Z</time>
      </trkpt>
      <trkpt lat="47.50144" lon="6.76216">
        <ele>414.3</ele>
        <time>2014-10-26T07:57:53.000Z</time>
      </trkpt>
      <trkpt lat="47.50141" lon="6.76207">
        <ele>414</ele>
        <time>2014-10-26T07:57:54.000Z</time>
      </trkpt>
      <trkpt lat="47.50141" lon="6.762">
        <ele>414</ele>
        <time>2014-10-26T07:57:55.000Z</time>
      </trkpt>
      <trkpt lat="47.50139" lon="6.76194">
        <ele>414.1</ele>
        <time>2014-10-26T07:57:56.000Z</time>
      </trkpt>
      <trkpt lat="47.5014" lon="6.76187">
        <ele>414.7</ele>
        <time>2014-10-26T07:57:57.000Z</time>
      </trkpt>
      <trkpt lat="47.50136" lon="6.76181">
        <ele>414.8</ele>
        <time>2014-10-26T07:57:58.000Z</time>
      </trkpt>
      <trkpt lat="47.50132" lon="6.76174">
        <ele>415</ele>
        <time>2014-10-26T07:57:59.000Z</time>
      </trkpt>
      <trkpt lat="47.50128" lon="6.76165">
        <ele>416.1</ele>
        <time>2014-10-26T07:58:00.000Z</time>
      </trkpt>
      <trkpt lat="47.50127" lon="6.7616">
        <ele>416.6</ele>
        <time>2014-10-26T07:58:01.000Z</time>
      </trkpt>
      <trkpt lat="47.50125" lon="6.76153">
        <ele>416.9</ele>
        <time>2014-10-26T07:58:02.000Z</time>
      </trkpt>
      <trkpt lat="47.50123" lon="6.76146">
        <ele>417.4</ele>
        <time>2014-10-26T07:58:03.000Z</time>
      </trkpt>
      <trkpt lat="47.50122" lon="6.76139">
        <ele>417.5</ele>
        <time>2014-10-26T07:58:04.000Z</time>
      </trkpt>
      <trkpt lat="47.50119" lon="6.76119">
        <ele>417.8</ele>
        <time>2014-10-26T07:58:05.000Z</time>
      </trkpt>
      <trkpt lat="47.50118" lon="6.7611">
        <ele>416.9</ele>
        <time>2014-10-26T07:58:06.000Z</time>
      </trkpt>
      <trkpt lat="47.50114" lon="6.76095">
        <ele>417.3</ele>
        <time>2014-10-26T07:58:07.000Z</time>
      </trkpt>
      <trkpt lat="47.50112" lon="6.76082">
        <ele>416.4</ele>
        <time>2014-10-26T07:58:08.000Z</time>
      </trkpt>
      <trkpt lat="47.50109" lon="6.76071">
        <ele>415.4</ele>
        <time>2014-10-26T07:58:09.000Z</time>
      </trkpt>
      <trkpt lat="47.50108" lon="6.76054">
        <ele>414.2</ele>
        <time>2014-10-26T07:58:10.000Z</time>
      </trkpt>
      <trkpt lat="47.50107" lon="6.76037">
        <ele>415.3</ele>
        <time>2014-10-26T07:58:11.000Z</time>
      </trkpt>
      <trkpt lat="47.50104" lon="6.76024">
        <ele>413.9</ele>
        <time>2014-10-26T07:58:12.000Z</time>
      </trkpt>
      <trkpt lat="47.50103" lon="6.76015">
        <ele>412.2</ele>
        <time>2014-10-26T07:58:13.000Z</time>
      </trkpt>
      <trkpt lat="47.50102" lon="6.76009">
        <ele>412.1</ele>
        <time>2014-10-26T07:58:14.000Z</time>
      </trkpt>
      <trkpt lat="47.50102" lon="6.76004">
        <ele>412.3</ele>
        <time>2014-10-26T07:58:15.000Z</time>
      </trkpt>
      <trkpt lat="47.50098" lon="6.75989">
        <ele>410</ele>
        <time>2014-10-26T07:58:16.000Z</time>
      </trkpt>
      <trkpt lat="47.50095" lon="6.75981">
        <ele>410.5</ele>
        <time>2014-10-26T07:58:17.000Z</time>
      </trkpt>
      <trkpt lat="47.50092" lon="6.75972">
        <ele>411.1</ele>
        <time>2014-10-26T07:58:18.000Z</time>
      </trkpt>
      <trkpt lat="47.50089" lon="6.75966">
        <ele>412.2</ele>
        <time>2014-10-26T07:58:19.000Z</time>
      </trkpt>
      <trkpt lat="47.50086" lon="6.75957">
        <ele>412.1</ele>
        <time>2014-10-26T07:58:20.000Z</time>
      </trkpt>
      <trkpt lat="47.50083" lon="6.75949">
        <ele>413.8</ele>
        <time>2014-10-26T07:58:21.000Z</time>
      </trkpt>
      <trkpt lat="47.50077" lon="6.75942">
        <ele>415.2</ele>
        <time>2014-10-26T07:58:22.000Z</time>
      </trkpt>
      <trkpt lat="47.50074" lon="6.75936">
        <ele>414.9</ele>
        <time>2014-10-26T07:58:23.000Z</time>
      </trkpt>
      <trkpt lat="47.5007" lon="6.75928">
        <ele>414.6</ele>
        <time>2014-10-26T07:58:24.000Z</time>
      </trkpt>
      <trkpt lat="47.50064" lon="6.75921">
        <ele>414.4</ele>
        <time>2014-10-26T07:58:25.000Z</time>
      </trkpt>
      <trkpt lat="47.50057" lon="6.75912">
        <ele>413.7</ele>
        <time>2014-10-26T07:58:26.000Z</time>
      </trkpt>
      <trkpt lat="47.50053" lon="6.75903">
        <ele>412.9</ele>
        <time>2014-10-26T07:58:27.000Z</time>
      </trkpt>
      <trkpt lat="47.5005" lon="6.75895">
        <ele>413.1</ele>
        <time>2014-10-26T07:58:28.000Z</time>
      </trkpt>
      <trkpt lat="47.50045" lon="6.75889">
        <ele>413.6</ele>
        <time>2014-10-26T07:58:29.000Z</time>
      </trkpt>
      <trkpt lat="47.50041" lon="6.75881">
        <ele>414.5</ele>
        <time>2014-10-26T07:58:30.000Z</time>
      </trkpt>
      <trkpt lat="47.50036" lon="6.75871">
        <ele>414.7</ele>
        <time>2014-10-26T07:58:31.000Z</time>
      </trkpt>
      <trkpt lat="47.5003" lon="6.75863">
        <ele>414.4</ele>
        <time>2014-10-26T07:58:32.000Z</time>
      </trkpt>
      <trkpt lat="47.50015" lon="6.7584">
        <ele>400.6</ele>
        <time>2014-10-26T07:58:35.000Z</time>
      </trkpt>
      <trkpt lat="47.50011" lon="6.75828">
        <ele>401.2</ele>
        <time>2014-10-26T07:58:36.000Z</time>
      </trkpt>
      <trkpt lat="47.50008" lon="6.75819">
        <ele>401.5</ele>
        <time>2014-10-26T07:58:37.000Z</time>
      </trkpt>
      <trkpt lat="47.50003" lon="6.75811">
        <ele>402.1</ele>
        <time>2014-10-26T07:58:38.000Z</time>
      </trkpt>
      <trkpt lat="47.49997" lon="6.75802">
        <ele>402.1</ele>
        <time>2014-10-26T07:58:39.000Z</time>
      </trkpt>
      <trkpt lat="47.49991" lon="6.75793">
        <ele>402.1</ele>
        <time>2014-10-26T07:58:40.000Z</time>
      </trkpt>
      <trkpt lat="47.49982" lon="6.75784">
        <ele>401</ele>
        <time>2014-10-26T07:58:41.000Z</time>
      </trkpt>
      <trkpt lat="47.49973" lon="6.75775">
        <ele>399.7</ele>
        <time>2014-10-26T07:58:42.000Z</time>
      </trkpt>
      <trkpt lat="47.49965" lon="6.75765">
        <ele>399.1</ele>
        <time>2014-10-26T07:58:43.000Z</time>
      </trkpt>
      <trkpt lat="47.49956" lon="6.75754">
        <ele>398.3</ele>
        <time>2014-10-26T07:58:44.000Z</time>
      </trkpt>
      <trkpt lat="47.49952" lon="6.75746">
        <ele>397.4</ele>
        <time>2014-10-26T07:58:45.000Z</time>
      </trkpt>
      <trkpt lat="47.49943" lon="6.75738">
        <ele>395.9</ele>
        <time>2014-10-26T07:58:46.000Z</time>
      </trkpt>
      <trkpt lat="47.49934" lon="6.75729">
        <ele>390.5</ele>
        <time>2014-10-26T07:58:47.000Z</time>
      </trkpt>
      <trkpt lat="47.49927" lon="6.75725">
        <ele>389.3</ele>
        <time>2014-10-26T07:58:48.000Z</time>
      </trkpt>
      <trkpt lat="47.49922" lon="6.75725">
        <ele>389.1</ele>
        <time>2014-10-26T07:58:49.000Z</time>
      </trkpt>
      <trkpt lat="47.49913" lon="6.75725">
        <ele>388.5</ele>
        <time>2014-10-26T07:58:50.000Z</time>
      </trkpt>
      <trkpt lat="47.49905" lon="6.75726">
        <ele>388.2</ele>
        <time>2014-10-26T07:58:51.000Z</time>
      </trkpt>
      <trkpt lat="47.49896" lon="6.75726">
        <ele>386.9</ele>
        <time>2014-10-26T07:58:52.000Z</time>
      </trkpt>
      <trkpt lat="47.49888" lon="6.75725">
        <ele>387</ele>
        <time>2014-10-26T07:58:53.000Z</time>
      </trkpt>
      <trkpt lat="47.49882" lon="6.75727">
        <ele>386.6</ele>
        <time>2014-10-26T07:58:54.000Z</time>
      </trkpt>
      <trkpt lat="47.49872" lon="6.75729">
        <ele>385.6</ele>
        <time>2014-10-26T07:58:55.000Z</time>
      </trkpt>
      <trkpt lat="47.49862" lon="6.75729">
        <ele>384.4</ele>
        <time>2014-10-26T07:58:56.000Z</time>
      </trkpt>
      <trkpt lat="47.4985" lon="6.75729">
        <ele>383.4</ele>
        <time>2014-10-26T07:58:57.000Z</time>
      </trkpt>
      <trkpt lat="47.49841" lon="6.75729">
        <ele>382.8</ele>
        <time>2014-10-26T07:58:58.000Z</time>
      </trkpt>
      <trkpt lat="47.49833" lon="6.7573">
        <ele>383.1</ele>
        <time>2014-10-26T07:58:59.000Z</time>
      </trkpt>
      <trkpt lat="47.49824" lon="6.75732">
        <ele>382.6</ele>
        <time>2014-10-26T07:59:00.000Z</time>
      </trkpt>
      <trkpt lat="47.49812" lon="6.75734">
        <ele>381.4</ele>
        <time>2014-10-26T07:59:01.000Z</time>
      </trkpt>
      <trkpt lat="47.49804" lon="6.75736">
        <ele>380.5</ele>
        <time>2014-10-26T07:59:02.000Z</time>
      </trkpt>
      <trkpt lat="47.49794" lon="6.75742">
        <ele>378.7</ele>
        <time>2014-10-26T07:59:03.000Z</time>
      </trkpt>
      <trkpt lat="47.49783" lon="6.75745">
        <ele>377.8</ele>
        <time>2014-10-26T07:59:04.000Z</time>
      </trkpt>
      <trkpt lat="47.49774" lon="6.75746">
        <ele>377.1</ele>
        <time>2014-10-26T07:59:05.000Z</time>
      </trkpt>
      <trkpt lat="47.49763" lon="6.75747">
        <ele>377.5</ele>
        <time>2014-10-26T07:59:06.000Z</time>
      </trkpt>
      <trkpt lat="47.49754" lon="6.7575">
        <ele>375.7</ele>
        <time>2014-10-26T07:59:07.000Z</time>
      </trkpt>
      <trkpt lat="47.49744" lon="6.75754">
        <ele>374</ele>
        <time>2014-10-26T07:59:08.000Z</time>
      </trkpt>
      <trkpt lat="47.49736" lon="6.75758">
        <ele>374</ele>
        <time>2014-10-26T07:59:09.000Z</time>
      </trkpt>
      <trkpt lat="47.49728" lon="6.75761">
        <ele>372.7</ele>
        <time>2014-10-26T07:59:10.000Z</time>
      </trkpt>
      <trkpt lat="47.49722" lon="6.75763">
        <ele>372.8</ele>
        <time>2014-10-26T07:59:11.000Z</time>
      </trkpt>
      <trkpt lat="47.49716" lon="6.75765">
        <ele>371.6</ele>
        <time>2014-10-26T07:59:12.000Z</time>
      </trkpt>
      <trkpt lat="47.49709" lon="6.75769">
        <ele>370.6</ele>
        <time>2014-10-26T07:59:13.000Z</time>
      </trkpt>
      <trkpt lat="47.49702" lon="6.75773">
        <ele>370.3</ele>
        <time>2014-10-26T07:59:14.000Z</time>
      </trkpt>
      <trkpt lat="47.49695" lon="6.75775">
        <ele>370.4</ele>
        <time>2014-10-26T07:59:15.000Z</time>
      </trkpt>
      <trkpt lat="47.49687" lon="6.75776">
        <ele>370.2</ele>
        <time>2014-10-26T07:59:16.000Z</time>
      </trkpt>
      <trkpt lat="47.49681" lon="6.75777">
        <ele>369.9</ele>
        <time>2014-10-26T07:59:17.000Z</time>
      </trkpt>
      <trkpt lat="47.49674" lon="6.75777">
        <ele>369.8</ele>
        <time>2014-10-26T07:59:18.000Z</time>
      </trkpt>
      <trkpt lat="47.49668" lon="6.75778">
        <ele>369.2</ele>
        <time>2014-10-26T07:59:19.000Z</time>
      </trkpt>
      <trkpt lat="47.49663" lon="6.75778">
        <ele>368.8</ele>
        <time>2014-10-26T07:59:20.000Z</time>
      </trkpt>
      <trkpt lat="47.49657" lon="6.75774">
        <ele>368.6</ele>
        <time>2014-10-26T07:59:21.000Z</time>
      </trkpt>
      <trkpt lat="47.49648" lon="6.75772">
        <ele>368.3</ele>
        <time>2014-10-26T07:59:22.000Z</time>
      </trkpt>
      <trkpt lat="47.4964" lon="6.75771">
        <ele>367.9</ele>
        <time>2014-10-26T07:59:23.000Z</time>
      </trkpt>
      <trkpt lat="47.49632" lon="6.75769">
        <ele>367.4</ele>
        <time>2014-10-26T07:59:24.000Z</time>
      </trkpt>
      <trkpt lat="47.49624" lon="6.75767">
        <ele>366.2</ele>
        <time>2014-10-26T07:59:25.000Z</time>
      </trkpt>
      <trkpt lat="47.49615" lon="6.75768">
        <ele>366.4</ele>
        <time>2014-10-26T07:59:26.000Z</time>
      </trkpt>
      <trkpt lat="47.49611" lon="6.75767">
        <ele>364</ele>
        <time>2014-10-26T07:59:27.000Z</time>
      </trkpt>
      <trkpt lat="47.49604" lon="6.75766">
        <ele>362.9</ele>
        <time>2014-10-26T07:59:28.000Z</time>
      </trkpt>
      <trkpt lat="47.49597" lon="6.75765">
        <ele>361.9</ele>
        <time>2014-10-26T07:59:29.000Z</time>
      </trkpt>
      <trkpt lat="47.49588" lon="6.75766">
        <ele>359.2</ele>
        <time>2014-10-26T07:59:30.000Z</time>
      </trkpt>
      <trkpt lat="47.4958" lon="6.75764">
        <ele>358.2</ele>
        <time>2014-10-26T07:59:31.000Z</time>
      </trkpt>
      <trkpt lat="47.49574" lon="6.75762">
        <ele>357.8</ele>
        <time>2014-10-26T07:59:32.000Z</time>
      </trkpt>
      <trkpt lat="47.49562" lon="6.75757">
        <ele>346.2</ele>
        <time>2014-10-26T07:59:35.000Z</time>
      </trkpt>
      <trkpt lat="47.49563" lon="6.75752">
        <ele>345.4</ele>
        <time>2014-10-26T07:59:36.000Z</time>
      </trkpt>
      <trkpt lat="47.49565" lon="6.75748">
        <ele>345.3</ele>
        <time>2014-10-26T07:59:37.000Z</time>
      </trkpt>
      <trkpt lat="47.49568" lon="6.75747">
        <ele>343.6</ele>
        <time>2014-10-26T07:59:39.000Z</time>
      </trkpt>
      <trkpt lat="47.49572" lon="6.75745">
        <ele>341.5</ele>
        <time>2014-10-26T07:59:40.000Z</time>
      </trkpt>
      <trkpt lat="47.49575" lon="6.75742">
        <ele>340.3</ele>
        <time>2014-10-26T07:59:41.000Z</time>
      </trkpt>
      <trkpt lat="47.49578" lon="6.75738">
        <ele>338.3</ele>
        <time>2014-10-26T07:59:42.000Z</time>
      </trkpt>
      <trkpt lat="47.49581" lon="6.75733">
        <ele>336.4</ele>
        <time>2014-10-26T07:59:43.000Z</time>
      </trkpt>
      <trkpt lat="47.49584" lon="6.75728">
        <ele>334.9</ele>
        <time>2014-10-26T07:59:44.000Z</time>
      </trkpt>
      <trkpt lat="47.49589" lon="6.75722">
        <ele>334.1</ele>
        <time>2014-10-26T07:59:45.000Z</time>
      </trkpt>
      <trkpt lat="47.49593" lon="6.75715">
        <ele>332</ele>
        <time>2014-10-26T07:59:46.000Z</time>
      </trkpt>
      <trkpt lat="47.49595" lon="6.75706">
        <ele>331.3</ele>
        <time>2014-10-26T07:59:47.000Z</time>
      </trkpt>
      <trkpt lat="47.49593" lon="6.75696">
        <ele>330.8</ele>
        <time>2014-10-26T07:59:48.000Z</time>
      </trkpt>
      <trkpt lat="47.49589" lon="6.75687">
        <ele>330.2</ele>
        <time>2014-10-26T07:59:49.000Z</time>
      </trkpt>
      <trkpt lat="47.49586" lon="6.75681">
        <ele>330.6</ele>
        <time>2014-10-26T07:59:50.000Z</time>
      </trkpt>
      <trkpt lat="47.4958" lon="6.75676">
        <ele>330.1</ele>
        <time>2014-10-26T07:59:51.000Z</time>
      </trkpt>
      <trkpt lat="47.49576" lon="6.75672">
        <ele>330.3</ele>
        <time>2014-10-26T07:59:52.000Z</time>
      </trkpt>
      <trkpt lat="47.4957" lon="6.75672">
        <ele>329.4</ele>
        <time>2014-10-26T07:59:53.000Z</time>
      </trkpt>
      <trkpt lat="47.49565" lon="6.75676">
        <ele>328.5</ele>
        <time>2014-10-26T07:59:54.000Z</time>
      </trkpt>
      <trkpt lat="47.4956" lon="6.75681">
        <ele>328.1</ele>
        <time>2014-10-26T07:59:55.000Z</time>
      </trkpt>
      <trkpt lat="47.49556" lon="6.75689">
        <ele>328.1</ele>
        <time>2014-10-26T07:59:56.000Z</time>
      </trkpt>
      <trkpt lat="47.49551" lon="6.75695">
        <ele>327.6</ele>
        <time>2014-10-26T07:59:57.000Z</time>
      </trkpt>
      <trkpt lat="47.49546" lon="6.75702">
        <ele>327.3</ele>
        <time>2014-10-26T07:59:58.000Z</time>
      </trkpt>
      <trkpt lat="47.49541" lon="6.75708">
        <ele>326.6</ele>
        <time>2014-10-26T07:59:59.000Z</time>
      </trkpt>
      <trkpt lat="47.49535" lon="6.75714">
        <ele>326.1</ele>
        <time>2014-10-26T08:00:00.000Z</time>
      </trkpt>
      <trkpt lat="47.4953" lon="6.75719">
        <ele>326.2</ele>
        <time>2014-10-26T08:00:01.000Z</time>
      </trkpt>
      <trkpt lat="47.49524" lon="6.75723">
        <ele>326.1</ele>
        <time>2014-10-26T08:00:02.000Z</time>
      </trkpt>
      <trkpt lat="47.49518" lon="6.75727">
        <ele>325.6</ele>
        <time>2014-10-26T08:00:03.000Z</time>
      </trkpt>
      <trkpt lat="47.49513" lon="6.7573">
        <ele>325.5</ele>
        <time>2014-10-26T08:00:04.000Z</time>
      </trkpt>
      <trkpt lat="47.49507" lon="6.75733">
        <ele>325.1</ele>
        <time>2014-10-26T08:00:05.000Z</time>
      </trkpt>
      <trkpt lat="47.49501" lon="6.75736">
        <ele>325.1</ele>
        <time>2014-10-26T08:00:06.000Z</time>
      </trkpt>
      <trkpt lat="47.49495" lon="6.75738">
        <ele>325</ele>
        <time>2014-10-26T08:00:07.000Z</time>
      </trkpt>
      <trkpt lat="47.49489" lon="6.7574">
        <ele>325.6</ele>
        <time>2014-10-26T08:00:08.000Z</time>
      </trkpt>
      <trkpt lat="47.49483" lon="6.75736">
        <ele>325.6</ele>
        <time>2014-10-26T08:00:09.000Z</time>
      </trkpt>
      <trkpt lat="47.49479" lon="6.75729">
        <ele>325.7</ele>
        <time>2014-10-26T08:00:10.000Z</time>
      </trkpt>
      <trkpt lat="47.49477" lon="6.75721">
        <ele>325.5</ele>
        <time>2014-10-26T08:00:11.000Z</time>
      </trkpt>
      <trkpt lat="47.49474" lon="6.75713">
        <ele>325.3</ele>
        <time>2014-10-26T08:00:12.000Z</time>
      </trkpt>
      <trkpt lat="47.49471" lon="6.75705">
        <ele>325.2</ele>
        <time>2014-10-26T08:00:13.000Z</time>
      </trkpt>
      <trkpt lat="47.49467" lon="6.75699">
        <ele>324.7</ele>
        <time>2014-10-26T08:00:14.000Z</time>
      </trkpt>
      <trkpt lat="47.49462" lon="6.75695">
        <ele>324.8</ele>
        <time>2014-10-26T08:00:15.000Z</time>
      </trkpt>
      <trkpt lat="47.49457" lon="6.75695">
        <ele>324.7</ele>
        <time>2014-10-26T08:00:16.000Z</time>
      </trkpt>
      <trkpt lat="47.49452" lon="6.75698">
        <ele>324.9</ele>
        <time>2014-10-26T08:00:17.000Z</time>
      </trkpt>
      <trkpt lat="47.49448" lon="6.75701">
        <ele>323.6</ele>
        <time>2014-10-26T08:00:18.000Z</time>
      </trkpt>
      <trkpt lat="47.49444" lon="6.75699">
        <ele>323.4</ele>
        <time>2014-10-26T08:00:19.000Z</time>
      </trkpt>
      <trkpt lat="47.49441" lon="6.75693">
        <ele>323.4</ele>
        <time>2014-10-26T08:00:20.000Z</time>
      </trkpt>
      <trkpt lat="47.49439" lon="6.75687">
        <ele>323.3</ele>
        <time>2014-10-26T08:00:21.000Z</time>
      </trkpt>
      <trkpt lat="47.49437" lon="6.7568">
        <ele>323.5</ele>
        <time>2014-10-26T08:00:22.000Z</time>
      </trkpt>
      <trkpt lat="47.49435" lon="6.75673">
        <ele>323.8</ele>
        <time>2014-10-26T08:00:23.000Z</time>
      </trkpt>
      <trkpt lat="47.49431" lon="6.75671">
        <ele>324.3</ele>
        <time>2014-10-26T08:00:24.000Z</time>
      </trkpt>
      <trkpt lat="47.49426" lon="6.75673">
        <ele>323.9</ele>
        <time>2014-10-26T08:00:25.000Z</time>
      </trkpt>
      <trkpt lat="47.49421" lon="6.75676">
        <ele>322.6</ele>
        <time>2014-10-26T08:00:26.000Z</time>
      </trkpt>
      <trkpt lat="47.49417" lon="6.7568">
        <ele>322.5</ele>
        <time>2014-10-26T08:00:27.000Z</time>
      </trkpt>
      <trkpt lat="47.49413" lon="6.75683">
        <ele>322.5</ele>
        <time>2014-10-26T08:00:28.000Z</time>
      </trkpt>
      <trkpt lat="47.49409" lon="6.75687">
        <ele>323.7</ele>
        <time>2014-10-26T08:00:29.000Z</time>
      </trkpt>
      <trkpt lat="47.49404" lon="6.7569">
        <ele>323.5</ele>
        <time>2014-10-26T08:00:30.000Z</time>
      </trkpt>
      <trkpt lat="47.49399" lon="6.75694">
        <ele>323.3</ele>
        <time>2014-10-26T08:00:31.000Z</time>
      </trkpt>
      <trkpt lat="47.49394" lon="6.75697">
        <ele>323</ele>
        <time>2014-10-26T08:00:32.000Z</time>
      </trkpt>
      <trkpt lat="47.49382" lon="6.75708">
        <ele>319.9</ele>
        <time>2014-10-26T08:00:35.000Z</time>
      </trkpt>
      <trkpt lat="47.49377" lon="6.75711">
        <ele>319.6</ele>
        <time>2014-10-26T08:00:36.000Z</time>
      </trkpt>
      <trkpt lat="47.49373" lon="6.75714">
        <ele>322.2</ele>
        <time>2014-10-26T08:00:37.000Z</time>
      </trkpt>
      <trkpt lat="47.4937" lon="6.75717">
        <ele>323.2</ele>
        <time>2014-10-26T08:00:38.000Z</time>
      </trkpt>
      <trkpt lat="47.49367" lon="6.75719">
        <ele>323.6</ele>
        <time>2014-10-26T08:00:39.000Z</time>
      </trkpt>
      <trkpt lat="47.49364" lon="6.75721">
        <ele>323.8</ele>
        <time>2014-10-26T08:00:40.000Z</time>
      </trkpt>
      <trkpt lat="47.49362" lon="6.75722">
        <ele>323.2</ele>
        <time>2014-10-26T08:00:41.000Z</time>
      </trkpt>
      <trkpt lat="47.4936" lon="6.75723">
        <ele>322.4</ele>
        <time>2014-10-26T08:00:42.000Z</time>
      </trkpt>
      <trkpt lat="47.49357" lon="6.75726">
        <ele>322.1</ele>
        <time>2014-10-26T08:00:43.000Z</time>
      </trkpt>
      <trkpt lat="47.49353" lon="6.75727">
        <ele>320.9</ele>
        <time>2014-10-26T08:00:44.000Z</time>
      </trkpt>
      <trkpt lat="47.49348" lon="6.75728">
        <ele>319.5</ele>
        <time>2014-10-26T08:00:45.000Z</time>
      </trkpt>
      <trkpt lat="47.49344" lon="6.75729">
        <ele>319.1</ele>
        <time>2014-10-26T08:00:46.000Z</time>
      </trkpt>
      <trkpt lat="47.4934" lon="6.75731">
        <ele>319.5</ele>
        <time>2014-10-26T08:00:47.000Z</time>
      </trkpt>
      <trkpt lat="47.49334" lon="6.75734">
        <ele>319.9</ele>
        <time>2014-10-26T08:00:48.000Z</time>
      </trkpt>
      <trkpt lat="47.49329" lon="6.75737">
        <ele>320</ele>
        <time>2014-10-26T08:00:49.000Z</time>
      </trkpt>
      <trkpt lat="47.49323" lon="6.75742">
        <ele>320.1</ele>
        <time>2014-10-26T08:00:50.000Z</time>
      </trkpt>
      <trkpt lat="47.49316" lon="6.75747">
        <ele>320</ele>
        <time>2014-10-26T08:00:51.000Z</time>
      </trkpt>
      <trkpt lat="47.49311" lon="6.75753">
        <ele>318.6</ele>
        <time>2014-10-26T08:00:52.000Z</time>
      </trkpt>
      <trkpt lat="47.49305" lon="6.75759">
        <ele>318.8</ele>
        <time>2014-10-26T08:00:53.000Z</time>
      </trkpt>
      <trkpt lat="47.49301" lon="6.75765">
        <ele>319.4</ele>
        <time>2014-10-26T08:00:54.000Z</time>
      </trkpt>
      <trkpt lat="47.49297" lon="6.75771">
        <ele>319.2</ele>
        <time>2014-10-26T08:00:55.000Z</time>
      </trkpt>
      <trkpt lat="47.49292" lon="6.75778">
        <ele>319.7</ele>
        <time>2014-10-26T08:00:56.000Z</time>
      </trkpt>
      <trkpt lat="47.49287" lon="6.75785">
        <ele>319.7</ele>
        <time>2014-10-26T08:00:57.000Z</time>
      </trkpt>
      <trkpt lat="47.49283" lon="6.75791">
        <ele>320</ele>
        <time>2014-10-26T08:00:58.000Z</time>
      </trkpt>
      <trkpt lat="47.49279" lon="6.75799">
        <ele>320.2</ele>
        <time>2014-10-26T08:00:59.000Z</time>
      </trkpt>
      <trkpt lat="47.49275" lon="6.75806">
        <ele>319.5</ele>
        <time>2014-10-26T08:01:00.000Z</time>
      </trkpt>
      <trkpt lat="47.49271" lon="6.75813">
        <ele>318.9</ele>
        <time>2014-10-26T08:01:01.000Z</time>
      </trkpt>
      <trkpt lat="47.49267" lon="6.7582">
        <ele>318.7</ele>
        <time>2014-10-26T08:01:02.000Z</time>
      </trkpt>
      <trkpt lat="47.49263" lon="6.75827">
        <ele>318.9</ele>
        <time>2014-10-26T08:01:03.000Z</time>
      </trkpt>
      <trkpt lat="47.49259" lon="6.75834">
        <ele>318.7</ele>
        <time>2014-10-26T08:01:04.000Z</time>
      </trkpt>
      <trkpt lat="47.49255" lon="6.75841">
        <ele>318.7</ele>
        <time>2014-10-26T08:01:05.000Z</time>
      </trkpt>
      <trkpt lat="47.49252" lon="6.75848">
        <ele>318.5</ele>
        <time>2014-10-26T08:01:06.000Z</time>
      </trkpt>
      <trkpt lat="47.49249" lon="6.75856">
        <ele>318.9</ele>
        <time>2014-10-26T08:01:07.000Z</time>
      </trkpt>
      <trkpt lat="47.49245" lon="6.75863">
        <ele>318.7</ele>
        <time>2014-10-26T08:01:08.000Z</time>
      </trkpt>
      <trkpt lat="47.49242" lon="6.7587">
        <ele>319.4</ele>
        <time>2014-10-26T08:01:09.000Z</time>
      </trkpt>
      <trkpt lat="47.49238" lon="6.75876">
        <ele>320.7</ele>
        <time>2014-10-26T08:01:10.000Z</time>
      </trkpt>
      <trkpt lat="47.49235" lon="6.75883">
        <ele>321.6</ele>
        <time>2014-10-26T08:01:11.000Z</time>
      </trkpt>
      <trkpt lat="47.49232" lon="6.7589">
        <ele>322</ele>
        <time>2014-10-26T08:01:12.000Z</time>
      </trkpt>
      <trkpt lat="47.49229" lon="6.75896">
        <ele>322.6</ele>
        <time>2014-10-26T08:01:13.000Z</time>
      </trkpt>
      <trkpt lat="47.49226" lon="6.75903">
        <ele>322.6</ele>
        <time>2014-10-26T08:01:14.000Z</time>
      </trkpt>
      <trkpt lat="47.49223" lon="6.7591">
        <ele>322.6</ele>
        <time>2014-10-26T08:01:15.000Z</time>
      </trkpt>
      <trkpt lat="47.4922" lon="6.75918">
        <ele>322.6</ele>
        <time>2014-10-26T08:01:16.000Z</time>
      </trkpt>
      <trkpt lat="47.49216" lon="6.75924">
        <ele>322.6</ele>
        <time>2014-10-26T08:01:17.000Z</time>
      </trkpt>
      <trkpt lat="47.49212" lon="6.75931">
        <ele>322.5</ele>
        <time>2014-10-26T08:01:18.000Z</time>
      </trkpt>
      <trkpt lat="47.49208" lon="6.75937">
        <ele>322.2</ele>
        <time>2014-10-26T08:01:19.000Z</time>
      </trkpt>
      <trkpt lat="47.49204" lon="6.75944">
        <ele>322.7</ele>
        <time>2014-10-26T08:01:20.000Z</time>
      </trkpt>
      <trkpt lat="47.49201" lon="6.7595">
        <ele>322.2</ele>
        <time>2014-10-26T08:01:21.000Z</time>
      </trkpt>
      <trkpt lat="47.49196" lon="6.75956">
        <ele>322</ele>
        <time>2014-10-26T08:01:22.000Z</time>
      </trkpt>
      <trkpt lat="47.49192" lon="6.75964">
        <ele>321.5</ele>
        <time>2014-10-26T08:01:23.000Z</time>
      </trkpt>
      <trkpt lat="47.49188" lon="6.75971">
        <ele>320.8</ele>
        <time>2014-10-26T08:01:24.000Z</time>
      </trkpt>
      <trkpt lat="47.49185" lon="6.7598">
        <ele>320.8</ele>
        <time>2014-10-26T08:01:25.000Z</time>
      </trkpt>
      <trkpt lat="47.49181" lon="6.75989">
        <ele>319.8</ele>
        <time>2014-10-26T08:01:26.000Z</time>
      </trkpt>
      <trkpt lat="47.49178" lon="6.75997">
        <ele>319.7</ele>
        <time>2014-10-26T08:01:27.000Z</time>
      </trkpt>
      <trkpt lat="47.49175" lon="6.76006">
        <ele>320.6</ele>
        <time>2014-10-26T08:01:28.000Z</time>
      </trkpt>
      <trkpt lat="47.49172" lon="6.76014">
        <ele>320.6</ele>
        <time>2014-10-26T08:01:29.000Z</time>
      </trkpt>
      <trkpt lat="47.49169" lon="6.76021">
        <ele>319.3</ele>
        <time>2014-10-26T08:01:30.000Z</time>
      </trkpt>
      <trkpt lat="47.49166" lon="6.76029">
        <ele>319.1</ele>
        <time>2014-10-26T08:01:31.000Z</time>
      </trkpt>
      <trkpt lat="47.49163" lon="6.76037">
        <ele>318.4</ele>
        <time>2014-10-26T08:01:32.000Z</time>
      </trkpt>
      <trkpt lat="47.49155" lon="6.7606">
        <ele>313.6</ele>
        <time>2014-10-26T08:01:35.000Z</time>
      </trkpt>
      <trkpt lat="47.49152" lon="6.76068">
        <ele>314.3</ele>
        <time>2014-10-26T08:01:36.000Z</time>
      </trkpt>
      <trkpt lat="47.4915" lon="6.76076">
        <ele>314.4</ele>
        <time>2014-10-26T08:01:37.000Z</time>
      </trkpt>
      <trkpt lat="47.49148" lon="6.76084">
        <ele>314.3</ele>
        <time>2014-10-26T08:01:38.000Z</time>
      </trkpt>
      <trkpt lat="47.49146" lon="6.76093">
        <ele>314.3</ele>
        <time>2014-10-26T08:01:39.000Z</time>
      </trkpt>
      <trkpt lat="47.49144" lon="6.76102">
        <ele>313.8</ele>
        <time>2014-10-26T08:01:40.000Z</time>
      </trkpt>
      <trkpt lat="47.49141" lon="6.76111">
        <ele>313.7</ele>
        <time>2014-10-26T08:01:41.000Z</time>
      </trkpt>
      <trkpt lat="47.49139" lon="6.76119">
        <ele>313.2</ele>
        <time>2014-10-26T08:01:42.000Z</time>
      </trkpt>
      <trkpt lat="47.49137" lon="6.76128">
        <ele>312.7</ele>
        <time>2014-10-26T08:01:43.000Z</time>
      </trkpt>
      <trkpt lat="47.49135" lon="6.76137">
        <ele>313</ele>
        <time>2014-10-26T08:01:44.000Z</time>
      </trkpt>
      <trkpt lat="47.49133" lon="6.76146">
        <ele>313</ele>
        <time>2014-10-26T08:01:45.000Z</time>
      </trkpt>
      <trkpt lat="47.49132" lon="6.76155">
        <ele>312.6</ele>
        <time>2014-10-26T08:01:46.000Z</time>
      </trkpt>
      <trkpt lat="47.49131" lon="6.76164">
        <ele>312.6</ele>
        <time>2014-10-26T08:01:47.000Z</time>
      </trkpt>
      <trkpt lat="47.49128" lon="6.76173">
        <ele>311.1</ele>
        <time>2014-10-26T08:01:48.000Z</time>
      </trkpt>
      <trkpt lat="47.49127" lon="6.76183">
        <ele>311</ele>
        <time>2014-10-26T08:01:49.000Z</time>
      </trkpt>
      <trkpt lat="47.49126" lon="6.76192">
        <ele>311.1</ele>
        <time>2014-10-26T08:01:50.000Z</time>
      </trkpt>
      <trkpt lat="47.49126" lon="6.76201">
        <ele>311.1</ele>
        <time>2014-10-26T08:01:51.000Z</time>
      </trkpt>
      <trkpt lat="47.49126" lon="6.7621">
        <ele>311.2</ele>
        <time>2014-10-26T08:01:52.000Z</time>
      </trkpt>
      <trkpt lat="47.49126" lon="6.76219">
        <ele>311.5</ele>
        <time>2014-10-26T08:01:53.000Z</time>
      </trkpt>
      <trkpt lat="47.49126" lon="6.76228">
        <ele>312</ele>
        <time>2014-10-26T08:01:54.000Z</time>
      </trkpt>
      <trkpt lat="47.49125" lon="6.76237">
        <ele>311.7</ele>
        <time>2014-10-26T08:01:55.000Z</time>
      </trkpt>
      <trkpt lat="47.49124" lon="6.76245">
        <ele>312.3</ele>
        <time>2014-10-26T08:01:56.000Z</time>
      </trkpt>
      <trkpt lat="47.49123" lon="6.76252">
        <ele>312.7</ele>
        <time>2014-10-26T08:01:57.000Z</time>
      </trkpt>
      <trkpt lat="47.49123" lon="6.76257">
        <ele>313.3</ele>
        <time>2014-10-26T08:01:58.000Z</time>
      </trkpt>
      <trkpt lat="47.49123" lon="6.76262">
        <ele>314</ele>
        <time>2014-10-26T08:01:59.000Z</time>
      </trkpt>
      <trkpt lat="47.49121" lon="6.76269">
        <ele>315.6</ele>
        <time>2014-10-26T08:02:00.000Z</time>
      </trkpt>
      <trkpt lat="47.4912" lon="6.76276">
        <ele>316.3</ele>
        <time>2014-10-26T08:02:01.000Z</time>
      </trkpt>
      <trkpt lat="47.49119" lon="6.76283">
        <ele>316.6</ele>
        <time>2014-10-26T08:02:02.000Z</time>
      </trkpt>
      <trkpt lat="47.49119" lon="6.7629">
        <ele>318.1</ele>
        <time>2014-10-26T08:02:04.000Z</time>
      </trkpt>
      <trkpt lat="47.49119" lon="6.76293">
        <ele>318.7</ele>
        <time>2014-10-26T08:02:05.000Z</time>
      </trkpt>
      <trkpt lat="47.49117" lon="6.76296">
        <ele>318.9</ele>
        <time>2014-10-26T08:02:06.000Z</time>
      </trkpt>
      <trkpt lat="47.49116" lon="6.76301">
        <ele>319.5</ele>
        <time>2014-10-26T08:02:07.000Z</time>
      </trkpt>
      <trkpt lat="47.49114" lon="6.76307">
        <ele>320.1</ele>
        <time>2014-10-26T08:02:08.000Z</time>
      </trkpt>
      <trkpt lat="47.49115" lon="6.76317">
        <ele>319.5</ele>
        <time>2014-10-26T08:02:09.000Z</time>
      </trkpt>
      <trkpt lat="47.49114" lon="6.76323">
        <ele>319.2</ele>
        <time>2014-10-26T08:02:10.000Z</time>
      </trkpt>
      <trkpt lat="47.49113" lon="6.76329">
        <ele>319.9</ele>
        <time>2014-10-26T08:02:11.000Z</time>
      </trkpt>
      <trkpt lat="47.49113" lon="6.76335">
        <ele>320.4</ele>
        <time>2014-10-26T08:02:12.000Z</time>
      </trkpt>
      <trkpt lat="47.49112" lon="6.76342">
        <ele>320.9</ele>
        <time>2014-10-26T08:02:13.000Z</time>
      </trkpt>
      <trkpt lat="47.49112" lon="6.76348">
        <ele>321.2</ele>
        <time>2014-10-26T08:02:14.000Z</time>
      </trkpt>
      <trkpt lat="47.49116" lon="6.76366">
        <ele>320.9</ele>
        <time>2014-10-26T08:02:15.000Z</time>
      </trkpt>
      <trkpt lat="47.49117" lon="6.76378">
        <ele>320.1</ele>
        <time>2014-10-26T08:02:16.000Z</time>
      </trkpt>
      <trkpt lat="47.49117" lon="6.76389">
        <ele>319.9</ele>
        <time>2014-10-26T08:02:17.000Z</time>
      </trkpt>
      <trkpt lat="47.49118" lon="6.764">
        <ele>319.1</ele>
        <time>2014-10-26T08:02:18.000Z</time>
      </trkpt>
      <trkpt lat="47.49119" lon="6.76412">
        <ele>319.5</ele>
        <time>2014-10-26T08:02:19.000Z</time>
      </trkpt>
      <trkpt lat="47.49118" lon="6.76423">
        <ele>319.2</ele>
        <time>2014-10-26T08:02:20.000Z</time>
      </trkpt>
      <trkpt lat="47.49118" lon="6.76433">
        <ele>319.6</ele>
        <time>2014-10-26T08:02:21.000Z</time>
      </trkpt>
      <trkpt lat="47.49118" lon="6.76445">
        <ele>320.6</ele>
        <time>2014-10-26T08:02:22.000Z</time>
      </trkpt>
      <trkpt lat="47.49117" lon="6.76456">
        <ele>321.3</ele>
        <time>2014-10-26T08:02:23.000Z</time>
      </trkpt>
      <trkpt lat="47.49118" lon="6.76466">
        <ele>321.4</ele>
        <time>2014-10-26T08:02:24.000Z</time>
      </trkpt>
      <trkpt lat="47.49116" lon="6.76479">
        <ele>322.9</ele>
        <time>2014-10-26T08:02:25.000Z</time>
      </trkpt>
      <trkpt lat="47.49117" lon="6.76495">
        <ele>320.4</ele>
        <time>2014-10-26T08:02:26.000Z</time>
      </trkpt>
      <trkpt lat="47.49119" lon="6.76509">
        <ele>320.5</ele>
        <time>2014-10-26T08:02:27.000Z</time>
      </trkpt>
      <trkpt lat="47.49123" lon="6.76518">
        <ele>319.5</ele>
        <time>2014-10-26T08:02:28.000Z</time>
      </trkpt>
      <trkpt lat="47.4913" lon="6.76521">
        <ele>319.1</ele>
        <time>2014-10-26T08:02:29.000Z</time>
      </trkpt>
      <trkpt lat="47.49138" lon="6.7652">
        <ele>318.1</ele>
        <time>2014-10-26T08:02:30.000Z</time>
      </trkpt>
      <trkpt lat="47.49144" lon="6.76519">
        <ele>317.9</ele>
        <time>2014-10-26T08:02:31.000Z</time>
      </trkpt>
      <trkpt lat="47.4915" lon="6.76516">
        <ele>318.3</ele>
        <time>2014-10-26T08:02:32.000Z</time>
      </trkpt>
      <trkpt lat="47.49166" lon="6.76507">
        <ele>314.4</ele>
        <time>2014-10-26T08:02:35.000Z</time>
      </trkpt>
      <trkpt lat="47.49168" lon="6.76506">
        <ele>314.8</ele>
        <time>2014-10-26T08:02:36.000Z</time>
      </trkpt>
      <trkpt lat="47.49171" lon="6.76502">
        <ele>315.3</ele>
        <time>2014-10-26T08:02:37.000Z</time>
      </trkpt>
      <trkpt lat="47.49174" lon="6.76498">
        <ele>315.6</ele>
        <time>2014-10-26T08:02:38.000Z</time>
      </trkpt>
      <trkpt lat="47.49176" lon="6.76493">
        <ele>315.6</ele>
        <time>2014-10-26T08:02:39.000Z</time>
      </trkpt>
      <trkpt lat="47.49172" lon="6.76491">
        <ele>317.1</ele>
        <time>2014-10-26T08:02:54.000Z</time>
      </trkpt>
      <trkpt lat="47.49172" lon="6.76491">
        <ele>317</ele>
        <time>2014-10-26T08:02:55.000Z</time>
      </trkpt>
      <trkpt lat="47.49173" lon="6.7649">
        <ele>314.2</ele>
        <time>2014-10-26T08:05:37.000Z</time>
      </trkpt>
      <trkpt lat="47.49179" lon="6.76481">
        <ele>311.4</ele>
        <time>2014-10-26T08:05:38.000Z</time>
      </trkpt>
      <trkpt lat="47.49173" lon="6.7649">
        <ele>314.2</ele>
        <time>2014-10-26T08:05:39.000Z</time>
      </trkpt>
      <trkpt lat="47.49177" lon="6.76492">
        <ele>313.4</ele>
        <time>2014-10-26T08:06:52.000Z</time>
      </trkpt>
      <trkpt lat="47.49178" lon="6.76494">
        <ele>313</ele>
        <time>2014-10-26T08:06:53.000Z</time>
      </trkpt>
      <trkpt lat="47.49179" lon="6.76499">
        <ele>314.9</ele>
        <time>2014-10-26T08:06:55.000Z</time>
      </trkpt>
      <trkpt lat="47.49179" lon="6.76501">
        <ele>315.3</ele>
        <time>2014-10-26T08:06:56.000Z</time>
      </trkpt>
      <trkpt lat="47.49177" lon="6.76506">
        <ele>316.1</ele>
        <time>2014-10-26T08:06:58.000Z</time>
      </trkpt>
      <trkpt lat="47.49175" lon="6.76508">
        <ele>317.1</ele>
        <time>2014-10-26T08:06:59.000Z</time>
      </trkpt>
      <trkpt lat="47.49171" lon="6.76511">
        <ele>316.9</ele>
        <time>2014-10-26T08:07:02.000Z</time>
      </trkpt>
      <trkpt lat="47.4917" lon="6.76512">
        <ele>317</ele>
        <time>2014-10-26T08:07:03.000Z</time>
      </trkpt>
      <trkpt lat="47.49167" lon="6.76514">
        <ele>317.2</ele>
        <time>2014-10-26T08:07:05.000Z</time>
      </trkpt>
      <trkpt lat="47.49165" lon="6.76515">
        <ele>317</ele>
        <time>2014-10-26T08:07:06.000Z</time>
      </trkpt>
      <trkpt lat="47.49163" lon="6.76516">
        <ele>316.5</ele>
        <time>2014-10-26T08:07:07.000Z</time>
      </trkpt>
      <trkpt lat="47.49161" lon="6.76518">
        <ele>315.7</ele>
        <time>2014-10-26T08:07:08.000Z</time>
      </trkpt>
      <trkpt lat="47.49157" lon="6.7652">
        <ele>315.6</ele>
        <time>2014-10-26T08:07:09.000Z</time>
      </trkpt>
      <trkpt lat="47.49154" lon="6.76522">
        <ele>315.7</ele>
        <time>2014-10-26T08:07:10.000Z</time>
      </trkpt>
      <trkpt lat="47.49149" lon="6.76526">
        <ele>314.3</ele>
        <time>2014-10-26T08:07:11.000Z</time>
      </trkpt>
      <trkpt lat="47.49145" lon="6.76528">
        <ele>314.9</ele>
        <time>2014-10-26T08:07:12.000Z</time>
      </trkpt>
      <trkpt lat="47.49141" lon="6.7653">
        <ele>315.5</ele>
        <time>2014-10-26T08:07:13.000Z</time>
      </trkpt>
      <trkpt lat="47.49136" lon="6.76531">
        <ele>315.3</ele>
        <time>2014-10-26T08:07:14.000Z</time>
      </trkpt>
      <trkpt lat="47.49132" lon="6.76531">
        <ele>316.2</ele>
        <time>2014-10-26T08:07:15.000Z</time>
      </trkpt>
      <trkpt lat="47.49128" lon="6.7653">
        <ele>316.7</ele>
        <time>2014-10-26T08:07:16.000Z</time>
      </trkpt>
      <trkpt lat="47.49125" lon="6.76529">
        <ele>317.2</ele>
        <time>2014-10-26T08:07:17.000Z</time>
      </trkpt>
      <trkpt lat="47.49122" lon="6.76527">
        <ele>318.1</ele>
        <time>2014-10-26T08:07:18.000Z</time>
      </trkpt>
      <trkpt lat="47.4912" lon="6.76523">
        <ele>317.4</ele>
        <time>2014-10-26T08:07:19.000Z</time>
      </trkpt>
      <trkpt lat="47.49118" lon="6.76517">
        <ele>317.5</ele>
        <time>2014-10-26T08:07:20.000Z</time>
      </trkpt>
      <trkpt lat="47.49118" lon="6.7651">
        <ele>317.3</ele>
        <time>2014-10-26T08:07:21.000Z</time>
      </trkpt>
      <trkpt lat="47.49118" lon="6.76504">
        <ele>318</ele>
        <time>2014-10-26T08:07:22.000Z</time>
      </trkpt>
      <trkpt lat="47.49119" lon="6.76498">
        <ele>318</ele>
        <time>2014-10-26T08:07:23.000Z</time>
      </trkpt>
      <trkpt lat="47.49119" lon="6.76492">
        <ele>317.9</ele>
        <time>2014-10-26T08:07:24.000Z</time>
      </trkpt>
      <trkpt lat="47.4912" lon="6.76487">
        <ele>317.7</ele>
        <time>2014-10-26T08:07:25.000Z</time>
      </trkpt>
      <trkpt lat="47.49121" lon="6.76482">
        <ele>318.3</ele>
        <time>2014-10-26T08:07:26.000Z</time>
      </trkpt>
      <trkpt lat="47.49122" lon="6.76477">
        <ele>319.2</ele>
        <time>2014-10-26T08:07:27.000Z</time>
      </trkpt>
      <trkpt lat="47.49123" lon="6.76472">
        <ele>319.3</ele>
        <time>2014-10-26T08:07:28.000Z</time>
      </trkpt>
      <trkpt lat="47.49123" lon="6.76468">
        <ele>320.1</ele>
        <time>2014-10-26T08:07:29.000Z</time>
      </trkpt>
      <trkpt lat="47.49123" lon="6.76462">
        <ele>319.7</ele>
        <time>2014-10-26T08:07:30.000Z</time>
      </trkpt>
      <trkpt lat="47.49124" lon="6.76457">
        <ele>320.5</ele>
        <time>2014-10-26T08:07:31.000Z</time>
      </trkpt>
      <trkpt lat="47.49124" lon="6.76452">
        <ele>320.7</ele>
        <time>2014-10-26T08:07:32.000Z</time>
      </trkpt>
      <trkpt lat="47.49124" lon="6.76444">
        <ele>321.3</ele>
        <time>2014-10-26T08:07:33.815Z</time>
      </trkpt>
      <trkpt lat="47.49124" lon="6.76439">
        <ele>321.2</ele>
        <time>2014-10-26T08:07:35.000Z</time>
      </trkpt>
      <trkpt lat="47.49124" lon="6.76436">
        <ele>321</ele>
        <time>2014-10-26T08:07:36.000Z</time>
      </trkpt>
      <trkpt lat="47.49121" lon="6.76432">
        <ele>322.6</ele>
        <time>2014-10-26T08:07:39.000Z</time>
      </trkpt>
      <trkpt lat="47.4912" lon="6.76432">
        <ele>323.1</ele>
        <time>2014-10-26T08:07:40.000Z</time>
      </trkpt>
      <trkpt lat="47.49115" lon="6.76432">
        <ele>325.5</ele>
        <time>2014-10-26T08:07:42.000Z</time>
      </trkpt>
      <trkpt lat="47.49113" lon="6.76432">
        <ele>326.7</ele>
        <time>2014-10-26T08:07:43.000Z</time>
      </trkpt>
      <trkpt lat="47.49109" lon="6.76431">
        <ele>333.6</ele>
        <time>2014-10-26T08:07:45.000Z</time>
      </trkpt>
      <trkpt lat="47.49108" lon="6.76429">
        <ele>335.3</ele>
        <time>2014-10-26T08:07:46.000Z</time>
      </trkpt>
      <trkpt lat="47.49108" lon="6.76425">
        <ele>333.7</ele>
        <time>2014-10-26T08:07:47.000Z</time>
      </trkpt>
      <trkpt lat="47.49109" lon="6.7642">
        <ele>334.2</ele>
        <time>2014-10-26T08:07:48.000Z</time>
      </trkpt>
      <trkpt lat="47.4911" lon="6.76415">
        <ele>334.4</ele>
        <time>2014-10-26T08:07:49.000Z</time>
      </trkpt>
      <trkpt lat="47.49111" lon="6.76409">
        <ele>333.9</ele>
        <time>2014-10-26T08:07:50.000Z</time>
      </trkpt>
      <trkpt lat="47.49111" lon="6.76404">
        <ele>335</ele>
        <time>2014-10-26T08:07:51.000Z</time>
      </trkpt>
      <trkpt lat="47.49112" lon="6.764">
        <ele>335.5</ele>
        <time>2014-10-26T08:07:52.000Z</time>
      </trkpt>
      <trkpt lat="47.49112" lon="6.76395">
        <ele>336.3</ele>
        <time>2014-10-26T08:07:54.000Z</time>
      </trkpt>
      <trkpt lat="47.49112" lon="6.76392">
        <ele>336.7</ele>
        <time>2014-10-26T08:07:55.000Z</time>
      </trkpt>
      <trkpt lat="47.49113" lon="6.76387">
        <ele>338.6</ele>
        <time>2014-10-26T08:07:57.000Z</time>
      </trkpt>
      <trkpt lat="47.49113" lon="6.76383">
        <ele>342.2</ele>
        <time>2014-10-26T08:07:58.000Z</time>
      </trkpt>
      <trkpt lat="47.49113" lon="6.76379">
        <ele>343.4</ele>
        <time>2014-10-26T08:07:59.000Z</time>
      </trkpt>
      <trkpt lat="47.49113" lon="6.76375">
        <ele>341.2</ele>
        <time>2014-10-26T08:08:00.000Z</time>
      </trkpt>
      <trkpt lat="47.49113" lon="6.76371">
        <ele>341.3</ele>
        <time>2014-10-26T08:08:01.000Z</time>
      </trkpt>
      <trkpt lat="47.49112" lon="6.76367">
        <ele>341.1</ele>
        <time>2014-10-26T08:08:02.000Z</time>
      </trkpt>
      <trkpt lat="47.49112" lon="6.76363">
        <ele>341.6</ele>
        <time>2014-10-26T08:08:03.000Z</time>
      </trkpt>
      <trkpt lat="47.49112" lon="6.7636">
        <ele>341.9</ele>
        <time>2014-10-26T08:08:04.000Z</time>
      </trkpt>
      <trkpt lat="47.49112" lon="6.76356">
        <ele>342.2</ele>
        <time>2014-10-26T08:08:05.000Z</time>
      </trkpt>
      <trkpt lat="47.49112" lon="6.76353">
        <ele>342.6</ele>
        <time>2014-10-26T08:08:06.000Z</time>
      </trkpt>
      <trkpt lat="47.49111" lon="6.76348">
        <ele>343.6</ele>
        <time>2014-10-26T08:08:07.000Z</time>
      </trkpt>
      <trkpt lat="47.49111" lon="6.76344">
        <ele>346.2</ele>
        <time>2014-10-26T08:08:08.000Z</time>
      </trkpt>
      <trkpt lat="47.49111" lon="6.76339">
        <ele>346.7</ele>
        <time>2014-10-26T08:08:09.000Z</time>
      </trkpt>
      <trkpt lat="47.49111" lon="6.76334">
        <ele>348.8</ele>
        <time>2014-10-26T08:08:10.000Z</time>
      </trkpt>
      <trkpt lat="47.49112" lon="6.76329">
        <ele>349.9</ele>
        <time>2014-10-26T08:08:11.000Z</time>
      </trkpt>
      <trkpt lat="47.49112" lon="6.76325">
        <ele>353</ele>
        <time>2014-10-26T08:08:12.000Z</time>
      </trkpt>
      <trkpt lat="47.49112" lon="6.76321">
        <ele>354.1</ele>
        <time>2014-10-26T08:08:13.000Z</time>
      </trkpt>
      <trkpt lat="47.49113" lon="6.76317">
        <ele>354.9</ele>
        <time>2014-10-26T08:08:14.000Z</time>
      </trkpt>
      <trkpt lat="47.49113" lon="6.76313">
        <ele>355.6</ele>
        <time>2014-10-26T08:08:15.000Z</time>
      </trkpt>
      <trkpt lat="47.49114" lon="6.76309">
        <ele>355.8</ele>
        <time>2014-10-26T08:08:16.000Z</time>
      </trkpt>
      <trkpt lat="47.49114" lon="6.76305">
        <ele>355.6</ele>
        <time>2014-10-26T08:08:17.000Z</time>
      </trkpt>
      <trkpt lat="47.49115" lon="6.76302">
        <ele>355.8</ele>
        <time>2014-10-26T08:08:18.000Z</time>
      </trkpt>
      <trkpt lat="47.49115" lon="6.76298">
        <ele>356.2</ele>
        <time>2014-10-26T08:08:19.000Z</time>
      </trkpt>
      <trkpt lat="47.49115" lon="6.76294">
        <ele>355.8</ele>
        <time>2014-10-26T08:08:20.000Z</time>
      </trkpt>
      <trkpt lat="47.49116" lon="6.76289">
        <ele>356.7</ele>
        <time>2014-10-26T08:08:21.000Z</time>
      </trkpt>
      <trkpt lat="47.49117" lon="6.76282">
        <ele>351.8</ele>
        <time>2014-10-26T08:08:22.000Z</time>
      </trkpt>
      <trkpt lat="47.49118" lon="6.76276">
        <ele>351</ele>
        <time>2014-10-26T08:08:23.000Z</time>
      </trkpt>
      <trkpt lat="47.49119" lon="6.76269">
        <ele>351.1</ele>
        <time>2014-10-26T08:08:24.000Z</time>
      </trkpt>
      <trkpt lat="47.49119" lon="6.76262">
        <ele>351.1</ele>
        <time>2014-10-26T08:08:25.000Z</time>
      </trkpt>
      <trkpt lat="47.49119" lon="6.76256">
        <ele>351.2</ele>
        <time>2014-10-26T08:08:26.000Z</time>
      </trkpt>
      <trkpt lat="47.49119" lon="6.7625">
        <ele>351.5</ele>
        <time>2014-10-26T08:08:27.000Z</time>
      </trkpt>
      <trkpt lat="47.49119" lon="6.76244">
        <ele>351.8</ele>
        <time>2014-10-26T08:08:28.000Z</time>
      </trkpt>
      <trkpt lat="47.49119" lon="6.76239">
        <ele>352.2</ele>
        <time>2014-10-26T08:08:29.000Z</time>
      </trkpt>
      <trkpt lat="47.49119" lon="6.76234">
        <ele>352.9</ele>
        <time>2014-10-26T08:08:30.000Z</time>
      </trkpt>
      <trkpt lat="47.49119" lon="6.7623">
        <ele>353.5</ele>
        <time>2014-10-26T08:08:31.000Z</time>
      </trkpt>
      <trkpt lat="47.49119" lon="6.76226">
        <ele>353.9</ele>
        <time>2014-10-26T08:08:32.000Z</time>
      </trkpt>
      <trkpt lat="47.49115" lon="6.76188">
        <ele>356.5</ele>
        <time>2014-10-26T08:08:41.000Z</time>
      </trkpt>
      <trkpt lat="47.49116" lon="6.76182">
        <ele>359.1</ele>
        <time>2014-10-26T08:08:42.000Z</time>
      </trkpt>
      <trkpt lat="47.49116" lon="6.76178">
        <ele>359</ele>
        <time>2014-10-26T08:08:43.000Z</time>
      </trkpt>
      <trkpt lat="47.49117" lon="6.76173">
        <ele>358.5</ele>
        <time>2014-10-26T08:08:44.000Z</time>
      </trkpt>
      <trkpt lat="47.49118" lon="6.76168">
        <ele>358.6</ele>
        <time>2014-10-26T08:08:45.000Z</time>
      </trkpt>
      <trkpt lat="47.49118" lon="6.76162">
        <ele>354.9</ele>
        <time>2014-10-26T08:08:46.000Z</time>
      </trkpt>
      <trkpt lat="47.49118" lon="6.76156">
        <ele>354.2</ele>
        <time>2014-10-26T08:08:47.000Z</time>
      </trkpt>
      <trkpt lat="47.49118" lon="6.7615">
        <ele>354</ele>
        <time>2014-10-26T08:08:48.000Z</time>
      </trkpt>
      <trkpt lat="47.49117" lon="6.76145">
        <ele>353.6</ele>
        <time>2014-10-26T08:08:49.000Z</time>
      </trkpt>
      <trkpt lat="47.49116" lon="6.76139">
        <ele>353.3</ele>
        <time>2014-10-26T08:08:50.000Z</time>
      </trkpt>
      <trkpt lat="47.49116" lon="6.76135">
        <ele>354.9</ele>
        <time>2014-10-26T08:08:51.000Z</time>
      </trkpt>
      <trkpt lat="47.49116" lon="6.7613">
        <ele>354.9</ele>
        <time>2014-10-26T08:08:52.000Z</time>
      </trkpt>
      <trkpt lat="47.49115" lon="6.76126">
        <ele>354.5</ele>
        <time>2014-10-26T08:08:53.000Z</time>
      </trkpt>
      <trkpt lat="47.49115" lon="6.76122">
        <ele>354.3</ele>
        <time>2014-10-26T08:08:54.000Z</time>
      </trkpt>
      <trkpt lat="47.49115" lon="6.76118">
        <ele>353.6</ele>
        <time>2014-10-26T08:08:55.000Z</time>
      </trkpt>
      <trkpt lat="47.49115" lon="6.76114">
        <ele>353.6</ele>
        <time>2014-10-26T08:08:56.000Z</time>
      </trkpt>
      <trkpt lat="47.49114" lon="6.7611">
        <ele>352.9</ele>
        <time>2014-10-26T08:08:57.000Z</time>
      </trkpt>
      <trkpt lat="47.49114" lon="6.76105">
        <ele>353</ele>
        <time>2014-10-26T08:08:58.000Z</time>
      </trkpt>
      <trkpt lat="47.49114" lon="6.76101">
        <ele>353</ele>
        <time>2014-10-26T08:08:59.000Z</time>
      </trkpt>
      <trkpt lat="47.49113" lon="6.76096">
        <ele>353</ele>
        <time>2014-10-26T08:09:00.000Z</time>
      </trkpt>
      <trkpt lat="47.49113" lon="6.76092">
        <ele>352.6</ele>
        <time>2014-10-26T08:09:01.000Z</time>
      </trkpt>
      <trkpt lat="47.49114" lon="6.76087">
        <ele>352.1</ele>
        <time>2014-10-26T08:09:02.000Z</time>
      </trkpt>
      <trkpt lat="47.49114" lon="6.76082">
        <ele>352.2</ele>
        <time>2014-10-26T08:09:03.000Z</time>
      </trkpt>
      <trkpt lat="47.49115" lon="6.76077">
        <ele>352.1</ele>
        <time>2014-10-26T08:09:04.000Z</time>
      </trkpt>
      <trkpt lat="47.49116" lon="6.76073">
        <ele>352.6</ele>
        <time>2014-10-26T08:09:05.000Z</time>
      </trkpt>
      <trkpt lat="47.49118" lon="6.76068">
        <ele>352.4</ele>
        <time>2014-10-26T08:09:06.000Z</time>
      </trkpt>
      <trkpt lat="47.49119" lon="6.76064">
        <ele>352.5</ele>
        <time>2014-10-26T08:09:07.000Z</time>
      </trkpt>
      <trkpt lat="47.4912" lon="6.7606">
        <ele>351.2</ele>
        <time>2014-10-26T08:09:08.000Z</time>
      </trkpt>
      <trkpt lat="47.49122" lon="6.76056">
        <ele>351.3</ele>
        <time>2014-10-26T08:09:09.000Z</time>
      </trkpt>
      <trkpt lat="47.49124" lon="6.76053">
        <ele>351.6</ele>
        <time>2014-10-26T08:09:10.000Z</time>
      </trkpt>
      <trkpt lat="47.49125" lon="6.7605">
        <ele>351.1</ele>
        <time>2014-10-26T08:09:11.000Z</time>
      </trkpt>
      <trkpt lat="47.49127" lon="6.76047">
        <ele>350.8</ele>
        <time>2014-10-26T08:09:12.000Z</time>
      </trkpt>
      <trkpt lat="47.49128" lon="6.76043">
        <ele>350.2</ele>
        <time>2014-10-26T08:09:13.000Z</time>
      </trkpt>
      <trkpt lat="47.49129" lon="6.76037">
        <ele>349.3</ele>
        <time>2014-10-26T08:09:14.000Z</time>
      </trkpt>
      <trkpt lat="47.49131" lon="6.76032">
        <ele>349.3</ele>
        <time>2014-10-26T08:09:15.000Z</time>
      </trkpt>
      <trkpt lat="47.49132" lon="6.76027">
        <ele>349</ele>
        <time>2014-10-26T08:09:16.000Z</time>
      </trkpt>
      <trkpt lat="47.49132" lon="6.76023">
        <ele>349</ele>
        <time>2014-10-26T08:09:17.000Z</time>
      </trkpt>
      <trkpt lat="47.49133" lon="6.76019">
        <ele>348.9</ele>
        <time>2014-10-26T08:09:18.000Z</time>
      </trkpt>
      <trkpt lat="47.49134" lon="6.76015">
        <ele>348.1</ele>
        <time>2014-10-26T08:09:19.000Z</time>
      </trkpt>
      <trkpt lat="47.49135" lon="6.76011">
        <ele>348</ele>
        <time>2014-10-26T08:09:20.000Z</time>
      </trkpt>
      <trkpt lat="47.49136" lon="6.76006">
        <ele>346.6</ele>
        <time>2014-10-26T08:09:21.000Z</time>
      </trkpt>
      <trkpt lat="47.49137" lon="6.76001">
        <ele>346.4</ele>
        <time>2014-10-26T08:09:22.000Z</time>
      </trkpt>
      <trkpt lat="47.49138" lon="6.75996">
        <ele>346.4</ele>
        <time>2014-10-26T08:09:23.000Z</time>
      </trkpt>
      <trkpt lat="47.49138" lon="6.75992">
        <ele>345.5</ele>
        <time>2014-10-26T08:09:24.000Z</time>
      </trkpt>
      <trkpt lat="47.49139" lon="6.75988">
        <ele>344.4</ele>
        <time>2014-10-26T08:09:25.000Z</time>
      </trkpt>
      <trkpt lat="47.4914" lon="6.75984">
        <ele>344.4</ele>
        <time>2014-10-26T08:09:26.000Z</time>
      </trkpt>
      <trkpt lat="47.49142" lon="6.75981">
        <ele>348.5</ele>
        <time>2014-10-26T08:09:27.000Z</time>
      </trkpt>
      <trkpt lat="47.49145" lon="6.75977">
        <ele>347.9</ele>
        <time>2014-10-26T08:09:28.000Z</time>
      </trkpt>
      <trkpt lat="47.49149" lon="6.75972">
        <ele>348.1</ele>
        <time>2014-10-26T08:09:29.000Z</time>
      </trkpt>
      <trkpt lat="47.49152" lon="6.75968">
        <ele>348.2</ele>
        <time>2014-10-26T08:09:30.000Z</time>
      </trkpt>
      <trkpt lat="47.49153" lon="6.75963">
        <ele>349.5</ele>
        <time>2014-10-26T08:09:31.000Z</time>
      </trkpt>
      <trkpt lat="47.49154" lon="6.75958">
        <ele>346.6</ele>
        <time>2014-10-26T08:09:32.000Z</time>
      </trkpt>
      <trkpt lat="47.49155" lon="6.75948">
        <ele>349.1</ele>
        <time>2014-10-26T08:09:35.000Z</time>
      </trkpt>
      <trkpt lat="47.49154" lon="6.75942">
        <ele>349.4</ele>
        <time>2014-10-26T08:09:36.000Z</time>
      </trkpt>
      <trkpt lat="47.49154" lon="6.75936">
        <ele>351.1</ele>
        <time>2014-10-26T08:09:37.000Z</time>
      </trkpt>
      <trkpt lat="47.49155" lon="6.7593">
        <ele>350.8</ele>
        <time>2014-10-26T08:09:38.000Z</time>
      </trkpt>
      <trkpt lat="47.49156" lon="6.75925">
        <ele>351.1</ele>
        <time>2014-10-26T08:09:39.000Z</time>
      </trkpt>
      <trkpt lat="47.49157" lon="6.7592">
        <ele>350.6</ele>
        <time>2014-10-26T08:09:40.000Z</time>
      </trkpt>
      <trkpt lat="47.49158" lon="6.75916">
        <ele>350.6</ele>
        <time>2014-10-26T08:09:41.000Z</time>
      </trkpt>
      <trkpt lat="47.49159" lon="6.75911">
        <ele>349.8</ele>
        <time>2014-10-26T08:09:42.000Z</time>
      </trkpt>
      <trkpt lat="47.4916" lon="6.75907">
        <ele>349.6</ele>
        <time>2014-10-26T08:09:43.000Z</time>
      </trkpt>
      <trkpt lat="47.49162" lon="6.75903">
        <ele>348.8</ele>
        <time>2014-10-26T08:09:44.000Z</time>
      </trkpt>
      <trkpt lat="47.49164" lon="6.75898">
        <ele>348.6</ele>
        <time>2014-10-26T08:09:45.000Z</time>
      </trkpt>
      <trkpt lat="47.49166" lon="6.75892">
        <ele>348.7</ele>
        <time>2014-10-26T08:09:46.000Z</time>
      </trkpt>
      <trkpt lat="47.49168" lon="6.75887">
        <ele>347.9</ele>
        <time>2014-10-26T08:09:47.000Z</time>
      </trkpt>
      <trkpt lat="47.49171" lon="6.7588">
        <ele>352.9</ele>
        <time>2014-10-26T08:09:48.000Z</time>
      </trkpt>
      <trkpt lat="47.49174" lon="6.75873">
        <ele>353.2</ele>
        <time>2014-10-26T08:09:49.000Z</time>
      </trkpt>
      <trkpt lat="47.49177" lon="6.75866">
        <ele>354</ele>
        <time>2014-10-26T08:09:50.000Z</time>
      </trkpt>
      <trkpt lat="47.49182" lon="6.75859">
        <ele>354.8</ele>
        <time>2014-10-26T08:09:51.000Z</time>
      </trkpt>
      <trkpt lat="47.49186" lon="6.75853">
        <ele>354.7</ele>
        <time>2014-10-26T08:09:52.000Z</time>
      </trkpt>
      <trkpt lat="47.4919" lon="6.75848">
        <ele>354.3</ele>
        <time>2014-10-26T08:09:53.000Z</time>
      </trkpt>
      <trkpt lat="47.49194" lon="6.75843">
        <ele>353.9</ele>
        <time>2014-10-26T08:09:54.000Z</time>
      </trkpt>
      <trkpt lat="47.49198" lon="6.75838">
        <ele>353.3</ele>
        <time>2014-10-26T08:09:55.000Z</time>
      </trkpt>
      <trkpt lat="47.49201" lon="6.75834">
        <ele>352</ele>
        <time>2014-10-26T08:09:56.000Z</time>
      </trkpt>
      <trkpt lat="47.49204" lon="6.7583">
        <ele>351.8</ele>
        <time>2014-10-26T08:09:57.000Z</time>
      </trkpt>
      <trkpt lat="47.49208" lon="6.75826">
        <ele>352.2</ele>
        <time>2014-10-26T08:09:58.000Z</time>
      </trkpt>
      <trkpt lat="47.49212" lon="6.7582">
        <ele>352.2</ele>
        <time>2014-10-26T08:09:59.000Z</time>
      </trkpt>
      <trkpt lat="47.49214" lon="6.75814">
        <ele>352.2</ele>
        <time>2014-10-26T08:10:00.000Z</time>
      </trkpt>
      <trkpt lat="47.49216" lon="6.75807">
        <ele>351.8</ele>
        <time>2014-10-26T08:10:01.000Z</time>
      </trkpt>
      <trkpt lat="47.49218" lon="6.75799">
        <ele>351.6</ele>
        <time>2014-10-26T08:10:02.000Z</time>
      </trkpt>
      <trkpt lat="47.49219" lon="6.75792">
        <ele>351.6</ele>
        <time>2014-10-26T08:10:03.000Z</time>
      </trkpt>
      <trkpt lat="47.49219" lon="6.75784">
        <ele>350.9</ele>
        <time>2014-10-26T08:10:04.000Z</time>
      </trkpt>
      <trkpt lat="47.4922" lon="6.75776">
        <ele>350.2</ele>
        <time>2014-10-26T08:10:05.000Z</time>
      </trkpt>
      <trkpt lat="47.4922" lon="6.75768">
        <ele>349.3</ele>
        <time>2014-10-26T08:10:06.000Z</time>
      </trkpt>
      <trkpt lat="47.49222" lon="6.75762">
        <ele>354</ele>
        <time>2014-10-26T08:10:07.000Z</time>
      </trkpt>
      <trkpt lat="47.49224" lon="6.75755">
        <ele>356.6</ele>
        <time>2014-10-26T08:10:08.000Z</time>
      </trkpt>
      <trkpt lat="47.49226" lon="6.75749">
        <ele>357.9</ele>
        <time>2014-10-26T08:10:09.000Z</time>
      </trkpt>
      <trkpt lat="47.49227" lon="6.75744">
        <ele>358</ele>
        <time>2014-10-26T08:10:10.000Z</time>
      </trkpt>
      <trkpt lat="47.49228" lon="6.75738">
        <ele>357.5</ele>
        <time>2014-10-26T08:10:11.000Z</time>
      </trkpt>
      <trkpt lat="47.49229" lon="6.75733">
        <ele>356.6</ele>
        <time>2014-10-26T08:10:12.000Z</time>
      </trkpt>
      <trkpt lat="47.4923" lon="6.75728">
        <ele>355.4</ele>
        <time>2014-10-26T08:10:13.000Z</time>
      </trkpt>
      <trkpt lat="47.49231" lon="6.75723">
        <ele>355.7</ele>
        <time>2014-10-26T08:10:14.000Z</time>
      </trkpt>
      <trkpt lat="47.49233" lon="6.75717">
        <ele>353.9</ele>
        <time>2014-10-26T08:10:15.000Z</time>
      </trkpt>
      <trkpt lat="47.49235" lon="6.75712">
        <ele>353.6</ele>
        <time>2014-10-26T08:10:16.000Z</time>
      </trkpt>
      <trkpt lat="47.49236" lon="6.75707">
        <ele>353.6</ele>
        <time>2014-10-26T08:10:17.000Z</time>
      </trkpt>
      <trkpt lat="47.49237" lon="6.75702">
        <ele>354.2</ele>
        <time>2014-10-26T08:10:18.000Z</time>
      </trkpt>
      <trkpt lat="47.49238" lon="6.75697">
        <ele>353.9</ele>
        <time>2014-10-26T08:10:19.000Z</time>
      </trkpt>
      <trkpt lat="47.49238" lon="6.75692">
        <ele>354</ele>
        <time>2014-10-26T08:10:20.000Z</time>
      </trkpt>
      <trkpt lat="47.49239" lon="6.75686">
        <ele>353.6</ele>
        <time>2014-10-26T08:10:21.000Z</time>
      </trkpt>
      <trkpt lat="47.49239" lon="6.7568">
        <ele>353.4</ele>
        <time>2014-10-26T08:10:22.000Z</time>
      </trkpt>
      <trkpt lat="47.4924" lon="6.75673">
        <ele>354.1</ele>
        <time>2014-10-26T08:10:23.000Z</time>
      </trkpt>
      <trkpt lat="47.4924" lon="6.75666">
        <ele>353.6</ele>
        <time>2014-10-26T08:10:24.000Z</time>
      </trkpt>
      <trkpt lat="47.4924" lon="6.75659">
        <ele>354.2</ele>
        <time>2014-10-26T08:10:25.000Z</time>
      </trkpt>
      <trkpt lat="47.49241" lon="6.75653">
        <ele>353.2</ele>
        <time>2014-10-26T08:10:26.000Z</time>
      </trkpt>
      <trkpt lat="47.49242" lon="6.75647">
        <ele>360.1</ele>
        <time>2014-10-26T08:10:27.000Z</time>
      </trkpt>
      <trkpt lat="47.49244" lon="6.75642">
        <ele>360.8</ele>
        <time>2014-10-26T08:10:28.000Z</time>
      </trkpt>
      <trkpt lat="47.49245" lon="6.75637">
        <ele>361.2</ele>
        <time>2014-10-26T08:10:29.000Z</time>
      </trkpt>
      <trkpt lat="47.49246" lon="6.75632">
        <ele>361.1</ele>
        <time>2014-10-26T08:10:30.000Z</time>
      </trkpt>
      <trkpt lat="47.49247" lon="6.75627">
        <ele>360.6</ele>
        <time>2014-10-26T08:10:31.000Z</time>
      </trkpt>
      <trkpt lat="47.49249" lon="6.75622">
        <ele>359.9</ele>
        <time>2014-10-26T08:10:32.000Z</time>
      </trkpt>
      <trkpt lat="47.49253" lon="6.75612">
        <ele>358.9</ele>
        <time>2014-10-26T08:10:35.000Z</time>
      </trkpt>
      <trkpt lat="47.49255" lon="6.75607">
        <ele>358.2</ele>
        <time>2014-10-26T08:10:36.000Z</time>
      </trkpt>
      <trkpt lat="47.49257" lon="6.75603">
        <ele>357.9</ele>
        <time>2014-10-26T08:10:37.000Z</time>
      </trkpt>
      <trkpt lat="47.49259" lon="6.75595">
        <ele>356.6</ele>
        <time>2014-10-26T08:10:38.000Z</time>
      </trkpt>
      <trkpt lat="47.49261" lon="6.75585">
        <ele>354.4</ele>
        <time>2014-10-26T08:10:39.000Z</time>
      </trkpt>
      <trkpt lat="47.49264" lon="6.75576">
        <ele>352.9</ele>
        <time>2014-10-26T08:10:40.000Z</time>
      </trkpt>
      <trkpt lat="47.49266" lon="6.75567">
        <ele>352.7</ele>
        <time>2014-10-26T08:10:41.000Z</time>
      </trkpt>
      <trkpt lat="47.49268" lon="6.75558">
        <ele>353.1</ele>
        <time>2014-10-26T08:10:42.000Z</time>
      </trkpt>
      <trkpt lat="47.49268" lon="6.75549">
        <ele>353.3</ele>
        <time>2014-10-26T08:10:43.000Z</time>
      </trkpt>
      <trkpt lat="47.49269" lon="6.75541">
        <ele>352.3</ele>
        <time>2014-10-26T08:10:44.000Z</time>
      </trkpt>
      <trkpt lat="47.49269" lon="6.75533">
        <ele>352.1</ele>
        <time>2014-10-26T08:10:45.000Z</time>
      </trkpt>
      <trkpt lat="47.49269" lon="6.75525">
        <ele>351.5</ele>
        <time>2014-10-26T08:10:46.000Z</time>
      </trkpt>
      <trkpt lat="47.49269" lon="6.75517">
        <ele>350.5</ele>
        <time>2014-10-26T08:10:47.000Z</time>
      </trkpt>
      <trkpt lat="47.49269" lon="6.75509">
        <ele>350</ele>
        <time>2014-10-26T08:10:48.000Z</time>
      </trkpt>
      <trkpt lat="47.49269" lon="6.75501">
        <ele>349.3</ele>
        <time>2014-10-26T08:10:49.000Z</time>
      </trkpt>
      <trkpt lat="47.49269" lon="6.75494">
        <ele>349.6</ele>
        <time>2014-10-26T08:10:50.000Z</time>
      </trkpt>
      <trkpt lat="47.4927" lon="6.75487">
        <ele>349.5</ele>
        <time>2014-10-26T08:10:51.000Z</time>
      </trkpt>
      <trkpt lat="47.49271" lon="6.75482">
        <ele>350.2</ele>
        <time>2014-10-26T08:10:52.000Z</time>
      </trkpt>
      <trkpt lat="47.49271" lon="6.75476">
        <ele>350.2</ele>
        <time>2014-10-26T08:10:53.000Z</time>
      </trkpt>
      <trkpt lat="47.49271" lon="6.75472">
        <ele>350.2</ele>
        <time>2014-10-26T08:10:54.000Z</time>
      </trkpt>
      <trkpt lat="47.49271" lon="6.75467">
        <ele>350.7</ele>
        <time>2014-10-26T08:10:55.000Z</time>
      </trkpt>
      <trkpt lat="47.4927" lon="6.75463">
        <ele>350.6</ele>
        <time>2014-10-26T08:10:56.000Z</time>
      </trkpt>
      <trkpt lat="47.4927" lon="6.75457">
        <ele>351.6</ele>
        <time>2014-10-26T08:11:00.000Z</time>
      </trkpt>
      <trkpt lat="47.49271" lon="6.75455">
        <ele>352.5</ele>
        <time>2014-10-26T08:11:01.000Z</time>
      </trkpt>
      <trkpt lat="47.49272" lon="6.75451">
        <ele>351.7</ele>
        <time>2014-10-26T08:11:02.000Z</time>
      </trkpt>
      <trkpt lat="47.49273" lon="6.75447">
        <ele>351.5</ele>
        <time>2014-10-26T08:11:03.000Z</time>
      </trkpt>
      <trkpt lat="47.49273" lon="6.75443">
        <ele>351.5</ele>
        <time>2014-10-26T08:11:04.000Z</time>
      </trkpt>
      <trkpt lat="47.49274" lon="6.75439">
        <ele>351.4</ele>
        <time>2014-10-26T08:11:05.000Z</time>
      </trkpt>
      <trkpt lat="47.49274" lon="6.75435">
        <ele>352.4</ele>
        <time>2014-10-26T08:11:06.000Z</time>
      </trkpt>
      <trkpt lat="47.49274" lon="6.75431">
        <ele>352.8</ele>
        <time>2014-10-26T08:11:07.000Z</time>
      </trkpt>
      <trkpt lat="47.49274" lon="6.75427">
        <ele>353.3</ele>
        <time>2014-10-26T08:11:08.000Z</time>
      </trkpt>
      <trkpt lat="47.49274" lon="6.75423">
        <ele>353.2</ele>
        <time>2014-10-26T08:11:09.000Z</time>
      </trkpt>
      <trkpt lat="47.49275" lon="6.75419">
        <ele>353.5</ele>
        <time>2014-10-26T08:11:10.000Z</time>
      </trkpt>
      <trkpt lat="47.49276" lon="6.75414">
        <ele>354.4</ele>
        <time>2014-10-26T08:11:11.000Z</time>
      </trkpt>
      <trkpt lat="47.49276" lon="6.7541">
        <ele>354</ele>
        <time>2014-10-26T08:11:12.000Z</time>
      </trkpt>
      <trkpt lat="47.49276" lon="6.75406">
        <ele>353.5</ele>
        <time>2014-10-26T08:11:13.000Z</time>
      </trkpt>
      <trkpt lat="47.49277" lon="6.75402">
        <ele>353.4</ele>
        <time>2014-10-26T08:11:14.000Z</time>
      </trkpt>
      <trkpt lat="47.49278" lon="6.75398">
        <ele>354</ele>
        <time>2014-10-26T08:11:15.000Z</time>
      </trkpt>
      <trkpt lat="47.49278" lon="6.75394">
        <ele>354.3</ele>
        <time>2014-10-26T08:11:16.000Z</time>
      </trkpt>
      <trkpt lat="47.49279" lon="6.75389">
        <ele>352.7</ele>
        <time>2014-10-26T08:11:17.000Z</time>
      </trkpt>
      <trkpt lat="47.4928" lon="6.75382">
        <ele>351.4</ele>
        <time>2014-10-26T08:11:18.000Z</time>
      </trkpt>
      <trkpt lat="47.49282" lon="6.75375">
        <ele>351.7</ele>
        <time>2014-10-26T08:11:19.000Z</time>
      </trkpt>
      <trkpt lat="47.49283" lon="6.75369">
        <ele>351.4</ele>
        <time>2014-10-26T08:11:20.000Z</time>
      </trkpt>
      <trkpt lat="47.49285" lon="6.75362">
        <ele>352</ele>
        <time>2014-10-26T08:11:21.000Z</time>
      </trkpt>
      <trkpt lat="47.49286" lon="6.75355">
        <ele>352.5</ele>
        <time>2014-10-26T08:11:22.000Z</time>
      </trkpt>
      <trkpt lat="47.49287" lon="6.75348">
        <ele>354.1</ele>
        <time>2014-10-26T08:11:23.000Z</time>
      </trkpt>
      <trkpt lat="47.49288" lon="6.75341">
        <ele>352.7</ele>
        <time>2014-10-26T08:11:24.000Z</time>
      </trkpt>
      <trkpt lat="47.49289" lon="6.75335">
        <ele>353.4</ele>
        <time>2014-10-26T08:11:25.000Z</time>
      </trkpt>
      <trkpt lat="47.4929" lon="6.75329">
        <ele>354.1</ele>
        <time>2014-10-26T08:11:26.000Z</time>
      </trkpt>
      <trkpt lat="47.4929" lon="6.75324">
        <ele>355.3</ele>
        <time>2014-10-26T08:11:27.000Z</time>
      </trkpt>
      <trkpt lat="47.49291" lon="6.75319">
        <ele>355</ele>
        <time>2014-10-26T08:11:28.000Z</time>
      </trkpt>
      <trkpt lat="47.49292" lon="6.75315">
        <ele>357.3</ele>
        <time>2014-10-26T08:11:29.000Z</time>
      </trkpt>
      <trkpt lat="47.49292" lon="6.75311">
        <ele>357.4</ele>
        <time>2014-10-26T08:11:30.000Z</time>
      </trkpt>
      <trkpt lat="47.49292" lon="6.75307">
        <ele>357</ele>
        <time>2014-10-26T08:11:31.000Z</time>
      </trkpt>
      <trkpt lat="47.49292" lon="6.75303">
        <ele>357.7</ele>
        <time>2014-10-26T08:11:32.000Z</time>
      </trkpt>
      <trkpt lat="47.49293" lon="6.75296">
        <ele>357.9</ele>
        <time>2014-10-26T08:11:35.000Z</time>
      </trkpt>
      <trkpt lat="47.49295" lon="6.75291">
        <ele>360.7</ele>
        <time>2014-10-26T08:11:37.000Z</time>
      </trkpt>
      <trkpt lat="47.49296" lon="6.75289">
        <ele>362.2</ele>
        <time>2014-10-26T08:11:38.000Z</time>
      </trkpt>
      <trkpt lat="47.49296" lon="6.75283">
        <ele>362.7</ele>
        <time>2014-10-26T08:11:40.000Z</time>
      </trkpt>
      <trkpt lat="47.49297" lon="6.7528">
        <ele>365.3</ele>
        <time>2014-10-26T08:11:41.000Z</time>
      </trkpt>
      <trkpt lat="47.49298" lon="6.75276">
        <ele>365</ele>
        <time>2014-10-26T08:11:42.000Z</time>
      </trkpt>
      <trkpt lat="47.49299" lon="6.75272">
        <ele>364.6</ele>
        <time>2014-10-26T08:11:43.000Z</time>
      </trkpt>
      <trkpt lat="47.49299" lon="6.75269">
        <ele>363.8</ele>
        <time>2014-10-26T08:11:44.000Z</time>
      </trkpt>
      <trkpt lat="47.493" lon="6.75265">
        <ele>363.3</ele>
        <time>2014-10-26T08:11:45.000Z</time>
      </trkpt>
      <trkpt lat="47.49301" lon="6.75261">
        <ele>363.3</ele>
        <time>2014-10-26T08:11:46.000Z</time>
      </trkpt>
      <trkpt lat="47.49301" lon="6.75258">
        <ele>361.9</ele>
        <time>2014-10-26T08:11:47.000Z</time>
      </trkpt>
      <trkpt lat="47.49301" lon="6.75254">
        <ele>360.8</ele>
        <time>2014-10-26T08:11:48.000Z</time>
      </trkpt>
      <trkpt lat="47.49301" lon="6.7525">
        <ele>359.2</ele>
        <time>2014-10-26T08:11:49.000Z</time>
      </trkpt>
      <trkpt lat="47.49302" lon="6.75246">
        <ele>360.4</ele>
        <time>2014-10-26T08:11:50.000Z</time>
      </trkpt>
      <trkpt lat="47.49302" lon="6.75243">
        <ele>360.9</ele>
        <time>2014-10-26T08:11:51.000Z</time>
      </trkpt>
      <trkpt lat="47.49302" lon="6.75239">
        <ele>360</ele>
        <time>2014-10-26T08:11:52.000Z</time>
      </trkpt>
      <trkpt lat="47.49302" lon="6.75235">
        <ele>360.1</ele>
        <time>2014-10-26T08:11:53.000Z</time>
      </trkpt>
      <trkpt lat="47.49301" lon="6.75229">
        <ele>359.7</ele>
        <time>2014-10-26T08:11:55.000Z</time>
      </trkpt>
      <trkpt lat="47.49301" lon="6.75226">
        <ele>359.1</ele>
        <time>2014-10-26T08:11:56.000Z</time>
      </trkpt>
      <trkpt lat="47.49302" lon="6.75222">
        <ele>358.9</ele>
        <time>2014-10-26T08:11:57.000Z</time>
      </trkpt>
      <trkpt lat="47.49302" lon="6.75218">
        <ele>359.6</ele>
        <time>2014-10-26T08:11:58.000Z</time>
      </trkpt>
      <trkpt lat="47.49302" lon="6.75214">
        <ele>360.4</ele>
        <time>2014-10-26T08:11:59.000Z</time>
      </trkpt>
      <trkpt lat="47.49303" lon="6.7521">
        <ele>361.2</ele>
        <time>2014-10-26T08:12:00.000Z</time>
      </trkpt>
      <trkpt lat="47.49303" lon="6.75206">
        <ele>361.6</ele>
        <time>2014-10-26T08:12:01.000Z</time>
      </trkpt>
      <trkpt lat="47.49304" lon="6.75201">
        <ele>360.8</ele>
        <time>2014-10-26T08:12:02.000Z</time>
      </trkpt>
      <trkpt lat="47.49304" lon="6.75195">
        <ele>361.3</ele>
        <time>2014-10-26T08:12:03.000Z</time>
      </trkpt>
      <trkpt lat="47.49303" lon="6.75189">
        <ele>362.4</ele>
        <time>2014-10-26T08:12:04.000Z</time>
      </trkpt>
      <trkpt lat="47.49303" lon="6.75183">
        <ele>363.1</ele>
        <time>2014-10-26T08:12:05.000Z</time>
      </trkpt>
      <trkpt lat="47.49301" lon="6.75177">
        <ele>363.2</ele>
        <time>2014-10-26T08:12:06.000Z</time>
      </trkpt>
      <trkpt lat="47.49301" lon="6.75172">
        <ele>363.8</ele>
        <time>2014-10-26T08:12:07.000Z</time>
      </trkpt>
      <trkpt lat="47.49301" lon="6.75165">
        <ele>364.1</ele>
        <time>2014-10-26T08:12:08.000Z</time>
      </trkpt>
      <trkpt lat="47.49301" lon="6.75158">
        <ele>364</ele>
        <time>2014-10-26T08:12:09.000Z</time>
      </trkpt>
      <trkpt lat="47.49302" lon="6.75151">
        <ele>364.4</ele>
        <time>2014-10-26T08:12:10.000Z</time>
      </trkpt>
      <trkpt lat="47.49302" lon="6.75146">
        <ele>364.2</ele>
        <time>2014-10-26T08:12:11.000Z</time>
      </trkpt>
      <trkpt lat="47.49303" lon="6.75141">
        <ele>364.9</ele>
        <time>2014-10-26T08:12:12.000Z</time>
      </trkpt>
      <trkpt lat="47.49305" lon="6.75135">
        <ele>364.8</ele>
        <time>2014-10-26T08:12:14.000Z</time>
      </trkpt>
      <trkpt lat="47.49306" lon="6.75133">
        <ele>365.5</ele>
        <time>2014-10-26T08:12:15.000Z</time>
      </trkpt>
      <trkpt lat="47.49307" lon="6.75128">
        <ele>366.6</ele>
        <time>2014-10-26T08:12:18.000Z</time>
      </trkpt>
      <trkpt lat="47.49308" lon="6.75126">
        <ele>366.9</ele>
        <time>2014-10-26T08:12:19.000Z</time>
      </trkpt>
      <trkpt lat="47.49309" lon="6.75125">
        <ele>367.8</ele>
        <time>2014-10-26T08:12:20.000Z</time>
      </trkpt>
      <trkpt lat="47.49312" lon="6.75122">
        <ele>367.2</ele>
        <time>2014-10-26T08:12:21.000Z</time>
      </trkpt>
      <trkpt lat="47.49316" lon="6.75119">
        <ele>366.9</ele>
        <time>2014-10-26T08:12:22.000Z</time>
      </trkpt>
      <trkpt lat="47.4932" lon="6.75116">
        <ele>367.1</ele>
        <time>2014-10-26T08:12:23.000Z</time>
      </trkpt>
      <trkpt lat="47.49324" lon="6.75112">
        <ele>367.5</ele>
        <time>2014-10-26T08:12:24.000Z</time>
      </trkpt>
      <trkpt lat="47.49326" lon="6.75107">
        <ele>368.1</ele>
        <time>2014-10-26T08:12:25.000Z</time>
      </trkpt>
      <trkpt lat="47.49328" lon="6.75103">
        <ele>369</ele>
        <time>2014-10-26T08:12:26.000Z</time>
      </trkpt>
      <trkpt lat="47.49328" lon="6.75099">
        <ele>366</ele>
        <time>2014-10-26T08:12:27.000Z</time>
      </trkpt>
      <trkpt lat="47.49328" lon="6.75095">
        <ele>365.5</ele>
        <time>2014-10-26T08:12:28.000Z</time>
      </trkpt>
      <trkpt lat="47.49328" lon="6.7509">
        <ele>363.9</ele>
        <time>2014-10-26T08:12:29.000Z</time>
      </trkpt>
      <trkpt lat="47.49328" lon="6.75084">
        <ele>363.9</ele>
        <time>2014-10-26T08:12:30.000Z</time>
      </trkpt>
      <trkpt lat="47.49329" lon="6.75079">
        <ele>365.6</ele>
        <time>2014-10-26T08:12:31.000Z</time>
      </trkpt>
      <trkpt lat="47.49329" lon="6.75073">
        <ele>363.8</ele>
        <time>2014-10-26T08:12:32.000Z</time>
      </trkpt>
      <trkpt lat="47.49329" lon="6.75063">
        <ele>365.5</ele>
        <time>2014-10-26T08:12:34.999Z</time>
      </trkpt>
      <trkpt lat="47.49329" lon="6.7506">
        <ele>364.7</ele>
        <time>2014-10-26T08:12:36.000Z</time>
      </trkpt>
      <trkpt lat="47.49329" lon="6.75055">
        <ele>363.3</ele>
        <time>2014-10-26T08:12:37.000Z</time>
      </trkpt>
      <trkpt lat="47.49329" lon="6.75051">
        <ele>363.6</ele>
        <time>2014-10-26T08:12:38.000Z</time>
      </trkpt>
      <trkpt lat="47.4933" lon="6.75047">
        <ele>362.9</ele>
        <time>2014-10-26T08:12:39.000Z</time>
      </trkpt>
      <trkpt lat="47.4933" lon="6.75043">
        <ele>362.4</ele>
        <time>2014-10-26T08:12:40.000Z</time>
      </trkpt>
      <trkpt lat="47.4933" lon="6.75039">
        <ele>362.3</ele>
        <time>2014-10-26T08:12:41.000Z</time>
      </trkpt>
      <trkpt lat="47.49331" lon="6.75036">
        <ele>362.2</ele>
        <time>2014-10-26T08:12:42.000Z</time>
      </trkpt>
      <trkpt lat="47.4933" lon="6.75032">
        <ele>361.8</ele>
        <time>2014-10-26T08:12:43.000Z</time>
      </trkpt>
      <trkpt lat="47.4933" lon="6.75028">
        <ele>359.9</ele>
        <time>2014-10-26T08:12:44.000Z</time>
      </trkpt>
      <trkpt lat="47.4933" lon="6.75024">
        <ele>360.9</ele>
        <time>2014-10-26T08:12:45.000Z</time>
      </trkpt>
      <trkpt lat="47.4933" lon="6.7502">
        <ele>360.6</ele>
        <time>2014-10-26T08:12:46.000Z</time>
      </trkpt>
      <trkpt lat="47.49331" lon="6.75017">
        <ele>361.1</ele>
        <time>2014-10-26T08:12:47.000Z</time>
      </trkpt>
      <trkpt lat="47.49332" lon="6.75012">
        <ele>362.6</ele>
        <time>2014-10-26T08:12:49.000Z</time>
      </trkpt>
      <trkpt lat="47.49333" lon="6.75009">
        <ele>362.4</ele>
        <time>2014-10-26T08:12:50.000Z</time>
      </trkpt>
      <trkpt lat="47.49333" lon="6.75005">
        <ele>362.9</ele>
        <time>2014-10-26T08:12:51.000Z</time>
      </trkpt>
      <trkpt lat="47.49334" lon="6.75002">
        <ele>363.4</ele>
        <time>2014-10-26T08:12:52.000Z</time>
      </trkpt>
      <trkpt lat="47.49335" lon="6.74999">
        <ele>363.8</ele>
        <time>2014-10-26T08:12:53.000Z</time>
      </trkpt>
      <trkpt lat="47.49335" lon="6.74996">
        <ele>365.2</ele>
        <time>2014-10-26T08:12:54.000Z</time>
      </trkpt>
      <trkpt lat="47.49336" lon="6.7499">
        <ele>365.4</ele>
        <time>2014-10-26T08:12:56.000Z</time>
      </trkpt>
      <trkpt lat="47.49336" lon="6.74986">
        <ele>365.5</ele>
        <time>2014-10-26T08:12:57.000Z</time>
      </trkpt>
      <trkpt lat="47.49337" lon="6.74981">
        <ele>366.4</ele>
        <time>2014-10-26T08:12:59.000Z</time>
      </trkpt>
      <trkpt lat="47.49338" lon="6.74979">
        <ele>366.3</ele>
        <time>2014-10-26T08:13:00.000Z</time>
      </trkpt>
      <trkpt lat="47.49339" lon="6.74974">
        <ele>367.4</ele>
        <time>2014-10-26T08:13:02.000Z</time>
      </trkpt>
      <trkpt lat="47.49339" lon="6.74972">
        <ele>366.7</ele>
        <time>2014-10-26T08:13:03.000Z</time>
      </trkpt>
      <trkpt lat="47.49339" lon="6.74967">
        <ele>365.5</ele>
        <time>2014-10-26T08:13:05.000Z</time>
      </trkpt>
      <trkpt lat="47.49339" lon="6.74964">
        <ele>366.4</ele>
        <time>2014-10-26T08:13:06.000Z</time>
      </trkpt>
      <trkpt lat="47.4934" lon="6.74958">
        <ele>366.5</ele>
        <time>2014-10-26T08:13:08.000Z</time>
      </trkpt>
      <trkpt lat="47.4934" lon="6.74955">
        <ele>366.2</ele>
        <time>2014-10-26T08:13:09.000Z</time>
      </trkpt>
      <trkpt lat="47.4934" lon="6.74951">
        <ele>366.5</ele>
        <time>2014-10-26T08:13:11.000Z</time>
      </trkpt>
      <trkpt lat="47.49339" lon="6.74949">
        <ele>367.1</ele>
        <time>2014-10-26T08:13:12.000Z</time>
      </trkpt>
      <trkpt lat="47.49338" lon="6.74943">
        <ele>365.9</ele>
        <time>2014-10-26T08:13:14.000Z</time>
      </trkpt>
      <trkpt lat="47.49338" lon="6.74942">
        <ele>365.2</ele>
        <time>2014-10-26T08:13:15.000Z</time>
      </trkpt>
      <trkpt lat="47.4934" lon="6.74936">
        <ele>366</ele>
        <time>2014-10-26T08:13:20.000Z</time>
      </trkpt>
      <trkpt lat="47.4934" lon="6.74935">
        <ele>365.6</ele>
        <time>2014-10-26T08:13:21.000Z</time>
      </trkpt>
      <trkpt lat="47.4934" lon="6.74929">
        <ele>364.6</ele>
        <time>2014-10-26T08:13:24.000Z</time>
      </trkpt>
      <trkpt lat="47.4934" lon="6.74927">
        <ele>364.4</ele>
        <time>2014-10-26T08:13:25.000Z</time>
      </trkpt>
      <trkpt lat="47.49339" lon="6.74922">
        <ele>364.2</ele>
        <time>2014-10-26T08:13:27.000Z</time>
      </trkpt>
      <trkpt lat="47.49339" lon="6.74919">
        <ele>364.3</ele>
        <time>2014-10-26T08:13:28.000Z</time>
      </trkpt>
      <trkpt lat="47.49339" lon="6.74914">
        <ele>365.5</ele>
        <time>2014-10-26T08:13:30.000Z</time>
      </trkpt>
      <trkpt lat="47.49339" lon="6.74911">
        <ele>364.4</ele>
        <time>2014-10-26T08:13:31.000Z</time>
      </trkpt>
      <trkpt lat="47.49339" lon="6.74908">
        <ele>365.5</ele>
        <time>2014-10-26T08:13:32.000Z</time>
      </trkpt>
      <trkpt lat="47.49339" lon="6.74901">
        <ele>366.2</ele>
        <time>2014-10-26T08:13:35.000Z</time>
      </trkpt>
      <trkpt lat="47.4934" lon="6.74896">
        <ele>366.9</ele>
        <time>2014-10-26T08:13:37.000Z</time>
      </trkpt>
      <trkpt lat="47.49341" lon="6.74893">
        <ele>367.7</ele>
        <time>2014-10-26T08:13:38.000Z</time>
      </trkpt>
      <trkpt lat="47.49341" lon="6.74887">
        <ele>369</ele>
        <time>2014-10-26T08:13:40.000Z</time>
      </trkpt>
      <trkpt lat="47.49341" lon="6.74883">
        <ele>369.7</ele>
        <time>2014-10-26T08:13:41.000Z</time>
      </trkpt>
      <trkpt lat="47.49341" lon="6.74877">
        <ele>372.2</ele>
        <time>2014-10-26T08:13:43.000Z</time>
      </trkpt>
      <trkpt lat="47.49341" lon="6.74875">
        <ele>372</ele>
        <time>2014-10-26T08:13:44.000Z</time>
      </trkpt>
      <trkpt lat="47.4934" lon="6.74868">
        <ele>374.5</ele>
        <time>2014-10-26T08:13:47.000Z</time>
      </trkpt>
      <trkpt lat="47.4934" lon="6.74866">
        <ele>374.7</ele>
        <time>2014-10-26T08:13:48.000Z</time>
      </trkpt>
      <trkpt lat="47.49339" lon="6.74861">
        <ele>374.4</ele>
        <time>2014-10-26T08:13:51.000Z</time>
      </trkpt>
      <trkpt lat="47.49339" lon="6.74859">
        <ele>373.2</ele>
        <time>2014-10-26T08:13:52.000Z</time>
      </trkpt>
      <trkpt lat="47.49339" lon="6.74855">
        <ele>372.1</ele>
        <time>2014-10-26T08:13:54.000Z</time>
      </trkpt>
      <trkpt lat="47.49339" lon="6.74852">
        <ele>372.6</ele>
        <time>2014-10-26T08:13:55.000Z</time>
      </trkpt>
      <trkpt lat="47.49338" lon="6.74846">
        <ele>372.5</ele>
        <time>2014-10-26T08:13:57.000Z</time>
      </trkpt>
      <trkpt lat="47.49339" lon="6.74843">
        <ele>372.6</ele>
        <time>2014-10-26T08:13:58.000Z</time>
      </trkpt>
      <trkpt lat="47.49339" lon="6.74839">
        <ele>374.8</ele>
        <time>2014-10-26T08:13:59.000Z</time>
      </trkpt>
      <trkpt lat="47.4934" lon="6.74834">
        <ele>374.9</ele>
        <time>2014-10-26T08:14:00.000Z</time>
      </trkpt>
      <trkpt lat="47.4934" lon="6.7483">
        <ele>375.5</ele>
        <time>2014-10-26T08:14:01.000Z</time>
      </trkpt>
      <trkpt lat="47.4934" lon="6.74826">
        <ele>376.2</ele>
        <time>2014-10-26T08:14:02.000Z</time>
      </trkpt>
      <trkpt lat="47.49341" lon="6.74822">
        <ele>377.8</ele>
        <time>2014-10-26T08:14:03.000Z</time>
      </trkpt>
      <trkpt lat="47.49341" lon="6.74818">
        <ele>377.1</ele>
        <time>2014-10-26T08:14:04.000Z</time>
      </trkpt>
      <trkpt lat="47.49341" lon="6.74814">
        <ele>377.7</ele>
        <time>2014-10-26T08:14:05.000Z</time>
      </trkpt>
      <trkpt lat="47.49341" lon="6.74811">
        <ele>377.3</ele>
        <time>2014-10-26T08:14:06.000Z</time>
      </trkpt>
      <trkpt lat="47.49341" lon="6.74804">
        <ele>376.8</ele>
        <time>2014-10-26T08:14:08.000Z</time>
      </trkpt>
      <trkpt lat="47.49341" lon="6.74801">
        <ele>376.9</ele>
        <time>2014-10-26T08:14:09.000Z</time>
      </trkpt>
      <trkpt lat="47.49341" lon="6.74797">
        <ele>378</ele>
        <time>2014-10-26T08:14:10.000Z</time>
      </trkpt>
      <trkpt lat="47.49341" lon="6.74794">
        <ele>378.3</ele>
        <time>2014-10-26T08:14:11.000Z</time>
      </trkpt>
      <trkpt lat="47.49341" lon="6.74787">
        <ele>378.7</ele>
        <time>2014-10-26T08:14:13.000Z</time>
      </trkpt>
      <trkpt lat="47.49341" lon="6.74784">
        <ele>378.8</ele>
        <time>2014-10-26T08:14:14.000Z</time>
      </trkpt>
      <trkpt lat="47.49342" lon="6.74778">
        <ele>380.2</ele>
        <time>2014-10-26T08:14:16.000Z</time>
      </trkpt>
      <trkpt lat="47.49342" lon="6.74774">
        <ele>380</ele>
        <time>2014-10-26T08:14:17.000Z</time>
      </trkpt>
      <trkpt lat="47.49343" lon="6.74769">
        <ele>379.2</ele>
        <time>2014-10-26T08:14:19.000Z</time>
      </trkpt>
      <trkpt lat="47.49343" lon="6.74766">
        <ele>379.4</ele>
        <time>2014-10-26T08:14:20.000Z</time>
      </trkpt>
      <trkpt lat="47.49343" lon="6.7476">
        <ele>377.6</ele>
        <time>2014-10-26T08:14:22.000Z</time>
      </trkpt>
      <trkpt lat="47.49343" lon="6.74756">
        <ele>377.8</ele>
        <time>2014-10-26T08:14:23.000Z</time>
      </trkpt>
      <trkpt lat="47.49343" lon="6.7475">
        <ele>377.2</ele>
        <time>2014-10-26T08:14:25.000Z</time>
      </trkpt>
      <trkpt lat="47.49343" lon="6.74747">
        <ele>376</ele>
        <time>2014-10-26T08:14:26.000Z</time>
      </trkpt>
      <trkpt lat="47.49343" lon="6.74742">
        <ele>376.4</ele>
        <time>2014-10-26T08:14:28.000Z</time>
      </trkpt>
      <trkpt lat="47.49344" lon="6.74738">
        <ele>375.8</ele>
        <time>2014-10-26T08:14:29.000Z</time>
      </trkpt>
      <trkpt lat="47.49344" lon="6.74735">
        <ele>377.3</ele>
        <time>2014-10-26T08:14:30.000Z</time>
      </trkpt>
      <trkpt lat="47.49344" lon="6.74732">
        <ele>377</ele>
        <time>2014-10-26T08:14:31.000Z</time>
      </trkpt>
      <trkpt lat="47.49345" lon="6.74728">
        <ele>379</ele>
        <time>2014-10-26T08:14:32.000Z</time>
      </trkpt>
      <trkpt lat="47.49346" lon="6.7472">
        <ele>381.7</ele>
        <time>2014-10-26T08:14:35.000Z</time>
      </trkpt>
      <trkpt lat="47.49346" lon="6.74714">
        <ele>382.6</ele>
        <time>2014-10-26T08:14:37.000Z</time>
      </trkpt>
      <trkpt lat="47.49346" lon="6.7471">
        <ele>382.8</ele>
        <time>2014-10-26T08:14:38.000Z</time>
      </trkpt>
      <trkpt lat="47.49345" lon="6.74707">
        <ele>383.5</ele>
        <time>2014-10-26T08:14:39.000Z</time>
      </trkpt>
      <trkpt lat="47.49344" lon="6.74703">
        <ele>383.9</ele>
        <time>2014-10-26T08:14:40.000Z</time>
      </trkpt>
      <trkpt lat="47.49343" lon="6.747">
        <ele>386.8</ele>
        <time>2014-10-26T08:14:41.000Z</time>
      </trkpt>
      <trkpt lat="47.49343" lon="6.74696">
        <ele>386.8</ele>
        <time>2014-10-26T08:14:42.000Z</time>
      </trkpt>
      <trkpt lat="47.49343" lon="6.74693">
        <ele>386.3</ele>
        <time>2014-10-26T08:14:43.000Z</time>
      </trkpt>
      <trkpt lat="47.49343" lon="6.74688">
        <ele>385.5</ele>
        <time>2014-10-26T08:14:44.000Z</time>
      </trkpt>
      <trkpt lat="47.49343" lon="6.74684">
        <ele>384.9</ele>
        <time>2014-10-26T08:14:45.000Z</time>
      </trkpt>
      <trkpt lat="47.49343" lon="6.74679">
        <ele>384</ele>
        <time>2014-10-26T08:14:46.000Z</time>
      </trkpt>
      <trkpt lat="47.49343" lon="6.74674">
        <ele>384</ele>
        <time>2014-10-26T08:14:47.000Z</time>
      </trkpt>
      <trkpt lat="47.49344" lon="6.74671">
        <ele>384</ele>
        <time>2014-10-26T08:14:48.000Z</time>
      </trkpt>
      <trkpt lat="47.49345" lon="6.74665">
        <ele>383.5</ele>
        <time>2014-10-26T08:14:50.000Z</time>
      </trkpt>
      <trkpt lat="47.49345" lon="6.74662">
        <ele>383.3</ele>
        <time>2014-10-26T08:14:51.000Z</time>
      </trkpt>
      <trkpt lat="47.49345" lon="6.74659">
        <ele>382.7</ele>
        <time>2014-10-26T08:14:52.000Z</time>
      </trkpt>
      <trkpt lat="47.49345" lon="6.74654">
        <ele>381.7</ele>
        <time>2014-10-26T08:14:53.000Z</time>
      </trkpt>
      <trkpt lat="47.49345" lon="6.74649">
        <ele>381</ele>
        <time>2014-10-26T08:14:54.000Z</time>
      </trkpt>
      <trkpt lat="47.49345" lon="6.74644">
        <ele>380.1</ele>
        <time>2014-10-26T08:14:55.000Z</time>
      </trkpt>
      <trkpt lat="47.49344" lon="6.7464">
        <ele>379.7</ele>
        <time>2014-10-26T08:14:56.000Z</time>
      </trkpt>
      <trkpt lat="47.49344" lon="6.74636">
        <ele>379.8</ele>
        <time>2014-10-26T08:14:57.000Z</time>
      </trkpt>
      <trkpt lat="47.49344" lon="6.7463">
        <ele>379.6</ele>
        <time>2014-10-26T08:14:59.000Z</time>
      </trkpt>
      <trkpt lat="47.49343" lon="6.74627">
        <ele>379.6</ele>
        <time>2014-10-26T08:15:00.000Z</time>
      </trkpt>
      <trkpt lat="47.49343" lon="6.7462">
        <ele>380.2</ele>
        <time>2014-10-26T08:15:02.000Z</time>
      </trkpt>
      <trkpt lat="47.49344" lon="6.74617">
        <ele>380.1</ele>
        <time>2014-10-26T08:15:03.000Z</time>
      </trkpt>
      <trkpt lat="47.49345" lon="6.74611">
        <ele>380.1</ele>
        <time>2014-10-26T08:15:05.000Z</time>
      </trkpt>
      <trkpt lat="47.49345" lon="6.74608">
        <ele>379.8</ele>
        <time>2014-10-26T08:15:06.000Z</time>
      </trkpt>
      <trkpt lat="47.49345" lon="6.74605">
        <ele>380.4</ele>
        <time>2014-10-26T08:15:07.000Z</time>
      </trkpt>
      <trkpt lat="47.49345" lon="6.74601">
        <ele>381.4</ele>
        <time>2014-10-26T08:15:08.000Z</time>
      </trkpt>
      <trkpt lat="47.49345" lon="6.74598">
        <ele>382.1</ele>
        <time>2014-10-26T08:15:09.000Z</time>
      </trkpt>
      <trkpt lat="47.49344" lon="6.74594">
        <ele>382.4</ele>
        <time>2014-10-26T08:15:10.000Z</time>
      </trkpt>
      <trkpt lat="47.49345" lon="6.74589">
        <ele>386.9</ele>
        <time>2014-10-26T08:15:11.000Z</time>
      </trkpt>
      <trkpt lat="47.49346" lon="6.74584">
        <ele>388.1</ele>
        <time>2014-10-26T08:15:12.000Z</time>
      </trkpt>
      <trkpt lat="47.49348" lon="6.74579">
        <ele>388.7</ele>
        <time>2014-10-26T08:15:13.000Z</time>
      </trkpt>
      <trkpt lat="47.49349" lon="6.74574">
        <ele>389.1</ele>
        <time>2014-10-26T08:15:14.000Z</time>
      </trkpt>
      <trkpt lat="47.49351" lon="6.7457">
        <ele>389.5</ele>
        <time>2014-10-26T08:15:15.000Z</time>
      </trkpt>
      <trkpt lat="47.49352" lon="6.74567">
        <ele>388.3</ele>
        <time>2014-10-26T08:15:16.000Z</time>
      </trkpt>
      <trkpt lat="47.49352" lon="6.74564">
        <ele>388.8</ele>
        <time>2014-10-26T08:15:17.000Z</time>
      </trkpt>
      <trkpt lat="47.49353" lon="6.7456">
        <ele>388.8</ele>
        <time>2014-10-26T08:15:18.000Z</time>
      </trkpt>
      <trkpt lat="47.49354" lon="6.74556">
        <ele>391.2</ele>
        <time>2014-10-26T08:15:19.000Z</time>
      </trkpt>
      <trkpt lat="47.49355" lon="6.74552">
        <ele>390.9</ele>
        <time>2014-10-26T08:15:20.000Z</time>
      </trkpt>
      <trkpt lat="47.49355" lon="6.74548">
        <ele>390.1</ele>
        <time>2014-10-26T08:15:21.000Z</time>
      </trkpt>
      <trkpt lat="47.49356" lon="6.74544">
        <ele>391.1</ele>
        <time>2014-10-26T08:15:22.000Z</time>
      </trkpt>
      <trkpt lat="47.49356" lon="6.7454">
        <ele>391.2</ele>
        <time>2014-10-26T08:15:23.000Z</time>
      </trkpt>
      <trkpt lat="47.49356" lon="6.74537">
        <ele>391</ele>
        <time>2014-10-26T08:15:24.000Z</time>
      </trkpt>
      <trkpt lat="47.49356" lon="6.74534">
        <ele>391.2</ele>
        <time>2014-10-26T08:15:25.000Z</time>
      </trkpt>
      <trkpt lat="47.49356" lon="6.7453">
        <ele>392.6</ele>
        <time>2014-10-26T08:15:26.000Z</time>
      </trkpt>
      <trkpt lat="47.49356" lon="6.74526">
        <ele>394</ele>
        <time>2014-10-26T08:15:27.000Z</time>
      </trkpt>
      <trkpt lat="47.49357" lon="6.74521">
        <ele>392.2</ele>
        <time>2014-10-26T08:15:28.000Z</time>
      </trkpt>
      <trkpt lat="47.49356" lon="6.74517">
        <ele>394.9</ele>
        <time>2014-10-26T08:15:29.000Z</time>
      </trkpt>
      <trkpt lat="47.49356" lon="6.74513">
        <ele>394.5</ele>
        <time>2014-10-26T08:15:30.000Z</time>
      </trkpt>
      <trkpt lat="47.49355" lon="6.74509">
        <ele>395</ele>
        <time>2014-10-26T08:15:31.000Z</time>
      </trkpt>
      <trkpt lat="47.49354" lon="6.74505">
        <ele>395.4</ele>
        <time>2014-10-26T08:15:32.000Z</time>
      </trkpt>
      <trkpt lat="47.49352" lon="6.74483">
        <ele>394.6</ele>
        <time>2014-10-26T08:15:39.774Z</time>
      </trkpt>
      <trkpt lat="47.49353" lon="6.74479">
        <ele>395</ele>
        <time>2014-10-26T08:15:41.000Z</time>
      </trkpt>
      <trkpt lat="47.49353" lon="6.74473">
        <ele>396.7</ele>
        <time>2014-10-26T08:15:42.000Z</time>
      </trkpt>
      <trkpt lat="47.49353" lon="6.74467">
        <ele>396.9</ele>
        <time>2014-10-26T08:15:43.000Z</time>
      </trkpt>
      <trkpt lat="47.49353" lon="6.74461">
        <ele>395.5</ele>
        <time>2014-10-26T08:15:44.000Z</time>
      </trkpt>
      <trkpt lat="47.49353" lon="6.74454">
        <ele>395.3</ele>
        <time>2014-10-26T08:15:45.000Z</time>
      </trkpt>
      <trkpt lat="47.49353" lon="6.74449">
        <ele>395.1</ele>
        <time>2014-10-26T08:15:46.000Z</time>
      </trkpt>
      <trkpt lat="47.49353" lon="6.74444">
        <ele>394.4</ele>
        <time>2014-10-26T08:15:47.000Z</time>
      </trkpt>
      <trkpt lat="47.49353" lon="6.74441">
        <ele>393.7</ele>
        <time>2014-10-26T08:15:48.000Z</time>
      </trkpt>
      <trkpt lat="47.49352" lon="6.74436">
        <ele>391.3</ele>
        <time>2014-10-26T08:15:50.000Z</time>
      </trkpt>
      <trkpt lat="47.49352" lon="6.74434">
        <ele>390.9</ele>
        <time>2014-10-26T08:15:51.000Z</time>
      </trkpt>
      <trkpt lat="47.49351" lon="6.74429">
        <ele>389.7</ele>
        <time>2014-10-26T08:15:53.000Z</time>
      </trkpt>
      <trkpt lat="47.49351" lon="6.74426">
        <ele>389.9</ele>
        <time>2014-10-26T08:15:54.000Z</time>
      </trkpt>
      <trkpt lat="47.49351" lon="6.74423">
        <ele>389.8</ele>
        <time>2014-10-26T08:15:55.000Z</time>
      </trkpt>
      <trkpt lat="47.49351" lon="6.74419">
        <ele>389.7</ele>
        <time>2014-10-26T08:15:56.000Z</time>
      </trkpt>
      <trkpt lat="47.49351" lon="6.74416">
        <ele>388.4</ele>
        <time>2014-10-26T08:15:57.000Z</time>
      </trkpt>
      <trkpt lat="47.49352" lon="6.74413">
        <ele>388</ele>
        <time>2014-10-26T08:15:58.000Z</time>
      </trkpt>
      <trkpt lat="47.49353" lon="6.74407">
        <ele>387.1</ele>
        <time>2014-10-26T08:16:00.000Z</time>
      </trkpt>
      <trkpt lat="47.49354" lon="6.74403">
        <ele>386.4</ele>
        <time>2014-10-26T08:16:01.000Z</time>
      </trkpt>
      <trkpt lat="47.49355" lon="6.74399">
        <ele>386.8</ele>
        <time>2014-10-26T08:16:02.000Z</time>
      </trkpt>
      <trkpt lat="47.49356" lon="6.74393">
        <ele>384.7</ele>
        <time>2014-10-26T08:16:03.000Z</time>
      </trkpt>
      <trkpt lat="47.49356" lon="6.74386">
        <ele>380.8</ele>
        <time>2014-10-26T08:16:04.000Z</time>
      </trkpt>
      <trkpt lat="47.49357" lon="6.7438">
        <ele>379.4</ele>
        <time>2014-10-26T08:16:05.000Z</time>
      </trkpt>
      <trkpt lat="47.49357" lon="6.74374">
        <ele>379.8</ele>
        <time>2014-10-26T08:16:06.000Z</time>
      </trkpt>
      <trkpt lat="47.49357" lon="6.7437">
        <ele>380.4</ele>
        <time>2014-10-26T08:16:07.000Z</time>
      </trkpt>
      <trkpt lat="47.49357" lon="6.74366">
        <ele>379.6</ele>
        <time>2014-10-26T08:16:08.000Z</time>
      </trkpt>
      <trkpt lat="47.49357" lon="6.74363">
        <ele>379.5</ele>
        <time>2014-10-26T08:16:09.000Z</time>
      </trkpt>
      <trkpt lat="47.49357" lon="6.74358">
        <ele>378.5</ele>
        <time>2014-10-26T08:16:11.000Z</time>
      </trkpt>
      <trkpt lat="47.49358" lon="6.74355">
        <ele>378.8</ele>
        <time>2014-10-26T08:16:12.000Z</time>
      </trkpt>
      <trkpt lat="47.49358" lon="6.74348">
        <ele>379.8</ele>
        <time>2014-10-26T08:16:14.000Z</time>
      </trkpt>
      <trkpt lat="47.49358" lon="6.74345">
        <ele>381.9</ele>
        <time>2014-10-26T08:16:15.000Z</time>
      </trkpt>
      <trkpt lat="47.49358" lon="6.74342">
        <ele>383.2</ele>
        <time>2014-10-26T08:16:16.000Z</time>
      </trkpt>
      <trkpt lat="47.49358" lon="6.74338">
        <ele>383.4</ele>
        <time>2014-10-26T08:16:17.000Z</time>
      </trkpt>
      <trkpt lat="47.49359" lon="6.74334">
        <ele>383.2</ele>
        <time>2014-10-26T08:16:18.000Z</time>
      </trkpt>
      <trkpt lat="47.4936" lon="6.7433">
        <ele>383.7</ele>
        <time>2014-10-26T08:16:19.000Z</time>
      </trkpt>
      <trkpt lat="47.49361" lon="6.74327">
        <ele>383.8</ele>
        <time>2014-10-26T08:16:20.000Z</time>
      </trkpt>
      <trkpt lat="47.49362" lon="6.74324">
        <ele>383.3</ele>
        <time>2014-10-26T08:16:21.000Z</time>
      </trkpt>
      <trkpt lat="47.49364" lon="6.74319">
        <ele>383.6</ele>
        <time>2014-10-26T08:16:23.000Z</time>
      </trkpt>
      <trkpt lat="47.49364" lon="6.74316">
        <ele>385.1</ele>
        <time>2014-10-26T08:16:24.000Z</time>
      </trkpt>
      <trkpt lat="47.49366" lon="6.74312">
        <ele>382.4</ele>
        <time>2014-10-26T08:16:26.000Z</time>
      </trkpt>
      <trkpt lat="47.49367" lon="6.7431">
        <ele>382.3</ele>
        <time>2014-10-26T08:16:27.000Z</time>
      </trkpt>
      <trkpt lat="47.49368" lon="6.74305">
        <ele>383.5</ele>
        <time>2014-10-26T08:16:29.000Z</time>
      </trkpt>
      <trkpt lat="47.49369" lon="6.74303">
        <ele>383.8</ele>
        <time>2014-10-26T08:16:30.000Z</time>
      </trkpt>
      <trkpt lat="47.49369" lon="6.74298">
        <ele>383.1</ele>
        <time>2014-10-26T08:16:32.000Z</time>
      </trkpt>
      <trkpt lat="47.4937" lon="6.74292">
        <ele>383.9</ele>
        <time>2014-10-26T08:16:35.000Z</time>
      </trkpt>
      <trkpt lat="47.49372" lon="6.74286">
        <ele>384.5</ele>
        <time>2014-10-26T08:16:37.000Z</time>
      </trkpt>
      <trkpt lat="47.49373" lon="6.74284">
        <ele>385</ele>
        <time>2014-10-26T08:16:38.000Z</time>
      </trkpt>
      <trkpt lat="47.49375" lon="6.74279">
        <ele>389.1</ele>
        <time>2014-10-26T08:16:40.000Z</time>
      </trkpt>
      <trkpt lat="47.49377" lon="6.74277">
        <ele>389.7</ele>
        <time>2014-10-26T08:16:41.000Z</time>
      </trkpt>
      <trkpt lat="47.49378" lon="6.74274">
        <ele>391.9</ele>
        <time>2014-10-26T08:16:42.000Z</time>
      </trkpt>
      <trkpt lat="47.49379" lon="6.74271">
        <ele>393</ele>
        <time>2014-10-26T08:16:43.000Z</time>
      </trkpt>
      <trkpt lat="47.4938" lon="6.74268">
        <ele>395.6</ele>
        <time>2014-10-26T08:16:44.000Z</time>
      </trkpt>
      <trkpt lat="47.4938" lon="6.74264">
        <ele>396.8</ele>
        <time>2014-10-26T08:16:45.000Z</time>
      </trkpt>
      <trkpt lat="47.49381" lon="6.7426">
        <ele>397.9</ele>
        <time>2014-10-26T08:16:46.000Z</time>
      </trkpt>
      <trkpt lat="47.49382" lon="6.74256">
        <ele>397.2</ele>
        <time>2014-10-26T08:16:47.000Z</time>
      </trkpt>
      <trkpt lat="47.49383" lon="6.74251">
        <ele>396.9</ele>
        <time>2014-10-26T08:16:48.000Z</time>
      </trkpt>
      <trkpt lat="47.49385" lon="6.74247">
        <ele>396.7</ele>
        <time>2014-10-26T08:16:49.000Z</time>
      </trkpt>
      <trkpt lat="47.49386" lon="6.74242">
        <ele>397.2</ele>
        <time>2014-10-26T08:16:50.000Z</time>
      </trkpt>
      <trkpt lat="47.49388" lon="6.74237">
        <ele>397.6</ele>
        <time>2014-10-26T08:16:51.000Z</time>
      </trkpt>
      <trkpt lat="47.4939" lon="6.74231">
        <ele>397.7</ele>
        <time>2014-10-26T08:16:52.000Z</time>
      </trkpt>
      <trkpt lat="47.49392" lon="6.74225">
        <ele>397</ele>
        <time>2014-10-26T08:16:53.000Z</time>
      </trkpt>
      <trkpt lat="47.49394" lon="6.7422">
        <ele>397.6</ele>
        <time>2014-10-26T08:16:54.000Z</time>
      </trkpt>
      <trkpt lat="47.49396" lon="6.74215">
        <ele>399.2</ele>
        <time>2014-10-26T08:16:55.000Z</time>
      </trkpt>
      <trkpt lat="47.49397" lon="6.7421">
        <ele>398.3</ele>
        <time>2014-10-26T08:16:56.000Z</time>
      </trkpt>
      <trkpt lat="47.49398" lon="6.74204">
        <ele>398</ele>
        <time>2014-10-26T08:16:57.000Z</time>
      </trkpt>
      <trkpt lat="47.494" lon="6.74199">
        <ele>398</ele>
        <time>2014-10-26T08:16:58.000Z</time>
      </trkpt>
      <trkpt lat="47.49401" lon="6.74195">
        <ele>398.1</ele>
        <time>2014-10-26T08:16:59.000Z</time>
      </trkpt>
      <trkpt lat="47.49401" lon="6.74191">
        <ele>397</ele>
        <time>2014-10-26T08:17:00.000Z</time>
      </trkpt>
      <trkpt lat="47.49402" lon="6.74188">
        <ele>396.3</ele>
        <time>2014-10-26T08:17:01.000Z</time>
      </trkpt>
      <trkpt lat="47.49402" lon="6.74183">
        <ele>399.3</ele>
        <time>2014-10-26T08:17:02.000Z</time>
      </trkpt>
      <trkpt lat="47.49404" lon="6.74178">
        <ele>400.6</ele>
        <time>2014-10-26T08:17:03.000Z</time>
      </trkpt>
      <trkpt lat="47.49405" lon="6.74172">
        <ele>401.1</ele>
        <time>2014-10-26T08:17:04.000Z</time>
      </trkpt>
      <trkpt lat="47.49406" lon="6.74166">
        <ele>401.9</ele>
        <time>2014-10-26T08:17:05.000Z</time>
      </trkpt>
      <trkpt lat="47.49408" lon="6.7416">
        <ele>402.2</ele>
        <time>2014-10-26T08:17:06.000Z</time>
      </trkpt>
      <trkpt lat="47.49409" lon="6.74155">
        <ele>402.4</ele>
        <time>2014-10-26T08:17:07.000Z</time>
      </trkpt>
      <trkpt lat="47.4941" lon="6.74151">
        <ele>402.1</ele>
        <time>2014-10-26T08:17:08.000Z</time>
      </trkpt>
      <trkpt lat="47.49412" lon="6.74146">
        <ele>401.5</ele>
        <time>2014-10-26T08:17:09.000Z</time>
      </trkpt>
      <trkpt lat="47.49413" lon="6.74142">
        <ele>401.2</ele>
        <time>2014-10-26T08:17:10.000Z</time>
      </trkpt>
      <trkpt lat="47.49414" lon="6.74137">
        <ele>400.6</ele>
        <time>2014-10-26T08:17:11.000Z</time>
      </trkpt>
      <trkpt lat="47.49415" lon="6.74132">
        <ele>399.3</ele>
        <time>2014-10-26T08:17:12.000Z</time>
      </trkpt>
      <trkpt lat="47.49416" lon="6.74127">
        <ele>399.3</ele>
        <time>2014-10-26T08:17:13.000Z</time>
      </trkpt>
      <trkpt lat="47.49418" lon="6.74122">
        <ele>402.3</ele>
        <time>2014-10-26T08:17:14.000Z</time>
      </trkpt>
      <trkpt lat="47.4942" lon="6.74117">
        <ele>401.5</ele>
        <time>2014-10-26T08:17:15.000Z</time>
      </trkpt>
      <trkpt lat="47.49422" lon="6.74112">
        <ele>401.6</ele>
        <time>2014-10-26T08:17:16.000Z</time>
      </trkpt>
      <trkpt lat="47.49424" lon="6.74107">
        <ele>402.1</ele>
        <time>2014-10-26T08:17:17.000Z</time>
      </trkpt>
      <trkpt lat="47.49426" lon="6.74103">
        <ele>402.1</ele>
        <time>2014-10-26T08:17:18.000Z</time>
      </trkpt>
      <trkpt lat="47.49427" lon="6.74098">
        <ele>402.2</ele>
        <time>2014-10-26T08:17:19.000Z</time>
      </trkpt>
      <trkpt lat="47.49428" lon="6.74094">
        <ele>401.8</ele>
        <time>2014-10-26T08:17:20.000Z</time>
      </trkpt>
      <trkpt lat="47.4943" lon="6.7409">
        <ele>402</ele>
        <time>2014-10-26T08:17:21.000Z</time>
      </trkpt>
      <trkpt lat="47.49431" lon="6.74085">
        <ele>401.9</ele>
        <time>2014-10-26T08:17:22.000Z</time>
      </trkpt>
      <trkpt lat="47.49432" lon="6.7408">
        <ele>402.8</ele>
        <time>2014-10-26T08:17:23.000Z</time>
      </trkpt>
      <trkpt lat="47.49434" lon="6.74074">
        <ele>406.9</ele>
        <time>2014-10-26T08:17:24.000Z</time>
      </trkpt>
      <trkpt lat="47.49436" lon="6.74067">
        <ele>405</ele>
        <time>2014-10-26T08:17:25.000Z</time>
      </trkpt>
      <trkpt lat="47.49438" lon="6.74059">
        <ele>403.5</ele>
        <time>2014-10-26T08:17:26.000Z</time>
      </trkpt>
      <trkpt lat="47.4944" lon="6.74052">
        <ele>403.6</ele>
        <time>2014-10-26T08:17:27.000Z</time>
      </trkpt>
      <trkpt lat="47.49442" lon="6.74045">
        <ele>402.7</ele>
        <time>2014-10-26T08:17:28.000Z</time>
      </trkpt>
      <trkpt lat="47.49443" lon="6.74037">
        <ele>402.3</ele>
        <time>2014-10-26T08:17:29.000Z</time>
      </trkpt>
      <trkpt lat="47.49443" lon="6.74029">
        <ele>403.3</ele>
        <time>2014-10-26T08:17:30.000Z</time>
      </trkpt>
      <trkpt lat="47.49444" lon="6.74022">
        <ele>403.7</ele>
        <time>2014-10-26T08:17:31.000Z</time>
      </trkpt>
      <trkpt lat="47.49446" lon="6.74015">
        <ele>400.8</ele>
        <time>2014-10-26T08:17:32.000Z</time>
      </trkpt>
      <trkpt lat="47.49448" lon="6.74008">
        <ele>400.2</ele>
        <time>2014-10-26T08:17:33.000Z</time>
      </trkpt>
      <trkpt lat="47.49452" lon="6.73995">
        <ele>401.1</ele>
        <time>2014-10-26T08:17:36.000Z</time>
      </trkpt>
      <trkpt lat="47.49453" lon="6.73989">
        <ele>403.3</ele>
        <time>2014-10-26T08:17:37.000Z</time>
      </trkpt>
      <trkpt lat="47.49453" lon="6.73983">
        <ele>402.2</ele>
        <time>2014-10-26T08:17:38.000Z</time>
      </trkpt>
      <trkpt lat="47.49453" lon="6.73977">
        <ele>402.4</ele>
        <time>2014-10-26T08:17:39.000Z</time>
      </trkpt>
      <trkpt lat="47.49453" lon="6.73969">
        <ele>401.4</ele>
        <time>2014-10-26T08:17:40.000Z</time>
      </trkpt>
      <trkpt lat="47.49453" lon="6.73962">
        <ele>401.6</ele>
        <time>2014-10-26T08:17:41.000Z</time>
      </trkpt>
      <trkpt lat="47.49452" lon="6.73955">
        <ele>401.2</ele>
        <time>2014-10-26T08:17:42.000Z</time>
      </trkpt>
      <trkpt lat="47.49452" lon="6.73948">
        <ele>400.5</ele>
        <time>2014-10-26T08:17:43.000Z</time>
      </trkpt>
      <trkpt lat="47.49452" lon="6.73942">
        <ele>400.7</ele>
        <time>2014-10-26T08:17:44.000Z</time>
      </trkpt>
      <trkpt lat="47.49452" lon="6.73936">
        <ele>400.5</ele>
        <time>2014-10-26T08:17:45.000Z</time>
      </trkpt>
      <trkpt lat="47.49453" lon="6.73931">
        <ele>400.8</ele>
        <time>2014-10-26T08:17:46.000Z</time>
      </trkpt>
      <trkpt lat="47.49454" lon="6.73926">
        <ele>400.9</ele>
        <time>2014-10-26T08:17:47.000Z</time>
      </trkpt>
      <trkpt lat="47.49454" lon="6.73921">
        <ele>399.5</ele>
        <time>2014-10-26T08:17:48.000Z</time>
      </trkpt>
      <trkpt lat="47.49454" lon="6.73916">
        <ele>396.4</ele>
        <time>2014-10-26T08:17:49.000Z</time>
      </trkpt>
      <trkpt lat="47.49452" lon="6.73911">
        <ele>394.5</ele>
        <time>2014-10-26T08:17:50.000Z</time>
      </trkpt>
      <trkpt lat="47.49451" lon="6.73907">
        <ele>392.2</ele>
        <time>2014-10-26T08:17:51.000Z</time>
      </trkpt>
      <trkpt lat="47.4945" lon="6.73902">
        <ele>391.1</ele>
        <time>2014-10-26T08:17:52.000Z</time>
      </trkpt>
      <trkpt lat="47.49449" lon="6.73897">
        <ele>390.3</ele>
        <time>2014-10-26T08:17:53.000Z</time>
      </trkpt>
      <trkpt lat="47.49449" lon="6.73892">
        <ele>389.7</ele>
        <time>2014-10-26T08:17:54.000Z</time>
      </trkpt>
      <trkpt lat="47.49448" lon="6.73887">
        <ele>388.6</ele>
        <time>2014-10-26T08:17:55.000Z</time>
      </trkpt>
      <trkpt lat="47.49447" lon="6.73882">
        <ele>388.8</ele>
        <time>2014-10-26T08:17:56.000Z</time>
      </trkpt>
      <trkpt lat="47.49447" lon="6.73877">
        <ele>387.8</ele>
        <time>2014-10-26T08:17:57.000Z</time>
      </trkpt>
      <trkpt lat="47.49446" lon="6.73872">
        <ele>388.9</ele>
        <time>2014-10-26T08:17:58.000Z</time>
      </trkpt>
      <trkpt lat="47.49445" lon="6.73867">
        <ele>387.9</ele>
        <time>2014-10-26T08:17:59.000Z</time>
      </trkpt>
      <trkpt lat="47.49445" lon="6.73862">
        <ele>387.8</ele>
        <time>2014-10-26T08:18:00.000Z</time>
      </trkpt>
      <trkpt lat="47.49445" lon="6.73857">
        <ele>387.9</ele>
        <time>2014-10-26T08:18:01.000Z</time>
      </trkpt>
      <trkpt lat="47.49445" lon="6.73853">
        <ele>387.7</ele>
        <time>2014-10-26T08:18:02.000Z</time>
      </trkpt>
      <trkpt lat="47.49445" lon="6.73848">
        <ele>387.8</ele>
        <time>2014-10-26T08:18:03.000Z</time>
      </trkpt>
      <trkpt lat="47.49445" lon="6.73844">
        <ele>388.7</ele>
        <time>2014-10-26T08:18:04.000Z</time>
      </trkpt>
      <trkpt lat="47.49445" lon="6.73839">
        <ele>388.2</ele>
        <time>2014-10-26T08:18:05.000Z</time>
      </trkpt>
      <trkpt lat="47.49451" lon="6.73818">
        <ele>387.9</ele>
        <time>2014-10-26T08:18:06.000Z</time>
      </trkpt>
      <trkpt lat="47.49456" lon="6.73811">
        <ele>387.1</ele>
        <time>2014-10-26T08:18:07.000Z</time>
      </trkpt>
      <trkpt lat="47.49461" lon="6.73804">
        <ele>386.8</ele>
        <time>2014-10-26T08:18:08.000Z</time>
      </trkpt>
      <trkpt lat="47.49466" lon="6.73797">
        <ele>386</ele>
        <time>2014-10-26T08:18:09.000Z</time>
      </trkpt>
      <trkpt lat="47.49466" lon="6.73776">
        <ele>380.4</ele>
        <time>2014-10-26T08:18:10.000Z</time>
      </trkpt>
      <trkpt lat="47.49468" lon="6.73766">
        <ele>378.6</ele>
        <time>2014-10-26T08:18:11.000Z</time>
      </trkpt>
      <trkpt lat="47.4947" lon="6.73756">
        <ele>375.3</ele>
        <time>2014-10-26T08:18:12.000Z</time>
      </trkpt>
      <trkpt lat="47.49474" lon="6.73746">
        <ele>372.9</ele>
        <time>2014-10-26T08:18:13.000Z</time>
      </trkpt>
      <trkpt lat="47.49476" lon="6.73738">
        <ele>370.8</ele>
        <time>2014-10-26T08:18:14.000Z</time>
      </trkpt>
      <trkpt lat="47.49478" lon="6.73731">
        <ele>369.5</ele>
        <time>2014-10-26T08:18:15.000Z</time>
      </trkpt>
      <trkpt lat="47.49479" lon="6.73723">
        <ele>367</ele>
        <time>2014-10-26T08:18:16.000Z</time>
      </trkpt>
      <trkpt lat="47.49482" lon="6.73715">
        <ele>364</ele>
        <time>2014-10-26T08:18:17.000Z</time>
      </trkpt>
      <trkpt lat="47.49485" lon="6.73707">
        <ele>362</ele>
        <time>2014-10-26T08:18:18.000Z</time>
      </trkpt>
      <trkpt lat="47.49488" lon="6.737">
        <ele>360.5</ele>
        <time>2014-10-26T08:18:19.000Z</time>
      </trkpt>
      <trkpt lat="47.4949" lon="6.73694">
        <ele>359.5</ele>
        <time>2014-10-26T08:18:20.000Z</time>
      </trkpt>
      <trkpt lat="47.49492" lon="6.73687">
        <ele>358.8</ele>
        <time>2014-10-26T08:18:21.000Z</time>
      </trkpt>
      <trkpt lat="47.49495" lon="6.7368">
        <ele>358.1</ele>
        <time>2014-10-26T08:18:22.000Z</time>
      </trkpt>
      <trkpt lat="47.49498" lon="6.73674">
        <ele>357.7</ele>
        <time>2014-10-26T08:18:23.000Z</time>
      </trkpt>
      <trkpt lat="47.49501" lon="6.73668">
        <ele>357.5</ele>
        <time>2014-10-26T08:18:24.000Z</time>
      </trkpt>
      <trkpt lat="47.49505" lon="6.73662">
        <ele>356.9</ele>
        <time>2014-10-26T08:18:25.000Z</time>
      </trkpt>
      <trkpt lat="47.49508" lon="6.73656">
        <ele>356.8</ele>
        <time>2014-10-26T08:18:26.000Z</time>
      </trkpt>
      <trkpt lat="47.49512" lon="6.73649">
        <ele>354.7</ele>
        <time>2014-10-26T08:18:27.000Z</time>
      </trkpt>
      <trkpt lat="47.49516" lon="6.73642">
        <ele>352</ele>
        <time>2014-10-26T08:18:28.000Z</time>
      </trkpt>
      <trkpt lat="47.49519" lon="6.73635">
        <ele>351.7</ele>
        <time>2014-10-26T08:18:29.000Z</time>
      </trkpt>
      <trkpt lat="47.49522" lon="6.7363">
        <ele>350.9</ele>
        <time>2014-10-26T08:18:30.000Z</time>
      </trkpt>
      <trkpt lat="47.49526" lon="6.73623">
        <ele>350.2</ele>
        <time>2014-10-26T08:18:31.000Z</time>
      </trkpt>
      <trkpt lat="47.4953" lon="6.73618">
        <ele>349.7</ele>
        <time>2014-10-26T08:18:32.000Z</time>
      </trkpt>
      <trkpt lat="47.49539" lon="6.73608">
        <ele>349.9</ele>
        <time>2014-10-26T08:18:35.000Z</time>
      </trkpt>
      <trkpt lat="47.49544" lon="6.73603">
        <ele>349.8</ele>
        <time>2014-10-26T08:18:36.000Z</time>
      </trkpt>
      <trkpt lat="47.49548" lon="6.73599">
        <ele>349.7</ele>
        <time>2014-10-26T08:18:37.000Z</time>
      </trkpt>
      <trkpt lat="47.49551" lon="6.73594">
        <ele>349.4</ele>
        <time>2014-10-26T08:18:38.000Z</time>
      </trkpt>
      <trkpt lat="47.49556" lon="6.73588">
        <ele>349</ele>
        <time>2014-10-26T08:18:39.000Z</time>
      </trkpt>
      <trkpt lat="47.49559" lon="6.73583">
        <ele>348.4</ele>
        <time>2014-10-26T08:18:40.000Z</time>
      </trkpt>
      <trkpt lat="47.49563" lon="6.73578">
        <ele>348.1</ele>
        <time>2014-10-26T08:18:41.000Z</time>
      </trkpt>
      <trkpt lat="47.49566" lon="6.73573">
        <ele>347.8</ele>
        <time>2014-10-26T08:18:42.000Z</time>
      </trkpt>
      <trkpt lat="47.4957" lon="6.73568">
        <ele>347.6</ele>
        <time>2014-10-26T08:18:43.000Z</time>
      </trkpt>
      <trkpt lat="47.49574" lon="6.73565">
        <ele>347.7</ele>
        <time>2014-10-26T08:18:43.998Z</time>
      </trkpt>
      <trkpt lat="47.49578" lon="6.7356">
        <ele>347.5</ele>
        <time>2014-10-26T08:18:45.000Z</time>
      </trkpt>
      <trkpt lat="47.49583" lon="6.73553">
        <ele>346</ele>
        <time>2014-10-26T08:18:46.000Z</time>
      </trkpt>
      <trkpt lat="47.49587" lon="6.73549">
        <ele>345.8</ele>
        <time>2014-10-26T08:18:47.000Z</time>
      </trkpt>
      <trkpt lat="47.49591" lon="6.73543">
        <ele>343.9</ele>
        <time>2014-10-26T08:18:48.000Z</time>
      </trkpt>
      <trkpt lat="47.49595" lon="6.73538">
        <ele>344</ele>
        <time>2014-10-26T08:18:49.000Z</time>
      </trkpt>
      <trkpt lat="47.49598" lon="6.73533">
        <ele>343.9</ele>
        <time>2014-10-26T08:18:50.000Z</time>
      </trkpt>
      <trkpt lat="47.49602" lon="6.73529">
        <ele>343.2</ele>
        <time>2014-10-26T08:18:51.000Z</time>
      </trkpt>
      <trkpt lat="47.49606" lon="6.73525">
        <ele>343.2</ele>
        <time>2014-10-26T08:18:52.000Z</time>
      </trkpt>
      <trkpt lat="47.4961" lon="6.73521">
        <ele>343.3</ele>
        <time>2014-10-26T08:18:53.000Z</time>
      </trkpt>
      <trkpt lat="47.49614" lon="6.73516">
        <ele>342.4</ele>
        <time>2014-10-26T08:18:54.000Z</time>
      </trkpt>
      <trkpt lat="47.49618" lon="6.73512">
        <ele>342.8</ele>
        <time>2014-10-26T08:18:55.000Z</time>
      </trkpt>
      <trkpt lat="47.49621" lon="6.73507">
        <ele>343</ele>
        <time>2014-10-26T08:18:56.000Z</time>
      </trkpt>
      <trkpt lat="47.49625" lon="6.73501">
        <ele>341.6</ele>
        <time>2014-10-26T08:18:57.000Z</time>
      </trkpt>
      <trkpt lat="47.49629" lon="6.73497">
        <ele>340.8</ele>
        <time>2014-10-26T08:18:58.000Z</time>
      </trkpt>
      <trkpt lat="47.49632" lon="6.73492">
        <ele>340.7</ele>
        <time>2014-10-26T08:18:59.000Z</time>
      </trkpt>
      <trkpt lat="47.49636" lon="6.73488">
        <ele>341.1</ele>
        <time>2014-10-26T08:19:00.000Z</time>
      </trkpt>
      <trkpt lat="47.49639" lon="6.73483">
        <ele>341</ele>
        <time>2014-10-26T08:19:01.000Z</time>
      </trkpt>
      <trkpt lat="47.49642" lon="6.73479">
        <ele>340.9</ele>
        <time>2014-10-26T08:19:02.000Z</time>
      </trkpt>
      <trkpt lat="47.49646" lon="6.73473">
        <ele>339.7</ele>
        <time>2014-10-26T08:19:03.000Z</time>
      </trkpt>
      <trkpt lat="47.49649" lon="6.73468">
        <ele>339</ele>
        <time>2014-10-26T08:19:04.000Z</time>
      </trkpt>
      <trkpt lat="47.49653" lon="6.73464">
        <ele>338.9</ele>
        <time>2014-10-26T08:19:05.000Z</time>
      </trkpt>
      <trkpt lat="47.49656" lon="6.73459">
        <ele>339</ele>
        <time>2014-10-26T08:19:06.000Z</time>
      </trkpt>
      <trkpt lat="47.49659" lon="6.73454">
        <ele>338.8</ele>
        <time>2014-10-26T08:19:07.000Z</time>
      </trkpt>
      <trkpt lat="47.49663" lon="6.7345">
        <ele>339</ele>
        <time>2014-10-26T08:19:08.000Z</time>
      </trkpt>
      <trkpt lat="47.49666" lon="6.73445">
        <ele>338.8</ele>
        <time>2014-10-26T08:19:09.000Z</time>
      </trkpt>
      <trkpt lat="47.4967" lon="6.73441">
        <ele>339.3</ele>
        <time>2014-10-26T08:19:10.000Z</time>
      </trkpt>
      <trkpt lat="47.49674" lon="6.73436">
        <ele>339.4</ele>
        <time>2014-10-26T08:19:11.000Z</time>
      </trkpt>
      <trkpt lat="47.49677" lon="6.73432">
        <ele>339.6</ele>
        <time>2014-10-26T08:19:12.000Z</time>
      </trkpt>
      <trkpt lat="47.4968" lon="6.73427">
        <ele>339.7</ele>
        <time>2014-10-26T08:19:13.000Z</time>
      </trkpt>
      <trkpt lat="47.49683" lon="6.73423">
        <ele>339.7</ele>
        <time>2014-10-26T08:19:14.000Z</time>
      </trkpt>
      <trkpt lat="47.49686" lon="6.73419">
        <ele>339.8</ele>
        <time>2014-10-26T08:19:15.000Z</time>
      </trkpt>
      <trkpt lat="47.49689" lon="6.73414">
        <ele>339.8</ele>
        <time>2014-10-26T08:19:16.000Z</time>
      </trkpt>
      <trkpt lat="47.49692" lon="6.7341">
        <ele>339.8</ele>
        <time>2014-10-26T08:19:17.000Z</time>
      </trkpt>
      <trkpt lat="47.49695" lon="6.73406">
        <ele>339.6</ele>
        <time>2014-10-26T08:19:18.000Z</time>
      </trkpt>
      <trkpt lat="47.49697" lon="6.73402">
        <ele>339.3</ele>
        <time>2014-10-26T08:19:19.000Z</time>
      </trkpt>
      <trkpt lat="47.497" lon="6.73398">
        <ele>339.4</ele>
        <time>2014-10-26T08:19:20.000Z</time>
      </trkpt>
      <trkpt lat="47.49703" lon="6.73394">
        <ele>339.7</ele>
        <time>2014-10-26T08:19:21.000Z</time>
      </trkpt>
      <trkpt lat="47.49706" lon="6.7339">
        <ele>340.1</ele>
        <time>2014-10-26T08:19:22.000Z</time>
      </trkpt>
      <trkpt lat="47.49709" lon="6.73386">
        <ele>339.7</ele>
        <time>2014-10-26T08:19:23.000Z</time>
      </trkpt>
      <trkpt lat="47.49712" lon="6.73382">
        <ele>340.4</ele>
        <time>2014-10-26T08:19:24.000Z</time>
      </trkpt>
      <trkpt lat="47.49715" lon="6.73378">
        <ele>340.7</ele>
        <time>2014-10-26T08:19:25.000Z</time>
      </trkpt>
      <trkpt lat="47.49718" lon="6.73374">
        <ele>341.6</ele>
        <time>2014-10-26T08:19:26.000Z</time>
      </trkpt>
      <trkpt lat="47.49721" lon="6.7337">
        <ele>341.4</ele>
        <time>2014-10-26T08:19:27.000Z</time>
      </trkpt>
      <trkpt lat="47.49723" lon="6.73366">
        <ele>340.9</ele>
        <time>2014-10-26T08:19:28.000Z</time>
      </trkpt>
      <trkpt lat="47.49726" lon="6.73362">
        <ele>340.7</ele>
        <time>2014-10-26T08:19:29.000Z</time>
      </trkpt>
      <trkpt lat="47.49729" lon="6.73358">
        <ele>340.5</ele>
        <time>2014-10-26T08:19:30.000Z</time>
      </trkpt>
      <trkpt lat="47.49732" lon="6.73353">
        <ele>340.2</ele>
        <time>2014-10-26T08:19:31.000Z</time>
      </trkpt>
      <trkpt lat="47.49735" lon="6.73349">
        <ele>340.2</ele>
        <time>2014-10-26T08:19:32.000Z</time>
      </trkpt>
      <trkpt lat="47.49738" lon="6.73343">
        <ele>338.9</ele>
        <time>2014-10-26T08:19:33.000Z</time>
      </trkpt>
      <trkpt lat="47.49761" lon="6.73309">
        <ele>340.3</ele>
        <time>2014-10-26T08:19:41.000Z</time>
      </trkpt>
      <trkpt lat="47.49764" lon="6.73305">
        <ele>340.2</ele>
        <time>2014-10-26T08:19:42.000Z</time>
      </trkpt>
      <trkpt lat="47.49767" lon="6.733">
        <ele>340.2</ele>
        <time>2014-10-26T08:19:43.000Z</time>
      </trkpt>
      <trkpt lat="47.49769" lon="6.73295">
        <ele>340.1</ele>
        <time>2014-10-26T08:19:44.000Z</time>
      </trkpt>
      <trkpt lat="47.49772" lon="6.73291">
        <ele>340.4</ele>
        <time>2014-10-26T08:19:45.000Z</time>
      </trkpt>
      <trkpt lat="47.49773" lon="6.73285">
        <ele>341.1</ele>
        <time>2014-10-26T08:19:46.000Z</time>
      </trkpt>
      <trkpt lat="47.49776" lon="6.7328">
        <ele>340.6</ele>
        <time>2014-10-26T08:19:47.000Z</time>
      </trkpt>
      <trkpt lat="47.49778" lon="6.73275">
        <ele>340.6</ele>
        <time>2014-10-26T08:19:48.000Z</time>
      </trkpt>
      <trkpt lat="47.49781" lon="6.7327">
        <ele>340.7</ele>
        <time>2014-10-26T08:19:49.000Z</time>
      </trkpt>
      <trkpt lat="47.49783" lon="6.73265">
        <ele>340.6</ele>
        <time>2014-10-26T08:19:50.000Z</time>
      </trkpt>
      <trkpt lat="47.49785" lon="6.7326">
        <ele>341.3</ele>
        <time>2014-10-26T08:19:51.000Z</time>
      </trkpt>
      <trkpt lat="47.49788" lon="6.73255">
        <ele>341.4</ele>
        <time>2014-10-26T08:19:52.000Z</time>
      </trkpt>
      <trkpt lat="47.4979" lon="6.7325">
        <ele>341.4</ele>
        <time>2014-10-26T08:19:53.000Z</time>
      </trkpt>
      <trkpt lat="47.49792" lon="6.73245">
        <ele>341.4</ele>
        <time>2014-10-26T08:19:54.000Z</time>
      </trkpt>
      <trkpt lat="47.49794" lon="6.7324">
        <ele>341.3</ele>
        <time>2014-10-26T08:19:55.000Z</time>
      </trkpt>
      <trkpt lat="47.49796" lon="6.73234">
        <ele>341.2</ele>
        <time>2014-10-26T08:19:56.000Z</time>
      </trkpt>
      <trkpt lat="47.49798" lon="6.73229">
        <ele>341.9</ele>
        <time>2014-10-26T08:19:57.000Z</time>
      </trkpt>
      <trkpt lat="47.498" lon="6.73223">
        <ele>342.3</ele>
        <time>2014-10-26T08:19:58.000Z</time>
      </trkpt>
      <trkpt lat="47.49801" lon="6.73218">
        <ele>342.4</ele>
        <time>2014-10-26T08:19:59.000Z</time>
      </trkpt>
      <trkpt lat="47.49803" lon="6.73213">
        <ele>342.4</ele>
        <time>2014-10-26T08:20:00.000Z</time>
      </trkpt>
      <trkpt lat="47.49805" lon="6.73207">
        <ele>342.5</ele>
        <time>2014-10-26T08:20:01.000Z</time>
      </trkpt>
      <trkpt lat="47.49806" lon="6.73202">
        <ele>342.5</ele>
        <time>2014-10-26T08:20:02.000Z</time>
      </trkpt>
      <trkpt lat="47.49808" lon="6.73197">
        <ele>342.7</ele>
        <time>2014-10-26T08:20:03.000Z</time>
      </trkpt>
      <trkpt lat="47.49809" lon="6.73192">
        <ele>342.5</ele>
        <time>2014-10-26T08:20:04.000Z</time>
      </trkpt>
      <trkpt lat="47.49811" lon="6.73186">
        <ele>342.7</ele>
        <time>2014-10-26T08:20:05.000Z</time>
      </trkpt>
      <trkpt lat="47.49812" lon="6.73181">
        <ele>342.7</ele>
        <time>2014-10-26T08:20:06.000Z</time>
      </trkpt>
      <trkpt lat="47.49813" lon="6.73176">
        <ele>342.8</ele>
        <time>2014-10-26T08:20:07.000Z</time>
      </trkpt>
      <trkpt lat="47.49814" lon="6.73171">
        <ele>343</ele>
        <time>2014-10-26T08:20:08.000Z</time>
      </trkpt>
      <trkpt lat="47.49815" lon="6.73167">
        <ele>342.5</ele>
        <time>2014-10-26T08:20:09.000Z</time>
      </trkpt>
      <trkpt lat="47.49817" lon="6.73163">
        <ele>343.6</ele>
        <time>2014-10-26T08:20:10.000Z</time>
      </trkpt>
      <trkpt lat="47.49818" lon="6.73159">
        <ele>343.7</ele>
        <time>2014-10-26T08:20:11.000Z</time>
      </trkpt>
      <trkpt lat="47.4982" lon="6.73154">
        <ele>343.5</ele>
        <time>2014-10-26T08:20:12.000Z</time>
      </trkpt>
      <trkpt lat="47.49821" lon="6.7315">
        <ele>343</ele>
        <time>2014-10-26T08:20:13.000Z</time>
      </trkpt>
      <trkpt lat="47.49823" lon="6.73145">
        <ele>344</ele>
        <time>2014-10-26T08:20:14.000Z</time>
      </trkpt>
      <trkpt lat="47.49824" lon="6.73141">
        <ele>344.3</ele>
        <time>2014-10-26T08:20:15.000Z</time>
      </trkpt>
      <trkpt lat="47.49825" lon="6.73137">
        <ele>345.1</ele>
        <time>2014-10-26T08:20:16.000Z</time>
      </trkpt>
      <trkpt lat="47.49826" lon="6.73132">
        <ele>345.5</ele>
        <time>2014-10-26T08:20:17.000Z</time>
      </trkpt>
      <trkpt lat="47.49827" lon="6.73128">
        <ele>345.4</ele>
        <time>2014-10-26T08:20:18.000Z</time>
      </trkpt>
      <trkpt lat="47.49828" lon="6.73123">
        <ele>345</ele>
        <time>2014-10-26T08:20:19.000Z</time>
      </trkpt>
      <trkpt lat="47.49829" lon="6.73118">
        <ele>344.7</ele>
        <time>2014-10-26T08:20:20.000Z</time>
      </trkpt>
      <trkpt lat="47.4983" lon="6.73114">
        <ele>344.6</ele>
        <time>2014-10-26T08:20:21.000Z</time>
      </trkpt>
      <trkpt lat="47.49831" lon="6.73109">
        <ele>344.3</ele>
        <time>2014-10-26T08:20:22.000Z</time>
      </trkpt>
      <trkpt lat="47.49833" lon="6.73105">
        <ele>344.2</ele>
        <time>2014-10-26T08:20:23.000Z</time>
      </trkpt>
      <trkpt lat="47.49834" lon="6.73101">
        <ele>345</ele>
        <time>2014-10-26T08:20:24.000Z</time>
      </trkpt>
      <trkpt lat="47.49835" lon="6.73097">
        <ele>345.3</ele>
        <time>2014-10-26T08:20:25.000Z</time>
      </trkpt>
      <trkpt lat="47.49836" lon="6.73093">
        <ele>345.8</ele>
        <time>2014-10-26T08:20:26.000Z</time>
      </trkpt>
      <trkpt lat="47.49837" lon="6.73089">
        <ele>346.1</ele>
        <time>2014-10-26T08:20:27.000Z</time>
      </trkpt>
      <trkpt lat="47.49838" lon="6.73085">
        <ele>345.6</ele>
        <time>2014-10-26T08:20:28.000Z</time>
      </trkpt>
      <trkpt lat="47.4984" lon="6.73081">
        <ele>345.7</ele>
        <time>2014-10-26T08:20:29.000Z</time>
      </trkpt>
      <trkpt lat="47.49841" lon="6.73078">
        <ele>345.7</ele>
        <time>2014-10-26T08:20:30.000Z</time>
      </trkpt>
      <trkpt lat="47.49843" lon="6.73074">
        <ele>345.5</ele>
        <time>2014-10-26T08:20:31.000Z</time>
      </trkpt>
      <trkpt lat="47.49845" lon="6.73071">
        <ele>343.7</ele>
        <time>2014-10-26T08:20:32.000Z</time>
      </trkpt>
      <trkpt lat="47.49851" lon="6.73062">
        <ele>343.9</ele>
        <time>2014-10-26T08:20:35.000Z</time>
      </trkpt>
      <trkpt lat="47.49853" lon="6.73059">
        <ele>344.1</ele>
        <time>2014-10-26T08:20:36.000Z</time>
      </trkpt>
      <trkpt lat="47.49854" lon="6.73055">
        <ele>344</ele>
        <time>2014-10-26T08:20:37.000Z</time>
      </trkpt>
      <trkpt lat="47.49856" lon="6.73051">
        <ele>344.3</ele>
        <time>2014-10-26T08:20:38.000Z</time>
      </trkpt>
      <trkpt lat="47.49857" lon="6.73046">
        <ele>345.4</ele>
        <time>2014-10-26T08:20:39.000Z</time>
      </trkpt>
      <trkpt lat="47.49858" lon="6.73042">
        <ele>345</ele>
        <time>2014-10-26T08:20:40.000Z</time>
      </trkpt>
      <trkpt lat="47.49859" lon="6.73038">
        <ele>345.1</ele>
        <time>2014-10-26T08:20:41.000Z</time>
      </trkpt>
      <trkpt lat="47.4986" lon="6.73034">
        <ele>345.3</ele>
        <time>2014-10-26T08:20:42.000Z</time>
      </trkpt>
      <trkpt lat="47.49862" lon="6.7303">
        <ele>346.3</ele>
        <time>2014-10-26T08:20:43.000Z</time>
      </trkpt>
      <trkpt lat="47.49863" lon="6.73027">
        <ele>346.1</ele>
        <time>2014-10-26T08:20:44.000Z</time>
      </trkpt>
      <trkpt lat="47.49865" lon="6.73023">
        <ele>346</ele>
        <time>2014-10-26T08:20:45.000Z</time>
      </trkpt>
      <trkpt lat="47.49866" lon="6.73018">
        <ele>347.8</ele>
        <time>2014-10-26T08:20:47.000Z</time>
      </trkpt>
      <trkpt lat="47.49866" lon="6.73015">
        <ele>348.5</ele>
        <time>2014-10-26T08:20:48.000Z</time>
      </trkpt>
      <trkpt lat="47.49867" lon="6.73012">
        <ele>349.7</ele>
        <time>2014-10-26T08:20:49.000Z</time>
      </trkpt>
      <trkpt lat="47.49868" lon="6.73008">
        <ele>350.6</ele>
        <time>2014-10-26T08:20:50.000Z</time>
      </trkpt>
      <trkpt lat="47.4987" lon="6.73005">
        <ele>351.1</ele>
        <time>2014-10-26T08:20:51.000Z</time>
      </trkpt>
      <trkpt lat="47.49871" lon="6.73001">
        <ele>352.1</ele>
        <time>2014-10-26T08:20:52.000Z</time>
      </trkpt>
      <trkpt lat="47.49873" lon="6.72997">
        <ele>353</ele>
        <time>2014-10-26T08:20:53.000Z</time>
      </trkpt>
      <trkpt lat="47.49874" lon="6.72993">
        <ele>353.6</ele>
        <time>2014-10-26T08:20:54.000Z</time>
      </trkpt>
      <trkpt lat="47.49875" lon="6.72989">
        <ele>354.4</ele>
        <time>2014-10-26T08:20:55.000Z</time>
      </trkpt>
      <trkpt lat="47.49877" lon="6.72984">
        <ele>353.2</ele>
        <time>2014-10-26T08:20:56.000Z</time>
      </trkpt>
      <trkpt lat="47.49879" lon="6.72979">
        <ele>351.1</ele>
        <time>2014-10-26T08:20:57.000Z</time>
      </trkpt>
      <trkpt lat="47.49881" lon="6.72973">
        <ele>350.6</ele>
        <time>2014-10-26T08:20:58.000Z</time>
      </trkpt>
      <trkpt lat="47.49884" lon="6.72967">
        <ele>351</ele>
        <time>2014-10-26T08:20:59.000Z</time>
      </trkpt>
      <trkpt lat="47.49894" lon="6.72965">
        <ele>352.3</ele>
        <time>2014-10-26T08:21:00.000Z</time>
      </trkpt>
      <trkpt lat="47.49899" lon="6.72966">
        <ele>352.3</ele>
        <time>2014-10-26T08:21:01.000Z</time>
      </trkpt>
      <trkpt lat="47.49904" lon="6.72967">
        <ele>352.1</ele>
        <time>2014-10-26T08:21:02.000Z</time>
      </trkpt>
      <trkpt lat="47.49909" lon="6.72968">
        <ele>352</ele>
        <time>2014-10-26T08:21:03.000Z</time>
      </trkpt>
      <trkpt lat="47.49914" lon="6.72969">
        <ele>352</ele>
        <time>2014-10-26T08:21:04.000Z</time>
      </trkpt>
      <trkpt lat="47.4992" lon="6.72969">
        <ele>350.9</ele>
        <time>2014-10-26T08:21:05.000Z</time>
      </trkpt>
      <trkpt lat="47.49925" lon="6.72968">
        <ele>350.3</ele>
        <time>2014-10-26T08:21:06.000Z</time>
      </trkpt>
      <trkpt lat="47.49931" lon="6.72972">
        <ele>350.4</ele>
        <time>2014-10-26T08:21:07.000Z</time>
      </trkpt>
      <trkpt lat="47.49937" lon="6.72975">
        <ele>350.5</ele>
        <time>2014-10-26T08:21:08.000Z</time>
      </trkpt>
      <trkpt lat="47.49944" lon="6.72975">
        <ele>349.5</ele>
        <time>2014-10-26T08:21:09.000Z</time>
      </trkpt>
      <trkpt lat="47.49951" lon="6.72974">
        <ele>348.5</ele>
        <time>2014-10-26T08:21:10.000Z</time>
      </trkpt>
      <trkpt lat="47.49957" lon="6.72975">
        <ele>348.2</ele>
        <time>2014-10-26T08:21:11.000Z</time>
      </trkpt>
      <trkpt lat="47.49963" lon="6.72977">
        <ele>348.4</ele>
        <time>2014-10-26T08:21:12.000Z</time>
      </trkpt>
      <trkpt lat="47.49968" lon="6.72977">
        <ele>348.5</ele>
        <time>2014-10-26T08:21:13.000Z</time>
      </trkpt>
      <trkpt lat="47.49973" lon="6.72984">
        <ele>348.9</ele>
        <time>2014-10-26T08:21:14.000Z</time>
      </trkpt>
      <trkpt lat="47.49977" lon="6.72988">
        <ele>347.8</ele>
        <time>2014-10-26T08:21:15.000Z</time>
      </trkpt>
      <trkpt lat="47.4998" lon="6.72993">
        <ele>347.1</ele>
        <time>2014-10-26T08:21:16.000Z</time>
      </trkpt>
      <trkpt lat="47.49983" lon="6.72999">
        <ele>346.6</ele>
        <time>2014-10-26T08:21:17.000Z</time>
      </trkpt>
      <trkpt lat="47.49985" lon="6.73004">
        <ele>346.3</ele>
        <time>2014-10-26T08:21:18.000Z</time>
      </trkpt>
      <trkpt lat="47.49988" lon="6.73009">
        <ele>345.9</ele>
        <time>2014-10-26T08:21:19.000Z</time>
      </trkpt>
      <trkpt lat="47.49991" lon="6.73014">
        <ele>345</ele>
        <time>2014-10-26T08:21:20.000Z</time>
      </trkpt>
      <trkpt lat="47.49995" lon="6.73019">
        <ele>344.5</ele>
        <time>2014-10-26T08:21:21.000Z</time>
      </trkpt>
      <trkpt lat="47.49998" lon="6.73024">
        <ele>343.7</ele>
        <time>2014-10-26T08:21:22.000Z</time>
      </trkpt>
      <trkpt lat="47.50001" lon="6.73028">
        <ele>343.6</ele>
        <time>2014-10-26T08:21:23.000Z</time>
      </trkpt>
      <trkpt lat="47.50004" lon="6.73032">
        <ele>343.5</ele>
        <time>2014-10-26T08:21:24.000Z</time>
      </trkpt>
      <trkpt lat="47.50008" lon="6.73036">
        <ele>342.7</ele>
        <time>2014-10-26T08:21:25.000Z</time>
      </trkpt>
      <trkpt lat="47.50012" lon="6.7304">
        <ele>342.2</ele>
        <time>2014-10-26T08:21:26.000Z</time>
      </trkpt>
      <trkpt lat="47.50016" lon="6.73044">
        <ele>341.7</ele>
        <time>2014-10-26T08:21:27.000Z</time>
      </trkpt>
      <trkpt lat="47.5002" lon="6.73048">
        <ele>341.2</ele>
        <time>2014-10-26T08:21:28.000Z</time>
      </trkpt>
      <trkpt lat="47.50023" lon="6.73052">
        <ele>341.4</ele>
        <time>2014-10-26T08:21:29.000Z</time>
      </trkpt>
      <trkpt lat="47.50027" lon="6.73056">
        <ele>341.9</ele>
        <time>2014-10-26T08:21:30.000Z</time>
      </trkpt>
      <trkpt lat="47.50031" lon="6.7306">
        <ele>341.8</ele>
        <time>2014-10-26T08:21:31.000Z</time>
      </trkpt>
      <trkpt lat="47.50034" lon="6.73064">
        <ele>341.8</ele>
        <time>2014-10-26T08:21:32.000Z</time>
      </trkpt>
      <trkpt lat="47.50043" lon="6.73073">
        <ele>344.5</ele>
        <time>2014-10-26T08:21:35.000Z</time>
      </trkpt>
      <trkpt lat="47.50047" lon="6.73076">
        <ele>345.1</ele>
        <time>2014-10-26T08:21:36.000Z</time>
      </trkpt>
      <trkpt lat="47.50051" lon="6.7308">
        <ele>343.4</ele>
        <time>2014-10-26T08:21:37.000Z</time>
      </trkpt>
      <trkpt lat="47.50055" lon="6.73084">
        <ele>343.2</ele>
        <time>2014-10-26T08:21:38.000Z</time>
      </trkpt>
      <trkpt lat="47.50059" lon="6.73087">
        <ele>343.4</ele>
        <time>2014-10-26T08:21:39.000Z</time>
      </trkpt>
      <trkpt lat="47.50062" lon="6.7309">
        <ele>342.7</ele>
        <time>2014-10-26T08:21:40.000Z</time>
      </trkpt>
      <trkpt lat="47.50066" lon="6.73095">
        <ele>342.8</ele>
        <time>2014-10-26T08:21:41.000Z</time>
      </trkpt>
      <trkpt lat="47.5007" lon="6.73099">
        <ele>342.4</ele>
        <time>2014-10-26T08:21:42.000Z</time>
      </trkpt>
      <trkpt lat="47.50074" lon="6.73104">
        <ele>341.8</ele>
        <time>2014-10-26T08:21:43.000Z</time>
      </trkpt>
      <trkpt lat="47.50078" lon="6.73107">
        <ele>341.9</ele>
        <time>2014-10-26T08:21:44.000Z</time>
      </trkpt>
      <trkpt lat="47.50082" lon="6.7311">
        <ele>342.4</ele>
        <time>2014-10-26T08:21:45.000Z</time>
      </trkpt>
      <trkpt lat="47.50087" lon="6.73114">
        <ele>342.4</ele>
        <time>2014-10-26T08:21:46.000Z</time>
      </trkpt>
      <trkpt lat="47.50091" lon="6.73116">
        <ele>342.3</ele>
        <time>2014-10-26T08:21:47.000Z</time>
      </trkpt>
      <trkpt lat="47.50096" lon="6.73118">
        <ele>341.6</ele>
        <time>2014-10-26T08:21:48.000Z</time>
      </trkpt>
      <trkpt lat="47.501" lon="6.73119">
        <ele>341.5</ele>
        <time>2014-10-26T08:21:49.000Z</time>
      </trkpt>
      <trkpt lat="47.50106" lon="6.73121">
        <ele>341</ele>
        <time>2014-10-26T08:21:50.000Z</time>
      </trkpt>
      <trkpt lat="47.5011" lon="6.73122">
        <ele>340.8</ele>
        <time>2014-10-26T08:21:51.000Z</time>
      </trkpt>
      <trkpt lat="47.50114" lon="6.73123">
        <ele>340.6</ele>
        <time>2014-10-26T08:21:52.000Z</time>
      </trkpt>
      <trkpt lat="47.50118" lon="6.73124">
        <ele>340.5</ele>
        <time>2014-10-26T08:21:53.000Z</time>
      </trkpt>
      <trkpt lat="47.50122" lon="6.73124">
        <ele>340.3</ele>
        <time>2014-10-26T08:21:54.000Z</time>
      </trkpt>
      <trkpt lat="47.50126" lon="6.73125">
        <ele>340.2</ele>
        <time>2014-10-26T08:21:55.000Z</time>
      </trkpt>
      <trkpt lat="47.50129" lon="6.73125">
        <ele>340.8</ele>
        <time>2014-10-26T08:21:56.000Z</time>
      </trkpt>
      <trkpt lat="47.50133" lon="6.73125">
        <ele>341.6</ele>
        <time>2014-10-26T08:21:57.000Z</time>
      </trkpt>
      <trkpt lat="47.50137" lon="6.73125">
        <ele>342</ele>
        <time>2014-10-26T08:21:58.000Z</time>
      </trkpt>
      <trkpt lat="47.5014" lon="6.73125">
        <ele>342.1</ele>
        <time>2014-10-26T08:21:59.000Z</time>
      </trkpt>
      <trkpt lat="47.50144" lon="6.73124">
        <ele>341.7</ele>
        <time>2014-10-26T08:22:00.000Z</time>
      </trkpt>
      <trkpt lat="47.50148" lon="6.73124">
        <ele>341.9</ele>
        <time>2014-10-26T08:22:01.000Z</time>
      </trkpt>
      <trkpt lat="47.50152" lon="6.73125">
        <ele>342.6</ele>
        <time>2014-10-26T08:22:02.000Z</time>
      </trkpt>
      <trkpt lat="47.50156" lon="6.73126">
        <ele>343.2</ele>
        <time>2014-10-26T08:22:03.000Z</time>
      </trkpt>
      <trkpt lat="47.5016" lon="6.73128">
        <ele>344.4</ele>
        <time>2014-10-26T08:22:04.000Z</time>
      </trkpt>
      <trkpt lat="47.50163" lon="6.7313">
        <ele>344.7</ele>
        <time>2014-10-26T08:22:05.000Z</time>
      </trkpt>
      <trkpt lat="47.50167" lon="6.73132">
        <ele>344.7</ele>
        <time>2014-10-26T08:22:06.000Z</time>
      </trkpt>
      <trkpt lat="47.5017" lon="6.73134">
        <ele>344.7</ele>
        <time>2014-10-26T08:22:07.000Z</time>
      </trkpt>
      <trkpt lat="47.50173" lon="6.73135">
        <ele>344.9</ele>
        <time>2014-10-26T08:22:08.000Z</time>
      </trkpt>
      <trkpt lat="47.50176" lon="6.73137">
        <ele>345</ele>
        <time>2014-10-26T08:22:09.000Z</time>
      </trkpt>
      <trkpt lat="47.50178" lon="6.73137">
        <ele>345.9</ele>
        <time>2014-10-26T08:22:10.000Z</time>
      </trkpt>
      <trkpt lat="47.50181" lon="6.73137">
        <ele>346</ele>
        <time>2014-10-26T08:22:11.000Z</time>
      </trkpt>
      <trkpt lat="47.50184" lon="6.73136">
        <ele>344.2</ele>
        <time>2014-10-26T08:22:12.000Z</time>
      </trkpt>
      <trkpt lat="47.50187" lon="6.73134">
        <ele>344.3</ele>
        <time>2014-10-26T08:22:13.000Z</time>
      </trkpt>
      <trkpt lat="47.50191" lon="6.73131">
        <ele>344.9</ele>
        <time>2014-10-26T08:22:14.000Z</time>
      </trkpt>
      <trkpt lat="47.50194" lon="6.73126">
        <ele>345.5</ele>
        <time>2014-10-26T08:22:15.000Z</time>
      </trkpt>
      <trkpt lat="47.50197" lon="6.73121">
        <ele>345.2</ele>
        <time>2014-10-26T08:22:16.000Z</time>
      </trkpt>
      <trkpt lat="47.50199" lon="6.73114">
        <ele>345.5</ele>
        <time>2014-10-26T08:22:17.000Z</time>
      </trkpt>
      <trkpt lat="47.50199" lon="6.73102">
        <ele>346</ele>
        <time>2014-10-26T08:22:18.000Z</time>
      </trkpt>
      <trkpt lat="47.502" lon="6.73096">
        <ele>346.1</ele>
        <time>2014-10-26T08:22:19.000Z</time>
      </trkpt>
      <trkpt lat="47.50201" lon="6.7309">
        <ele>346.7</ele>
        <time>2014-10-26T08:22:20.000Z</time>
      </trkpt>
      <trkpt lat="47.50203" lon="6.73084">
        <ele>347.4</ele>
        <time>2014-10-26T08:22:21.000Z</time>
      </trkpt>
      <trkpt lat="47.50205" lon="6.73079">
        <ele>347</ele>
        <time>2014-10-26T08:22:22.000Z</time>
      </trkpt>
      <trkpt lat="47.50207" lon="6.73073">
        <ele>348.1</ele>
        <time>2014-10-26T08:22:23.000Z</time>
      </trkpt>
      <trkpt lat="47.50209" lon="6.73068">
        <ele>349.1</ele>
        <time>2014-10-26T08:22:24.000Z</time>
      </trkpt>
      <trkpt lat="47.50212" lon="6.73061">
        <ele>349.2</ele>
        <time>2014-10-26T08:22:25.000Z</time>
      </trkpt>
      <trkpt lat="47.50214" lon="6.73055">
        <ele>349.4</ele>
        <time>2014-10-26T08:22:26.000Z</time>
      </trkpt>
      <trkpt lat="47.50217" lon="6.73048">
        <ele>349.3</ele>
        <time>2014-10-26T08:22:27.000Z</time>
      </trkpt>
      <trkpt lat="47.50219" lon="6.73042">
        <ele>349.4</ele>
        <time>2014-10-26T08:22:28.000Z</time>
      </trkpt>
      <trkpt lat="47.50221" lon="6.73035">
        <ele>349.6</ele>
        <time>2014-10-26T08:22:29.000Z</time>
      </trkpt>
      <trkpt lat="47.50224" lon="6.73028">
        <ele>349.4</ele>
        <time>2014-10-26T08:22:30.000Z</time>
      </trkpt>
      <trkpt lat="47.50226" lon="6.73022">
        <ele>349.2</ele>
        <time>2014-10-26T08:22:30.998Z</time>
      </trkpt>
      <trkpt lat="47.50229" lon="6.73013">
        <ele>348.8</ele>
        <time>2014-10-26T08:22:32.000Z</time>
      </trkpt>
      <trkpt lat="47.50232" lon="6.73008">
        <ele>349.4</ele>
        <time>2014-10-26T08:22:33.000Z</time>
      </trkpt>
      <trkpt lat="47.50248" lon="6.72966">
        <ele>351.4</ele>
        <time>2014-10-26T08:22:41.000Z</time>
      </trkpt>
      <trkpt lat="47.50252" lon="6.7296">
        <ele>353.1</ele>
        <time>2014-10-26T08:22:42.000Z</time>
      </trkpt>
      <trkpt lat="47.50254" lon="6.72955">
        <ele>353.9</ele>
        <time>2014-10-26T08:22:43.000Z</time>
      </trkpt>
      <trkpt lat="47.50257" lon="6.7295">
        <ele>354.9</ele>
        <time>2014-10-26T08:22:44.000Z</time>
      </trkpt>
      <trkpt lat="47.50258" lon="6.72944">
        <ele>355.6</ele>
        <time>2014-10-26T08:22:45.000Z</time>
      </trkpt>
      <trkpt lat="47.5026" lon="6.72939">
        <ele>356</ele>
        <time>2014-10-26T08:22:46.000Z</time>
      </trkpt>
      <trkpt lat="47.50262" lon="6.72934">
        <ele>356.9</ele>
        <time>2014-10-26T08:22:47.000Z</time>
      </trkpt>
      <trkpt lat="47.50264" lon="6.72929">
        <ele>357.2</ele>
        <time>2014-10-26T08:22:48.000Z</time>
      </trkpt>
      <trkpt lat="47.50266" lon="6.72928">
        <ele>358.7</ele>
        <time>2014-10-26T08:22:49.000Z</time>
      </trkpt>
      <trkpt lat="47.50269" lon="6.72925">
        <ele>358.7</ele>
        <time>2014-10-26T08:22:50.000Z</time>
      </trkpt>
      <trkpt lat="47.50271" lon="6.72922">
        <ele>357.9</ele>
        <time>2014-10-26T08:22:51.000Z</time>
      </trkpt>
      <trkpt lat="47.50273" lon="6.72919">
        <ele>358.7</ele>
        <time>2014-10-26T08:22:52.000Z</time>
      </trkpt>
      <trkpt lat="47.50276" lon="6.72917">
        <ele>358.3</ele>
        <time>2014-10-26T08:22:53.000Z</time>
      </trkpt>
      <trkpt lat="47.5028" lon="6.72915">
        <ele>358.8</ele>
        <time>2014-10-26T08:22:54.000Z</time>
      </trkpt>
      <trkpt lat="47.50285" lon="6.72914">
        <ele>359.3</ele>
        <time>2014-10-26T08:22:55.000Z</time>
      </trkpt>
      <trkpt lat="47.50289" lon="6.72914">
        <ele>358.8</ele>
        <time>2014-10-26T08:22:56.000Z</time>
      </trkpt>
      <trkpt lat="47.50293" lon="6.72915">
        <ele>358.6</ele>
        <time>2014-10-26T08:22:57.000Z</time>
      </trkpt>
      <trkpt lat="47.50297" lon="6.72917">
        <ele>358.2</ele>
        <time>2014-10-26T08:22:58.000Z</time>
      </trkpt>
      <trkpt lat="47.50301" lon="6.72918">
        <ele>358.4</ele>
        <time>2014-10-26T08:22:59.000Z</time>
      </trkpt>
      <trkpt lat="47.50304" lon="6.72919">
        <ele>357.5</ele>
        <time>2014-10-26T08:23:00.000Z</time>
      </trkpt>
      <trkpt lat="47.50307" lon="6.7292">
        <ele>356.5</ele>
        <time>2014-10-26T08:23:01.000Z</time>
      </trkpt>
      <trkpt lat="47.5031" lon="6.7292">
        <ele>357.7</ele>
        <time>2014-10-26T08:23:02.000Z</time>
      </trkpt>
      <trkpt lat="47.50313" lon="6.72921">
        <ele>358.4</ele>
        <time>2014-10-26T08:23:03.000Z</time>
      </trkpt>
      <trkpt lat="47.50316" lon="6.72922">
        <ele>358.2</ele>
        <time>2014-10-26T08:23:04.000Z</time>
      </trkpt>
      <trkpt lat="47.5032" lon="6.72922">
        <ele>359.1</ele>
        <time>2014-10-26T08:23:05.000Z</time>
      </trkpt>
      <trkpt lat="47.50323" lon="6.72923">
        <ele>359.5</ele>
        <time>2014-10-26T08:23:06.000Z</time>
      </trkpt>
      <trkpt lat="47.50327" lon="6.72924">
        <ele>359.7</ele>
        <time>2014-10-26T08:23:07.000Z</time>
      </trkpt>
      <trkpt lat="47.5033" lon="6.72924">
        <ele>360.1</ele>
        <time>2014-10-26T08:23:08.000Z</time>
      </trkpt>
      <trkpt lat="47.50333" lon="6.72925">
        <ele>359.7</ele>
        <time>2014-10-26T08:23:09.000Z</time>
      </trkpt>
      <trkpt lat="47.50337" lon="6.72925">
        <ele>359.9</ele>
        <time>2014-10-26T08:23:10.000Z</time>
      </trkpt>
      <trkpt lat="47.5034" lon="6.72925">
        <ele>360.8</ele>
        <time>2014-10-26T08:23:11.000Z</time>
      </trkpt>
      <trkpt lat="47.50342" lon="6.72926">
        <ele>360.9</ele>
        <time>2014-10-26T08:23:12.000Z</time>
      </trkpt>
      <trkpt lat="47.50345" lon="6.72926">
        <ele>360.9</ele>
        <time>2014-10-26T08:23:13.000Z</time>
      </trkpt>
      <trkpt lat="47.50348" lon="6.72927">
        <ele>361.4</ele>
        <time>2014-10-26T08:23:14.000Z</time>
      </trkpt>
      <trkpt lat="47.5035" lon="6.72927">
        <ele>361.6</ele>
        <time>2014-10-26T08:23:15.000Z</time>
      </trkpt>
      <trkpt lat="47.50353" lon="6.72928">
        <ele>361.4</ele>
        <time>2014-10-26T08:23:16.000Z</time>
      </trkpt>
      <trkpt lat="47.50355" lon="6.72929">
        <ele>361.6</ele>
        <time>2014-10-26T08:23:17.000Z</time>
      </trkpt>
      <trkpt lat="47.50358" lon="6.7293">
        <ele>361.7</ele>
        <time>2014-10-26T08:23:18.000Z</time>
      </trkpt>
      <trkpt lat="47.5036" lon="6.72931">
        <ele>361.3</ele>
        <time>2014-10-26T08:23:19.000Z</time>
      </trkpt>
      <trkpt lat="47.50363" lon="6.72932">
        <ele>361.1</ele>
        <time>2014-10-26T08:23:20.000Z</time>
      </trkpt>
      <trkpt lat="47.50365" lon="6.72933">
        <ele>361.2</ele>
        <time>2014-10-26T08:23:21.000Z</time>
      </trkpt>
      <trkpt lat="47.50368" lon="6.72934">
        <ele>360.8</ele>
        <time>2014-10-26T08:23:22.000Z</time>
      </trkpt>
      <trkpt lat="47.5037" lon="6.72936">
        <ele>360.9</ele>
        <time>2014-10-26T08:23:23.000Z</time>
      </trkpt>
      <trkpt lat="47.50373" lon="6.72937">
        <ele>361</ele>
        <time>2014-10-26T08:23:23.999Z</time>
      </trkpt>
      <trkpt lat="47.50375" lon="6.72939">
        <ele>361</ele>
        <time>2014-10-26T08:23:25.000Z</time>
      </trkpt>
      <trkpt lat="47.50378" lon="6.7294">
        <ele>361.3</ele>
        <time>2014-10-26T08:23:26.000Z</time>
      </trkpt>
      <trkpt lat="47.5038" lon="6.72941">
        <ele>361.6</ele>
        <time>2014-10-26T08:23:27.000Z</time>
      </trkpt>
      <trkpt lat="47.50383" lon="6.72942">
        <ele>361.5</ele>
        <time>2014-10-26T08:23:28.000Z</time>
      </trkpt>
      <trkpt lat="47.50385" lon="6.72942">
        <ele>362</ele>
        <time>2014-10-26T08:23:29.000Z</time>
      </trkpt>
      <trkpt lat="47.50388" lon="6.72943">
        <ele>362.1</ele>
        <time>2014-10-26T08:23:30.000Z</time>
      </trkpt>
      <trkpt lat="47.5039" lon="6.72943">
        <ele>362.1</ele>
        <time>2014-10-26T08:23:31.000Z</time>
      </trkpt>
      <trkpt lat="47.50393" lon="6.72943">
        <ele>362.2</ele>
        <time>2014-10-26T08:23:32.000Z</time>
      </trkpt>
      <trkpt lat="47.50401" lon="6.72943">
        <ele>363.5</ele>
        <time>2014-10-26T08:23:35.000Z</time>
      </trkpt>
      <trkpt lat="47.50403" lon="6.72943">
        <ele>364.2</ele>
        <time>2014-10-26T08:23:36.000Z</time>
      </trkpt>
      <trkpt lat="47.50406" lon="6.72943">
        <ele>364.8</ele>
        <time>2014-10-26T08:23:37.000Z</time>
      </trkpt>
      <trkpt lat="47.50408" lon="6.72943">
        <ele>365.9</ele>
        <time>2014-10-26T08:23:38.000Z</time>
      </trkpt>
      <trkpt lat="47.50411" lon="6.72944">
        <ele>366.6</ele>
        <time>2014-10-26T08:23:39.000Z</time>
      </trkpt>
      <trkpt lat="47.50413" lon="6.72945">
        <ele>367.5</ele>
        <time>2014-10-26T08:23:40.000Z</time>
      </trkpt>
      <trkpt lat="47.50415" lon="6.72946">
        <ele>367.7</ele>
        <time>2014-10-26T08:23:41.000Z</time>
      </trkpt>
      <trkpt lat="47.50418" lon="6.72947">
        <ele>368</ele>
        <time>2014-10-26T08:23:42.000Z</time>
      </trkpt>
      <trkpt lat="47.5042" lon="6.72949">
        <ele>367.8</ele>
        <time>2014-10-26T08:23:43.000Z</time>
      </trkpt>
      <trkpt lat="47.50423" lon="6.7295">
        <ele>367.7</ele>
        <time>2014-10-26T08:23:44.000Z</time>
      </trkpt>
      <trkpt lat="47.50425" lon="6.72951">
        <ele>367.6</ele>
        <time>2014-10-26T08:23:45.000Z</time>
      </trkpt>
      <trkpt lat="47.50427" lon="6.72951">
        <ele>367.6</ele>
        <time>2014-10-26T08:23:46.000Z</time>
      </trkpt>
      <trkpt lat="47.5043" lon="6.72951">
        <ele>368.2</ele>
        <time>2014-10-26T08:23:47.000Z</time>
      </trkpt>
      <trkpt lat="47.50432" lon="6.72952">
        <ele>368.2</ele>
        <time>2014-10-26T08:23:48.000Z</time>
      </trkpt>
      <trkpt lat="47.50434" lon="6.72952">
        <ele>368.2</ele>
        <time>2014-10-26T08:23:49.000Z</time>
      </trkpt>
      <trkpt lat="47.50437" lon="6.72953">
        <ele>367.9</ele>
        <time>2014-10-26T08:23:50.000Z</time>
      </trkpt>
      <trkpt lat="47.50439" lon="6.72954">
        <ele>367.8</ele>
        <time>2014-10-26T08:23:51.000Z</time>
      </trkpt>
      <trkpt lat="47.50441" lon="6.72953">
        <ele>367.7</ele>
        <time>2014-10-26T08:23:52.000Z</time>
      </trkpt>
      <trkpt lat="47.50444" lon="6.72952">
        <ele>368</ele>
        <time>2014-10-26T08:23:53.000Z</time>
      </trkpt>
      <trkpt lat="47.50446" lon="6.72951">
        <ele>367.9</ele>
        <time>2014-10-26T08:23:54.000Z</time>
      </trkpt>
      <trkpt lat="47.50449" lon="6.72949">
        <ele>368.1</ele>
        <time>2014-10-26T08:23:55.000Z</time>
      </trkpt>
      <trkpt lat="47.50451" lon="6.72948">
        <ele>368.4</ele>
        <time>2014-10-26T08:23:56.000Z</time>
      </trkpt>
      <trkpt lat="47.50453" lon="6.72945">
        <ele>369.8</ele>
        <time>2014-10-26T08:23:57.000Z</time>
      </trkpt>
      <trkpt lat="47.50455" lon="6.72942">
        <ele>369.9</ele>
        <time>2014-10-26T08:23:58.000Z</time>
      </trkpt>
      <trkpt lat="47.50458" lon="6.72939">
        <ele>369.8</ele>
        <time>2014-10-26T08:23:59.000Z</time>
      </trkpt>
      <trkpt lat="47.5046" lon="6.72935">
        <ele>369.8</ele>
        <time>2014-10-26T08:24:00.000Z</time>
      </trkpt>
      <trkpt lat="47.50462" lon="6.72932">
        <ele>369.7</ele>
        <time>2014-10-26T08:24:01.000Z</time>
      </trkpt>
      <trkpt lat="47.50464" lon="6.72929">
        <ele>369.9</ele>
        <time>2014-10-26T08:24:02.000Z</time>
      </trkpt>
      <trkpt lat="47.50466" lon="6.72926">
        <ele>370</ele>
        <time>2014-10-26T08:24:03.000Z</time>
      </trkpt>
      <trkpt lat="47.50467" lon="6.72923">
        <ele>370.2</ele>
        <time>2014-10-26T08:24:04.000Z</time>
      </trkpt>
      <trkpt lat="47.50469" lon="6.72921">
        <ele>371.2</ele>
        <time>2014-10-26T08:24:05.000Z</time>
      </trkpt>
      <trkpt lat="47.5047" lon="6.72918">
        <ele>371.5</ele>
        <time>2014-10-26T08:24:06.000Z</time>
      </trkpt>
      <trkpt lat="47.50471" lon="6.72915">
        <ele>371.7</ele>
        <time>2014-10-26T08:24:07.000Z</time>
      </trkpt>
      <trkpt lat="47.50473" lon="6.72912">
        <ele>371.3</ele>
        <time>2014-10-26T08:24:08.000Z</time>
      </trkpt>
      <trkpt lat="47.50475" lon="6.72909">
        <ele>371.3</ele>
        <time>2014-10-26T08:24:09.000Z</time>
      </trkpt>
      <trkpt lat="47.50477" lon="6.72906">
        <ele>371.4</ele>
        <time>2014-10-26T08:24:10.000Z</time>
      </trkpt>
      <trkpt lat="47.50479" lon="6.72904">
        <ele>371.4</ele>
        <time>2014-10-26T08:24:11.000Z</time>
      </trkpt>
      <trkpt lat="47.50481" lon="6.72901">
        <ele>371.9</ele>
        <time>2014-10-26T08:24:12.000Z</time>
      </trkpt>
      <trkpt lat="47.50483" lon="6.72899">
        <ele>371.9</ele>
        <time>2014-10-26T08:24:13.000Z</time>
      </trkpt>
      <trkpt lat="47.50485" lon="6.72897">
        <ele>372</ele>
        <time>2014-10-26T08:24:14.000Z</time>
      </trkpt>
      <trkpt lat="47.50487" lon="6.72895">
        <ele>371.1</ele>
        <time>2014-10-26T08:24:15.000Z</time>
      </trkpt>
      <trkpt lat="47.50489" lon="6.72893">
        <ele>371.5</ele>
        <time>2014-10-26T08:24:16.000Z</time>
      </trkpt>
      <trkpt lat="47.50492" lon="6.72891">
        <ele>372.7</ele>
        <time>2014-10-26T08:24:17.000Z</time>
      </trkpt>
      <trkpt lat="47.50494" lon="6.72888">
        <ele>373</ele>
        <time>2014-10-26T08:24:18.000Z</time>
      </trkpt>
      <trkpt lat="47.50495" lon="6.72886">
        <ele>373.8</ele>
        <time>2014-10-26T08:24:19.000Z</time>
      </trkpt>
      <trkpt lat="47.50497" lon="6.72884">
        <ele>372.3</ele>
        <time>2014-10-26T08:24:20.000Z</time>
      </trkpt>
      <trkpt lat="47.50499" lon="6.72882">
        <ele>371.7</ele>
        <time>2014-10-26T08:24:21.000Z</time>
      </trkpt>
      <trkpt lat="47.50502" lon="6.7288">
        <ele>371.7</ele>
        <time>2014-10-26T08:24:22.000Z</time>
      </trkpt>
      <trkpt lat="47.50504" lon="6.72878">
        <ele>371.9</ele>
        <time>2014-10-26T08:24:23.000Z</time>
      </trkpt>
      <trkpt lat="47.50506" lon="6.72876">
        <ele>372.1</ele>
        <time>2014-10-26T08:24:24.000Z</time>
      </trkpt>
      <trkpt lat="47.50508" lon="6.72874">
        <ele>371.9</ele>
        <time>2014-10-26T08:24:25.000Z</time>
      </trkpt>
      <trkpt lat="47.5051" lon="6.72872">
        <ele>372.1</ele>
        <time>2014-10-26T08:24:26.000Z</time>
      </trkpt>
      <trkpt lat="47.50512" lon="6.7287">
        <ele>371.9</ele>
        <time>2014-10-26T08:24:27.000Z</time>
      </trkpt>
      <trkpt lat="47.50514" lon="6.72868">
        <ele>371.5</ele>
        <time>2014-10-26T08:24:28.000Z</time>
      </trkpt>
      <trkpt lat="47.50516" lon="6.72866">
        <ele>371.3</ele>
        <time>2014-10-26T08:24:29.000Z</time>
      </trkpt>
      <trkpt lat="47.50518" lon="6.72865">
        <ele>371.3</ele>
        <time>2014-10-26T08:24:30.000Z</time>
      </trkpt>
      <trkpt lat="47.50521" lon="6.72863">
        <ele>372</ele>
        <time>2014-10-26T08:24:31.000Z</time>
      </trkpt>
      <trkpt lat="47.50523" lon="6.72862">
        <ele>371.7</ele>
        <time>2014-10-26T08:24:32.000Z</time>
      </trkpt>
      <trkpt lat="47.50528" lon="6.72859">
        <ele>371.6</ele>
        <time>2014-10-26T08:24:35.000Z</time>
      </trkpt>
      <trkpt lat="47.50532" lon="6.72856">
        <ele>372.7</ele>
        <time>2014-10-26T08:24:37.000Z</time>
      </trkpt>
      <trkpt lat="47.50534" lon="6.72855">
        <ele>372.7</ele>
        <time>2014-10-26T08:24:38.000Z</time>
      </trkpt>
      <trkpt lat="47.50536" lon="6.72853">
        <ele>372.9</ele>
        <time>2014-10-26T08:24:39.000Z</time>
      </trkpt>
      <trkpt lat="47.50538" lon="6.72852">
        <ele>372.6</ele>
        <time>2014-10-26T08:24:40.000Z</time>
      </trkpt>
      <trkpt lat="47.50541" lon="6.7285">
        <ele>372.1</ele>
        <time>2014-10-26T08:24:41.000Z</time>
      </trkpt>
      <trkpt lat="47.50543" lon="6.72849">
        <ele>372</ele>
        <time>2014-10-26T08:24:42.000Z</time>
      </trkpt>
      <trkpt lat="47.50545" lon="6.72847">
        <ele>372.2</ele>
        <time>2014-10-26T08:24:43.000Z</time>
      </trkpt>
      <trkpt lat="47.50547" lon="6.72846">
        <ele>371.6</ele>
        <time>2014-10-26T08:24:44.000Z</time>
      </trkpt>
      <trkpt lat="47.50549" lon="6.72844">
        <ele>372.1</ele>
        <time>2014-10-26T08:24:45.000Z</time>
      </trkpt>
      <trkpt lat="47.50551" lon="6.72842">
        <ele>371.9</ele>
        <time>2014-10-26T08:24:46.000Z</time>
      </trkpt>
      <trkpt lat="47.50555" lon="6.72839">
        <ele>373.5</ele>
        <time>2014-10-26T08:24:48.000Z</time>
      </trkpt>
      <trkpt lat="47.50556" lon="6.72837">
        <ele>372.8</ele>
        <time>2014-10-26T08:24:49.000Z</time>
      </trkpt>
      <trkpt lat="47.5056" lon="6.72834">
        <ele>372.8</ele>
        <time>2014-10-26T08:24:51.000Z</time>
      </trkpt>
      <trkpt lat="47.50562" lon="6.72833">
        <ele>373.3</ele>
        <time>2014-10-26T08:24:52.000Z</time>
      </trkpt>
      <trkpt lat="47.50565" lon="6.72831">
        <ele>374.5</ele>
        <time>2014-10-26T08:24:54.000Z</time>
      </trkpt>
      <trkpt lat="47.50566" lon="6.7283">
        <ele>374.9</ele>
        <time>2014-10-26T08:24:55.000Z</time>
      </trkpt>
      <trkpt lat="47.50569" lon="6.72827">
        <ele>377</ele>
        <time>2014-10-26T08:25:09.000Z</time>
      </trkpt>
      <trkpt lat="47.50571" lon="6.72826">
        <ele>377.5</ele>
        <time>2014-10-26T08:25:10.000Z</time>
      </trkpt>
      <trkpt lat="47.50574" lon="6.72823">
        <ele>379</ele>
        <time>2014-10-26T08:25:13.000Z</time>
      </trkpt>
      <trkpt lat="47.50576" lon="6.72823">
        <ele>379.8</ele>
        <time>2014-10-26T08:25:14.000Z</time>
      </trkpt>
      <trkpt lat="47.5058" lon="6.72821">
        <ele>380.8</ele>
        <time>2014-10-26T08:25:17.000Z</time>
      </trkpt>
      <trkpt lat="47.50581" lon="6.72821">
        <ele>382</ele>
        <time>2014-10-26T08:25:18.000Z</time>
      </trkpt>
      <trkpt lat="47.50584" lon="6.72818">
        <ele>384.1</ele>
        <time>2014-10-26T08:25:21.000Z</time>
      </trkpt>
      <trkpt lat="47.50586" lon="6.72818">
        <ele>384.5</ele>
        <time>2014-10-26T08:25:22.000Z</time>
      </trkpt>
      <trkpt lat="47.50589" lon="6.72816">
        <ele>384.6</ele>
        <time>2014-10-26T08:25:25.000Z</time>
      </trkpt>
      <trkpt lat="47.5059" lon="6.72816">
        <ele>383.9</ele>
        <time>2014-10-26T08:25:26.000Z</time>
      </trkpt>
      <trkpt lat="47.50594" lon="6.72814">
        <ele>386.1</ele>
        <time>2014-10-26T08:25:29.000Z</time>
      </trkpt>
      <trkpt lat="47.50595" lon="6.72813">
        <ele>386.9</ele>
        <time>2014-10-26T08:25:30.000Z</time>
      </trkpt>
      <trkpt lat="47.50597" lon="6.72811">
        <ele>387.9</ele>
        <time>2014-10-26T08:25:32.000Z</time>
      </trkpt>
      <trkpt lat="47.50599" lon="6.7281">
        <ele>389.3</ele>
        <time>2014-10-26T08:25:35.000Z</time>
      </trkpt>
      <trkpt lat="47.50601" lon="6.72806">
        <ele>391.7</ele>
        <time>2014-10-26T08:25:39.000Z</time>
      </trkpt>
      <trkpt lat="47.50602" lon="6.72805">
        <ele>393.7</ele>
        <time>2014-10-26T08:25:40.000Z</time>
      </trkpt>
      <trkpt lat="47.50605" lon="6.72803">
        <ele>395.8</ele>
        <time>2014-10-26T08:25:42.000Z</time>
      </trkpt>
      <trkpt lat="47.50607" lon="6.72802">
        <ele>396.1</ele>
        <time>2014-10-26T08:25:43.000Z</time>
      </trkpt>
      <trkpt lat="47.5061" lon="6.728">
        <ele>396.8</ele>
        <time>2014-10-26T08:25:45.000Z</time>
      </trkpt>
      <trkpt lat="47.50611" lon="6.72798">
        <ele>397.1</ele>
        <time>2014-10-26T08:25:46.000Z</time>
      </trkpt>
      <trkpt lat="47.50614" lon="6.72795">
        <ele>397.9</ele>
        <time>2014-10-26T08:25:48.000Z</time>
      </trkpt>
      <trkpt lat="47.50616" lon="6.72794">
        <ele>397.6</ele>
        <time>2014-10-26T08:25:49.000Z</time>
      </trkpt>
      <trkpt lat="47.50618" lon="6.72791">
        <ele>398.4</ele>
        <time>2014-10-26T08:25:51.000Z</time>
      </trkpt>
      <trkpt lat="47.50619" lon="6.7279">
        <ele>397.6</ele>
        <time>2014-10-26T08:25:52.000Z</time>
      </trkpt>
      <trkpt lat="47.50621" lon="6.72786">
        <ele>396.4</ele>
        <time>2014-10-26T08:25:54.000Z</time>
      </trkpt>
      <trkpt lat="47.50622" lon="6.72783">
        <ele>395.5</ele>
        <time>2014-10-26T08:25:55.000Z</time>
      </trkpt>
      <trkpt lat="47.50624" lon="6.72779">
        <ele>392.7</ele>
        <time>2014-10-26T08:25:57.000Z</time>
      </trkpt>
      <trkpt lat="47.50625" lon="6.72777">
        <ele>392</ele>
        <time>2014-10-26T08:25:58.000Z</time>
      </trkpt>
      <trkpt lat="47.50627" lon="6.72773">
        <ele>392.1</ele>
        <time>2014-10-26T08:26:00.000Z</time>
      </trkpt>
      <trkpt lat="47.50628" lon="6.72771">
        <ele>392.1</ele>
        <time>2014-10-26T08:26:01.000Z</time>
      </trkpt>
      <trkpt lat="47.50631" lon="6.72766">
        <ele>390.3</ele>
        <time>2014-10-26T08:26:10.000Z</time>
      </trkpt>
      <trkpt lat="47.50631" lon="6.72766">
        <ele>390.2</ele>
        <time>2014-10-26T08:26:11.000Z</time>
      </trkpt>
      <trkpt lat="47.50632" lon="6.72764">
        <ele>387.2</ele>
        <time>2014-10-26T08:27:32.000Z</time>
      </trkpt>
      <trkpt lat="47.50635" lon="6.72757">
        <ele>382.9</ele>
        <time>2014-10-26T08:27:41.000Z</time>
      </trkpt>
      <trkpt lat="47.50638" lon="6.72752">
        <ele>384.2</ele>
        <time>2014-10-26T08:31:01.000Z</time>
      </trkpt>
      <trkpt lat="47.50639" lon="6.72752">
        <ele>386</ele>
        <time>2014-10-26T08:31:02.000Z</time>
      </trkpt>
      <trkpt lat="47.50643" lon="6.72753">
        <ele>387.9</ele>
        <time>2014-10-26T08:31:06.000Z</time>
      </trkpt>
      <trkpt lat="47.50644" lon="6.72753">
        <ele>389.4</ele>
        <time>2014-10-26T08:31:07.000Z</time>
      </trkpt>
      <trkpt lat="47.50648" lon="6.72752">
        <ele>390.6</ele>
        <time>2014-10-26T08:31:10.000Z</time>
      </trkpt>
      <trkpt lat="47.50649" lon="6.72751">
        <ele>390.4</ele>
        <time>2014-10-26T08:31:11.000Z</time>
      </trkpt>
      <trkpt lat="47.50652" lon="6.72747">
        <ele>392.8</ele>
        <time>2014-10-26T08:31:14.000Z</time>
      </trkpt>
      <trkpt lat="47.50654" lon="6.72747">
        <ele>393.2</ele>
        <time>2014-10-26T08:31:15.000Z</time>
      </trkpt>
      <trkpt lat="47.50657" lon="6.72744">
        <ele>395.2</ele>
        <time>2014-10-26T08:31:18.000Z</time>
      </trkpt>
      <trkpt lat="47.50658" lon="6.72743">
        <ele>394.6</ele>
        <time>2014-10-26T08:31:19.000Z</time>
      </trkpt>
      <trkpt lat="47.50662" lon="6.72742">
        <ele>395.2</ele>
        <time>2014-10-26T08:31:21.000Z</time>
      </trkpt>
      <trkpt lat="47.50664" lon="6.72741">
        <ele>398.8</ele>
        <time>2014-10-26T08:31:22.000Z</time>
      </trkpt>
      <trkpt lat="47.50668" lon="6.72738">
        <ele>400.1</ele>
        <time>2014-10-26T08:31:24.000Z</time>
      </trkpt>
      <trkpt lat="47.5067" lon="6.72737">
        <ele>400.3</ele>
        <time>2014-10-26T08:31:25.000Z</time>
      </trkpt>
      <trkpt lat="47.50673" lon="6.72733">
        <ele>399.8</ele>
        <time>2014-10-26T08:31:27.000Z</time>
      </trkpt>
      <trkpt lat="47.50675" lon="6.72731">
        <ele>399.4</ele>
        <time>2014-10-26T08:31:28.000Z</time>
      </trkpt>
      <trkpt lat="47.50678" lon="6.72727">
        <ele>400.8</ele>
        <time>2014-10-26T08:31:30.000Z</time>
      </trkpt>
      <trkpt lat="47.5068" lon="6.72725">
        <ele>400.3</ele>
        <time>2014-10-26T08:31:31.000Z</time>
      </trkpt>
      <trkpt lat="47.50683" lon="6.72721">
        <ele>401.1</ele>
        <time>2014-10-26T08:31:33.000Z</time>
      </trkpt>
      <trkpt lat="47.50686" lon="6.72717">
        <ele>401.7</ele>
        <time>2014-10-26T08:31:36.000Z</time>
      </trkpt>
      <trkpt lat="47.50689" lon="6.72713">
        <ele>402.4</ele>
        <time>2014-10-26T08:31:38.000Z</time>
      </trkpt>
      <trkpt lat="47.50691" lon="6.7271">
        <ele>403.5</ele>
        <time>2014-10-26T08:31:39.000Z</time>
      </trkpt>
      <trkpt lat="47.50693" lon="6.72707">
        <ele>403.9</ele>
        <time>2014-10-26T08:31:40.000Z</time>
      </trkpt>
      <trkpt lat="47.50695" lon="6.72704">
        <ele>403.8</ele>
        <time>2014-10-26T08:31:41.000Z</time>
      </trkpt>
      <trkpt lat="47.50697" lon="6.72701">
        <ele>404.3</ele>
        <time>2014-10-26T08:31:42.000Z</time>
      </trkpt>
      <trkpt lat="47.50699" lon="6.72698">
        <ele>403.6</ele>
        <time>2014-10-26T08:31:43.000Z</time>
      </trkpt>
      <trkpt lat="47.50701" lon="6.72695">
        <ele>403.5</ele>
        <time>2014-10-26T08:31:44.000Z</time>
      </trkpt>
      <trkpt lat="47.50703" lon="6.72693">
        <ele>404</ele>
        <time>2014-10-26T08:31:45.000Z</time>
      </trkpt>
      <trkpt lat="47.50705" lon="6.7269">
        <ele>404.1</ele>
        <time>2014-10-26T08:31:46.000Z</time>
      </trkpt>
      <trkpt lat="47.50707" lon="6.72688">
        <ele>405.8</ele>
        <time>2014-10-26T08:31:47.000Z</time>
      </trkpt>
      <trkpt lat="47.50709" lon="6.72686">
        <ele>406.3</ele>
        <time>2014-10-26T08:31:48.000Z</time>
      </trkpt>
      <trkpt lat="47.5071" lon="6.72684">
        <ele>407.5</ele>
        <time>2014-10-26T08:31:49.000Z</time>
      </trkpt>
      <trkpt lat="47.50712" lon="6.72682">
        <ele>408.5</ele>
        <time>2014-10-26T08:31:50.000Z</time>
      </trkpt>
      <trkpt lat="47.50714" lon="6.72679">
        <ele>408.8</ele>
        <time>2014-10-26T08:31:51.000Z</time>
      </trkpt>
      <trkpt lat="47.50716" lon="6.72677">
        <ele>410.4</ele>
        <time>2014-10-26T08:31:52.000Z</time>
      </trkpt>
      <trkpt lat="47.50717" lon="6.72674">
        <ele>411.1</ele>
        <time>2014-10-26T08:31:53.000Z</time>
      </trkpt>
      <trkpt lat="47.50719" lon="6.72671">
        <ele>411.9</ele>
        <time>2014-10-26T08:31:54.000Z</time>
      </trkpt>
      <trkpt lat="47.50721" lon="6.72668">
        <ele>412</ele>
        <time>2014-10-26T08:31:55.000Z</time>
      </trkpt>
      <trkpt lat="47.50722" lon="6.72665">
        <ele>411.6</ele>
        <time>2014-10-26T08:31:56.000Z</time>
      </trkpt>
      <trkpt lat="47.50724" lon="6.72662">
        <ele>411.3</ele>
        <time>2014-10-26T08:31:57.000Z</time>
      </trkpt>
      <trkpt lat="47.50726" lon="6.72659">
        <ele>411.3</ele>
        <time>2014-10-26T08:31:58.000Z</time>
      </trkpt>
      <trkpt lat="47.50728" lon="6.72656">
        <ele>410.9</ele>
        <time>2014-10-26T08:31:59.000Z</time>
      </trkpt>
      <trkpt lat="47.5073" lon="6.72654">
        <ele>411.4</ele>
        <time>2014-10-26T08:32:00.000Z</time>
      </trkpt>
      <trkpt lat="47.50732" lon="6.72651">
        <ele>412.1</ele>
        <time>2014-10-26T08:32:01.000Z</time>
      </trkpt>
      <trkpt lat="47.50734" lon="6.72649">
        <ele>413.1</ele>
        <time>2014-10-26T08:32:02.000Z</time>
      </trkpt>
      <trkpt lat="47.50736" lon="6.72647">
        <ele>413.3</ele>
        <time>2014-10-26T08:32:03.000Z</time>
      </trkpt>
      <trkpt lat="47.50737" lon="6.72645">
        <ele>413.4</ele>
        <time>2014-10-26T08:32:04.000Z</time>
      </trkpt>
      <trkpt lat="47.50739" lon="6.72643">
        <ele>413.1</ele>
        <time>2014-10-26T08:32:05.000Z</time>
      </trkpt>
      <trkpt lat="47.50741" lon="6.72641">
        <ele>413.7</ele>
        <time>2014-10-26T08:32:06.000Z</time>
      </trkpt>
      <trkpt lat="47.50743" lon="6.72638">
        <ele>413.6</ele>
        <time>2014-10-26T08:32:07.000Z</time>
      </trkpt>
      <trkpt lat="47.50745" lon="6.72635">
        <ele>412.8</ele>
        <time>2014-10-26T08:32:08.000Z</time>
      </trkpt>
      <trkpt lat="47.50747" lon="6.72632">
        <ele>413.1</ele>
        <time>2014-10-26T08:32:09.000Z</time>
      </trkpt>
      <trkpt lat="47.50749" lon="6.72629">
        <ele>413.5</ele>
        <time>2014-10-26T08:32:10.000Z</time>
      </trkpt>
      <trkpt lat="47.50751" lon="6.72626">
        <ele>413.4</ele>
        <time>2014-10-26T08:32:11.000Z</time>
      </trkpt>
      <trkpt lat="47.50753" lon="6.72623">
        <ele>413.7</ele>
        <time>2014-10-26T08:32:12.000Z</time>
      </trkpt>
      <trkpt lat="47.50755" lon="6.7262">
        <ele>414.2</ele>
        <time>2014-10-26T08:32:13.000Z</time>
      </trkpt>
      <trkpt lat="47.50756" lon="6.72617">
        <ele>414.2</ele>
        <time>2014-10-26T08:32:14.000Z</time>
      </trkpt>
      <trkpt lat="47.50759" lon="6.72613">
        <ele>414.8</ele>
        <time>2014-10-26T08:32:15.000Z</time>
      </trkpt>
      <trkpt lat="47.50761" lon="6.7261">
        <ele>414.8</ele>
        <time>2014-10-26T08:32:16.000Z</time>
      </trkpt>
      <trkpt lat="47.50763" lon="6.72607">
        <ele>414.5</ele>
        <time>2014-10-26T08:32:17.000Z</time>
      </trkpt>
      <trkpt lat="47.50765" lon="6.72604">
        <ele>414.2</ele>
        <time>2014-10-26T08:32:18.000Z</time>
      </trkpt>
      <trkpt lat="47.50768" lon="6.72601">
        <ele>413.8</ele>
        <time>2014-10-26T08:32:19.000Z</time>
      </trkpt>
      <trkpt lat="47.5077" lon="6.72597">
        <ele>413.5</ele>
        <time>2014-10-26T08:32:20.000Z</time>
      </trkpt>
      <trkpt lat="47.50772" lon="6.72594">
        <ele>414</ele>
        <time>2014-10-26T08:32:21.000Z</time>
      </trkpt>
      <trkpt lat="47.50775" lon="6.7259">
        <ele>414.8</ele>
        <time>2014-10-26T08:32:22.000Z</time>
      </trkpt>
      <trkpt lat="47.50777" lon="6.72587">
        <ele>416.2</ele>
        <time>2014-10-26T08:32:23.000Z</time>
      </trkpt>
      <trkpt lat="47.5078" lon="6.72583">
        <ele>416.8</ele>
        <time>2014-10-26T08:32:24.000Z</time>
      </trkpt>
      <trkpt lat="47.50782" lon="6.72578">
        <ele>416.2</ele>
        <time>2014-10-26T08:32:25.000Z</time>
      </trkpt>
      <trkpt lat="47.50785" lon="6.72574">
        <ele>415.3</ele>
        <time>2014-10-26T08:32:26.000Z</time>
      </trkpt>
      <trkpt lat="47.50788" lon="6.7257">
        <ele>416</ele>
        <time>2014-10-26T08:32:27.000Z</time>
      </trkpt>
      <trkpt lat="47.5079" lon="6.72566">
        <ele>416.9</ele>
        <time>2014-10-26T08:32:28.000Z</time>
      </trkpt>
      <trkpt lat="47.50793" lon="6.72563">
        <ele>417.4</ele>
        <time>2014-10-26T08:32:29.000Z</time>
      </trkpt>
      <trkpt lat="47.50796" lon="6.72561">
        <ele>418.4</ele>
        <time>2014-10-26T08:32:30.000Z</time>
      </trkpt>
      <trkpt lat="47.50798" lon="6.72559">
        <ele>418.5</ele>
        <time>2014-10-26T08:32:31.000Z</time>
      </trkpt>
      <trkpt lat="47.508" lon="6.72556">
        <ele>419.2</ele>
        <time>2014-10-26T08:32:32.000Z</time>
      </trkpt>
      <trkpt lat="47.50802" lon="6.72553">
        <ele>419.6</ele>
        <time>2014-10-26T08:32:33.000Z</time>
      </trkpt>
      <trkpt lat="47.5081" lon="6.72547">
        <ele>407.2</ele>
        <time>2014-10-26T08:32:36.000Z</time>
      </trkpt>
      <trkpt lat="47.50813" lon="6.72545">
        <ele>407.7</ele>
        <time>2014-10-26T08:32:37.000Z</time>
      </trkpt>
      <trkpt lat="47.50815" lon="6.72544">
        <ele>408.2</ele>
        <time>2014-10-26T08:32:38.000Z</time>
      </trkpt>
      <trkpt lat="47.50818" lon="6.72542">
        <ele>409.1</ele>
        <time>2014-10-26T08:32:39.000Z</time>
      </trkpt>
      <trkpt lat="47.50821" lon="6.7254">
        <ele>409.5</ele>
        <time>2014-10-26T08:32:40.000Z</time>
      </trkpt>
      <trkpt lat="47.50824" lon="6.72538">
        <ele>409.1</ele>
        <time>2014-10-26T08:32:41.000Z</time>
      </trkpt>
      <trkpt lat="47.50826" lon="6.72535">
        <ele>408.8</ele>
        <time>2014-10-26T08:32:42.000Z</time>
      </trkpt>
      <trkpt lat="47.50829" lon="6.72533">
        <ele>409.9</ele>
        <time>2014-10-26T08:32:43.000Z</time>
      </trkpt>
      <trkpt lat="47.50832" lon="6.72531">
        <ele>410.1</ele>
        <time>2014-10-26T08:32:44.000Z</time>
      </trkpt>
      <trkpt lat="47.50835" lon="6.72529">
        <ele>410.8</ele>
        <time>2014-10-26T08:32:45.000Z</time>
      </trkpt>
      <trkpt lat="47.50838" lon="6.72528">
        <ele>413.3</ele>
        <time>2014-10-26T08:32:46.000Z</time>
      </trkpt>
      <trkpt lat="47.50841" lon="6.72526">
        <ele>414.3</ele>
        <time>2014-10-26T08:32:47.000Z</time>
      </trkpt>
      <trkpt lat="47.50844" lon="6.72526">
        <ele>414.9</ele>
        <time>2014-10-26T08:32:48.000Z</time>
      </trkpt>
      <trkpt lat="47.50847" lon="6.72525">
        <ele>415.8</ele>
        <time>2014-10-26T08:32:49.000Z</time>
      </trkpt>
      <trkpt lat="47.50849" lon="6.72525">
        <ele>417</ele>
        <time>2014-10-26T08:32:50.000Z</time>
      </trkpt>
      <trkpt lat="47.50852" lon="6.72524">
        <ele>417.8</ele>
        <time>2014-10-26T08:32:51.000Z</time>
      </trkpt>
      <trkpt lat="47.50854" lon="6.72523">
        <ele>417.9</ele>
        <time>2014-10-26T08:32:52.000Z</time>
      </trkpt>
      <trkpt lat="47.50856" lon="6.72523">
        <ele>418.7</ele>
        <time>2014-10-26T08:32:53.000Z</time>
      </trkpt>
      <trkpt lat="47.50859" lon="6.72522">
        <ele>419.5</ele>
        <time>2014-10-26T08:32:54.000Z</time>
      </trkpt>
      <trkpt lat="47.50861" lon="6.72521">
        <ele>420.2</ele>
        <time>2014-10-26T08:32:55.000Z</time>
      </trkpt>
      <trkpt lat="47.50863" lon="6.72521">
        <ele>420.6</ele>
        <time>2014-10-26T08:32:56.000Z</time>
      </trkpt>
      <trkpt lat="47.50868" lon="6.72521">
        <ele>422.6</ele>
        <time>2014-10-26T08:32:58.000Z</time>
      </trkpt>
      <trkpt lat="47.5087" lon="6.72521">
        <ele>422.8</ele>
        <time>2014-10-26T08:32:59.000Z</time>
      </trkpt>
      <trkpt lat="47.50874" lon="6.72521">
        <ele>422.6</ele>
        <time>2014-10-26T08:33:01.000Z</time>
      </trkpt>
      <trkpt lat="47.50875" lon="6.72521">
        <ele>423.3</ele>
        <time>2014-10-26T08:33:02.000Z</time>
      </trkpt>
      <trkpt lat="47.50878" lon="6.72521">
        <ele>422.8</ele>
        <time>2014-10-26T08:33:04.000Z</time>
      </trkpt>
      <trkpt lat="47.5088" lon="6.72522">
        <ele>421.4</ele>
        <time>2014-10-26T08:33:05.000Z</time>
      </trkpt>
      <trkpt lat="47.50884" lon="6.72522">
        <ele>421.5</ele>
        <time>2014-10-26T08:33:07.000Z</time>
      </trkpt>
      <trkpt lat="47.50886" lon="6.72523">
        <ele>422.2</ele>
        <time>2014-10-26T08:33:08.000Z</time>
      </trkpt>
      <trkpt lat="47.5089" lon="6.72523">
        <ele>422.5</ele>
        <time>2014-10-26T08:33:10.000Z</time>
      </trkpt>
      <trkpt lat="47.50892" lon="6.72523">
        <ele>422.9</ele>
        <time>2014-10-26T08:33:11.000Z</time>
      </trkpt>
      <trkpt lat="47.50896" lon="6.72523">
        <ele>422.3</ele>
        <time>2014-10-26T08:33:13.000Z</time>
      </trkpt>
      <trkpt lat="47.50897" lon="6.72523">
        <ele>423.2</ele>
        <time>2014-10-26T08:33:14.000Z</time>
      </trkpt>
      <trkpt lat="47.50901" lon="6.72523">
        <ele>424</ele>
        <time>2014-10-26T08:33:17.000Z</time>
      </trkpt>
      <trkpt lat="47.50903" lon="6.72522">
        <ele>425.6</ele>
        <time>2014-10-26T08:33:18.000Z</time>
      </trkpt>
      <trkpt lat="47.50906" lon="6.72521">
        <ele>427.3</ele>
        <time>2014-10-26T08:33:20.000Z</time>
      </trkpt>
      <trkpt lat="47.50907" lon="6.72521">
        <ele>427.7</ele>
        <time>2014-10-26T08:33:21.000Z</time>
      </trkpt>
      <trkpt lat="47.5091" lon="6.72519">
        <ele>429.4</ele>
        <time>2014-10-26T08:33:23.000Z</time>
      </trkpt>
      <trkpt lat="47.50912" lon="6.72518">
        <ele>429.7</ele>
        <time>2014-10-26T08:33:24.000Z</time>
      </trkpt>
      <trkpt lat="47.50915" lon="6.72517">
        <ele>430.2</ele>
        <time>2014-10-26T08:33:26.000Z</time>
      </trkpt>
      <trkpt lat="47.50917" lon="6.72516">
        <ele>431.7</ele>
        <time>2014-10-26T08:33:27.000Z</time>
      </trkpt>
      <trkpt lat="47.5092" lon="6.72515">
        <ele>432.7</ele>
        <time>2014-10-26T08:33:29.000Z</time>
      </trkpt>
      <trkpt lat="47.50922" lon="6.72514">
        <ele>431.9</ele>
        <time>2014-10-26T08:33:30.000Z</time>
      </trkpt>
      <trkpt lat="47.50925" lon="6.72515">
        <ele>432.1</ele>
        <time>2014-10-26T08:33:32.000Z</time>
      </trkpt>
      <trkpt lat="47.50928" lon="6.72515">
        <ele>386.1</ele>
        <time>2014-10-26T08:33:35.000Z</time>
      </trkpt>
      <trkpt lat="47.50931" lon="6.72516">
        <ele>390.4</ele>
        <time>2014-10-26T08:33:37.000Z</time>
      </trkpt>
      <trkpt lat="47.50933" lon="6.72516">
        <ele>392.1</ele>
        <time>2014-10-26T08:33:38.000Z</time>
      </trkpt>
      <trkpt lat="47.50937" lon="6.72515">
        <ele>395.1</ele>
        <time>2014-10-26T08:33:40.000Z</time>
      </trkpt>
      <trkpt lat="47.50939" lon="6.72515">
        <ele>397.3</ele>
        <time>2014-10-26T08:33:41.000Z</time>
      </trkpt>
      <trkpt lat="47.50943" lon="6.72516">
        <ele>400.9</ele>
        <time>2014-10-26T08:33:43.000Z</time>
      </trkpt>
      <trkpt lat="47.50945" lon="6.72516">
        <ele>401.8</ele>
        <time>2014-10-26T08:33:44.000Z</time>
      </trkpt>
      <trkpt lat="47.50949" lon="6.72515">
        <ele>403.7</ele>
        <time>2014-10-26T08:33:46.000Z</time>
      </trkpt>
      <trkpt lat="47.50951" lon="6.72515">
        <ele>405.1</ele>
        <time>2014-10-26T08:33:47.000Z</time>
      </trkpt>
      <trkpt lat="47.50955" lon="6.72515">
        <ele>407</ele>
        <time>2014-10-26T08:33:49.000Z</time>
      </trkpt>
      <trkpt lat="47.50957" lon="6.72515">
        <ele>407.3</ele>
        <time>2014-10-26T08:33:50.000Z</time>
      </trkpt>
      <trkpt lat="47.5096" lon="6.72514">
        <ele>408.3</ele>
        <time>2014-10-26T08:33:52.000Z</time>
      </trkpt>
      <trkpt lat="47.50962" lon="6.72514">
        <ele>409.2</ele>
        <time>2014-10-26T08:33:53.000Z</time>
      </trkpt>
      <trkpt lat="47.50965" lon="6.72513">
        <ele>412</ele>
        <time>2014-10-26T08:33:55.000Z</time>
      </trkpt>
      <trkpt lat="47.50966" lon="6.72512">
        <ele>412.4</ele>
        <time>2014-10-26T08:33:56.000Z</time>
      </trkpt>
      <trkpt lat="47.5097" lon="6.72511">
        <ele>412.4</ele>
        <time>2014-10-26T08:33:58.000Z</time>
      </trkpt>
      <trkpt lat="47.50971" lon="6.7251">
        <ele>413.1</ele>
        <time>2014-10-26T08:33:59.000Z</time>
      </trkpt>
      <trkpt lat="47.50974" lon="6.72509">
        <ele>413.9</ele>
        <time>2014-10-26T08:34:00.000Z</time>
      </trkpt>
      <trkpt lat="47.50976" lon="6.72508">
        <ele>415.8</ele>
        <time>2014-10-26T08:34:01.000Z</time>
      </trkpt>
      <trkpt lat="47.5098" lon="6.72507">
        <ele>416.9</ele>
        <time>2014-10-26T08:34:03.000Z</time>
      </trkpt>
      <trkpt lat="47.50982" lon="6.72507">
        <ele>416.6</ele>
        <time>2014-10-26T08:34:04.000Z</time>
      </trkpt>
      <trkpt lat="47.50987" lon="6.72507">
        <ele>418.1</ele>
        <time>2014-10-26T08:34:06.000Z</time>
      </trkpt>
      <trkpt lat="47.50989" lon="6.72507">
        <ele>418.1</ele>
        <time>2014-10-26T08:34:07.000Z</time>
      </trkpt>
      <trkpt lat="47.50992" lon="6.72507">
        <ele>418.2</ele>
        <time>2014-10-26T08:34:09.000Z</time>
      </trkpt>
      <trkpt lat="47.50994" lon="6.72507">
        <ele>418.9</ele>
        <time>2014-10-26T08:34:10.000Z</time>
      </trkpt>
      <trkpt lat="47.50997" lon="6.72506">
        <ele>420.7</ele>
        <time>2014-10-26T08:34:13.000Z</time>
      </trkpt>
      <trkpt lat="47.50999" lon="6.72506">
        <ele>421.4</ele>
        <time>2014-10-26T08:34:14.000Z</time>
      </trkpt>
      <trkpt lat="47.51002" lon="6.72505">
        <ele>421</ele>
        <time>2014-10-26T08:34:16.000Z</time>
      </trkpt>
      <trkpt lat="47.51004" lon="6.72505">
        <ele>422.4</ele>
        <time>2014-10-26T08:34:17.000Z</time>
      </trkpt>
      <trkpt lat="47.51007" lon="6.72504">
        <ele>423.6</ele>
        <time>2014-10-26T08:34:19.000Z</time>
      </trkpt>
      <trkpt lat="47.51009" lon="6.72504">
        <ele>425.3</ele>
        <time>2014-10-26T08:34:20.000Z</time>
      </trkpt>
      <trkpt lat="47.51012" lon="6.72504">
        <ele>425.9</ele>
        <time>2014-10-26T08:34:22.000Z</time>
      </trkpt>
      <trkpt lat="47.51013" lon="6.72504">
        <ele>427.6</ele>
        <time>2014-10-26T08:34:23.000Z</time>
      </trkpt>
      <trkpt lat="47.51016" lon="6.72505">
        <ele>429.4</ele>
        <time>2014-10-26T08:34:25.000Z</time>
      </trkpt>
      <trkpt lat="47.51018" lon="6.72505">
        <ele>431.4</ele>
        <time>2014-10-26T08:34:26.000Z</time>
      </trkpt>
      <trkpt lat="47.51021" lon="6.72506">
        <ele>435.8</ele>
        <time>2014-10-26T08:34:28.000Z</time>
      </trkpt>
      <trkpt lat="47.51023" lon="6.72506">
        <ele>436.4</ele>
        <time>2014-10-26T08:34:29.000Z</time>
      </trkpt>
      <trkpt lat="47.51027" lon="6.72508">
        <ele>438.1</ele>
        <time>2014-10-26T08:34:32.000Z</time>
      </trkpt>
      <trkpt lat="47.51032" lon="6.72509">
        <ele>422.5</ele>
        <time>2014-10-26T08:34:35.000Z</time>
      </trkpt>
      <trkpt lat="47.51036" lon="6.72509">
        <ele>424</ele>
        <time>2014-10-26T08:34:37.000Z</time>
      </trkpt>
      <trkpt lat="47.51037" lon="6.72509">
        <ele>425.2</ele>
        <time>2014-10-26T08:34:38.000Z</time>
      </trkpt>
      <trkpt lat="47.51041" lon="6.7251">
        <ele>427.2</ele>
        <time>2014-10-26T08:34:40.000Z</time>
      </trkpt>
      <trkpt lat="47.51042" lon="6.72511">
        <ele>428.1</ele>
        <time>2014-10-26T08:34:41.000Z</time>
      </trkpt>
      <trkpt lat="47.51045" lon="6.72512">
        <ele>428.9</ele>
        <time>2014-10-26T08:34:43.000Z</time>
      </trkpt>
      <trkpt lat="47.51047" lon="6.72513">
        <ele>428.8</ele>
        <time>2014-10-26T08:34:44.000Z</time>
      </trkpt>
      <trkpt lat="47.5105" lon="6.72513">
        <ele>429.5</ele>
        <time>2014-10-26T08:34:46.000Z</time>
      </trkpt>
      <trkpt lat="47.51052" lon="6.72514">
        <ele>429.4</ele>
        <time>2014-10-26T08:34:47.000Z</time>
      </trkpt>
      <trkpt lat="47.51056" lon="6.72514">
        <ele>430.7</ele>
        <time>2014-10-26T08:34:50.000Z</time>
      </trkpt>
      <trkpt lat="47.51058" lon="6.72514">
        <ele>431.3</ele>
        <time>2014-10-26T08:34:51.000Z</time>
      </trkpt>
      <trkpt lat="47.5106" lon="6.72515">
        <ele>431</ele>
        <time>2014-10-26T08:34:53.000Z</time>
      </trkpt>
      <trkpt lat="47.51062" lon="6.72517">
        <ele>429.3</ele>
        <time>2014-10-26T08:34:54.000Z</time>
      </trkpt>
      <trkpt lat="47.51065" lon="6.7252">
        <ele>430</ele>
        <time>2014-10-26T08:34:56.000Z</time>
      </trkpt>
      <trkpt lat="47.51067" lon="6.72521">
        <ele>430.6</ele>
        <time>2014-10-26T08:34:57.000Z</time>
      </trkpt>
      <trkpt lat="47.51071" lon="6.72524">
        <ele>432.5</ele>
        <time>2014-10-26T08:35:00.000Z</time>
      </trkpt>
      <trkpt lat="47.51072" lon="6.72525">
        <ele>432.4</ele>
        <time>2014-10-26T08:35:01.000Z</time>
      </trkpt>
      <trkpt lat="47.51075" lon="6.72527">
        <ele>435</ele>
        <time>2014-10-26T08:35:04.000Z</time>
      </trkpt>
      <trkpt lat="47.51077" lon="6.72528">
        <ele>434.6</ele>
        <time>2014-10-26T08:35:05.000Z</time>
      </trkpt>
      <trkpt lat="47.51079" lon="6.72529">
        <ele>436.3</ele>
        <time>2014-10-26T08:35:07.000Z</time>
      </trkpt>
      <trkpt lat="47.51081" lon="6.7253">
        <ele>437.1</ele>
        <time>2014-10-26T08:35:08.000Z</time>
      </trkpt>
      <trkpt lat="47.51085" lon="6.72532">
        <ele>441.8</ele>
        <time>2014-10-26T08:35:13.000Z</time>
      </trkpt>
      <trkpt lat="47.51086" lon="6.72531">
        <ele>441.4</ele>
        <time>2014-10-26T08:35:14.000Z</time>
      </trkpt>
      <trkpt lat="47.51089" lon="6.72529">
        <ele>444.5</ele>
        <time>2014-10-26T08:35:18.000Z</time>
      </trkpt>
      <trkpt lat="47.5109" lon="6.72529">
        <ele>444.4</ele>
        <time>2014-10-26T08:35:19.000Z</time>
      </trkpt>
      <trkpt lat="47.51093" lon="6.72526">
        <ele>398.5</ele>
        <time>2014-10-26T08:36:13.000Z</time>
      </trkpt>
      <trkpt lat="47.51095" lon="6.72525">
        <ele>399.8</ele>
        <time>2014-10-26T08:36:14.000Z</time>
      </trkpt>
      <trkpt lat="47.51098" lon="6.72522">
        <ele>403.2</ele>
        <time>2014-10-26T08:36:17.000Z</time>
      </trkpt>
      <trkpt lat="47.51099" lon="6.72521">
        <ele>403.9</ele>
        <time>2014-10-26T08:36:18.000Z</time>
      </trkpt>
      <trkpt lat="47.51101" lon="6.72517">
        <ele>404.8</ele>
        <time>2014-10-26T08:36:22.000Z</time>
      </trkpt>
      <trkpt lat="47.51101" lon="6.72516">
        <ele>404.5</ele>
        <time>2014-10-26T08:36:23.000Z</time>
      </trkpt>
      <trkpt lat="47.51105" lon="6.72513">
        <ele>402</ele>
        <time>2014-10-26T08:36:27.000Z</time>
      </trkpt>
      <trkpt lat="47.51106" lon="6.72511">
        <ele>402.9</ele>
        <time>2014-10-26T08:36:28.000Z</time>
      </trkpt>
      <trkpt lat="47.51109" lon="6.72516">
        <ele>413.1</ele>
        <time>2014-10-26T08:36:53.000Z</time>
      </trkpt>
      <trkpt lat="47.5111" lon="6.72517">
        <ele>416</ele>
        <time>2014-10-26T08:36:54.000Z</time>
      </trkpt>
      <trkpt lat="47.51113" lon="6.72521">
        <ele>417</ele>
        <time>2014-10-26T08:36:56.000Z</time>
      </trkpt>
      <trkpt lat="47.51115" lon="6.72524">
        <ele>419.2</ele>
        <time>2014-10-26T08:36:57.000Z</time>
      </trkpt>
      <trkpt lat="47.51116" lon="6.72526">
        <ele>422.1</ele>
        <time>2014-10-26T08:36:58.000Z</time>
      </trkpt>
      <trkpt lat="47.51119" lon="6.72528">
        <ele>422.3</ele>
        <time>2014-10-26T08:36:59.000Z</time>
      </trkpt>
      <trkpt lat="47.51121" lon="6.7253">
        <ele>422.5</ele>
        <time>2014-10-26T08:37:00.000Z</time>
      </trkpt>
      <trkpt lat="47.51124" lon="6.72532">
        <ele>423.1</ele>
        <time>2014-10-26T08:37:01.000Z</time>
      </trkpt>
      <trkpt lat="47.51126" lon="6.72535">
        <ele>423.5</ele>
        <time>2014-10-26T08:37:02.000Z</time>
      </trkpt>
      <trkpt lat="47.51129" lon="6.72537">
        <ele>424.3</ele>
        <time>2014-10-26T08:37:03.000Z</time>
      </trkpt>
      <trkpt lat="47.51133" lon="6.72539">
        <ele>427.1</ele>
        <time>2014-10-26T08:37:05.000Z</time>
      </trkpt>
      <trkpt lat="47.51135" lon="6.7254">
        <ele>428.3</ele>
        <time>2014-10-26T08:37:06.000Z</time>
      </trkpt>
      <trkpt lat="47.51138" lon="6.72541">
        <ele>429.5</ele>
        <time>2014-10-26T08:37:08.000Z</time>
      </trkpt>
      <trkpt lat="47.51139" lon="6.72542">
        <ele>431.1</ele>
        <time>2014-10-26T08:37:09.000Z</time>
      </trkpt>
      <trkpt lat="47.51142" lon="6.72543">
        <ele>435.3</ele>
        <time>2014-10-26T08:37:11.000Z</time>
      </trkpt>
      <trkpt lat="47.51143" lon="6.72544">
        <ele>436</ele>
        <time>2014-10-26T08:37:12.000Z</time>
      </trkpt>
      <trkpt lat="47.51148" lon="6.72546">
        <ele>436.4</ele>
        <time>2014-10-26T08:37:15.000Z</time>
      </trkpt>
      <trkpt lat="47.51149" lon="6.72546">
        <ele>436.7</ele>
        <time>2014-10-26T08:37:16.000Z</time>
      </trkpt>
      <trkpt lat="47.51153" lon="6.72546">
        <ele>439.3</ele>
        <time>2014-10-26T08:37:18.000Z</time>
      </trkpt>
      <trkpt lat="47.51155" lon="6.72546">
        <ele>439.6</ele>
        <time>2014-10-26T08:37:19.000Z</time>
      </trkpt>
      <trkpt lat="47.51159" lon="6.72548">
        <ele>440.7</ele>
        <time>2014-10-26T08:37:21.000Z</time>
      </trkpt>
      <trkpt lat="47.51161" lon="6.72549">
        <ele>440.7</ele>
        <time>2014-10-26T08:37:22.000Z</time>
      </trkpt>
      <trkpt lat="47.51164" lon="6.72551">
        <ele>444.5</ele>
        <time>2014-10-26T08:37:24.000Z</time>
      </trkpt>
      <trkpt lat="47.51165" lon="6.72552">
        <ele>445.1</ele>
        <time>2014-10-26T08:37:25.000Z</time>
      </trkpt>
      <trkpt lat="47.51169" lon="6.72552">
        <ele>446.6</ele>
        <time>2014-10-26T08:37:28.000Z</time>
      </trkpt>
      <trkpt lat="47.51171" lon="6.72552">
        <ele>450.7</ele>
        <time>2014-10-26T08:37:29.000Z</time>
      </trkpt>
      <trkpt lat="47.51175" lon="6.72554">
        <ele>453.2</ele>
        <time>2014-10-26T08:37:31.000Z</time>
      </trkpt>
      <trkpt lat="47.51178" lon="6.72554">
        <ele>454</ele>
        <time>2014-10-26T08:37:32.000Z</time>
      </trkpt>
      <trkpt lat="47.5118" lon="6.72555">
        <ele>453.7</ele>
        <time>2014-10-26T08:37:33.000Z</time>
      </trkpt>
      <trkpt lat="47.51202" lon="6.72558">
        <ele>440.5</ele>
        <time>2014-10-26T08:37:41.000Z</time>
      </trkpt>
      <trkpt lat="47.51206" lon="6.72558">
        <ele>441.2</ele>
        <time>2014-10-26T08:37:42.000Z</time>
      </trkpt>
      <trkpt lat="47.51209" lon="6.72559">
        <ele>441.9</ele>
        <time>2014-10-26T08:37:43.000Z</time>
      </trkpt>
      <trkpt lat="47.51213" lon="6.7256">
        <ele>442.2</ele>
        <time>2014-10-26T08:37:44.000Z</time>
      </trkpt>
      <trkpt lat="47.51217" lon="6.72561">
        <ele>443.5</ele>
        <time>2014-10-26T08:37:45.000Z</time>
      </trkpt>
      <trkpt lat="47.5122" lon="6.72562">
        <ele>444.2</ele>
        <time>2014-10-26T08:37:46.000Z</time>
      </trkpt>
      <trkpt lat="47.51224" lon="6.72563">
        <ele>445</ele>
        <time>2014-10-26T08:37:47.000Z</time>
      </trkpt>
      <trkpt lat="47.51227" lon="6.72565">
        <ele>444.7</ele>
        <time>2014-10-26T08:37:48.000Z</time>
      </trkpt>
      <trkpt lat="47.51231" lon="6.72566">
        <ele>444.3</ele>
        <time>2014-10-26T08:37:49.000Z</time>
      </trkpt>
      <trkpt lat="47.51235" lon="6.72568">
        <ele>444.6</ele>
        <time>2014-10-26T08:37:50.000Z</time>
      </trkpt>
      <trkpt lat="47.51239" lon="6.7257">
        <ele>444.3</ele>
        <time>2014-10-26T08:37:51.000Z</time>
      </trkpt>
      <trkpt lat="47.51243" lon="6.72571">
        <ele>444.8</ele>
        <time>2014-10-26T08:37:52.000Z</time>
      </trkpt>
      <trkpt lat="47.51247" lon="6.72573">
        <ele>445.1</ele>
        <time>2014-10-26T08:37:53.000Z</time>
      </trkpt>
      <trkpt lat="47.5125" lon="6.72575">
        <ele>444.2</ele>
        <time>2014-10-26T08:37:54.000Z</time>
      </trkpt>
      <trkpt lat="47.51254" lon="6.72576">
        <ele>444.4</ele>
        <time>2014-10-26T08:37:55.000Z</time>
      </trkpt>
      <trkpt lat="47.51257" lon="6.72577">
        <ele>448.1</ele>
        <time>2014-10-26T08:37:56.000Z</time>
      </trkpt>
      <trkpt lat="47.51259" lon="6.72578">
        <ele>448.2</ele>
        <time>2014-10-26T08:37:57.000Z</time>
      </trkpt>
      <trkpt lat="47.51262" lon="6.72579">
        <ele>448.1</ele>
        <time>2014-10-26T08:37:58.000Z</time>
      </trkpt>
      <trkpt lat="47.51264" lon="6.72581">
        <ele>452.7</ele>
        <time>2014-10-26T08:37:59.000Z</time>
      </trkpt>
      <trkpt lat="47.51267" lon="6.72582">
        <ele>452.8</ele>
        <time>2014-10-26T08:38:00.000Z</time>
      </trkpt>
      <trkpt lat="47.5127" lon="6.72583">
        <ele>453.5</ele>
        <time>2014-10-26T08:38:01.000Z</time>
      </trkpt>
      <trkpt lat="47.51273" lon="6.72584">
        <ele>453.9</ele>
        <time>2014-10-26T08:38:02.000Z</time>
      </trkpt>
      <trkpt lat="47.51276" lon="6.72586">
        <ele>456.1</ele>
        <time>2014-10-26T08:38:03.000Z</time>
      </trkpt>
      <trkpt lat="47.51279" lon="6.72587">
        <ele>456.4</ele>
        <time>2014-10-26T08:38:04.000Z</time>
      </trkpt>
      <trkpt lat="47.51282" lon="6.72589">
        <ele>457.2</ele>
        <time>2014-10-26T08:38:05.000Z</time>
      </trkpt>
      <trkpt lat="47.51284" lon="6.72591">
        <ele>459.1</ele>
        <time>2014-10-26T08:38:06.000Z</time>
      </trkpt>
      <trkpt lat="47.51287" lon="6.72593">
        <ele>461.2</ele>
        <time>2014-10-26T08:38:07.000Z</time>
      </trkpt>
      <trkpt lat="47.51291" lon="6.72595">
        <ele>461.7</ele>
        <time>2014-10-26T08:38:08.000Z</time>
      </trkpt>
      <trkpt lat="47.51294" lon="6.72597">
        <ele>461</ele>
        <time>2014-10-26T08:38:09.000Z</time>
      </trkpt>
      <trkpt lat="47.51297" lon="6.72599">
        <ele>461.4</ele>
        <time>2014-10-26T08:38:10.000Z</time>
      </trkpt>
      <trkpt lat="47.513" lon="6.72601">
        <ele>460.4</ele>
        <time>2014-10-26T08:38:11.000Z</time>
      </trkpt>
      <trkpt lat="47.51302" lon="6.72603">
        <ele>460.4</ele>
        <time>2014-10-26T08:38:12.000Z</time>
      </trkpt>
      <trkpt lat="47.51305" lon="6.72603">
        <ele>458.4</ele>
        <time>2014-10-26T08:38:13.000Z</time>
      </trkpt>
      <trkpt lat="47.51307" lon="6.72604">
        <ele>457.2</ele>
        <time>2014-10-26T08:38:14.000Z</time>
      </trkpt>
      <trkpt lat="47.51309" lon="6.72604">
        <ele>457</ele>
        <time>2014-10-26T08:38:15.000Z</time>
      </trkpt>
      <trkpt lat="47.51312" lon="6.72604">
        <ele>457.2</ele>
        <time>2014-10-26T08:38:16.000Z</time>
      </trkpt>
      <trkpt lat="47.51314" lon="6.72605">
        <ele>458.4</ele>
        <time>2014-10-26T08:38:17.000Z</time>
      </trkpt>
      <trkpt lat="47.51316" lon="6.72605">
        <ele>458.7</ele>
        <time>2014-10-26T08:38:18.000Z</time>
      </trkpt>
      <trkpt lat="47.51319" lon="6.72605">
        <ele>456</ele>
        <time>2014-10-26T08:38:19.000Z</time>
      </trkpt>
      <trkpt lat="47.51322" lon="6.72604">
        <ele>455.4</ele>
        <time>2014-10-26T08:38:20.000Z</time>
      </trkpt>
      <trkpt lat="47.51325" lon="6.72604">
        <ele>454.9</ele>
        <time>2014-10-26T08:38:21.000Z</time>
      </trkpt>
      <trkpt lat="47.51328" lon="6.72604">
        <ele>454.7</ele>
        <time>2014-10-26T08:38:22.000Z</time>
      </trkpt>
      <trkpt lat="47.5133" lon="6.72604">
        <ele>454.6</ele>
        <time>2014-10-26T08:38:23.000Z</time>
      </trkpt>
      <trkpt lat="47.51334" lon="6.72603">
        <ele>455</ele>
        <time>2014-10-26T08:38:25.000Z</time>
      </trkpt>
      <trkpt lat="47.51336" lon="6.72603">
        <ele>455.3</ele>
        <time>2014-10-26T08:38:26.000Z</time>
      </trkpt>
      <trkpt lat="47.5134" lon="6.72603">
        <ele>456.8</ele>
        <time>2014-10-26T08:38:28.000Z</time>
      </trkpt>
      <trkpt lat="47.51342" lon="6.72603">
        <ele>457.1</ele>
        <time>2014-10-26T08:38:29.000Z</time>
      </trkpt>
      <trkpt lat="47.51346" lon="6.72604">
        <ele>456.9</ele>
        <time>2014-10-26T08:38:31.000Z</time>
      </trkpt>
      <trkpt lat="47.51348" lon="6.72604">
        <ele>456</ele>
        <time>2014-10-26T08:38:32.000Z</time>
      </trkpt>
      <trkpt lat="47.51358" lon="6.72593">
        <ele>457.9</ele>
        <time>2014-10-26T08:38:39.740Z</time>
      </trkpt>
      <trkpt lat="47.5136" lon="6.72588">
        <ele>457.6</ele>
        <time>2014-10-26T08:38:42.000Z</time>
      </trkpt>
      <trkpt lat="47.51361" lon="6.72584">
        <ele>455</ele>
        <time>2014-10-26T08:38:43.000Z</time>
      </trkpt>
      <trkpt lat="47.51363" lon="6.72582">
        <ele>456.7</ele>
        <time>2014-10-26T08:38:44.000Z</time>
      </trkpt>
      <trkpt lat="47.51364" lon="6.72579">
        <ele>456.2</ele>
        <time>2014-10-26T08:38:45.000Z</time>
      </trkpt>
      <trkpt lat="47.51366" lon="6.72576">
        <ele>456.1</ele>
        <time>2014-10-26T08:38:46.000Z</time>
      </trkpt>
      <trkpt lat="47.51367" lon="6.72574">
        <ele>456.4</ele>
        <time>2014-10-26T08:38:47.000Z</time>
      </trkpt>
      <trkpt lat="47.51368" lon="6.72568">
        <ele>458.1</ele>
        <time>2014-10-26T08:38:49.000Z</time>
      </trkpt>
      <trkpt lat="47.51368" lon="6.72565">
        <ele>458.9</ele>
        <time>2014-10-26T08:38:50.000Z</time>
      </trkpt>
      <trkpt lat="47.51369" lon="6.72559">
        <ele>458.4</ele>
        <time>2014-10-26T08:38:52.000Z</time>
      </trkpt>
      <trkpt lat="47.5137" lon="6.72556">
        <ele>458.5</ele>
        <time>2014-10-26T08:38:53.000Z</time>
      </trkpt>
      <trkpt lat="47.51371" lon="6.72551">
        <ele>462.1</ele>
        <time>2014-10-26T08:38:55.000Z</time>
      </trkpt>
      <trkpt lat="47.51373" lon="6.72548">
        <ele>462.9</ele>
        <time>2014-10-26T08:38:56.000Z</time>
      </trkpt>
      <trkpt lat="47.51374" lon="6.72542">
        <ele>462.7</ele>
        <time>2014-10-26T08:38:58.000Z</time>
      </trkpt>
      <trkpt lat="47.51374" lon="6.72538">
        <ele>462.4</ele>
        <time>2014-10-26T08:38:59.000Z</time>
      </trkpt>
      <trkpt lat="47.51374" lon="6.72535">
        <ele>463.4</ele>
        <time>2014-10-26T08:39:00.000Z</time>
      </trkpt>
      <trkpt lat="47.51374" lon="6.72531">
        <ele>463.6</ele>
        <time>2014-10-26T08:39:01.000Z</time>
      </trkpt>
      <trkpt lat="47.51374" lon="6.72528">
        <ele>463</ele>
        <time>2014-10-26T08:39:02.000Z</time>
      </trkpt>
      <trkpt lat="47.51374" lon="6.72525">
        <ele>464.7</ele>
        <time>2014-10-26T08:39:03.000Z</time>
      </trkpt>
      <trkpt lat="47.51374" lon="6.72521">
        <ele>465.1</ele>
        <time>2014-10-26T08:39:04.000Z</time>
      </trkpt>
      <trkpt lat="47.51374" lon="6.72517">
        <ele>467.4</ele>
        <time>2014-10-26T08:39:05.000Z</time>
      </trkpt>
      <trkpt lat="47.51375" lon="6.72512">
        <ele>468.1</ele>
        <time>2014-10-26T08:39:06.000Z</time>
      </trkpt>
      <trkpt lat="47.51374" lon="6.72508">
        <ele>467.5</ele>
        <time>2014-10-26T08:39:07.000Z</time>
      </trkpt>
      <trkpt lat="47.51373" lon="6.72502">
        <ele>467.2</ele>
        <time>2014-10-26T08:39:08.000Z</time>
      </trkpt>
      <trkpt lat="47.51372" lon="6.72498">
        <ele>466.6</ele>
        <time>2014-10-26T08:39:09.000Z</time>
      </trkpt>
      <trkpt lat="47.5137" lon="6.72493">
        <ele>465.6</ele>
        <time>2014-10-26T08:39:11.000Z</time>
      </trkpt>
      <trkpt lat="47.51369" lon="6.72491">
        <ele>464.7</ele>
        <time>2014-10-26T08:39:12.000Z</time>
      </trkpt>
      <trkpt lat="47.51369" lon="6.72485">
        <ele>464.9</ele>
        <time>2014-10-26T08:39:16.000Z</time>
      </trkpt>
      <trkpt lat="47.5137" lon="6.72484">
        <ele>464.7</ele>
        <time>2014-10-26T08:39:17.000Z</time>
      </trkpt>
      <trkpt lat="47.51372" lon="6.72479">
        <ele>463.4</ele>
        <time>2014-10-26T08:39:21.000Z</time>
      </trkpt>
      <trkpt lat="47.51374" lon="6.72478">
        <ele>463.4</ele>
        <time>2014-10-26T08:39:22.000Z</time>
      </trkpt>
      <trkpt lat="47.51375" lon="6.72475">
        <ele>463</ele>
        <time>2014-10-26T08:39:23.000Z</time>
      </trkpt>
      <trkpt lat="47.51378" lon="6.72473">
        <ele>462.6</ele>
        <time>2014-10-26T08:39:24.000Z</time>
      </trkpt>
      <trkpt lat="47.5138" lon="6.72469">
        <ele>462.9</ele>
        <time>2014-10-26T08:39:25.000Z</time>
      </trkpt>
      <trkpt lat="47.51381" lon="6.72466">
        <ele>463.3</ele>
        <time>2014-10-26T08:39:26.000Z</time>
      </trkpt>
      <trkpt lat="47.51383" lon="6.72464">
        <ele>463.6</ele>
        <time>2014-10-26T08:39:27.000Z</time>
      </trkpt>
      <trkpt lat="47.51385" lon="6.72462">
        <ele>463.8</ele>
        <time>2014-10-26T08:39:28.000Z</time>
      </trkpt>
      <trkpt lat="47.51388" lon="6.7246">
        <ele>464</ele>
        <time>2014-10-26T08:39:30.000Z</time>
      </trkpt>
      <trkpt lat="47.5139" lon="6.7246">
        <ele>463.9</ele>
        <time>2014-10-26T08:39:31.000Z</time>
      </trkpt>
      <trkpt lat="47.51393" lon="6.7246">
        <ele>463.9</ele>
        <time>2014-10-26T08:39:32.000Z</time>
      </trkpt>
      <trkpt lat="47.51404" lon="6.72456">
        <ele>463.5</ele>
        <time>2014-10-26T08:39:35.000Z</time>
      </trkpt>
      <trkpt lat="47.51409" lon="6.72455">
        <ele>463.3</ele>
        <time>2014-10-26T08:39:36.000Z</time>
      </trkpt>
      <trkpt lat="47.51413" lon="6.72453">
        <ele>462.1</ele>
        <time>2014-10-26T08:39:37.000Z</time>
      </trkpt>
      <trkpt lat="47.51417" lon="6.72451">
        <ele>461.9</ele>
        <time>2014-10-26T08:39:38.000Z</time>
      </trkpt>
      <trkpt lat="47.51421" lon="6.72449">
        <ele>461.6</ele>
        <time>2014-10-26T08:39:39.000Z</time>
      </trkpt>
      <trkpt lat="47.51425" lon="6.72447">
        <ele>461.2</ele>
        <time>2014-10-26T08:39:40.000Z</time>
      </trkpt>
      <trkpt lat="47.51428" lon="6.72445">
        <ele>460.8</ele>
        <time>2014-10-26T08:39:41.000Z</time>
      </trkpt>
      <trkpt lat="47.51432" lon="6.72443">
        <ele>461</ele>
        <time>2014-10-26T08:39:42.000Z</time>
      </trkpt>
      <trkpt lat="47.51435" lon="6.72442">
        <ele>460.8</ele>
        <time>2014-10-26T08:39:43.000Z</time>
      </trkpt>
      <trkpt lat="47.51439" lon="6.72439">
        <ele>459.4</ele>
        <time>2014-10-26T08:39:44.000Z</time>
      </trkpt>
      <trkpt lat="47.51443" lon="6.72437">
        <ele>458.5</ele>
        <time>2014-10-26T08:39:45.000Z</time>
      </trkpt>
      <trkpt lat="47.51446" lon="6.72434">
        <ele>458.3</ele>
        <time>2014-10-26T08:39:46.000Z</time>
      </trkpt>
      <trkpt lat="47.51449" lon="6.72432">
        <ele>457.5</ele>
        <time>2014-10-26T08:39:47.000Z</time>
      </trkpt>
      <trkpt lat="47.51452" lon="6.72429">
        <ele>456.8</ele>
        <time>2014-10-26T08:39:48.000Z</time>
      </trkpt>
      <trkpt lat="47.51454" lon="6.72427">
        <ele>456.3</ele>
        <time>2014-10-26T08:39:49.000Z</time>
      </trkpt>
      <trkpt lat="47.51457" lon="6.72424">
        <ele>455.6</ele>
        <time>2014-10-26T08:39:51.000Z</time>
      </trkpt>
      <trkpt lat="47.51459" lon="6.72422">
        <ele>455.3</ele>
        <time>2014-10-26T08:39:52.000Z</time>
      </trkpt>
      <trkpt lat="47.51462" lon="6.72419">
        <ele>453.5</ele>
        <time>2014-10-26T08:39:55.000Z</time>
      </trkpt>
      <trkpt lat="47.51464" lon="6.72417">
        <ele>452.6</ele>
        <time>2014-10-26T08:39:56.000Z</time>
      </trkpt>
      <trkpt lat="47.51467" lon="6.72415">
        <ele>451.4</ele>
        <time>2014-10-26T08:40:02.000Z</time>
      </trkpt>
      <trkpt lat="47.51466" lon="6.72412">
        <ele>451.5</ele>
        <time>2014-10-26T08:40:03.000Z</time>
      </trkpt>
      <trkpt lat="47.51465" lon="6.72408">
        <ele>450.8</ele>
        <time>2014-10-26T08:40:04.000Z</time>
      </trkpt>
      <trkpt lat="47.51465" lon="6.72405">
        <ele>450.5</ele>
        <time>2014-10-26T08:40:05.000Z</time>
      </trkpt>
      <trkpt lat="47.51466" lon="6.724">
        <ele>450.6</ele>
        <time>2014-10-26T08:40:06.000Z</time>
      </trkpt>
      <trkpt lat="47.51466" lon="6.72395">
        <ele>450.2</ele>
        <time>2014-10-26T08:40:07.000Z</time>
      </trkpt>
      <trkpt lat="47.51466" lon="6.7239">
        <ele>448.8</ele>
        <time>2014-10-26T08:40:08.000Z</time>
      </trkpt>
      <trkpt lat="47.51467" lon="6.72383">
        <ele>447.7</ele>
        <time>2014-10-26T08:40:09.000Z</time>
      </trkpt>
      <trkpt lat="47.51468" lon="6.72376">
        <ele>444.5</ele>
        <time>2014-10-26T08:40:10.000Z</time>
      </trkpt>
      <trkpt lat="47.5147" lon="6.72367">
        <ele>442.1</ele>
        <time>2014-10-26T08:40:11.000Z</time>
      </trkpt>
      <trkpt lat="47.5147" lon="6.7236">
        <ele>442.4</ele>
        <time>2014-10-26T08:40:12.000Z</time>
      </trkpt>
      <trkpt lat="47.51471" lon="6.72353">
        <ele>441</ele>
        <time>2014-10-26T08:40:13.000Z</time>
      </trkpt>
      <trkpt lat="47.51472" lon="6.72347">
        <ele>441.9</ele>
        <time>2014-10-26T08:40:14.000Z</time>
      </trkpt>
      <trkpt lat="47.51473" lon="6.72342">
        <ele>443.1</ele>
        <time>2014-10-26T08:40:15.000Z</time>
      </trkpt>
      <trkpt lat="47.51475" lon="6.72338">
        <ele>443.5</ele>
        <time>2014-10-26T08:40:16.000Z</time>
      </trkpt>
      <trkpt lat="47.51476" lon="6.72335">
        <ele>443.5</ele>
        <time>2014-10-26T08:40:17.000Z</time>
      </trkpt>
      <trkpt lat="47.51477" lon="6.72332">
        <ele>442.8</ele>
        <time>2014-10-26T08:40:18.000Z</time>
      </trkpt>
      <trkpt lat="47.51478" lon="6.72329">
        <ele>442</ele>
        <time>2014-10-26T08:40:19.000Z</time>
      </trkpt>
      <trkpt lat="47.5148" lon="6.72326">
        <ele>441.4</ele>
        <time>2014-10-26T08:40:20.000Z</time>
      </trkpt>
      <trkpt lat="47.51483" lon="6.72323">
        <ele>440.5</ele>
        <time>2014-10-26T08:40:21.000Z</time>
      </trkpt>
      <trkpt lat="47.51486" lon="6.72319">
        <ele>439.4</ele>
        <time>2014-10-26T08:40:22.000Z</time>
      </trkpt>
      <trkpt lat="47.5149" lon="6.72315">
        <ele>438.7</ele>
        <time>2014-10-26T08:40:23.000Z</time>
      </trkpt>
      <trkpt lat="47.51495" lon="6.72311">
        <ele>438.1</ele>
        <time>2014-10-26T08:40:24.000Z</time>
      </trkpt>
      <trkpt lat="47.51508" lon="6.72297">
        <ele>437.2</ele>
        <time>2014-10-26T08:40:25.000Z</time>
      </trkpt>
      <trkpt lat="47.51514" lon="6.72295">
        <ele>436.5</ele>
        <time>2014-10-26T08:40:26.000Z</time>
      </trkpt>
      <trkpt lat="47.51521" lon="6.72293">
        <ele>435.6</ele>
        <time>2014-10-26T08:40:27.000Z</time>
      </trkpt>
      <trkpt lat="47.51525" lon="6.72292">
        <ele>435.3</ele>
        <time>2014-10-26T08:40:28.000Z</time>
      </trkpt>
      <trkpt lat="47.5153" lon="6.72289">
        <ele>434.6</ele>
        <time>2014-10-26T08:40:29.000Z</time>
      </trkpt>
      <trkpt lat="47.51534" lon="6.72285">
        <ele>433.8</ele>
        <time>2014-10-26T08:40:30.000Z</time>
      </trkpt>
      <trkpt lat="47.51534" lon="6.7228">
        <ele>433.8</ele>
        <time>2014-10-26T08:40:32.000Z</time>
      </trkpt>
      <trkpt lat="47.51538" lon="6.72275">
        <ele>420.4</ele>
        <time>2014-10-26T08:40:35.000Z</time>
      </trkpt>
      <trkpt lat="47.51539" lon="6.72275">
        <ele>420.4</ele>
        <time>2014-10-26T08:40:36.000Z</time>
      </trkpt>
      <trkpt lat="47.51542" lon="6.72272">
        <ele>420</ele>
        <time>2014-10-26T08:40:37.000Z</time>
      </trkpt>
      <trkpt lat="47.51546" lon="6.72269">
        <ele>420.2</ele>
        <time>2014-10-26T08:40:38.000Z</time>
      </trkpt>
      <trkpt lat="47.51549" lon="6.72267">
        <ele>420.1</ele>
        <time>2014-10-26T08:40:39.000Z</time>
      </trkpt>
      <trkpt lat="47.51553" lon="6.72265">
        <ele>423.9</ele>
        <time>2014-10-26T08:40:40.000Z</time>
      </trkpt>
      <trkpt lat="47.51557" lon="6.72263">
        <ele>424</ele>
        <time>2014-10-26T08:40:41.000Z</time>
      </trkpt>
      <trkpt lat="47.51562" lon="6.72261">
        <ele>424.6</ele>
        <time>2014-10-26T08:40:42.000Z</time>
      </trkpt>
      <trkpt lat="47.51566" lon="6.72259">
        <ele>425.2</ele>
        <time>2014-10-26T08:40:43.000Z</time>
      </trkpt>
      <trkpt lat="47.5157" lon="6.72258">
        <ele>425.5</ele>
        <time>2014-10-26T08:40:44.000Z</time>
      </trkpt>
      <trkpt lat="47.51574" lon="6.72257">
        <ele>426.5</ele>
        <time>2014-10-26T08:40:45.000Z</time>
      </trkpt>
      <trkpt lat="47.51577" lon="6.72256">
        <ele>426.7</ele>
        <time>2014-10-26T08:40:46.000Z</time>
      </trkpt>
      <trkpt lat="47.5158" lon="6.72255">
        <ele>426.8</ele>
        <time>2014-10-26T08:40:47.000Z</time>
      </trkpt>
      <trkpt lat="47.51583" lon="6.72254">
        <ele>427.2</ele>
        <time>2014-10-26T08:40:48.000Z</time>
      </trkpt>
      <trkpt lat="47.51586" lon="6.72253">
        <ele>427.9</ele>
        <time>2014-10-26T08:40:49.000Z</time>
      </trkpt>
      <trkpt lat="47.51591" lon="6.72252">
        <ele>428.7</ele>
        <time>2014-10-26T08:40:50.000Z</time>
      </trkpt>
      <trkpt lat="47.51595" lon="6.7225">
        <ele>428</ele>
        <time>2014-10-26T08:40:51.000Z</time>
      </trkpt>
      <trkpt lat="47.51601" lon="6.72247">
        <ele>428.4</ele>
        <time>2014-10-26T08:40:52.000Z</time>
      </trkpt>
      <trkpt lat="47.51606" lon="6.72244">
        <ele>428.6</ele>
        <time>2014-10-26T08:40:53.000Z</time>
      </trkpt>
      <trkpt lat="47.51612" lon="6.72241">
        <ele>428.9</ele>
        <time>2014-10-26T08:40:54.000Z</time>
      </trkpt>
      <trkpt lat="47.51617" lon="6.72239">
        <ele>428.7</ele>
        <time>2014-10-26T08:40:55.000Z</time>
      </trkpt>
      <trkpt lat="47.51623" lon="6.72237">
        <ele>429.1</ele>
        <time>2014-10-26T08:40:56.000Z</time>
      </trkpt>
      <trkpt lat="47.51629" lon="6.72236">
        <ele>429.1</ele>
        <time>2014-10-26T08:40:57.000Z</time>
      </trkpt>
      <trkpt lat="47.51648" lon="6.72229">
        <ele>428.4</ele>
        <time>2014-10-26T08:40:58.000Z</time>
      </trkpt>
      <trkpt lat="47.51656" lon="6.72224">
        <ele>428.1</ele>
        <time>2014-10-26T08:40:59.000Z</time>
      </trkpt>
      <trkpt lat="47.51666" lon="6.72222">
        <ele>428.2</ele>
        <time>2014-10-26T08:41:00.000Z</time>
      </trkpt>
      <trkpt lat="47.51671" lon="6.72219">
        <ele>428.2</ele>
        <time>2014-10-26T08:41:01.000Z</time>
      </trkpt>
      <trkpt lat="47.51677" lon="6.72217">
        <ele>428.9</ele>
        <time>2014-10-26T08:41:02.000Z</time>
      </trkpt>
      <trkpt lat="47.51683" lon="6.72215">
        <ele>429.4</ele>
        <time>2014-10-26T08:41:03.000Z</time>
      </trkpt>
      <trkpt lat="47.51692" lon="6.72215">
        <ele>430.1</ele>
        <time>2014-10-26T08:41:04.000Z</time>
      </trkpt>
      <trkpt lat="47.51697" lon="6.72214">
        <ele>430.5</ele>
        <time>2014-10-26T08:41:05.000Z</time>
      </trkpt>
      <trkpt lat="47.51705" lon="6.72215">
        <ele>429.1</ele>
        <time>2014-10-26T08:41:06.000Z</time>
      </trkpt>
      <trkpt lat="47.51712" lon="6.72214">
        <ele>428.5</ele>
        <time>2014-10-26T08:41:07.000Z</time>
      </trkpt>
      <trkpt lat="47.5172" lon="6.72217">
        <ele>427.7</ele>
        <time>2014-10-26T08:41:08.000Z</time>
      </trkpt>
      <trkpt lat="47.51728" lon="6.72218">
        <ele>427</ele>
        <time>2014-10-26T08:41:09.000Z</time>
      </trkpt>
      <trkpt lat="47.51735" lon="6.7222">
        <ele>426.5</ele>
        <time>2014-10-26T08:41:10.000Z</time>
      </trkpt>
      <trkpt lat="47.5174" lon="6.72218">
        <ele>425.9</ele>
        <time>2014-10-26T08:41:11.000Z</time>
      </trkpt>
      <trkpt lat="47.51747" lon="6.72219">
        <ele>426.6</ele>
        <time>2014-10-26T08:41:12.000Z</time>
      </trkpt>
      <trkpt lat="47.51752" lon="6.72221">
        <ele>426.9</ele>
        <time>2014-10-26T08:41:13.000Z</time>
      </trkpt>
      <trkpt lat="47.51758" lon="6.72223">
        <ele>426.8</ele>
        <time>2014-10-26T08:41:14.000Z</time>
      </trkpt>
      <trkpt lat="47.51763" lon="6.72224">
        <ele>426.9</ele>
        <time>2014-10-26T08:41:15.000Z</time>
      </trkpt>
      <trkpt lat="47.51768" lon="6.72227">
        <ele>426.5</ele>
        <time>2014-10-26T08:41:16.000Z</time>
      </trkpt>
      <trkpt lat="47.51773" lon="6.72229">
        <ele>426</ele>
        <time>2014-10-26T08:41:17.000Z</time>
      </trkpt>
      <trkpt lat="47.51781" lon="6.72229">
        <ele>425.1</ele>
        <time>2014-10-26T08:41:18.000Z</time>
      </trkpt>
      <trkpt lat="47.51788" lon="6.72228">
        <ele>424.7</ele>
        <time>2014-10-26T08:41:19.000Z</time>
      </trkpt>
      <trkpt lat="47.51793" lon="6.72229">
        <ele>425.3</ele>
        <time>2014-10-26T08:41:20.000Z</time>
      </trkpt>
      <trkpt lat="47.51798" lon="6.7223">
        <ele>425.6</ele>
        <time>2014-10-26T08:41:21.000Z</time>
      </trkpt>
      <trkpt lat="47.51807" lon="6.7223">
        <ele>426</ele>
        <time>2014-10-26T08:41:22.000Z</time>
      </trkpt>
      <trkpt lat="47.51813" lon="6.72231">
        <ele>426.7</ele>
        <time>2014-10-26T08:41:23.000Z</time>
      </trkpt>
      <trkpt lat="47.5182" lon="6.72231">
        <ele>426.5</ele>
        <time>2014-10-26T08:41:24.000Z</time>
      </trkpt>
      <trkpt lat="47.51825" lon="6.72228">
        <ele>425.6</ele>
        <time>2014-10-26T08:41:25.000Z</time>
      </trkpt>
      <trkpt lat="47.51829" lon="6.72228">
        <ele>424.8</ele>
        <time>2014-10-26T08:41:26.000Z</time>
      </trkpt>
      <trkpt lat="47.51832" lon="6.72226">
        <ele>424</ele>
        <time>2014-10-26T08:41:27.000Z</time>
      </trkpt>
      <trkpt lat="47.51835" lon="6.72227">
        <ele>424.2</ele>
        <time>2014-10-26T08:41:28.000Z</time>
      </trkpt>
      <trkpt lat="47.51838" lon="6.72225">
        <ele>426.4</ele>
        <time>2014-10-26T08:41:29.000Z</time>
      </trkpt>
      <trkpt lat="47.51841" lon="6.72223">
        <ele>426.6</ele>
        <time>2014-10-26T08:41:30.000Z</time>
      </trkpt>
      <trkpt lat="47.51845" lon="6.72223">
        <ele>427.1</ele>
        <time>2014-10-26T08:41:31.000Z</time>
      </trkpt>
      <trkpt lat="47.51847" lon="6.72224">
        <ele>427.9</ele>
        <time>2014-10-26T08:41:32.000Z</time>
      </trkpt>
      <trkpt lat="47.5185" lon="6.72224">
        <ele>428.2</ele>
        <time>2014-10-26T08:41:33.000Z</time>
      </trkpt>
      <trkpt lat="47.51867" lon="6.72225">
        <ele>409.4</ele>
        <time>2014-10-26T08:41:45.000Z</time>
      </trkpt>
      <trkpt lat="47.5187" lon="6.72223">
        <ele>408.7</ele>
        <time>2014-10-26T08:41:46.000Z</time>
      </trkpt>
      <trkpt lat="47.51873" lon="6.7222">
        <ele>406.5</ele>
        <time>2014-10-26T08:41:47.000Z</time>
      </trkpt>
      <trkpt lat="47.51876" lon="6.72218">
        <ele>406.1</ele>
        <time>2014-10-26T08:41:48.000Z</time>
      </trkpt>
      <trkpt lat="47.5188" lon="6.72216">
        <ele>405.3</ele>
        <time>2014-10-26T08:41:49.000Z</time>
      </trkpt>
      <trkpt lat="47.51884" lon="6.72216">
        <ele>408.2</ele>
        <time>2014-10-26T08:41:50.000Z</time>
      </trkpt>
      <trkpt lat="47.51888" lon="6.72216">
        <ele>409.5</ele>
        <time>2014-10-26T08:41:51.000Z</time>
      </trkpt>
      <trkpt lat="47.51892" lon="6.72216">
        <ele>409.8</ele>
        <time>2014-10-26T08:41:52.000Z</time>
      </trkpt>
      <trkpt lat="47.51897" lon="6.72216">
        <ele>409.4</ele>
        <time>2014-10-26T08:41:53.000Z</time>
      </trkpt>
      <trkpt lat="47.51901" lon="6.72217">
        <ele>408.8</ele>
        <time>2014-10-26T08:41:54.000Z</time>
      </trkpt>
      <trkpt lat="47.51905" lon="6.72218">
        <ele>409</ele>
        <time>2014-10-26T08:41:55.000Z</time>
      </trkpt>
      <trkpt lat="47.51908" lon="6.7222">
        <ele>409</ele>
        <time>2014-10-26T08:41:56.000Z</time>
      </trkpt>
      <trkpt lat="47.51912" lon="6.72221">
        <ele>408.8</ele>
        <time>2014-10-26T08:41:57.000Z</time>
      </trkpt>
      <trkpt lat="47.51915" lon="6.72223">
        <ele>408</ele>
        <time>2014-10-26T08:41:58.000Z</time>
      </trkpt>
      <trkpt lat="47.51918" lon="6.72224">
        <ele>407.3</ele>
        <time>2014-10-26T08:41:59.000Z</time>
      </trkpt>
      <trkpt lat="47.51922" lon="6.72225">
        <ele>407.4</ele>
        <time>2014-10-26T08:42:00.000Z</time>
      </trkpt>
      <trkpt lat="47.51925" lon="6.72225">
        <ele>406.2</ele>
        <time>2014-10-26T08:42:01.000Z</time>
      </trkpt>
      <trkpt lat="47.51928" lon="6.72225">
        <ele>407</ele>
        <time>2014-10-26T08:42:02.000Z</time>
      </trkpt>
      <trkpt lat="47.51931" lon="6.72226">
        <ele>407.7</ele>
        <time>2014-10-26T08:42:03.000Z</time>
      </trkpt>
      <trkpt lat="47.51934" lon="6.72226">
        <ele>408.8</ele>
        <time>2014-10-26T08:42:04.000Z</time>
      </trkpt>
      <trkpt lat="47.51938" lon="6.72227">
        <ele>409.4</ele>
        <time>2014-10-26T08:42:05.000Z</time>
      </trkpt>
      <trkpt lat="47.51941" lon="6.72228">
        <ele>410.2</ele>
        <time>2014-10-26T08:42:06.000Z</time>
      </trkpt>
      <trkpt lat="47.51943" lon="6.72229">
        <ele>409.8</ele>
        <time>2014-10-26T08:42:07.000Z</time>
      </trkpt>
      <trkpt lat="47.51946" lon="6.7223">
        <ele>409.7</ele>
        <time>2014-10-26T08:42:08.000Z</time>
      </trkpt>
      <trkpt lat="47.51949" lon="6.7223">
        <ele>408.3</ele>
        <time>2014-10-26T08:42:09.000Z</time>
      </trkpt>
      <trkpt lat="47.51952" lon="6.7223">
        <ele>408.1</ele>
        <time>2014-10-26T08:42:10.000Z</time>
      </trkpt>
      <trkpt lat="47.51955" lon="6.7223">
        <ele>406.9</ele>
        <time>2014-10-26T08:42:11.000Z</time>
      </trkpt>
      <trkpt lat="47.51958" lon="6.7223">
        <ele>407.9</ele>
        <time>2014-10-26T08:42:12.000Z</time>
      </trkpt>
      <trkpt lat="47.51961" lon="6.7223">
        <ele>407.9</ele>
        <time>2014-10-26T08:42:13.000Z</time>
      </trkpt>
      <trkpt lat="47.51964" lon="6.7223">
        <ele>408</ele>
        <time>2014-10-26T08:42:14.000Z</time>
      </trkpt>
      <trkpt lat="47.51966" lon="6.72229">
        <ele>408.2</ele>
        <time>2014-10-26T08:42:15.000Z</time>
      </trkpt>
      <trkpt lat="47.51969" lon="6.72229">
        <ele>409.1</ele>
        <time>2014-10-26T08:42:16.000Z</time>
      </trkpt>
      <trkpt lat="47.51971" lon="6.72228">
        <ele>409.2</ele>
        <time>2014-10-26T08:42:17.000Z</time>
      </trkpt>
      <trkpt lat="47.51976" lon="6.72227">
        <ele>411.3</ele>
        <time>2014-10-26T08:42:19.000Z</time>
      </trkpt>
      <trkpt lat="47.51978" lon="6.72226">
        <ele>412.6</ele>
        <time>2014-10-26T08:42:20.000Z</time>
      </trkpt>
      <trkpt lat="47.5198" lon="6.72224">
        <ele>414.3</ele>
        <time>2014-10-26T08:42:22.000Z</time>
      </trkpt>
      <trkpt lat="47.51981" lon="6.72222">
        <ele>414.5</ele>
        <time>2014-10-26T08:42:23.000Z</time>
      </trkpt>
      <trkpt lat="47.51984" lon="6.72219">
        <ele>418.6</ele>
        <time>2014-10-26T08:42:26.000Z</time>
      </trkpt>
      <trkpt lat="47.51985" lon="6.72218">
        <ele>419.9</ele>
        <time>2014-10-26T08:42:27.000Z</time>
      </trkpt>
      <trkpt lat="47.51987" lon="6.72214">
        <ele>421.4</ele>
        <time>2014-10-26T08:42:30.000Z</time>
      </trkpt>
      <trkpt lat="47.51988" lon="6.72212">
        <ele>423</ele>
        <time>2014-10-26T08:42:31.000Z</time>
      </trkpt>
      <trkpt lat="47.5199" lon="6.72209">
        <ele>423.2</ele>
        <time>2014-10-26T08:42:33.000Z</time>
      </trkpt>
      <trkpt lat="47.51998" lon="6.72192">
        <ele>419.4</ele>
        <time>2014-10-26T08:42:41.000Z</time>
      </trkpt>
      <trkpt lat="47.52" lon="6.72187">
        <ele>420.5</ele>
        <time>2014-10-26T08:42:43.000Z</time>
      </trkpt>
      <trkpt lat="47.52001" lon="6.72184">
        <ele>423.4</ele>
        <time>2014-10-26T08:42:44.000Z</time>
      </trkpt>
      <trkpt lat="47.52002" lon="6.72181">
        <ele>424.7</ele>
        <time>2014-10-26T08:42:45.000Z</time>
      </trkpt>
      <trkpt lat="47.52004" lon="6.72177">
        <ele>425.9</ele>
        <time>2014-10-26T08:42:46.000Z</time>
      </trkpt>
      <trkpt lat="47.52005" lon="6.72174">
        <ele>426.7</ele>
        <time>2014-10-26T08:42:47.000Z</time>
      </trkpt>
      <trkpt lat="47.52007" lon="6.7217">
        <ele>427.5</ele>
        <time>2014-10-26T08:42:48.000Z</time>
      </trkpt>
      <trkpt lat="47.52008" lon="6.72167">
        <ele>429</ele>
        <time>2014-10-26T08:42:49.000Z</time>
      </trkpt>
      <trkpt lat="47.52008" lon="6.72164">
        <ele>429.7</ele>
        <time>2014-10-26T08:42:50.000Z</time>
      </trkpt>
      <trkpt lat="47.52009" lon="6.72158">
        <ele>431.3</ele>
        <time>2014-10-26T08:42:52.000Z</time>
      </trkpt>
      <trkpt lat="47.5201" lon="6.72155">
        <ele>431.4</ele>
        <time>2014-10-26T08:42:53.000Z</time>
      </trkpt>
      <trkpt lat="47.52011" lon="6.72151">
        <ele>431.8</ele>
        <time>2014-10-26T08:42:54.000Z</time>
      </trkpt>
      <trkpt lat="47.52011" lon="6.72148">
        <ele>432.9</ele>
        <time>2014-10-26T08:42:55.000Z</time>
      </trkpt>
      <trkpt lat="47.52012" lon="6.72145">
        <ele>433.9</ele>
        <time>2014-10-26T08:42:56.000Z</time>
      </trkpt>
      <trkpt lat="47.52012" lon="6.72141">
        <ele>434.2</ele>
        <time>2014-10-26T08:42:57.000Z</time>
      </trkpt>
      <trkpt lat="47.52013" lon="6.72137">
        <ele>433.6</ele>
        <time>2014-10-26T08:42:58.000Z</time>
      </trkpt>
      <trkpt lat="47.52014" lon="6.72133">
        <ele>434.6</ele>
        <time>2014-10-26T08:42:59.000Z</time>
      </trkpt>
      <trkpt lat="47.52014" lon="6.72127">
        <ele>436.7</ele>
        <time>2014-10-26T08:43:01.000Z</time>
      </trkpt>
      <trkpt lat="47.52015" lon="6.72124">
        <ele>437.6</ele>
        <time>2014-10-26T08:43:02.000Z</time>
      </trkpt>
      <trkpt lat="47.52015" lon="6.72118">
        <ele>439.3</ele>
        <time>2014-10-26T08:43:05.000Z</time>
      </trkpt>
      <trkpt lat="47.52016" lon="6.72116">
        <ele>439.5</ele>
        <time>2014-10-26T08:43:06.000Z</time>
      </trkpt>
      <trkpt lat="47.52016" lon="6.72111">
        <ele>439.4</ele>
        <time>2014-10-26T08:43:08.000Z</time>
      </trkpt>
      <trkpt lat="47.52017" lon="6.72108">
        <ele>439</ele>
        <time>2014-10-26T08:43:09.000Z</time>
      </trkpt>
      <trkpt lat="47.52017" lon="6.72102">
        <ele>439.5</ele>
        <time>2014-10-26T08:43:11.000Z</time>
      </trkpt>
      <trkpt lat="47.52017" lon="6.72099">
        <ele>440.5</ele>
        <time>2014-10-26T08:43:12.000Z</time>
      </trkpt>
      <trkpt lat="47.52018" lon="6.72093">
        <ele>440.5</ele>
        <time>2014-10-26T08:43:14.000Z</time>
      </trkpt>
      <trkpt lat="47.52018" lon="6.72089">
        <ele>440.7</ele>
        <time>2014-10-26T08:43:15.000Z</time>
      </trkpt>
      <trkpt lat="47.52019" lon="6.72086">
        <ele>440.4</ele>
        <time>2014-10-26T08:43:16.000Z</time>
      </trkpt>
      <trkpt lat="47.52019" lon="6.72082">
        <ele>438.8</ele>
        <time>2014-10-26T08:43:17.000Z</time>
      </trkpt>
      <trkpt lat="47.5202" lon="6.72078">
        <ele>437.4</ele>
        <time>2014-10-26T08:43:18.000Z</time>
      </trkpt>
      <trkpt lat="47.5202" lon="6.72074">
        <ele>437.8</ele>
        <time>2014-10-26T08:43:19.000Z</time>
      </trkpt>
      <trkpt lat="47.52021" lon="6.72071">
        <ele>437.9</ele>
        <time>2014-10-26T08:43:20.000Z</time>
      </trkpt>
      <trkpt lat="47.52021" lon="6.72066">
        <ele>437.6</ele>
        <time>2014-10-26T08:43:21.000Z</time>
      </trkpt>
      <trkpt lat="47.52022" lon="6.72062">
        <ele>437.1</ele>
        <time>2014-10-26T08:43:22.000Z</time>
      </trkpt>
      <trkpt lat="47.52022" lon="6.72057">
        <ele>438.1</ele>
        <time>2014-10-26T08:43:23.000Z</time>
      </trkpt>
      <trkpt lat="47.52023" lon="6.72052">
        <ele>437.8</ele>
        <time>2014-10-26T08:43:24.000Z</time>
      </trkpt>
      <trkpt lat="47.52023" lon="6.72048">
        <ele>437.7</ele>
        <time>2014-10-26T08:43:25.000Z</time>
      </trkpt>
      <trkpt lat="47.52024" lon="6.72045">
        <ele>438.4</ele>
        <time>2014-10-26T08:43:26.000Z</time>
      </trkpt>
      <trkpt lat="47.52024" lon="6.72041">
        <ele>439.8</ele>
        <time>2014-10-26T08:43:27.000Z</time>
      </trkpt>
      <trkpt lat="47.52024" lon="6.72035">
        <ele>440.3</ele>
        <time>2014-10-26T08:43:29.000Z</time>
      </trkpt>
      <trkpt lat="47.52024" lon="6.72032">
        <ele>439.7</ele>
        <time>2014-10-26T08:43:30.000Z</time>
      </trkpt>
      <trkpt lat="47.52024" lon="6.72025">
        <ele>438.3</ele>
        <time>2014-10-26T08:43:32.000Z</time>
      </trkpt>
      <trkpt lat="47.52024" lon="6.72018">
        <ele>439.5</ele>
        <time>2014-10-26T08:43:35.000Z</time>
      </trkpt>
      <trkpt lat="47.52024" lon="6.72013">
        <ele>439.8</ele>
        <time>2014-10-26T08:43:37.000Z</time>
      </trkpt>
      <trkpt lat="47.52024" lon="6.7201">
        <ele>440.2</ele>
        <time>2014-10-26T08:43:38.000Z</time>
      </trkpt>
      <trkpt lat="47.52024" lon="6.72006">
        <ele>441.4</ele>
        <time>2014-10-26T08:43:39.000Z</time>
      </trkpt>
      <trkpt lat="47.52024" lon="6.72003">
        <ele>443</ele>
        <time>2014-10-26T08:43:40.000Z</time>
      </trkpt>
      <trkpt lat="47.52025" lon="6.71997">
        <ele>444.7</ele>
        <time>2014-10-26T08:43:42.000Z</time>
      </trkpt>
      <trkpt lat="47.52025" lon="6.71994">
        <ele>444.5</ele>
        <time>2014-10-26T08:43:43.000Z</time>
      </trkpt>
      <trkpt lat="47.52027" lon="6.71988">
        <ele>446.2</ele>
        <time>2014-10-26T08:43:45.000Z</time>
      </trkpt>
      <trkpt lat="47.52027" lon="6.71985">
        <ele>445.3</ele>
        <time>2014-10-26T08:43:46.000Z</time>
      </trkpt>
      <trkpt lat="47.52028" lon="6.71981">
        <ele>444.6</ele>
        <time>2014-10-26T08:43:47.000Z</time>
      </trkpt>
      <trkpt lat="47.52027" lon="6.71978">
        <ele>444.2</ele>
        <time>2014-10-26T08:43:48.000Z</time>
      </trkpt>
      <trkpt lat="47.52027" lon="6.71974">
        <ele>445.3</ele>
        <time>2014-10-26T08:43:49.000Z</time>
      </trkpt>
      <trkpt lat="47.52027" lon="6.7197">
        <ele>445.2</ele>
        <time>2014-10-26T08:43:50.000Z</time>
      </trkpt>
      <trkpt lat="47.52027" lon="6.71967">
        <ele>444.8</ele>
        <time>2014-10-26T08:43:51.000Z</time>
      </trkpt>
      <trkpt lat="47.52028" lon="6.71964">
        <ele>444.2</ele>
        <time>2014-10-26T08:43:52.000Z</time>
      </trkpt>
      <trkpt lat="47.52028" lon="6.7196">
        <ele>444.3</ele>
        <time>2014-10-26T08:43:53.000Z</time>
      </trkpt>
      <trkpt lat="47.52029" lon="6.71956">
        <ele>443.9</ele>
        <time>2014-10-26T08:43:54.000Z</time>
      </trkpt>
      <trkpt lat="47.52029" lon="6.71952">
        <ele>443.6</ele>
        <time>2014-10-26T08:43:55.000Z</time>
      </trkpt>
      <trkpt lat="47.52029" lon="6.71949">
        <ele>443</ele>
        <time>2014-10-26T08:43:56.000Z</time>
      </trkpt>
      <trkpt lat="47.52029" lon="6.71945">
        <ele>442.1</ele>
        <time>2014-10-26T08:43:57.000Z</time>
      </trkpt>
      <trkpt lat="47.52029" lon="6.71939">
        <ele>441.3</ele>
        <time>2014-10-26T08:43:58.000Z</time>
      </trkpt>
      <trkpt lat="47.52029" lon="6.71936">
        <ele>442.6</ele>
        <time>2014-10-26T08:43:59.000Z</time>
      </trkpt>
      <trkpt lat="47.52029" lon="6.71932">
        <ele>443.2</ele>
        <time>2014-10-26T08:44:00.000Z</time>
      </trkpt>
      <trkpt lat="47.5203" lon="6.71927">
        <ele>443.9</ele>
        <time>2014-10-26T08:44:02.000Z</time>
      </trkpt>
      <trkpt lat="47.5203" lon="6.71924">
        <ele>443.8</ele>
        <time>2014-10-26T08:44:03.000Z</time>
      </trkpt>
      <trkpt lat="47.5203" lon="6.7192">
        <ele>446</ele>
        <time>2014-10-26T08:44:04.000Z</time>
      </trkpt>
      <trkpt lat="47.52031" lon="6.71916">
        <ele>446.9</ele>
        <time>2014-10-26T08:44:05.000Z</time>
      </trkpt>
      <trkpt lat="47.52031" lon="6.71913">
        <ele>446.3</ele>
        <time>2014-10-26T08:44:06.000Z</time>
      </trkpt>
      <trkpt lat="47.52031" lon="6.71909">
        <ele>446.4</ele>
        <time>2014-10-26T08:44:07.000Z</time>
      </trkpt>
      <trkpt lat="47.52032" lon="6.71903">
        <ele>446.1</ele>
        <time>2014-10-26T08:44:09.000Z</time>
      </trkpt>
      <trkpt lat="47.52032" lon="6.719">
        <ele>445.6</ele>
        <time>2014-10-26T08:44:10.000Z</time>
      </trkpt>
      <trkpt lat="47.52032" lon="6.71894">
        <ele>447.5</ele>
        <time>2014-10-26T08:44:12.000Z</time>
      </trkpt>
      <trkpt lat="47.52033" lon="6.7189">
        <ele>447.4</ele>
        <time>2014-10-26T08:44:13.000Z</time>
      </trkpt>
      <trkpt lat="47.52033" lon="6.71886">
        <ele>446.6</ele>
        <time>2014-10-26T08:44:14.000Z</time>
      </trkpt>
      <trkpt lat="47.52033" lon="6.71883">
        <ele>445.5</ele>
        <time>2014-10-26T08:44:15.000Z</time>
      </trkpt>
      <trkpt lat="47.52033" lon="6.71879">
        <ele>445</ele>
        <time>2014-10-26T08:44:16.000Z</time>
      </trkpt>
      <trkpt lat="47.52033" lon="6.71875">
        <ele>444.9</ele>
        <time>2014-10-26T08:44:17.000Z</time>
      </trkpt>
      <trkpt lat="47.52034" lon="6.71871">
        <ele>444</ele>
        <time>2014-10-26T08:44:18.000Z</time>
      </trkpt>
      <trkpt lat="47.52034" lon="6.71867">
        <ele>443.2</ele>
        <time>2014-10-26T08:44:19.000Z</time>
      </trkpt>
      <trkpt lat="47.52035" lon="6.71862">
        <ele>442</ele>
        <time>2014-10-26T08:44:20.000Z</time>
      </trkpt>
      <trkpt lat="47.52036" lon="6.71858">
        <ele>440.2</ele>
        <time>2014-10-26T08:44:21.000Z</time>
      </trkpt>
      <trkpt lat="47.52036" lon="6.71853">
        <ele>438.5</ele>
        <time>2014-10-26T08:44:22.000Z</time>
      </trkpt>
      <trkpt lat="47.52037" lon="6.71847">
        <ele>438.6</ele>
        <time>2014-10-26T08:44:23.000Z</time>
      </trkpt>
      <trkpt lat="47.52038" lon="6.71842">
        <ele>436.2</ele>
        <time>2014-10-26T08:44:24.000Z</time>
      </trkpt>
      <trkpt lat="47.5204" lon="6.71836">
        <ele>434.7</ele>
        <time>2014-10-26T08:44:25.000Z</time>
      </trkpt>
      <trkpt lat="47.52041" lon="6.7183">
        <ele>431.3</ele>
        <time>2014-10-26T08:44:26.000Z</time>
      </trkpt>
      <trkpt lat="47.52042" lon="6.71825">
        <ele>430.8</ele>
        <time>2014-10-26T08:44:27.000Z</time>
      </trkpt>
      <trkpt lat="47.52043" lon="6.71819">
        <ele>430.9</ele>
        <time>2014-10-26T08:44:28.000Z</time>
      </trkpt>
      <trkpt lat="47.52044" lon="6.71815">
        <ele>429.8</ele>
        <time>2014-10-26T08:44:29.000Z</time>
      </trkpt>
      <trkpt lat="47.52045" lon="6.7181">
        <ele>427.9</ele>
        <time>2014-10-26T08:44:30.000Z</time>
      </trkpt>
      <trkpt lat="47.52046" lon="6.71805">
        <ele>427</ele>
        <time>2014-10-26T08:44:31.000Z</time>
      </trkpt>
      <trkpt lat="47.52046" lon="6.718">
        <ele>427.1</ele>
        <time>2014-10-26T08:44:32.000Z</time>
      </trkpt>
      <trkpt lat="47.52047" lon="6.71796">
        <ele>427.2</ele>
        <time>2014-10-26T08:44:33.000Z</time>
      </trkpt>
      <trkpt lat="47.52046" lon="6.71785">
        <ele>384.1</ele>
        <time>2014-10-26T08:44:36.000Z</time>
      </trkpt>
      <trkpt lat="47.52046" lon="6.71781">
        <ele>385.2</ele>
        <time>2014-10-26T08:44:37.000Z</time>
      </trkpt>
      <trkpt lat="47.52046" lon="6.71775">
        <ele>387.8</ele>
        <time>2014-10-26T08:44:38.000Z</time>
      </trkpt>
      <trkpt lat="47.52046" lon="6.71769">
        <ele>391</ele>
        <time>2014-10-26T08:44:39.000Z</time>
      </trkpt>
      <trkpt lat="47.52047" lon="6.71763">
        <ele>391.7</ele>
        <time>2014-10-26T08:44:40.000Z</time>
      </trkpt>
      <trkpt lat="47.52047" lon="6.71757">
        <ele>392.5</ele>
        <time>2014-10-26T08:44:41.000Z</time>
      </trkpt>
      <trkpt lat="47.52048" lon="6.71751">
        <ele>393.9</ele>
        <time>2014-10-26T08:44:42.000Z</time>
      </trkpt>
      <trkpt lat="47.52049" lon="6.71746">
        <ele>395</ele>
        <time>2014-10-26T08:44:43.000Z</time>
      </trkpt>
      <trkpt lat="47.52049" lon="6.71741">
        <ele>396.2</ele>
        <time>2014-10-26T08:44:44.000Z</time>
      </trkpt>
      <trkpt lat="47.5205" lon="6.71736">
        <ele>398.6</ele>
        <time>2014-10-26T08:44:45.000Z</time>
      </trkpt>
      <trkpt lat="47.52051" lon="6.71732">
        <ele>399.1</ele>
        <time>2014-10-26T08:44:46.000Z</time>
      </trkpt>
      <trkpt lat="47.52051" lon="6.71727">
        <ele>399.3</ele>
        <time>2014-10-26T08:44:47.000Z</time>
      </trkpt>
      <trkpt lat="47.52052" lon="6.71723">
        <ele>400.7</ele>
        <time>2014-10-26T08:44:48.000Z</time>
      </trkpt>
      <trkpt lat="47.52053" lon="6.71719">
        <ele>401.9</ele>
        <time>2014-10-26T08:44:49.000Z</time>
      </trkpt>
      <trkpt lat="47.52054" lon="6.71715">
        <ele>402.6</ele>
        <time>2014-10-26T08:44:50.000Z</time>
      </trkpt>
      <trkpt lat="47.52056" lon="6.71711">
        <ele>403.3</ele>
        <time>2014-10-26T08:44:51.000Z</time>
      </trkpt>
      <trkpt lat="47.52057" lon="6.71707">
        <ele>403.8</ele>
        <time>2014-10-26T08:44:52.000Z</time>
      </trkpt>
      <trkpt lat="47.52059" lon="6.71703">
        <ele>404.2</ele>
        <time>2014-10-26T08:44:53.000Z</time>
      </trkpt>
      <trkpt lat="47.5206" lon="6.71699">
        <ele>404.2</ele>
        <time>2014-10-26T08:44:54.000Z</time>
      </trkpt>
      <trkpt lat="47.52062" lon="6.71696">
        <ele>403.4</ele>
        <time>2014-10-26T08:44:55.000Z</time>
      </trkpt>
      <trkpt lat="47.52064" lon="6.71692">
        <ele>403.3</ele>
        <time>2014-10-26T08:44:56.000Z</time>
      </trkpt>
      <trkpt lat="47.52066" lon="6.71687">
        <ele>402.6</ele>
        <time>2014-10-26T08:44:57.000Z</time>
      </trkpt>
      <trkpt lat="47.52068" lon="6.71683">
        <ele>402.2</ele>
        <time>2014-10-26T08:44:58.000Z</time>
      </trkpt>
      <trkpt lat="47.52071" lon="6.71679">
        <ele>401.7</ele>
        <time>2014-10-26T08:44:59.000Z</time>
      </trkpt>
      <trkpt lat="47.52074" lon="6.71675">
        <ele>401.6</ele>
        <time>2014-10-26T08:45:00.000Z</time>
      </trkpt>
      <trkpt lat="47.52077" lon="6.7167">
        <ele>401.5</ele>
        <time>2014-10-26T08:45:01.000Z</time>
      </trkpt>
      <trkpt lat="47.5208" lon="6.71666">
        <ele>401.5</ele>
        <time>2014-10-26T08:45:02.000Z</time>
      </trkpt>
      <trkpt lat="47.52083" lon="6.71661">
        <ele>401.5</ele>
        <time>2014-10-26T08:45:03.000Z</time>
      </trkpt>
      <trkpt lat="47.52088" lon="6.71653">
        <ele>401.3</ele>
        <time>2014-10-26T08:45:04.000Z</time>
      </trkpt>
      <trkpt lat="47.52092" lon="6.71649">
        <ele>402.1</ele>
        <time>2014-10-26T08:45:05.000Z</time>
      </trkpt>
      <trkpt lat="47.52096" lon="6.71644">
        <ele>402.1</ele>
        <time>2014-10-26T08:45:06.000Z</time>
      </trkpt>
      <trkpt lat="47.521" lon="6.71638">
        <ele>402.6</ele>
        <time>2014-10-26T08:45:07.000Z</time>
      </trkpt>
      <trkpt lat="47.52104" lon="6.71631">
        <ele>402</ele>
        <time>2014-10-26T08:45:08.000Z</time>
      </trkpt>
      <trkpt lat="47.52108" lon="6.71626">
        <ele>401.7</ele>
        <time>2014-10-26T08:45:09.000Z</time>
      </trkpt>
      <trkpt lat="47.5211" lon="6.71621">
        <ele>403.5</ele>
        <time>2014-10-26T08:45:10.000Z</time>
      </trkpt>
      <trkpt lat="47.52113" lon="6.71616">
        <ele>403.9</ele>
        <time>2014-10-26T08:45:11.000Z</time>
      </trkpt>
      <trkpt lat="47.52117" lon="6.71612">
        <ele>404.2</ele>
        <time>2014-10-26T08:45:12.000Z</time>
      </trkpt>
      <trkpt lat="47.52121" lon="6.71607">
        <ele>404.2</ele>
        <time>2014-10-26T08:45:13.000Z</time>
      </trkpt>
      <trkpt lat="47.52124" lon="6.71605">
        <ele>404.7</ele>
        <time>2014-10-26T08:45:14.000Z</time>
      </trkpt>
      <trkpt lat="47.52131" lon="6.71606">
        <ele>407.3</ele>
        <time>2014-10-26T08:45:15.000Z</time>
      </trkpt>
      <trkpt lat="47.52135" lon="6.71605">
        <ele>407.7</ele>
        <time>2014-10-26T08:45:16.000Z</time>
      </trkpt>
      <trkpt lat="47.52138" lon="6.71605">
        <ele>407</ele>
        <time>2014-10-26T08:45:17.000Z</time>
      </trkpt>
      <trkpt lat="47.52142" lon="6.71604">
        <ele>406</ele>
        <time>2014-10-26T08:45:19.000Z</time>
      </trkpt>
      <trkpt lat="47.52143" lon="6.71604">
        <ele>406.2</ele>
        <time>2014-10-26T08:45:20.000Z</time>
      </trkpt>
      <trkpt lat="47.52145" lon="6.71598">
        <ele>404.9</ele>
        <time>2014-10-26T08:45:25.000Z</time>
      </trkpt>
      <trkpt lat="47.52145" lon="6.71597">
        <ele>404.7</ele>
        <time>2014-10-26T08:45:26.000Z</time>
      </trkpt>
      <trkpt lat="47.52149" lon="6.71593">
        <ele>406.2</ele>
        <time>2014-10-26T08:45:35.000Z</time>
      </trkpt>
      <trkpt lat="47.52149" lon="6.71594">
        <ele>405.9</ele>
        <time>2014-10-26T08:45:36.000Z</time>
      </trkpt>
      <trkpt lat="47.52151" lon="6.71599">
        <ele>401.8</ele>
        <time>2014-10-26T08:45:40.000Z</time>
      </trkpt>
      <trkpt lat="47.52151" lon="6.716">
        <ele>401.9</ele>
        <time>2014-10-26T08:45:41.000Z</time>
      </trkpt>
      <trkpt lat="47.5215" lon="6.71596">
        <ele>401.9</ele>
        <time>2014-10-26T08:45:47.000Z</time>
      </trkpt>
      <trkpt lat="47.52151" lon="6.71593">
        <ele>401.9</ele>
        <time>2014-10-26T08:45:48.000Z</time>
      </trkpt>
      <trkpt lat="47.52152" lon="6.7159">
        <ele>402.6</ele>
        <time>2014-10-26T08:45:49.000Z</time>
      </trkpt>
      <trkpt lat="47.52153" lon="6.71585">
        <ele>401.8</ele>
        <time>2014-10-26T08:45:50.000Z</time>
      </trkpt>
      <trkpt lat="47.52154" lon="6.7158">
        <ele>401.3</ele>
        <time>2014-10-26T08:45:51.000Z</time>
      </trkpt>
      <trkpt lat="47.52155" lon="6.71574">
        <ele>400.9</ele>
        <time>2014-10-26T08:45:52.000Z</time>
      </trkpt>
      <trkpt lat="47.52156" lon="6.71569">
        <ele>400.6</ele>
        <time>2014-10-26T08:45:53.000Z</time>
      </trkpt>
      <trkpt lat="47.52156" lon="6.71563">
        <ele>399.7</ele>
        <time>2014-10-26T08:45:54.000Z</time>
      </trkpt>
      <trkpt lat="47.52157" lon="6.71557">
        <ele>400.1</ele>
        <time>2014-10-26T08:45:55.000Z</time>
      </trkpt>
      <trkpt lat="47.52158" lon="6.71552">
        <ele>399.8</ele>
        <time>2014-10-26T08:45:56.000Z</time>
      </trkpt>
      <trkpt lat="47.52159" lon="6.71546">
        <ele>399.1</ele>
        <time>2014-10-26T08:45:57.000Z</time>
      </trkpt>
      <trkpt lat="47.52159" lon="6.7154">
        <ele>398.7</ele>
        <time>2014-10-26T08:45:58.000Z</time>
      </trkpt>
      <trkpt lat="47.52159" lon="6.71535">
        <ele>398.7</ele>
        <time>2014-10-26T08:45:59.000Z</time>
      </trkpt>
      <trkpt lat="47.5216" lon="6.71529">
        <ele>398.1</ele>
        <time>2014-10-26T08:46:00.000Z</time>
      </trkpt>
      <trkpt lat="47.5216" lon="6.71524">
        <ele>397.9</ele>
        <time>2014-10-26T08:46:01.000Z</time>
      </trkpt>
      <trkpt lat="47.5216" lon="6.71518">
        <ele>398.1</ele>
        <time>2014-10-26T08:46:02.000Z</time>
      </trkpt>
      <trkpt lat="47.52161" lon="6.71512">
        <ele>398</ele>
        <time>2014-10-26T08:46:03.000Z</time>
      </trkpt>
      <trkpt lat="47.52161" lon="6.71505">
        <ele>397.3</ele>
        <time>2014-10-26T08:46:04.000Z</time>
      </trkpt>
      <trkpt lat="47.5216" lon="6.71496">
        <ele>397.3</ele>
        <time>2014-10-26T08:46:05.000Z</time>
      </trkpt>
      <trkpt lat="47.5216" lon="6.71488">
        <ele>396.7</ele>
        <time>2014-10-26T08:46:06.000Z</time>
      </trkpt>
      <trkpt lat="47.52159" lon="6.71479">
        <ele>396.6</ele>
        <time>2014-10-26T08:46:07.000Z</time>
      </trkpt>
      <trkpt lat="47.52159" lon="6.71472">
        <ele>397.5</ele>
        <time>2014-10-26T08:46:08.000Z</time>
      </trkpt>
      <trkpt lat="47.52159" lon="6.71463">
        <ele>396.4</ele>
        <time>2014-10-26T08:46:09.000Z</time>
      </trkpt>
      <trkpt lat="47.52159" lon="6.71453">
        <ele>395.5</ele>
        <time>2014-10-26T08:46:10.000Z</time>
      </trkpt>
      <trkpt lat="47.52157" lon="6.71444">
        <ele>395.6</ele>
        <time>2014-10-26T08:46:11.000Z</time>
      </trkpt>
      <trkpt lat="47.52155" lon="6.71434">
        <ele>394.7</ele>
        <time>2014-10-26T08:46:12.000Z</time>
      </trkpt>
      <trkpt lat="47.52152" lon="6.71425">
        <ele>394.5</ele>
        <time>2014-10-26T08:46:13.000Z</time>
      </trkpt>
      <trkpt lat="47.52149" lon="6.71416">
        <ele>393.7</ele>
        <time>2014-10-26T08:46:14.000Z</time>
      </trkpt>
      <trkpt lat="47.52146" lon="6.71406">
        <ele>393.4</ele>
        <time>2014-10-26T08:46:15.000Z</time>
      </trkpt>
      <trkpt lat="47.52142" lon="6.71396">
        <ele>392.2</ele>
        <time>2014-10-26T08:46:16.000Z</time>
      </trkpt>
      <trkpt lat="47.52139" lon="6.71387">
        <ele>391.4</ele>
        <time>2014-10-26T08:46:17.000Z</time>
      </trkpt>
      <trkpt lat="47.52137" lon="6.71376">
        <ele>390.5</ele>
        <time>2014-10-26T08:46:18.000Z</time>
      </trkpt>
      <trkpt lat="47.52138" lon="6.71365">
        <ele>389.5</ele>
        <time>2014-10-26T08:46:19.000Z</time>
      </trkpt>
      <trkpt lat="47.52139" lon="6.71353">
        <ele>388.4</ele>
        <time>2014-10-26T08:46:20.000Z</time>
      </trkpt>
      <trkpt lat="47.52142" lon="6.71345">
        <ele>388</ele>
        <time>2014-10-26T08:46:21.000Z</time>
      </trkpt>
      <trkpt lat="47.52146" lon="6.71337">
        <ele>387.8</ele>
        <time>2014-10-26T08:46:22.000Z</time>
      </trkpt>
      <trkpt lat="47.52155" lon="6.71331">
        <ele>388.2</ele>
        <time>2014-10-26T08:46:23.000Z</time>
      </trkpt>
      <trkpt lat="47.52161" lon="6.71325">
        <ele>388.1</ele>
        <time>2014-10-26T08:46:24.000Z</time>
      </trkpt>
      <trkpt lat="47.52167" lon="6.71319">
        <ele>388.4</ele>
        <time>2014-10-26T08:46:25.000Z</time>
      </trkpt>
      <trkpt lat="47.52172" lon="6.71313">
        <ele>388.5</ele>
        <time>2014-10-26T08:46:26.000Z</time>
      </trkpt>
      <trkpt lat="47.5218" lon="6.71305">
        <ele>387.2</ele>
        <time>2014-10-26T08:46:27.000Z</time>
      </trkpt>
      <trkpt lat="47.52188" lon="6.71297">
        <ele>387.3</ele>
        <time>2014-10-26T08:46:28.000Z</time>
      </trkpt>
      <trkpt lat="47.52195" lon="6.71289">
        <ele>386.8</ele>
        <time>2014-10-26T08:46:29.000Z</time>
      </trkpt>
      <trkpt lat="47.52202" lon="6.71282">
        <ele>386.5</ele>
        <time>2014-10-26T08:46:30.000Z</time>
      </trkpt>
      <trkpt lat="47.52209" lon="6.71275">
        <ele>385.7</ele>
        <time>2014-10-26T08:46:31.000Z</time>
      </trkpt>
      <trkpt lat="47.52216" lon="6.71268">
        <ele>384.4</ele>
        <time>2014-10-26T08:46:32.000Z</time>
      </trkpt>
      <trkpt lat="47.52229" lon="6.71253">
        <ele>384.3</ele>
        <time>2014-10-26T08:46:35.000Z</time>
      </trkpt>
      <trkpt lat="47.52233" lon="6.7125">
        <ele>384.5</ele>
        <time>2014-10-26T08:46:36.000Z</time>
      </trkpt>
      <trkpt lat="47.52236" lon="6.71246">
        <ele>384.5</ele>
        <time>2014-10-26T08:46:37.000Z</time>
      </trkpt>
      <trkpt lat="47.52239" lon="6.71244">
        <ele>383.7</ele>
        <time>2014-10-26T08:46:38.000Z</time>
      </trkpt>
      <trkpt lat="47.52242" lon="6.71242">
        <ele>383.2</ele>
        <time>2014-10-26T08:46:39.000Z</time>
      </trkpt>
      <trkpt lat="47.52245" lon="6.71238">
        <ele>382.6</ele>
        <time>2014-10-26T08:46:40.000Z</time>
      </trkpt>
      <trkpt lat="47.52247" lon="6.71235">
        <ele>382.3</ele>
        <time>2014-10-26T08:46:41.000Z</time>
      </trkpt>
      <trkpt lat="47.52249" lon="6.71233">
        <ele>381.7</ele>
        <time>2014-10-26T08:46:42.000Z</time>
      </trkpt>
      <trkpt lat="47.52251" lon="6.71232">
        <ele>381.6</ele>
        <time>2014-10-26T08:46:43.000Z</time>
      </trkpt>
      <trkpt lat="47.52254" lon="6.71232">
        <ele>381.3</ele>
        <time>2014-10-26T08:46:44.000Z</time>
      </trkpt>
      <trkpt lat="47.52257" lon="6.71231">
        <ele>380.9</ele>
        <time>2014-10-26T08:46:45.000Z</time>
      </trkpt>
      <trkpt lat="47.52259" lon="6.7123">
        <ele>379.7</ele>
        <time>2014-10-26T08:46:46.000Z</time>
      </trkpt>
      <trkpt lat="47.52262" lon="6.71229">
        <ele>379</ele>
        <time>2014-10-26T08:46:47.000Z</time>
      </trkpt>
      <trkpt lat="47.52264" lon="6.71228">
        <ele>378.9</ele>
        <time>2014-10-26T08:46:48.000Z</time>
      </trkpt>
      <trkpt lat="47.52267" lon="6.71226">
        <ele>378.8</ele>
        <time>2014-10-26T08:46:49.000Z</time>
      </trkpt>
      <trkpt lat="47.52269" lon="6.71224">
        <ele>378.6</ele>
        <time>2014-10-26T08:46:50.000Z</time>
      </trkpt>
      <trkpt lat="47.52272" lon="6.71221">
        <ele>378.4</ele>
        <time>2014-10-26T08:46:51.000Z</time>
      </trkpt>
      <trkpt lat="47.52274" lon="6.71219">
        <ele>377.9</ele>
        <time>2014-10-26T08:46:52.000Z</time>
      </trkpt>
      <trkpt lat="47.52277" lon="6.71215">
        <ele>377.4</ele>
        <time>2014-10-26T08:46:53.000Z</time>
      </trkpt>
      <trkpt lat="47.5228" lon="6.71212">
        <ele>376.9</ele>
        <time>2014-10-26T08:46:54.000Z</time>
      </trkpt>
      <trkpt lat="47.52283" lon="6.71207">
        <ele>376.7</ele>
        <time>2014-10-26T08:46:55.000Z</time>
      </trkpt>
      <trkpt lat="47.52287" lon="6.71203">
        <ele>376.7</ele>
        <time>2014-10-26T08:46:56.000Z</time>
      </trkpt>
      <trkpt lat="47.5229" lon="6.71198">
        <ele>376.3</ele>
        <time>2014-10-26T08:46:57.000Z</time>
      </trkpt>
      <trkpt lat="47.52296" lon="6.71192">
        <ele>376.2</ele>
        <time>2014-10-26T08:46:58.000Z</time>
      </trkpt>
      <trkpt lat="47.52299" lon="6.71187">
        <ele>376.1</ele>
        <time>2014-10-26T08:46:59.000Z</time>
      </trkpt>
      <trkpt lat="47.52303" lon="6.71183">
        <ele>376</ele>
        <time>2014-10-26T08:47:00.000Z</time>
      </trkpt>
      <trkpt lat="47.52307" lon="6.71178">
        <ele>375.9</ele>
        <time>2014-10-26T08:47:01.000Z</time>
      </trkpt>
      <trkpt lat="47.52311" lon="6.71174">
        <ele>376</ele>
        <time>2014-10-26T08:47:02.000Z</time>
      </trkpt>
      <trkpt lat="47.52315" lon="6.7117">
        <ele>375.5</ele>
        <time>2014-10-26T08:47:03.000Z</time>
      </trkpt>
      <trkpt lat="47.5232" lon="6.71167">
        <ele>375.2</ele>
        <time>2014-10-26T08:47:04.000Z</time>
      </trkpt>
      <trkpt lat="47.52326" lon="6.71166">
        <ele>374.7</ele>
        <time>2014-10-26T08:47:05.000Z</time>
      </trkpt>
      <trkpt lat="47.52331" lon="6.71168">
        <ele>375.1</ele>
        <time>2014-10-26T08:47:06.000Z</time>
      </trkpt>
      <trkpt lat="47.52336" lon="6.7117">
        <ele>374.4</ele>
        <time>2014-10-26T08:47:07.000Z</time>
      </trkpt>
      <trkpt lat="47.5234" lon="6.71174">
        <ele>373.6</ele>
        <time>2014-10-26T08:47:08.000Z</time>
      </trkpt>
      <trkpt lat="47.52345" lon="6.71177">
        <ele>372.2</ele>
        <time>2014-10-26T08:47:09.000Z</time>
      </trkpt>
      <trkpt lat="47.52349" lon="6.71182">
        <ele>371.6</ele>
        <time>2014-10-26T08:47:10.000Z</time>
      </trkpt>
      <trkpt lat="47.52353" lon="6.71186">
        <ele>371.5</ele>
        <time>2014-10-26T08:47:11.000Z</time>
      </trkpt>
      <trkpt lat="47.52358" lon="6.71189">
        <ele>370.8</ele>
        <time>2014-10-26T08:47:12.000Z</time>
      </trkpt>
      <trkpt lat="47.52363" lon="6.71192">
        <ele>370.7</ele>
        <time>2014-10-26T08:47:13.000Z</time>
      </trkpt>
      <trkpt lat="47.52369" lon="6.71193">
        <ele>369.9</ele>
        <time>2014-10-26T08:47:14.000Z</time>
      </trkpt>
      <trkpt lat="47.52375" lon="6.71193">
        <ele>369.4</ele>
        <time>2014-10-26T08:47:15.000Z</time>
      </trkpt>
      <trkpt lat="47.52382" lon="6.71194">
        <ele>368.9</ele>
        <time>2014-10-26T08:47:16.000Z</time>
      </trkpt>
      <trkpt lat="47.52388" lon="6.71194">
        <ele>368.7</ele>
        <time>2014-10-26T08:47:17.000Z</time>
      </trkpt>
      <trkpt lat="47.52394" lon="6.71194">
        <ele>368.3</ele>
        <time>2014-10-26T08:47:18.000Z</time>
      </trkpt>
      <trkpt lat="47.52401" lon="6.71193">
        <ele>368.1</ele>
        <time>2014-10-26T08:47:19.000Z</time>
      </trkpt>
      <trkpt lat="47.52408" lon="6.71192">
        <ele>367.8</ele>
        <time>2014-10-26T08:47:20.000Z</time>
      </trkpt>
      <trkpt lat="47.52414" lon="6.71191">
        <ele>367.3</ele>
        <time>2014-10-26T08:47:21.000Z</time>
      </trkpt>
      <trkpt lat="47.52421" lon="6.7119">
        <ele>367</ele>
        <time>2014-10-26T08:47:22.000Z</time>
      </trkpt>
      <trkpt lat="47.52428" lon="6.71188">
        <ele>366.8</ele>
        <time>2014-10-26T08:47:23.000Z</time>
      </trkpt>
      <trkpt lat="47.52435" lon="6.71188">
        <ele>367</ele>
        <time>2014-10-26T08:47:24.000Z</time>
      </trkpt>
      <trkpt lat="47.52442" lon="6.71187">
        <ele>366.8</ele>
        <time>2014-10-26T08:47:25.000Z</time>
      </trkpt>
      <trkpt lat="47.52448" lon="6.71186">
        <ele>366.9</ele>
        <time>2014-10-26T08:47:26.000Z</time>
      </trkpt>
      <trkpt lat="47.52455" lon="6.71186">
        <ele>366.8</ele>
        <time>2014-10-26T08:47:27.000Z</time>
      </trkpt>
      <trkpt lat="47.52462" lon="6.71187">
        <ele>367.5</ele>
        <time>2014-10-26T08:47:28.000Z</time>
      </trkpt>
      <trkpt lat="47.52468" lon="6.71189">
        <ele>367</ele>
        <time>2014-10-26T08:47:29.000Z</time>
      </trkpt>
      <trkpt lat="47.52475" lon="6.71192">
        <ele>366.4</ele>
        <time>2014-10-26T08:47:30.000Z</time>
      </trkpt>
      <trkpt lat="47.52481" lon="6.71198">
        <ele>366.5</ele>
        <time>2014-10-26T08:47:31.000Z</time>
      </trkpt>
      <trkpt lat="47.52487" lon="6.71205">
        <ele>366.3</ele>
        <time>2014-10-26T08:47:32.000Z</time>
      </trkpt>
      <trkpt lat="47.52491" lon="6.71211">
        <ele>365.3</ele>
        <time>2014-10-26T08:47:33.000Z</time>
      </trkpt>
      <trkpt lat="47.52496" lon="6.71218">
        <ele>365</ele>
        <time>2014-10-26T08:47:34.000Z</time>
      </trkpt>
      <trkpt lat="47.52538" lon="6.71252">
        <ele>364.4</ele>
        <time>2014-10-26T08:47:42.000Z</time>
      </trkpt>
      <trkpt lat="47.52544" lon="6.71255">
        <ele>364.6</ele>
        <time>2014-10-26T08:47:43.000Z</time>
      </trkpt>
      <trkpt lat="47.5255" lon="6.71256">
        <ele>364.4</ele>
        <time>2014-10-26T08:47:44.000Z</time>
      </trkpt>
      <trkpt lat="47.52556" lon="6.71259">
        <ele>364.4</ele>
        <time>2014-10-26T08:47:45.000Z</time>
      </trkpt>
      <trkpt lat="47.52562" lon="6.7126">
        <ele>364.7</ele>
        <time>2014-10-26T08:47:46.000Z</time>
      </trkpt>
      <trkpt lat="47.52567" lon="6.71262">
        <ele>364.8</ele>
        <time>2014-10-26T08:47:47.000Z</time>
      </trkpt>
      <trkpt lat="47.52574" lon="6.71264">
        <ele>364.7</ele>
        <time>2014-10-26T08:47:48.000Z</time>
      </trkpt>
      <trkpt lat="47.52579" lon="6.71265">
        <ele>364</ele>
        <time>2014-10-26T08:47:49.000Z</time>
      </trkpt>
      <trkpt lat="47.52585" lon="6.71267">
        <ele>363.9</ele>
        <time>2014-10-26T08:47:50.000Z</time>
      </trkpt>
      <trkpt lat="47.52591" lon="6.7127">
        <ele>363.6</ele>
        <time>2014-10-26T08:47:51.000Z</time>
      </trkpt>
      <trkpt lat="47.52597" lon="6.71272">
        <ele>362.7</ele>
        <time>2014-10-26T08:47:52.000Z</time>
      </trkpt>
      <trkpt lat="47.52603" lon="6.71274">
        <ele>362.9</ele>
        <time>2014-10-26T08:47:53.000Z</time>
      </trkpt>
      <trkpt lat="47.52608" lon="6.71274">
        <ele>363</ele>
        <time>2014-10-26T08:47:54.000Z</time>
      </trkpt>
      <trkpt lat="47.52614" lon="6.71276">
        <ele>363</ele>
        <time>2014-10-26T08:47:55.000Z</time>
      </trkpt>
      <trkpt lat="47.52619" lon="6.71277">
        <ele>363.4</ele>
        <time>2014-10-26T08:47:56.000Z</time>
      </trkpt>
      <trkpt lat="47.52624" lon="6.71279">
        <ele>363.7</ele>
        <time>2014-10-26T08:47:57.000Z</time>
      </trkpt>
      <trkpt lat="47.52628" lon="6.71277">
        <ele>363.7</ele>
        <time>2014-10-26T08:47:58.000Z</time>
      </trkpt>
      <trkpt lat="47.52632" lon="6.71276">
        <ele>364.5</ele>
        <time>2014-10-26T08:47:59.000Z</time>
      </trkpt>
      <trkpt lat="47.52637" lon="6.71277">
        <ele>365.2</ele>
        <time>2014-10-26T08:48:00.000Z</time>
      </trkpt>
      <trkpt lat="47.52642" lon="6.71276">
        <ele>365.5</ele>
        <time>2014-10-26T08:48:01.000Z</time>
      </trkpt>
      <trkpt lat="47.52646" lon="6.71274">
        <ele>365.8</ele>
        <time>2014-10-26T08:48:02.000Z</time>
      </trkpt>
      <trkpt lat="47.52655" lon="6.71278">
        <ele>364.9</ele>
        <time>2014-10-26T08:48:03.000Z</time>
      </trkpt>
      <trkpt lat="47.52661" lon="6.71277">
        <ele>364.9</ele>
        <time>2014-10-26T08:48:04.000Z</time>
      </trkpt>
      <trkpt lat="47.52665" lon="6.71276">
        <ele>365.5</ele>
        <time>2014-10-26T08:48:05.000Z</time>
      </trkpt>
      <trkpt lat="47.52669" lon="6.71276">
        <ele>365.8</ele>
        <time>2014-10-26T08:48:06.000Z</time>
      </trkpt>
      <trkpt lat="47.52674" lon="6.71278">
        <ele>366.2</ele>
        <time>2014-10-26T08:48:07.000Z</time>
      </trkpt>
      <trkpt lat="47.5268" lon="6.71279">
        <ele>366.9</ele>
        <time>2014-10-26T08:48:08.000Z</time>
      </trkpt>
      <trkpt lat="47.52683" lon="6.71274">
        <ele>367.4</ele>
        <time>2014-10-26T08:48:09.000Z</time>
      </trkpt>
      <trkpt lat="47.52685" lon="6.71271">
        <ele>367.6</ele>
        <time>2014-10-26T08:48:10.000Z</time>
      </trkpt>
      <trkpt lat="47.52688" lon="6.7127">
        <ele>367.8</ele>
        <time>2014-10-26T08:48:11.000Z</time>
      </trkpt>
      <trkpt lat="47.5269" lon="6.71266">
        <ele>366.9</ele>
        <time>2014-10-26T08:48:12.000Z</time>
      </trkpt>
      <trkpt lat="47.52693" lon="6.7126">
        <ele>364.1</ele>
        <time>2014-10-26T08:48:13.000Z</time>
      </trkpt>
      <trkpt lat="47.52696" lon="6.71258">
        <ele>362.2</ele>
        <time>2014-10-26T08:48:15.000Z</time>
      </trkpt>
      <trkpt lat="47.52697" lon="6.71258">
        <ele>361.4</ele>
        <time>2014-10-26T08:48:16.000Z</time>
      </trkpt>
      <trkpt lat="47.52701" lon="6.71254">
        <ele>362.1</ele>
        <time>2014-10-26T08:48:21.000Z</time>
      </trkpt>
      <trkpt lat="47.52701" lon="6.71253">
        <ele>361.5</ele>
        <time>2014-10-26T08:48:22.000Z</time>
      </trkpt>
      <trkpt lat="47.52702" lon="6.71247">
        <ele>361.8</ele>
        <time>2014-10-26T08:48:25.000Z</time>
      </trkpt>
      <trkpt lat="47.52702" lon="6.71245">
        <ele>362</ele>
        <time>2014-10-26T08:48:26.000Z</time>
      </trkpt>
      <trkpt lat="47.52702" lon="6.71239">
        <ele>362.7</ele>
        <time>2014-10-26T08:48:29.000Z</time>
      </trkpt>
      <trkpt lat="47.52702" lon="6.71237">
        <ele>362.7</ele>
        <time>2014-10-26T08:48:30.000Z</time>
      </trkpt>
      <trkpt lat="47.52702" lon="6.7123">
        <ele>364</ele>
        <time>2014-10-26T08:48:33.000Z</time>
      </trkpt>
      <trkpt lat="47.527" lon="6.71218">
        <ele>369</ele>
        <time>2014-10-26T08:48:41.000Z</time>
      </trkpt>
      <trkpt lat="47.52704" lon="6.71217">
        <ele>369.9</ele>
        <time>2014-10-26T08:48:44.000Z</time>
      </trkpt>
      <trkpt lat="47.52706" lon="6.71216">
        <ele>369.9</ele>
        <time>2014-10-26T08:48:45.000Z</time>
      </trkpt>
      <trkpt lat="47.52709" lon="6.71213">
        <ele>370.7</ele>
        <time>2014-10-26T08:48:46.000Z</time>
      </trkpt>
      <trkpt lat="47.52712" lon="6.71209">
        <ele>371.4</ele>
        <time>2014-10-26T08:48:47.000Z</time>
      </trkpt>
      <trkpt lat="47.52716" lon="6.71204">
        <ele>370.5</ele>
        <time>2014-10-26T08:48:48.000Z</time>
      </trkpt>
      <trkpt lat="47.52719" lon="6.71199">
        <ele>371.3</ele>
        <time>2014-10-26T08:48:49.000Z</time>
      </trkpt>
      <trkpt lat="47.52722" lon="6.71192">
        <ele>371.8</ele>
        <time>2014-10-26T08:48:50.000Z</time>
      </trkpt>
      <trkpt lat="47.52725" lon="6.71186">
        <ele>372.4</ele>
        <time>2014-10-26T08:48:51.000Z</time>
      </trkpt>
      <trkpt lat="47.52727" lon="6.71179">
        <ele>372.3</ele>
        <time>2014-10-26T08:48:52.000Z</time>
      </trkpt>
      <trkpt lat="47.52729" lon="6.71173">
        <ele>372.7</ele>
        <time>2014-10-26T08:48:53.000Z</time>
      </trkpt>
      <trkpt lat="47.52731" lon="6.71169">
        <ele>373.3</ele>
        <time>2014-10-26T08:48:54.000Z</time>
      </trkpt>
      <trkpt lat="47.52733" lon="6.71165">
        <ele>374.2</ele>
        <time>2014-10-26T08:48:55.000Z</time>
      </trkpt>
      <trkpt lat="47.52734" lon="6.71161">
        <ele>374.1</ele>
        <time>2014-10-26T08:48:56.000Z</time>
      </trkpt>
      <trkpt lat="47.52736" lon="6.71155">
        <ele>372.7</ele>
        <time>2014-10-26T08:48:57.000Z</time>
      </trkpt>
      <trkpt lat="47.52729" lon="6.71129">
        <ele>366.3</ele>
        <time>2014-10-26T08:48:58.000Z</time>
      </trkpt>
      <trkpt lat="47.5273" lon="6.71113">
        <ele>360.3</ele>
        <time>2014-10-26T08:48:59.000Z</time>
      </trkpt>
      <trkpt lat="47.52731" lon="6.711">
        <ele>358.3</ele>
        <time>2014-10-26T08:49:00.000Z</time>
      </trkpt>
      <trkpt lat="47.52732" lon="6.71088">
        <ele>358</ele>
        <time>2014-10-26T08:49:01.000Z</time>
      </trkpt>
      <trkpt lat="47.52732" lon="6.71078">
        <ele>357.6</ele>
        <time>2014-10-26T08:49:02.000Z</time>
      </trkpt>
      <trkpt lat="47.52733" lon="6.71071">
        <ele>358</ele>
        <time>2014-10-26T08:49:03.000Z</time>
      </trkpt>
      <trkpt lat="47.52736" lon="6.71064">
        <ele>358.2</ele>
        <time>2014-10-26T08:49:04.000Z</time>
      </trkpt>
      <trkpt lat="47.52737" lon="6.71057">
        <ele>357.7</ele>
        <time>2014-10-26T08:49:05.000Z</time>
      </trkpt>
      <trkpt lat="47.52736" lon="6.71048">
        <ele>354.2</ele>
        <time>2014-10-26T08:49:06.000Z</time>
      </trkpt>
      <trkpt lat="47.52734" lon="6.7104">
        <ele>353.1</ele>
        <time>2014-10-26T08:49:07.000Z</time>
      </trkpt>
      <trkpt lat="47.52733" lon="6.71034">
        <ele>352.3</ele>
        <time>2014-10-26T08:49:08.000Z</time>
      </trkpt>
      <trkpt lat="47.52731" lon="6.71027">
        <ele>352.1</ele>
        <time>2014-10-26T08:49:09.000Z</time>
      </trkpt>
      <trkpt lat="47.52729" lon="6.71021">
        <ele>350.8</ele>
        <time>2014-10-26T08:49:10.000Z</time>
      </trkpt>
      <trkpt lat="47.52727" lon="6.71015">
        <ele>349.2</ele>
        <time>2014-10-26T08:49:11.000Z</time>
      </trkpt>
      <trkpt lat="47.52725" lon="6.71009">
        <ele>349.5</ele>
        <time>2014-10-26T08:49:12.000Z</time>
      </trkpt>
      <trkpt lat="47.52723" lon="6.71004">
        <ele>351</ele>
        <time>2014-10-26T08:49:13.000Z</time>
      </trkpt>
      <trkpt lat="47.52721" lon="6.70999">
        <ele>351.2</ele>
        <time>2014-10-26T08:49:14.000Z</time>
      </trkpt>
      <trkpt lat="47.5272" lon="6.70993">
        <ele>350.8</ele>
        <time>2014-10-26T08:49:15.000Z</time>
      </trkpt>
      <trkpt lat="47.52718" lon="6.70987">
        <ele>350.8</ele>
        <time>2014-10-26T08:49:16.000Z</time>
      </trkpt>
      <trkpt lat="47.52717" lon="6.70981">
        <ele>350.7</ele>
        <time>2014-10-26T08:49:17.000Z</time>
      </trkpt>
      <trkpt lat="47.52717" lon="6.70975">
        <ele>350.8</ele>
        <time>2014-10-26T08:49:18.000Z</time>
      </trkpt>
      <trkpt lat="47.52716" lon="6.70969">
        <ele>350.6</ele>
        <time>2014-10-26T08:49:19.000Z</time>
      </trkpt>
      <trkpt lat="47.52716" lon="6.70962">
        <ele>350.7</ele>
        <time>2014-10-26T08:49:20.000Z</time>
      </trkpt>
      <trkpt lat="47.52716" lon="6.70958">
        <ele>351.3</ele>
        <time>2014-10-26T08:49:21.000Z</time>
      </trkpt>
      <trkpt lat="47.52717" lon="6.70952">
        <ele>351</ele>
        <time>2014-10-26T08:49:23.000Z</time>
      </trkpt>
      <trkpt lat="47.52718" lon="6.70949">
        <ele>351.8</ele>
        <time>2014-10-26T08:49:24.000Z</time>
      </trkpt>
      <trkpt lat="47.5272" lon="6.70944">
        <ele>352.1</ele>
        <time>2014-10-26T08:49:26.000Z</time>
      </trkpt>
      <trkpt lat="47.52721" lon="6.7094">
        <ele>352.1</ele>
        <time>2014-10-26T08:49:27.000Z</time>
      </trkpt>
      <trkpt lat="47.52722" lon="6.70936">
        <ele>352.3</ele>
        <time>2014-10-26T08:49:28.000Z</time>
      </trkpt>
      <trkpt lat="47.52724" lon="6.70932">
        <ele>353.8</ele>
        <time>2014-10-26T08:49:29.000Z</time>
      </trkpt>
      <trkpt lat="47.52725" lon="6.70927">
        <ele>354.8</ele>
        <time>2014-10-26T08:49:30.000Z</time>
      </trkpt>
      <trkpt lat="47.52727" lon="6.70922">
        <ele>356.8</ele>
        <time>2014-10-26T08:49:31.000Z</time>
      </trkpt>
      <trkpt lat="47.52729" lon="6.70916">
        <ele>358.8</ele>
        <time>2014-10-26T08:49:32.000Z</time>
      </trkpt>
      <trkpt lat="47.52731" lon="6.709">
        <ele>360.5</ele>
        <time>2014-10-26T08:49:35.000Z</time>
      </trkpt>
      <trkpt lat="47.52731" lon="6.70895">
        <ele>361.7</ele>
        <time>2014-10-26T08:49:36.000Z</time>
      </trkpt>
      <trkpt lat="47.52732" lon="6.7089">
        <ele>362.1</ele>
        <time>2014-10-26T08:49:37.000Z</time>
      </trkpt>
      <trkpt lat="47.52732" lon="6.70885">
        <ele>362.4</ele>
        <time>2014-10-26T08:49:38.000Z</time>
      </trkpt>
      <trkpt lat="47.52733" lon="6.7088">
        <ele>362.6</ele>
        <time>2014-10-26T08:49:39.000Z</time>
      </trkpt>
      <trkpt lat="47.52734" lon="6.70874">
        <ele>362.2</ele>
        <time>2014-10-26T08:49:40.000Z</time>
      </trkpt>
      <trkpt lat="47.52736" lon="6.70868">
        <ele>362.4</ele>
        <time>2014-10-26T08:49:41.000Z</time>
      </trkpt>
      <trkpt lat="47.52737" lon="6.70863">
        <ele>362.5</ele>
        <time>2014-10-26T08:49:42.000Z</time>
      </trkpt>
      <trkpt lat="47.52738" lon="6.70858">
        <ele>363.6</ele>
        <time>2014-10-26T08:49:43.000Z</time>
      </trkpt>
      <trkpt lat="47.52738" lon="6.70853">
        <ele>363.8</ele>
        <time>2014-10-26T08:49:44.000Z</time>
      </trkpt>
      <trkpt lat="47.52739" lon="6.70849">
        <ele>364.7</ele>
        <time>2014-10-26T08:49:45.000Z</time>
      </trkpt>
      <trkpt lat="47.5274" lon="6.70844">
        <ele>364.7</ele>
        <time>2014-10-26T08:49:46.000Z</time>
      </trkpt>
      <trkpt lat="47.5274" lon="6.70839">
        <ele>364.9</ele>
        <time>2014-10-26T08:49:47.000Z</time>
      </trkpt>
      <trkpt lat="47.5274" lon="6.70834">
        <ele>364.2</ele>
        <time>2014-10-26T08:49:48.000Z</time>
      </trkpt>
      <trkpt lat="47.52741" lon="6.70828">
        <ele>363.1</ele>
        <time>2014-10-26T08:49:49.000Z</time>
      </trkpt>
      <trkpt lat="47.52743" lon="6.70821">
        <ele>362.7</ele>
        <time>2014-10-26T08:49:50.000Z</time>
      </trkpt>
      <trkpt lat="47.52745" lon="6.70813">
        <ele>360.8</ele>
        <time>2014-10-26T08:49:51.000Z</time>
      </trkpt>
      <trkpt lat="47.52746" lon="6.70805">
        <ele>359.2</ele>
        <time>2014-10-26T08:49:52.000Z</time>
      </trkpt>
      <trkpt lat="47.52748" lon="6.70795">
        <ele>358.7</ele>
        <time>2014-10-26T08:49:53.000Z</time>
      </trkpt>
      <trkpt lat="47.52751" lon="6.70786">
        <ele>365.3</ele>
        <time>2014-10-26T08:49:54.000Z</time>
      </trkpt>
      <trkpt lat="47.52754" lon="6.70779">
        <ele>369</ele>
        <time>2014-10-26T08:49:55.000Z</time>
      </trkpt>
      <trkpt lat="47.52756" lon="6.70772">
        <ele>371.6</ele>
        <time>2014-10-26T08:49:56.000Z</time>
      </trkpt>
      <trkpt lat="47.52757" lon="6.70765">
        <ele>373.6</ele>
        <time>2014-10-26T08:49:57.000Z</time>
      </trkpt>
      <trkpt lat="47.52757" lon="6.70758">
        <ele>374.8</ele>
        <time>2014-10-26T08:49:58.000Z</time>
      </trkpt>
      <trkpt lat="47.52756" lon="6.70751">
        <ele>374.9</ele>
        <time>2014-10-26T08:49:59.000Z</time>
      </trkpt>
      <trkpt lat="47.52749" lon="6.70733">
        <ele>375</ele>
        <time>2014-10-26T08:50:00.000Z</time>
      </trkpt>
      <trkpt lat="47.52749" lon="6.70726">
        <ele>374.4</ele>
        <time>2014-10-26T08:50:01.000Z</time>
      </trkpt>
      <trkpt lat="47.5275" lon="6.70721">
        <ele>377.8</ele>
        <time>2014-10-26T08:50:02.000Z</time>
      </trkpt>
      <trkpt lat="47.5275" lon="6.70709">
        <ele>373.8</ele>
        <time>2014-10-26T08:50:03.000Z</time>
      </trkpt>
      <trkpt lat="47.5275" lon="6.707">
        <ele>374</ele>
        <time>2014-10-26T08:50:04.000Z</time>
      </trkpt>
      <trkpt lat="47.52749" lon="6.70695">
        <ele>375.2</ele>
        <time>2014-10-26T08:50:05.000Z</time>
      </trkpt>
      <trkpt lat="47.52748" lon="6.70687">
        <ele>375.3</ele>
        <time>2014-10-26T08:50:06.000Z</time>
      </trkpt>
      <trkpt lat="47.52748" lon="6.7068">
        <ele>374.6</ele>
        <time>2014-10-26T08:50:07.000Z</time>
      </trkpt>
      <trkpt lat="47.52748" lon="6.70673">
        <ele>374.7</ele>
        <time>2014-10-26T08:50:08.000Z</time>
      </trkpt>
      <trkpt lat="47.52749" lon="6.70668">
        <ele>375.3</ele>
        <time>2014-10-26T08:50:09.000Z</time>
      </trkpt>
      <trkpt lat="47.52749" lon="6.70663">
        <ele>374.7</ele>
        <time>2014-10-26T08:50:10.000Z</time>
      </trkpt>
      <trkpt lat="47.52749" lon="6.70659">
        <ele>374.9</ele>
        <time>2014-10-26T08:50:11.000Z</time>
      </trkpt>
      <trkpt lat="47.5275" lon="6.70655">
        <ele>374.3</ele>
        <time>2014-10-26T08:50:12.000Z</time>
      </trkpt>
      <trkpt lat="47.5275" lon="6.70651">
        <ele>373.4</ele>
        <time>2014-10-26T08:50:13.000Z</time>
      </trkpt>
      <trkpt lat="47.52749" lon="6.70647">
        <ele>372.5</ele>
        <time>2014-10-26T08:50:14.000Z</time>
      </trkpt>
      <trkpt lat="47.52749" lon="6.70643">
        <ele>372</ele>
        <time>2014-10-26T08:50:15.000Z</time>
      </trkpt>
      <trkpt lat="47.52749" lon="6.70639">
        <ele>371.2</ele>
        <time>2014-10-26T08:50:16.000Z</time>
      </trkpt>
      <trkpt lat="47.52752" lon="6.70636">
        <ele>369.7</ele>
        <time>2014-10-26T08:50:17.000Z</time>
      </trkpt>
      <trkpt lat="47.52755" lon="6.70633">
        <ele>368.3</ele>
        <time>2014-10-26T08:50:18.000Z</time>
      </trkpt>
      <trkpt lat="47.52759" lon="6.70631">
        <ele>367</ele>
        <time>2014-10-26T08:50:19.000Z</time>
      </trkpt>
      <trkpt lat="47.52763" lon="6.70629">
        <ele>366.5</ele>
        <time>2014-10-26T08:50:20.000Z</time>
      </trkpt>
      <trkpt lat="47.52766" lon="6.70628">
        <ele>367.3</ele>
        <time>2014-10-26T08:50:21.000Z</time>
      </trkpt>
      <trkpt lat="47.52768" lon="6.70627">
        <ele>365.4</ele>
        <time>2014-10-26T08:50:22.000Z</time>
      </trkpt>
      <trkpt lat="47.52768" lon="6.70621">
        <ele>363.4</ele>
        <time>2014-10-26T08:50:24.000Z</time>
      </trkpt>
      <trkpt lat="47.52767" lon="6.70619">
        <ele>362.8</ele>
        <time>2014-10-26T08:50:25.000Z</time>
      </trkpt>
      <trkpt lat="47.5277" lon="6.70617">
        <ele>360.5</ele>
        <time>2014-10-26T08:50:30.000Z</time>
      </trkpt>
      <trkpt lat="47.52772" lon="6.70616">
        <ele>360.2</ele>
        <time>2014-10-26T08:50:31.000Z</time>
      </trkpt>
      <trkpt lat="47.52773" lon="6.70615">
        <ele>360.1</ele>
        <time>2014-10-26T08:50:32.000Z</time>
      </trkpt>
      <trkpt lat="47.52777" lon="6.70612">
        <ele>362.2</ele>
        <time>2014-10-26T08:50:35.000Z</time>
      </trkpt>
      <trkpt lat="47.5278" lon="6.70607">
        <ele>359.9</ele>
        <time>2014-10-26T08:50:37.000Z</time>
      </trkpt>
      <trkpt lat="47.52781" lon="6.70604">
        <ele>360.1</ele>
        <time>2014-10-26T08:50:38.000Z</time>
      </trkpt>
      <trkpt lat="47.52782" lon="6.70598">
        <ele>360.5</ele>
        <time>2014-10-26T08:50:40.000Z</time>
      </trkpt>
      <trkpt lat="47.52782" lon="6.70596">
        <ele>360.7</ele>
        <time>2014-10-26T08:50:41.000Z</time>
      </trkpt>
      <trkpt lat="47.52782" lon="6.70591">
        <ele>360.6</ele>
        <time>2014-10-26T08:50:45.000Z</time>
      </trkpt>
      <trkpt lat="47.52782" lon="6.70589">
        <ele>360.5</ele>
        <time>2014-10-26T08:50:46.000Z</time>
      </trkpt>
      <trkpt lat="47.52782" lon="6.70584">
        <ele>360.1</ele>
        <time>2014-10-26T08:50:49.000Z</time>
      </trkpt>
      <trkpt lat="47.52782" lon="6.70583">
        <ele>359.7</ele>
        <time>2014-10-26T08:50:50.000Z</time>
      </trkpt>
      <trkpt lat="47.52782" lon="6.70576">
        <ele>358.9</ele>
        <time>2014-10-26T08:50:54.000Z</time>
      </trkpt>
      <trkpt lat="47.52782" lon="6.70575">
        <ele>358.5</ele>
        <time>2014-10-26T08:50:55.000Z</time>
      </trkpt>
      <trkpt lat="47.52786" lon="6.70571">
        <ele>357.2</ele>
        <time>2014-10-26T08:51:00.000Z</time>
      </trkpt>
      <trkpt lat="47.52787" lon="6.70571">
        <ele>356.2</ele>
        <time>2014-10-26T08:51:01.000Z</time>
      </trkpt>
      <trkpt lat="47.52791" lon="6.7057">
        <ele>355</ele>
        <time>2014-10-26T08:51:03.000Z</time>
      </trkpt>
      <trkpt lat="47.52793" lon="6.7057">
        <ele>355</ele>
        <time>2014-10-26T08:51:04.000Z</time>
      </trkpt>
      <trkpt lat="47.52797" lon="6.70571">
        <ele>354.8</ele>
        <time>2014-10-26T08:51:06.000Z</time>
      </trkpt>
      <trkpt lat="47.52799" lon="6.70573">
        <ele>355.1</ele>
        <time>2014-10-26T08:51:07.000Z</time>
      </trkpt>
      <trkpt lat="47.52801" lon="6.70576">
        <ele>356</ele>
        <time>2014-10-26T08:51:09.000Z</time>
      </trkpt>
      <trkpt lat="47.52803" lon="6.70578">
        <ele>356</ele>
        <time>2014-10-26T08:51:10.000Z</time>
      </trkpt>
      <trkpt lat="47.52805" lon="6.70582">
        <ele>355.9</ele>
        <time>2014-10-26T08:51:12.000Z</time>
      </trkpt>
      <trkpt lat="47.52807" lon="6.70583">
        <ele>356</ele>
        <time>2014-10-26T08:51:13.000Z</time>
      </trkpt>
      <trkpt lat="47.5281" lon="6.70585">
        <ele>358</ele>
        <time>2014-10-26T08:51:15.000Z</time>
      </trkpt>
      <trkpt lat="47.52812" lon="6.70585">
        <ele>358.7</ele>
        <time>2014-10-26T08:51:16.000Z</time>
      </trkpt>
      <trkpt lat="47.52816" lon="6.70587">
        <ele>360</ele>
        <time>2014-10-26T08:51:18.000Z</time>
      </trkpt>
      <trkpt lat="47.52817" lon="6.70587">
        <ele>360.5</ele>
        <time>2014-10-26T08:51:19.000Z</time>
      </trkpt>
      <trkpt lat="47.5282" lon="6.70589">
        <ele>360.5</ele>
        <time>2014-10-26T08:51:21.000Z</time>
      </trkpt>
      <trkpt lat="47.52822" lon="6.7059">
        <ele>363</ele>
        <time>2014-10-26T08:51:22.000Z</time>
      </trkpt>
      <trkpt lat="47.52825" lon="6.7059">
        <ele>366.7</ele>
        <time>2014-10-26T08:51:24.000Z</time>
      </trkpt>
      <trkpt lat="47.52826" lon="6.7059">
        <ele>366.4</ele>
        <time>2014-10-26T08:51:25.000Z</time>
      </trkpt>
      <trkpt lat="47.5283" lon="6.70589">
        <ele>368.5</ele>
        <time>2014-10-26T08:51:27.000Z</time>
      </trkpt>
      <trkpt lat="47.52831" lon="6.70588">
        <ele>368.8</ele>
        <time>2014-10-26T08:51:28.000Z</time>
      </trkpt>
      <trkpt lat="47.52832" lon="6.70583">
        <ele>369.2</ele>
        <time>2014-10-26T08:51:33.000Z</time>
      </trkpt>
      <trkpt lat="47.52833" lon="6.7058">
        <ele>369.5</ele>
        <time>2014-10-26T08:51:36.000Z</time>
      </trkpt>
      <trkpt lat="47.52834" lon="6.70575">
        <ele>370.7</ele>
        <time>2014-10-26T08:51:40.000Z</time>
      </trkpt>
      <trkpt lat="47.52835" lon="6.70573">
        <ele>370.9</ele>
        <time>2014-10-26T08:51:41.000Z</time>
      </trkpt>
      <trkpt lat="47.52836" lon="6.70568">
        <ele>372.6</ele>
        <time>2014-10-26T08:51:43.000Z</time>
      </trkpt>
      <trkpt lat="47.52836" lon="6.70565">
        <ele>374.3</ele>
        <time>2014-10-26T08:51:44.000Z</time>
      </trkpt>
      <trkpt lat="47.52836" lon="6.7056">
        <ele>375.6</ele>
        <time>2014-10-26T08:51:46.000Z</time>
      </trkpt>
      <trkpt lat="47.52836" lon="6.70557">
        <ele>376.2</ele>
        <time>2014-10-26T08:51:47.000Z</time>
      </trkpt>
      <trkpt lat="47.52836" lon="6.70553">
        <ele>376.8</ele>
        <time>2014-10-26T08:51:49.000Z</time>
      </trkpt>
      <trkpt lat="47.52836" lon="6.7055">
        <ele>377</ele>
        <time>2014-10-26T08:51:50.000Z</time>
      </trkpt>
      <trkpt lat="47.52836" lon="6.70545">
        <ele>376.3</ele>
        <time>2014-10-26T08:51:52.000Z</time>
      </trkpt>
      <trkpt lat="47.52836" lon="6.70541">
        <ele>375.5</ele>
        <time>2014-10-26T08:51:53.000Z</time>
      </trkpt>
      <trkpt lat="47.52836" lon="6.70538">
        <ele>375.2</ele>
        <time>2014-10-26T08:51:54.000Z</time>
      </trkpt>
      <trkpt lat="47.52836" lon="6.70533">
        <ele>372.8</ele>
        <time>2014-10-26T08:51:55.000Z</time>
      </trkpt>
      <trkpt lat="47.52836" lon="6.70528">
        <ele>371.6</ele>
        <time>2014-10-26T08:51:56.000Z</time>
      </trkpt>
      <trkpt lat="47.52836" lon="6.70522">
        <ele>370.4</ele>
        <time>2014-10-26T08:51:57.000Z</time>
      </trkpt>
      <trkpt lat="47.52835" lon="6.70516">
        <ele>371.2</ele>
        <time>2014-10-26T08:51:58.000Z</time>
      </trkpt>
      <trkpt lat="47.52834" lon="6.7051">
        <ele>369.8</ele>
        <time>2014-10-26T08:51:59.000Z</time>
      </trkpt>
      <trkpt lat="47.52833" lon="6.70504">
        <ele>368.1</ele>
        <time>2014-10-26T08:52:00.000Z</time>
      </trkpt>
      <trkpt lat="47.52832" lon="6.70498">
        <ele>367.8</ele>
        <time>2014-10-26T08:52:01.000Z</time>
      </trkpt>
      <trkpt lat="47.52831" lon="6.70493">
        <ele>367.7</ele>
        <time>2014-10-26T08:52:02.000Z</time>
      </trkpt>
      <trkpt lat="47.5283" lon="6.70488">
        <ele>367.9</ele>
        <time>2014-10-26T08:52:03.000Z</time>
      </trkpt>
      <trkpt lat="47.52829" lon="6.70483">
        <ele>366.2</ele>
        <time>2014-10-26T08:52:04.000Z</time>
      </trkpt>
      <trkpt lat="47.52828" lon="6.70479">
        <ele>366.8</ele>
        <time>2014-10-26T08:52:05.000Z</time>
      </trkpt>
      <trkpt lat="47.52828" lon="6.70474">
        <ele>367.4</ele>
        <time>2014-10-26T08:52:06.000Z</time>
      </trkpt>
      <trkpt lat="47.52828" lon="6.70471">
        <ele>367.1</ele>
        <time>2014-10-26T08:52:07.000Z</time>
      </trkpt>
      <trkpt lat="47.52829" lon="6.70467">
        <ele>367.4</ele>
        <time>2014-10-26T08:52:08.000Z</time>
      </trkpt>
      <trkpt lat="47.5283" lon="6.70465">
        <ele>368.2</ele>
        <time>2014-10-26T08:52:09.000Z</time>
      </trkpt>
      <trkpt lat="47.52833" lon="6.70462">
        <ele>370.6</ele>
        <time>2014-10-26T08:52:11.000Z</time>
      </trkpt>
      <trkpt lat="47.52835" lon="6.70462">
        <ele>374.3</ele>
        <time>2014-10-26T08:52:12.000Z</time>
      </trkpt>
      <trkpt lat="47.52839" lon="6.70463">
        <ele>375</ele>
        <time>2014-10-26T08:52:14.000Z</time>
      </trkpt>
      <trkpt lat="47.5284" lon="6.70463">
        <ele>375.3</ele>
        <time>2014-10-26T08:52:15.000Z</time>
      </trkpt>
      <trkpt lat="47.52844" lon="6.70462">
        <ele>374.8</ele>
        <time>2014-10-26T08:52:17.000Z</time>
      </trkpt>
      <trkpt lat="47.52846" lon="6.70461">
        <ele>374.7</ele>
        <time>2014-10-26T08:52:18.000Z</time>
      </trkpt>
      <trkpt lat="47.52849" lon="6.7046">
        <ele>376.1</ele>
        <time>2014-10-26T08:52:20.000Z</time>
      </trkpt>
      <trkpt lat="47.5285" lon="6.70459">
        <ele>375.9</ele>
        <time>2014-10-26T08:52:21.000Z</time>
      </trkpt>
      <trkpt lat="47.52853" lon="6.70457">
        <ele>375.1</ele>
        <time>2014-10-26T08:52:24.000Z</time>
      </trkpt>
      <trkpt lat="47.52854" lon="6.70457">
        <ele>374.5</ele>
        <time>2014-10-26T08:52:25.000Z</time>
      </trkpt>
      <trkpt lat="47.52858" lon="6.70455">
        <ele>377.3</ele>
        <time>2014-10-26T08:52:31.000Z</time>
      </trkpt>
      <trkpt lat="47.52858" lon="6.70454">
        <ele>377.1</ele>
        <time>2014-10-26T08:52:32.000Z</time>
      </trkpt>
      <trkpt lat="47.52859" lon="6.70454">
        <ele>377</ele>
        <time>2014-10-26T08:52:33.000Z</time>
      </trkpt>
      <trkpt lat="47.52863" lon="6.70454">
        <ele>377.1</ele>
        <time>2014-10-26T08:52:41.000Z</time>
      </trkpt>
      <trkpt lat="47.52867" lon="6.70452">
        <ele>377.6</ele>
        <time>2014-10-26T08:52:45.000Z</time>
      </trkpt>
      <trkpt lat="47.52868" lon="6.70451">
        <ele>376.8</ele>
        <time>2014-10-26T08:52:46.000Z</time>
      </trkpt>
      <trkpt lat="47.52872" lon="6.7045">
        <ele>375.3</ele>
        <time>2014-10-26T08:52:49.000Z</time>
      </trkpt>
      <trkpt lat="47.52873" lon="6.70449">
        <ele>375.1</ele>
        <time>2014-10-26T08:52:50.000Z</time>
      </trkpt>
      <trkpt lat="47.52877" lon="6.70447">
        <ele>375.5</ele>
        <time>2014-10-26T08:52:53.000Z</time>
      </trkpt>
      <trkpt lat="47.52878" lon="6.70446">
        <ele>375.7</ele>
        <time>2014-10-26T08:52:54.000Z</time>
      </trkpt>
      <trkpt lat="47.52882" lon="6.70444">
        <ele>375.8</ele>
        <time>2014-10-26T08:52:57.000Z</time>
      </trkpt>
      <trkpt lat="47.52883" lon="6.70444">
        <ele>375.3</ele>
        <time>2014-10-26T08:52:58.000Z</time>
      </trkpt>
      <trkpt lat="47.52888" lon="6.70442">
        <ele>373.7</ele>
        <time>2014-10-26T08:53:00.000Z</time>
      </trkpt>
      <trkpt lat="47.5289" lon="6.70442">
        <ele>373.9</ele>
        <time>2014-10-26T08:53:01.000Z</time>
      </trkpt>
      <trkpt lat="47.52892" lon="6.70441">
        <ele>373.1</ele>
        <time>2014-10-26T08:53:02.000Z</time>
      </trkpt>
      <trkpt lat="47.52894" lon="6.7044">
        <ele>373.4</ele>
        <time>2014-10-26T08:53:03.000Z</time>
      </trkpt>
      <trkpt lat="47.52897" lon="6.70439">
        <ele>373.4</ele>
        <time>2014-10-26T08:53:04.000Z</time>
      </trkpt>
      <trkpt lat="47.52899" lon="6.70438">
        <ele>373.3</ele>
        <time>2014-10-26T08:53:05.000Z</time>
      </trkpt>
      <trkpt lat="47.52902" lon="6.70438">
        <ele>373.4</ele>
        <time>2014-10-26T08:53:06.000Z</time>
      </trkpt>
      <trkpt lat="47.52904" lon="6.70437">
        <ele>372.9</ele>
        <time>2014-10-26T08:53:07.000Z</time>
      </trkpt>
      <trkpt lat="47.52906" lon="6.70437">
        <ele>372.7</ele>
        <time>2014-10-26T08:53:08.000Z</time>
      </trkpt>
      <trkpt lat="47.52909" lon="6.70438">
        <ele>372.6</ele>
        <time>2014-10-26T08:53:09.000Z</time>
      </trkpt>
      <trkpt lat="47.52913" lon="6.70439">
        <ele>372</ele>
        <time>2014-10-26T08:53:11.000Z</time>
      </trkpt>
      <trkpt lat="47.52915" lon="6.70439">
        <ele>371.8</ele>
        <time>2014-10-26T08:53:12.000Z</time>
      </trkpt>
      <trkpt lat="47.52917" lon="6.7044">
        <ele>374.1</ele>
        <time>2014-10-26T08:53:13.000Z</time>
      </trkpt>
      <trkpt lat="47.52919" lon="6.70442">
        <ele>375.1</ele>
        <time>2014-10-26T08:53:14.000Z</time>
      </trkpt>
      <trkpt lat="47.52923" lon="6.70444">
        <ele>376.3</ele>
        <time>2014-10-26T08:53:16.000Z</time>
      </trkpt>
      <trkpt lat="47.52925" lon="6.70445">
        <ele>375.3</ele>
        <time>2014-10-26T08:53:17.000Z</time>
      </trkpt>
      <trkpt lat="47.52929" lon="6.70445">
        <ele>375.6</ele>
        <time>2014-10-26T08:53:19.000Z</time>
      </trkpt>
      <trkpt lat="47.52931" lon="6.70446">
        <ele>376</ele>
        <time>2014-10-26T08:53:20.000Z</time>
      </trkpt>
      <trkpt lat="47.52934" lon="6.70447">
        <ele>378.3</ele>
        <time>2014-10-26T08:53:22.000Z</time>
      </trkpt>
      <trkpt lat="47.52935" lon="6.70448">
        <ele>378.2</ele>
        <time>2014-10-26T08:53:23.000Z</time>
      </trkpt>
      <trkpt lat="47.52938" lon="6.7045">
        <ele>377.9</ele>
        <time>2014-10-26T08:53:25.000Z</time>
      </trkpt>
      <trkpt lat="47.5294" lon="6.7045">
        <ele>377.8</ele>
        <time>2014-10-26T08:53:26.000Z</time>
      </trkpt>
      <trkpt lat="47.52944" lon="6.7045">
        <ele>379.2</ele>
        <time>2014-10-26T08:53:28.000Z</time>
      </trkpt>
      <trkpt lat="47.52945" lon="6.70451">
        <ele>378.1</ele>
        <time>2014-10-26T08:53:29.000Z</time>
      </trkpt>
      <trkpt lat="47.52948" lon="6.70452">
        <ele>378.7</ele>
        <time>2014-10-26T08:53:31.000Z</time>
      </trkpt>
      <trkpt lat="47.5295" lon="6.70452">
        <ele>379.3</ele>
        <time>2014-10-26T08:53:32.000Z</time>
      </trkpt>
      <trkpt lat="47.52954" lon="6.70453">
        <ele>381.5</ele>
        <time>2014-10-26T08:53:35.000Z</time>
      </trkpt>
      <trkpt lat="47.52955" lon="6.70453">
        <ele>382.4</ele>
        <time>2014-10-26T08:53:36.000Z</time>
      </trkpt>
      <trkpt lat="47.52958" lon="6.70453">
        <ele>383.4</ele>
        <time>2014-10-26T08:53:38.000Z</time>
      </trkpt>
      <trkpt lat="47.5296" lon="6.70454">
        <ele>382.8</ele>
        <time>2014-10-26T08:53:39.000Z</time>
      </trkpt>
      <trkpt lat="47.52963" lon="6.70455">
        <ele>384.3</ele>
        <time>2014-10-26T08:53:41.000Z</time>
      </trkpt>
      <trkpt lat="47.52965" lon="6.70456">
        <ele>385.3</ele>
        <time>2014-10-26T08:53:42.000Z</time>
      </trkpt>
      <trkpt lat="47.52968" lon="6.70457">
        <ele>385.6</ele>
        <time>2014-10-26T08:53:44.000Z</time>
      </trkpt>
      <trkpt lat="47.5297" lon="6.70458">
        <ele>385.9</ele>
        <time>2014-10-26T08:53:45.000Z</time>
      </trkpt>
      <trkpt lat="47.52973" lon="6.70459">
        <ele>388.8</ele>
        <time>2014-10-26T08:53:47.000Z</time>
      </trkpt>
      <trkpt lat="47.52975" lon="6.7046">
        <ele>389.2</ele>
        <time>2014-10-26T08:53:48.000Z</time>
      </trkpt>
      <trkpt lat="47.52978" lon="6.70462">
        <ele>389.4</ele>
        <time>2014-10-26T08:53:51.000Z</time>
      </trkpt>
      <trkpt lat="47.52979" lon="6.70463">
        <ele>393.5</ele>
        <time>2014-10-26T08:53:52.000Z</time>
      </trkpt>
      <trkpt lat="47.52982" lon="6.70465">
        <ele>396.9</ele>
        <time>2014-10-26T08:53:56.000Z</time>
      </trkpt>
      <trkpt lat="47.52983" lon="6.70466">
        <ele>397.2</ele>
        <time>2014-10-26T08:53:57.000Z</time>
      </trkpt>
      <trkpt lat="47.52986" lon="6.70468">
        <ele>396.1</ele>
        <time>2014-10-26T08:53:59.000Z</time>
      </trkpt>
      <trkpt lat="47.52988" lon="6.70468">
        <ele>395.6</ele>
        <time>2014-10-26T08:54:00.000Z</time>
      </trkpt>
      <trkpt lat="47.52992" lon="6.70469">
        <ele>392.7</ele>
        <time>2014-10-26T08:54:02.000Z</time>
      </trkpt>
      <trkpt lat="47.52994" lon="6.7047">
        <ele>392.2</ele>
        <time>2014-10-26T08:54:03.000Z</time>
      </trkpt>
      <trkpt lat="47.52998" lon="6.70471">
        <ele>391.2</ele>
        <time>2014-10-26T08:54:05.000Z</time>
      </trkpt>
      <trkpt lat="47.53" lon="6.70472">
        <ele>390.7</ele>
        <time>2014-10-26T08:54:06.000Z</time>
      </trkpt>
      <trkpt lat="47.53003" lon="6.70473">
        <ele>391.3</ele>
        <time>2014-10-26T08:54:08.000Z</time>
      </trkpt>
      <trkpt lat="47.53005" lon="6.70474">
        <ele>392.6</ele>
        <time>2014-10-26T08:54:09.000Z</time>
      </trkpt>
      <trkpt lat="47.53008" lon="6.70477">
        <ele>397.5</ele>
        <time>2014-10-26T08:54:12.000Z</time>
      </trkpt>
      <trkpt lat="47.53009" lon="6.70478">
        <ele>399.3</ele>
        <time>2014-10-26T08:54:13.000Z</time>
      </trkpt>
      <trkpt lat="47.53013" lon="6.7048">
        <ele>403.2</ele>
        <time>2014-10-26T08:54:18.000Z</time>
      </trkpt>
      <trkpt lat="47.53014" lon="6.7048">
        <ele>403.1</ele>
        <time>2014-10-26T08:54:19.000Z</time>
      </trkpt>
      <trkpt lat="47.53018" lon="6.70481">
        <ele>403</ele>
        <time>2014-10-26T08:54:21.000Z</time>
      </trkpt>
      <trkpt lat="47.53019" lon="6.70481">
        <ele>405.8</ele>
        <time>2014-10-26T08:54:22.000Z</time>
      </trkpt>
      <trkpt lat="47.53022" lon="6.70481">
        <ele>406.7</ele>
        <time>2014-10-26T08:54:24.000Z</time>
      </trkpt>
      <trkpt lat="47.53024" lon="6.70481">
        <ele>406.4</ele>
        <time>2014-10-26T08:54:25.000Z</time>
      </trkpt>
      <trkpt lat="47.53027" lon="6.70482">
        <ele>407.1</ele>
        <time>2014-10-26T08:54:27.000Z</time>
      </trkpt>
      <trkpt lat="47.53029" lon="6.70483">
        <ele>407.3</ele>
        <time>2014-10-26T08:54:28.000Z</time>
      </trkpt>
      <trkpt lat="47.53032" lon="6.70483">
        <ele>402.6</ele>
        <time>2014-10-26T08:54:30.000Z</time>
      </trkpt>
      <trkpt lat="47.53035" lon="6.70483">
        <ele>402.4</ele>
        <time>2014-10-26T08:54:31.000Z</time>
      </trkpt>
      <trkpt lat="47.53038" lon="6.70484">
        <ele>401.6</ele>
        <time>2014-10-26T08:54:33.000Z</time>
      </trkpt>
      <trkpt lat="47.53046" lon="6.70484">
        <ele>404.6</ele>
        <time>2014-10-26T08:54:41.000Z</time>
      </trkpt>
      <trkpt lat="47.5305" lon="6.70486">
        <ele>406.4</ele>
        <time>2014-10-26T08:54:45.000Z</time>
      </trkpt>
      <trkpt lat="47.53051" lon="6.70486">
        <ele>406.3</ele>
        <time>2014-10-26T08:54:46.000Z</time>
      </trkpt>
      <trkpt lat="47.53054" lon="6.70489">
        <ele>406.5</ele>
        <time>2014-10-26T08:54:50.000Z</time>
      </trkpt>
      <trkpt lat="47.53055" lon="6.70489">
        <ele>406.8</ele>
        <time>2014-10-26T08:54:51.000Z</time>
      </trkpt>
      <trkpt lat="47.5306" lon="6.70489">
        <ele>407.7</ele>
        <time>2014-10-26T08:54:54.000Z</time>
      </trkpt>
      <trkpt lat="47.53061" lon="6.70489">
        <ele>407.7</ele>
        <time>2014-10-26T08:54:55.000Z</time>
      </trkpt>
      <trkpt lat="47.53064" lon="6.70487">
        <ele>407.4</ele>
        <time>2014-10-26T08:54:57.000Z</time>
      </trkpt>
      <trkpt lat="47.53066" lon="6.70486">
        <ele>407.7</ele>
        <time>2014-10-26T08:54:58.000Z</time>
      </trkpt>
      <trkpt lat="47.53069" lon="6.70484">
        <ele>408.5</ele>
        <time>2014-10-26T08:55:00.000Z</time>
      </trkpt>
      <trkpt lat="47.53071" lon="6.70484">
        <ele>409.1</ele>
        <time>2014-10-26T08:55:01.000Z</time>
      </trkpt>
      <trkpt lat="47.53075" lon="6.70484">
        <ele>410</ele>
        <time>2014-10-26T08:55:04.000Z</time>
      </trkpt>
      <trkpt lat="47.53076" lon="6.70484">
        <ele>410.2</ele>
        <time>2014-10-26T08:55:05.000Z</time>
      </trkpt>
      <trkpt lat="47.5308" lon="6.70484">
        <ele>412.2</ele>
        <time>2014-10-26T08:55:08.000Z</time>
      </trkpt>
      <trkpt lat="47.53082" lon="6.70484">
        <ele>414.1</ele>
        <time>2014-10-26T08:55:09.000Z</time>
      </trkpt>
      <trkpt lat="47.53085" lon="6.70483">
        <ele>413.5</ele>
        <time>2014-10-26T08:55:11.000Z</time>
      </trkpt>
      <trkpt lat="47.53087" lon="6.70482">
        <ele>415.5</ele>
        <time>2014-10-26T08:55:12.000Z</time>
      </trkpt>
      <trkpt lat="47.53091" lon="6.70482">
        <ele>414</ele>
        <time>2014-10-26T08:55:14.000Z</time>
      </trkpt>
      <trkpt lat="47.53093" lon="6.70481">
        <ele>415</ele>
        <time>2014-10-26T08:55:15.000Z</time>
      </trkpt>
      <trkpt lat="47.53096" lon="6.70479">
        <ele>415</ele>
        <time>2014-10-26T08:55:17.000Z</time>
      </trkpt>
      <trkpt lat="47.53098" lon="6.70478">
        <ele>415.1</ele>
        <time>2014-10-26T08:55:18.000Z</time>
      </trkpt>
      <trkpt lat="47.53102" lon="6.70476">
        <ele>413.8</ele>
        <time>2014-10-26T08:55:21.000Z</time>
      </trkpt>
      <trkpt lat="47.53103" lon="6.70476">
        <ele>414.1</ele>
        <time>2014-10-26T08:55:22.000Z</time>
      </trkpt>
      <trkpt lat="47.53107" lon="6.70473">
        <ele>414.1</ele>
        <time>2014-10-26T08:55:25.000Z</time>
      </trkpt>
      <trkpt lat="47.53108" lon="6.70472">
        <ele>413.6</ele>
        <time>2014-10-26T08:55:26.000Z</time>
      </trkpt>
      <trkpt lat="47.53112" lon="6.70471">
        <ele>413.2</ele>
        <time>2014-10-26T08:55:29.000Z</time>
      </trkpt>
      <trkpt lat="47.53114" lon="6.70471">
        <ele>413.2</ele>
        <time>2014-10-26T08:55:30.000Z</time>
      </trkpt>
      <trkpt lat="47.53117" lon="6.70469">
        <ele>411.8</ele>
        <time>2014-10-26T08:55:32.000Z</time>
      </trkpt>
      <trkpt lat="47.53121" lon="6.70465">
        <ele>412.8</ele>
        <time>2014-10-26T08:55:35.000Z</time>
      </trkpt>
      <trkpt lat="47.53124" lon="6.70461">
        <ele>412.1</ele>
        <time>2014-10-26T08:55:38.000Z</time>
      </trkpt>
      <trkpt lat="47.53125" lon="6.7046">
        <ele>413.4</ele>
        <time>2014-10-26T08:55:39.000Z</time>
      </trkpt>
      <trkpt lat="47.53128" lon="6.70456">
        <ele>413.5</ele>
        <time>2014-10-26T08:55:41.000Z</time>
      </trkpt>
      <trkpt lat="47.53129" lon="6.70455">
        <ele>413</ele>
        <time>2014-10-26T08:55:42.000Z</time>
      </trkpt>
      <trkpt lat="47.53132" lon="6.70451">
        <ele>412.2</ele>
        <time>2014-10-26T08:55:44.000Z</time>
      </trkpt>
      <trkpt lat="47.53134" lon="6.70449">
        <ele>412.8</ele>
        <time>2014-10-26T08:55:45.000Z</time>
      </trkpt>
      <trkpt lat="47.53137" lon="6.70446">
        <ele>414.1</ele>
        <time>2014-10-26T08:55:47.000Z</time>
      </trkpt>
      <trkpt lat="47.53139" lon="6.70444">
        <ele>413.5</ele>
        <time>2014-10-26T08:55:48.000Z</time>
      </trkpt>
      <trkpt lat="47.53143" lon="6.70441">
        <ele>412.1</ele>
        <time>2014-10-26T08:55:50.000Z</time>
      </trkpt>
      <trkpt lat="47.53145" lon="6.70439">
        <ele>411.9</ele>
        <time>2014-10-26T08:55:51.000Z</time>
      </trkpt>
      <trkpt lat="47.53147" lon="6.70438">
        <ele>411.9</ele>
        <time>2014-10-26T08:55:52.000Z</time>
      </trkpt>
      <trkpt lat="47.53149" lon="6.70436">
        <ele>412.4</ele>
        <time>2014-10-26T08:55:53.000Z</time>
      </trkpt>
      <trkpt lat="47.53153" lon="6.70433">
        <ele>412.1</ele>
        <time>2014-10-26T08:55:55.000Z</time>
      </trkpt>
      <trkpt lat="47.53154" lon="6.70432">
        <ele>413.6</ele>
        <time>2014-10-26T08:55:56.000Z</time>
      </trkpt>
      <trkpt lat="47.53158" lon="6.70429">
        <ele>414.4</ele>
        <time>2014-10-26T08:55:59.000Z</time>
      </trkpt>
      <trkpt lat="47.5316" lon="6.70428">
        <ele>413.3</ele>
        <time>2014-10-26T08:56:00.000Z</time>
      </trkpt>
      <trkpt lat="47.53163" lon="6.70428">
        <ele>412</ele>
        <time>2014-10-26T08:56:02.000Z</time>
      </trkpt>
      <trkpt lat="47.53165" lon="6.70427">
        <ele>412</ele>
        <time>2014-10-26T08:56:03.000Z</time>
      </trkpt>
      <trkpt lat="47.53169" lon="6.70425">
        <ele>412</ele>
        <time>2014-10-26T08:56:05.000Z</time>
      </trkpt>
      <trkpt lat="47.5317" lon="6.70425">
        <ele>412.2</ele>
        <time>2014-10-26T08:56:06.000Z</time>
      </trkpt>
      <trkpt lat="47.53173" lon="6.70421">
        <ele>412</ele>
        <time>2014-10-26T08:56:08.000Z</time>
      </trkpt>
      <trkpt lat="47.53175" lon="6.7042">
        <ele>412.2</ele>
        <time>2014-10-26T08:56:09.000Z</time>
      </trkpt>
      <trkpt lat="47.53177" lon="6.70417">
        <ele>412.3</ele>
        <time>2014-10-26T08:56:11.000Z</time>
      </trkpt>
      <trkpt lat="47.53179" lon="6.70416">
        <ele>411.4</ele>
        <time>2014-10-26T08:56:12.000Z</time>
      </trkpt>
      <trkpt lat="47.53182" lon="6.70413">
        <ele>411.4</ele>
        <time>2014-10-26T08:56:15.000Z</time>
      </trkpt>
      <trkpt lat="47.53183" lon="6.70412">
        <ele>410.9</ele>
        <time>2014-10-26T08:56:16.000Z</time>
      </trkpt>
      <trkpt lat="47.53187" lon="6.7041">
        <ele>409.4</ele>
        <time>2014-10-26T08:56:20.000Z</time>
      </trkpt>
      <trkpt lat="47.53189" lon="6.7041">
        <ele>409.7</ele>
        <time>2014-10-26T08:56:21.000Z</time>
      </trkpt>
      <trkpt lat="47.53193" lon="6.70409">
        <ele>409.4</ele>
        <time>2014-10-26T08:56:24.000Z</time>
      </trkpt>
      <trkpt lat="47.53194" lon="6.70409">
        <ele>409.4</ele>
        <time>2014-10-26T08:56:25.000Z</time>
      </trkpt>
      <trkpt lat="47.53198" lon="6.70408">
        <ele>410</ele>
        <time>2014-10-26T08:56:28.000Z</time>
      </trkpt>
      <trkpt lat="47.53199" lon="6.70408">
        <ele>409.7</ele>
        <time>2014-10-26T08:56:29.000Z</time>
      </trkpt>
      <trkpt lat="47.53202" lon="6.70406">
        <ele>410.5</ele>
        <time>2014-10-26T08:56:31.000Z</time>
      </trkpt>
      <trkpt lat="47.53203" lon="6.70406">
        <ele>411.4</ele>
        <time>2014-10-26T08:56:32.000Z</time>
      </trkpt>
      <trkpt lat="47.53207" lon="6.70403">
        <ele>412.5</ele>
        <time>2014-10-26T08:56:36.000Z</time>
      </trkpt>
      <trkpt lat="47.53208" lon="6.70402">
        <ele>412.7</ele>
        <time>2014-10-26T08:56:37.000Z</time>
      </trkpt>
      <trkpt lat="47.53211" lon="6.70401">
        <ele>412.5</ele>
        <time>2014-10-26T08:56:39.000Z</time>
      </trkpt>
      <trkpt lat="47.53213" lon="6.704">
        <ele>411</ele>
        <time>2014-10-26T08:56:40.000Z</time>
      </trkpt>
      <trkpt lat="47.53215" lon="6.70399">
        <ele>410.4</ele>
        <time>2014-10-26T08:56:41.000Z</time>
      </trkpt>
      <trkpt lat="47.53217" lon="6.70398">
        <ele>409</ele>
        <time>2014-10-26T08:56:42.000Z</time>
      </trkpt>
      <trkpt lat="47.53219" lon="6.70397">
        <ele>408.3</ele>
        <time>2014-10-26T08:56:43.000Z</time>
      </trkpt>
      <trkpt lat="47.53221" lon="6.70397">
        <ele>409.4</ele>
        <time>2014-10-26T08:56:44.000Z</time>
      </trkpt>
      <trkpt lat="47.53225" lon="6.70396">
        <ele>408.8</ele>
        <time>2014-10-26T08:56:46.000Z</time>
      </trkpt>
      <trkpt lat="47.53227" lon="6.70396">
        <ele>408.6</ele>
        <time>2014-10-26T08:56:47.000Z</time>
      </trkpt>
      <trkpt lat="47.5323" lon="6.70395">
        <ele>409.3</ele>
        <time>2014-10-26T08:56:49.000Z</time>
      </trkpt>
      <trkpt lat="47.53231" lon="6.70395">
        <ele>409.5</ele>
        <time>2014-10-26T08:56:50.000Z</time>
      </trkpt>
      <trkpt lat="47.53234" lon="6.70392">
        <ele>409.1</ele>
        <time>2014-10-26T08:56:52.000Z</time>
      </trkpt>
      <trkpt lat="47.53236" lon="6.70391">
        <ele>410.2</ele>
        <time>2014-10-26T08:56:53.000Z</time>
      </trkpt>
      <trkpt lat="47.53239" lon="6.7039">
        <ele>412.1</ele>
        <time>2014-10-26T08:56:55.000Z</time>
      </trkpt>
      <trkpt lat="47.53241" lon="6.70389">
        <ele>412.6</ele>
        <time>2014-10-26T08:56:56.000Z</time>
      </trkpt>
      <trkpt lat="47.53244" lon="6.70387">
        <ele>413.3</ele>
        <time>2014-10-26T08:56:58.000Z</time>
      </trkpt>
      <trkpt lat="47.53246" lon="6.70386">
        <ele>415.5</ele>
        <time>2014-10-26T08:56:59.000Z</time>
      </trkpt>
      <trkpt lat="47.53251" lon="6.70384">
        <ele>414.6</ele>
        <time>2014-10-26T08:57:01.000Z</time>
      </trkpt>
      <trkpt lat="47.53253" lon="6.70383">
        <ele>415.4</ele>
        <time>2014-10-26T08:57:02.000Z</time>
      </trkpt>
      <trkpt lat="47.53257" lon="6.70382">
        <ele>415.1</ele>
        <time>2014-10-26T08:57:04.000Z</time>
      </trkpt>
      <trkpt lat="47.53258" lon="6.70381">
        <ele>414.9</ele>
        <time>2014-10-26T08:57:05.000Z</time>
      </trkpt>
      <trkpt lat="47.53262" lon="6.70377">
        <ele>414.2</ele>
        <time>2014-10-26T08:57:12.000Z</time>
      </trkpt>
      <trkpt lat="47.53262" lon="6.70377">
        <ele>414.2</ele>
        <time>2014-10-26T08:57:13.000Z</time>
      </trkpt>
      <trkpt lat="47.53267" lon="6.70378">
        <ele>410.9</ele>
        <time>2014-10-26T08:57:19.000Z</time>
      </trkpt>
      <trkpt lat="47.53267" lon="6.70378">
        <ele>409.7</ele>
        <time>2014-10-26T08:57:20.000Z</time>
      </trkpt>
      <trkpt lat="47.53271" lon="6.70374">
        <ele>411.1</ele>
        <time>2014-10-26T08:57:29.000Z</time>
      </trkpt>
      <trkpt lat="47.53271" lon="6.70373">
        <ele>411.5</ele>
        <time>2014-10-26T08:57:30.000Z</time>
      </trkpt>
      <trkpt lat="47.53274" lon="6.70369">
        <ele>412.4</ele>
        <time>2014-10-26T08:57:36.000Z</time>
      </trkpt>
      <trkpt lat="47.53275" lon="6.70369">
        <ele>411.4</ele>
        <time>2014-10-26T08:57:37.000Z</time>
      </trkpt>
      <trkpt lat="47.53279" lon="6.70367">
        <ele>410</ele>
        <time>2014-10-26T08:57:42.000Z</time>
      </trkpt>
      <trkpt lat="47.5328" lon="6.70366">
        <ele>408.7</ele>
        <time>2014-10-26T08:57:43.000Z</time>
      </trkpt>
      <trkpt lat="47.53283" lon="6.70362">
        <ele>408.7</ele>
        <time>2014-10-26T08:57:53.000Z</time>
      </trkpt>
      <trkpt lat="47.53283" lon="6.70361">
        <ele>408.8</ele>
        <time>2014-10-26T08:57:54.000Z</time>
      </trkpt>
      <trkpt lat="47.53287" lon="6.7036">
        <ele>413.7</ele>
        <time>2014-10-26T08:59:45.000Z</time>
      </trkpt>
      <trkpt lat="47.53288" lon="6.70358">
        <ele>414.3</ele>
        <time>2014-10-26T08:59:46.000Z</time>
      </trkpt>
      <trkpt lat="47.53288" lon="6.70355">
        <ele>414.5</ele>
        <time>2014-10-26T08:59:47.000Z</time>
      </trkpt>
      <trkpt lat="47.53289" lon="6.70351">
        <ele>414.6</ele>
        <time>2014-10-26T08:59:48.000Z</time>
      </trkpt>
      <trkpt lat="47.5329" lon="6.70345">
        <ele>414.4</ele>
        <time>2014-10-26T08:59:49.000Z</time>
      </trkpt>
      <trkpt lat="47.53291" lon="6.70338">
        <ele>413.9</ele>
        <time>2014-10-26T08:59:50.000Z</time>
      </trkpt>
      <trkpt lat="47.53292" lon="6.70331">
        <ele>413.4</ele>
        <time>2014-10-26T08:59:51.000Z</time>
      </trkpt>
      <trkpt lat="47.53293" lon="6.70323">
        <ele>413.3</ele>
        <time>2014-10-26T08:59:52.000Z</time>
      </trkpt>
      <trkpt lat="47.53294" lon="6.70314">
        <ele>412.1</ele>
        <time>2014-10-26T08:59:53.000Z</time>
      </trkpt>
      <trkpt lat="47.53295" lon="6.70306">
        <ele>411.6</ele>
        <time>2014-10-26T08:59:54.000Z</time>
      </trkpt>
      <trkpt lat="47.53296" lon="6.70298">
        <ele>411.1</ele>
        <time>2014-10-26T08:59:55.000Z</time>
      </trkpt>
      <trkpt lat="47.53297" lon="6.7029">
        <ele>411</ele>
        <time>2014-10-26T08:59:56.000Z</time>
      </trkpt>
      <trkpt lat="47.53299" lon="6.70283">
        <ele>410.9</ele>
        <time>2014-10-26T08:59:57.000Z</time>
      </trkpt>
      <trkpt lat="47.53299" lon="6.70277">
        <ele>411.2</ele>
        <time>2014-10-26T08:59:58.000Z</time>
      </trkpt>
      <trkpt lat="47.533" lon="6.70272">
        <ele>410.8</ele>
        <time>2014-10-26T08:59:59.000Z</time>
      </trkpt>
      <trkpt lat="47.53302" lon="6.70266">
        <ele>410.8</ele>
        <time>2014-10-26T09:00:01.000Z</time>
      </trkpt>
      <trkpt lat="47.53302" lon="6.70264">
        <ele>410.4</ele>
        <time>2014-10-26T09:00:02.000Z</time>
      </trkpt>
      <trkpt lat="47.53303" lon="6.70261">
        <ele>409.5</ele>
        <time>2014-10-26T09:00:03.000Z</time>
      </trkpt>
      <trkpt lat="47.53304" lon="6.70258">
        <ele>408.2</ele>
        <time>2014-10-26T09:00:04.000Z</time>
      </trkpt>
      <trkpt lat="47.53305" lon="6.70252">
        <ele>406.5</ele>
        <time>2014-10-26T09:00:05.000Z</time>
      </trkpt>
      <trkpt lat="47.53306" lon="6.70247">
        <ele>405.3</ele>
        <time>2014-10-26T09:00:06.000Z</time>
      </trkpt>
      <trkpt lat="47.53307" lon="6.70241">
        <ele>403.8</ele>
        <time>2014-10-26T09:00:07.000Z</time>
      </trkpt>
      <trkpt lat="47.53307" lon="6.70234">
        <ele>404.6</ele>
        <time>2014-10-26T09:00:08.000Z</time>
      </trkpt>
      <trkpt lat="47.53307" lon="6.70228">
        <ele>401.7</ele>
        <time>2014-10-26T09:00:09.000Z</time>
      </trkpt>
      <trkpt lat="47.53308" lon="6.70222">
        <ele>401.6</ele>
        <time>2014-10-26T09:00:10.000Z</time>
      </trkpt>
      <trkpt lat="47.53308" lon="6.70217">
        <ele>403.1</ele>
        <time>2014-10-26T09:00:11.000Z</time>
      </trkpt>
      <trkpt lat="47.53308" lon="6.70213">
        <ele>403.6</ele>
        <time>2014-10-26T09:00:12.000Z</time>
      </trkpt>
      <trkpt lat="47.53309" lon="6.70208">
        <ele>400.1</ele>
        <time>2014-10-26T09:00:14.000Z</time>
      </trkpt>
      <trkpt lat="47.53309" lon="6.70206">
        <ele>398.9</ele>
        <time>2014-10-26T09:00:15.000Z</time>
      </trkpt>
      <trkpt lat="47.53311" lon="6.70201">
        <ele>394.3</ele>
        <time>2014-10-26T09:00:19.000Z</time>
      </trkpt>
      <trkpt lat="47.53311" lon="6.702">
        <ele>393.6</ele>
        <time>2014-10-26T09:00:20.000Z</time>
      </trkpt>
      <trkpt lat="47.53314" lon="6.70195">
        <ele>389.6</ele>
        <time>2014-10-26T09:00:37.000Z</time>
      </trkpt>
      <trkpt lat="47.53314" lon="6.70189">
        <ele>389.1</ele>
        <time>2014-10-26T09:00:38.000Z</time>
      </trkpt>
      <trkpt lat="47.53313" lon="6.70182">
        <ele>385.6</ele>
        <time>2014-10-26T09:00:39.000Z</time>
      </trkpt>
      <trkpt lat="47.53314" lon="6.70177">
        <ele>384.9</ele>
        <time>2014-10-26T09:00:40.000Z</time>
      </trkpt>
      <trkpt lat="47.53313" lon="6.70171">
        <ele>384.3</ele>
        <time>2014-10-26T09:00:41.000Z</time>
      </trkpt>
      <trkpt lat="47.53313" lon="6.70165">
        <ele>384.3</ele>
        <time>2014-10-26T09:00:42.000Z</time>
      </trkpt>
      <trkpt lat="47.53313" lon="6.7016">
        <ele>384.5</ele>
        <time>2014-10-26T09:00:43.000Z</time>
      </trkpt>
      <trkpt lat="47.53313" lon="6.70154">
        <ele>384.9</ele>
        <time>2014-10-26T09:00:44.000Z</time>
      </trkpt>
      <trkpt lat="47.53313" lon="6.70148">
        <ele>383.8</ele>
        <time>2014-10-26T09:00:45.000Z</time>
      </trkpt>
      <trkpt lat="47.53314" lon="6.70141">
        <ele>383.8</ele>
        <time>2014-10-26T09:00:46.000Z</time>
      </trkpt>
      <trkpt lat="47.53315" lon="6.70134">
        <ele>383.6</ele>
        <time>2014-10-26T09:00:47.000Z</time>
      </trkpt>
      <trkpt lat="47.53316" lon="6.70126">
        <ele>383.7</ele>
        <time>2014-10-26T09:00:48.000Z</time>
      </trkpt>
      <trkpt lat="47.53317" lon="6.70117">
        <ele>382</ele>
        <time>2014-10-26T09:00:49.000Z</time>
      </trkpt>
      <trkpt lat="47.53318" lon="6.70109">
        <ele>380.8</ele>
        <time>2014-10-26T09:00:50.000Z</time>
      </trkpt>
      <trkpt lat="47.53319" lon="6.701">
        <ele>379.6</ele>
        <time>2014-10-26T09:00:51.000Z</time>
      </trkpt>
      <trkpt lat="47.53319" lon="6.70091">
        <ele>377.4</ele>
        <time>2014-10-26T09:00:52.000Z</time>
      </trkpt>
      <trkpt lat="47.53319" lon="6.70083">
        <ele>375.9</ele>
        <time>2014-10-26T09:00:53.000Z</time>
      </trkpt>
      <trkpt lat="47.53319" lon="6.70074">
        <ele>374.6</ele>
        <time>2014-10-26T09:00:54.000Z</time>
      </trkpt>
      <trkpt lat="47.53318" lon="6.70065">
        <ele>374.1</ele>
        <time>2014-10-26T09:00:55.000Z</time>
      </trkpt>
      <trkpt lat="47.53317" lon="6.70057">
        <ele>373.5</ele>
        <time>2014-10-26T09:00:56.000Z</time>
      </trkpt>
      <trkpt lat="47.53316" lon="6.70049">
        <ele>372</ele>
        <time>2014-10-26T09:00:57.000Z</time>
      </trkpt>
      <trkpt lat="47.53315" lon="6.70041">
        <ele>371.1</ele>
        <time>2014-10-26T09:00:58.000Z</time>
      </trkpt>
      <trkpt lat="47.53314" lon="6.70034">
        <ele>370.8</ele>
        <time>2014-10-26T09:00:59.000Z</time>
      </trkpt>
      <trkpt lat="47.53313" lon="6.70028">
        <ele>369.4</ele>
        <time>2014-10-26T09:01:00.000Z</time>
      </trkpt>
      <trkpt lat="47.53312" lon="6.70023">
        <ele>370.1</ele>
        <time>2014-10-26T09:01:01.000Z</time>
      </trkpt>
      <trkpt lat="47.53311" lon="6.70019">
        <ele>369.7</ele>
        <time>2014-10-26T09:01:02.000Z</time>
      </trkpt>
      <trkpt lat="47.53309" lon="6.70016">
        <ele>370</ele>
        <time>2014-10-26T09:01:03.000Z</time>
      </trkpt>
      <trkpt lat="47.53307" lon="6.70012">
        <ele>370.3</ele>
        <time>2014-10-26T09:01:05.000Z</time>
      </trkpt>
      <trkpt lat="47.53305" lon="6.7001">
        <ele>370.5</ele>
        <time>2014-10-26T09:01:06.000Z</time>
      </trkpt>
      <trkpt lat="47.53302" lon="6.70004">
        <ele>370.9</ele>
        <time>2014-10-26T09:01:09.000Z</time>
      </trkpt>
      <trkpt lat="47.53302" lon="6.70003">
        <ele>370.7</ele>
        <time>2014-10-26T09:01:10.000Z</time>
      </trkpt>
      <trkpt lat="47.53301" lon="6.69997">
        <ele>372.7</ele>
        <time>2014-10-26T09:01:13.000Z</time>
      </trkpt>
      <trkpt lat="47.53301" lon="6.69995">
        <ele>372.9</ele>
        <time>2014-10-26T09:01:14.000Z</time>
      </trkpt>
      <trkpt lat="47.53303" lon="6.69989">
        <ele>377</ele>
        <time>2014-10-26T09:01:18.000Z</time>
      </trkpt>
      <trkpt lat="47.53304" lon="6.69987">
        <ele>376.7</ele>
        <time>2014-10-26T09:01:19.000Z</time>
      </trkpt>
      <trkpt lat="47.53305" lon="6.69981">
        <ele>379</ele>
        <time>2014-10-26T09:01:22.000Z</time>
      </trkpt>
      <trkpt lat="47.53306" lon="6.69979">
        <ele>379.5</ele>
        <time>2014-10-26T09:01:23.000Z</time>
      </trkpt>
      <trkpt lat="47.53308" lon="6.69975">
        <ele>381</ele>
        <time>2014-10-26T09:01:25.000Z</time>
      </trkpt>
      <trkpt lat="47.5331" lon="6.69972">
        <ele>381.3</ele>
        <time>2014-10-26T09:01:26.000Z</time>
      </trkpt>
      <trkpt lat="47.53311" lon="6.69969">
        <ele>381.7</ele>
        <time>2014-10-26T09:01:27.000Z</time>
      </trkpt>
      <trkpt lat="47.53313" lon="6.69967">
        <ele>382</ele>
        <time>2014-10-26T09:01:28.000Z</time>
      </trkpt>
      <trkpt lat="47.53315" lon="6.69962">
        <ele>383.1</ele>
        <time>2014-10-26T09:01:30.000Z</time>
      </trkpt>
      <trkpt lat="47.53316" lon="6.6996">
        <ele>383.8</ele>
        <time>2014-10-26T09:01:31.000Z</time>
      </trkpt>
      <trkpt lat="47.53318" lon="6.69955">
        <ele>390.8</ele>
        <time>2014-10-26T09:01:33.000Z</time>
      </trkpt>
      <trkpt lat="47.53325" lon="6.69932">
        <ele>389.6</ele>
        <time>2014-10-26T09:01:41.000Z</time>
      </trkpt>
      <trkpt lat="47.53326" lon="6.69928">
        <ele>389.1</ele>
        <time>2014-10-26T09:01:42.000Z</time>
      </trkpt>
      <trkpt lat="47.53327" lon="6.69923">
        <ele>388.8</ele>
        <time>2014-10-26T09:01:43.000Z</time>
      </trkpt>
      <trkpt lat="47.53328" lon="6.69917">
        <ele>388.7</ele>
        <time>2014-10-26T09:01:44.000Z</time>
      </trkpt>
      <trkpt lat="47.53329" lon="6.6991">
        <ele>387.7</ele>
        <time>2014-10-26T09:01:45.000Z</time>
      </trkpt>
      <trkpt lat="47.5333" lon="6.69903">
        <ele>387.5</ele>
        <time>2014-10-26T09:01:46.000Z</time>
      </trkpt>
      <trkpt lat="47.5333" lon="6.69894">
        <ele>384.8</ele>
        <time>2014-10-26T09:01:47.000Z</time>
      </trkpt>
      <trkpt lat="47.5333" lon="6.69884">
        <ele>384</ele>
        <time>2014-10-26T09:01:48.000Z</time>
      </trkpt>
      <trkpt lat="47.5333" lon="6.69876">
        <ele>385.5</ele>
        <time>2014-10-26T09:01:49.000Z</time>
      </trkpt>
      <trkpt lat="47.53328" lon="6.69868">
        <ele>384.9</ele>
        <time>2014-10-26T09:01:50.000Z</time>
      </trkpt>
      <trkpt lat="47.53327" lon="6.69861">
        <ele>385.4</ele>
        <time>2014-10-26T09:01:51.000Z</time>
      </trkpt>
      <trkpt lat="47.53325" lon="6.69854">
        <ele>385.8</ele>
        <time>2014-10-26T09:01:52.000Z</time>
      </trkpt>
      <trkpt lat="47.53323" lon="6.69849">
        <ele>385.4</ele>
        <time>2014-10-26T09:01:53.000Z</time>
      </trkpt>
      <trkpt lat="47.53322" lon="6.69843">
        <ele>385.3</ele>
        <time>2014-10-26T09:01:54.000Z</time>
      </trkpt>
      <trkpt lat="47.53322" lon="6.69838">
        <ele>385.5</ele>
        <time>2014-10-26T09:01:55.000Z</time>
      </trkpt>
      <trkpt lat="47.53321" lon="6.69833">
        <ele>385.4</ele>
        <time>2014-10-26T09:01:56.000Z</time>
      </trkpt>
      <trkpt lat="47.53321" lon="6.69827">
        <ele>383.9</ele>
        <time>2014-10-26T09:01:57.000Z</time>
      </trkpt>
      <trkpt lat="47.53321" lon="6.69809">
        <ele>378.8</ele>
        <time>2014-10-26T09:01:58.000Z</time>
      </trkpt>
      <trkpt lat="47.5332" lon="6.69801">
        <ele>376.9</ele>
        <time>2014-10-26T09:01:59.000Z</time>
      </trkpt>
      <trkpt lat="47.5332" lon="6.69794">
        <ele>376.8</ele>
        <time>2014-10-26T09:02:00.000Z</time>
      </trkpt>
      <trkpt lat="47.53319" lon="6.69787">
        <ele>376.6</ele>
        <time>2014-10-26T09:02:01.000Z</time>
      </trkpt>
      <trkpt lat="47.53317" lon="6.6978">
        <ele>376.2</ele>
        <time>2014-10-26T09:02:02.000Z</time>
      </trkpt>
      <trkpt lat="47.53316" lon="6.69774">
        <ele>375.9</ele>
        <time>2014-10-26T09:02:03.000Z</time>
      </trkpt>
      <trkpt lat="47.53316" lon="6.69767">
        <ele>375.3</ele>
        <time>2014-10-26T09:02:04.000Z</time>
      </trkpt>
      <trkpt lat="47.53315" lon="6.69761">
        <ele>374.9</ele>
        <time>2014-10-26T09:02:05.000Z</time>
      </trkpt>
      <trkpt lat="47.53314" lon="6.69754">
        <ele>374.5</ele>
        <time>2014-10-26T09:02:06.000Z</time>
      </trkpt>
      <trkpt lat="47.53313" lon="6.69747">
        <ele>374.4</ele>
        <time>2014-10-26T09:02:07.000Z</time>
      </trkpt>
      <trkpt lat="47.53312" lon="6.69739">
        <ele>374.1</ele>
        <time>2014-10-26T09:02:08.000Z</time>
      </trkpt>
      <trkpt lat="47.53312" lon="6.69729">
        <ele>371.7</ele>
        <time>2014-10-26T09:02:09.000Z</time>
      </trkpt>
      <trkpt lat="47.53311" lon="6.69721">
        <ele>369.5</ele>
        <time>2014-10-26T09:02:10.000Z</time>
      </trkpt>
      <trkpt lat="47.53311" lon="6.69705">
        <ele>363.3</ele>
        <time>2014-10-26T09:02:11.000Z</time>
      </trkpt>
      <trkpt lat="47.53311" lon="6.69695">
        <ele>360.8</ele>
        <time>2014-10-26T09:02:12.000Z</time>
      </trkpt>
      <trkpt lat="47.5331" lon="6.69685">
        <ele>357</ele>
        <time>2014-10-26T09:02:13.000Z</time>
      </trkpt>
      <trkpt lat="47.5331" lon="6.69678">
        <ele>356.8</ele>
        <time>2014-10-26T09:02:14.000Z</time>
      </trkpt>
      <trkpt lat="47.53309" lon="6.69671">
        <ele>356.3</ele>
        <time>2014-10-26T09:02:15.000Z</time>
      </trkpt>
      <trkpt lat="47.53309" lon="6.69663">
        <ele>355.4</ele>
        <time>2014-10-26T09:02:16.000Z</time>
      </trkpt>
      <trkpt lat="47.53308" lon="6.69656">
        <ele>354.4</ele>
        <time>2014-10-26T09:02:17.000Z</time>
      </trkpt>
      <trkpt lat="47.53307" lon="6.69649">
        <ele>354.4</ele>
        <time>2014-10-26T09:02:18.000Z</time>
      </trkpt>
      <trkpt lat="47.53306" lon="6.69642">
        <ele>354</ele>
        <time>2014-10-26T09:02:19.000Z</time>
      </trkpt>
      <trkpt lat="47.53306" lon="6.69635">
        <ele>353.7</ele>
        <time>2014-10-26T09:02:20.000Z</time>
      </trkpt>
      <trkpt lat="47.53305" lon="6.69629">
        <ele>353.4</ele>
        <time>2014-10-26T09:02:21.000Z</time>
      </trkpt>
      <trkpt lat="47.53304" lon="6.69622">
        <ele>353.7</ele>
        <time>2014-10-26T09:02:22.000Z</time>
      </trkpt>
      <trkpt lat="47.53303" lon="6.69615">
        <ele>353.2</ele>
        <time>2014-10-26T09:02:23.000Z</time>
      </trkpt>
      <trkpt lat="47.53302" lon="6.69609">
        <ele>353.7</ele>
        <time>2014-10-26T09:02:24.000Z</time>
      </trkpt>
      <trkpt lat="47.53301" lon="6.69602">
        <ele>353.1</ele>
        <time>2014-10-26T09:02:25.000Z</time>
      </trkpt>
      <trkpt lat="47.533" lon="6.69595">
        <ele>353.1</ele>
        <time>2014-10-26T09:02:26.000Z</time>
      </trkpt>
      <trkpt lat="47.53299" lon="6.69588">
        <ele>353.1</ele>
        <time>2014-10-26T09:02:27.000Z</time>
      </trkpt>
      <trkpt lat="47.53298" lon="6.69581">
        <ele>352.6</ele>
        <time>2014-10-26T09:02:28.000Z</time>
      </trkpt>
      <trkpt lat="47.53297" lon="6.69574">
        <ele>352.5</ele>
        <time>2014-10-26T09:02:29.000Z</time>
      </trkpt>
      <trkpt lat="47.53295" lon="6.69568">
        <ele>352.8</ele>
        <time>2014-10-26T09:02:30.000Z</time>
      </trkpt>
      <trkpt lat="47.53294" lon="6.69562">
        <ele>352.7</ele>
        <time>2014-10-26T09:02:31.000Z</time>
      </trkpt>
      <trkpt lat="47.53293" lon="6.69556">
        <ele>352.5</ele>
        <time>2014-10-26T09:02:32.000Z</time>
      </trkpt>
      <trkpt lat="47.53292" lon="6.69544">
        <ele>353.5</ele>
        <time>2014-10-26T09:02:35.000Z</time>
      </trkpt>
      <trkpt lat="47.53292" lon="6.69542">
        <ele>353.3</ele>
        <time>2014-10-26T09:02:36.000Z</time>
      </trkpt>
      <trkpt lat="47.53292" lon="6.69537">
        <ele>353.1</ele>
        <time>2014-10-26T09:02:37.000Z</time>
      </trkpt>
      <trkpt lat="47.53291" lon="6.69534">
        <ele>351.9</ele>
        <time>2014-10-26T09:02:38.000Z</time>
      </trkpt>
      <trkpt lat="47.53289" lon="6.6953">
        <ele>350.1</ele>
        <time>2014-10-26T09:02:39.000Z</time>
      </trkpt>
      <trkpt lat="47.53286" lon="6.69528">
        <ele>349.9</ele>
        <time>2014-10-26T09:02:40.000Z</time>
      </trkpt>
      <trkpt lat="47.53282" lon="6.69527">
        <ele>350.6</ele>
        <time>2014-10-26T09:02:41.000Z</time>
      </trkpt>
      <trkpt lat="47.53278" lon="6.69526">
        <ele>351.4</ele>
        <time>2014-10-26T09:02:42.000Z</time>
      </trkpt>
      <trkpt lat="47.53273" lon="6.69526">
        <ele>352</ele>
        <time>2014-10-26T09:02:43.000Z</time>
      </trkpt>
      <trkpt lat="47.53269" lon="6.69525">
        <ele>351.9</ele>
        <time>2014-10-26T09:02:44.000Z</time>
      </trkpt>
      <trkpt lat="47.53265" lon="6.69525">
        <ele>351.6</ele>
        <time>2014-10-26T09:02:45.000Z</time>
      </trkpt>
      <trkpt lat="47.5326" lon="6.69526">
        <ele>351</ele>
        <time>2014-10-26T09:02:46.000Z</time>
      </trkpt>
      <trkpt lat="47.53256" lon="6.69526">
        <ele>350.7</ele>
        <time>2014-10-26T09:02:47.000Z</time>
      </trkpt>
      <trkpt lat="47.5325" lon="6.6953">
        <ele>348.9</ele>
        <time>2014-10-26T09:02:48.000Z</time>
      </trkpt>
      <trkpt lat="47.53246" lon="6.69531">
        <ele>348.3</ele>
        <time>2014-10-26T09:02:49.000Z</time>
      </trkpt>
      <trkpt lat="47.53242" lon="6.69531">
        <ele>348.5</ele>
        <time>2014-10-26T09:02:50.000Z</time>
      </trkpt>
      <trkpt lat="47.53237" lon="6.69532">
        <ele>348.3</ele>
        <time>2014-10-26T09:02:51.000Z</time>
      </trkpt>
      <trkpt lat="47.53233" lon="6.69532">
        <ele>348.3</ele>
        <time>2014-10-26T09:02:52.000Z</time>
      </trkpt>
      <trkpt lat="47.53228" lon="6.69532">
        <ele>348.3</ele>
        <time>2014-10-26T09:02:53.000Z</time>
      </trkpt>
      <trkpt lat="47.53223" lon="6.69532">
        <ele>348.5</ele>
        <time>2014-10-26T09:02:54.001Z</time>
      </trkpt>
      <trkpt lat="47.53218" lon="6.69534">
        <ele>347.7</ele>
        <time>2014-10-26T09:02:55.000Z</time>
      </trkpt>
      <trkpt lat="47.53214" lon="6.69535">
        <ele>347.5</ele>
        <time>2014-10-26T09:02:56.000Z</time>
      </trkpt>
      <trkpt lat="47.5321" lon="6.69536">
        <ele>347.3</ele>
        <time>2014-10-26T09:02:57.000Z</time>
      </trkpt>
      <trkpt lat="47.53205" lon="6.69537">
        <ele>346.6</ele>
        <time>2014-10-26T09:02:58.000Z</time>
      </trkpt>
      <trkpt lat="47.53201" lon="6.69538">
        <ele>346.5</ele>
        <time>2014-10-26T09:02:59.000Z</time>
      </trkpt>
      <trkpt lat="47.53197" lon="6.6954">
        <ele>345.1</ele>
        <time>2014-10-26T09:03:00.000Z</time>
      </trkpt>
      <trkpt lat="47.53192" lon="6.69541">
        <ele>345</ele>
        <time>2014-10-26T09:03:01.000Z</time>
      </trkpt>
      <trkpt lat="47.53188" lon="6.69543">
        <ele>344.5</ele>
        <time>2014-10-26T09:03:02.000Z</time>
      </trkpt>
      <trkpt lat="47.53183" lon="6.69544">
        <ele>343.3</ele>
        <time>2014-10-26T09:03:03.000Z</time>
      </trkpt>
      <trkpt lat="47.53179" lon="6.69546">
        <ele>343.3</ele>
        <time>2014-10-26T09:03:04.000Z</time>
      </trkpt>
      <trkpt lat="47.53175" lon="6.69546">
        <ele>341.9</ele>
        <time>2014-10-26T09:03:05.000Z</time>
      </trkpt>
      <trkpt lat="47.5317" lon="6.69546">
        <ele>342.4</ele>
        <time>2014-10-26T09:03:06.000Z</time>
      </trkpt>
      <trkpt lat="47.53165" lon="6.69547">
        <ele>342.8</ele>
        <time>2014-10-26T09:03:07.001Z</time>
      </trkpt>
      <trkpt lat="47.53162" lon="6.69547">
        <ele>342.7</ele>
        <time>2014-10-26T09:03:08.000Z</time>
      </trkpt>
      <trkpt lat="47.53157" lon="6.69547">
        <ele>343</ele>
        <time>2014-10-26T09:03:08.999Z</time>
      </trkpt>
      <trkpt lat="47.53154" lon="6.69546">
        <ele>343.6</ele>
        <time>2014-10-26T09:03:10.000Z</time>
      </trkpt>
      <trkpt lat="47.53148" lon="6.69546">
        <ele>343</ele>
        <time>2014-10-26T09:03:11.000Z</time>
      </trkpt>
      <trkpt lat="47.53144" lon="6.69545">
        <ele>343.2</ele>
        <time>2014-10-26T09:03:12.000Z</time>
      </trkpt>
      <trkpt lat="47.5314" lon="6.69544">
        <ele>342.8</ele>
        <time>2014-10-26T09:03:13.000Z</time>
      </trkpt>
      <trkpt lat="47.53136" lon="6.69544">
        <ele>343</ele>
        <time>2014-10-26T09:03:14.000Z</time>
      </trkpt>
      <trkpt lat="47.53131" lon="6.69542">
        <ele>343.2</ele>
        <time>2014-10-26T09:03:15.000Z</time>
      </trkpt>
      <trkpt lat="47.53129" lon="6.6954">
        <ele>342.9</ele>
        <time>2014-10-26T09:03:16.000Z</time>
      </trkpt>
      <trkpt lat="47.53127" lon="6.69538">
        <ele>342.1</ele>
        <time>2014-10-26T09:03:17.000Z</time>
      </trkpt>
      <trkpt lat="47.53126" lon="6.69535">
        <ele>341.6</ele>
        <time>2014-10-26T09:03:18.000Z</time>
      </trkpt>
      <trkpt lat="47.53126" lon="6.6953">
        <ele>342.2</ele>
        <time>2014-10-26T09:03:21.000Z</time>
      </trkpt>
      <trkpt lat="47.53126" lon="6.69528">
        <ele>342.4</ele>
        <time>2014-10-26T09:03:22.000Z</time>
      </trkpt>
      <trkpt lat="47.53126" lon="6.69522">
        <ele>341.9</ele>
        <time>2014-10-26T09:03:24.000Z</time>
      </trkpt>
      <trkpt lat="47.53126" lon="6.69519">
        <ele>342.1</ele>
        <time>2014-10-26T09:03:25.000Z</time>
      </trkpt>
      <trkpt lat="47.53126" lon="6.69513">
        <ele>342.1</ele>
        <time>2014-10-26T09:03:27.000Z</time>
      </trkpt>
      <trkpt lat="47.53126" lon="6.6951">
        <ele>341.7</ele>
        <time>2014-10-26T09:03:28.000Z</time>
      </trkpt>
      <trkpt lat="47.53126" lon="6.69505">
        <ele>341.6</ele>
        <time>2014-10-26T09:03:30.000Z</time>
      </trkpt>
      <trkpt lat="47.53126" lon="6.69503">
        <ele>341.6</ele>
        <time>2014-10-26T09:03:31.000Z</time>
      </trkpt>
      <trkpt lat="47.53127" lon="6.69496">
        <ele>341.2</ele>
        <time>2014-10-26T09:03:33.000Z</time>
      </trkpt>
      <trkpt lat="47.53125" lon="6.69463">
        <ele>341.4</ele>
        <time>2014-10-26T09:03:41.000Z</time>
      </trkpt>
      <trkpt lat="47.53125" lon="6.69459">
        <ele>340.8</ele>
        <time>2014-10-26T09:03:42.000Z</time>
      </trkpt>
      <trkpt lat="47.53125" lon="6.69455">
        <ele>340.4</ele>
        <time>2014-10-26T09:03:43.000Z</time>
      </trkpt>
      <trkpt lat="47.53125" lon="6.69451">
        <ele>339.8</ele>
        <time>2014-10-26T09:03:44.000Z</time>
      </trkpt>
      <trkpt lat="47.53124" lon="6.69448">
        <ele>339.6</ele>
        <time>2014-10-26T09:03:45.000Z</time>
      </trkpt>
      <trkpt lat="47.53124" lon="6.69444">
        <ele>340.2</ele>
        <time>2014-10-26T09:03:46.000Z</time>
      </trkpt>
      <trkpt lat="47.53124" lon="6.6944">
        <ele>341.3</ele>
        <time>2014-10-26T09:03:47.000Z</time>
      </trkpt>
      <trkpt lat="47.53124" lon="6.69436">
        <ele>341.6</ele>
        <time>2014-10-26T09:03:48.000Z</time>
      </trkpt>
      <trkpt lat="47.53124" lon="6.69432">
        <ele>342</ele>
        <time>2014-10-26T09:03:49.000Z</time>
      </trkpt>
      <trkpt lat="47.53123" lon="6.69428">
        <ele>342.5</ele>
        <time>2014-10-26T09:03:50.000Z</time>
      </trkpt>
      <trkpt lat="47.53123" lon="6.69423">
        <ele>343</ele>
        <time>2014-10-26T09:03:51.000Z</time>
      </trkpt>
      <trkpt lat="47.53122" lon="6.69419">
        <ele>343.5</ele>
        <time>2014-10-26T09:03:52.000Z</time>
      </trkpt>
      <trkpt lat="47.53122" lon="6.69414">
        <ele>344</ele>
        <time>2014-10-26T09:03:53.000Z</time>
      </trkpt>
      <trkpt lat="47.53122" lon="6.6941">
        <ele>344.9</ele>
        <time>2014-10-26T09:03:54.000Z</time>
      </trkpt>
      <trkpt lat="47.53122" lon="6.69407">
        <ele>344.8</ele>
        <time>2014-10-26T09:03:55.000Z</time>
      </trkpt>
      <trkpt lat="47.53122" lon="6.69403">
        <ele>344.4</ele>
        <time>2014-10-26T09:03:56.000Z</time>
      </trkpt>
      <trkpt lat="47.53122" lon="6.69399">
        <ele>344.9</ele>
        <time>2014-10-26T09:03:57.000Z</time>
      </trkpt>
      <trkpt lat="47.53122" lon="6.69394">
        <ele>345.1</ele>
        <time>2014-10-26T09:03:58.000Z</time>
      </trkpt>
      <trkpt lat="47.53121" lon="6.6939">
        <ele>345.7</ele>
        <time>2014-10-26T09:03:59.000Z</time>
      </trkpt>
      <trkpt lat="47.53121" lon="6.69386">
        <ele>345.7</ele>
        <time>2014-10-26T09:04:00.000Z</time>
      </trkpt>
      <trkpt lat="47.53121" lon="6.69381">
        <ele>345.8</ele>
        <time>2014-10-26T09:04:01.000Z</time>
      </trkpt>
      <trkpt lat="47.5312" lon="6.69377">
        <ele>346.1</ele>
        <time>2014-10-26T09:04:02.000Z</time>
      </trkpt>
      <trkpt lat="47.5312" lon="6.69373">
        <ele>346.7</ele>
        <time>2014-10-26T09:04:03.000Z</time>
      </trkpt>
      <trkpt lat="47.5312" lon="6.69368">
        <ele>346.9</ele>
        <time>2014-10-26T09:04:04.000Z</time>
      </trkpt>
      <trkpt lat="47.5312" lon="6.69364">
        <ele>347.1</ele>
        <time>2014-10-26T09:04:05.000Z</time>
      </trkpt>
      <trkpt lat="47.5312" lon="6.6936">
        <ele>347.1</ele>
        <time>2014-10-26T09:04:06.000Z</time>
      </trkpt>
      <trkpt lat="47.53119" lon="6.69355">
        <ele>347.1</ele>
        <time>2014-10-26T09:04:07.000Z</time>
      </trkpt>
      <trkpt lat="47.53119" lon="6.69351">
        <ele>347.5</ele>
        <time>2014-10-26T09:04:08.000Z</time>
      </trkpt>
      <trkpt lat="47.53119" lon="6.69347">
        <ele>347.3</ele>
        <time>2014-10-26T09:04:09.000Z</time>
      </trkpt>
      <trkpt lat="47.53118" lon="6.69342">
        <ele>347.5</ele>
        <time>2014-10-26T09:04:10.000Z</time>
      </trkpt>
      <trkpt lat="47.53118" lon="6.69338">
        <ele>348</ele>
        <time>2014-10-26T09:04:11.000Z</time>
      </trkpt>
      <trkpt lat="47.53118" lon="6.69334">
        <ele>348.7</ele>
        <time>2014-10-26T09:04:12.000Z</time>
      </trkpt>
      <trkpt lat="47.53117" lon="6.6933">
        <ele>349</ele>
        <time>2014-10-26T09:04:13.000Z</time>
      </trkpt>
      <trkpt lat="47.53117" lon="6.69326">
        <ele>349.2</ele>
        <time>2014-10-26T09:04:14.000Z</time>
      </trkpt>
      <trkpt lat="47.53116" lon="6.69322">
        <ele>349.3</ele>
        <time>2014-10-26T09:04:15.000Z</time>
      </trkpt>
      <trkpt lat="47.53116" lon="6.69318">
        <ele>349.7</ele>
        <time>2014-10-26T09:04:16.000Z</time>
      </trkpt>
      <trkpt lat="47.53116" lon="6.69314">
        <ele>350</ele>
        <time>2014-10-26T09:04:17.000Z</time>
      </trkpt>
      <trkpt lat="47.53115" lon="6.6931">
        <ele>350.1</ele>
        <time>2014-10-26T09:04:18.000Z</time>
      </trkpt>
      <trkpt lat="47.53115" lon="6.69306">
        <ele>350.2</ele>
        <time>2014-10-26T09:04:19.000Z</time>
      </trkpt>
      <trkpt lat="47.53114" lon="6.69302">
        <ele>350.2</ele>
        <time>2014-10-26T09:04:20.000Z</time>
      </trkpt>
      <trkpt lat="47.53114" lon="6.69298">
        <ele>350.2</ele>
        <time>2014-10-26T09:04:21.000Z</time>
      </trkpt>
      <trkpt lat="47.53114" lon="6.69294">
        <ele>350.2</ele>
        <time>2014-10-26T09:04:22.000Z</time>
      </trkpt>
      <trkpt lat="47.53113" lon="6.6929">
        <ele>350.6</ele>
        <time>2014-10-26T09:04:23.000Z</time>
      </trkpt>
      <trkpt lat="47.53113" lon="6.69286">
        <ele>350.8</ele>
        <time>2014-10-26T09:04:24.000Z</time>
      </trkpt>
      <trkpt lat="47.53112" lon="6.69282">
        <ele>350.9</ele>
        <time>2014-10-26T09:04:25.000Z</time>
      </trkpt>
      <trkpt lat="47.53112" lon="6.69278">
        <ele>351.2</ele>
        <time>2014-10-26T09:04:26.000Z</time>
      </trkpt>
      <trkpt lat="47.53111" lon="6.69274">
        <ele>351.1</ele>
        <time>2014-10-26T09:04:27.000Z</time>
      </trkpt>
      <trkpt lat="47.53111" lon="6.6927">
        <ele>351</ele>
        <time>2014-10-26T09:04:28.000Z</time>
      </trkpt>
      <trkpt lat="47.5311" lon="6.69266">
        <ele>351.1</ele>
        <time>2014-10-26T09:04:29.000Z</time>
      </trkpt>
      <trkpt lat="47.5311" lon="6.69262">
        <ele>351.4</ele>
        <time>2014-10-26T09:04:30.000Z</time>
      </trkpt>
      <trkpt lat="47.5311" lon="6.69258">
        <ele>351.4</ele>
        <time>2014-10-26T09:04:31.000Z</time>
      </trkpt>
      <trkpt lat="47.53109" lon="6.69253">
        <ele>351.6</ele>
        <time>2014-10-26T09:04:32.000Z</time>
      </trkpt>
      <trkpt lat="47.53109" lon="6.69249">
        <ele>351.9</ele>
        <time>2014-10-26T09:04:33.000Z</time>
      </trkpt>
      <trkpt lat="47.53108" lon="6.69239">
        <ele>352.4</ele>
        <time>2014-10-26T09:04:36.000Z</time>
      </trkpt>
      <trkpt lat="47.53108" lon="6.69233">
        <ele>354</ele>
        <time>2014-10-26T09:04:38.000Z</time>
      </trkpt>
      <trkpt lat="47.53108" lon="6.6923">
        <ele>354.4</ele>
        <time>2014-10-26T09:04:39.000Z</time>
      </trkpt>
      <trkpt lat="47.53108" lon="6.69223">
        <ele>355.6</ele>
        <time>2014-10-26T09:04:41.000Z</time>
      </trkpt>
      <trkpt lat="47.53108" lon="6.6922">
        <ele>356.1</ele>
        <time>2014-10-26T09:04:42.000Z</time>
      </trkpt>
      <trkpt lat="47.53107" lon="6.69214">
        <ele>357.1</ele>
        <time>2014-10-26T09:04:44.000Z</time>
      </trkpt>
      <trkpt lat="47.53107" lon="6.69211">
        <ele>357.4</ele>
        <time>2014-10-26T09:04:45.000Z</time>
      </trkpt>
      <trkpt lat="47.53106" lon="6.69206">
        <ele>358</ele>
        <time>2014-10-26T09:04:47.000Z</time>
      </trkpt>
      <trkpt lat="47.53106" lon="6.69203">
        <ele>358.4</ele>
        <time>2014-10-26T09:04:48.000Z</time>
      </trkpt>
      <trkpt lat="47.53105" lon="6.69197">
        <ele>359.1</ele>
        <time>2014-10-26T09:04:50.000Z</time>
      </trkpt>
      <trkpt lat="47.53105" lon="6.69194">
        <ele>359.4</ele>
        <time>2014-10-26T09:04:51.000Z</time>
      </trkpt>
      <trkpt lat="47.53105" lon="6.69188">
        <ele>359.9</ele>
        <time>2014-10-26T09:04:53.000Z</time>
      </trkpt>
      <trkpt lat="47.53105" lon="6.69185">
        <ele>360.4</ele>
        <time>2014-10-26T09:04:54.000Z</time>
      </trkpt>
      <trkpt lat="47.53104" lon="6.69179">
        <ele>360.8</ele>
        <time>2014-10-26T09:04:56.000Z</time>
      </trkpt>
      <trkpt lat="47.53104" lon="6.69176">
        <ele>361.2</ele>
        <time>2014-10-26T09:04:57.000Z</time>
      </trkpt>
      <trkpt lat="47.53104" lon="6.6917">
        <ele>361.5</ele>
        <time>2014-10-26T09:04:59.000Z</time>
      </trkpt>
      <trkpt lat="47.53104" lon="6.69166">
        <ele>361.9</ele>
        <time>2014-10-26T09:05:00.000Z</time>
      </trkpt>
      <trkpt lat="47.53103" lon="6.6916">
        <ele>362.3</ele>
        <time>2014-10-26T09:05:02.000Z</time>
      </trkpt>
      <trkpt lat="47.53103" lon="6.69157">
        <ele>362.7</ele>
        <time>2014-10-26T09:05:03.000Z</time>
      </trkpt>
      <trkpt lat="47.53103" lon="6.69151">
        <ele>363.1</ele>
        <time>2014-10-26T09:05:05.000Z</time>
      </trkpt>
      <trkpt lat="47.53103" lon="6.69148">
        <ele>363.2</ele>
        <time>2014-10-26T09:05:06.000Z</time>
      </trkpt>
      <trkpt lat="47.53103" lon="6.69142">
        <ele>363.7</ele>
        <time>2014-10-26T09:05:08.000Z</time>
      </trkpt>
      <trkpt lat="47.53103" lon="6.69139">
        <ele>364.3</ele>
        <time>2014-10-26T09:05:09.000Z</time>
      </trkpt>
      <trkpt lat="47.53103" lon="6.69133">
        <ele>364.7</ele>
        <time>2014-10-26T09:05:11.000Z</time>
      </trkpt>
      <trkpt lat="47.53103" lon="6.6913">
        <ele>364.6</ele>
        <time>2014-10-26T09:05:12.000Z</time>
      </trkpt>
      <trkpt lat="47.53103" lon="6.69124">
        <ele>365</ele>
        <time>2014-10-26T09:05:14.000Z</time>
      </trkpt>
      <trkpt lat="47.53102" lon="6.6912">
        <ele>365.2</ele>
        <time>2014-10-26T09:05:15.000Z</time>
      </trkpt>
      <trkpt lat="47.53102" lon="6.69115">
        <ele>365.6</ele>
        <time>2014-10-26T09:05:17.000Z</time>
      </trkpt>
      <trkpt lat="47.53102" lon="6.69111">
        <ele>365.9</ele>
        <time>2014-10-26T09:05:18.000Z</time>
      </trkpt>
      <trkpt lat="47.53102" lon="6.69105">
        <ele>366.5</ele>
        <time>2014-10-26T09:05:20.000Z</time>
      </trkpt>
      <trkpt lat="47.53102" lon="6.69102">
        <ele>366.7</ele>
        <time>2014-10-26T09:05:21.000Z</time>
      </trkpt>
      <trkpt lat="47.53101" lon="6.69096">
        <ele>367.4</ele>
        <time>2014-10-26T09:05:23.000Z</time>
      </trkpt>
      <trkpt lat="47.53101" lon="6.69092">
        <ele>367.7</ele>
        <time>2014-10-26T09:05:24.000Z</time>
      </trkpt>
      <trkpt lat="47.531" lon="6.69086">
        <ele>368.2</ele>
        <time>2014-10-26T09:05:26.000Z</time>
      </trkpt>
      <trkpt lat="47.531" lon="6.69084">
        <ele>368.6</ele>
        <time>2014-10-26T09:05:27.000Z</time>
      </trkpt>
      <trkpt lat="47.531" lon="6.69078">
        <ele>368.9</ele>
        <time>2014-10-26T09:05:29.000Z</time>
      </trkpt>
      <trkpt lat="47.531" lon="6.69075">
        <ele>369.2</ele>
        <time>2014-10-26T09:05:30.000Z</time>
      </trkpt>
      <trkpt lat="47.53099" lon="6.69068">
        <ele>369.4</ele>
        <time>2014-10-26T09:05:32.000Z</time>
      </trkpt>
      <trkpt lat="47.53099" lon="6.69059">
        <ele>369.4</ele>
        <time>2014-10-26T09:05:35.000Z</time>
      </trkpt>
      <trkpt lat="47.53099" lon="6.69054">
        <ele>369.6</ele>
        <time>2014-10-26T09:05:37.000Z</time>
      </trkpt>
      <trkpt lat="47.53099" lon="6.69051">
        <ele>369.8</ele>
        <time>2014-10-26T09:05:38.000Z</time>
      </trkpt>
      <trkpt lat="47.53099" lon="6.69045">
        <ele>369.7</ele>
        <time>2014-10-26T09:05:40.000Z</time>
      </trkpt>
      <trkpt lat="47.53099" lon="6.69042">
        <ele>369.5</ele>
        <time>2014-10-26T09:05:41.000Z</time>
      </trkpt>
      <trkpt lat="47.53099" lon="6.69036">
        <ele>369.6</ele>
        <time>2014-10-26T09:05:43.000Z</time>
      </trkpt>
      <trkpt lat="47.53098" lon="6.69033">
        <ele>369.6</ele>
        <time>2014-10-26T09:05:44.000Z</time>
      </trkpt>
      <trkpt lat="47.53098" lon="6.69027">
        <ele>369.6</ele>
        <time>2014-10-26T09:05:46.000Z</time>
      </trkpt>
      <trkpt lat="47.53098" lon="6.69024">
        <ele>369.8</ele>
        <time>2014-10-26T09:05:47.000Z</time>
      </trkpt>
      <trkpt lat="47.53098" lon="6.69018">
        <ele>369.9</ele>
        <time>2014-10-26T09:05:49.000Z</time>
      </trkpt>
      <trkpt lat="47.53098" lon="6.69014">
        <ele>369.9</ele>
        <time>2014-10-26T09:05:50.000Z</time>
      </trkpt>
      <trkpt lat="47.53098" lon="6.69008">
        <ele>370.1</ele>
        <time>2014-10-26T09:05:52.000Z</time>
      </trkpt>
      <trkpt lat="47.53098" lon="6.69004">
        <ele>370</ele>
        <time>2014-10-26T09:05:53.000Z</time>
      </trkpt>
      <trkpt lat="47.53098" lon="6.69001">
        <ele>370.2</ele>
        <time>2014-10-26T09:05:54.000Z</time>
      </trkpt>
      <trkpt lat="47.53097" lon="6.68998">
        <ele>370</ele>
        <time>2014-10-26T09:05:55.000Z</time>
      </trkpt>
      <trkpt lat="47.53097" lon="6.68991">
        <ele>370.2</ele>
        <time>2014-10-26T09:05:57.000Z</time>
      </trkpt>
      <trkpt lat="47.53097" lon="6.68988">
        <ele>370.2</ele>
        <time>2014-10-26T09:05:58.000Z</time>
      </trkpt>
      <trkpt lat="47.53097" lon="6.68981">
        <ele>369.9</ele>
        <time>2014-10-26T09:06:00.000Z</time>
      </trkpt>
      <trkpt lat="47.53097" lon="6.68978">
        <ele>370.1</ele>
        <time>2014-10-26T09:06:01.000Z</time>
      </trkpt>
      <trkpt lat="47.53096" lon="6.68972">
        <ele>370.2</ele>
        <time>2014-10-26T09:06:03.000Z</time>
      </trkpt>
      <trkpt lat="47.53096" lon="6.68969">
        <ele>370.3</ele>
        <time>2014-10-26T09:06:04.000Z</time>
      </trkpt>
      <trkpt lat="47.53096" lon="6.68962">
        <ele>370.1</ele>
        <time>2014-10-26T09:06:06.000Z</time>
      </trkpt>
      <trkpt lat="47.53096" lon="6.68959">
        <ele>370.2</ele>
        <time>2014-10-26T09:06:07.000Z</time>
      </trkpt>
      <trkpt lat="47.53095" lon="6.68952">
        <ele>370.3</ele>
        <time>2014-10-26T09:06:09.000Z</time>
      </trkpt>
      <trkpt lat="47.53095" lon="6.68949">
        <ele>370.3</ele>
        <time>2014-10-26T09:06:10.000Z</time>
      </trkpt>
      <trkpt lat="47.53095" lon="6.68943">
        <ele>370.5</ele>
        <time>2014-10-26T09:06:12.000Z</time>
      </trkpt>
      <trkpt lat="47.53095" lon="6.68939">
        <ele>370.5</ele>
        <time>2014-10-26T09:06:13.000Z</time>
      </trkpt>
      <trkpt lat="47.53095" lon="6.68936">
        <ele>370.6</ele>
        <time>2014-10-26T09:06:14.000Z</time>
      </trkpt>
      <trkpt lat="47.53095" lon="6.68932">
        <ele>370.6</ele>
        <time>2014-10-26T09:06:15.000Z</time>
      </trkpt>
      <trkpt lat="47.53095" lon="6.68929">
        <ele>370.6</ele>
        <time>2014-10-26T09:06:16.000Z</time>
      </trkpt>
      <trkpt lat="47.53095" lon="6.68925">
        <ele>370.6</ele>
        <time>2014-10-26T09:06:17.000Z</time>
      </trkpt>
      <trkpt lat="47.53095" lon="6.68922">
        <ele>370.9</ele>
        <time>2014-10-26T09:06:18.000Z</time>
      </trkpt>
      <trkpt lat="47.53095" lon="6.68919">
        <ele>371</ele>
        <time>2014-10-26T09:06:19.000Z</time>
      </trkpt>
      <trkpt lat="47.53095" lon="6.68915">
        <ele>371.2</ele>
        <time>2014-10-26T09:06:20.000Z</time>
      </trkpt>
      <trkpt lat="47.53095" lon="6.68912">
        <ele>371.6</ele>
        <time>2014-10-26T09:06:21.000Z</time>
      </trkpt>
      <trkpt lat="47.53095" lon="6.68905">
        <ele>371.6</ele>
        <time>2014-10-26T09:06:23.000Z</time>
      </trkpt>
      <trkpt lat="47.53095" lon="6.68902">
        <ele>371.7</ele>
        <time>2014-10-26T09:06:24.000Z</time>
      </trkpt>
      <trkpt lat="47.53095" lon="6.68895">
        <ele>372.3</ele>
        <time>2014-10-26T09:06:26.000Z</time>
      </trkpt>
      <trkpt lat="47.53095" lon="6.68892">
        <ele>372.3</ele>
        <time>2014-10-26T09:06:27.000Z</time>
      </trkpt>
      <trkpt lat="47.53095" lon="6.68888">
        <ele>372.4</ele>
        <time>2014-10-26T09:06:28.000Z</time>
      </trkpt>
      <trkpt lat="47.53095" lon="6.68885">
        <ele>372.4</ele>
        <time>2014-10-26T09:06:29.000Z</time>
      </trkpt>
      <trkpt lat="47.53095" lon="6.68881">
        <ele>372.4</ele>
        <time>2014-10-26T09:06:30.000Z</time>
      </trkpt>
      <trkpt lat="47.53095" lon="6.68878">
        <ele>372.6</ele>
        <time>2014-10-26T09:06:31.000Z</time>
      </trkpt>
      <trkpt lat="47.53095" lon="6.68874">
        <ele>372.7</ele>
        <time>2014-10-26T09:06:32.000Z</time>
      </trkpt>
      <trkpt lat="47.53094" lon="6.68863">
        <ele>373.4</ele>
        <time>2014-10-26T09:06:35.000Z</time>
      </trkpt>
      <trkpt lat="47.53094" lon="6.68859">
        <ele>373.1</ele>
        <time>2014-10-26T09:06:36.000Z</time>
      </trkpt>
      <trkpt lat="47.53094" lon="6.68856">
        <ele>373.3</ele>
        <time>2014-10-26T09:06:37.000Z</time>
      </trkpt>
      <trkpt lat="47.53094" lon="6.68852">
        <ele>373.3</ele>
        <time>2014-10-26T09:06:38.000Z</time>
      </trkpt>
      <trkpt lat="47.53094" lon="6.68848">
        <ele>373.3</ele>
        <time>2014-10-26T09:06:39.000Z</time>
      </trkpt>
      <trkpt lat="47.53094" lon="6.68844">
        <ele>373.6</ele>
        <time>2014-10-26T09:06:40.000Z</time>
      </trkpt>
      <trkpt lat="47.53093" lon="6.6884">
        <ele>373.5</ele>
        <time>2014-10-26T09:06:41.000Z</time>
      </trkpt>
      <trkpt lat="47.53093" lon="6.68836">
        <ele>373.5</ele>
        <time>2014-10-26T09:06:42.000Z</time>
      </trkpt>
      <trkpt lat="47.53093" lon="6.68832">
        <ele>373.7</ele>
        <time>2014-10-26T09:06:43.000Z</time>
      </trkpt>
      <trkpt lat="47.53093" lon="6.68829">
        <ele>373.5</ele>
        <time>2014-10-26T09:06:44.000Z</time>
      </trkpt>
      <trkpt lat="47.53093" lon="6.68825">
        <ele>373.5</ele>
        <time>2014-10-26T09:06:45.000Z</time>
      </trkpt>
      <trkpt lat="47.53093" lon="6.68821">
        <ele>373.4</ele>
        <time>2014-10-26T09:06:46.000Z</time>
      </trkpt>
      <trkpt lat="47.53093" lon="6.68818">
        <ele>373.6</ele>
        <time>2014-10-26T09:06:47.000Z</time>
      </trkpt>
      <trkpt lat="47.53092" lon="6.68814">
        <ele>374</ele>
        <time>2014-10-26T09:06:48.000Z</time>
      </trkpt>
      <trkpt lat="47.53092" lon="6.68811">
        <ele>374</ele>
        <time>2014-10-26T09:06:49.000Z</time>
      </trkpt>
      <trkpt lat="47.53092" lon="6.68807">
        <ele>373.9</ele>
        <time>2014-10-26T09:06:50.000Z</time>
      </trkpt>
      <trkpt lat="47.53092" lon="6.68804">
        <ele>373.9</ele>
        <time>2014-10-26T09:06:51.000Z</time>
      </trkpt>
      <trkpt lat="47.53091" lon="6.68797">
        <ele>374.2</ele>
        <time>2014-10-26T09:06:53.000Z</time>
      </trkpt>
      <trkpt lat="47.53091" lon="6.68794">
        <ele>374.2</ele>
        <time>2014-10-26T09:06:54.000Z</time>
      </trkpt>
      <trkpt lat="47.53091" lon="6.68791">
        <ele>374</ele>
        <time>2014-10-26T09:06:55.000Z</time>
      </trkpt>
      <trkpt lat="47.53091" lon="6.68787">
        <ele>374.1</ele>
        <time>2014-10-26T09:06:56.000Z</time>
      </trkpt>
      <trkpt lat="47.5309" lon="6.68783">
        <ele>374.6</ele>
        <time>2014-10-26T09:06:57.000Z</time>
      </trkpt>
      <trkpt lat="47.5309" lon="6.6878">
        <ele>374.5</ele>
        <time>2014-10-26T09:06:58.000Z</time>
      </trkpt>
      <trkpt lat="47.5309" lon="6.68776">
        <ele>374.9</ele>
        <time>2014-10-26T09:06:59.000Z</time>
      </trkpt>
      <trkpt lat="47.5309" lon="6.68773">
        <ele>374.8</ele>
        <time>2014-10-26T09:07:00.000Z</time>
      </trkpt>
      <trkpt lat="47.5309" lon="6.6877">
        <ele>374.9</ele>
        <time>2014-10-26T09:07:01.000Z</time>
      </trkpt>
      <trkpt lat="47.53089" lon="6.68766">
        <ele>375</ele>
        <time>2014-10-26T09:07:02.000Z</time>
      </trkpt>
      <trkpt lat="47.53089" lon="6.6876">
        <ele>375.3</ele>
        <time>2014-10-26T09:07:04.000Z</time>
      </trkpt>
      <trkpt lat="47.53089" lon="6.68757">
        <ele>375.6</ele>
        <time>2014-10-26T09:07:05.000Z</time>
      </trkpt>
      <trkpt lat="47.53089" lon="6.68754">
        <ele>375.6</ele>
        <time>2014-10-26T09:07:06.000Z</time>
      </trkpt>
      <trkpt lat="47.53089" lon="6.6875">
        <ele>375.7</ele>
        <time>2014-10-26T09:07:07.000Z</time>
      </trkpt>
      <trkpt lat="47.53088" lon="6.68747">
        <ele>375.8</ele>
        <time>2014-10-26T09:07:08.000Z</time>
      </trkpt>
      <trkpt lat="47.53088" lon="6.68743">
        <ele>376</ele>
        <time>2014-10-26T09:07:09.000Z</time>
      </trkpt>
      <trkpt lat="47.53088" lon="6.6874">
        <ele>376.2</ele>
        <time>2014-10-26T09:07:10.000Z</time>
      </trkpt>
      <trkpt lat="47.53088" lon="6.68736">
        <ele>376.3</ele>
        <time>2014-10-26T09:07:11.000Z</time>
      </trkpt>
      <trkpt lat="47.53088" lon="6.68732">
        <ele>376.4</ele>
        <time>2014-10-26T09:07:12.000Z</time>
      </trkpt>
      <trkpt lat="47.53088" lon="6.68728">
        <ele>376.2</ele>
        <time>2014-10-26T09:07:13.000Z</time>
      </trkpt>
      <trkpt lat="47.53087" lon="6.68725">
        <ele>377</ele>
        <time>2014-10-26T09:07:14.000Z</time>
      </trkpt>
      <trkpt lat="47.53087" lon="6.68721">
        <ele>377.3</ele>
        <time>2014-10-26T09:07:15.000Z</time>
      </trkpt>
      <trkpt lat="47.53085" lon="6.68715">
        <ele>377.6</ele>
        <time>2014-10-26T09:07:17.000Z</time>
      </trkpt>
      <trkpt lat="47.53085" lon="6.68712">
        <ele>377.8</ele>
        <time>2014-10-26T09:07:18.000Z</time>
      </trkpt>
      <trkpt lat="47.53085" lon="6.68709">
        <ele>377.3</ele>
        <time>2014-10-26T09:07:19.000Z</time>
      </trkpt>
      <trkpt lat="47.53085" lon="6.68705">
        <ele>377.7</ele>
        <time>2014-10-26T09:07:20.000Z</time>
      </trkpt>
      <trkpt lat="47.53085" lon="6.68702">
        <ele>377.7</ele>
        <time>2014-10-26T09:07:21.000Z</time>
      </trkpt>
      <trkpt lat="47.53085" lon="6.68699">
        <ele>377.8</ele>
        <time>2014-10-26T09:07:22.000Z</time>
      </trkpt>
      <trkpt lat="47.53085" lon="6.68692">
        <ele>378.3</ele>
        <time>2014-10-26T09:07:24.000Z</time>
      </trkpt>
      <trkpt lat="47.53085" lon="6.68689">
        <ele>378.3</ele>
        <time>2014-10-26T09:07:25.000Z</time>
      </trkpt>
      <trkpt lat="47.53085" lon="6.68685">
        <ele>378.3</ele>
        <time>2014-10-26T09:07:26.000Z</time>
      </trkpt>
      <trkpt lat="47.53085" lon="6.68682">
        <ele>377.9</ele>
        <time>2014-10-26T09:07:27.000Z</time>
      </trkpt>
      <trkpt lat="47.53084" lon="6.68678">
        <ele>377.7</ele>
        <time>2014-10-26T09:07:28.000Z</time>
      </trkpt>
      <trkpt lat="47.53084" lon="6.68675">
        <ele>377.7</ele>
        <time>2014-10-26T09:07:29.000Z</time>
      </trkpt>
      <trkpt lat="47.53084" lon="6.68668">
        <ele>377.3</ele>
        <time>2014-10-26T09:07:31.000Z</time>
      </trkpt>
      <trkpt lat="47.53083" lon="6.68665">
        <ele>377.2</ele>
        <time>2014-10-26T09:07:32.000Z</time>
      </trkpt>
      <trkpt lat="47.53082" lon="6.68655">
        <ele>377.8</ele>
        <time>2014-10-26T09:07:35.000Z</time>
      </trkpt>
      <trkpt lat="47.53082" lon="6.68649">
        <ele>378.8</ele>
        <time>2014-10-26T09:07:37.000Z</time>
      </trkpt>
      <trkpt lat="47.53081" lon="6.68645">
        <ele>379.1</ele>
        <time>2014-10-26T09:07:38.000Z</time>
      </trkpt>
      <trkpt lat="47.53081" lon="6.68642">
        <ele>379.2</ele>
        <time>2014-10-26T09:07:39.000Z</time>
      </trkpt>
      <trkpt lat="47.53081" lon="6.68638">
        <ele>379.2</ele>
        <time>2014-10-26T09:07:40.000Z</time>
      </trkpt>
      <trkpt lat="47.5308" lon="6.68635">
        <ele>379.8</ele>
        <time>2014-10-26T09:07:41.000Z</time>
      </trkpt>
      <trkpt lat="47.5308" lon="6.68631">
        <ele>380</ele>
        <time>2014-10-26T09:07:42.000Z</time>
      </trkpt>
      <trkpt lat="47.5308" lon="6.68628">
        <ele>380.1</ele>
        <time>2014-10-26T09:07:43.000Z</time>
      </trkpt>
      <trkpt lat="47.53079" lon="6.68624">
        <ele>380.5</ele>
        <time>2014-10-26T09:07:44.000Z</time>
      </trkpt>
      <trkpt lat="47.53079" lon="6.6862">
        <ele>380.3</ele>
        <time>2014-10-26T09:07:45.000Z</time>
      </trkpt>
      <trkpt lat="47.53078" lon="6.68616">
        <ele>380.4</ele>
        <time>2014-10-26T09:07:46.000Z</time>
      </trkpt>
      <trkpt lat="47.53078" lon="6.68612">
        <ele>380.5</ele>
        <time>2014-10-26T09:07:47.000Z</time>
      </trkpt>
      <trkpt lat="47.53077" lon="6.68609">
        <ele>380.7</ele>
        <time>2014-10-26T09:07:48.000Z</time>
      </trkpt>
      <trkpt lat="47.53077" lon="6.68606">
        <ele>380.9</ele>
        <time>2014-10-26T09:07:49.000Z</time>
      </trkpt>
      <trkpt lat="47.53076" lon="6.68602">
        <ele>380.7</ele>
        <time>2014-10-26T09:07:50.000Z</time>
      </trkpt>
      <trkpt lat="47.53076" lon="6.68599">
        <ele>380.6</ele>
        <time>2014-10-26T09:07:51.000Z</time>
      </trkpt>
      <trkpt lat="47.53075" lon="6.68595">
        <ele>380.5</ele>
        <time>2014-10-26T09:07:52.000Z</time>
      </trkpt>
      <trkpt lat="47.53075" lon="6.68592">
        <ele>380.7</ele>
        <time>2014-10-26T09:07:53.000Z</time>
      </trkpt>
      <trkpt lat="47.53074" lon="6.68588">
        <ele>380.6</ele>
        <time>2014-10-26T09:07:54.000Z</time>
      </trkpt>
      <trkpt lat="47.53074" lon="6.68584">
        <ele>380.7</ele>
        <time>2014-10-26T09:07:55.000Z</time>
      </trkpt>
      <trkpt lat="47.53073" lon="6.6858">
        <ele>380.7</ele>
        <time>2014-10-26T09:07:56.000Z</time>
      </trkpt>
      <trkpt lat="47.53072" lon="6.68576">
        <ele>380.9</ele>
        <time>2014-10-26T09:07:57.000Z</time>
      </trkpt>
      <trkpt lat="47.53071" lon="6.68572">
        <ele>381</ele>
        <time>2014-10-26T09:07:58.000Z</time>
      </trkpt>
      <trkpt lat="47.53071" lon="6.68568">
        <ele>381.2</ele>
        <time>2014-10-26T09:07:59.000Z</time>
      </trkpt>
      <trkpt lat="47.53071" lon="6.68565">
        <ele>381.3</ele>
        <time>2014-10-26T09:08:00.000Z</time>
      </trkpt>
      <trkpt lat="47.53071" lon="6.68561">
        <ele>381.5</ele>
        <time>2014-10-26T09:08:01.000Z</time>
      </trkpt>
      <trkpt lat="47.5307" lon="6.68558">
        <ele>381.7</ele>
        <time>2014-10-26T09:08:02.000Z</time>
      </trkpt>
      <trkpt lat="47.5307" lon="6.68555">
        <ele>381.7</ele>
        <time>2014-10-26T09:08:03.000Z</time>
      </trkpt>
      <trkpt lat="47.53069" lon="6.68551">
        <ele>381.7</ele>
        <time>2014-10-26T09:08:04.000Z</time>
      </trkpt>
      <trkpt lat="47.53068" lon="6.68548">
        <ele>381.7</ele>
        <time>2014-10-26T09:08:05.000Z</time>
      </trkpt>
      <trkpt lat="47.53068" lon="6.68545">
        <ele>381.9</ele>
        <time>2014-10-26T09:08:06.000Z</time>
      </trkpt>
      <trkpt lat="47.53066" lon="6.68539">
        <ele>381.9</ele>
        <time>2014-10-26T09:08:08.000Z</time>
      </trkpt>
      <trkpt lat="47.53065" lon="6.68536">
        <ele>381.6</ele>
        <time>2014-10-26T09:08:09.000Z</time>
      </trkpt>
      <trkpt lat="47.53064" lon="6.68533">
        <ele>381.4</ele>
        <time>2014-10-26T09:08:10.000Z</time>
      </trkpt>
      <trkpt lat="47.53063" lon="6.68529">
        <ele>381.1</ele>
        <time>2014-10-26T09:08:11.000Z</time>
      </trkpt>
      <trkpt lat="47.53062" lon="6.68523">
        <ele>380.8</ele>
        <time>2014-10-26T09:08:13.000Z</time>
      </trkpt>
      <trkpt lat="47.53061" lon="6.6852">
        <ele>380.8</ele>
        <time>2014-10-26T09:08:14.000Z</time>
      </trkpt>
      <trkpt lat="47.53059" lon="6.68514">
        <ele>379.6</ele>
        <time>2014-10-26T09:08:16.000Z</time>
      </trkpt>
      <trkpt lat="47.53059" lon="6.68511">
        <ele>380.1</ele>
        <time>2014-10-26T09:08:17.000Z</time>
      </trkpt>
      <trkpt lat="47.53058" lon="6.68507">
        <ele>380.3</ele>
        <time>2014-10-26T09:08:18.000Z</time>
      </trkpt>
      <trkpt lat="47.53057" lon="6.68504">
        <ele>380.3</ele>
        <time>2014-10-26T09:08:19.000Z</time>
      </trkpt>
      <trkpt lat="47.53056" lon="6.68498">
        <ele>380.8</ele>
        <time>2014-10-26T09:08:21.000Z</time>
      </trkpt>
      <trkpt lat="47.53056" lon="6.68495">
        <ele>380.4</ele>
        <time>2014-10-26T09:08:22.000Z</time>
      </trkpt>
      <trkpt lat="47.53055" lon="6.68488">
        <ele>380.4</ele>
        <time>2014-10-26T09:08:24.000Z</time>
      </trkpt>
      <trkpt lat="47.53054" lon="6.68485">
        <ele>380.4</ele>
        <time>2014-10-26T09:08:25.000Z</time>
      </trkpt>
      <trkpt lat="47.53054" lon="6.68479">
        <ele>380.7</ele>
        <time>2014-10-26T09:08:27.000Z</time>
      </trkpt>
      <trkpt lat="47.53053" lon="6.68476">
        <ele>380.8</ele>
        <time>2014-10-26T09:08:28.000Z</time>
      </trkpt>
      <trkpt lat="47.53052" lon="6.6847">
        <ele>381.2</ele>
        <time>2014-10-26T09:08:30.000Z</time>
      </trkpt>
      <trkpt lat="47.53051" lon="6.68467">
        <ele>381.8</ele>
        <time>2014-10-26T09:08:31.000Z</time>
      </trkpt>
      <trkpt lat="47.5305" lon="6.68461">
        <ele>382.5</ele>
        <time>2014-10-26T09:08:33.000Z</time>
      </trkpt>
      <trkpt lat="47.53047" lon="6.68437">
        <ele>384.1</ele>
        <time>2014-10-26T09:08:41.000Z</time>
      </trkpt>
      <trkpt lat="47.53046" lon="6.68432">
        <ele>384.6</ele>
        <time>2014-10-26T09:08:43.000Z</time>
      </trkpt>
      <trkpt lat="47.53046" lon="6.68429">
        <ele>384.4</ele>
        <time>2014-10-26T09:08:44.000Z</time>
      </trkpt>
      <trkpt lat="47.53045" lon="6.68426">
        <ele>384.4</ele>
        <time>2014-10-26T09:08:45.000Z</time>
      </trkpt>
      <trkpt lat="47.53044" lon="6.68422">
        <ele>384.4</ele>
        <time>2014-10-26T09:08:46.000Z</time>
      </trkpt>
      <trkpt lat="47.53043" lon="6.68419">
        <ele>384.6</ele>
        <time>2014-10-26T09:08:47.000Z</time>
      </trkpt>
      <trkpt lat="47.53043" lon="6.68416">
        <ele>384.5</ele>
        <time>2014-10-26T09:08:48.000Z</time>
      </trkpt>
      <trkpt lat="47.53042" lon="6.68412">
        <ele>384.7</ele>
        <time>2014-10-26T09:08:49.000Z</time>
      </trkpt>
      <trkpt lat="47.53041" lon="6.68409">
        <ele>384.7</ele>
        <time>2014-10-26T09:08:50.000Z</time>
      </trkpt>
      <trkpt lat="47.5304" lon="6.68406">
        <ele>385.2</ele>
        <time>2014-10-26T09:08:51.000Z</time>
      </trkpt>
      <trkpt lat="47.53039" lon="6.68403">
        <ele>385.4</ele>
        <time>2014-10-26T09:08:52.000Z</time>
      </trkpt>
      <trkpt lat="47.53037" lon="6.68397">
        <ele>385.2</ele>
        <time>2014-10-26T09:08:54.000Z</time>
      </trkpt>
      <trkpt lat="47.53036" lon="6.68394">
        <ele>385.3</ele>
        <time>2014-10-26T09:08:55.000Z</time>
      </trkpt>
      <trkpt lat="47.53034" lon="6.68388">
        <ele>385.3</ele>
        <time>2014-10-26T09:08:57.000Z</time>
      </trkpt>
      <trkpt lat="47.53034" lon="6.68386">
        <ele>385.5</ele>
        <time>2014-10-26T09:08:58.000Z</time>
      </trkpt>
      <trkpt lat="47.53038" lon="6.68382">
        <ele>383.4</ele>
        <time>2014-10-26T09:09:04.000Z</time>
      </trkpt>
      <trkpt lat="47.53039" lon="6.68383">
        <ele>383.5</ele>
        <time>2014-10-26T09:09:05.000Z</time>
      </trkpt>
      <trkpt lat="47.53043" lon="6.68382">
        <ele>383.4</ele>
        <time>2014-10-26T09:09:09.000Z</time>
      </trkpt>
      <trkpt lat="47.53044" lon="6.68381">
        <ele>383.4</ele>
        <time>2014-10-26T09:09:10.000Z</time>
      </trkpt>
      <trkpt lat="47.53048" lon="6.68377">
        <ele>381</ele>
        <time>2014-10-26T09:10:40.000Z</time>
      </trkpt>
      <trkpt lat="47.53049" lon="6.68377">
        <ele>380.9</ele>
        <time>2014-10-26T09:10:41.000Z</time>
      </trkpt>
      <trkpt lat="47.53051" lon="6.68378">
        <ele>380.7</ele>
        <time>2014-10-26T09:10:42.000Z</time>
      </trkpt>
      <trkpt lat="47.53053" lon="6.68378">
        <ele>381</ele>
        <time>2014-10-26T09:10:43.000Z</time>
      </trkpt>
      <trkpt lat="47.53056" lon="6.68379">
        <ele>381.3</ele>
        <time>2014-10-26T09:10:44.000Z</time>
      </trkpt>
      <trkpt lat="47.53058" lon="6.68379">
        <ele>381.3</ele>
        <time>2014-10-26T09:10:45.000Z</time>
      </trkpt>
      <trkpt lat="47.5306" lon="6.68379">
        <ele>380.8</ele>
        <time>2014-10-26T09:10:46.000Z</time>
      </trkpt>
      <trkpt lat="47.53063" lon="6.68379">
        <ele>381.1</ele>
        <time>2014-10-26T09:10:47.000Z</time>
      </trkpt>
      <trkpt lat="47.53066" lon="6.68379">
        <ele>381.2</ele>
        <time>2014-10-26T09:10:48.000Z</time>
      </trkpt>
      <trkpt lat="47.53068" lon="6.68379">
        <ele>381.2</ele>
        <time>2014-10-26T09:10:49.000Z</time>
      </trkpt>
      <trkpt lat="47.53071" lon="6.68378">
        <ele>381.4</ele>
        <time>2014-10-26T09:10:50.000Z</time>
      </trkpt>
      <trkpt lat="47.53073" lon="6.68378">
        <ele>381.8</ele>
        <time>2014-10-26T09:10:51.000Z</time>
      </trkpt>
      <trkpt lat="47.53076" lon="6.68378">
        <ele>382</ele>
        <time>2014-10-26T09:10:51.999Z</time>
      </trkpt>
      <trkpt lat="47.53078" lon="6.68378">
        <ele>382.5</ele>
        <time>2014-10-26T09:10:53.000Z</time>
      </trkpt>
      <trkpt lat="47.5308" lon="6.68378">
        <ele>383.2</ele>
        <time>2014-10-26T09:10:54.001Z</time>
      </trkpt>
      <trkpt lat="47.53083" lon="6.68377">
        <ele>382.8</ele>
        <time>2014-10-26T09:10:55.000Z</time>
      </trkpt>
      <trkpt lat="47.53085" lon="6.68377">
        <ele>383.1</ele>
        <time>2014-10-26T09:10:56.000Z</time>
      </trkpt>
      <trkpt lat="47.53088" lon="6.68376">
        <ele>383.3</ele>
        <time>2014-10-26T09:10:57.000Z</time>
      </trkpt>
      <trkpt lat="47.5309" lon="6.68376">
        <ele>383.6</ele>
        <time>2014-10-26T09:10:58.000Z</time>
      </trkpt>
      <trkpt lat="47.53093" lon="6.68376">
        <ele>383.7</ele>
        <time>2014-10-26T09:10:59.000Z</time>
      </trkpt>
      <trkpt lat="47.53095" lon="6.68375">
        <ele>383.6</ele>
        <time>2014-10-26T09:11:00.000Z</time>
      </trkpt>
      <trkpt lat="47.53098" lon="6.68375">
        <ele>383.7</ele>
        <time>2014-10-26T09:11:01.000Z</time>
      </trkpt>
      <trkpt lat="47.531" lon="6.68374">
        <ele>383.3</ele>
        <time>2014-10-26T09:11:02.000Z</time>
      </trkpt>
      <trkpt lat="47.53103" lon="6.68374">
        <ele>383.7</ele>
        <time>2014-10-26T09:11:03.000Z</time>
      </trkpt>
      <trkpt lat="47.53106" lon="6.68374">
        <ele>383.6</ele>
        <time>2014-10-26T09:11:03.999Z</time>
      </trkpt>
      <trkpt lat="47.53109" lon="6.68374">
        <ele>383.8</ele>
        <time>2014-10-26T09:11:05.000Z</time>
      </trkpt>
      <trkpt lat="47.53112" lon="6.68374">
        <ele>384.1</ele>
        <time>2014-10-26T09:11:06.000Z</time>
      </trkpt>
      <trkpt lat="47.53115" lon="6.68374">
        <ele>384.2</ele>
        <time>2014-10-26T09:11:07.000Z</time>
      </trkpt>
      <trkpt lat="47.53117" lon="6.68374">
        <ele>384.2</ele>
        <time>2014-10-26T09:11:08.000Z</time>
      </trkpt>
      <trkpt lat="47.5312" lon="6.68374">
        <ele>384.3</ele>
        <time>2014-10-26T09:11:09.000Z</time>
      </trkpt>
      <trkpt lat="47.53123" lon="6.68374">
        <ele>385</ele>
        <time>2014-10-26T09:11:10.000Z</time>
      </trkpt>
      <trkpt lat="47.53125" lon="6.68374">
        <ele>385.4</ele>
        <time>2014-10-26T09:11:11.000Z</time>
      </trkpt>
      <trkpt lat="47.53128" lon="6.68374">
        <ele>385.4</ele>
        <time>2014-10-26T09:11:12.000Z</time>
      </trkpt>
      <trkpt lat="47.53131" lon="6.68374">
        <ele>385.2</ele>
        <time>2014-10-26T09:11:13.000Z</time>
      </trkpt>
      <trkpt lat="47.53133" lon="6.68374">
        <ele>385.1</ele>
        <time>2014-10-26T09:11:13.999Z</time>
      </trkpt>
      <trkpt lat="47.53136" lon="6.68374">
        <ele>385.3</ele>
        <time>2014-10-26T09:11:15.000Z</time>
      </trkpt>
      <trkpt lat="47.53139" lon="6.68374">
        <ele>385.1</ele>
        <time>2014-10-26T09:11:16.000Z</time>
      </trkpt>
      <trkpt lat="47.53142" lon="6.68374">
        <ele>385.2</ele>
        <time>2014-10-26T09:11:17.000Z</time>
      </trkpt>
      <trkpt lat="47.53144" lon="6.68374">
        <ele>385.5</ele>
        <time>2014-10-26T09:11:18.000Z</time>
      </trkpt>
      <trkpt lat="47.53147" lon="6.68374">
        <ele>385.1</ele>
        <time>2014-10-26T09:11:19.000Z</time>
      </trkpt>
      <trkpt lat="47.5315" lon="6.68374">
        <ele>384.5</ele>
        <time>2014-10-26T09:11:20.000Z</time>
      </trkpt>
      <trkpt lat="47.53153" lon="6.68374">
        <ele>384.5</ele>
        <time>2014-10-26T09:11:21.000Z</time>
      </trkpt>
      <trkpt lat="47.53155" lon="6.68374">
        <ele>384.3</ele>
        <time>2014-10-26T09:11:22.000Z</time>
      </trkpt>
      <trkpt lat="47.53158" lon="6.68375">
        <ele>383.6</ele>
        <time>2014-10-26T09:11:23.000Z</time>
      </trkpt>
      <trkpt lat="47.53161" lon="6.68376">
        <ele>383.4</ele>
        <time>2014-10-26T09:11:24.000Z</time>
      </trkpt>
      <trkpt lat="47.53165" lon="6.68376">
        <ele>383.4</ele>
        <time>2014-10-26T09:11:25.000Z</time>
      </trkpt>
      <trkpt lat="47.53169" lon="6.68377">
        <ele>382.2</ele>
        <time>2014-10-26T09:11:26.000Z</time>
      </trkpt>
      <trkpt lat="47.53173" lon="6.68377">
        <ele>381</ele>
        <time>2014-10-26T09:11:27.000Z</time>
      </trkpt>
      <trkpt lat="47.5318" lon="6.68374">
        <ele>381.5</ele>
        <time>2014-10-26T09:11:28.000Z</time>
      </trkpt>
      <trkpt lat="47.53185" lon="6.68373">
        <ele>381.5</ele>
        <time>2014-10-26T09:11:29.000Z</time>
      </trkpt>
      <trkpt lat="47.53191" lon="6.68372">
        <ele>380.7</ele>
        <time>2014-10-26T09:11:30.000Z</time>
      </trkpt>
      <trkpt lat="47.53196" lon="6.68371">
        <ele>380.2</ele>
        <time>2014-10-26T09:11:31.000Z</time>
      </trkpt>
      <trkpt lat="47.53201" lon="6.68371">
        <ele>380.4</ele>
        <time>2014-10-26T09:11:32.000Z</time>
      </trkpt>
      <trkpt lat="47.53214" lon="6.68369">
        <ele>381.8</ele>
        <time>2014-10-26T09:11:35.000Z</time>
      </trkpt>
      <trkpt lat="47.53219" lon="6.68368">
        <ele>382</ele>
        <time>2014-10-26T09:11:36.000Z</time>
      </trkpt>
      <trkpt lat="47.53224" lon="6.68369">
        <ele>381.7</ele>
        <time>2014-10-26T09:11:37.000Z</time>
      </trkpt>
      <trkpt lat="47.5323" lon="6.6837">
        <ele>379</ele>
        <time>2014-10-26T09:11:38.000Z</time>
      </trkpt>
      <trkpt lat="47.53236" lon="6.6837">
        <ele>377.5</ele>
        <time>2014-10-26T09:11:39.000Z</time>
      </trkpt>
      <trkpt lat="47.53242" lon="6.6837">
        <ele>376</ele>
        <time>2014-10-26T09:11:40.000Z</time>
      </trkpt>
      <trkpt lat="47.53248" lon="6.68371">
        <ele>374.7</ele>
        <time>2014-10-26T09:11:41.000Z</time>
      </trkpt>
      <trkpt lat="47.53254" lon="6.68371">
        <ele>373.6</ele>
        <time>2014-10-26T09:11:42.000Z</time>
      </trkpt>
      <trkpt lat="47.53259" lon="6.68371">
        <ele>372.5</ele>
        <time>2014-10-26T09:11:43.000Z</time>
      </trkpt>
      <trkpt lat="47.53264" lon="6.68371">
        <ele>371.6</ele>
        <time>2014-10-26T09:11:44.000Z</time>
      </trkpt>
      <trkpt lat="47.53268" lon="6.68372">
        <ele>371.4</ele>
        <time>2014-10-26T09:11:45.000Z</time>
      </trkpt>
      <trkpt lat="47.53273" lon="6.68372">
        <ele>371</ele>
        <time>2014-10-26T09:11:46.000Z</time>
      </trkpt>
      <trkpt lat="47.53277" lon="6.68372">
        <ele>370.6</ele>
        <time>2014-10-26T09:11:47.000Z</time>
      </trkpt>
      <trkpt lat="47.5328" lon="6.68372">
        <ele>370.3</ele>
        <time>2014-10-26T09:11:48.000Z</time>
      </trkpt>
      <trkpt lat="47.53284" lon="6.68373">
        <ele>370.1</ele>
        <time>2014-10-26T09:11:49.000Z</time>
      </trkpt>
      <trkpt lat="47.53288" lon="6.68373">
        <ele>369.1</ele>
        <time>2014-10-26T09:11:50.000Z</time>
      </trkpt>
      <trkpt lat="47.53293" lon="6.68373">
        <ele>369.2</ele>
        <time>2014-10-26T09:11:51.000Z</time>
      </trkpt>
      <trkpt lat="47.53296" lon="6.68373">
        <ele>368.7</ele>
        <time>2014-10-26T09:11:52.000Z</time>
      </trkpt>
      <trkpt lat="47.53301" lon="6.68373">
        <ele>367.7</ele>
        <time>2014-10-26T09:11:53.000Z</time>
      </trkpt>
      <trkpt lat="47.53305" lon="6.68374">
        <ele>366.7</ele>
        <time>2014-10-26T09:11:54.000Z</time>
      </trkpt>
      <trkpt lat="47.5331" lon="6.68376">
        <ele>366.1</ele>
        <time>2014-10-26T09:11:55.000Z</time>
      </trkpt>
      <trkpt lat="47.53315" lon="6.68378">
        <ele>366</ele>
        <time>2014-10-26T09:11:56.000Z</time>
      </trkpt>
      <trkpt lat="47.53323" lon="6.6838">
        <ele>365.6</ele>
        <time>2014-10-26T09:11:57.000Z</time>
      </trkpt>
      <trkpt lat="47.53329" lon="6.6838">
        <ele>365.2</ele>
        <time>2014-10-26T09:11:58.000Z</time>
      </trkpt>
      <trkpt lat="47.53334" lon="6.68382">
        <ele>365.9</ele>
        <time>2014-10-26T09:11:59.000Z</time>
      </trkpt>
      <trkpt lat="47.53339" lon="6.68384">
        <ele>366.4</ele>
        <time>2014-10-26T09:12:00.000Z</time>
      </trkpt>
      <trkpt lat="47.53345" lon="6.68384">
        <ele>365.4</ele>
        <time>2014-10-26T09:12:01.000Z</time>
      </trkpt>
      <trkpt lat="47.53349" lon="6.68384">
        <ele>365</ele>
        <time>2014-10-26T09:12:02.000Z</time>
      </trkpt>
      <trkpt lat="47.53352" lon="6.68385">
        <ele>365</ele>
        <time>2014-10-26T09:12:03.000Z</time>
      </trkpt>
      <trkpt lat="47.53354" lon="6.68386">
        <ele>365.7</ele>
        <time>2014-10-26T09:12:04.000Z</time>
      </trkpt>
      <trkpt lat="47.53357" lon="6.68387">
        <ele>366.5</ele>
        <time>2014-10-26T09:12:05.000Z</time>
      </trkpt>
      <trkpt lat="47.5336" lon="6.68388">
        <ele>366.8</ele>
        <time>2014-10-26T09:12:07.000Z</time>
      </trkpt>
      <trkpt lat="47.53361" lon="6.68388">
        <ele>367</ele>
        <time>2014-10-26T09:12:08.000Z</time>
      </trkpt>
      <trkpt lat="47.53365" lon="6.68389">
        <ele>366.4</ele>
        <time>2014-10-26T09:12:14.000Z</time>
      </trkpt>
      <trkpt lat="47.53367" lon="6.68389">
        <ele>366.6</ele>
        <time>2014-10-26T09:12:15.000Z</time>
      </trkpt>
      <trkpt lat="47.53371" lon="6.68388">
        <ele>367.7</ele>
        <time>2014-10-26T09:12:19.000Z</time>
      </trkpt>
      <trkpt lat="47.53371" lon="6.68387">
        <ele>368</ele>
        <time>2014-10-26T09:12:20.000Z</time>
      </trkpt>
      <trkpt lat="47.53372" lon="6.68381">
        <ele>367.9</ele>
        <time>2014-10-26T09:12:26.000Z</time>
      </trkpt>
      <trkpt lat="47.53372" lon="6.68379">
        <ele>367.5</ele>
        <time>2014-10-26T09:12:27.000Z</time>
      </trkpt>
      <trkpt lat="47.53374" lon="6.68373">
        <ele>365.9</ele>
        <time>2014-10-26T09:12:30.000Z</time>
      </trkpt>
      <trkpt lat="47.53374" lon="6.68371">
        <ele>365.9</ele>
        <time>2014-10-26T09:12:31.000Z</time>
      </trkpt>
      <trkpt lat="47.53374" lon="6.68367">
        <ele>364.5</ele>
        <time>2014-10-26T09:12:33.000Z</time>
      </trkpt>
      <trkpt lat="47.53374" lon="6.68362">
        <ele>361.1</ele>
        <time>2014-10-26T09:12:36.000Z</time>
      </trkpt>
      <trkpt lat="47.53371" lon="6.68363">
        <ele>357.5</ele>
        <time>2014-10-26T09:12:39.000Z</time>
      </trkpt>
      <trkpt lat="47.5337" lon="6.68366">
        <ele>355.7</ele>
        <time>2014-10-26T09:12:40.000Z</time>
      </trkpt>
      <trkpt lat="47.5337" lon="6.68371">
        <ele>357.6</ele>
        <time>2014-10-26T09:12:42.000Z</time>
      </trkpt>
      <trkpt lat="47.53371" lon="6.68373">
        <ele>357.7</ele>
        <time>2014-10-26T09:12:43.000Z</time>
      </trkpt>
      <trkpt lat="47.53374" lon="6.68375">
        <ele>358.7</ele>
        <time>2014-10-26T09:12:45.000Z</time>
      </trkpt>
      <trkpt lat="47.53376" lon="6.68376">
        <ele>358.7</ele>
        <time>2014-10-26T09:12:46.000Z</time>
      </trkpt>
      <trkpt lat="47.53379" lon="6.68376">
        <ele>360.1</ele>
        <time>2014-10-26T09:12:47.000Z</time>
      </trkpt>
      <trkpt lat="47.53381" lon="6.68376">
        <ele>361.3</ele>
        <time>2014-10-26T09:12:48.000Z</time>
      </trkpt>
      <trkpt lat="47.53385" lon="6.68375">
        <ele>364.6</ele>
        <time>2014-10-26T09:12:50.000Z</time>
      </trkpt>
      <trkpt lat="47.53386" lon="6.68374">
        <ele>363.2</ele>
        <time>2014-10-26T09:12:51.000Z</time>
      </trkpt>
      <trkpt lat="47.53389" lon="6.68373">
        <ele>367.8</ele>
        <time>2014-10-26T09:12:53.000Z</time>
      </trkpt>
      <trkpt lat="47.53391" lon="6.68373">
        <ele>368.6</ele>
        <time>2014-10-26T09:12:54.000Z</time>
      </trkpt>
      <trkpt lat="47.53394" lon="6.68373">
        <ele>367.2</ele>
        <time>2014-10-26T09:12:56.000Z</time>
      </trkpt>
      <trkpt lat="47.53396" lon="6.68373">
        <ele>367.5</ele>
        <time>2014-10-26T09:12:57.000Z</time>
      </trkpt>
      <trkpt lat="47.53399" lon="6.68373">
        <ele>367.3</ele>
        <time>2014-10-26T09:12:59.000Z</time>
      </trkpt>
      <trkpt lat="47.534" lon="6.68373">
        <ele>368.1</ele>
        <time>2014-10-26T09:13:00.000Z</time>
      </trkpt>
      <trkpt lat="47.53405" lon="6.68373">
        <ele>370.4</ele>
        <time>2014-10-26T09:13:03.000Z</time>
      </trkpt>
      <trkpt lat="47.53406" lon="6.68373">
        <ele>370.7</ele>
        <time>2014-10-26T09:13:04.000Z</time>
      </trkpt>
      <trkpt lat="47.5341" lon="6.68374">
        <ele>373.7</ele>
        <time>2014-10-26T09:13:09.000Z</time>
      </trkpt>
      <trkpt lat="47.53411" lon="6.68374">
        <ele>374.4</ele>
        <time>2014-10-26T09:13:10.000Z</time>
      </trkpt>
      <trkpt lat="47.53415" lon="6.68374">
        <ele>378.1</ele>
        <time>2014-10-26T09:13:15.000Z</time>
      </trkpt>
      <trkpt lat="47.53417" lon="6.68374">
        <ele>378.1</ele>
        <time>2014-10-26T09:13:16.000Z</time>
      </trkpt>
      <trkpt lat="47.53421" lon="6.68374">
        <ele>380.5</ele>
        <time>2014-10-26T09:13:18.000Z</time>
      </trkpt>
      <trkpt lat="47.53423" lon="6.68373">
        <ele>380.9</ele>
        <time>2014-10-26T09:13:19.000Z</time>
      </trkpt>
      <trkpt lat="47.53426" lon="6.68373">
        <ele>382.5</ele>
        <time>2014-10-26T09:13:21.000Z</time>
      </trkpt>
      <trkpt lat="47.53428" lon="6.68373">
        <ele>383.2</ele>
        <time>2014-10-26T09:13:22.000Z</time>
      </trkpt>
      <trkpt lat="47.53432" lon="6.68373">
        <ele>384.5</ele>
        <time>2014-10-26T09:13:24.000Z</time>
      </trkpt>
      <trkpt lat="47.53433" lon="6.68373">
        <ele>385.3</ele>
        <time>2014-10-26T09:13:25.000Z</time>
      </trkpt>
      <trkpt lat="47.53437" lon="6.68371">
        <ele>386.4</ele>
        <time>2014-10-26T09:13:28.000Z</time>
      </trkpt>
      <trkpt lat="47.53438" lon="6.68371">
        <ele>386.5</ele>
        <time>2014-10-26T09:13:29.000Z</time>
      </trkpt>
      <trkpt lat="47.53441" lon="6.68368">
        <ele>386.7</ele>
        <time>2014-10-26T09:13:31.000Z</time>
      </trkpt>
      <trkpt lat="47.53443" lon="6.68367">
        <ele>386.9</ele>
        <time>2014-10-26T09:13:32.000Z</time>
      </trkpt>
      <trkpt lat="47.53468" lon="6.68358">
        <ele>394.6</ele>
        <time>2014-10-26T09:13:39.789Z</time>
      </trkpt>
      <trkpt lat="47.53472" lon="6.68359">
        <ele>395.1</ele>
        <time>2014-10-26T09:13:41.000Z</time>
      </trkpt>
      <trkpt lat="47.53475" lon="6.68359">
        <ele>395.4</ele>
        <time>2014-10-26T09:13:42.000Z</time>
      </trkpt>
      <trkpt lat="47.53477" lon="6.68359">
        <ele>395.2</ele>
        <time>2014-10-26T09:13:43.000Z</time>
      </trkpt>
      <trkpt lat="47.5348" lon="6.68358">
        <ele>396.1</ele>
        <time>2014-10-26T09:13:44.000Z</time>
      </trkpt>
      <trkpt lat="47.53482" lon="6.68358">
        <ele>397</ele>
        <time>2014-10-26T09:13:45.000Z</time>
      </trkpt>
      <trkpt lat="47.53484" lon="6.68357">
        <ele>399.6</ele>
        <time>2014-10-26T09:13:46.000Z</time>
      </trkpt>
      <trkpt lat="47.53488" lon="6.68356">
        <ele>402.9</ele>
        <time>2014-10-26T09:13:48.000Z</time>
      </trkpt>
      <trkpt lat="47.5349" lon="6.68356">
        <ele>403.3</ele>
        <time>2014-10-26T09:13:49.000Z</time>
      </trkpt>
      <trkpt lat="47.53492" lon="6.68355">
        <ele>403.8</ele>
        <time>2014-10-26T09:13:50.000Z</time>
      </trkpt>
      <trkpt lat="47.53495" lon="6.68354">
        <ele>404.8</ele>
        <time>2014-10-26T09:13:51.000Z</time>
      </trkpt>
      <trkpt lat="47.53498" lon="6.68354">
        <ele>405.4</ele>
        <time>2014-10-26T09:13:52.000Z</time>
      </trkpt>
      <trkpt lat="47.535" lon="6.68354">
        <ele>405.5</ele>
        <time>2014-10-26T09:13:53.000Z</time>
      </trkpt>
      <trkpt lat="47.53503" lon="6.68354">
        <ele>406.1</ele>
        <time>2014-10-26T09:13:54.000Z</time>
      </trkpt>
      <trkpt lat="47.53506" lon="6.68355">
        <ele>406.8</ele>
        <time>2014-10-26T09:13:55.000Z</time>
      </trkpt>
      <trkpt lat="47.5351" lon="6.68356">
        <ele>407.3</ele>
        <time>2014-10-26T09:13:56.000Z</time>
      </trkpt>
      <trkpt lat="47.53513" lon="6.68356">
        <ele>406.5</ele>
        <time>2014-10-26T09:13:57.000Z</time>
      </trkpt>
      <trkpt lat="47.53516" lon="6.68356">
        <ele>406.7</ele>
        <time>2014-10-26T09:13:58.000Z</time>
      </trkpt>
      <trkpt lat="47.53519" lon="6.68356">
        <ele>407.1</ele>
        <time>2014-10-26T09:13:59.000Z</time>
      </trkpt>
      <trkpt lat="47.53522" lon="6.68355">
        <ele>406.7</ele>
        <time>2014-10-26T09:14:00.000Z</time>
      </trkpt>
      <trkpt lat="47.53525" lon="6.68355">
        <ele>406.7</ele>
        <time>2014-10-26T09:14:01.000Z</time>
      </trkpt>
      <trkpt lat="47.53528" lon="6.68354">
        <ele>405.6</ele>
        <time>2014-10-26T09:14:02.000Z</time>
      </trkpt>
      <trkpt lat="47.53531" lon="6.68352">
        <ele>404.8</ele>
        <time>2014-10-26T09:14:03.000Z</time>
      </trkpt>
      <trkpt lat="47.53535" lon="6.68351">
        <ele>404.6</ele>
        <time>2014-10-26T09:14:04.000Z</time>
      </trkpt>
      <trkpt lat="47.53538" lon="6.68349">
        <ele>404.6</ele>
        <time>2014-10-26T09:14:05.000Z</time>
      </trkpt>
      <trkpt lat="47.53541" lon="6.68346">
        <ele>403.5</ele>
        <time>2014-10-26T09:14:06.000Z</time>
      </trkpt>
      <trkpt lat="47.53545" lon="6.68344">
        <ele>403.9</ele>
        <time>2014-10-26T09:14:07.000Z</time>
      </trkpt>
      <trkpt lat="47.53549" lon="6.68342">
        <ele>402.4</ele>
        <time>2014-10-26T09:14:08.000Z</time>
      </trkpt>
      <trkpt lat="47.53552" lon="6.6834">
        <ele>400.8</ele>
        <time>2014-10-26T09:14:09.000Z</time>
      </trkpt>
      <trkpt lat="47.53556" lon="6.6834">
        <ele>401.3</ele>
        <time>2014-10-26T09:14:10.000Z</time>
      </trkpt>
      <trkpt lat="47.53559" lon="6.68339">
        <ele>401.7</ele>
        <time>2014-10-26T09:14:11.000Z</time>
      </trkpt>
      <trkpt lat="47.53562" lon="6.6834">
        <ele>401.2</ele>
        <time>2014-10-26T09:14:12.000Z</time>
      </trkpt>
      <trkpt lat="47.53565" lon="6.6834">
        <ele>402.6</ele>
        <time>2014-10-26T09:14:13.000Z</time>
      </trkpt>
      <trkpt lat="47.53568" lon="6.6834">
        <ele>402.9</ele>
        <time>2014-10-26T09:14:14.000Z</time>
      </trkpt>
      <trkpt lat="47.53572" lon="6.6834">
        <ele>404.5</ele>
        <time>2014-10-26T09:14:15.000Z</time>
      </trkpt>
      <trkpt lat="47.53576" lon="6.68339">
        <ele>405.6</ele>
        <time>2014-10-26T09:14:16.000Z</time>
      </trkpt>
      <trkpt lat="47.53579" lon="6.68338">
        <ele>406.5</ele>
        <time>2014-10-26T09:14:17.000Z</time>
      </trkpt>
      <trkpt lat="47.53582" lon="6.68337">
        <ele>407.3</ele>
        <time>2014-10-26T09:14:18.000Z</time>
      </trkpt>
      <trkpt lat="47.53585" lon="6.68336">
        <ele>405.4</ele>
        <time>2014-10-26T09:14:19.000Z</time>
      </trkpt>
      <trkpt lat="47.53588" lon="6.68335">
        <ele>404.7</ele>
        <time>2014-10-26T09:14:20.000Z</time>
      </trkpt>
      <trkpt lat="47.53591" lon="6.68334">
        <ele>404.1</ele>
        <time>2014-10-26T09:14:21.000Z</time>
      </trkpt>
      <trkpt lat="47.53594" lon="6.68334">
        <ele>407.4</ele>
        <time>2014-10-26T09:14:22.000Z</time>
      </trkpt>
      <trkpt lat="47.53597" lon="6.68333">
        <ele>409.5</ele>
        <time>2014-10-26T09:14:23.000Z</time>
      </trkpt>
      <trkpt lat="47.536" lon="6.68333">
        <ele>409.7</ele>
        <time>2014-10-26T09:14:24.000Z</time>
      </trkpt>
      <trkpt lat="47.53603" lon="6.68333">
        <ele>409.2</ele>
        <time>2014-10-26T09:14:25.000Z</time>
      </trkpt>
      <trkpt lat="47.53605" lon="6.68333">
        <ele>409.1</ele>
        <time>2014-10-26T09:14:26.000Z</time>
      </trkpt>
      <trkpt lat="47.53608" lon="6.68333">
        <ele>408.9</ele>
        <time>2014-10-26T09:14:27.000Z</time>
      </trkpt>
      <trkpt lat="47.53611" lon="6.68333">
        <ele>408.7</ele>
        <time>2014-10-26T09:14:28.000Z</time>
      </trkpt>
      <trkpt lat="47.53614" lon="6.68333">
        <ele>411.1</ele>
        <time>2014-10-26T09:14:29.000Z</time>
      </trkpt>
      <trkpt lat="47.53618" lon="6.68333">
        <ele>412.2</ele>
        <time>2014-10-26T09:14:30.000Z</time>
      </trkpt>
      <trkpt lat="47.53622" lon="6.68333">
        <ele>412.9</ele>
        <time>2014-10-26T09:14:31.000Z</time>
      </trkpt>
      <trkpt lat="47.53626" lon="6.68332">
        <ele>412.8</ele>
        <time>2014-10-26T09:14:32.000Z</time>
      </trkpt>
      <trkpt lat="47.53652" lon="6.68332">
        <ele>417</ele>
        <time>2014-10-26T09:14:39.755Z</time>
      </trkpt>
      <trkpt lat="47.53655" lon="6.68332">
        <ele>416.5</ele>
        <time>2014-10-26T09:14:41.000Z</time>
      </trkpt>
      <trkpt lat="47.53658" lon="6.68333">
        <ele>419.2</ele>
        <time>2014-10-26T09:14:42.000Z</time>
      </trkpt>
      <trkpt lat="47.53661" lon="6.68333">
        <ele>420.1</ele>
        <time>2014-10-26T09:14:43.000Z</time>
      </trkpt>
      <trkpt lat="47.53663" lon="6.68333">
        <ele>420</ele>
        <time>2014-10-26T09:14:44.000Z</time>
      </trkpt>
      <trkpt lat="47.53666" lon="6.68333">
        <ele>419.9</ele>
        <time>2014-10-26T09:14:45.000Z</time>
      </trkpt>
      <trkpt lat="47.53668" lon="6.68333">
        <ele>420.2</ele>
        <time>2014-10-26T09:14:46.000Z</time>
      </trkpt>
      <trkpt lat="47.53672" lon="6.68333">
        <ele>423.5</ele>
        <time>2014-10-26T09:14:48.000Z</time>
      </trkpt>
      <trkpt lat="47.53674" lon="6.68333">
        <ele>424.3</ele>
        <time>2014-10-26T09:14:49.000Z</time>
      </trkpt>
      <trkpt lat="47.53677" lon="6.68334">
        <ele>425.1</ele>
        <time>2014-10-26T09:14:51.000Z</time>
      </trkpt>
      <trkpt lat="47.5368" lon="6.68335">
        <ele>424.7</ele>
        <time>2014-10-26T09:14:52.000Z</time>
      </trkpt>
      <trkpt lat="47.53682" lon="6.68335">
        <ele>427</ele>
        <time>2014-10-26T09:14:53.000Z</time>
      </trkpt>
      <trkpt lat="47.53684" lon="6.68335">
        <ele>427.7</ele>
        <time>2014-10-26T09:14:54.000Z</time>
      </trkpt>
      <trkpt lat="47.53687" lon="6.68334">
        <ele>428.3</ele>
        <time>2014-10-26T09:14:55.000Z</time>
      </trkpt>
      <trkpt lat="47.53689" lon="6.68334">
        <ele>426.8</ele>
        <time>2014-10-26T09:14:56.000Z</time>
      </trkpt>
      <trkpt lat="47.53692" lon="6.68334">
        <ele>426.9</ele>
        <time>2014-10-26T09:14:57.000Z</time>
      </trkpt>
      <trkpt lat="47.53694" lon="6.68333">
        <ele>426.9</ele>
        <time>2014-10-26T09:14:58.000Z</time>
      </trkpt>
      <trkpt lat="47.53698" lon="6.68331">
        <ele>425.8</ele>
        <time>2014-10-26T09:15:00.000Z</time>
      </trkpt>
      <trkpt lat="47.53701" lon="6.6833">
        <ele>425.3</ele>
        <time>2014-10-26T09:15:01.000Z</time>
      </trkpt>
      <trkpt lat="47.53703" lon="6.68328">
        <ele>423.7</ele>
        <time>2014-10-26T09:15:02.000Z</time>
      </trkpt>
      <trkpt lat="47.53705" lon="6.68326">
        <ele>423</ele>
        <time>2014-10-26T09:15:03.000Z</time>
      </trkpt>
      <trkpt lat="47.53707" lon="6.68324">
        <ele>421.6</ele>
        <time>2014-10-26T09:15:04.000Z</time>
      </trkpt>
      <trkpt lat="47.53709" lon="6.68322">
        <ele>419.9</ele>
        <time>2014-10-26T09:15:05.000Z</time>
      </trkpt>
      <trkpt lat="47.53711" lon="6.68321">
        <ele>419.3</ele>
        <time>2014-10-26T09:15:06.000Z</time>
      </trkpt>
      <trkpt lat="47.53713" lon="6.68319">
        <ele>418.8</ele>
        <time>2014-10-26T09:15:07.000Z</time>
      </trkpt>
      <trkpt lat="47.53717" lon="6.68317">
        <ele>418</ele>
        <time>2014-10-26T09:15:09.000Z</time>
      </trkpt>
      <trkpt lat="47.5372" lon="6.68316">
        <ele>420.4</ele>
        <time>2014-10-26T09:15:10.000Z</time>
      </trkpt>
      <trkpt lat="47.53722" lon="6.68316">
        <ele>421.3</ele>
        <time>2014-10-26T09:15:11.000Z</time>
      </trkpt>
      <trkpt lat="47.53725" lon="6.68314">
        <ele>421.8</ele>
        <time>2014-10-26T09:15:12.000Z</time>
      </trkpt>
      <trkpt lat="47.53727" lon="6.68313">
        <ele>422</ele>
        <time>2014-10-26T09:15:13.000Z</time>
      </trkpt>
      <trkpt lat="47.53729" lon="6.68312">
        <ele>427.1</ele>
        <time>2014-10-26T09:15:14.000Z</time>
      </trkpt>
      <trkpt lat="47.53732" lon="6.6831">
        <ele>430.7</ele>
        <time>2014-10-26T09:15:16.000Z</time>
      </trkpt>
      <trkpt lat="47.53733" lon="6.68308">
        <ele>430.4</ele>
        <time>2014-10-26T09:15:17.000Z</time>
      </trkpt>
      <trkpt lat="47.53735" lon="6.68302">
        <ele>429.5</ele>
        <time>2014-10-26T09:15:20.000Z</time>
      </trkpt>
      <trkpt lat="47.53735" lon="6.683">
        <ele>429.2</ele>
        <time>2014-10-26T09:15:21.000Z</time>
      </trkpt>
      <trkpt lat="47.53734" lon="6.68296">
        <ele>429.2</ele>
        <time>2014-10-26T09:15:22.000Z</time>
      </trkpt>
      <trkpt lat="47.53733" lon="6.68293">
        <ele>428.5</ele>
        <time>2014-10-26T09:15:23.000Z</time>
      </trkpt>
      <trkpt lat="47.53733" lon="6.68287">
        <ele>429.1</ele>
        <time>2014-10-26T09:15:25.000Z</time>
      </trkpt>
      <trkpt lat="47.53733" lon="6.68283">
        <ele>429.2</ele>
        <time>2014-10-26T09:15:26.000Z</time>
      </trkpt>
      <trkpt lat="47.53733" lon="6.6828">
        <ele>428.6</ele>
        <time>2014-10-26T09:15:27.000Z</time>
      </trkpt>
      <trkpt lat="47.53734" lon="6.68276">
        <ele>427.6</ele>
        <time>2014-10-26T09:15:28.000Z</time>
      </trkpt>
      <trkpt lat="47.53734" lon="6.68272">
        <ele>427.4</ele>
        <time>2014-10-26T09:15:29.000Z</time>
      </trkpt>
      <trkpt lat="47.53733" lon="6.68268">
        <ele>426.4</ele>
        <time>2014-10-26T09:15:30.000Z</time>
      </trkpt>
      <trkpt lat="47.53733" lon="6.68263">
        <ele>428.7</ele>
        <time>2014-10-26T09:15:31.000Z</time>
      </trkpt>
      <trkpt lat="47.53733" lon="6.68259">
        <ele>427.2</ele>
        <time>2014-10-26T09:15:32.000Z</time>
      </trkpt>
      <trkpt lat="47.53733" lon="6.68254">
        <ele>426.4</ele>
        <time>2014-10-26T09:15:33.000Z</time>
      </trkpt>
      <trkpt lat="47.53739" lon="6.68227">
        <ele>420.7</ele>
        <time>2014-10-26T09:15:41.000Z</time>
      </trkpt>
      <trkpt lat="47.5374" lon="6.68224">
        <ele>418.4</ele>
        <time>2014-10-26T09:15:42.000Z</time>
      </trkpt>
      <trkpt lat="47.53741" lon="6.6822">
        <ele>420.1</ele>
        <time>2014-10-26T09:15:43.000Z</time>
      </trkpt>
      <trkpt lat="47.53742" lon="6.68216">
        <ele>421.4</ele>
        <time>2014-10-26T09:15:44.000Z</time>
      </trkpt>
      <trkpt lat="47.53743" lon="6.68213">
        <ele>422</ele>
        <time>2014-10-26T09:15:45.000Z</time>
      </trkpt>
      <trkpt lat="47.53744" lon="6.68207">
        <ele>421.7</ele>
        <time>2014-10-26T09:15:47.000Z</time>
      </trkpt>
      <trkpt lat="47.53745" lon="6.68203">
        <ele>421.9</ele>
        <time>2014-10-26T09:15:48.000Z</time>
      </trkpt>
      <trkpt lat="47.53745" lon="6.68199">
        <ele>421.8</ele>
        <time>2014-10-26T09:15:49.000Z</time>
      </trkpt>
      <trkpt lat="47.53746" lon="6.68194">
        <ele>421.6</ele>
        <time>2014-10-26T09:15:50.000Z</time>
      </trkpt>
      <trkpt lat="47.53746" lon="6.68189">
        <ele>421</ele>
        <time>2014-10-26T09:15:51.000Z</time>
      </trkpt>
      <trkpt lat="47.53747" lon="6.68184">
        <ele>421.4</ele>
        <time>2014-10-26T09:15:52.000Z</time>
      </trkpt>
      <trkpt lat="47.53748" lon="6.68179">
        <ele>418.6</ele>
        <time>2014-10-26T09:15:53.000Z</time>
      </trkpt>
      <trkpt lat="47.53748" lon="6.68173">
        <ele>417.9</ele>
        <time>2014-10-26T09:15:54.000Z</time>
      </trkpt>
      <trkpt lat="47.53748" lon="6.68167">
        <ele>417.9</ele>
        <time>2014-10-26T09:15:55.000Z</time>
      </trkpt>
      <trkpt lat="47.53748" lon="6.68161">
        <ele>417.2</ele>
        <time>2014-10-26T09:15:56.000Z</time>
      </trkpt>
      <trkpt lat="47.53748" lon="6.68155">
        <ele>416.6</ele>
        <time>2014-10-26T09:15:57.000Z</time>
      </trkpt>
      <trkpt lat="47.53749" lon="6.6815">
        <ele>416.3</ele>
        <time>2014-10-26T09:15:58.000Z</time>
      </trkpt>
      <trkpt lat="47.53749" lon="6.68146">
        <ele>415.6</ele>
        <time>2014-10-26T09:15:59.000Z</time>
      </trkpt>
      <trkpt lat="47.53749" lon="6.68142">
        <ele>414.9</ele>
        <time>2014-10-26T09:16:00.000Z</time>
      </trkpt>
      <trkpt lat="47.53751" lon="6.68137">
        <ele>413.2</ele>
        <time>2014-10-26T09:16:01.000Z</time>
      </trkpt>
      <trkpt lat="47.53754" lon="6.68133">
        <ele>414.1</ele>
        <time>2014-10-26T09:16:02.000Z</time>
      </trkpt>
      <trkpt lat="47.53756" lon="6.68129">
        <ele>414.2</ele>
        <time>2014-10-26T09:16:03.000Z</time>
      </trkpt>
      <trkpt lat="47.53758" lon="6.68126">
        <ele>414.4</ele>
        <time>2014-10-26T09:16:04.000Z</time>
      </trkpt>
      <trkpt lat="47.5376" lon="6.68123">
        <ele>414.4</ele>
        <time>2014-10-26T09:16:05.000Z</time>
      </trkpt>
      <trkpt lat="47.53761" lon="6.6812">
        <ele>414.6</ele>
        <time>2014-10-26T09:16:06.000Z</time>
      </trkpt>
      <trkpt lat="47.53764" lon="6.68116">
        <ele>416.1</ele>
        <time>2014-10-26T09:16:08.000Z</time>
      </trkpt>
      <trkpt lat="47.53767" lon="6.68114">
        <ele>413.8</ele>
        <time>2014-10-26T09:16:09.000Z</time>
      </trkpt>
      <trkpt lat="47.53769" lon="6.68112">
        <ele>412.7</ele>
        <time>2014-10-26T09:16:10.000Z</time>
      </trkpt>
      <trkpt lat="47.53772" lon="6.68111">
        <ele>411.7</ele>
        <time>2014-10-26T09:16:11.000Z</time>
      </trkpt>
      <trkpt lat="47.53776" lon="6.68109">
        <ele>412.1</ele>
        <time>2014-10-26T09:16:13.000Z</time>
      </trkpt>
      <trkpt lat="47.53777" lon="6.68108">
        <ele>412.7</ele>
        <time>2014-10-26T09:16:14.000Z</time>
      </trkpt>
      <trkpt lat="47.5378" lon="6.68105">
        <ele>412.9</ele>
        <time>2014-10-26T09:16:16.000Z</time>
      </trkpt>
      <trkpt lat="47.53782" lon="6.68104">
        <ele>412.5</ele>
        <time>2014-10-26T09:16:17.000Z</time>
      </trkpt>
      <trkpt lat="47.53785" lon="6.681">
        <ele>410.7</ele>
        <time>2014-10-26T09:16:19.000Z</time>
      </trkpt>
      <trkpt lat="47.53787" lon="6.68099">
        <ele>410.5</ele>
        <time>2014-10-26T09:16:20.000Z</time>
      </trkpt>
      <trkpt lat="47.53789" lon="6.68097">
        <ele>410.1</ele>
        <time>2014-10-26T09:16:21.000Z</time>
      </trkpt>
      <trkpt lat="47.53792" lon="6.68097">
        <ele>409.6</ele>
        <time>2014-10-26T09:16:22.000Z</time>
      </trkpt>
      <trkpt lat="47.53796" lon="6.68097">
        <ele>408.7</ele>
        <time>2014-10-26T09:16:23.000Z</time>
      </trkpt>
      <trkpt lat="47.53799" lon="6.68097">
        <ele>407.7</ele>
        <time>2014-10-26T09:16:24.000Z</time>
      </trkpt>
      <trkpt lat="47.53802" lon="6.68097">
        <ele>407.8</ele>
        <time>2014-10-26T09:16:25.000Z</time>
      </trkpt>
      <trkpt lat="47.53806" lon="6.68096">
        <ele>408.4</ele>
        <time>2014-10-26T09:16:26.000Z</time>
      </trkpt>
      <trkpt lat="47.5381" lon="6.68095">
        <ele>408.7</ele>
        <time>2014-10-26T09:16:27.000Z</time>
      </trkpt>
      <trkpt lat="47.53813" lon="6.68094">
        <ele>411</ele>
        <time>2014-10-26T09:16:28.000Z</time>
      </trkpt>
      <trkpt lat="47.53816" lon="6.68093">
        <ele>411.2</ele>
        <time>2014-10-26T09:16:29.000Z</time>
      </trkpt>
      <trkpt lat="47.53819" lon="6.68093">
        <ele>412.7</ele>
        <time>2014-10-26T09:16:30.000Z</time>
      </trkpt>
      <trkpt lat="47.53822" lon="6.68093">
        <ele>412.7</ele>
        <time>2014-10-26T09:16:31.000Z</time>
      </trkpt>
      <trkpt lat="47.53826" lon="6.68092">
        <ele>411.4</ele>
        <time>2014-10-26T09:16:32.000Z</time>
      </trkpt>
      <trkpt lat="47.53829" lon="6.68092">
        <ele>411.2</ele>
        <time>2014-10-26T09:16:33.000Z</time>
      </trkpt>
      <trkpt lat="47.53844" lon="6.6796">
        <ele>397.2</ele>
        <time>2014-10-26T09:17:01.000Z</time>
      </trkpt>
      <trkpt lat="47.5384" lon="6.67959">
        <ele>390.9</ele>
        <time>2014-10-26T09:17:02.000Z</time>
      </trkpt>
      <trkpt lat="47.53837" lon="6.67953">
        <ele>390.1</ele>
        <time>2014-10-26T09:17:03.000Z</time>
      </trkpt>
      <trkpt lat="47.53833" lon="6.6795">
        <ele>389.8</ele>
        <time>2014-10-26T09:17:04.000Z</time>
      </trkpt>
      <trkpt lat="47.53827" lon="6.67944">
        <ele>387.5</ele>
        <time>2014-10-26T09:17:05.000Z</time>
      </trkpt>
      <trkpt lat="47.53822" lon="6.67939">
        <ele>387.2</ele>
        <time>2014-10-26T09:17:06.000Z</time>
      </trkpt>
      <trkpt lat="47.53817" lon="6.67933">
        <ele>384.2</ele>
        <time>2014-10-26T09:17:07.000Z</time>
      </trkpt>
      <trkpt lat="47.5381" lon="6.67927">
        <ele>382.6</ele>
        <time>2014-10-26T09:17:08.000Z</time>
      </trkpt>
      <trkpt lat="47.53805" lon="6.67922">
        <ele>382.4</ele>
        <time>2014-10-26T09:17:09.000Z</time>
      </trkpt>
      <trkpt lat="47.538" lon="6.67916">
        <ele>381.9</ele>
        <time>2014-10-26T09:17:10.000Z</time>
      </trkpt>
      <trkpt lat="47.53796" lon="6.67911">
        <ele>381.3</ele>
        <time>2014-10-26T09:17:11.000Z</time>
      </trkpt>
      <trkpt lat="47.53791" lon="6.67905">
        <ele>380.5</ele>
        <time>2014-10-26T09:17:12.000Z</time>
      </trkpt>
      <trkpt lat="47.53786" lon="6.679">
        <ele>380.1</ele>
        <time>2014-10-26T09:17:13.000Z</time>
      </trkpt>
      <trkpt lat="47.53782" lon="6.67895">
        <ele>380.5</ele>
        <time>2014-10-26T09:17:14.000Z</time>
      </trkpt>
      <trkpt lat="47.53777" lon="6.6789">
        <ele>380.2</ele>
        <time>2014-10-26T09:17:15.000Z</time>
      </trkpt>
      <trkpt lat="47.53772" lon="6.67884">
        <ele>380.1</ele>
        <time>2014-10-26T09:17:16.000Z</time>
      </trkpt>
      <trkpt lat="47.53767" lon="6.67878">
        <ele>380.6</ele>
        <time>2014-10-26T09:17:17.000Z</time>
      </trkpt>
      <trkpt lat="47.53763" lon="6.67872">
        <ele>380.1</ele>
        <time>2014-10-26T09:17:18.000Z</time>
      </trkpt>
      <trkpt lat="47.53758" lon="6.67866">
        <ele>380.1</ele>
        <time>2014-10-26T09:17:19.000Z</time>
      </trkpt>
      <trkpt lat="47.53753" lon="6.67861">
        <ele>380.2</ele>
        <time>2014-10-26T09:17:20.000Z</time>
      </trkpt>
      <trkpt lat="47.53748" lon="6.67854">
        <ele>380</ele>
        <time>2014-10-26T09:17:21.000Z</time>
      </trkpt>
      <trkpt lat="47.53744" lon="6.67849">
        <ele>379.7</ele>
        <time>2014-10-26T09:17:22.000Z</time>
      </trkpt>
      <trkpt lat="47.5374" lon="6.67844">
        <ele>379.2</ele>
        <time>2014-10-26T09:17:23.000Z</time>
      </trkpt>
      <trkpt lat="47.53736" lon="6.67839">
        <ele>378.6</ele>
        <time>2014-10-26T09:17:24.000Z</time>
      </trkpt>
      <trkpt lat="47.53731" lon="6.67833">
        <ele>378.2</ele>
        <time>2014-10-26T09:17:25.000Z</time>
      </trkpt>
      <trkpt lat="47.53728" lon="6.67828">
        <ele>377.9</ele>
        <time>2014-10-26T09:17:26.000Z</time>
      </trkpt>
      <trkpt lat="47.53724" lon="6.67823">
        <ele>378.1</ele>
        <time>2014-10-26T09:17:27.000Z</time>
      </trkpt>
      <trkpt lat="47.5372" lon="6.67818">
        <ele>378.7</ele>
        <time>2014-10-26T09:17:28.000Z</time>
      </trkpt>
      <trkpt lat="47.53717" lon="6.67813">
        <ele>379.9</ele>
        <time>2014-10-26T09:17:29.000Z</time>
      </trkpt>
      <trkpt lat="47.53713" lon="6.67809">
        <ele>379.4</ele>
        <time>2014-10-26T09:17:30.000Z</time>
      </trkpt>
      <trkpt lat="47.53709" lon="6.67804">
        <ele>379.5</ele>
        <time>2014-10-26T09:17:31.000Z</time>
      </trkpt>
      <trkpt lat="47.53705" lon="6.678">
        <ele>378.9</ele>
        <time>2014-10-26T09:17:32.000Z</time>
      </trkpt>
      <trkpt lat="47.53678" lon="6.67767">
        <ele>378.6</ele>
        <time>2014-10-26T09:17:39.806Z</time>
      </trkpt>
      <trkpt lat="47.53674" lon="6.67763">
        <ele>378.6</ele>
        <time>2014-10-26T09:17:41.000Z</time>
      </trkpt>
      <trkpt lat="47.53742" lon="6.67734">
        <ele>375.3</ele>
        <time>2014-10-26T09:18:07.000Z</time>
      </trkpt>
      <trkpt lat="47.53748" lon="6.67735">
        <ele>376.1</ele>
        <time>2014-10-26T09:18:08.000Z</time>
      </trkpt>
      <trkpt lat="47.53753" lon="6.67736">
        <ele>374.8</ele>
        <time>2014-10-26T09:18:09.000Z</time>
      </trkpt>
      <trkpt lat="47.53757" lon="6.67737">
        <ele>374.4</ele>
        <time>2014-10-26T09:18:10.000Z</time>
      </trkpt>
      <trkpt lat="47.53762" lon="6.67738">
        <ele>374.1</ele>
        <time>2014-10-26T09:18:11.000Z</time>
      </trkpt>
      <trkpt lat="47.53767" lon="6.67739">
        <ele>374.4</ele>
        <time>2014-10-26T09:18:12.000Z</time>
      </trkpt>
      <trkpt lat="47.53771" lon="6.67741">
        <ele>374.7</ele>
        <time>2014-10-26T09:18:13.000Z</time>
      </trkpt>
      <trkpt lat="47.53776" lon="6.67742">
        <ele>374.3</ele>
        <time>2014-10-26T09:18:14.000Z</time>
      </trkpt>
      <trkpt lat="47.5378" lon="6.67744">
        <ele>374.2</ele>
        <time>2014-10-26T09:18:15.000Z</time>
      </trkpt>
      <trkpt lat="47.53784" lon="6.67745">
        <ele>375.1</ele>
        <time>2014-10-26T09:18:16.000Z</time>
      </trkpt>
      <trkpt lat="47.53788" lon="6.67746">
        <ele>375.3</ele>
        <time>2014-10-26T09:18:17.000Z</time>
      </trkpt>
      <trkpt lat="47.53792" lon="6.67746">
        <ele>374.8</ele>
        <time>2014-10-26T09:18:18.000Z</time>
      </trkpt>
      <trkpt lat="47.53795" lon="6.67747">
        <ele>373.8</ele>
        <time>2014-10-26T09:18:19.000Z</time>
      </trkpt>
      <trkpt lat="47.53799" lon="6.67747">
        <ele>374.4</ele>
        <time>2014-10-26T09:18:20.000Z</time>
      </trkpt>
      <trkpt lat="47.53803" lon="6.67748">
        <ele>374.4</ele>
        <time>2014-10-26T09:18:21.000Z</time>
      </trkpt>
      <trkpt lat="47.53807" lon="6.67749">
        <ele>374.3</ele>
        <time>2014-10-26T09:18:22.000Z</time>
      </trkpt>
      <trkpt lat="47.53811" lon="6.6775">
        <ele>374.7</ele>
        <time>2014-10-26T09:18:23.000Z</time>
      </trkpt>
      <trkpt lat="47.53815" lon="6.6775">
        <ele>375.4</ele>
        <time>2014-10-26T09:18:24.000Z</time>
      </trkpt>
      <trkpt lat="47.53819" lon="6.67751">
        <ele>375.8</ele>
        <time>2014-10-26T09:18:25.000Z</time>
      </trkpt>
      <trkpt lat="47.53823" lon="6.67751">
        <ele>375.8</ele>
        <time>2014-10-26T09:18:26.000Z</time>
      </trkpt>
      <trkpt lat="47.53827" lon="6.67751">
        <ele>376.4</ele>
        <time>2014-10-26T09:18:27.000Z</time>
      </trkpt>
      <trkpt lat="47.5383" lon="6.67751">
        <ele>376.5</ele>
        <time>2014-10-26T09:18:28.000Z</time>
      </trkpt>
      <trkpt lat="47.53833" lon="6.6775">
        <ele>377.1</ele>
        <time>2014-10-26T09:18:29.000Z</time>
      </trkpt>
      <trkpt lat="47.53837" lon="6.6775">
        <ele>377.1</ele>
        <time>2014-10-26T09:18:30.000Z</time>
      </trkpt>
      <trkpt lat="47.53841" lon="6.67749">
        <ele>377.9</ele>
        <time>2014-10-26T09:18:31.000Z</time>
      </trkpt>
      <trkpt lat="47.53846" lon="6.67748">
        <ele>378</ele>
        <time>2014-10-26T09:18:32.000Z</time>
      </trkpt>
      <trkpt lat="47.5385" lon="6.67747">
        <ele>377.9</ele>
        <time>2014-10-26T09:18:33.000Z</time>
      </trkpt>
      <trkpt lat="47.53858" lon="6.67743">
        <ele>377.8</ele>
        <time>2014-10-26T09:18:35.000Z</time>
      </trkpt>
      <trkpt lat="47.53866" lon="6.67734">
        <ele>377.3</ele>
        <time>2014-10-26T09:18:36.000Z</time>
      </trkpt>
      <trkpt lat="47.53872" lon="6.6773">
        <ele>376.8</ele>
        <time>2014-10-26T09:18:37.000Z</time>
      </trkpt>
      <trkpt lat="47.53878" lon="6.67726">
        <ele>376.4</ele>
        <time>2014-10-26T09:18:38.000Z</time>
      </trkpt>
      <trkpt lat="47.53883" lon="6.67723">
        <ele>376.9</ele>
        <time>2014-10-26T09:18:39.000Z</time>
      </trkpt>
      <trkpt lat="47.53888" lon="6.6772">
        <ele>377.2</ele>
        <time>2014-10-26T09:18:40.000Z</time>
      </trkpt>
      <trkpt lat="47.53893" lon="6.67717">
        <ele>377.5</ele>
        <time>2014-10-26T09:18:41.000Z</time>
      </trkpt>
      <trkpt lat="47.53898" lon="6.67714">
        <ele>377.8</ele>
        <time>2014-10-26T09:18:42.000Z</time>
      </trkpt>
      <trkpt lat="47.53903" lon="6.67711">
        <ele>378.5</ele>
        <time>2014-10-26T09:18:43.000Z</time>
      </trkpt>
      <trkpt lat="47.53907" lon="6.67709">
        <ele>378.8</ele>
        <time>2014-10-26T09:18:44.000Z</time>
      </trkpt>
      <trkpt lat="47.53912" lon="6.67707">
        <ele>379.5</ele>
        <time>2014-10-26T09:18:45.000Z</time>
      </trkpt>
      <trkpt lat="47.53917" lon="6.67705">
        <ele>379.3</ele>
        <time>2014-10-26T09:18:46.000Z</time>
      </trkpt>
      <trkpt lat="47.53922" lon="6.67703">
        <ele>379.3</ele>
        <time>2014-10-26T09:18:47.000Z</time>
      </trkpt>
      <trkpt lat="47.53926" lon="6.67701">
        <ele>379.1</ele>
        <time>2014-10-26T09:18:48.000Z</time>
      </trkpt>
      <trkpt lat="47.53931" lon="6.67699">
        <ele>379</ele>
        <time>2014-10-26T09:18:49.000Z</time>
      </trkpt>
      <trkpt lat="47.53936" lon="6.67697">
        <ele>378.7</ele>
        <time>2014-10-26T09:18:50.000Z</time>
      </trkpt>
      <trkpt lat="47.5394" lon="6.67696">
        <ele>378.7</ele>
        <time>2014-10-26T09:18:51.000Z</time>
      </trkpt>
      <trkpt lat="47.53944" lon="6.67694">
        <ele>379</ele>
        <time>2014-10-26T09:18:52.000Z</time>
      </trkpt>
      <trkpt lat="47.53947" lon="6.67694">
        <ele>379.5</ele>
        <time>2014-10-26T09:18:53.000Z</time>
      </trkpt>
      <trkpt lat="47.53951" lon="6.67693">
        <ele>379.4</ele>
        <time>2014-10-26T09:18:54.000Z</time>
      </trkpt>
      <trkpt lat="47.53955" lon="6.67691">
        <ele>378.9</ele>
        <time>2014-10-26T09:18:55.000Z</time>
      </trkpt>
      <trkpt lat="47.53959" lon="6.67689">
        <ele>379</ele>
        <time>2014-10-26T09:18:56.000Z</time>
      </trkpt>
      <trkpt lat="47.53963" lon="6.67688">
        <ele>379.1</ele>
        <time>2014-10-26T09:18:57.000Z</time>
      </trkpt>
      <trkpt lat="47.53967" lon="6.67686">
        <ele>379.1</ele>
        <time>2014-10-26T09:18:58.000Z</time>
      </trkpt>
      <trkpt lat="47.53971" lon="6.67685">
        <ele>378.8</ele>
        <time>2014-10-26T09:18:59.000Z</time>
      </trkpt>
      <trkpt lat="47.53975" lon="6.67683">
        <ele>378.8</ele>
        <time>2014-10-26T09:19:00.000Z</time>
      </trkpt>
      <trkpt lat="47.53978" lon="6.67682">
        <ele>379.3</ele>
        <time>2014-10-26T09:19:01.000Z</time>
      </trkpt>
      <trkpt lat="47.53982" lon="6.6768">
        <ele>379.1</ele>
        <time>2014-10-26T09:19:02.000Z</time>
      </trkpt>
      <trkpt lat="47.53986" lon="6.67679">
        <ele>379.2</ele>
        <time>2014-10-26T09:19:03.000Z</time>
      </trkpt>
      <trkpt lat="47.5399" lon="6.67676">
        <ele>379.2</ele>
        <time>2014-10-26T09:19:04.000Z</time>
      </trkpt>
      <trkpt lat="47.53994" lon="6.67674">
        <ele>379.5</ele>
        <time>2014-10-26T09:19:05.000Z</time>
      </trkpt>
      <trkpt lat="47.53997" lon="6.67671">
        <ele>379.7</ele>
        <time>2014-10-26T09:19:06.000Z</time>
      </trkpt>
      <trkpt lat="47.54001" lon="6.67668">
        <ele>379.7</ele>
        <time>2014-10-26T09:19:07.000Z</time>
      </trkpt>
      <trkpt lat="47.54004" lon="6.67665">
        <ele>379.8</ele>
        <time>2014-10-26T09:19:08.000Z</time>
      </trkpt>
      <trkpt lat="47.54008" lon="6.67661">
        <ele>380</ele>
        <time>2014-10-26T09:19:09.000Z</time>
      </trkpt>
      <trkpt lat="47.54011" lon="6.67657">
        <ele>380.1</ele>
        <time>2014-10-26T09:19:10.000Z</time>
      </trkpt>
      <trkpt lat="47.54014" lon="6.67653">
        <ele>380.4</ele>
        <time>2014-10-26T09:19:11.000Z</time>
      </trkpt>
      <trkpt lat="47.54017" lon="6.67649">
        <ele>380.6</ele>
        <time>2014-10-26T09:19:12.000Z</time>
      </trkpt>
      <trkpt lat="47.5402" lon="6.67644">
        <ele>380.7</ele>
        <time>2014-10-26T09:19:13.000Z</time>
      </trkpt>
      <trkpt lat="47.54023" lon="6.6764">
        <ele>381</ele>
        <time>2014-10-26T09:19:14.000Z</time>
      </trkpt>
      <trkpt lat="47.54026" lon="6.67635">
        <ele>380.6</ele>
        <time>2014-10-26T09:19:15.000Z</time>
      </trkpt>
      <trkpt lat="47.54029" lon="6.67631">
        <ele>380.8</ele>
        <time>2014-10-26T09:19:16.000Z</time>
      </trkpt>
      <trkpt lat="47.54031" lon="6.67626">
        <ele>380.3</ele>
        <time>2014-10-26T09:19:17.000Z</time>
      </trkpt>
      <trkpt lat="47.54034" lon="6.67622">
        <ele>380</ele>
        <time>2014-10-26T09:19:18.000Z</time>
      </trkpt>
      <trkpt lat="47.54037" lon="6.67618">
        <ele>380</ele>
        <time>2014-10-26T09:19:19.000Z</time>
      </trkpt>
      <trkpt lat="47.54041" lon="6.67615">
        <ele>379.2</ele>
        <time>2014-10-26T09:19:20.000Z</time>
      </trkpt>
      <trkpt lat="47.54045" lon="6.67612">
        <ele>379.5</ele>
        <time>2014-10-26T09:19:21.000Z</time>
      </trkpt>
      <trkpt lat="47.54049" lon="6.67609">
        <ele>379.4</ele>
        <time>2014-10-26T09:19:22.000Z</time>
      </trkpt>
      <trkpt lat="47.54053" lon="6.67607">
        <ele>379.5</ele>
        <time>2014-10-26T09:19:23.000Z</time>
      </trkpt>
      <trkpt lat="47.54057" lon="6.67604">
        <ele>379.5</ele>
        <time>2014-10-26T09:19:24.000Z</time>
      </trkpt>
      <trkpt lat="47.54061" lon="6.67602">
        <ele>379.3</ele>
        <time>2014-10-26T09:19:25.000Z</time>
      </trkpt>
      <trkpt lat="47.54065" lon="6.676">
        <ele>379.8</ele>
        <time>2014-10-26T09:19:26.000Z</time>
      </trkpt>
      <trkpt lat="47.5407" lon="6.67599">
        <ele>379.8</ele>
        <time>2014-10-26T09:19:27.000Z</time>
      </trkpt>
      <trkpt lat="47.54074" lon="6.67599">
        <ele>379.9</ele>
        <time>2014-10-26T09:19:28.000Z</time>
      </trkpt>
      <trkpt lat="47.54079" lon="6.67598">
        <ele>380.5</ele>
        <time>2014-10-26T09:19:29.000Z</time>
      </trkpt>
      <trkpt lat="47.54083" lon="6.67597">
        <ele>381</ele>
        <time>2014-10-26T09:19:30.000Z</time>
      </trkpt>
      <trkpt lat="47.54087" lon="6.67597">
        <ele>381.3</ele>
        <time>2014-10-26T09:19:31.000Z</time>
      </trkpt>
      <trkpt lat="47.54091" lon="6.67596">
        <ele>381.2</ele>
        <time>2014-10-26T09:19:32.000Z</time>
      </trkpt>
      <trkpt lat="47.54095" lon="6.67596">
        <ele>381.4</ele>
        <time>2014-10-26T09:19:33.000Z</time>
      </trkpt>
      <trkpt lat="47.54109" lon="6.67592">
        <ele>384.6</ele>
        <time>2014-10-26T09:19:41.000Z</time>
      </trkpt>
      <trkpt lat="47.54113" lon="6.67589">
        <ele>385.4</ele>
        <time>2014-10-26T09:19:43.000Z</time>
      </trkpt>
      <trkpt lat="47.54116" lon="6.67588">
        <ele>385.6</ele>
        <time>2014-10-26T09:19:44.000Z</time>
      </trkpt>
      <trkpt lat="47.5412" lon="6.67587">
        <ele>386.3</ele>
        <time>2014-10-26T09:19:45.000Z</time>
      </trkpt>
      <trkpt lat="47.54124" lon="6.67586">
        <ele>386.5</ele>
        <time>2014-10-26T09:19:46.000Z</time>
      </trkpt>
      <trkpt lat="47.54127" lon="6.67584">
        <ele>386.8</ele>
        <time>2014-10-26T09:19:47.000Z</time>
      </trkpt>
      <trkpt lat="47.54131" lon="6.67583">
        <ele>386.7</ele>
        <time>2014-10-26T09:19:48.000Z</time>
      </trkpt>
      <trkpt lat="47.54135" lon="6.67581">
        <ele>387.7</ele>
        <time>2014-10-26T09:19:49.000Z</time>
      </trkpt>
      <trkpt lat="47.54139" lon="6.67578">
        <ele>389</ele>
        <time>2014-10-26T09:19:50.000Z</time>
      </trkpt>
      <trkpt lat="47.54144" lon="6.67576">
        <ele>388.9</ele>
        <time>2014-10-26T09:19:51.000Z</time>
      </trkpt>
      <trkpt lat="47.54148" lon="6.67574">
        <ele>389.2</ele>
        <time>2014-10-26T09:19:52.000Z</time>
      </trkpt>
      <trkpt lat="47.54152" lon="6.67572">
        <ele>389.6</ele>
        <time>2014-10-26T09:19:53.000Z</time>
      </trkpt>
      <trkpt lat="47.54156" lon="6.67571">
        <ele>389.9</ele>
        <time>2014-10-26T09:19:54.000Z</time>
      </trkpt>
      <trkpt lat="47.5416" lon="6.67569">
        <ele>390.3</ele>
        <time>2014-10-26T09:19:55.000Z</time>
      </trkpt>
      <trkpt lat="47.54163" lon="6.67568">
        <ele>390.9</ele>
        <time>2014-10-26T09:19:56.000Z</time>
      </trkpt>
      <trkpt lat="47.54166" lon="6.67567">
        <ele>391.2</ele>
        <time>2014-10-26T09:19:57.000Z</time>
      </trkpt>
      <trkpt lat="47.54168" lon="6.67566">
        <ele>391.5</ele>
        <time>2014-10-26T09:19:58.000Z</time>
      </trkpt>
      <trkpt lat="47.54171" lon="6.67563">
        <ele>392</ele>
        <time>2014-10-26T09:20:00.000Z</time>
      </trkpt>
      <trkpt lat="47.54173" lon="6.67562">
        <ele>391.9</ele>
        <time>2014-10-26T09:20:01.000Z</time>
      </trkpt>
      <trkpt lat="47.54176" lon="6.67561">
        <ele>392.8</ele>
        <time>2014-10-26T09:20:02.000Z</time>
      </trkpt>
      <trkpt lat="47.54179" lon="6.67559">
        <ele>394.8</ele>
        <time>2014-10-26T09:20:03.000Z</time>
      </trkpt>
      <trkpt lat="47.54183" lon="6.67558">
        <ele>395.6</ele>
        <time>2014-10-26T09:20:04.000Z</time>
      </trkpt>
      <trkpt lat="47.54188" lon="6.67558">
        <ele>395.2</ele>
        <time>2014-10-26T09:20:05.000Z</time>
      </trkpt>
      <trkpt lat="47.54194" lon="6.67558">
        <ele>396.3</ele>
        <time>2014-10-26T09:20:06.000Z</time>
      </trkpt>
      <trkpt lat="47.54207" lon="6.67559">
        <ele>398.7</ele>
        <time>2014-10-26T09:20:07.000Z</time>
      </trkpt>
      <trkpt lat="47.54211" lon="6.67558">
        <ele>400.7</ele>
        <time>2014-10-26T09:20:08.000Z</time>
      </trkpt>
      <trkpt lat="47.54216" lon="6.67557">
        <ele>401.5</ele>
        <time>2014-10-26T09:20:09.000Z</time>
      </trkpt>
      <trkpt lat="47.54222" lon="6.67559">
        <ele>400.1</ele>
        <time>2014-10-26T09:20:10.000Z</time>
      </trkpt>
      <trkpt lat="47.54227" lon="6.6756">
        <ele>399.3</ele>
        <time>2014-10-26T09:20:11.000Z</time>
      </trkpt>
      <trkpt lat="47.54231" lon="6.67558">
        <ele>401.2</ele>
        <time>2014-10-26T09:20:12.000Z</time>
      </trkpt>
      <trkpt lat="47.54235" lon="6.67559">
        <ele>401.2</ele>
        <time>2014-10-26T09:20:13.000Z</time>
      </trkpt>
      <trkpt lat="47.54238" lon="6.67559">
        <ele>401.2</ele>
        <time>2014-10-26T09:20:14.000Z</time>
      </trkpt>
      <trkpt lat="47.54242" lon="6.67561">
        <ele>400.9</ele>
        <time>2014-10-26T09:20:15.000Z</time>
      </trkpt>
      <trkpt lat="47.54245" lon="6.67562">
        <ele>401.2</ele>
        <time>2014-10-26T09:20:16.000Z</time>
      </trkpt>
      <trkpt lat="47.54249" lon="6.67563">
        <ele>400.9</ele>
        <time>2014-10-26T09:20:17.000Z</time>
      </trkpt>
      <trkpt lat="47.54253" lon="6.67564">
        <ele>402.6</ele>
        <time>2014-10-26T09:20:18.000Z</time>
      </trkpt>
      <trkpt lat="47.54258" lon="6.67566">
        <ele>404</ele>
        <time>2014-10-26T09:20:19.000Z</time>
      </trkpt>
      <trkpt lat="47.54263" lon="6.67566">
        <ele>404.5</ele>
        <time>2014-10-26T09:20:20.000Z</time>
      </trkpt>
      <trkpt lat="47.54273" lon="6.67568">
        <ele>409.3</ele>
        <time>2014-10-26T09:20:21.000Z</time>
      </trkpt>
      <trkpt lat="47.54281" lon="6.67567">
        <ele>407.6</ele>
        <time>2014-10-26T09:20:22.000Z</time>
      </trkpt>
      <trkpt lat="47.54287" lon="6.67567">
        <ele>407.2</ele>
        <time>2014-10-26T09:20:23.000Z</time>
      </trkpt>
      <trkpt lat="47.54292" lon="6.67565">
        <ele>406.5</ele>
        <time>2014-10-26T09:20:24.000Z</time>
      </trkpt>
      <trkpt lat="47.54298" lon="6.67564">
        <ele>406.4</ele>
        <time>2014-10-26T09:20:25.000Z</time>
      </trkpt>
      <trkpt lat="47.54302" lon="6.67565">
        <ele>406.3</ele>
        <time>2014-10-26T09:20:26.000Z</time>
      </trkpt>
      <trkpt lat="47.54305" lon="6.67564">
        <ele>406.1</ele>
        <time>2014-10-26T09:20:27.000Z</time>
      </trkpt>
      <trkpt lat="47.54308" lon="6.67564">
        <ele>406.8</ele>
        <time>2014-10-26T09:20:28.000Z</time>
      </trkpt>
      <trkpt lat="47.54311" lon="6.67564">
        <ele>407</ele>
        <time>2014-10-26T09:20:29.000Z</time>
      </trkpt>
      <trkpt lat="47.54316" lon="6.67563">
        <ele>408.3</ele>
        <time>2014-10-26T09:20:30.000Z</time>
      </trkpt>
      <trkpt lat="47.54322" lon="6.6756">
        <ele>406.3</ele>
        <time>2014-10-26T09:20:31.000Z</time>
      </trkpt>
      <trkpt lat="47.54327" lon="6.67558">
        <ele>406.3</ele>
        <time>2014-10-26T09:20:32.000Z</time>
      </trkpt>
      <trkpt lat="47.5436" lon="6.67546">
        <ele>416</ele>
        <time>2014-10-26T09:20:41.000Z</time>
      </trkpt>
      <trkpt lat="47.54364" lon="6.67544">
        <ele>414.8</ele>
        <time>2014-10-26T09:20:42.000Z</time>
      </trkpt>
      <trkpt lat="47.54368" lon="6.67541">
        <ele>414.6</ele>
        <time>2014-10-26T09:20:43.000Z</time>
      </trkpt>
      <trkpt lat="47.54373" lon="6.67539">
        <ele>414.7</ele>
        <time>2014-10-26T09:20:44.000Z</time>
      </trkpt>
      <trkpt lat="47.5438" lon="6.67535">
        <ele>413.5</ele>
        <time>2014-10-26T09:20:45.000Z</time>
      </trkpt>
      <trkpt lat="47.54383" lon="6.67533">
        <ele>413.1</ele>
        <time>2014-10-26T09:20:46.000Z</time>
      </trkpt>
      <trkpt lat="47.54386" lon="6.67532">
        <ele>412.5</ele>
        <time>2014-10-26T09:20:47.000Z</time>
      </trkpt>
      <trkpt lat="47.5439" lon="6.67529">
        <ele>412.5</ele>
        <time>2014-10-26T09:20:48.000Z</time>
      </trkpt>
      <trkpt lat="47.54393" lon="6.67527">
        <ele>412.4</ele>
        <time>2014-10-26T09:20:49.000Z</time>
      </trkpt>
      <trkpt lat="47.54396" lon="6.67526">
        <ele>411.9</ele>
        <time>2014-10-26T09:20:50.000Z</time>
      </trkpt>
      <trkpt lat="47.54399" lon="6.67523">
        <ele>411.4</ele>
        <time>2014-10-26T09:20:51.000Z</time>
      </trkpt>
      <trkpt lat="47.54401" lon="6.6752">
        <ele>411.2</ele>
        <time>2014-10-26T09:20:52.000Z</time>
      </trkpt>
      <trkpt lat="47.54404" lon="6.67519">
        <ele>411.3</ele>
        <time>2014-10-26T09:20:53.000Z</time>
      </trkpt>
      <trkpt lat="47.54407" lon="6.67517">
        <ele>411.1</ele>
        <time>2014-10-26T09:20:54.000Z</time>
      </trkpt>
      <trkpt lat="47.54409" lon="6.67515">
        <ele>411.1</ele>
        <time>2014-10-26T09:20:55.000Z</time>
      </trkpt>
      <trkpt lat="47.54412" lon="6.67514">
        <ele>410.6</ele>
        <time>2014-10-26T09:20:56.000Z</time>
      </trkpt>
      <trkpt lat="47.54415" lon="6.67513">
        <ele>410.2</ele>
        <time>2014-10-26T09:20:57.000Z</time>
      </trkpt>
      <trkpt lat="47.54419" lon="6.67512">
        <ele>409.8</ele>
        <time>2014-10-26T09:20:58.000Z</time>
      </trkpt>
      <trkpt lat="47.54422" lon="6.67511">
        <ele>409.6</ele>
        <time>2014-10-26T09:20:59.000Z</time>
      </trkpt>
      <trkpt lat="47.54425" lon="6.6751">
        <ele>409.1</ele>
        <time>2014-10-26T09:21:00.000Z</time>
      </trkpt>
      <trkpt lat="47.54429" lon="6.67509">
        <ele>408.1</ele>
        <time>2014-10-26T09:21:01.000Z</time>
      </trkpt>
      <trkpt lat="47.54433" lon="6.67508">
        <ele>406.8</ele>
        <time>2014-10-26T09:21:02.000Z</time>
      </trkpt>
      <trkpt lat="47.54436" lon="6.67506">
        <ele>406.4</ele>
        <time>2014-10-26T09:21:03.000Z</time>
      </trkpt>
      <trkpt lat="47.54439" lon="6.67505">
        <ele>406.7</ele>
        <time>2014-10-26T09:21:04.000Z</time>
      </trkpt>
      <trkpt lat="47.54442" lon="6.67503">
        <ele>406.7</ele>
        <time>2014-10-26T09:21:05.000Z</time>
      </trkpt>
      <trkpt lat="47.54446" lon="6.67501">
        <ele>407.2</ele>
        <time>2014-10-26T09:21:06.000Z</time>
      </trkpt>
      <trkpt lat="47.54449" lon="6.675">
        <ele>407.7</ele>
        <time>2014-10-26T09:21:07.000Z</time>
      </trkpt>
      <trkpt lat="47.54454" lon="6.67499">
        <ele>405.3</ele>
        <time>2014-10-26T09:21:08.000Z</time>
      </trkpt>
      <trkpt lat="47.54459" lon="6.67498">
        <ele>404.2</ele>
        <time>2014-10-26T09:21:09.000Z</time>
      </trkpt>
      <trkpt lat="47.54464" lon="6.67498">
        <ele>405.5</ele>
        <time>2014-10-26T09:21:10.000Z</time>
      </trkpt>
      <trkpt lat="47.54469" lon="6.67498">
        <ele>404.5</ele>
        <time>2014-10-26T09:21:11.000Z</time>
      </trkpt>
      <trkpt lat="47.54474" lon="6.67497">
        <ele>401.9</ele>
        <time>2014-10-26T09:21:12.000Z</time>
      </trkpt>
      <trkpt lat="47.54478" lon="6.67496">
        <ele>402.8</ele>
        <time>2014-10-26T09:21:13.000Z</time>
      </trkpt>
      <trkpt lat="47.54482" lon="6.67495">
        <ele>402.6</ele>
        <time>2014-10-26T09:21:14.000Z</time>
      </trkpt>
      <trkpt lat="47.54486" lon="6.67494">
        <ele>403.1</ele>
        <time>2014-10-26T09:21:15.000Z</time>
      </trkpt>
      <trkpt lat="47.5449" lon="6.67493">
        <ele>403.7</ele>
        <time>2014-10-26T09:21:16.000Z</time>
      </trkpt>
      <trkpt lat="47.54493" lon="6.67493">
        <ele>404.1</ele>
        <time>2014-10-26T09:21:17.000Z</time>
      </trkpt>
      <trkpt lat="47.54496" lon="6.67492">
        <ele>405.9</ele>
        <time>2014-10-26T09:21:18.000Z</time>
      </trkpt>
      <trkpt lat="47.54499" lon="6.67491">
        <ele>405.2</ele>
        <time>2014-10-26T09:21:19.000Z</time>
      </trkpt>
      <trkpt lat="47.54502" lon="6.67489">
        <ele>408</ele>
        <time>2014-10-26T09:21:20.000Z</time>
      </trkpt>
      <trkpt lat="47.54505" lon="6.67487">
        <ele>408.9</ele>
        <time>2014-10-26T09:21:21.000Z</time>
      </trkpt>
      <trkpt lat="47.54508" lon="6.67484">
        <ele>409.2</ele>
        <time>2014-10-26T09:21:22.000Z</time>
      </trkpt>
      <trkpt lat="47.54512" lon="6.67483">
        <ele>410.3</ele>
        <time>2014-10-26T09:21:23.000Z</time>
      </trkpt>
      <trkpt lat="47.54517" lon="6.67482">
        <ele>410.4</ele>
        <time>2014-10-26T09:21:24.000Z</time>
      </trkpt>
      <trkpt lat="47.54522" lon="6.67482">
        <ele>410.3</ele>
        <time>2014-10-26T09:21:25.000Z</time>
      </trkpt>
      <trkpt lat="47.54526" lon="6.67482">
        <ele>409</ele>
        <time>2014-10-26T09:21:26.000Z</time>
      </trkpt>
      <trkpt lat="47.54531" lon="6.67482">
        <ele>408</ele>
        <time>2014-10-26T09:21:27.000Z</time>
      </trkpt>
      <trkpt lat="47.54536" lon="6.67483">
        <ele>407.2</ele>
        <time>2014-10-26T09:21:28.000Z</time>
      </trkpt>
      <trkpt lat="47.5454" lon="6.67483">
        <ele>407.6</ele>
        <time>2014-10-26T09:21:29.000Z</time>
      </trkpt>
      <trkpt lat="47.54544" lon="6.67484">
        <ele>407.7</ele>
        <time>2014-10-26T09:21:30.000Z</time>
      </trkpt>
      <trkpt lat="47.54548" lon="6.67484">
        <ele>407.8</ele>
        <time>2014-10-26T09:21:31.000Z</time>
      </trkpt>
      <trkpt lat="47.54552" lon="6.67484">
        <ele>407.9</ele>
        <time>2014-10-26T09:21:32.000Z</time>
      </trkpt>
      <trkpt lat="47.54555" lon="6.67483">
        <ele>409</ele>
        <time>2014-10-26T09:21:33.000Z</time>
      </trkpt>
      <trkpt lat="47.54587" lon="6.67483">
        <ele>408.6</ele>
        <time>2014-10-26T09:21:41.000Z</time>
      </trkpt>
      <trkpt lat="47.54591" lon="6.67485">
        <ele>407.5</ele>
        <time>2014-10-26T09:21:42.000Z</time>
      </trkpt>
      <trkpt lat="47.54594" lon="6.67487">
        <ele>407.1</ele>
        <time>2014-10-26T09:21:43.000Z</time>
      </trkpt>
      <trkpt lat="47.54598" lon="6.67489">
        <ele>408.2</ele>
        <time>2014-10-26T09:21:44.000Z</time>
      </trkpt>
      <trkpt lat="47.54601" lon="6.67491">
        <ele>408.3</ele>
        <time>2014-10-26T09:21:45.000Z</time>
      </trkpt>
      <trkpt lat="47.54603" lon="6.67492">
        <ele>408.9</ele>
        <time>2014-10-26T09:21:46.000Z</time>
      </trkpt>
      <trkpt lat="47.54605" lon="6.67493">
        <ele>409.3</ele>
        <time>2014-10-26T09:21:47.000Z</time>
      </trkpt>
      <trkpt lat="47.54609" lon="6.67493">
        <ele>409.3</ele>
        <time>2014-10-26T09:21:49.000Z</time>
      </trkpt>
      <trkpt lat="47.5461" lon="6.67493">
        <ele>409.3</ele>
        <time>2014-10-26T09:21:50.000Z</time>
      </trkpt>
      <trkpt lat="47.54614" lon="6.67493">
        <ele>411.1</ele>
        <time>2014-10-26T09:21:53.000Z</time>
      </trkpt>
      <trkpt lat="47.54616" lon="6.67494">
        <ele>411.7</ele>
        <time>2014-10-26T09:21:54.000Z</time>
      </trkpt>
      <trkpt lat="47.5462" lon="6.67496">
        <ele>412.2</ele>
        <time>2014-10-26T09:21:56.000Z</time>
      </trkpt>
      <trkpt lat="47.54622" lon="6.67497">
        <ele>412.5</ele>
        <time>2014-10-26T09:21:57.000Z</time>
      </trkpt>
      <trkpt lat="47.54624" lon="6.67498">
        <ele>412</ele>
        <time>2014-10-26T09:21:58.000Z</time>
      </trkpt>
      <trkpt lat="47.54627" lon="6.67499">
        <ele>412.1</ele>
        <time>2014-10-26T09:21:59.000Z</time>
      </trkpt>
      <trkpt lat="47.54629" lon="6.67501">
        <ele>411.6</ele>
        <time>2014-10-26T09:22:00.000Z</time>
      </trkpt>
      <trkpt lat="47.54631" lon="6.67502">
        <ele>411.4</ele>
        <time>2014-10-26T09:22:01.000Z</time>
      </trkpt>
      <trkpt lat="47.54634" lon="6.67503">
        <ele>412.2</ele>
        <time>2014-10-26T09:22:02.000Z</time>
      </trkpt>
      <trkpt lat="47.54636" lon="6.67503">
        <ele>412.9</ele>
        <time>2014-10-26T09:22:03.000Z</time>
      </trkpt>
      <trkpt lat="47.54638" lon="6.67504">
        <ele>414</ele>
        <time>2014-10-26T09:22:04.000Z</time>
      </trkpt>
      <trkpt lat="47.54641" lon="6.67504">
        <ele>414.7</ele>
        <time>2014-10-26T09:22:05.000Z</time>
      </trkpt>
      <trkpt lat="47.54643" lon="6.67505">
        <ele>415.2</ele>
        <time>2014-10-26T09:22:06.000Z</time>
      </trkpt>
      <trkpt lat="47.54646" lon="6.67505">
        <ele>414.2</ele>
        <time>2014-10-26T09:22:07.000Z</time>
      </trkpt>
      <trkpt lat="47.54649" lon="6.67505">
        <ele>415.8</ele>
        <time>2014-10-26T09:22:08.000Z</time>
      </trkpt>
      <trkpt lat="47.54653" lon="6.67504">
        <ele>415.7</ele>
        <time>2014-10-26T09:22:09.000Z</time>
      </trkpt>
      <trkpt lat="47.54656" lon="6.67504">
        <ele>416.5</ele>
        <time>2014-10-26T09:22:10.000Z</time>
      </trkpt>
      <trkpt lat="47.5466" lon="6.67503">
        <ele>417</ele>
        <time>2014-10-26T09:22:11.000Z</time>
      </trkpt>
      <trkpt lat="47.54663" lon="6.67504">
        <ele>416.9</ele>
        <time>2014-10-26T09:22:12.000Z</time>
      </trkpt>
      <trkpt lat="47.54667" lon="6.67505">
        <ele>416.4</ele>
        <time>2014-10-26T09:22:13.000Z</time>
      </trkpt>
      <trkpt lat="47.5467" lon="6.67506">
        <ele>415.9</ele>
        <time>2014-10-26T09:22:14.000Z</time>
      </trkpt>
      <trkpt lat="47.54673" lon="6.67507">
        <ele>417</ele>
        <time>2014-10-26T09:22:15.000Z</time>
      </trkpt>
      <trkpt lat="47.54676" lon="6.67507">
        <ele>417.4</ele>
        <time>2014-10-26T09:22:16.000Z</time>
      </trkpt>
      <trkpt lat="47.54679" lon="6.67507">
        <ele>418.4</ele>
        <time>2014-10-26T09:22:17.000Z</time>
      </trkpt>
      <trkpt lat="47.54682" lon="6.67506">
        <ele>418.9</ele>
        <time>2014-10-26T09:22:18.000Z</time>
      </trkpt>
      <trkpt lat="47.54686" lon="6.67506">
        <ele>418.1</ele>
        <time>2014-10-26T09:22:19.000Z</time>
      </trkpt>
      <trkpt lat="47.5469" lon="6.67508">
        <ele>415.2</ele>
        <time>2014-10-26T09:22:20.000Z</time>
      </trkpt>
      <trkpt lat="47.54694" lon="6.6751">
        <ele>415.2</ele>
        <time>2014-10-26T09:22:21.000Z</time>
      </trkpt>
      <trkpt lat="47.54698" lon="6.67512">
        <ele>414.8</ele>
        <time>2014-10-26T09:22:22.000Z</time>
      </trkpt>
      <trkpt lat="47.54703" lon="6.67514">
        <ele>415.1</ele>
        <time>2014-10-26T09:22:23.000Z</time>
      </trkpt>
      <trkpt lat="47.54707" lon="6.67515">
        <ele>415.8</ele>
        <time>2014-10-26T09:22:24.000Z</time>
      </trkpt>
      <trkpt lat="47.54711" lon="6.67516">
        <ele>415.4</ele>
        <time>2014-10-26T09:22:25.000Z</time>
      </trkpt>
      <trkpt lat="47.54714" lon="6.67518">
        <ele>415.6</ele>
        <time>2014-10-26T09:22:26.000Z</time>
      </trkpt>
      <trkpt lat="47.54717" lon="6.67519">
        <ele>415.7</ele>
        <time>2014-10-26T09:22:27.000Z</time>
      </trkpt>
      <trkpt lat="47.54719" lon="6.6752">
        <ele>415.4</ele>
        <time>2014-10-26T09:22:28.000Z</time>
      </trkpt>
      <trkpt lat="47.54721" lon="6.67521">
        <ele>415.3</ele>
        <time>2014-10-26T09:22:29.000Z</time>
      </trkpt>
      <trkpt lat="47.54725" lon="6.67521">
        <ele>416.2</ele>
        <time>2014-10-26T09:22:31.000Z</time>
      </trkpt>
      <trkpt lat="47.54726" lon="6.67521">
        <ele>416.4</ele>
        <time>2014-10-26T09:22:32.000Z</time>
      </trkpt>
      <trkpt lat="47.54728" lon="6.67521">
        <ele>416.8</ele>
        <time>2014-10-26T09:22:33.000Z</time>
      </trkpt>
      <trkpt lat="47.54744" lon="6.67514">
        <ele>410.5</ele>
        <time>2014-10-26T09:22:41.000Z</time>
      </trkpt>
      <trkpt lat="47.54746" lon="6.67513">
        <ele>410.9</ele>
        <time>2014-10-26T09:22:42.000Z</time>
      </trkpt>
      <trkpt lat="47.54749" lon="6.67513">
        <ele>412.7</ele>
        <time>2014-10-26T09:22:43.000Z</time>
      </trkpt>
      <trkpt lat="47.54752" lon="6.67513">
        <ele>413.2</ele>
        <time>2014-10-26T09:22:44.000Z</time>
      </trkpt>
      <trkpt lat="47.54755" lon="6.67514">
        <ele>413</ele>
        <time>2014-10-26T09:22:45.000Z</time>
      </trkpt>
      <trkpt lat="47.54758" lon="6.67514">
        <ele>413.6</ele>
        <time>2014-10-26T09:22:46.000Z</time>
      </trkpt>
      <trkpt lat="47.54761" lon="6.67515">
        <ele>414</ele>
        <time>2014-10-26T09:22:47.000Z</time>
      </trkpt>
      <trkpt lat="47.54764" lon="6.67515">
        <ele>414</ele>
        <time>2014-10-26T09:22:48.000Z</time>
      </trkpt>
      <trkpt lat="47.54766" lon="6.67516">
        <ele>414.8</ele>
        <time>2014-10-26T09:22:49.000Z</time>
      </trkpt>
      <trkpt lat="47.54769" lon="6.67517">
        <ele>418.3</ele>
        <time>2014-10-26T09:22:50.000Z</time>
      </trkpt>
      <trkpt lat="47.54771" lon="6.67517">
        <ele>420.4</ele>
        <time>2014-10-26T09:22:51.000Z</time>
      </trkpt>
      <trkpt lat="47.54774" lon="6.67517">
        <ele>421.6</ele>
        <time>2014-10-26T09:22:52.000Z</time>
      </trkpt>
      <trkpt lat="47.54776" lon="6.67517">
        <ele>422.7</ele>
        <time>2014-10-26T09:22:53.000Z</time>
      </trkpt>
      <trkpt lat="47.5478" lon="6.67519">
        <ele>424.7</ele>
        <time>2014-10-26T09:22:55.000Z</time>
      </trkpt>
      <trkpt lat="47.54782" lon="6.6752">
        <ele>425.1</ele>
        <time>2014-10-26T09:22:56.000Z</time>
      </trkpt>
      <trkpt lat="47.54784" lon="6.6752">
        <ele>425.4</ele>
        <time>2014-10-26T09:22:57.000Z</time>
      </trkpt>
      <trkpt lat="47.54787" lon="6.67521">
        <ele>425.4</ele>
        <time>2014-10-26T09:22:58.000Z</time>
      </trkpt>
      <trkpt lat="47.54789" lon="6.67522">
        <ele>424.8</ele>
        <time>2014-10-26T09:22:59.000Z</time>
      </trkpt>
      <trkpt lat="47.54791" lon="6.67523">
        <ele>430.7</ele>
        <time>2014-10-26T09:23:00.000Z</time>
      </trkpt>
      <trkpt lat="47.54794" lon="6.67524">
        <ele>432.4</ele>
        <time>2014-10-26T09:23:01.000Z</time>
      </trkpt>
      <trkpt lat="47.54797" lon="6.67524">
        <ele>431.2</ele>
        <time>2014-10-26T09:23:02.000Z</time>
      </trkpt>
      <trkpt lat="47.548" lon="6.67525">
        <ele>431.7</ele>
        <time>2014-10-26T09:23:03.000Z</time>
      </trkpt>
      <trkpt lat="47.54803" lon="6.67526">
        <ele>432.9</ele>
        <time>2014-10-26T09:23:04.000Z</time>
      </trkpt>
      <trkpt lat="47.54805" lon="6.67527">
        <ele>433.3</ele>
        <time>2014-10-26T09:23:05.000Z</time>
      </trkpt>
      <trkpt lat="47.54808" lon="6.67528">
        <ele>433</ele>
        <time>2014-10-26T09:23:06.000Z</time>
      </trkpt>
      <trkpt lat="47.54812" lon="6.67529">
        <ele>432</ele>
        <time>2014-10-26T09:23:08.000Z</time>
      </trkpt>
      <trkpt lat="47.54814" lon="6.6753">
        <ele>431.3</ele>
        <time>2014-10-26T09:23:09.000Z</time>
      </trkpt>
      <trkpt lat="47.54817" lon="6.6753">
        <ele>431.7</ele>
        <time>2014-10-26T09:23:10.000Z</time>
      </trkpt>
      <trkpt lat="47.5482" lon="6.67531">
        <ele>431.1</ele>
        <time>2014-10-26T09:23:11.000Z</time>
      </trkpt>
      <trkpt lat="47.54822" lon="6.67532">
        <ele>431.7</ele>
        <time>2014-10-26T09:23:12.000Z</time>
      </trkpt>
      <trkpt lat="47.54824" lon="6.67533">
        <ele>432.7</ele>
        <time>2014-10-26T09:23:13.000Z</time>
      </trkpt>
      <trkpt lat="47.54828" lon="6.67534">
        <ele>435.4</ele>
        <time>2014-10-26T09:23:15.000Z</time>
      </trkpt>
      <trkpt lat="47.54831" lon="6.67534">
        <ele>434.5</ele>
        <time>2014-10-26T09:23:16.000Z</time>
      </trkpt>
      <trkpt lat="47.54834" lon="6.67535">
        <ele>435.1</ele>
        <time>2014-10-26T09:23:17.000Z</time>
      </trkpt>
      <trkpt lat="47.54836" lon="6.67536">
        <ele>435.1</ele>
        <time>2014-10-26T09:23:18.000Z</time>
      </trkpt>
      <trkpt lat="47.54839" lon="6.67537">
        <ele>436.3</ele>
        <time>2014-10-26T09:23:19.000Z</time>
      </trkpt>
      <trkpt lat="47.54842" lon="6.67538">
        <ele>436.8</ele>
        <time>2014-10-26T09:23:20.000Z</time>
      </trkpt>
      <trkpt lat="47.54845" lon="6.67538">
        <ele>438</ele>
        <time>2014-10-26T09:23:21.000Z</time>
      </trkpt>
      <trkpt lat="47.54847" lon="6.67539">
        <ele>438.7</ele>
        <time>2014-10-26T09:23:22.000Z</time>
      </trkpt>
      <trkpt lat="47.54849" lon="6.67539">
        <ele>439.6</ele>
        <time>2014-10-26T09:23:23.000Z</time>
      </trkpt>
      <trkpt lat="47.54851" lon="6.6754">
        <ele>439.8</ele>
        <time>2014-10-26T09:23:24.000Z</time>
      </trkpt>
      <trkpt lat="47.54854" lon="6.6754">
        <ele>440.3</ele>
        <time>2014-10-26T09:23:25.000Z</time>
      </trkpt>
      <trkpt lat="47.54856" lon="6.67541">
        <ele>440.4</ele>
        <time>2014-10-26T09:23:26.000Z</time>
      </trkpt>
      <trkpt lat="47.54861" lon="6.67541">
        <ele>439.7</ele>
        <time>2014-10-26T09:23:28.000Z</time>
      </trkpt>
      <trkpt lat="47.54863" lon="6.67541">
        <ele>441.7</ele>
        <time>2014-10-26T09:23:29.000Z</time>
      </trkpt>
      <trkpt lat="47.54865" lon="6.67541">
        <ele>441.1</ele>
        <time>2014-10-26T09:23:30.000Z</time>
      </trkpt>
      <trkpt lat="47.54867" lon="6.67541">
        <ele>440.4</ele>
        <time>2014-10-26T09:23:31.000Z</time>
      </trkpt>
      <trkpt lat="47.5487" lon="6.67541">
        <ele>440.7</ele>
        <time>2014-10-26T09:23:32.000Z</time>
      </trkpt>
      <trkpt lat="47.54872" lon="6.67541">
        <ele>441.5</ele>
        <time>2014-10-26T09:23:33.000Z</time>
      </trkpt>
      <trkpt lat="47.54879" lon="6.67541">
        <ele>437.6</ele>
        <time>2014-10-26T09:23:36.000Z</time>
      </trkpt>
      <trkpt lat="47.54882" lon="6.67541">
        <ele>437.7</ele>
        <time>2014-10-26T09:23:38.000Z</time>
      </trkpt>
      <trkpt lat="47.54884" lon="6.6754">
        <ele>437.8</ele>
        <time>2014-10-26T09:23:39.000Z</time>
      </trkpt>
      <trkpt lat="47.54888" lon="6.6754">
        <ele>438</ele>
        <time>2014-10-26T09:23:41.000Z</time>
      </trkpt>
      <trkpt lat="47.5489" lon="6.6754">
        <ele>435.1</ele>
        <time>2014-10-26T09:23:42.000Z</time>
      </trkpt>
      <trkpt lat="47.54892" lon="6.6754">
        <ele>436.1</ele>
        <time>2014-10-26T09:23:43.000Z</time>
      </trkpt>
      <trkpt lat="47.54895" lon="6.6754">
        <ele>435.7</ele>
        <time>2014-10-26T09:23:44.000Z</time>
      </trkpt>
      <trkpt lat="47.54897" lon="6.6754">
        <ele>435</ele>
        <time>2014-10-26T09:23:45.000Z</time>
      </trkpt>
      <trkpt lat="47.549" lon="6.67539">
        <ele>434.5</ele>
        <time>2014-10-26T09:23:46.000Z</time>
      </trkpt>
      <trkpt lat="47.54903" lon="6.67539">
        <ele>434.3</ele>
        <time>2014-10-26T09:23:47.000Z</time>
      </trkpt>
      <trkpt lat="47.54906" lon="6.67539">
        <ele>434.8</ele>
        <time>2014-10-26T09:23:48.000Z</time>
      </trkpt>
      <trkpt lat="47.54908" lon="6.67538">
        <ele>435</ele>
        <time>2014-10-26T09:23:49.000Z</time>
      </trkpt>
      <trkpt lat="47.54911" lon="6.67538">
        <ele>435.7</ele>
        <time>2014-10-26T09:23:50.000Z</time>
      </trkpt>
      <trkpt lat="47.54913" lon="6.67538">
        <ele>436</ele>
        <time>2014-10-26T09:23:51.000Z</time>
      </trkpt>
      <trkpt lat="47.54915" lon="6.67537">
        <ele>435.8</ele>
        <time>2014-10-26T09:23:52.000Z</time>
      </trkpt>
      <trkpt lat="47.54918" lon="6.67536">
        <ele>435.5</ele>
        <time>2014-10-26T09:23:53.000Z</time>
      </trkpt>
      <trkpt lat="47.5492" lon="6.67535">
        <ele>435.7</ele>
        <time>2014-10-26T09:23:54.000Z</time>
      </trkpt>
      <trkpt lat="47.54924" lon="6.67534">
        <ele>436.8</ele>
        <time>2014-10-26T09:23:56.000Z</time>
      </trkpt>
      <trkpt lat="47.54927" lon="6.67533">
        <ele>437.7</ele>
        <time>2014-10-26T09:23:57.000Z</time>
      </trkpt>
      <trkpt lat="47.54929" lon="6.67533">
        <ele>440.1</ele>
        <time>2014-10-26T09:23:58.000Z</time>
      </trkpt>
      <trkpt lat="47.54932" lon="6.67532">
        <ele>440.6</ele>
        <time>2014-10-26T09:23:59.000Z</time>
      </trkpt>
      <trkpt lat="47.54935" lon="6.67532">
        <ele>439.9</ele>
        <time>2014-10-26T09:24:00.000Z</time>
      </trkpt>
      <trkpt lat="47.54938" lon="6.67533">
        <ele>440</ele>
        <time>2014-10-26T09:24:01.000Z</time>
      </trkpt>
      <trkpt lat="47.5494" lon="6.67533">
        <ele>440.1</ele>
        <time>2014-10-26T09:24:02.000Z</time>
      </trkpt>
      <trkpt lat="47.54943" lon="6.67534">
        <ele>440.3</ele>
        <time>2014-10-26T09:24:03.000Z</time>
      </trkpt>
      <trkpt lat="47.54946" lon="6.67534">
        <ele>440.8</ele>
        <time>2014-10-26T09:24:04.000Z</time>
      </trkpt>
      <trkpt lat="47.54948" lon="6.67535">
        <ele>442.8</ele>
        <time>2014-10-26T09:24:05.000Z</time>
      </trkpt>
      <trkpt lat="47.54951" lon="6.67535">
        <ele>441.4</ele>
        <time>2014-10-26T09:24:06.000Z</time>
      </trkpt>
      <trkpt lat="47.54954" lon="6.67535">
        <ele>441.1</ele>
        <time>2014-10-26T09:24:07.000Z</time>
      </trkpt>
      <trkpt lat="47.54957" lon="6.67535">
        <ele>440.8</ele>
        <time>2014-10-26T09:24:08.000Z</time>
      </trkpt>
      <trkpt lat="47.5496" lon="6.67535">
        <ele>440.6</ele>
        <time>2014-10-26T09:24:09.000Z</time>
      </trkpt>
      <trkpt lat="47.54962" lon="6.67534">
        <ele>440.8</ele>
        <time>2014-10-26T09:24:10.000Z</time>
      </trkpt>
      <trkpt lat="47.54965" lon="6.67533">
        <ele>444</ele>
        <time>2014-10-26T09:24:11.000Z</time>
      </trkpt>
      <trkpt lat="47.54967" lon="6.67532">
        <ele>444.1</ele>
        <time>2014-10-26T09:24:12.000Z</time>
      </trkpt>
      <trkpt lat="47.54969" lon="6.67531">
        <ele>444.9</ele>
        <time>2014-10-26T09:24:13.000Z</time>
      </trkpt>
      <trkpt lat="47.54972" lon="6.6753">
        <ele>445.6</ele>
        <time>2014-10-26T09:24:14.000Z</time>
      </trkpt>
      <trkpt lat="47.54974" lon="6.6753">
        <ele>445.2</ele>
        <time>2014-10-26T09:24:15.000Z</time>
      </trkpt>
      <trkpt lat="47.54977" lon="6.6753">
        <ele>444.4</ele>
        <time>2014-10-26T09:24:16.000Z</time>
      </trkpt>
      <trkpt lat="47.54979" lon="6.67531">
        <ele>444.1</ele>
        <time>2014-10-26T09:24:17.000Z</time>
      </trkpt>
      <trkpt lat="47.54981" lon="6.67532">
        <ele>444.1</ele>
        <time>2014-10-26T09:24:18.000Z</time>
      </trkpt>
      <trkpt lat="47.54984" lon="6.67531">
        <ele>446.4</ele>
        <time>2014-10-26T09:24:19.000Z</time>
      </trkpt>
      <trkpt lat="47.54987" lon="6.67531">
        <ele>447</ele>
        <time>2014-10-26T09:24:20.000Z</time>
      </trkpt>
      <trkpt lat="47.5499" lon="6.6753">
        <ele>447.1</ele>
        <time>2014-10-26T09:24:21.000Z</time>
      </trkpt>
      <trkpt lat="47.54993" lon="6.6753">
        <ele>447.8</ele>
        <time>2014-10-26T09:24:22.000Z</time>
      </trkpt>
      <trkpt lat="47.54996" lon="6.6753">
        <ele>447.9</ele>
        <time>2014-10-26T09:24:23.000Z</time>
      </trkpt>
      <trkpt lat="47.54999" lon="6.6753">
        <ele>446.8</ele>
        <time>2014-10-26T09:24:24.000Z</time>
      </trkpt>
      <trkpt lat="47.55002" lon="6.67531">
        <ele>445.7</ele>
        <time>2014-10-26T09:24:25.000Z</time>
      </trkpt>
      <trkpt lat="47.55005" lon="6.67531">
        <ele>444.4</ele>
        <time>2014-10-26T09:24:26.000Z</time>
      </trkpt>
      <trkpt lat="47.55008" lon="6.67532">
        <ele>444.4</ele>
        <time>2014-10-26T09:24:27.000Z</time>
      </trkpt>
      <trkpt lat="47.55011" lon="6.67532">
        <ele>443.1</ele>
        <time>2014-10-26T09:24:28.000Z</time>
      </trkpt>
      <trkpt lat="47.55014" lon="6.67533">
        <ele>443</ele>
        <time>2014-10-26T09:24:29.000Z</time>
      </trkpt>
      <trkpt lat="47.55017" lon="6.67533">
        <ele>442.7</ele>
        <time>2014-10-26T09:24:30.000Z</time>
      </trkpt>
      <trkpt lat="47.55019" lon="6.67533">
        <ele>442.9</ele>
        <time>2014-10-26T09:24:31.000Z</time>
      </trkpt>
      <trkpt lat="47.55022" lon="6.67533">
        <ele>443.4</ele>
        <time>2014-10-26T09:24:33.000Z</time>
      </trkpt>
      <trkpt lat="47.55026" lon="6.67531">
        <ele>436.9</ele>
        <time>2014-10-26T09:24:36.000Z</time>
      </trkpt>
      <trkpt lat="47.55029" lon="6.67532">
        <ele>438.9</ele>
        <time>2014-10-26T09:24:37.000Z</time>
      </trkpt>
      <trkpt lat="47.55032" lon="6.67532">
        <ele>439.1</ele>
        <time>2014-10-26T09:24:38.000Z</time>
      </trkpt>
      <trkpt lat="47.55035" lon="6.67534">
        <ele>439</ele>
        <time>2014-10-26T09:24:39.000Z</time>
      </trkpt>
      <trkpt lat="47.55039" lon="6.67535">
        <ele>440.1</ele>
        <time>2014-10-26T09:24:40.000Z</time>
      </trkpt>
      <trkpt lat="47.55043" lon="6.67536">
        <ele>439.9</ele>
        <time>2014-10-26T09:24:41.000Z</time>
      </trkpt>
      <trkpt lat="47.55047" lon="6.67538">
        <ele>439.7</ele>
        <time>2014-10-26T09:24:42.000Z</time>
      </trkpt>
      <trkpt lat="47.55051" lon="6.67539">
        <ele>440</ele>
        <time>2014-10-26T09:24:43.000Z</time>
      </trkpt>
      <trkpt lat="47.55054" lon="6.6754">
        <ele>440.7</ele>
        <time>2014-10-26T09:24:44.000Z</time>
      </trkpt>
      <trkpt lat="47.55057" lon="6.6754">
        <ele>441.6</ele>
        <time>2014-10-26T09:24:45.000Z</time>
      </trkpt>
      <trkpt lat="47.5506" lon="6.6754">
        <ele>442</ele>
        <time>2014-10-26T09:24:46.000Z</time>
      </trkpt>
      <trkpt lat="47.55062" lon="6.67541">
        <ele>443.6</ele>
        <time>2014-10-26T09:24:47.000Z</time>
      </trkpt>
      <trkpt lat="47.55065" lon="6.67541">
        <ele>444.4</ele>
        <time>2014-10-26T09:24:48.000Z</time>
      </trkpt>
      <trkpt lat="47.55068" lon="6.67542">
        <ele>444.7</ele>
        <time>2014-10-26T09:24:50.000Z</time>
      </trkpt>
      <trkpt lat="47.55069" lon="6.67542">
        <ele>444.3</ele>
        <time>2014-10-26T09:24:51.000Z</time>
      </trkpt>
      <trkpt lat="47.55073" lon="6.67542">
        <ele>446.9</ele>
        <time>2014-10-26T09:24:53.000Z</time>
      </trkpt>
      <trkpt lat="47.55075" lon="6.67541">
        <ele>447.5</ele>
        <time>2014-10-26T09:24:54.000Z</time>
      </trkpt>
      <trkpt lat="47.55079" lon="6.67541">
        <ele>447.4</ele>
        <time>2014-10-26T09:24:56.000Z</time>
      </trkpt>
      <trkpt lat="47.55081" lon="6.67542">
        <ele>447.2</ele>
        <time>2014-10-26T09:24:57.000Z</time>
      </trkpt>
      <trkpt lat="47.55084" lon="6.67543">
        <ele>446.6</ele>
        <time>2014-10-26T09:24:58.000Z</time>
      </trkpt>
      <trkpt lat="47.55088" lon="6.67543">
        <ele>446.3</ele>
        <time>2014-10-26T09:24:59.000Z</time>
      </trkpt>
      <trkpt lat="47.55091" lon="6.67544">
        <ele>446.8</ele>
        <time>2014-10-26T09:25:00.000Z</time>
      </trkpt>
      <trkpt lat="47.55094" lon="6.67544">
        <ele>446.6</ele>
        <time>2014-10-26T09:25:01.000Z</time>
      </trkpt>
      <trkpt lat="47.55097" lon="6.67544">
        <ele>448</ele>
        <time>2014-10-26T09:25:02.000Z</time>
      </trkpt>
      <trkpt lat="47.551" lon="6.67545">
        <ele>449.1</ele>
        <time>2014-10-26T09:25:03.000Z</time>
      </trkpt>
      <trkpt lat="47.55102" lon="6.67545">
        <ele>449.6</ele>
        <time>2014-10-26T09:25:04.000Z</time>
      </trkpt>
      <trkpt lat="47.55105" lon="6.67545">
        <ele>450</ele>
        <time>2014-10-26T09:25:05.000Z</time>
      </trkpt>
      <trkpt lat="47.55107" lon="6.67546">
        <ele>451.2</ele>
        <time>2014-10-26T09:25:06.000Z</time>
      </trkpt>
      <trkpt lat="47.55109" lon="6.67546">
        <ele>451</ele>
        <time>2014-10-26T09:25:07.000Z</time>
      </trkpt>
      <trkpt lat="47.55112" lon="6.67547">
        <ele>450.5</ele>
        <time>2014-10-26T09:25:08.000Z</time>
      </trkpt>
      <trkpt lat="47.55115" lon="6.67547">
        <ele>450.5</ele>
        <time>2014-10-26T09:25:09.000Z</time>
      </trkpt>
      <trkpt lat="47.55118" lon="6.67548">
        <ele>450.3</ele>
        <time>2014-10-26T09:25:10.000Z</time>
      </trkpt>
      <trkpt lat="47.55121" lon="6.67548">
        <ele>450.6</ele>
        <time>2014-10-26T09:25:11.000Z</time>
      </trkpt>
      <trkpt lat="47.55124" lon="6.67549">
        <ele>450.6</ele>
        <time>2014-10-26T09:25:12.000Z</time>
      </trkpt>
      <trkpt lat="47.55127" lon="6.67549">
        <ele>451.2</ele>
        <time>2014-10-26T09:25:13.000Z</time>
      </trkpt>
      <trkpt lat="47.5513" lon="6.6755">
        <ele>450.8</ele>
        <time>2014-10-26T09:25:14.000Z</time>
      </trkpt>
      <trkpt lat="47.55133" lon="6.6755">
        <ele>451.1</ele>
        <time>2014-10-26T09:25:15.000Z</time>
      </trkpt>
      <trkpt lat="47.55136" lon="6.6755">
        <ele>451.7</ele>
        <time>2014-10-26T09:25:16.000Z</time>
      </trkpt>
      <trkpt lat="47.55139" lon="6.6755">
        <ele>451.4</ele>
        <time>2014-10-26T09:25:17.000Z</time>
      </trkpt>
      <trkpt lat="47.55142" lon="6.67551">
        <ele>450.8</ele>
        <time>2014-10-26T09:25:18.000Z</time>
      </trkpt>
      <trkpt lat="47.55144" lon="6.67551">
        <ele>451</ele>
        <time>2014-10-26T09:25:19.000Z</time>
      </trkpt>
      <trkpt lat="47.55147" lon="6.67552">
        <ele>450.4</ele>
        <time>2014-10-26T09:25:20.000Z</time>
      </trkpt>
      <trkpt lat="47.5515" lon="6.67552">
        <ele>450.8</ele>
        <time>2014-10-26T09:25:21.000Z</time>
      </trkpt>
      <trkpt lat="47.55152" lon="6.67553">
        <ele>450.9</ele>
        <time>2014-10-26T09:25:22.000Z</time>
      </trkpt>
      <trkpt lat="47.55155" lon="6.67554">
        <ele>450.9</ele>
        <time>2014-10-26T09:25:23.000Z</time>
      </trkpt>
      <trkpt lat="47.55159" lon="6.67555">
        <ele>450.8</ele>
        <time>2014-10-26T09:25:25.000Z</time>
      </trkpt>
      <trkpt lat="47.55161" lon="6.67555">
        <ele>451.5</ele>
        <time>2014-10-26T09:25:26.000Z</time>
      </trkpt>
      <trkpt lat="47.55164" lon="6.67555">
        <ele>453</ele>
        <time>2014-10-26T09:25:28.000Z</time>
      </trkpt>
      <trkpt lat="47.55166" lon="6.67555">
        <ele>453.2</ele>
        <time>2014-10-26T09:25:29.000Z</time>
      </trkpt>
      <trkpt lat="47.5517" lon="6.67556">
        <ele>454.3</ele>
        <time>2014-10-26T09:25:31.000Z</time>
      </trkpt>
      <trkpt lat="47.55172" lon="6.67556">
        <ele>454.9</ele>
        <time>2014-10-26T09:25:32.000Z</time>
      </trkpt>
      <trkpt lat="47.55174" lon="6.67556">
        <ele>455.4</ele>
        <time>2014-10-26T09:25:33.000Z</time>
      </trkpt>
      <trkpt lat="47.55178" lon="6.67555">
        <ele>452.1</ele>
        <time>2014-10-26T09:25:36.000Z</time>
      </trkpt>
      <trkpt lat="47.5518" lon="6.67556">
        <ele>452.1</ele>
        <time>2014-10-26T09:25:37.000Z</time>
      </trkpt>
      <trkpt lat="47.55183" lon="6.67557">
        <ele>451.9</ele>
        <time>2014-10-26T09:25:38.000Z</time>
      </trkpt>
      <trkpt lat="47.55186" lon="6.67559">
        <ele>452.2</ele>
        <time>2014-10-26T09:25:39.000Z</time>
      </trkpt>
      <trkpt lat="47.55188" lon="6.6756">
        <ele>452.4</ele>
        <time>2014-10-26T09:25:40.000Z</time>
      </trkpt>
      <trkpt lat="47.55191" lon="6.67561">
        <ele>452.3</ele>
        <time>2014-10-26T09:25:41.000Z</time>
      </trkpt>
      <trkpt lat="47.55193" lon="6.67562">
        <ele>452.2</ele>
        <time>2014-10-26T09:25:42.000Z</time>
      </trkpt>
      <trkpt lat="47.55196" lon="6.67562">
        <ele>452.6</ele>
        <time>2014-10-26T09:25:43.000Z</time>
      </trkpt>
      <trkpt lat="47.55199" lon="6.67562">
        <ele>453.4</ele>
        <time>2014-10-26T09:25:44.000Z</time>
      </trkpt>
      <trkpt lat="47.55201" lon="6.67562">
        <ele>453.9</ele>
        <time>2014-10-26T09:25:45.000Z</time>
      </trkpt>
      <trkpt lat="47.55204" lon="6.67561">
        <ele>454.7</ele>
        <time>2014-10-26T09:25:46.000Z</time>
      </trkpt>
      <trkpt lat="47.55206" lon="6.67561">
        <ele>454.8</ele>
        <time>2014-10-26T09:25:47.000Z</time>
      </trkpt>
      <trkpt lat="47.55208" lon="6.67561">
        <ele>455.3</ele>
        <time>2014-10-26T09:25:48.000Z</time>
      </trkpt>
      <trkpt lat="47.55212" lon="6.6756">
        <ele>456</ele>
        <time>2014-10-26T09:25:50.000Z</time>
      </trkpt>
      <trkpt lat="47.55213" lon="6.67559">
        <ele>455.9</ele>
        <time>2014-10-26T09:25:51.000Z</time>
      </trkpt>
      <trkpt lat="47.55217" lon="6.6756">
        <ele>455</ele>
        <time>2014-10-26T09:25:53.000Z</time>
      </trkpt>
      <trkpt lat="47.55219" lon="6.6756">
        <ele>455.1</ele>
        <time>2014-10-26T09:25:54.000Z</time>
      </trkpt>
      <trkpt lat="47.55223" lon="6.6756">
        <ele>454.7</ele>
        <time>2014-10-26T09:25:56.000Z</time>
      </trkpt>
      <trkpt lat="47.55225" lon="6.6756">
        <ele>454.8</ele>
        <time>2014-10-26T09:25:57.000Z</time>
      </trkpt>
      <trkpt lat="47.55227" lon="6.67561">
        <ele>455.2</ele>
        <time>2014-10-26T09:25:58.000Z</time>
      </trkpt>
      <trkpt lat="47.5523" lon="6.67561">
        <ele>454.1</ele>
        <time>2014-10-26T09:25:59.000Z</time>
      </trkpt>
      <trkpt lat="47.55234" lon="6.67562">
        <ele>454.6</ele>
        <time>2014-10-26T09:26:01.000Z</time>
      </trkpt>
      <trkpt lat="47.55236" lon="6.67563">
        <ele>455.7</ele>
        <time>2014-10-26T09:26:02.000Z</time>
      </trkpt>
      <trkpt lat="47.55239" lon="6.67564">
        <ele>454.9</ele>
        <time>2014-10-26T09:26:03.000Z</time>
      </trkpt>
      <trkpt lat="47.55241" lon="6.67565">
        <ele>454.4</ele>
        <time>2014-10-26T09:26:04.000Z</time>
      </trkpt>
      <trkpt lat="47.55244" lon="6.67565">
        <ele>454.9</ele>
        <time>2014-10-26T09:26:05.000Z</time>
      </trkpt>
      <trkpt lat="47.55247" lon="6.67566">
        <ele>455.2</ele>
        <time>2014-10-26T09:26:06.000Z</time>
      </trkpt>
      <trkpt lat="47.5525" lon="6.67566">
        <ele>456.4</ele>
        <time>2014-10-26T09:26:07.000Z</time>
      </trkpt>
      <trkpt lat="47.55252" lon="6.67567">
        <ele>455.5</ele>
        <time>2014-10-26T09:26:08.000Z</time>
      </trkpt>
      <trkpt lat="47.55255" lon="6.67567">
        <ele>456.5</ele>
        <time>2014-10-26T09:26:09.000Z</time>
      </trkpt>
      <trkpt lat="47.55258" lon="6.67568">
        <ele>456.6</ele>
        <time>2014-10-26T09:26:10.000Z</time>
      </trkpt>
      <trkpt lat="47.55262" lon="6.67569">
        <ele>456.6</ele>
        <time>2014-10-26T09:26:12.000Z</time>
      </trkpt>
      <trkpt lat="47.55264" lon="6.67569">
        <ele>457.8</ele>
        <time>2014-10-26T09:26:13.000Z</time>
      </trkpt>
      <trkpt lat="47.55268" lon="6.6757">
        <ele>456.6</ele>
        <time>2014-10-26T09:26:15.000Z</time>
      </trkpt>
      <trkpt lat="47.5527" lon="6.6757">
        <ele>456.6</ele>
        <time>2014-10-26T09:26:16.000Z</time>
      </trkpt>
      <trkpt lat="47.55273" lon="6.67571">
        <ele>457.6</ele>
        <time>2014-10-26T09:26:18.000Z</time>
      </trkpt>
      <trkpt lat="47.55274" lon="6.67571">
        <ele>460.1</ele>
        <time>2014-10-26T09:26:19.000Z</time>
      </trkpt>
      <trkpt lat="47.55276" lon="6.67572">
        <ele>459.3</ele>
        <time>2014-10-26T09:26:20.000Z</time>
      </trkpt>
      <trkpt lat="47.55279" lon="6.67573">
        <ele>459.2</ele>
        <time>2014-10-26T09:26:21.000Z</time>
      </trkpt>
      <trkpt lat="47.55282" lon="6.67574">
        <ele>459.1</ele>
        <time>2014-10-26T09:26:22.000Z</time>
      </trkpt>
      <trkpt lat="47.55285" lon="6.67575">
        <ele>459.3</ele>
        <time>2014-10-26T09:26:23.000Z</time>
      </trkpt>
      <trkpt lat="47.55288" lon="6.67576">
        <ele>459.4</ele>
        <time>2014-10-26T09:26:24.000Z</time>
      </trkpt>
      <trkpt lat="47.55291" lon="6.67577">
        <ele>460.7</ele>
        <time>2014-10-26T09:26:25.000Z</time>
      </trkpt>
      <trkpt lat="47.55294" lon="6.67578">
        <ele>460</ele>
        <time>2014-10-26T09:26:26.000Z</time>
      </trkpt>
      <trkpt lat="47.55296" lon="6.67579">
        <ele>460.8</ele>
        <time>2014-10-26T09:26:27.000Z</time>
      </trkpt>
      <trkpt lat="47.55299" lon="6.67579">
        <ele>460.9</ele>
        <time>2014-10-26T09:26:28.000Z</time>
      </trkpt>
      <trkpt lat="47.55301" lon="6.6758">
        <ele>461.1</ele>
        <time>2014-10-26T09:26:29.000Z</time>
      </trkpt>
      <trkpt lat="47.55304" lon="6.67581">
        <ele>461.7</ele>
        <time>2014-10-26T09:26:30.000Z</time>
      </trkpt>
      <trkpt lat="47.55306" lon="6.67581">
        <ele>463.5</ele>
        <time>2014-10-26T09:26:31.000Z</time>
      </trkpt>
      <trkpt lat="47.5531" lon="6.67581">
        <ele>464.8</ele>
        <time>2014-10-26T09:26:33.000Z</time>
      </trkpt>
      <trkpt lat="47.55327" lon="6.67586">
        <ele>460.8</ele>
        <time>2014-10-26T09:26:41.000Z</time>
      </trkpt>
      <trkpt lat="47.55331" lon="6.67588">
        <ele>461.4</ele>
        <time>2014-10-26T09:26:43.000Z</time>
      </trkpt>
      <trkpt lat="47.55332" lon="6.67588">
        <ele>461</ele>
        <time>2014-10-26T09:26:44.000Z</time>
      </trkpt>
      <trkpt lat="47.55336" lon="6.67588">
        <ele>461.4</ele>
        <time>2014-10-26T09:26:46.000Z</time>
      </trkpt>
      <trkpt lat="47.55338" lon="6.67588">
        <ele>461.3</ele>
        <time>2014-10-26T09:26:47.000Z</time>
      </trkpt>
      <trkpt lat="47.55342" lon="6.67589">
        <ele>461.8</ele>
        <time>2014-10-26T09:26:49.000Z</time>
      </trkpt>
      <trkpt lat="47.55344" lon="6.6759">
        <ele>461.1</ele>
        <time>2014-10-26T09:26:50.000Z</time>
      </trkpt>
      <trkpt lat="47.55348" lon="6.67591">
        <ele>460.9</ele>
        <time>2014-10-26T09:26:52.000Z</time>
      </trkpt>
      <trkpt lat="47.5535" lon="6.67591">
        <ele>461</ele>
        <time>2014-10-26T09:26:53.000Z</time>
      </trkpt>
      <trkpt lat="47.55355" lon="6.67591">
        <ele>460.6</ele>
        <time>2014-10-26T09:26:55.000Z</time>
      </trkpt>
      <trkpt lat="47.55357" lon="6.67592">
        <ele>460.6</ele>
        <time>2014-10-26T09:26:56.000Z</time>
      </trkpt>
      <trkpt lat="47.55361" lon="6.67593">
        <ele>460.1</ele>
        <time>2014-10-26T09:26:58.000Z</time>
      </trkpt>
      <trkpt lat="47.55363" lon="6.67594">
        <ele>459.8</ele>
        <time>2014-10-26T09:26:59.000Z</time>
      </trkpt>
      <trkpt lat="47.55365" lon="6.67595">
        <ele>460.2</ele>
        <time>2014-10-26T09:27:00.000Z</time>
      </trkpt>
      <trkpt lat="47.55367" lon="6.67596">
        <ele>460.6</ele>
        <time>2014-10-26T09:27:01.000Z</time>
      </trkpt>
      <trkpt lat="47.55371" lon="6.67597">
        <ele>460.5</ele>
        <time>2014-10-26T09:27:03.000Z</time>
      </trkpt>
      <trkpt lat="47.55373" lon="6.67597">
        <ele>460.8</ele>
        <time>2014-10-26T09:27:04.000Z</time>
      </trkpt>
      <trkpt lat="47.55377" lon="6.67598">
        <ele>461</ele>
        <time>2014-10-26T09:27:06.000Z</time>
      </trkpt>
      <trkpt lat="47.55379" lon="6.67598">
        <ele>460.9</ele>
        <time>2014-10-26T09:27:07.000Z</time>
      </trkpt>
      <trkpt lat="47.55383" lon="6.67599">
        <ele>460.8</ele>
        <time>2014-10-26T09:27:09.000Z</time>
      </trkpt>
      <trkpt lat="47.55385" lon="6.67599">
        <ele>461.9</ele>
        <time>2014-10-26T09:27:10.000Z</time>
      </trkpt>
      <trkpt lat="47.55389" lon="6.676">
        <ele>462.3</ele>
        <time>2014-10-26T09:27:12.000Z</time>
      </trkpt>
      <trkpt lat="47.55391" lon="6.676">
        <ele>462.5</ele>
        <time>2014-10-26T09:27:13.000Z</time>
      </trkpt>
      <trkpt lat="47.55394" lon="6.676">
        <ele>462.1</ele>
        <time>2014-10-26T09:27:14.000Z</time>
      </trkpt>
      <trkpt lat="47.55396" lon="6.676">
        <ele>461.7</ele>
        <time>2014-10-26T09:27:15.000Z</time>
      </trkpt>
      <trkpt lat="47.55399" lon="6.67599">
        <ele>462.6</ele>
        <time>2014-10-26T09:27:16.000Z</time>
      </trkpt>
      <trkpt lat="47.55401" lon="6.676">
        <ele>462.9</ele>
        <time>2014-10-26T09:27:17.000Z</time>
      </trkpt>
      <trkpt lat="47.55405" lon="6.676">
        <ele>464</ele>
        <time>2014-10-26T09:27:19.000Z</time>
      </trkpt>
      <trkpt lat="47.55407" lon="6.676">
        <ele>464.6</ele>
        <time>2014-10-26T09:27:20.000Z</time>
      </trkpt>
      <trkpt lat="47.5541" lon="6.67599">
        <ele>465.6</ele>
        <time>2014-10-26T09:27:22.000Z</time>
      </trkpt>
      <trkpt lat="47.55412" lon="6.67599">
        <ele>467</ele>
        <time>2014-10-26T09:27:23.000Z</time>
      </trkpt>
      <trkpt lat="47.55415" lon="6.67599">
        <ele>469.1</ele>
        <time>2014-10-26T09:27:25.000Z</time>
      </trkpt>
      <trkpt lat="47.55417" lon="6.67599">
        <ele>469.6</ele>
        <time>2014-10-26T09:27:26.000Z</time>
      </trkpt>
      <trkpt lat="47.55421" lon="6.67599">
        <ele>471.2</ele>
        <time>2014-10-26T09:27:28.000Z</time>
      </trkpt>
      <trkpt lat="47.55423" lon="6.67599">
        <ele>471.7</ele>
        <time>2014-10-26T09:27:29.000Z</time>
      </trkpt>
      <trkpt lat="47.55427" lon="6.67598">
        <ele>472</ele>
        <time>2014-10-26T09:27:31.000Z</time>
      </trkpt>
      <trkpt lat="47.55428" lon="6.67598">
        <ele>472.2</ele>
        <time>2014-10-26T09:27:32.000Z</time>
      </trkpt>
      <trkpt lat="47.5543" lon="6.67598">
        <ele>472.6</ele>
        <time>2014-10-26T09:27:33.000Z</time>
      </trkpt>
      <trkpt lat="47.55442" lon="6.67598">
        <ele>460</ele>
        <time>2014-10-26T09:27:41.000Z</time>
      </trkpt>
      <trkpt lat="47.55446" lon="6.67598">
        <ele>459.9</ele>
        <time>2014-10-26T09:27:43.000Z</time>
      </trkpt>
      <trkpt lat="47.55449" lon="6.67597">
        <ele>460</ele>
        <time>2014-10-26T09:27:44.000Z</time>
      </trkpt>
      <trkpt lat="47.55452" lon="6.67595">
        <ele>459.4</ele>
        <time>2014-10-26T09:27:45.000Z</time>
      </trkpt>
      <trkpt lat="47.55455" lon="6.67594">
        <ele>458.3</ele>
        <time>2014-10-26T09:27:46.000Z</time>
      </trkpt>
      <trkpt lat="47.55458" lon="6.67593">
        <ele>458.2</ele>
        <time>2014-10-26T09:27:47.000Z</time>
      </trkpt>
      <trkpt lat="47.55461" lon="6.67592">
        <ele>458.4</ele>
        <time>2014-10-26T09:27:48.000Z</time>
      </trkpt>
      <trkpt lat="47.55464" lon="6.67591">
        <ele>459.1</ele>
        <time>2014-10-26T09:27:49.000Z</time>
      </trkpt>
      <trkpt lat="47.55466" lon="6.67589">
        <ele>459.4</ele>
        <time>2014-10-26T09:27:50.000Z</time>
      </trkpt>
      <trkpt lat="47.55469" lon="6.67588">
        <ele>458.5</ele>
        <time>2014-10-26T09:27:51.000Z</time>
      </trkpt>
      <trkpt lat="47.55471" lon="6.67588">
        <ele>458.6</ele>
        <time>2014-10-26T09:27:52.000Z</time>
      </trkpt>
      <trkpt lat="47.55474" lon="6.67587">
        <ele>458.7</ele>
        <time>2014-10-26T09:27:53.000Z</time>
      </trkpt>
      <trkpt lat="47.55476" lon="6.67586">
        <ele>458.8</ele>
        <time>2014-10-26T09:27:54.000Z</time>
      </trkpt>
      <trkpt lat="47.5548" lon="6.67585">
        <ele>459.5</ele>
        <time>2014-10-26T09:27:56.000Z</time>
      </trkpt>
      <trkpt lat="47.55481" lon="6.67585">
        <ele>461.7</ele>
        <time>2014-10-26T09:27:57.000Z</time>
      </trkpt>
      <trkpt lat="47.55485" lon="6.67585">
        <ele>464.6</ele>
        <time>2014-10-26T09:28:02.000Z</time>
      </trkpt>
      <trkpt lat="47.55486" lon="6.67586">
        <ele>464.9</ele>
        <time>2014-10-26T09:28:03.000Z</time>
      </trkpt>
      <trkpt lat="47.5549" lon="6.67586">
        <ele>463.5</ele>
        <time>2014-10-26T09:28:08.000Z</time>
      </trkpt>
      <trkpt lat="47.55491" lon="6.67586">
        <ele>463.5</ele>
        <time>2014-10-26T09:28:09.000Z</time>
      </trkpt>
      <trkpt lat="47.55494" lon="6.67585">
        <ele>469.6</ele>
        <time>2014-10-26T09:28:12.000Z</time>
      </trkpt>
      <trkpt lat="47.55496" lon="6.67584">
        <ele>471.4</ele>
        <time>2014-10-26T09:28:13.000Z</time>
      </trkpt>
      <trkpt lat="47.555" lon="6.67583">
        <ele>472.3</ele>
        <time>2014-10-26T09:28:17.000Z</time>
      </trkpt>
      <trkpt lat="47.55501" lon="6.67583">
        <ele>472</ele>
        <time>2014-10-26T09:28:18.000Z</time>
      </trkpt>
      <trkpt lat="47.55504" lon="6.6758">
        <ele>471.1</ele>
        <time>2014-10-26T09:28:23.000Z</time>
      </trkpt>
      <trkpt lat="47.55505" lon="6.67579">
        <ele>470.5</ele>
        <time>2014-10-26T09:28:24.000Z</time>
      </trkpt>
      <trkpt lat="47.55507" lon="6.67573">
        <ele>470.2</ele>
        <time>2014-10-26T09:28:28.000Z</time>
      </trkpt>
      <trkpt lat="47.55506" lon="6.67572">
        <ele>469.6</ele>
        <time>2014-10-26T09:28:29.000Z</time>
      </trkpt>
      <trkpt lat="47.5551" lon="6.67569">
        <ele>467.5</ele>
        <time>2014-10-26T09:28:47.000Z</time>
      </trkpt>
      <trkpt lat="47.55511" lon="6.67567">
        <ele>468.4</ele>
        <time>2014-10-26T09:28:48.000Z</time>
      </trkpt>
      <trkpt lat="47.55514" lon="6.67564">
        <ele>469.1</ele>
        <time>2014-10-26T09:28:50.000Z</time>
      </trkpt>
      <trkpt lat="47.55516" lon="6.67562">
        <ele>468</ele>
        <time>2014-10-26T09:28:51.000Z</time>
      </trkpt>
      <trkpt lat="47.55518" lon="6.67561">
        <ele>465.3</ele>
        <time>2014-10-26T09:28:52.000Z</time>
      </trkpt>
      <trkpt lat="47.5552" lon="6.67559">
        <ele>463.3</ele>
        <time>2014-10-26T09:28:53.000Z</time>
      </trkpt>
      <trkpt lat="47.55522" lon="6.67557">
        <ele>462.8</ele>
        <time>2014-10-26T09:28:54.000Z</time>
      </trkpt>
      <trkpt lat="47.55524" lon="6.67555">
        <ele>461.9</ele>
        <time>2014-10-26T09:28:55.000Z</time>
      </trkpt>
      <trkpt lat="47.55526" lon="6.67553">
        <ele>460.8</ele>
        <time>2014-10-26T09:28:56.000Z</time>
      </trkpt>
      <trkpt lat="47.55527" lon="6.6755">
        <ele>460.4</ele>
        <time>2014-10-26T09:28:57.000Z</time>
      </trkpt>
      <trkpt lat="47.55529" lon="6.67548">
        <ele>459.9</ele>
        <time>2014-10-26T09:28:58.000Z</time>
      </trkpt>
      <trkpt lat="47.55531" lon="6.67545">
        <ele>459.9</ele>
        <time>2014-10-26T09:28:59.000Z</time>
      </trkpt>
      <trkpt lat="47.55534" lon="6.67541">
        <ele>459.8</ele>
        <time>2014-10-26T09:29:01.000Z</time>
      </trkpt>
      <trkpt lat="47.55535" lon="6.67538">
        <ele>459.2</ele>
        <time>2014-10-26T09:29:02.000Z</time>
      </trkpt>
      <trkpt lat="47.55536" lon="6.67535">
        <ele>459</ele>
        <time>2014-10-26T09:29:03.000Z</time>
      </trkpt>
      <trkpt lat="47.55537" lon="6.67532">
        <ele>458.7</ele>
        <time>2014-10-26T09:29:04.000Z</time>
      </trkpt>
      <trkpt lat="47.55538" lon="6.67529">
        <ele>459.3</ele>
        <time>2014-10-26T09:29:05.000Z</time>
      </trkpt>
      <trkpt lat="47.55539" lon="6.67526">
        <ele>459.5</ele>
        <time>2014-10-26T09:29:06.000Z</time>
      </trkpt>
      <trkpt lat="47.55541" lon="6.6752">
        <ele>459.2</ele>
        <time>2014-10-26T09:29:08.000Z</time>
      </trkpt>
      <trkpt lat="47.55541" lon="6.67517">
        <ele>458.1</ele>
        <time>2014-10-26T09:29:09.000Z</time>
      </trkpt>
      <trkpt lat="47.55542" lon="6.67513">
        <ele>457.9</ele>
        <time>2014-10-26T09:29:10.000Z</time>
      </trkpt>
      <trkpt lat="47.55542" lon="6.6751">
        <ele>457</ele>
        <time>2014-10-26T09:29:11.000Z</time>
      </trkpt>
      <trkpt lat="47.55543" lon="6.67504">
        <ele>457.2</ele>
        <time>2014-10-26T09:29:13.000Z</time>
      </trkpt>
      <trkpt lat="47.55543" lon="6.67501">
        <ele>457.2</ele>
        <time>2014-10-26T09:29:14.000Z</time>
      </trkpt>
      <trkpt lat="47.55543" lon="6.67495">
        <ele>457.4</ele>
        <time>2014-10-26T09:29:16.000Z</time>
      </trkpt>
      <trkpt lat="47.55544" lon="6.67492">
        <ele>458.4</ele>
        <time>2014-10-26T09:29:17.000Z</time>
      </trkpt>
      <trkpt lat="47.55545" lon="6.67487">
        <ele>461.9</ele>
        <time>2014-10-26T09:29:20.000Z</time>
      </trkpt>
      <trkpt lat="47.55545" lon="6.67485">
        <ele>462.6</ele>
        <time>2014-10-26T09:29:21.000Z</time>
      </trkpt>
      <trkpt lat="47.55546" lon="6.67481">
        <ele>463.3</ele>
        <time>2014-10-26T09:29:23.000Z</time>
      </trkpt>
      <trkpt lat="47.55546" lon="6.67478">
        <ele>463</ele>
        <time>2014-10-26T09:29:24.000Z</time>
      </trkpt>
      <trkpt lat="47.55547" lon="6.67473">
        <ele>462.2</ele>
        <time>2014-10-26T09:29:26.000Z</time>
      </trkpt>
      <trkpt lat="47.55547" lon="6.6747">
        <ele>463.6</ele>
        <time>2014-10-26T09:29:27.000Z</time>
      </trkpt>
      <trkpt lat="47.55548" lon="6.67464">
        <ele>465.6</ele>
        <time>2014-10-26T09:29:29.000Z</time>
      </trkpt>
      <trkpt lat="47.55549" lon="6.67462">
        <ele>466.4</ele>
        <time>2014-10-26T09:29:30.000Z</time>
      </trkpt>
      <trkpt lat="47.55549" lon="6.67459">
        <ele>467.3</ele>
        <time>2014-10-26T09:29:33.000Z</time>
      </trkpt>
      <trkpt lat="47.5555" lon="6.67454">
        <ele>462.6</ele>
        <time>2014-10-26T09:29:41.000Z</time>
      </trkpt>
      <trkpt lat="47.55552" lon="6.67449">
        <ele>465.3</ele>
        <time>2014-10-26T09:29:54.000Z</time>
      </trkpt>
      <trkpt lat="47.55553" lon="6.67447">
        <ele>465.8</ele>
        <time>2014-10-26T09:29:55.000Z</time>
      </trkpt>
      <trkpt lat="47.55557" lon="6.67444">
        <ele>466</ele>
        <time>2014-10-26T09:29:59.000Z</time>
      </trkpt>
      <trkpt lat="47.55558" lon="6.67443">
        <ele>466.2</ele>
        <time>2014-10-26T09:30:00.000Z</time>
      </trkpt>
      <trkpt lat="47.55561" lon="6.6744">
        <ele>465.7</ele>
        <time>2014-10-26T09:30:03.000Z</time>
      </trkpt>
      <trkpt lat="47.55562" lon="6.67439">
        <ele>464.5</ele>
        <time>2014-10-26T09:30:04.000Z</time>
      </trkpt>
      <trkpt lat="47.55566" lon="6.67436">
        <ele>466.5</ele>
        <time>2014-10-26T09:30:08.000Z</time>
      </trkpt>
      <trkpt lat="47.55567" lon="6.67435">
        <ele>466.8</ele>
        <time>2014-10-26T09:30:09.000Z</time>
      </trkpt>
      <trkpt lat="47.5557" lon="6.67431">
        <ele>469.9</ele>
        <time>2014-10-26T09:30:13.000Z</time>
      </trkpt>
      <trkpt lat="47.55571" lon="6.6743">
        <ele>469.7</ele>
        <time>2014-10-26T09:30:14.000Z</time>
      </trkpt>
      <trkpt lat="47.55574" lon="6.67426">
        <ele>469.7</ele>
        <time>2014-10-26T09:30:24.000Z</time>
      </trkpt>
      <trkpt lat="47.55574" lon="6.67426">
        <ele>469.7</ele>
        <time>2014-10-26T09:30:25.000Z</time>
      </trkpt>
      <trkpt lat="47.55578" lon="6.67423">
        <ele>470</ele>
        <time>2014-10-26T09:30:30.998Z</time>
      </trkpt>
      <trkpt lat="47.55579" lon="6.67418">
        <ele>467.7</ele>
        <time>2014-10-26T09:30:32.000Z</time>
      </trkpt>
      <trkpt lat="47.5559" lon="6.67401">
        <ele>460.1</ele>
        <time>2014-10-26T09:30:41.000Z</time>
      </trkpt>
      <trkpt lat="47.55592" lon="6.67397">
        <ele>460.9</ele>
        <time>2014-10-26T09:30:43.000Z</time>
      </trkpt>
      <trkpt lat="47.55593" lon="6.67395">
        <ele>463.6</ele>
        <time>2014-10-26T09:30:44.000Z</time>
      </trkpt>
      <trkpt lat="47.55595" lon="6.67391">
        <ele>466.5</ele>
        <time>2014-10-26T09:30:46.000Z</time>
      </trkpt>
      <trkpt lat="47.55596" lon="6.67389">
        <ele>466.8</ele>
        <time>2014-10-26T09:30:47.000Z</time>
      </trkpt>
      <trkpt lat="47.55598" lon="6.67386">
        <ele>468.4</ele>
        <time>2014-10-26T09:30:49.000Z</time>
      </trkpt>
      <trkpt lat="47.55599" lon="6.67384">
        <ele>469.3</ele>
        <time>2014-10-26T09:30:50.000Z</time>
      </trkpt>
      <trkpt lat="47.55601" lon="6.67379">
        <ele>470.3</ele>
        <time>2014-10-26T09:30:52.000Z</time>
      </trkpt>
      <trkpt lat="47.55602" lon="6.67377">
        <ele>471.2</ele>
        <time>2014-10-26T09:30:53.000Z</time>
      </trkpt>
      <trkpt lat="47.55604" lon="6.67372">
        <ele>471.6</ele>
        <time>2014-10-26T09:30:55.000Z</time>
      </trkpt>
      <trkpt lat="47.55604" lon="6.6737">
        <ele>471.6</ele>
        <time>2014-10-26T09:30:56.000Z</time>
      </trkpt>
      <trkpt lat="47.55607" lon="6.67364">
        <ele>470.2</ele>
        <time>2014-10-26T09:30:59.000Z</time>
      </trkpt>
      <trkpt lat="47.55607" lon="6.67362">
        <ele>469.9</ele>
        <time>2014-10-26T09:31:00.000Z</time>
      </trkpt>
      <trkpt lat="47.55609" lon="6.67356">
        <ele>471.2</ele>
        <time>2014-10-26T09:31:03.000Z</time>
      </trkpt>
      <trkpt lat="47.5561" lon="6.67354">
        <ele>471.9</ele>
        <time>2014-10-26T09:31:04.000Z</time>
      </trkpt>
      <trkpt lat="47.55613" lon="6.67349">
        <ele>473.1</ele>
        <time>2014-10-26T09:31:07.000Z</time>
      </trkpt>
      <trkpt lat="47.55614" lon="6.67348">
        <ele>473.3</ele>
        <time>2014-10-26T09:31:08.000Z</time>
      </trkpt>
      <trkpt lat="47.55615" lon="6.67342">
        <ele>475.3</ele>
        <time>2014-10-26T09:31:12.000Z</time>
      </trkpt>
      <trkpt lat="47.55616" lon="6.67341">
        <ele>475.4</ele>
        <time>2014-10-26T09:31:13.000Z</time>
      </trkpt>
      <trkpt lat="47.55617" lon="6.67336">
        <ele>477.2</ele>
        <time>2014-10-26T09:31:17.000Z</time>
      </trkpt>
      <trkpt lat="47.55618" lon="6.67335">
        <ele>477.3</ele>
        <time>2014-10-26T09:31:18.000Z</time>
      </trkpt>
      <trkpt lat="47.55621" lon="6.67331">
        <ele>478.9</ele>
        <time>2014-10-26T09:31:22.000Z</time>
      </trkpt>
      <trkpt lat="47.55621" lon="6.67329">
        <ele>476.6</ele>
        <time>2014-10-26T09:31:23.000Z</time>
      </trkpt>
      <trkpt lat="47.55624" lon="6.67325">
        <ele>478.3</ele>
        <time>2014-10-26T09:31:26.000Z</time>
      </trkpt>
      <trkpt lat="47.55625" lon="6.67323">
        <ele>478.8</ele>
        <time>2014-10-26T09:31:27.000Z</time>
      </trkpt>
      <trkpt lat="47.55627" lon="6.67319">
        <ele>478.7</ele>
        <time>2014-10-26T09:31:31.000Z</time>
      </trkpt>
      <trkpt lat="47.55628" lon="6.67317">
        <ele>478.2</ele>
        <time>2014-10-26T09:31:32.000Z</time>
      </trkpt>
      <trkpt lat="47.55628" lon="6.67316">
        <ele>478</ele>
        <time>2014-10-26T09:31:33.000Z</time>
      </trkpt>
      <trkpt lat="47.55636" lon="6.67309">
        <ele>473.9</ele>
        <time>2014-10-26T09:31:41.000Z</time>
      </trkpt>
      <trkpt lat="47.5564" lon="6.67307">
        <ele>474.5</ele>
        <time>2014-10-26T09:31:44.000Z</time>
      </trkpt>
      <trkpt lat="47.55642" lon="6.67305">
        <ele>478.1</ele>
        <time>2014-10-26T09:31:45.000Z</time>
      </trkpt>
      <trkpt lat="47.55645" lon="6.67302">
        <ele>480.1</ele>
        <time>2014-10-26T09:31:47.000Z</time>
      </trkpt>
      <trkpt lat="47.55646" lon="6.67301">
        <ele>481</ele>
        <time>2014-10-26T09:31:48.000Z</time>
      </trkpt>
      <trkpt lat="47.55648" lon="6.67297">
        <ele>482.1</ele>
        <time>2014-10-26T09:31:50.000Z</time>
      </trkpt>
      <trkpt lat="47.55649" lon="6.67296">
        <ele>482.8</ele>
        <time>2014-10-26T09:31:51.000Z</time>
      </trkpt>
      <trkpt lat="47.55651" lon="6.67293">
        <ele>482.2</ele>
        <time>2014-10-26T09:31:53.000Z</time>
      </trkpt>
      <trkpt lat="47.55653" lon="6.67292">
        <ele>483.4</ele>
        <time>2014-10-26T09:31:54.000Z</time>
      </trkpt>
      <trkpt lat="47.55656" lon="6.67289">
        <ele>484.9</ele>
        <time>2014-10-26T09:31:56.000Z</time>
      </trkpt>
      <trkpt lat="47.55657" lon="6.67288">
        <ele>485.2</ele>
        <time>2014-10-26T09:31:57.000Z</time>
      </trkpt>
      <trkpt lat="47.55661" lon="6.67286">
        <ele>485.9</ele>
        <time>2014-10-26T09:32:00.000Z</time>
      </trkpt>
      <trkpt lat="47.55663" lon="6.67285">
        <ele>485.7</ele>
        <time>2014-10-26T09:32:01.000Z</time>
      </trkpt>
      <trkpt lat="47.55667" lon="6.67284">
        <ele>487</ele>
        <time>2014-10-26T09:32:04.000Z</time>
      </trkpt>
      <trkpt lat="47.55668" lon="6.67284">
        <ele>486.7</ele>
        <time>2014-10-26T09:32:05.000Z</time>
      </trkpt>
      <trkpt lat="47.55672" lon="6.67282">
        <ele>486.9</ele>
        <time>2014-10-26T09:32:08.000Z</time>
      </trkpt>
      <trkpt lat="47.55674" lon="6.67281">
        <ele>486.9</ele>
        <time>2014-10-26T09:32:09.000Z</time>
      </trkpt>
      <trkpt lat="47.55677" lon="6.67281">
        <ele>487.7</ele>
        <time>2014-10-26T09:32:11.000Z</time>
      </trkpt>
      <trkpt lat="47.55678" lon="6.6728">
        <ele>488.3</ele>
        <time>2014-10-26T09:32:12.000Z</time>
      </trkpt>
      <trkpt lat="47.55683" lon="6.67279">
        <ele>488.9</ele>
        <time>2014-10-26T09:32:16.000Z</time>
      </trkpt>
      <trkpt lat="47.55684" lon="6.67279">
        <ele>490.2</ele>
        <time>2014-10-26T09:32:17.000Z</time>
      </trkpt>
      <trkpt lat="47.55687" lon="6.67277">
        <ele>490.3</ele>
        <time>2014-10-26T09:32:20.000Z</time>
      </trkpt>
      <trkpt lat="47.55689" lon="6.67276">
        <ele>490</ele>
        <time>2014-10-26T09:32:21.000Z</time>
      </trkpt>
      <trkpt lat="47.55692" lon="6.67273">
        <ele>491.6</ele>
        <time>2014-10-26T09:32:24.000Z</time>
      </trkpt>
      <trkpt lat="47.55693" lon="6.67272">
        <ele>493.8</ele>
        <time>2014-10-26T09:32:25.000Z</time>
      </trkpt>
      <trkpt lat="47.55696" lon="6.67267">
        <ele>496.7</ele>
        <time>2014-10-26T09:32:29.000Z</time>
      </trkpt>
      <trkpt lat="47.55697" lon="6.67266">
        <ele>496.8</ele>
        <time>2014-10-26T09:32:30.000Z</time>
      </trkpt>
      <trkpt lat="47.557" lon="6.67263">
        <ele>497.4</ele>
        <time>2014-10-26T09:32:33.000Z</time>
      </trkpt>
      <trkpt lat="47.55706" lon="6.67254">
        <ele>493.9</ele>
        <time>2014-10-26T09:32:41.000Z</time>
      </trkpt>
      <trkpt lat="47.5571" lon="6.6725">
        <ele>493.5</ele>
        <time>2014-10-26T09:32:44.000Z</time>
      </trkpt>
      <trkpt lat="47.55711" lon="6.67249">
        <ele>494</ele>
        <time>2014-10-26T09:32:45.000Z</time>
      </trkpt>
      <trkpt lat="47.55714" lon="6.67246">
        <ele>494.5</ele>
        <time>2014-10-26T09:32:48.000Z</time>
      </trkpt>
      <trkpt lat="47.55715" lon="6.67245">
        <ele>495.4</ele>
        <time>2014-10-26T09:32:49.000Z</time>
      </trkpt>
      <trkpt lat="47.55719" lon="6.67243">
        <ele>497.9</ele>
        <time>2014-10-26T09:32:53.000Z</time>
      </trkpt>
      <trkpt lat="47.5572" lon="6.67243">
        <ele>498.5</ele>
        <time>2014-10-26T09:32:54.000Z</time>
      </trkpt>
      <trkpt lat="47.55723" lon="6.67239">
        <ele>501.9</ele>
        <time>2014-10-26T09:33:00.000Z</time>
      </trkpt>
      <trkpt lat="47.55724" lon="6.67238">
        <ele>503.3</ele>
        <time>2014-10-26T09:33:01.000Z</time>
      </trkpt>
      <trkpt lat="47.55725" lon="6.67232">
        <ele>505.5</ele>
        <time>2014-10-26T09:33:06.000Z</time>
      </trkpt>
      <trkpt lat="47.55725" lon="6.67231">
        <ele>505.8</ele>
        <time>2014-10-26T09:33:07.000Z</time>
      </trkpt>
      <trkpt lat="47.55727" lon="6.67225">
        <ele>507.5</ele>
        <time>2014-10-26T09:33:11.000Z</time>
      </trkpt>
      <trkpt lat="47.55726" lon="6.67224">
        <ele>507.6</ele>
        <time>2014-10-26T09:33:12.000Z</time>
      </trkpt>
      <trkpt lat="47.55726" lon="6.67218">
        <ele>510</ele>
        <time>2014-10-26T09:33:16.000Z</time>
      </trkpt>
      <trkpt lat="47.55727" lon="6.67217">
        <ele>510.1</ele>
        <time>2014-10-26T09:33:17.000Z</time>
      </trkpt>
      <trkpt lat="47.5573" lon="6.67214">
        <ele>510.6</ele>
        <time>2014-10-26T09:33:20.000Z</time>
      </trkpt>
      <trkpt lat="47.55731" lon="6.67214">
        <ele>513.8</ele>
        <time>2014-10-26T09:33:21.000Z</time>
      </trkpt>
      <trkpt lat="47.55734" lon="6.6721">
        <ele>514.8</ele>
        <time>2014-10-26T09:33:25.000Z</time>
      </trkpt>
      <trkpt lat="47.55734" lon="6.67208">
        <ele>514.7</ele>
        <time>2014-10-26T09:33:26.000Z</time>
      </trkpt>
      <trkpt lat="47.55736" lon="6.67203">
        <ele>513.5</ele>
        <time>2014-10-26T09:33:29.000Z</time>
      </trkpt>
      <trkpt lat="47.55737" lon="6.67201">
        <ele>513.8</ele>
        <time>2014-10-26T09:33:30.000Z</time>
      </trkpt>
      <trkpt lat="47.5574" lon="6.67197">
        <ele>514.2</ele>
        <time>2014-10-26T09:33:33.000Z</time>
      </trkpt>
      <trkpt lat="47.55748" lon="6.67184">
        <ele>469.5</ele>
        <time>2014-10-26T09:33:41.000Z</time>
      </trkpt>
      <trkpt lat="47.5575" lon="6.67181">
        <ele>472.1</ele>
        <time>2014-10-26T09:33:42.000Z</time>
      </trkpt>
      <trkpt lat="47.55752" lon="6.67177">
        <ele>473.3</ele>
        <time>2014-10-26T09:33:43.000Z</time>
      </trkpt>
      <trkpt lat="47.55754" lon="6.67173">
        <ele>474.1</ele>
        <time>2014-10-26T09:33:44.000Z</time>
      </trkpt>
      <trkpt lat="47.55757" lon="6.6717">
        <ele>475</ele>
        <time>2014-10-26T09:33:45.000Z</time>
      </trkpt>
      <trkpt lat="47.55759" lon="6.67165">
        <ele>477.5</ele>
        <time>2014-10-26T09:33:46.000Z</time>
      </trkpt>
      <trkpt lat="47.55761" lon="6.67161">
        <ele>478.8</ele>
        <time>2014-10-26T09:33:47.000Z</time>
      </trkpt>
      <trkpt lat="47.55763" lon="6.67157">
        <ele>479.5</ele>
        <time>2014-10-26T09:33:48.000Z</time>
      </trkpt>
      <trkpt lat="47.55765" lon="6.67154">
        <ele>480.1</ele>
        <time>2014-10-26T09:33:49.000Z</time>
      </trkpt>
      <trkpt lat="47.55767" lon="6.6715">
        <ele>480.6</ele>
        <time>2014-10-26T09:33:50.000Z</time>
      </trkpt>
      <trkpt lat="47.55769" lon="6.67148">
        <ele>481.1</ele>
        <time>2014-10-26T09:33:51.000Z</time>
      </trkpt>
      <trkpt lat="47.5577" lon="6.67145">
        <ele>481.2</ele>
        <time>2014-10-26T09:33:52.000Z</time>
      </trkpt>
      <trkpt lat="47.55772" lon="6.67142">
        <ele>481.2</ele>
        <time>2014-10-26T09:33:53.000Z</time>
      </trkpt>
      <trkpt lat="47.55773" lon="6.67139">
        <ele>481.6</ele>
        <time>2014-10-26T09:33:54.000Z</time>
      </trkpt>
      <trkpt lat="47.55775" lon="6.67137">
        <ele>481.6</ele>
        <time>2014-10-26T09:33:55.000Z</time>
      </trkpt>
      <trkpt lat="47.55778" lon="6.67133">
        <ele>481</ele>
        <time>2014-10-26T09:33:57.000Z</time>
      </trkpt>
      <trkpt lat="47.55779" lon="6.67131">
        <ele>483.4</ele>
        <time>2014-10-26T09:33:58.000Z</time>
      </trkpt>
      <trkpt lat="47.55782" lon="6.67128">
        <ele>484.5</ele>
        <time>2014-10-26T09:34:00.000Z</time>
      </trkpt>
      <trkpt lat="47.55784" lon="6.67127">
        <ele>486.6</ele>
        <time>2014-10-26T09:34:01.000Z</time>
      </trkpt>
      <trkpt lat="47.55787" lon="6.67123">
        <ele>489.9</ele>
        <time>2014-10-26T09:34:04.000Z</time>
      </trkpt>
      <trkpt lat="47.55788" lon="6.67122">
        <ele>490.8</ele>
        <time>2014-10-26T09:34:05.000Z</time>
      </trkpt>
      <trkpt lat="47.55791" lon="6.67119">
        <ele>491.7</ele>
        <time>2014-10-26T09:34:08.000Z</time>
      </trkpt>
      <trkpt lat="47.55792" lon="6.67118">
        <ele>491.9</ele>
        <time>2014-10-26T09:34:09.000Z</time>
      </trkpt>
      <trkpt lat="47.55795" lon="6.67114">
        <ele>497.5</ele>
        <time>2014-10-26T09:34:11.000Z</time>
      </trkpt>
      <trkpt lat="47.55796" lon="6.6711">
        <ele>499</ele>
        <time>2014-10-26T09:34:12.000Z</time>
      </trkpt>
      <trkpt lat="47.55797" lon="6.67107">
        <ele>497.9</ele>
        <time>2014-10-26T09:34:13.000Z</time>
      </trkpt>
      <trkpt lat="47.55797" lon="6.67103">
        <ele>497.3</ele>
        <time>2014-10-26T09:34:14.000Z</time>
      </trkpt>
      <trkpt lat="47.55797" lon="6.67096">
        <ele>497.2</ele>
        <time>2014-10-26T09:34:16.000Z</time>
      </trkpt>
      <trkpt lat="47.55797" lon="6.67093">
        <ele>495.9</ele>
        <time>2014-10-26T09:34:17.000Z</time>
      </trkpt>
      <trkpt lat="47.55797" lon="6.67089">
        <ele>495.5</ele>
        <time>2014-10-26T09:34:18.000Z</time>
      </trkpt>
      <trkpt lat="47.55796" lon="6.67085">
        <ele>496.1</ele>
        <time>2014-10-26T09:34:19.000Z</time>
      </trkpt>
      <trkpt lat="47.55795" lon="6.67079">
        <ele>498.8</ele>
        <time>2014-10-26T09:34:21.000Z</time>
      </trkpt>
      <trkpt lat="47.55795" lon="6.67077">
        <ele>498.7</ele>
        <time>2014-10-26T09:34:22.000Z</time>
      </trkpt>
      <trkpt lat="47.55793" lon="6.67072">
        <ele>501.7</ele>
        <time>2014-10-26T09:34:24.000Z</time>
      </trkpt>
      <trkpt lat="47.55792" lon="6.6707">
        <ele>503.5</ele>
        <time>2014-10-26T09:34:25.000Z</time>
      </trkpt>
      <trkpt lat="47.5579" lon="6.67064">
        <ele>505.8</ele>
        <time>2014-10-26T09:34:27.000Z</time>
      </trkpt>
      <trkpt lat="47.55789" lon="6.67061">
        <ele>506.3</ele>
        <time>2014-10-26T09:34:28.000Z</time>
      </trkpt>
      <trkpt lat="47.55788" lon="6.67058">
        <ele>504.4</ele>
        <time>2014-10-26T09:34:29.000Z</time>
      </trkpt>
      <trkpt lat="47.55786" lon="6.67055">
        <ele>506.3</ele>
        <time>2014-10-26T09:34:30.000Z</time>
      </trkpt>
      <trkpt lat="47.55783" lon="6.67051">
        <ele>506.7</ele>
        <time>2014-10-26T09:34:32.000Z</time>
      </trkpt>
      <trkpt lat="47.55783" lon="6.6705">
        <ele>506.4</ele>
        <time>2014-10-26T09:34:33.000Z</time>
      </trkpt>
      <trkpt lat="47.55773" lon="6.67043">
        <ele>504.2</ele>
        <time>2014-10-26T09:34:41.000Z</time>
      </trkpt>
      <trkpt lat="47.5577" lon="6.6704">
        <ele>505.4</ele>
        <time>2014-10-26T09:34:43.000Z</time>
      </trkpt>
      <trkpt lat="47.55769" lon="6.67039">
        <ele>505.7</ele>
        <time>2014-10-26T09:34:44.000Z</time>
      </trkpt>
      <trkpt lat="47.55765" lon="6.67035">
        <ele>506.4</ele>
        <time>2014-10-26T09:34:47.000Z</time>
      </trkpt>
      <trkpt lat="47.55764" lon="6.67033">
        <ele>506.7</ele>
        <time>2014-10-26T09:34:48.000Z</time>
      </trkpt>
      <trkpt lat="47.55762" lon="6.67028">
        <ele>507.6</ele>
        <time>2014-10-26T09:34:51.000Z</time>
      </trkpt>
      <trkpt lat="47.55761" lon="6.67026">
        <ele>508</ele>
        <time>2014-10-26T09:34:52.000Z</time>
      </trkpt>
      <trkpt lat="47.55757" lon="6.67022">
        <ele>507.2</ele>
        <time>2014-10-26T09:34:54.000Z</time>
      </trkpt>
      <trkpt lat="47.55755" lon="6.67021">
        <ele>506.5</ele>
        <time>2014-10-26T09:34:55.000Z</time>
      </trkpt>
      <trkpt lat="47.55753" lon="6.67019">
        <ele>506.2</ele>
        <time>2014-10-26T09:34:56.000Z</time>
      </trkpt>
      <trkpt lat="47.55751" lon="6.67018">
        <ele>504.5</ele>
        <time>2014-10-26T09:34:57.000Z</time>
      </trkpt>
      <trkpt lat="47.55747" lon="6.67016">
        <ele>502.9</ele>
        <time>2014-10-26T09:34:59.000Z</time>
      </trkpt>
      <trkpt lat="47.55746" lon="6.67014">
        <ele>504.2</ele>
        <time>2014-10-26T09:35:00.000Z</time>
      </trkpt>
      <trkpt lat="47.55747" lon="6.67009">
        <ele>503.9</ele>
        <time>2014-10-26T09:35:05.000Z</time>
      </trkpt>
      <trkpt lat="47.55747" lon="6.67008">
        <ele>504.1</ele>
        <time>2014-10-26T09:35:06.000Z</time>
      </trkpt>
      <trkpt lat="47.55746" lon="6.67002">
        <ele>504.5</ele>
        <time>2014-10-26T09:35:09.000Z</time>
      </trkpt>
      <trkpt lat="47.55745" lon="6.67">
        <ele>504.6</ele>
        <time>2014-10-26T09:35:10.000Z</time>
      </trkpt>
      <trkpt lat="47.55743" lon="6.66995">
        <ele>508.4</ele>
        <time>2014-10-26T09:35:15.000Z</time>
      </trkpt>
      <trkpt lat="47.55743" lon="6.66994">
        <ele>508.4</ele>
        <time>2014-10-26T09:35:16.000Z</time>
      </trkpt>
      <trkpt lat="47.5574" lon="6.66989">
        <ele>510.8</ele>
        <time>2014-10-26T09:35:26.000Z</time>
      </trkpt>
      <trkpt lat="47.55739" lon="6.66989">
        <ele>510.8</ele>
        <time>2014-10-26T09:35:27.000Z</time>
      </trkpt>
      <trkpt lat="47.55735" lon="6.66988">
        <ele>465.8</ele>
        <time>2014-10-26T09:36:20.000Z</time>
      </trkpt>
      <trkpt lat="47.55735" lon="6.66988">
        <ele>465.8</ele>
        <time>2014-10-26T09:36:21.000Z</time>
      </trkpt>
      <trkpt lat="47.55733" lon="6.66983">
        <ele>476.4</ele>
        <time>2014-10-26T09:37:45.000Z</time>
      </trkpt>
      <trkpt lat="47.55735" lon="6.6698">
        <ele>477</ele>
        <time>2014-10-26T09:37:46.000Z</time>
      </trkpt>
      <trkpt lat="47.55734" lon="6.66985">
        <ele>440.4</ele>
        <time>2014-10-26T09:39:59.000Z</time>
      </trkpt>
      <trkpt lat="47.55733" lon="6.66986">
        <ele>441.6</ele>
        <time>2014-10-26T09:40:00.000Z</time>
      </trkpt>
      <trkpt lat="47.55729" lon="6.66984">
        <ele>457.1</ele>
        <time>2014-10-26T09:40:33.000Z</time>
      </trkpt>
      <trkpt lat="47.55726" lon="6.66983">
        <ele>459.9</ele>
        <time>2014-10-26T09:40:41.000Z</time>
      </trkpt>
      <trkpt lat="47.55722" lon="6.66984">
        <ele>466.2</ele>
        <time>2014-10-26T09:40:56.000Z</time>
      </trkpt>
      <trkpt lat="47.55721" lon="6.66984">
        <ele>466.6</ele>
        <time>2014-10-26T09:40:57.000Z</time>
      </trkpt>
      <trkpt lat="47.55717" lon="6.66983">
        <ele>470.5</ele>
        <time>2014-10-26T09:41:10.000Z</time>
      </trkpt>
      <trkpt lat="47.55717" lon="6.66982">
        <ele>471</ele>
        <time>2014-10-26T09:41:11.000Z</time>
      </trkpt>
      <trkpt lat="47.55713" lon="6.66982">
        <ele>459.4</ele>
        <time>2014-10-26T09:43:13.000Z</time>
      </trkpt>
      <trkpt lat="47.55712" lon="6.66982">
        <ele>461.4</ele>
        <time>2014-10-26T09:43:14.000Z</time>
      </trkpt>
      <trkpt lat="47.55708" lon="6.66982">
        <ele>464.3</ele>
        <time>2014-10-26T09:43:17.000Z</time>
      </trkpt>
      <trkpt lat="47.55706" lon="6.66982">
        <ele>465.9</ele>
        <time>2014-10-26T09:43:18.000Z</time>
      </trkpt>
      <trkpt lat="47.55703" lon="6.66979">
        <ele>471.3</ele>
        <time>2014-10-26T09:43:21.000Z</time>
      </trkpt>
      <trkpt lat="47.55701" lon="6.66977">
        <ele>472.5</ele>
        <time>2014-10-26T09:43:22.000Z</time>
      </trkpt>
      <trkpt lat="47.55698" lon="6.66973">
        <ele>475</ele>
        <time>2014-10-26T09:43:24.000Z</time>
      </trkpt>
      <trkpt lat="47.55696" lon="6.66972">
        <ele>475.6</ele>
        <time>2014-10-26T09:43:25.000Z</time>
      </trkpt>
      <trkpt lat="47.55694" lon="6.6697">
        <ele>475.7</ele>
        <time>2014-10-26T09:43:26.000Z</time>
      </trkpt>
      <trkpt lat="47.55691" lon="6.66969">
        <ele>475.8</ele>
        <time>2014-10-26T09:43:27.000Z</time>
      </trkpt>
      <trkpt lat="47.55689" lon="6.66968">
        <ele>477.8</ele>
        <time>2014-10-26T09:43:28.000Z</time>
      </trkpt>
      <trkpt lat="47.55686" lon="6.66967">
        <ele>479.2</ele>
        <time>2014-10-26T09:43:29.000Z</time>
      </trkpt>
      <trkpt lat="47.55683" lon="6.66964">
        <ele>482</ele>
        <time>2014-10-26T09:43:31.000Z</time>
      </trkpt>
      <trkpt lat="47.55682" lon="6.66963">
        <ele>483.4</ele>
        <time>2014-10-26T09:43:32.000Z</time>
      </trkpt>
      <trkpt lat="47.5568" lon="6.66961">
        <ele>485.4</ele>
        <time>2014-10-26T09:43:33.000Z</time>
      </trkpt>
      <trkpt lat="47.55675" lon="6.66957">
        <ele>485.7</ele>
        <time>2014-10-26T09:43:36.000Z</time>
      </trkpt>
      <trkpt lat="47.55672" lon="6.66954">
        <ele>489.5</ele>
        <time>2014-10-26T09:43:39.000Z</time>
      </trkpt>
      <trkpt lat="47.5567" lon="6.66953">
        <ele>490.7</ele>
        <time>2014-10-26T09:43:40.000Z</time>
      </trkpt>
      <trkpt lat="47.55668" lon="6.66951">
        <ele>491</ele>
        <time>2014-10-26T09:43:41.000Z</time>
      </trkpt>
      <trkpt lat="47.55666" lon="6.6695">
        <ele>492.3</ele>
        <time>2014-10-26T09:43:42.000Z</time>
      </trkpt>
      <trkpt lat="47.55663" lon="6.66948">
        <ele>493.3</ele>
        <time>2014-10-26T09:43:43.000Z</time>
      </trkpt>
      <trkpt lat="47.55661" lon="6.66945">
        <ele>495.3</ele>
        <time>2014-10-26T09:43:44.000Z</time>
      </trkpt>
      <trkpt lat="47.55659" lon="6.66943">
        <ele>496.2</ele>
        <time>2014-10-26T09:43:45.000Z</time>
      </trkpt>
      <trkpt lat="47.55655" lon="6.66939">
        <ele>496</ele>
        <time>2014-10-26T09:43:46.000Z</time>
      </trkpt>
      <trkpt lat="47.55651" lon="6.66936">
        <ele>497.9</ele>
        <time>2014-10-26T09:43:47.000Z</time>
      </trkpt>
      <trkpt lat="47.55647" lon="6.66933">
        <ele>499</ele>
        <time>2014-10-26T09:43:48.000Z</time>
      </trkpt>
      <trkpt lat="47.55642" lon="6.66929">
        <ele>500.1</ele>
        <time>2014-10-26T09:43:49.000Z</time>
      </trkpt>
      <trkpt lat="47.55638" lon="6.66925">
        <ele>501.2</ele>
        <time>2014-10-26T09:43:50.000Z</time>
      </trkpt>
      <trkpt lat="47.55635" lon="6.66921">
        <ele>501.5</ele>
        <time>2014-10-26T09:43:51.000Z</time>
      </trkpt>
      <trkpt lat="47.55631" lon="6.66917">
        <ele>502.5</ele>
        <time>2014-10-26T09:43:52.000Z</time>
      </trkpt>
      <trkpt lat="47.55627" lon="6.66913">
        <ele>503.2</ele>
        <time>2014-10-26T09:43:53.000Z</time>
      </trkpt>
      <trkpt lat="47.55623" lon="6.66909">
        <ele>504</ele>
        <time>2014-10-26T09:43:54.000Z</time>
      </trkpt>
      <trkpt lat="47.55613" lon="6.669">
        <ele>504.2</ele>
        <time>2014-10-26T09:43:55.000Z</time>
      </trkpt>
      <trkpt lat="47.55605" lon="6.66894">
        <ele>504.1</ele>
        <time>2014-10-26T09:43:56.000Z</time>
      </trkpt>
      <trkpt lat="47.55599" lon="6.66887">
        <ele>503.8</ele>
        <time>2014-10-26T09:43:57.000Z</time>
      </trkpt>
      <trkpt lat="47.55593" lon="6.66882">
        <ele>503.8</ele>
        <time>2014-10-26T09:43:58.000Z</time>
      </trkpt>
      <trkpt lat="47.55588" lon="6.66875">
        <ele>504.1</ele>
        <time>2014-10-26T09:43:59.000Z</time>
      </trkpt>
      <trkpt lat="47.55581" lon="6.6687">
        <ele>503.8</ele>
        <time>2014-10-26T09:44:00.000Z</time>
      </trkpt>
      <trkpt lat="47.55577" lon="6.66864">
        <ele>504.3</ele>
        <time>2014-10-26T09:44:01.000Z</time>
      </trkpt>
      <trkpt lat="47.55572" lon="6.66857">
        <ele>505.2</ele>
        <time>2014-10-26T09:44:02.000Z</time>
      </trkpt>
      <trkpt lat="47.55566" lon="6.66852">
        <ele>504.7</ele>
        <time>2014-10-26T09:44:03.000Z</time>
      </trkpt>
      <trkpt lat="47.55561" lon="6.66849">
        <ele>505.1</ele>
        <time>2014-10-26T09:44:04.000Z</time>
      </trkpt>
      <trkpt lat="47.55556" lon="6.66844">
        <ele>504.8</ele>
        <time>2014-10-26T09:44:05.000Z</time>
      </trkpt>
      <trkpt lat="47.55551" lon="6.6684">
        <ele>503.7</ele>
        <time>2014-10-26T09:44:06.000Z</time>
      </trkpt>
      <trkpt lat="47.55544" lon="6.66833">
        <ele>502.9</ele>
        <time>2014-10-26T09:44:07.000Z</time>
      </trkpt>
      <trkpt lat="47.5554" lon="6.66828">
        <ele>504</ele>
        <time>2014-10-26T09:44:08.000Z</time>
      </trkpt>
      <trkpt lat="47.55536" lon="6.66823">
        <ele>505.2</ele>
        <time>2014-10-26T09:44:09.000Z</time>
      </trkpt>
      <trkpt lat="47.55534" lon="6.6682">
        <ele>505.4</ele>
        <time>2014-10-26T09:44:10.000Z</time>
      </trkpt>
      <trkpt lat="47.55532" lon="6.66817">
        <ele>505.7</ele>
        <time>2014-10-26T09:44:11.000Z</time>
      </trkpt>
      <trkpt lat="47.5553" lon="6.66814">
        <ele>507.9</ele>
        <time>2014-10-26T09:44:12.000Z</time>
      </trkpt>
      <trkpt lat="47.55528" lon="6.6681">
        <ele>510.2</ele>
        <time>2014-10-26T09:44:13.000Z</time>
      </trkpt>
      <trkpt lat="47.55526" lon="6.66807">
        <ele>511.8</ele>
        <time>2014-10-26T09:44:14.000Z</time>
      </trkpt>
      <trkpt lat="47.55524" lon="6.66804">
        <ele>509.9</ele>
        <time>2014-10-26T09:44:15.000Z</time>
      </trkpt>
      <trkpt lat="47.55522" lon="6.668">
        <ele>512.8</ele>
        <time>2014-10-26T09:44:16.000Z</time>
      </trkpt>
      <trkpt lat="47.5552" lon="6.66797">
        <ele>513.8</ele>
        <time>2014-10-26T09:44:17.000Z</time>
      </trkpt>
      <trkpt lat="47.55517" lon="6.66794">
        <ele>513.9</ele>
        <time>2014-10-26T09:44:18.000Z</time>
      </trkpt>
      <trkpt lat="47.55514" lon="6.66791">
        <ele>514.5</ele>
        <time>2014-10-26T09:44:19.000Z</time>
      </trkpt>
      <trkpt lat="47.55511" lon="6.66787">
        <ele>515.5</ele>
        <time>2014-10-26T09:44:20.000Z</time>
      </trkpt>
      <trkpt lat="47.55508" lon="6.66783">
        <ele>515.8</ele>
        <time>2014-10-26T09:44:21.000Z</time>
      </trkpt>
      <trkpt lat="47.55506" lon="6.6678">
        <ele>514.9</ele>
        <time>2014-10-26T09:44:22.000Z</time>
      </trkpt>
      <trkpt lat="47.55503" lon="6.66776">
        <ele>515.6</ele>
        <time>2014-10-26T09:44:23.000Z</time>
      </trkpt>
      <trkpt lat="47.55501" lon="6.66773">
        <ele>516.7</ele>
        <time>2014-10-26T09:44:24.000Z</time>
      </trkpt>
      <trkpt lat="47.55498" lon="6.66769">
        <ele>515.3</ele>
        <time>2014-10-26T09:44:25.000Z</time>
      </trkpt>
      <trkpt lat="47.55496" lon="6.66765">
        <ele>515.5</ele>
        <time>2014-10-26T09:44:26.000Z</time>
      </trkpt>
      <trkpt lat="47.55493" lon="6.66761">
        <ele>515.7</ele>
        <time>2014-10-26T09:44:27.000Z</time>
      </trkpt>
      <trkpt lat="47.5549" lon="6.66757">
        <ele>516</ele>
        <time>2014-10-26T09:44:28.000Z</time>
      </trkpt>
      <trkpt lat="47.55488" lon="6.66753">
        <ele>517.9</ele>
        <time>2014-10-26T09:44:29.000Z</time>
      </trkpt>
      <trkpt lat="47.55485" lon="6.66748">
        <ele>517.5</ele>
        <time>2014-10-26T09:44:30.000Z</time>
      </trkpt>
      <trkpt lat="47.55482" lon="6.66744">
        <ele>516.9</ele>
        <time>2014-10-26T09:44:31.000Z</time>
      </trkpt>
      <trkpt lat="47.55479" lon="6.66739">
        <ele>515.9</ele>
        <time>2014-10-26T09:44:32.000Z</time>
      </trkpt>
      <trkpt lat="47.55476" lon="6.66735">
        <ele>517</ele>
        <time>2014-10-26T09:44:33.000Z</time>
      </trkpt>
      <trkpt lat="47.55451" lon="6.66691">
        <ele>524</ele>
        <time>2014-10-26T09:44:41.000Z</time>
      </trkpt>
      <trkpt lat="47.55446" lon="6.66683">
        <ele>522</ele>
        <time>2014-10-26T09:44:42.000Z</time>
      </trkpt>
      <trkpt lat="47.55443" lon="6.66673">
        <ele>518.3</ele>
        <time>2014-10-26T09:44:43.000Z</time>
      </trkpt>
      <trkpt lat="47.5544" lon="6.66667">
        <ele>517.6</ele>
        <time>2014-10-26T09:44:44.000Z</time>
      </trkpt>
      <trkpt lat="47.55434" lon="6.66662">
        <ele>515.2</ele>
        <time>2014-10-26T09:44:45.000Z</time>
      </trkpt>
      <trkpt lat="47.5543" lon="6.66657">
        <ele>514.7</ele>
        <time>2014-10-26T09:44:46.000Z</time>
      </trkpt>
      <trkpt lat="47.55427" lon="6.66653">
        <ele>515.4</ele>
        <time>2014-10-26T09:44:47.000Z</time>
      </trkpt>
      <trkpt lat="47.55424" lon="6.66649">
        <ele>515.4</ele>
        <time>2014-10-26T09:44:48.000Z</time>
      </trkpt>
      <trkpt lat="47.55422" lon="6.66645">
        <ele>516.2</ele>
        <time>2014-10-26T09:44:49.000Z</time>
      </trkpt>
      <trkpt lat="47.55417" lon="6.6664">
        <ele>512</ele>
        <time>2014-10-26T09:44:50.000Z</time>
      </trkpt>
      <trkpt lat="47.55415" lon="6.66635">
        <ele>511.4</ele>
        <time>2014-10-26T09:44:51.000Z</time>
      </trkpt>
      <trkpt lat="47.55414" lon="6.66632">
        <ele>512.3</ele>
        <time>2014-10-26T09:44:52.000Z</time>
      </trkpt>
      <trkpt lat="47.55411" lon="6.66628">
        <ele>512.1</ele>
        <time>2014-10-26T09:44:53.000Z</time>
      </trkpt>
      <trkpt lat="47.55409" lon="6.66622">
        <ele>511.8</ele>
        <time>2014-10-26T09:44:54.000Z</time>
      </trkpt>
      <trkpt lat="47.55408" lon="6.66617">
        <ele>511.1</ele>
        <time>2014-10-26T09:44:55.000Z</time>
      </trkpt>
      <trkpt lat="47.55408" lon="6.66612">
        <ele>511.9</ele>
        <time>2014-10-26T09:44:56.000Z</time>
      </trkpt>
      <trkpt lat="47.55407" lon="6.66607">
        <ele>512</ele>
        <time>2014-10-26T09:44:57.000Z</time>
      </trkpt>
      <trkpt lat="47.55406" lon="6.66603">
        <ele>512.8</ele>
        <time>2014-10-26T09:44:58.000Z</time>
      </trkpt>
      <trkpt lat="47.55406" lon="6.66599">
        <ele>513.7</ele>
        <time>2014-10-26T09:44:59.000Z</time>
      </trkpt>
      <trkpt lat="47.55405" lon="6.66594">
        <ele>514.5</ele>
        <time>2014-10-26T09:45:00.000Z</time>
      </trkpt>
      <trkpt lat="47.55403" lon="6.6659">
        <ele>511.7</ele>
        <time>2014-10-26T09:45:01.000Z</time>
      </trkpt>
      <trkpt lat="47.55402" lon="6.66586">
        <ele>510.7</ele>
        <time>2014-10-26T09:45:02.000Z</time>
      </trkpt>
      <trkpt lat="47.554" lon="6.66582">
        <ele>510.6</ele>
        <time>2014-10-26T09:45:03.000Z</time>
      </trkpt>
      <trkpt lat="47.55399" lon="6.66578">
        <ele>510.1</ele>
        <time>2014-10-26T09:45:04.000Z</time>
      </trkpt>
      <trkpt lat="47.55397" lon="6.66573">
        <ele>510.1</ele>
        <time>2014-10-26T09:45:05.000Z</time>
      </trkpt>
      <trkpt lat="47.55395" lon="6.66568">
        <ele>511.4</ele>
        <time>2014-10-26T09:45:06.000Z</time>
      </trkpt>
      <trkpt lat="47.55393" lon="6.66563">
        <ele>511.2</ele>
        <time>2014-10-26T09:45:07.000Z</time>
      </trkpt>
      <trkpt lat="47.5539" lon="6.66558">
        <ele>513</ele>
        <time>2014-10-26T09:45:08.000Z</time>
      </trkpt>
      <trkpt lat="47.55387" lon="6.66554">
        <ele>513.6</ele>
        <time>2014-10-26T09:45:09.000Z</time>
      </trkpt>
      <trkpt lat="47.55384" lon="6.66551">
        <ele>512.3</ele>
        <time>2014-10-26T09:45:10.000Z</time>
      </trkpt>
      <trkpt lat="47.5538" lon="6.66548">
        <ele>510.6</ele>
        <time>2014-10-26T09:45:11.000Z</time>
      </trkpt>
      <trkpt lat="47.55378" lon="6.66545">
        <ele>510.7</ele>
        <time>2014-10-26T09:45:12.000Z</time>
      </trkpt>
      <trkpt lat="47.55375" lon="6.66542">
        <ele>509.2</ele>
        <time>2014-10-26T09:45:13.000Z</time>
      </trkpt>
      <trkpt lat="47.55372" lon="6.66539">
        <ele>509.8</ele>
        <time>2014-10-26T09:45:14.000Z</time>
      </trkpt>
      <trkpt lat="47.5537" lon="6.66537">
        <ele>510.1</ele>
        <time>2014-10-26T09:45:15.000Z</time>
      </trkpt>
      <trkpt lat="47.55368" lon="6.66534">
        <ele>510.2</ele>
        <time>2014-10-26T09:45:16.000Z</time>
      </trkpt>
      <trkpt lat="47.55366" lon="6.66531">
        <ele>511.2</ele>
        <time>2014-10-26T09:45:17.000Z</time>
      </trkpt>
      <trkpt lat="47.55364" lon="6.66528">
        <ele>511.7</ele>
        <time>2014-10-26T09:45:18.000Z</time>
      </trkpt>
      <trkpt lat="47.55362" lon="6.66525">
        <ele>512.6</ele>
        <time>2014-10-26T09:45:19.000Z</time>
      </trkpt>
      <trkpt lat="47.5536" lon="6.66522">
        <ele>513</ele>
        <time>2014-10-26T09:45:20.000Z</time>
      </trkpt>
      <trkpt lat="47.55358" lon="6.66519">
        <ele>513.9</ele>
        <time>2014-10-26T09:45:21.000Z</time>
      </trkpt>
      <trkpt lat="47.55356" lon="6.66516">
        <ele>514.2</ele>
        <time>2014-10-26T09:45:22.000Z</time>
      </trkpt>
      <trkpt lat="47.55354" lon="6.66513">
        <ele>515.1</ele>
        <time>2014-10-26T09:45:23.000Z</time>
      </trkpt>
      <trkpt lat="47.55353" lon="6.6651">
        <ele>515.7</ele>
        <time>2014-10-26T09:45:24.000Z</time>
      </trkpt>
      <trkpt lat="47.55351" lon="6.66507">
        <ele>516.1</ele>
        <time>2014-10-26T09:45:25.000Z</time>
      </trkpt>
      <trkpt lat="47.5535" lon="6.66505">
        <ele>516.6</ele>
        <time>2014-10-26T09:45:26.000Z</time>
      </trkpt>
      <trkpt lat="47.55348" lon="6.66502">
        <ele>515</ele>
        <time>2014-10-26T09:45:27.000Z</time>
      </trkpt>
      <trkpt lat="47.55346" lon="6.665">
        <ele>515.7</ele>
        <time>2014-10-26T09:45:28.000Z</time>
      </trkpt>
      <trkpt lat="47.55344" lon="6.66497">
        <ele>515.9</ele>
        <time>2014-10-26T09:45:29.000Z</time>
      </trkpt>
      <trkpt lat="47.55343" lon="6.66495">
        <ele>515.6</ele>
        <time>2014-10-26T09:45:30.000Z</time>
      </trkpt>
      <trkpt lat="47.55341" lon="6.6649">
        <ele>517.1</ele>
        <time>2014-10-26T09:45:32.000Z</time>
      </trkpt>
      <trkpt lat="47.5534" lon="6.66487">
        <ele>517.6</ele>
        <time>2014-10-26T09:45:33.000Z</time>
      </trkpt>
      <trkpt lat="47.55331" lon="6.66466">
        <ele>511.1</ele>
        <time>2014-10-26T09:45:41.000Z</time>
      </trkpt>
      <trkpt lat="47.5533" lon="6.66464">
        <ele>513.1</ele>
        <time>2014-10-26T09:45:42.000Z</time>
      </trkpt>
      <trkpt lat="47.55327" lon="6.66461">
        <ele>512.2</ele>
        <time>2014-10-26T09:45:43.000Z</time>
      </trkpt>
      <trkpt lat="47.55325" lon="6.66459">
        <ele>511.6</ele>
        <time>2014-10-26T09:45:44.000Z</time>
      </trkpt>
      <trkpt lat="47.55323" lon="6.66456">
        <ele>511.5</ele>
        <time>2014-10-26T09:45:45.000Z</time>
      </trkpt>
      <trkpt lat="47.55321" lon="6.66454">
        <ele>513.8</ele>
        <time>2014-10-26T09:45:46.000Z</time>
      </trkpt>
      <trkpt lat="47.55319" lon="6.66451">
        <ele>513.5</ele>
        <time>2014-10-26T09:45:47.000Z</time>
      </trkpt>
      <trkpt lat="47.55317" lon="6.66448">
        <ele>513.6</ele>
        <time>2014-10-26T09:45:48.000Z</time>
      </trkpt>
      <trkpt lat="47.55316" lon="6.66446">
        <ele>513.6</ele>
        <time>2014-10-26T09:45:48.999Z</time>
      </trkpt>
      <trkpt lat="47.55314" lon="6.66443">
        <ele>514</ele>
        <time>2014-10-26T09:45:50.000Z</time>
      </trkpt>
      <trkpt lat="47.55312" lon="6.66441">
        <ele>514.3</ele>
        <time>2014-10-26T09:45:51.002Z</time>
      </trkpt>
      <trkpt lat="47.55311" lon="6.66438">
        <ele>514.7</ele>
        <time>2014-10-26T09:45:52.000Z</time>
      </trkpt>
      <trkpt lat="47.5531" lon="6.66435">
        <ele>514.6</ele>
        <time>2014-10-26T09:45:53.000Z</time>
      </trkpt>
      <trkpt lat="47.55309" lon="6.66431">
        <ele>514.1</ele>
        <time>2014-10-26T09:45:54.000Z</time>
      </trkpt>
      <trkpt lat="47.55308" lon="6.66426">
        <ele>514.1</ele>
        <time>2014-10-26T09:45:55.000Z</time>
      </trkpt>
      <trkpt lat="47.55308" lon="6.66422">
        <ele>514.5</ele>
        <time>2014-10-26T09:45:56.000Z</time>
      </trkpt>
      <trkpt lat="47.55307" lon="6.66418">
        <ele>514.4</ele>
        <time>2014-10-26T09:45:57.000Z</time>
      </trkpt>
      <trkpt lat="47.55306" lon="6.66411">
        <ele>516.1</ele>
        <time>2014-10-26T09:45:59.000Z</time>
      </trkpt>
      <trkpt lat="47.55305" lon="6.6641">
        <ele>515.2</ele>
        <time>2014-10-26T09:46:00.000Z</time>
      </trkpt>
      <trkpt lat="47.55302" lon="6.66406">
        <ele>515.3</ele>
        <time>2014-10-26T09:46:02.000Z</time>
      </trkpt>
      <trkpt lat="47.55301" lon="6.66404">
        <ele>512.8</ele>
        <time>2014-10-26T09:46:03.000Z</time>
      </trkpt>
      <trkpt lat="47.55298" lon="6.66401">
        <ele>513</ele>
        <time>2014-10-26T09:46:09.000Z</time>
      </trkpt>
      <trkpt lat="47.55297" lon="6.66399">
        <ele>513.1</ele>
        <time>2014-10-26T09:46:10.000Z</time>
      </trkpt>
      <trkpt lat="47.55295" lon="6.66396">
        <ele>514.5</ele>
        <time>2014-10-26T09:46:12.000Z</time>
      </trkpt>
      <trkpt lat="47.55293" lon="6.66394">
        <ele>514.5</ele>
        <time>2014-10-26T09:46:13.000Z</time>
      </trkpt>
      <trkpt lat="47.55291" lon="6.6639">
        <ele>514.8</ele>
        <time>2014-10-26T09:46:15.000Z</time>
      </trkpt>
      <trkpt lat="47.5529" lon="6.66388">
        <ele>515.8</ele>
        <time>2014-10-26T09:46:16.000Z</time>
      </trkpt>
      <trkpt lat="47.55288" lon="6.66383">
        <ele>515.6</ele>
        <time>2014-10-26T09:46:19.000Z</time>
      </trkpt>
      <trkpt lat="47.55288" lon="6.66381">
        <ele>517.2</ele>
        <time>2014-10-26T09:46:20.000Z</time>
      </trkpt>
      <trkpt lat="47.55289" lon="6.66377">
        <ele>517.9</ele>
        <time>2014-10-26T09:46:22.000Z</time>
      </trkpt>
      <trkpt lat="47.55288" lon="6.66374">
        <ele>519</ele>
        <time>2014-10-26T09:46:23.000Z</time>
      </trkpt>
      <trkpt lat="47.55287" lon="6.6637">
        <ele>516.8</ele>
        <time>2014-10-26T09:46:24.000Z</time>
      </trkpt>
      <trkpt lat="47.55286" lon="6.66367">
        <ele>516.1</ele>
        <time>2014-10-26T09:46:25.000Z</time>
      </trkpt>
      <trkpt lat="47.55284" lon="6.66363">
        <ele>517.8</ele>
        <time>2014-10-26T09:46:26.000Z</time>
      </trkpt>
      <trkpt lat="47.55283" lon="6.6636">
        <ele>517.6</ele>
        <time>2014-10-26T09:46:27.000Z</time>
      </trkpt>
      <trkpt lat="47.5528" lon="6.66355">
        <ele>518.5</ele>
        <time>2014-10-26T09:46:29.000Z</time>
      </trkpt>
      <trkpt lat="47.55279" lon="6.66352">
        <ele>518.6</ele>
        <time>2014-10-26T09:46:30.000Z</time>
      </trkpt>
      <trkpt lat="47.55278" lon="6.66349">
        <ele>518.4</ele>
        <time>2014-10-26T09:46:31.000Z</time>
      </trkpt>
      <trkpt lat="47.55276" lon="6.66346">
        <ele>518.5</ele>
        <time>2014-10-26T09:46:32.000Z</time>
      </trkpt>
      <trkpt lat="47.55275" lon="6.66343">
        <ele>518.6</ele>
        <time>2014-10-26T09:46:33.000Z</time>
      </trkpt>
      <trkpt lat="47.55272" lon="6.66337">
        <ele>514.8</ele>
        <time>2014-10-26T09:46:36.000Z</time>
      </trkpt>
      <trkpt lat="47.55271" lon="6.66334">
        <ele>514.2</ele>
        <time>2014-10-26T09:46:37.000Z</time>
      </trkpt>
      <trkpt lat="47.55269" lon="6.66331">
        <ele>513.7</ele>
        <time>2014-10-26T09:46:38.000Z</time>
      </trkpt>
      <trkpt lat="47.55268" lon="6.66328">
        <ele>513.3</ele>
        <time>2014-10-26T09:46:39.000Z</time>
      </trkpt>
      <trkpt lat="47.55266" lon="6.66326">
        <ele>513.3</ele>
        <time>2014-10-26T09:46:40.000Z</time>
      </trkpt>
      <trkpt lat="47.55264" lon="6.66324">
        <ele>513.6</ele>
        <time>2014-10-26T09:46:41.000Z</time>
      </trkpt>
      <trkpt lat="47.55262" lon="6.66321">
        <ele>511.7</ele>
        <time>2014-10-26T09:46:42.000Z</time>
      </trkpt>
      <trkpt lat="47.5526" lon="6.66319">
        <ele>514.4</ele>
        <time>2014-10-26T09:46:43.000Z</time>
      </trkpt>
      <trkpt lat="47.55258" lon="6.66316">
        <ele>515.1</ele>
        <time>2014-10-26T09:46:44.000Z</time>
      </trkpt>
      <trkpt lat="47.55255" lon="6.66313">
        <ele>515.1</ele>
        <time>2014-10-26T09:46:45.000Z</time>
      </trkpt>
      <trkpt lat="47.55253" lon="6.66311">
        <ele>514.8</ele>
        <time>2014-10-26T09:46:46.000Z</time>
      </trkpt>
      <trkpt lat="47.55251" lon="6.66309">
        <ele>516.2</ele>
        <time>2014-10-26T09:46:47.000Z</time>
      </trkpt>
      <trkpt lat="47.55249" lon="6.66306">
        <ele>516.6</ele>
        <time>2014-10-26T09:46:48.000Z</time>
      </trkpt>
      <trkpt lat="47.55248" lon="6.66304">
        <ele>517.3</ele>
        <time>2014-10-26T09:46:49.000Z</time>
      </trkpt>
      <trkpt lat="47.55247" lon="6.66301">
        <ele>518.5</ele>
        <time>2014-10-26T09:46:50.000Z</time>
      </trkpt>
      <trkpt lat="47.55244" lon="6.66295">
        <ele>519.2</ele>
        <time>2014-10-26T09:46:52.000Z</time>
      </trkpt>
      <trkpt lat="47.55243" lon="6.66293">
        <ele>518.8</ele>
        <time>2014-10-26T09:46:53.000Z</time>
      </trkpt>
      <trkpt lat="47.55241" lon="6.66288">
        <ele>519.1</ele>
        <time>2014-10-26T09:46:55.000Z</time>
      </trkpt>
      <trkpt lat="47.55239" lon="6.66286">
        <ele>519.8</ele>
        <time>2014-10-26T09:46:56.000Z</time>
      </trkpt>
      <trkpt lat="47.55237" lon="6.66283">
        <ele>520.6</ele>
        <time>2014-10-26T09:46:57.000Z</time>
      </trkpt>
      <trkpt lat="47.55234" lon="6.6628">
        <ele>520.9</ele>
        <time>2014-10-26T09:46:58.000Z</time>
      </trkpt>
      <trkpt lat="47.55232" lon="6.66277">
        <ele>521.1</ele>
        <time>2014-10-26T09:46:59.000Z</time>
      </trkpt>
      <trkpt lat="47.55229" lon="6.66273">
        <ele>521.6</ele>
        <time>2014-10-26T09:47:00.000Z</time>
      </trkpt>
      <trkpt lat="47.55227" lon="6.66269">
        <ele>522</ele>
        <time>2014-10-26T09:47:01.000Z</time>
      </trkpt>
      <trkpt lat="47.55224" lon="6.66265">
        <ele>522.7</ele>
        <time>2014-10-26T09:47:02.000Z</time>
      </trkpt>
      <trkpt lat="47.55221" lon="6.66261">
        <ele>520.6</ele>
        <time>2014-10-26T09:47:03.000Z</time>
      </trkpt>
      <trkpt lat="47.55217" lon="6.66257">
        <ele>521.4</ele>
        <time>2014-10-26T09:47:04.000Z</time>
      </trkpt>
      <trkpt lat="47.55214" lon="6.66253">
        <ele>522.9</ele>
        <time>2014-10-26T09:47:05.000Z</time>
      </trkpt>
      <trkpt lat="47.5521" lon="6.6625">
        <ele>522.4</ele>
        <time>2014-10-26T09:47:06.000Z</time>
      </trkpt>
      <trkpt lat="47.55207" lon="6.66245">
        <ele>523.2</ele>
        <time>2014-10-26T09:47:07.000Z</time>
      </trkpt>
      <trkpt lat="47.55204" lon="6.66242">
        <ele>521.5</ele>
        <time>2014-10-26T09:47:08.000Z</time>
      </trkpt>
      <trkpt lat="47.55202" lon="6.66238">
        <ele>521</ele>
        <time>2014-10-26T09:47:09.000Z</time>
      </trkpt>
      <trkpt lat="47.55199" lon="6.66234">
        <ele>520.8</ele>
        <time>2014-10-26T09:47:10.000Z</time>
      </trkpt>
      <trkpt lat="47.55197" lon="6.66231">
        <ele>520.9</ele>
        <time>2014-10-26T09:47:11.000Z</time>
      </trkpt>
      <trkpt lat="47.55194" lon="6.66228">
        <ele>521.2</ele>
        <time>2014-10-26T09:47:12.000Z</time>
      </trkpt>
      <trkpt lat="47.55191" lon="6.66225">
        <ele>522</ele>
        <time>2014-10-26T09:47:13.000Z</time>
      </trkpt>
      <trkpt lat="47.55189" lon="6.66222">
        <ele>522.5</ele>
        <time>2014-10-26T09:47:14.000Z</time>
      </trkpt>
      <trkpt lat="47.55186" lon="6.6622">
        <ele>524.2</ele>
        <time>2014-10-26T09:47:15.000Z</time>
      </trkpt>
      <trkpt lat="47.55183" lon="6.66218">
        <ele>525.1</ele>
        <time>2014-10-26T09:47:16.000Z</time>
      </trkpt>
      <trkpt lat="47.5518" lon="6.66216">
        <ele>528.3</ele>
        <time>2014-10-26T09:47:18.000Z</time>
      </trkpt>
      <trkpt lat="47.55178" lon="6.66213">
        <ele>529.3</ele>
        <time>2014-10-26T09:47:19.000Z</time>
      </trkpt>
      <trkpt lat="47.55176" lon="6.6621">
        <ele>527.6</ele>
        <time>2014-10-26T09:47:20.000Z</time>
      </trkpt>
      <trkpt lat="47.55173" lon="6.66208">
        <ele>527.1</ele>
        <time>2014-10-26T09:47:21.000Z</time>
      </trkpt>
      <trkpt lat="47.5517" lon="6.66208">
        <ele>527.6</ele>
        <time>2014-10-26T09:47:22.000Z</time>
      </trkpt>
      <trkpt lat="47.55167" lon="6.66209">
        <ele>526.8</ele>
        <time>2014-10-26T09:47:23.000Z</time>
      </trkpt>
      <trkpt lat="47.55164" lon="6.66209">
        <ele>527.3</ele>
        <time>2014-10-26T09:47:24.000Z</time>
      </trkpt>
      <trkpt lat="47.55161" lon="6.66209">
        <ele>527.3</ele>
        <time>2014-10-26T09:47:25.000Z</time>
      </trkpt>
      <trkpt lat="47.55159" lon="6.66207">
        <ele>528.1</ele>
        <time>2014-10-26T09:47:26.000Z</time>
      </trkpt>
      <trkpt lat="47.55156" lon="6.66204">
        <ele>528.4</ele>
        <time>2014-10-26T09:47:27.000Z</time>
      </trkpt>
      <trkpt lat="47.55153" lon="6.662">
        <ele>528.7</ele>
        <time>2014-10-26T09:47:28.000Z</time>
      </trkpt>
      <trkpt lat="47.55151" lon="6.66196">
        <ele>530.6</ele>
        <time>2014-10-26T09:47:29.000Z</time>
      </trkpt>
      <trkpt lat="47.55148" lon="6.66195">
        <ele>531.3</ele>
        <time>2014-10-26T09:47:30.000Z</time>
      </trkpt>
      <trkpt lat="47.55146" lon="6.66194">
        <ele>531.3</ele>
        <time>2014-10-26T09:47:31.000Z</time>
      </trkpt>
      <trkpt lat="47.55142" lon="6.66193">
        <ele>530.2</ele>
        <time>2014-10-26T09:47:32.000Z</time>
      </trkpt>
      <trkpt lat="47.55139" lon="6.66192">
        <ele>530</ele>
        <time>2014-10-26T09:47:33.000Z</time>
      </trkpt>
      <trkpt lat="47.55135" lon="6.6619">
        <ele>530</ele>
        <time>2014-10-26T09:47:34.000Z</time>
      </trkpt>
      <trkpt lat="47.55124" lon="6.66184">
        <ele>527.7</ele>
        <time>2014-10-26T09:47:37.000Z</time>
      </trkpt>
      <trkpt lat="47.55119" lon="6.66182">
        <ele>526.4</ele>
        <time>2014-10-26T09:47:38.000Z</time>
      </trkpt>
      <trkpt lat="47.55115" lon="6.66179">
        <ele>527.8</ele>
        <time>2014-10-26T09:47:39.000Z</time>
      </trkpt>
      <trkpt lat="47.55111" lon="6.66176">
        <ele>527.1</ele>
        <time>2014-10-26T09:47:40.000Z</time>
      </trkpt>
      <trkpt lat="47.55107" lon="6.66173">
        <ele>526.7</ele>
        <time>2014-10-26T09:47:41.000Z</time>
      </trkpt>
      <trkpt lat="47.55104" lon="6.66171">
        <ele>527.2</ele>
        <time>2014-10-26T09:47:42.000Z</time>
      </trkpt>
      <trkpt lat="47.551" lon="6.66169">
        <ele>527.3</ele>
        <time>2014-10-26T09:47:43.000Z</time>
      </trkpt>
      <trkpt lat="47.55097" lon="6.66168">
        <ele>527.6</ele>
        <time>2014-10-26T09:47:44.000Z</time>
      </trkpt>
      <trkpt lat="47.55094" lon="6.66167">
        <ele>527.8</ele>
        <time>2014-10-26T09:47:45.000Z</time>
      </trkpt>
      <trkpt lat="47.55091" lon="6.66165">
        <ele>528</ele>
        <time>2014-10-26T09:47:46.000Z</time>
      </trkpt>
      <trkpt lat="47.55089" lon="6.66163">
        <ele>527.8</ele>
        <time>2014-10-26T09:47:47.000Z</time>
      </trkpt>
      <trkpt lat="47.55086" lon="6.6616">
        <ele>528</ele>
        <time>2014-10-26T09:47:48.000Z</time>
      </trkpt>
      <trkpt lat="47.55084" lon="6.66158">
        <ele>529</ele>
        <time>2014-10-26T09:47:49.000Z</time>
      </trkpt>
      <trkpt lat="47.55082" lon="6.66156">
        <ele>528.6</ele>
        <time>2014-10-26T09:47:50.000Z</time>
      </trkpt>
      <trkpt lat="47.55079" lon="6.66153">
        <ele>530</ele>
        <time>2014-10-26T09:47:51.000Z</time>
      </trkpt>
      <trkpt lat="47.55077" lon="6.6615">
        <ele>530.8</ele>
        <time>2014-10-26T09:47:52.000Z</time>
      </trkpt>
      <trkpt lat="47.55075" lon="6.66147">
        <ele>531.3</ele>
        <time>2014-10-26T09:47:53.000Z</time>
      </trkpt>
      <trkpt lat="47.55073" lon="6.66145">
        <ele>531.9</ele>
        <time>2014-10-26T09:47:54.000Z</time>
      </trkpt>
      <trkpt lat="47.55071" lon="6.66144">
        <ele>532.3</ele>
        <time>2014-10-26T09:47:55.000Z</time>
      </trkpt>
      <trkpt lat="47.55068" lon="6.66144">
        <ele>531.7</ele>
        <time>2014-10-26T09:47:56.000Z</time>
      </trkpt>
      <trkpt lat="47.55065" lon="6.66145">
        <ele>531.3</ele>
        <time>2014-10-26T09:47:57.000Z</time>
      </trkpt>
      <trkpt lat="47.55062" lon="6.66145">
        <ele>531.4</ele>
        <time>2014-10-26T09:47:58.000Z</time>
      </trkpt>
      <trkpt lat="47.5506" lon="6.66145">
        <ele>531</ele>
        <time>2014-10-26T09:47:59.000Z</time>
      </trkpt>
      <trkpt lat="47.55057" lon="6.66145">
        <ele>531.2</ele>
        <time>2014-10-26T09:48:00.000Z</time>
      </trkpt>
      <trkpt lat="47.55055" lon="6.66144">
        <ele>530.4</ele>
        <time>2014-10-26T09:48:01.000Z</time>
      </trkpt>
      <trkpt lat="47.55052" lon="6.66142">
        <ele>529.6</ele>
        <time>2014-10-26T09:48:02.000Z</time>
      </trkpt>
      <trkpt lat="47.55049" lon="6.6614">
        <ele>529.3</ele>
        <time>2014-10-26T09:48:03.000Z</time>
      </trkpt>
      <trkpt lat="47.55046" lon="6.66137">
        <ele>529.8</ele>
        <time>2014-10-26T09:48:04.000Z</time>
      </trkpt>
      <trkpt lat="47.55043" lon="6.66135">
        <ele>533.1</ele>
        <time>2014-10-26T09:48:05.000Z</time>
      </trkpt>
      <trkpt lat="47.55038" lon="6.66132">
        <ele>532</ele>
        <time>2014-10-26T09:48:06.000Z</time>
      </trkpt>
      <trkpt lat="47.55033" lon="6.6613">
        <ele>531.3</ele>
        <time>2014-10-26T09:48:07.000Z</time>
      </trkpt>
      <trkpt lat="47.55028" lon="6.66128">
        <ele>532.4</ele>
        <time>2014-10-26T09:48:08.000Z</time>
      </trkpt>
      <trkpt lat="47.55023" lon="6.66125">
        <ele>529.3</ele>
        <time>2014-10-26T09:48:09.000Z</time>
      </trkpt>
      <trkpt lat="47.55018" lon="6.66122">
        <ele>527</ele>
        <time>2014-10-26T09:48:10.000Z</time>
      </trkpt>
      <trkpt lat="47.55013" lon="6.66119">
        <ele>525.9</ele>
        <time>2014-10-26T09:48:11.000Z</time>
      </trkpt>
      <trkpt lat="47.55008" lon="6.66115">
        <ele>524.4</ele>
        <time>2014-10-26T09:48:12.000Z</time>
      </trkpt>
      <trkpt lat="47.55004" lon="6.66111">
        <ele>524.3</ele>
        <time>2014-10-26T09:48:13.000Z</time>
      </trkpt>
      <trkpt lat="47.55" lon="6.66106">
        <ele>525.3</ele>
        <time>2014-10-26T09:48:14.000Z</time>
      </trkpt>
      <trkpt lat="47.54995" lon="6.66102">
        <ele>524.8</ele>
        <time>2014-10-26T09:48:15.000Z</time>
      </trkpt>
      <trkpt lat="47.54992" lon="6.66099">
        <ele>523.8</ele>
        <time>2014-10-26T09:48:16.000Z</time>
      </trkpt>
      <trkpt lat="47.54988" lon="6.66096">
        <ele>523.7</ele>
        <time>2014-10-26T09:48:17.000Z</time>
      </trkpt>
      <trkpt lat="47.54985" lon="6.66095">
        <ele>523.4</ele>
        <time>2014-10-26T09:48:18.000Z</time>
      </trkpt>
      <trkpt lat="47.54982" lon="6.66093">
        <ele>523.7</ele>
        <time>2014-10-26T09:48:19.000Z</time>
      </trkpt>
      <trkpt lat="47.5498" lon="6.66091">
        <ele>523.6</ele>
        <time>2014-10-26T09:48:20.000Z</time>
      </trkpt>
      <trkpt lat="47.54978" lon="6.66088">
        <ele>526.9</ele>
        <time>2014-10-26T09:48:21.000Z</time>
      </trkpt>
      <trkpt lat="47.54975" lon="6.66085">
        <ele>526.8</ele>
        <time>2014-10-26T09:48:22.000Z</time>
      </trkpt>
      <trkpt lat="47.54972" lon="6.66082">
        <ele>527.5</ele>
        <time>2014-10-26T09:48:23.000Z</time>
      </trkpt>
      <trkpt lat="47.54969" lon="6.66079">
        <ele>527.7</ele>
        <time>2014-10-26T09:48:24.000Z</time>
      </trkpt>
      <trkpt lat="47.54966" lon="6.66076">
        <ele>528.8</ele>
        <time>2014-10-26T09:48:25.000Z</time>
      </trkpt>
      <trkpt lat="47.54963" lon="6.66073">
        <ele>529.2</ele>
        <time>2014-10-26T09:48:26.000Z</time>
      </trkpt>
      <trkpt lat="47.54961" lon="6.6607">
        <ele>529.5</ele>
        <time>2014-10-26T09:48:27.000Z</time>
      </trkpt>
      <trkpt lat="47.54959" lon="6.66068">
        <ele>529.8</ele>
        <time>2014-10-26T09:48:28.000Z</time>
      </trkpt>
      <trkpt lat="47.54956" lon="6.66064">
        <ele>531</ele>
        <time>2014-10-26T09:48:29.000Z</time>
      </trkpt>
      <trkpt lat="47.54954" lon="6.6606">
        <ele>533.2</ele>
        <time>2014-10-26T09:48:30.000Z</time>
      </trkpt>
      <trkpt lat="47.54952" lon="6.66057">
        <ele>534.2</ele>
        <time>2014-10-26T09:48:31.000Z</time>
      </trkpt>
      <trkpt lat="47.54949" lon="6.66053">
        <ele>533.6</ele>
        <time>2014-10-26T09:48:32.000Z</time>
      </trkpt>
      <trkpt lat="47.54947" lon="6.6605">
        <ele>532.6</ele>
        <time>2014-10-26T09:48:33.000Z</time>
      </trkpt>
      <trkpt lat="47.54926" lon="6.66027">
        <ele>530.6</ele>
        <time>2014-10-26T09:48:41.000Z</time>
      </trkpt>
      <trkpt lat="47.54923" lon="6.66025">
        <ele>531</ele>
        <time>2014-10-26T09:48:42.000Z</time>
      </trkpt>
      <trkpt lat="47.5492" lon="6.66024">
        <ele>528.7</ele>
        <time>2014-10-26T09:48:43.000Z</time>
      </trkpt>
      <trkpt lat="47.54916" lon="6.66024">
        <ele>527.8</ele>
        <time>2014-10-26T09:48:44.000Z</time>
      </trkpt>
      <trkpt lat="47.54912" lon="6.66024">
        <ele>527</ele>
        <time>2014-10-26T09:48:45.000Z</time>
      </trkpt>
      <trkpt lat="47.54908" lon="6.66023">
        <ele>526.3</ele>
        <time>2014-10-26T09:48:46.000Z</time>
      </trkpt>
      <trkpt lat="47.54904" lon="6.66022">
        <ele>526.2</ele>
        <time>2014-10-26T09:48:47.000Z</time>
      </trkpt>
      <trkpt lat="47.54901" lon="6.6602">
        <ele>526</ele>
        <time>2014-10-26T09:48:48.000Z</time>
      </trkpt>
      <trkpt lat="47.54897" lon="6.66018">
        <ele>527.9</ele>
        <time>2014-10-26T09:48:49.000Z</time>
      </trkpt>
      <trkpt lat="47.54894" lon="6.66016">
        <ele>528.3</ele>
        <time>2014-10-26T09:48:50.000Z</time>
      </trkpt>
      <trkpt lat="47.5489" lon="6.66014">
        <ele>529.7</ele>
        <time>2014-10-26T09:48:51.000Z</time>
      </trkpt>
      <trkpt lat="47.54886" lon="6.66012">
        <ele>528.8</ele>
        <time>2014-10-26T09:48:52.000Z</time>
      </trkpt>
      <trkpt lat="47.54883" lon="6.66011">
        <ele>528.6</ele>
        <time>2014-10-26T09:48:53.000Z</time>
      </trkpt>
      <trkpt lat="47.54879" lon="6.66009">
        <ele>526.7</ele>
        <time>2014-10-26T09:48:54.000Z</time>
      </trkpt>
      <trkpt lat="47.54875" lon="6.66008">
        <ele>525.1</ele>
        <time>2014-10-26T09:48:55.000Z</time>
      </trkpt>
      <trkpt lat="47.54871" lon="6.66007">
        <ele>522</ele>
        <time>2014-10-26T09:48:56.000Z</time>
      </trkpt>
      <trkpt lat="47.54867" lon="6.66007">
        <ele>521.3</ele>
        <time>2014-10-26T09:48:57.000Z</time>
      </trkpt>
      <trkpt lat="47.54862" lon="6.66007">
        <ele>521.6</ele>
        <time>2014-10-26T09:48:58.000Z</time>
      </trkpt>
      <trkpt lat="47.54858" lon="6.66005">
        <ele>520.5</ele>
        <time>2014-10-26T09:48:59.000Z</time>
      </trkpt>
      <trkpt lat="47.54854" lon="6.66003">
        <ele>520.1</ele>
        <time>2014-10-26T09:49:00.000Z</time>
      </trkpt>
      <trkpt lat="47.5485" lon="6.66">
        <ele>520.1</ele>
        <time>2014-10-26T09:49:01.000Z</time>
      </trkpt>
      <trkpt lat="47.54844" lon="6.65995">
        <ele>520.6</ele>
        <time>2014-10-26T09:49:02.000Z</time>
      </trkpt>
      <trkpt lat="47.54839" lon="6.6599">
        <ele>521.6</ele>
        <time>2014-10-26T09:49:03.000Z</time>
      </trkpt>
      <trkpt lat="47.54834" lon="6.65985">
        <ele>522.3</ele>
        <time>2014-10-26T09:49:04.000Z</time>
      </trkpt>
      <trkpt lat="47.54829" lon="6.65981">
        <ele>522.2</ele>
        <time>2014-10-26T09:49:05.000Z</time>
      </trkpt>
      <trkpt lat="47.54825" lon="6.65977">
        <ele>522.2</ele>
        <time>2014-10-26T09:49:06.000Z</time>
      </trkpt>
      <trkpt lat="47.5482" lon="6.65974">
        <ele>519.9</ele>
        <time>2014-10-26T09:49:07.000Z</time>
      </trkpt>
      <trkpt lat="47.54814" lon="6.65972">
        <ele>519.1</ele>
        <time>2014-10-26T09:49:08.000Z</time>
      </trkpt>
      <trkpt lat="47.54809" lon="6.6597">
        <ele>518.8</ele>
        <time>2014-10-26T09:49:09.000Z</time>
      </trkpt>
      <trkpt lat="47.54804" lon="6.65968">
        <ele>520.5</ele>
        <time>2014-10-26T09:49:10.000Z</time>
      </trkpt>
      <trkpt lat="47.54799" lon="6.65966">
        <ele>520.4</ele>
        <time>2014-10-26T09:49:11.000Z</time>
      </trkpt>
      <trkpt lat="47.54794" lon="6.65963">
        <ele>520.6</ele>
        <time>2014-10-26T09:49:12.000Z</time>
      </trkpt>
      <trkpt lat="47.5479" lon="6.65961">
        <ele>518.6</ele>
        <time>2014-10-26T09:49:13.000Z</time>
      </trkpt>
      <trkpt lat="47.54785" lon="6.65958">
        <ele>517.5</ele>
        <time>2014-10-26T09:49:14.000Z</time>
      </trkpt>
      <trkpt lat="47.54781" lon="6.65956">
        <ele>517.1</ele>
        <time>2014-10-26T09:49:15.000Z</time>
      </trkpt>
      <trkpt lat="47.54776" lon="6.65954">
        <ele>516.2</ele>
        <time>2014-10-26T09:49:16.000Z</time>
      </trkpt>
      <trkpt lat="47.54771" lon="6.65952">
        <ele>515.8</ele>
        <time>2014-10-26T09:49:17.000Z</time>
      </trkpt>
      <trkpt lat="47.54766" lon="6.6595">
        <ele>515.9</ele>
        <time>2014-10-26T09:49:18.000Z</time>
      </trkpt>
      <trkpt lat="47.5476" lon="6.6595">
        <ele>514.8</ele>
        <time>2014-10-26T09:49:19.000Z</time>
      </trkpt>
      <trkpt lat="47.54755" lon="6.6595">
        <ele>514.2</ele>
        <time>2014-10-26T09:49:20.000Z</time>
      </trkpt>
      <trkpt lat="47.5475" lon="6.6595">
        <ele>513.5</ele>
        <time>2014-10-26T09:49:21.000Z</time>
      </trkpt>
      <trkpt lat="47.54746" lon="6.6595">
        <ele>513.1</ele>
        <time>2014-10-26T09:49:22.000Z</time>
      </trkpt>
      <trkpt lat="47.54742" lon="6.65948">
        <ele>513.7</ele>
        <time>2014-10-26T09:49:23.000Z</time>
      </trkpt>
      <trkpt lat="47.54735" lon="6.6594">
        <ele>510.2</ele>
        <time>2014-10-26T09:49:24.000Z</time>
      </trkpt>
      <trkpt lat="47.54731" lon="6.65936">
        <ele>510.6</ele>
        <time>2014-10-26T09:49:25.000Z</time>
      </trkpt>
      <trkpt lat="47.54728" lon="6.65934">
        <ele>509.7</ele>
        <time>2014-10-26T09:49:26.000Z</time>
      </trkpt>
      <trkpt lat="47.54723" lon="6.65932">
        <ele>508.8</ele>
        <time>2014-10-26T09:49:27.000Z</time>
      </trkpt>
      <trkpt lat="47.5472" lon="6.6593">
        <ele>508.5</ele>
        <time>2014-10-26T09:49:28.000Z</time>
      </trkpt>
      <trkpt lat="47.54717" lon="6.65926">
        <ele>508.1</ele>
        <time>2014-10-26T09:49:29.000Z</time>
      </trkpt>
      <trkpt lat="47.54713" lon="6.65923">
        <ele>508.8</ele>
        <time>2014-10-26T09:49:30.000Z</time>
      </trkpt>
      <trkpt lat="47.54707" lon="6.65922">
        <ele>508.5</ele>
        <time>2014-10-26T09:49:31.000Z</time>
      </trkpt>
      <trkpt lat="47.54703" lon="6.65919">
        <ele>509.5</ele>
        <time>2014-10-26T09:49:32.000Z</time>
      </trkpt>
      <trkpt lat="47.54698" lon="6.65919">
        <ele>508.3</ele>
        <time>2014-10-26T09:49:33.000Z</time>
      </trkpt>
      <trkpt lat="47.54672" lon="6.65909">
        <ele>508.6</ele>
        <time>2014-10-26T09:49:41.000Z</time>
      </trkpt>
      <trkpt lat="47.54669" lon="6.65908">
        <ele>508.6</ele>
        <time>2014-10-26T09:49:42.000Z</time>
      </trkpt>
      <trkpt lat="47.54665" lon="6.65907">
        <ele>507.7</ele>
        <time>2014-10-26T09:49:43.000Z</time>
      </trkpt>
      <trkpt lat="47.54662" lon="6.65906">
        <ele>509.1</ele>
        <time>2014-10-26T09:49:44.000Z</time>
      </trkpt>
      <trkpt lat="47.54659" lon="6.65904">
        <ele>507.5</ele>
        <time>2014-10-26T09:49:45.000Z</time>
      </trkpt>
      <trkpt lat="47.54655" lon="6.65901">
        <ele>507.1</ele>
        <time>2014-10-26T09:49:46.000Z</time>
      </trkpt>
      <trkpt lat="47.54652" lon="6.659">
        <ele>507.3</ele>
        <time>2014-10-26T09:49:47.000Z</time>
      </trkpt>
      <trkpt lat="47.54649" lon="6.65898">
        <ele>508.9</ele>
        <time>2014-10-26T09:49:48.000Z</time>
      </trkpt>
      <trkpt lat="47.54646" lon="6.65897">
        <ele>509.2</ele>
        <time>2014-10-26T09:49:49.000Z</time>
      </trkpt>
      <trkpt lat="47.54643" lon="6.65895">
        <ele>509.2</ele>
        <time>2014-10-26T09:49:50.000Z</time>
      </trkpt>
      <trkpt lat="47.5464" lon="6.65893">
        <ele>507.9</ele>
        <time>2014-10-26T09:49:51.000Z</time>
      </trkpt>
      <trkpt lat="47.54637" lon="6.65892">
        <ele>506.9</ele>
        <time>2014-10-26T09:49:52.000Z</time>
      </trkpt>
      <trkpt lat="47.54635" lon="6.6589">
        <ele>508.1</ele>
        <time>2014-10-26T09:49:53.000Z</time>
      </trkpt>
      <trkpt lat="47.54633" lon="6.65889">
        <ele>508.1</ele>
        <time>2014-10-26T09:49:54.000Z</time>
      </trkpt>
      <trkpt lat="47.5463" lon="6.65888">
        <ele>507.9</ele>
        <time>2014-10-26T09:49:55.000Z</time>
      </trkpt>
      <trkpt lat="47.54627" lon="6.65886">
        <ele>508.3</ele>
        <time>2014-10-26T09:49:56.000Z</time>
      </trkpt>
      <trkpt lat="47.54624" lon="6.65885">
        <ele>509</ele>
        <time>2014-10-26T09:49:57.000Z</time>
      </trkpt>
      <trkpt lat="47.54622" lon="6.65884">
        <ele>510.2</ele>
        <time>2014-10-26T09:49:58.000Z</time>
      </trkpt>
      <trkpt lat="47.54619" lon="6.65883">
        <ele>510.7</ele>
        <time>2014-10-26T09:49:59.000Z</time>
      </trkpt>
      <trkpt lat="47.54615" lon="6.65882">
        <ele>510.3</ele>
        <time>2014-10-26T09:50:00.000Z</time>
      </trkpt>
      <trkpt lat="47.54611" lon="6.65881">
        <ele>510.3</ele>
        <time>2014-10-26T09:50:01.000Z</time>
      </trkpt>
      <trkpt lat="47.54608" lon="6.6588">
        <ele>511.2</ele>
        <time>2014-10-26T09:50:02.000Z</time>
      </trkpt>
      <trkpt lat="47.54606" lon="6.65877">
        <ele>511.6</ele>
        <time>2014-10-26T09:50:03.000Z</time>
      </trkpt>
      <trkpt lat="47.54604" lon="6.65875">
        <ele>512</ele>
        <time>2014-10-26T09:50:04.000Z</time>
      </trkpt>
      <trkpt lat="47.54602" lon="6.65872">
        <ele>513.2</ele>
        <time>2014-10-26T09:50:05.000Z</time>
      </trkpt>
      <trkpt lat="47.546" lon="6.65869">
        <ele>513.7</ele>
        <time>2014-10-26T09:50:06.000Z</time>
      </trkpt>
      <trkpt lat="47.54598" lon="6.65865">
        <ele>517</ele>
        <time>2014-10-26T09:50:07.000Z</time>
      </trkpt>
      <trkpt lat="47.54595" lon="6.65861">
        <ele>518.1</ele>
        <time>2014-10-26T09:50:08.000Z</time>
      </trkpt>
      <trkpt lat="47.54593" lon="6.65858">
        <ele>518.4</ele>
        <time>2014-10-26T09:50:09.000Z</time>
      </trkpt>
      <trkpt lat="47.54591" lon="6.65854">
        <ele>519</ele>
        <time>2014-10-26T09:50:10.000Z</time>
      </trkpt>
      <trkpt lat="47.54588" lon="6.6585">
        <ele>519.9</ele>
        <time>2014-10-26T09:50:11.000Z</time>
      </trkpt>
      <trkpt lat="47.54584" lon="6.65847">
        <ele>520.5</ele>
        <time>2014-10-26T09:50:12.000Z</time>
      </trkpt>
      <trkpt lat="47.54581" lon="6.65842">
        <ele>520.2</ele>
        <time>2014-10-26T09:50:13.000Z</time>
      </trkpt>
      <trkpt lat="47.54578" lon="6.65839">
        <ele>520.7</ele>
        <time>2014-10-26T09:50:14.000Z</time>
      </trkpt>
      <trkpt lat="47.54575" lon="6.65836">
        <ele>520.7</ele>
        <time>2014-10-26T09:50:15.000Z</time>
      </trkpt>
      <trkpt lat="47.54572" lon="6.65834">
        <ele>520.1</ele>
        <time>2014-10-26T09:50:16.000Z</time>
      </trkpt>
      <trkpt lat="47.54569" lon="6.65832">
        <ele>520</ele>
        <time>2014-10-26T09:50:17.000Z</time>
      </trkpt>
      <trkpt lat="47.54566" lon="6.6583">
        <ele>520.3</ele>
        <time>2014-10-26T09:50:18.000Z</time>
      </trkpt>
      <trkpt lat="47.54563" lon="6.65827">
        <ele>521.1</ele>
        <time>2014-10-26T09:50:19.000Z</time>
      </trkpt>
      <trkpt lat="47.5456" lon="6.65824">
        <ele>520.6</ele>
        <time>2014-10-26T09:50:20.000Z</time>
      </trkpt>
      <trkpt lat="47.54558" lon="6.65821">
        <ele>521.1</ele>
        <time>2014-10-26T09:50:21.000Z</time>
      </trkpt>
      <trkpt lat="47.54556" lon="6.65818">
        <ele>522.1</ele>
        <time>2014-10-26T09:50:22.000Z</time>
      </trkpt>
      <trkpt lat="47.54554" lon="6.65815">
        <ele>523.5</ele>
        <time>2014-10-26T09:50:23.000Z</time>
      </trkpt>
      <trkpt lat="47.54551" lon="6.65812">
        <ele>523.8</ele>
        <time>2014-10-26T09:50:24.000Z</time>
      </trkpt>
      <trkpt lat="47.54548" lon="6.65808">
        <ele>525.7</ele>
        <time>2014-10-26T09:50:25.000Z</time>
      </trkpt>
      <trkpt lat="47.54546" lon="6.65804">
        <ele>527</ele>
        <time>2014-10-26T09:50:26.000Z</time>
      </trkpt>
      <trkpt lat="47.54544" lon="6.65801">
        <ele>528.6</ele>
        <time>2014-10-26T09:50:27.000Z</time>
      </trkpt>
      <trkpt lat="47.54542" lon="6.65798">
        <ele>528.6</ele>
        <time>2014-10-26T09:50:28.000Z</time>
      </trkpt>
      <trkpt lat="47.5454" lon="6.65796">
        <ele>528.6</ele>
        <time>2014-10-26T09:50:29.000Z</time>
      </trkpt>
      <trkpt lat="47.54537" lon="6.65793">
        <ele>528.3</ele>
        <time>2014-10-26T09:50:30.000Z</time>
      </trkpt>
      <trkpt lat="47.54535" lon="6.65791">
        <ele>528</ele>
        <time>2014-10-26T09:50:31.000Z</time>
      </trkpt>
      <trkpt lat="47.54533" lon="6.65788">
        <ele>528.1</ele>
        <time>2014-10-26T09:50:32.000Z</time>
      </trkpt>
      <trkpt lat="47.54531" lon="6.65785">
        <ele>525.9</ele>
        <time>2014-10-26T09:50:33.000Z</time>
      </trkpt>
      <trkpt lat="47.54517" lon="6.65764">
        <ele>522.3</ele>
        <time>2014-10-26T09:50:41.000Z</time>
      </trkpt>
      <trkpt lat="47.54514" lon="6.6576">
        <ele>524.1</ele>
        <time>2014-10-26T09:50:43.000Z</time>
      </trkpt>
      <trkpt lat="47.54512" lon="6.65759">
        <ele>521.7</ele>
        <time>2014-10-26T09:50:44.000Z</time>
      </trkpt>
      <trkpt lat="47.5451" lon="6.65758">
        <ele>522.1</ele>
        <time>2014-10-26T09:50:45.000Z</time>
      </trkpt>
      <trkpt lat="47.54508" lon="6.65756">
        <ele>521.4</ele>
        <time>2014-10-26T09:50:46.000Z</time>
      </trkpt>
      <trkpt lat="47.54504" lon="6.65753">
        <ele>520.7</ele>
        <time>2014-10-26T09:50:47.000Z</time>
      </trkpt>
      <trkpt lat="47.545" lon="6.6575">
        <ele>521.1</ele>
        <time>2014-10-26T09:50:48.000Z</time>
      </trkpt>
      <trkpt lat="47.54496" lon="6.65748">
        <ele>521.2</ele>
        <time>2014-10-26T09:50:49.000Z</time>
      </trkpt>
      <trkpt lat="47.54492" lon="6.65744">
        <ele>522.1</ele>
        <time>2014-10-26T09:50:50.000Z</time>
      </trkpt>
      <trkpt lat="47.54488" lon="6.65741">
        <ele>522.6</ele>
        <time>2014-10-26T09:50:51.000Z</time>
      </trkpt>
      <trkpt lat="47.54485" lon="6.65737">
        <ele>522.8</ele>
        <time>2014-10-26T09:50:52.000Z</time>
      </trkpt>
      <trkpt lat="47.54481" lon="6.65732">
        <ele>522.4</ele>
        <time>2014-10-26T09:50:53.000Z</time>
      </trkpt>
      <trkpt lat="47.54477" lon="6.65728">
        <ele>523</ele>
        <time>2014-10-26T09:50:54.000Z</time>
      </trkpt>
      <trkpt lat="47.54473" lon="6.65723">
        <ele>522.1</ele>
        <time>2014-10-26T09:50:55.000Z</time>
      </trkpt>
      <trkpt lat="47.54469" lon="6.65719">
        <ele>523.5</ele>
        <time>2014-10-26T09:50:56.000Z</time>
      </trkpt>
      <trkpt lat="47.54465" lon="6.65715">
        <ele>522.2</ele>
        <time>2014-10-26T09:50:57.000Z</time>
      </trkpt>
      <trkpt lat="47.5446" lon="6.65711">
        <ele>521.7</ele>
        <time>2014-10-26T09:50:58.000Z</time>
      </trkpt>
      <trkpt lat="47.54456" lon="6.65708">
        <ele>521</ele>
        <time>2014-10-26T09:50:59.000Z</time>
      </trkpt>
      <trkpt lat="47.54452" lon="6.65704">
        <ele>524.1</ele>
        <time>2014-10-26T09:51:00.000Z</time>
      </trkpt>
      <trkpt lat="47.54447" lon="6.65699">
        <ele>524</ele>
        <time>2014-10-26T09:51:01.000Z</time>
      </trkpt>
      <trkpt lat="47.54443" lon="6.65695">
        <ele>524.4</ele>
        <time>2014-10-26T09:51:02.000Z</time>
      </trkpt>
      <trkpt lat="47.54439" lon="6.6569">
        <ele>526.7</ele>
        <time>2014-10-26T09:51:03.000Z</time>
      </trkpt>
      <trkpt lat="47.54435" lon="6.65685">
        <ele>527.4</ele>
        <time>2014-10-26T09:51:04.000Z</time>
      </trkpt>
      <trkpt lat="47.54431" lon="6.65681">
        <ele>528.5</ele>
        <time>2014-10-26T09:51:05.000Z</time>
      </trkpt>
      <trkpt lat="47.54423" lon="6.65671">
        <ele>527.3</ele>
        <time>2014-10-26T09:51:06.000Z</time>
      </trkpt>
      <trkpt lat="47.54417" lon="6.65665">
        <ele>526.7</ele>
        <time>2014-10-26T09:51:07.000Z</time>
      </trkpt>
      <trkpt lat="47.54409" lon="6.6566">
        <ele>525.2</ele>
        <time>2014-10-26T09:51:08.000Z</time>
      </trkpt>
      <trkpt lat="47.54404" lon="6.65656">
        <ele>525</ele>
        <time>2014-10-26T09:51:09.000Z</time>
      </trkpt>
      <trkpt lat="47.544" lon="6.65652">
        <ele>524.3</ele>
        <time>2014-10-26T09:51:10.000Z</time>
      </trkpt>
      <trkpt lat="47.54394" lon="6.65647">
        <ele>524</ele>
        <time>2014-10-26T09:51:11.000Z</time>
      </trkpt>
      <trkpt lat="47.54391" lon="6.65643">
        <ele>526.5</ele>
        <time>2014-10-26T09:51:12.000Z</time>
      </trkpt>
      <trkpt lat="47.54387" lon="6.65639">
        <ele>527</ele>
        <time>2014-10-26T09:51:13.000Z</time>
      </trkpt>
      <trkpt lat="47.54382" lon="6.65634">
        <ele>528.3</ele>
        <time>2014-10-26T09:51:14.000Z</time>
      </trkpt>
      <trkpt lat="47.54377" lon="6.65631">
        <ele>527.7</ele>
        <time>2014-10-26T09:51:15.000Z</time>
      </trkpt>
      <trkpt lat="47.54372" lon="6.65627">
        <ele>527.7</ele>
        <time>2014-10-26T09:51:16.000Z</time>
      </trkpt>
      <trkpt lat="47.54368" lon="6.65625">
        <ele>527.5</ele>
        <time>2014-10-26T09:51:17.000Z</time>
      </trkpt>
      <trkpt lat="47.54362" lon="6.65621">
        <ele>526.2</ele>
        <time>2014-10-26T09:51:18.000Z</time>
      </trkpt>
      <trkpt lat="47.54358" lon="6.65617">
        <ele>525.4</ele>
        <time>2014-10-26T09:51:19.000Z</time>
      </trkpt>
      <trkpt lat="47.54351" lon="6.65609">
        <ele>526.5</ele>
        <time>2014-10-26T09:51:20.000Z</time>
      </trkpt>
      <trkpt lat="47.54346" lon="6.65603">
        <ele>525.3</ele>
        <time>2014-10-26T09:51:21.000Z</time>
      </trkpt>
      <trkpt lat="47.54342" lon="6.656">
        <ele>525.3</ele>
        <time>2014-10-26T09:51:22.000Z</time>
      </trkpt>
      <trkpt lat="47.54339" lon="6.65596">
        <ele>527.8</ele>
        <time>2014-10-26T09:51:23.000Z</time>
      </trkpt>
      <trkpt lat="47.54336" lon="6.65593">
        <ele>528.2</ele>
        <time>2014-10-26T09:51:24.000Z</time>
      </trkpt>
      <trkpt lat="47.54332" lon="6.65589">
        <ele>527.7</ele>
        <time>2014-10-26T09:51:25.000Z</time>
      </trkpt>
      <trkpt lat="47.54327" lon="6.65585">
        <ele>528.7</ele>
        <time>2014-10-26T09:51:26.000Z</time>
      </trkpt>
      <trkpt lat="47.54323" lon="6.65581">
        <ele>527.8</ele>
        <time>2014-10-26T09:51:27.000Z</time>
      </trkpt>
      <trkpt lat="47.54319" lon="6.65577">
        <ele>527.5</ele>
        <time>2014-10-26T09:51:28.000Z</time>
      </trkpt>
      <trkpt lat="47.54314" lon="6.65571">
        <ele>527.7</ele>
        <time>2014-10-26T09:51:29.000Z</time>
      </trkpt>
      <trkpt lat="47.54311" lon="6.65567">
        <ele>527.8</ele>
        <time>2014-10-26T09:51:30.000Z</time>
      </trkpt>
      <trkpt lat="47.54308" lon="6.65562">
        <ele>526.6</ele>
        <time>2014-10-26T09:51:31.000Z</time>
      </trkpt>
      <trkpt lat="47.54304" lon="6.65557">
        <ele>523.9</ele>
        <time>2014-10-26T09:51:32.000Z</time>
      </trkpt>
      <trkpt lat="47.54302" lon="6.65554">
        <ele>524.9</ele>
        <time>2014-10-26T09:51:33.000Z</time>
      </trkpt>
      <trkpt lat="47.54299" lon="6.65549">
        <ele>525.3</ele>
        <time>2014-10-26T09:51:34.000Z</time>
      </trkpt>
      <trkpt lat="47.54288" lon="6.65537">
        <ele>517.3</ele>
        <time>2014-10-26T09:51:37.000Z</time>
      </trkpt>
      <trkpt lat="47.54285" lon="6.65532">
        <ele>515.1</ele>
        <time>2014-10-26T09:51:38.000Z</time>
      </trkpt>
      <trkpt lat="47.54282" lon="6.65529">
        <ele>514.9</ele>
        <time>2014-10-26T09:51:39.000Z</time>
      </trkpt>
      <trkpt lat="47.54279" lon="6.65526">
        <ele>514.1</ele>
        <time>2014-10-26T09:51:40.000Z</time>
      </trkpt>
      <trkpt lat="47.54277" lon="6.65522">
        <ele>513.7</ele>
        <time>2014-10-26T09:51:41.000Z</time>
      </trkpt>
      <trkpt lat="47.54271" lon="6.65515">
        <ele>513.9</ele>
        <time>2014-10-26T09:51:42.000Z</time>
      </trkpt>
      <trkpt lat="47.54267" lon="6.6551">
        <ele>512.2</ele>
        <time>2014-10-26T09:51:43.000Z</time>
      </trkpt>
      <trkpt lat="47.54262" lon="6.65506">
        <ele>511.5</ele>
        <time>2014-10-26T09:51:44.000Z</time>
      </trkpt>
      <trkpt lat="47.54258" lon="6.65502">
        <ele>511</ele>
        <time>2014-10-26T09:51:45.000Z</time>
      </trkpt>
      <trkpt lat="47.54255" lon="6.65499">
        <ele>510.1</ele>
        <time>2014-10-26T09:51:46.000Z</time>
      </trkpt>
      <trkpt lat="47.54252" lon="6.65497">
        <ele>509.7</ele>
        <time>2014-10-26T09:51:47.000Z</time>
      </trkpt>
      <trkpt lat="47.5425" lon="6.65495">
        <ele>510.2</ele>
        <time>2014-10-26T09:51:48.000Z</time>
      </trkpt>
      <trkpt lat="47.54248" lon="6.65491">
        <ele>514.1</ele>
        <time>2014-10-26T09:51:49.000Z</time>
      </trkpt>
      <trkpt lat="47.54245" lon="6.65487">
        <ele>513.2</ele>
        <time>2014-10-26T09:51:50.000Z</time>
      </trkpt>
      <trkpt lat="47.54243" lon="6.65484">
        <ele>512.2</ele>
        <time>2014-10-26T09:51:51.000Z</time>
      </trkpt>
      <trkpt lat="47.5424" lon="6.65481">
        <ele>512.3</ele>
        <time>2014-10-26T09:51:52.000Z</time>
      </trkpt>
      <trkpt lat="47.54238" lon="6.65478">
        <ele>512.2</ele>
        <time>2014-10-26T09:51:53.000Z</time>
      </trkpt>
      <trkpt lat="47.54235" lon="6.65475">
        <ele>513.9</ele>
        <time>2014-10-26T09:51:54.000Z</time>
      </trkpt>
      <trkpt lat="47.54232" lon="6.65472">
        <ele>514.1</ele>
        <time>2014-10-26T09:51:55.000Z</time>
      </trkpt>
      <trkpt lat="47.5423" lon="6.65469">
        <ele>514.1</ele>
        <time>2014-10-26T09:51:56.000Z</time>
      </trkpt>
      <trkpt lat="47.54227" lon="6.65466">
        <ele>513.6</ele>
        <time>2014-10-26T09:51:57.000Z</time>
      </trkpt>
      <trkpt lat="47.54225" lon="6.65464">
        <ele>513.6</ele>
        <time>2014-10-26T09:51:58.000Z</time>
      </trkpt>
      <trkpt lat="47.54224" lon="6.65461">
        <ele>513.6</ele>
        <time>2014-10-26T09:51:59.000Z</time>
      </trkpt>
      <trkpt lat="47.54222" lon="6.65458">
        <ele>513.9</ele>
        <time>2014-10-26T09:52:00.000Z</time>
      </trkpt>
      <trkpt lat="47.5422" lon="6.65455">
        <ele>514.1</ele>
        <time>2014-10-26T09:52:01.000Z</time>
      </trkpt>
      <trkpt lat="47.54218" lon="6.65452">
        <ele>512.2</ele>
        <time>2014-10-26T09:52:02.000Z</time>
      </trkpt>
      <trkpt lat="47.54214" lon="6.65448">
        <ele>509.5</ele>
        <time>2014-10-26T09:52:03.000Z</time>
      </trkpt>
      <trkpt lat="47.54211" lon="6.65444">
        <ele>509</ele>
        <time>2014-10-26T09:52:04.000Z</time>
      </trkpt>
      <trkpt lat="47.54207" lon="6.6544">
        <ele>508.9</ele>
        <time>2014-10-26T09:52:05.000Z</time>
      </trkpt>
      <trkpt lat="47.54204" lon="6.65436">
        <ele>509.9</ele>
        <time>2014-10-26T09:52:06.000Z</time>
      </trkpt>
      <trkpt lat="47.54201" lon="6.65432">
        <ele>511.7</ele>
        <time>2014-10-26T09:52:07.000Z</time>
      </trkpt>
      <trkpt lat="47.54199" lon="6.65427">
        <ele>510.6</ele>
        <time>2014-10-26T09:52:08.000Z</time>
      </trkpt>
      <trkpt lat="47.54196" lon="6.65421">
        <ele>510.2</ele>
        <time>2014-10-26T09:52:09.000Z</time>
      </trkpt>
      <trkpt lat="47.54186" lon="6.65412">
        <ele>507.6</ele>
        <time>2014-10-26T09:52:10.000Z</time>
      </trkpt>
      <trkpt lat="47.5418" lon="6.65408">
        <ele>506.8</ele>
        <time>2014-10-26T09:52:11.000Z</time>
      </trkpt>
      <trkpt lat="47.54177" lon="6.65404">
        <ele>506.3</ele>
        <time>2014-10-26T09:52:12.000Z</time>
      </trkpt>
      <trkpt lat="47.54175" lon="6.65399">
        <ele>506.9</ele>
        <time>2014-10-26T09:52:13.000Z</time>
      </trkpt>
      <trkpt lat="47.54173" lon="6.65395">
        <ele>507.4</ele>
        <time>2014-10-26T09:52:14.000Z</time>
      </trkpt>
      <trkpt lat="47.5417" lon="6.6539">
        <ele>507.2</ele>
        <time>2014-10-26T09:52:15.000Z</time>
      </trkpt>
      <trkpt lat="47.54167" lon="6.65386">
        <ele>506.3</ele>
        <time>2014-10-26T09:52:16.000Z</time>
      </trkpt>
      <trkpt lat="47.54165" lon="6.6538">
        <ele>505.9</ele>
        <time>2014-10-26T09:52:17.000Z</time>
      </trkpt>
      <trkpt lat="47.54162" lon="6.65375">
        <ele>504.7</ele>
        <time>2014-10-26T09:52:18.000Z</time>
      </trkpt>
      <trkpt lat="47.54157" lon="6.65368">
        <ele>504.3</ele>
        <time>2014-10-26T09:52:19.000Z</time>
      </trkpt>
      <trkpt lat="47.54151" lon="6.65362">
        <ele>503.4</ele>
        <time>2014-10-26T09:52:20.000Z</time>
      </trkpt>
      <trkpt lat="47.54147" lon="6.65357">
        <ele>503.1</ele>
        <time>2014-10-26T09:52:21.000Z</time>
      </trkpt>
      <trkpt lat="47.54144" lon="6.65353">
        <ele>502.8</ele>
        <time>2014-10-26T09:52:22.000Z</time>
      </trkpt>
      <trkpt lat="47.5414" lon="6.65347">
        <ele>502.7</ele>
        <time>2014-10-26T09:52:23.000Z</time>
      </trkpt>
      <trkpt lat="47.54136" lon="6.65342">
        <ele>501.9</ele>
        <time>2014-10-26T09:52:24.000Z</time>
      </trkpt>
      <trkpt lat="47.54133" lon="6.65335">
        <ele>501.3</ele>
        <time>2014-10-26T09:52:25.000Z</time>
      </trkpt>
      <trkpt lat="47.54124" lon="6.65325">
        <ele>500.5</ele>
        <time>2014-10-26T09:52:26.000Z</time>
      </trkpt>
      <trkpt lat="47.54117" lon="6.65315">
        <ele>499.7</ele>
        <time>2014-10-26T09:52:27.000Z</time>
      </trkpt>
      <trkpt lat="47.54111" lon="6.65307">
        <ele>499.4</ele>
        <time>2014-10-26T09:52:28.000Z</time>
      </trkpt>
      <trkpt lat="47.54106" lon="6.65299">
        <ele>498.7</ele>
        <time>2014-10-26T09:52:29.000Z</time>
      </trkpt>
      <trkpt lat="47.541" lon="6.65292">
        <ele>498.6</ele>
        <time>2014-10-26T09:52:30.000Z</time>
      </trkpt>
      <trkpt lat="47.54096" lon="6.65287">
        <ele>497.9</ele>
        <time>2014-10-26T09:52:31.000Z</time>
      </trkpt>
      <trkpt lat="47.54092" lon="6.65281">
        <ele>498.2</ele>
        <time>2014-10-26T09:52:32.000Z</time>
      </trkpt>
      <trkpt lat="47.54089" lon="6.65274">
        <ele>498.6</ele>
        <time>2014-10-26T09:52:33.000Z</time>
      </trkpt>
      <trkpt lat="47.54053" lon="6.65218">
        <ele>493.7</ele>
        <time>2014-10-26T09:52:41.000Z</time>
      </trkpt>
      <trkpt lat="47.5405" lon="6.65209">
        <ele>492.8</ele>
        <time>2014-10-26T09:52:42.000Z</time>
      </trkpt>
      <trkpt lat="47.54045" lon="6.65201">
        <ele>492.4</ele>
        <time>2014-10-26T09:52:43.000Z</time>
      </trkpt>
      <trkpt lat="47.54039" lon="6.65195">
        <ele>491.5</ele>
        <time>2014-10-26T09:52:44.000Z</time>
      </trkpt>
      <trkpt lat="47.54035" lon="6.65188">
        <ele>490</ele>
        <time>2014-10-26T09:52:45.000Z</time>
      </trkpt>
      <trkpt lat="47.54032" lon="6.65181">
        <ele>489.8</ele>
        <time>2014-10-26T09:52:46.000Z</time>
      </trkpt>
      <trkpt lat="47.54026" lon="6.65174">
        <ele>488.9</ele>
        <time>2014-10-26T09:52:47.000Z</time>
      </trkpt>
      <trkpt lat="47.54021" lon="6.65169">
        <ele>488.7</ele>
        <time>2014-10-26T09:52:48.000Z</time>
      </trkpt>
      <trkpt lat="47.54016" lon="6.65163">
        <ele>488.5</ele>
        <time>2014-10-26T09:52:49.000Z</time>
      </trkpt>
      <trkpt lat="47.54012" lon="6.65156">
        <ele>488.1</ele>
        <time>2014-10-26T09:52:50.000Z</time>
      </trkpt>
      <trkpt lat="47.54009" lon="6.65152">
        <ele>487.8</ele>
        <time>2014-10-26T09:52:51.000Z</time>
      </trkpt>
      <trkpt lat="47.54005" lon="6.65147">
        <ele>487.7</ele>
        <time>2014-10-26T09:52:52.000Z</time>
      </trkpt>
      <trkpt lat="47.54004" lon="6.65144">
        <ele>489.6</ele>
        <time>2014-10-26T09:52:53.000Z</time>
      </trkpt>
      <trkpt lat="47.54002" lon="6.65139">
        <ele>489.6</ele>
        <time>2014-10-26T09:52:54.000Z</time>
      </trkpt>
      <trkpt lat="47.53999" lon="6.65135">
        <ele>489.3</ele>
        <time>2014-10-26T09:52:55.000Z</time>
      </trkpt>
      <trkpt lat="47.53996" lon="6.65132">
        <ele>488.9</ele>
        <time>2014-10-26T09:52:56.000Z</time>
      </trkpt>
      <trkpt lat="47.53993" lon="6.65128">
        <ele>489</ele>
        <time>2014-10-26T09:52:57.000Z</time>
      </trkpt>
      <trkpt lat="47.53991" lon="6.65125">
        <ele>489.1</ele>
        <time>2014-10-26T09:52:58.000Z</time>
      </trkpt>
      <trkpt lat="47.53988" lon="6.65123">
        <ele>488.7</ele>
        <time>2014-10-26T09:52:59.000Z</time>
      </trkpt>
      <trkpt lat="47.53986" lon="6.65121">
        <ele>487.9</ele>
        <time>2014-10-26T09:53:00.000Z</time>
      </trkpt>
      <trkpt lat="47.53984" lon="6.65119">
        <ele>487.9</ele>
        <time>2014-10-26T09:53:01.000Z</time>
      </trkpt>
      <trkpt lat="47.53981" lon="6.65116">
        <ele>486.7</ele>
        <time>2014-10-26T09:53:02.000Z</time>
      </trkpt>
      <trkpt lat="47.53979" lon="6.65114">
        <ele>486.3</ele>
        <time>2014-10-26T09:53:03.000Z</time>
      </trkpt>
      <trkpt lat="47.53977" lon="6.65113">
        <ele>485.6</ele>
        <time>2014-10-26T09:53:04.000Z</time>
      </trkpt>
      <trkpt lat="47.53974" lon="6.65111">
        <ele>484.9</ele>
        <time>2014-10-26T09:53:05.000Z</time>
      </trkpt>
      <trkpt lat="47.53972" lon="6.65109">
        <ele>484.2</ele>
        <time>2014-10-26T09:53:06.000Z</time>
      </trkpt>
      <trkpt lat="47.53969" lon="6.65107">
        <ele>483.7</ele>
        <time>2014-10-26T09:53:07.000Z</time>
      </trkpt>
      <trkpt lat="47.53967" lon="6.65105">
        <ele>484.9</ele>
        <time>2014-10-26T09:53:08.000Z</time>
      </trkpt>
      <trkpt lat="47.53965" lon="6.65103">
        <ele>483.5</ele>
        <time>2014-10-26T09:53:09.000Z</time>
      </trkpt>
      <trkpt lat="47.53963" lon="6.651">
        <ele>482.5</ele>
        <time>2014-10-26T09:53:10.000Z</time>
      </trkpt>
      <trkpt lat="47.5396" lon="6.65097">
        <ele>481.3</ele>
        <time>2014-10-26T09:53:11.000Z</time>
      </trkpt>
      <trkpt lat="47.53957" lon="6.65094">
        <ele>479.9</ele>
        <time>2014-10-26T09:53:12.000Z</time>
      </trkpt>
      <trkpt lat="47.53953" lon="6.65091">
        <ele>479.2</ele>
        <time>2014-10-26T09:53:13.000Z</time>
      </trkpt>
      <trkpt lat="47.53949" lon="6.65089">
        <ele>479.7</ele>
        <time>2014-10-26T09:53:14.000Z</time>
      </trkpt>
      <trkpt lat="47.53945" lon="6.65087">
        <ele>479.3</ele>
        <time>2014-10-26T09:53:15.000Z</time>
      </trkpt>
      <trkpt lat="47.53941" lon="6.65086">
        <ele>479.2</ele>
        <time>2014-10-26T09:53:16.000Z</time>
      </trkpt>
      <trkpt lat="47.53938" lon="6.65085">
        <ele>479.4</ele>
        <time>2014-10-26T09:53:17.000Z</time>
      </trkpt>
      <trkpt lat="47.53936" lon="6.65085">
        <ele>479.4</ele>
        <time>2014-10-26T09:53:18.000Z</time>
      </trkpt>
      <trkpt lat="47.53932" lon="6.65084">
        <ele>478.8</ele>
        <time>2014-10-26T09:53:20.000Z</time>
      </trkpt>
      <trkpt lat="47.5393" lon="6.65083">
        <ele>478.4</ele>
        <time>2014-10-26T09:53:21.000Z</time>
      </trkpt>
      <trkpt lat="47.53929" lon="6.65077">
        <ele>481.4</ele>
        <time>2014-10-26T09:53:23.000Z</time>
      </trkpt>
      <trkpt lat="47.53929" lon="6.65073">
        <ele>481.7</ele>
        <time>2014-10-26T09:53:24.000Z</time>
      </trkpt>
      <trkpt lat="47.53927" lon="6.65069">
        <ele>481.1</ele>
        <time>2014-10-26T09:53:25.000Z</time>
      </trkpt>
      <trkpt lat="47.53924" lon="6.65066">
        <ele>480</ele>
        <time>2014-10-26T09:53:26.000Z</time>
      </trkpt>
      <trkpt lat="47.53921" lon="6.65064">
        <ele>479.9</ele>
        <time>2014-10-26T09:53:27.000Z</time>
      </trkpt>
      <trkpt lat="47.53917" lon="6.65062">
        <ele>479.6</ele>
        <time>2014-10-26T09:53:28.000Z</time>
      </trkpt>
      <trkpt lat="47.53913" lon="6.6506">
        <ele>479.5</ele>
        <time>2014-10-26T09:53:29.000Z</time>
      </trkpt>
      <trkpt lat="47.53911" lon="6.65059">
        <ele>479.4</ele>
        <time>2014-10-26T09:53:30.000Z</time>
      </trkpt>
      <trkpt lat="47.53907" lon="6.65056">
        <ele>480.5</ele>
        <time>2014-10-26T09:53:32.000Z</time>
      </trkpt>
      <trkpt lat="47.53906" lon="6.65054">
        <ele>480.8</ele>
        <time>2014-10-26T09:53:33.000Z</time>
      </trkpt>
      <trkpt lat="47.53904" lon="6.65052">
        <ele>484.8</ele>
        <time>2014-10-26T09:53:34.000Z</time>
      </trkpt>
      <trkpt lat="47.539" lon="6.65049">
        <ele>484.9</ele>
        <time>2014-10-26T09:53:37.000Z</time>
      </trkpt>
      <trkpt lat="47.53897" lon="6.65046">
        <ele>439.9</ele>
        <time>2014-10-26T09:55:15.000Z</time>
      </trkpt>
      <trkpt lat="47.53896" lon="6.65045">
        <ele>441</ele>
        <time>2014-10-26T09:55:16.000Z</time>
      </trkpt>
      <trkpt lat="47.53892" lon="6.65047">
        <ele>442.2</ele>
        <time>2014-10-26T09:55:42.000Z</time>
      </trkpt>
      <trkpt lat="47.53891" lon="6.65048">
        <ele>442.3</ele>
        <time>2014-10-26T09:55:43.000Z</time>
      </trkpt>
      <trkpt lat="47.53889" lon="6.65052">
        <ele>442.1</ele>
        <time>2014-10-26T09:55:49.000Z</time>
      </trkpt>
      <trkpt lat="47.53889" lon="6.65053">
        <ele>441.6</ele>
        <time>2014-10-26T09:55:50.000Z</time>
      </trkpt>
      <trkpt lat="47.53886" lon="6.6505">
        <ele>445.5</ele>
        <time>2014-10-26T09:56:09.000Z</time>
      </trkpt>
      <trkpt lat="47.53886" lon="6.65048">
        <ele>447.8</ele>
        <time>2014-10-26T09:56:10.000Z</time>
      </trkpt>
      <trkpt lat="47.53884" lon="6.65043">
        <ele>453.2</ele>
        <time>2014-10-26T09:56:12.000Z</time>
      </trkpt>
      <trkpt lat="47.53882" lon="6.6504">
        <ele>458.3</ele>
        <time>2014-10-26T09:56:13.000Z</time>
      </trkpt>
      <trkpt lat="47.5388" lon="6.65038">
        <ele>459.8</ele>
        <time>2014-10-26T09:56:14.000Z</time>
      </trkpt>
      <trkpt lat="47.53877" lon="6.65036">
        <ele>460.8</ele>
        <time>2014-10-26T09:56:15.000Z</time>
      </trkpt>
      <trkpt lat="47.53875" lon="6.65034">
        <ele>460.9</ele>
        <time>2014-10-26T09:56:16.000Z</time>
      </trkpt>
      <trkpt lat="47.53872" lon="6.65031">
        <ele>462</ele>
        <time>2014-10-26T09:56:17.000Z</time>
      </trkpt>
      <trkpt lat="47.53869" lon="6.65028">
        <ele>462.6</ele>
        <time>2014-10-26T09:56:18.000Z</time>
      </trkpt>
      <trkpt lat="47.53866" lon="6.65025">
        <ele>464.3</ele>
        <time>2014-10-26T09:56:19.000Z</time>
      </trkpt>
      <trkpt lat="47.53862" lon="6.65021">
        <ele>464.1</ele>
        <time>2014-10-26T09:56:20.000Z</time>
      </trkpt>
      <trkpt lat="47.53858" lon="6.65016">
        <ele>465.7</ele>
        <time>2014-10-26T09:56:21.000Z</time>
      </trkpt>
      <trkpt lat="47.53844" lon="6.65003">
        <ele>469.2</ele>
        <time>2014-10-26T09:56:22.000Z</time>
      </trkpt>
      <trkpt lat="47.53838" lon="6.64998">
        <ele>470</ele>
        <time>2014-10-26T09:56:23.000Z</time>
      </trkpt>
      <trkpt lat="47.53836" lon="6.64996">
        <ele>468.4</ele>
        <time>2014-10-26T09:56:24.000Z</time>
      </trkpt>
      <trkpt lat="47.53833" lon="6.64995">
        <ele>468.2</ele>
        <time>2014-10-26T09:56:25.000Z</time>
      </trkpt>
      <trkpt lat="47.5383" lon="6.64994">
        <ele>468</ele>
        <time>2014-10-26T09:56:27.000Z</time>
      </trkpt>
      <trkpt lat="47.53825" lon="6.64995">
        <ele>465.8</ele>
        <time>2014-10-26T09:56:28.000Z</time>
      </trkpt>
      <trkpt lat="47.53822" lon="6.64994">
        <ele>463.6</ele>
        <time>2014-10-26T09:56:32.000Z</time>
      </trkpt>
      <trkpt lat="47.5382" lon="6.64995">
        <ele>457.3</ele>
        <time>2014-10-26T09:56:36.000Z</time>
      </trkpt>
      <trkpt lat="47.53817" lon="6.64997">
        <ele>468</ele>
        <time>2014-10-26T09:56:55.000Z</time>
      </trkpt>
      <trkpt lat="47.53816" lon="6.64998">
        <ele>470.2</ele>
        <time>2014-10-26T09:56:56.000Z</time>
      </trkpt>
      <trkpt lat="47.53812" lon="6.64999">
        <ele>473.6</ele>
        <time>2014-10-26T09:57:00.000Z</time>
      </trkpt>
      <trkpt lat="47.5381" lon="6.64999">
        <ele>472.9</ele>
        <time>2014-10-26T09:57:01.000Z</time>
      </trkpt>
      <trkpt lat="47.53807" lon="6.64996">
        <ele>475.4</ele>
        <time>2014-10-26T09:57:03.000Z</time>
      </trkpt>
      <trkpt lat="47.53805" lon="6.64994">
        <ele>475.7</ele>
        <time>2014-10-26T09:57:04.000Z</time>
      </trkpt>
      <trkpt lat="47.53802" lon="6.64991">
        <ele>475.4</ele>
        <time>2014-10-26T09:57:06.000Z</time>
      </trkpt>
      <trkpt lat="47.53799" lon="6.64989">
        <ele>475.2</ele>
        <time>2014-10-26T09:57:07.000Z</time>
      </trkpt>
      <trkpt lat="47.53796" lon="6.64988">
        <ele>475.5</ele>
        <time>2014-10-26T09:57:08.000Z</time>
      </trkpt>
      <trkpt lat="47.53794" lon="6.64987">
        <ele>476.2</ele>
        <time>2014-10-26T09:57:09.000Z</time>
      </trkpt>
      <trkpt lat="47.5379" lon="6.64985">
        <ele>476.6</ele>
        <time>2014-10-26T09:57:10.000Z</time>
      </trkpt>
      <trkpt lat="47.53787" lon="6.64983">
        <ele>476.8</ele>
        <time>2014-10-26T09:57:11.000Z</time>
      </trkpt>
      <trkpt lat="47.53784" lon="6.64981">
        <ele>477.1</ele>
        <time>2014-10-26T09:57:12.000Z</time>
      </trkpt>
      <trkpt lat="47.53781" lon="6.64979">
        <ele>477.3</ele>
        <time>2014-10-26T09:57:13.000Z</time>
      </trkpt>
      <trkpt lat="47.53778" lon="6.64976">
        <ele>477.3</ele>
        <time>2014-10-26T09:57:14.000Z</time>
      </trkpt>
      <trkpt lat="47.53775" lon="6.64974">
        <ele>478.8</ele>
        <time>2014-10-26T09:57:15.000Z</time>
      </trkpt>
      <trkpt lat="47.53773" lon="6.64972">
        <ele>479.6</ele>
        <time>2014-10-26T09:57:16.000Z</time>
      </trkpt>
      <trkpt lat="47.5377" lon="6.6497">
        <ele>479.9</ele>
        <time>2014-10-26T09:57:17.000Z</time>
      </trkpt>
      <trkpt lat="47.53768" lon="6.64968">
        <ele>483.7</ele>
        <time>2014-10-26T09:57:18.000Z</time>
      </trkpt>
      <trkpt lat="47.53765" lon="6.64966">
        <ele>484.5</ele>
        <time>2014-10-26T09:57:19.000Z</time>
      </trkpt>
      <trkpt lat="47.53762" lon="6.64965">
        <ele>485.1</ele>
        <time>2014-10-26T09:57:20.000Z</time>
      </trkpt>
      <trkpt lat="47.53759" lon="6.64964">
        <ele>483.2</ele>
        <time>2014-10-26T09:57:21.000Z</time>
      </trkpt>
      <trkpt lat="47.53755" lon="6.64962">
        <ele>482.9</ele>
        <time>2014-10-26T09:57:22.000Z</time>
      </trkpt>
      <trkpt lat="47.53751" lon="6.64961">
        <ele>482.7</ele>
        <time>2014-10-26T09:57:23.000Z</time>
      </trkpt>
      <trkpt lat="47.53747" lon="6.64961">
        <ele>483.6</ele>
        <time>2014-10-26T09:57:24.000Z</time>
      </trkpt>
      <trkpt lat="47.53744" lon="6.64961">
        <ele>483.6</ele>
        <time>2014-10-26T09:57:25.000Z</time>
      </trkpt>
      <trkpt lat="47.53741" lon="6.64962">
        <ele>485.5</ele>
        <time>2014-10-26T09:57:27.000Z</time>
      </trkpt>
      <trkpt lat="47.53739" lon="6.64963">
        <ele>486.4</ele>
        <time>2014-10-26T09:57:28.000Z</time>
      </trkpt>
      <trkpt lat="47.53737" lon="6.64967">
        <ele>489</ele>
        <time>2014-10-26T09:57:30.000Z</time>
      </trkpt>
      <trkpt lat="47.53737" lon="6.64971">
        <ele>489.8</ele>
        <time>2014-10-26T09:57:31.000Z</time>
      </trkpt>
      <trkpt lat="47.53736" lon="6.64976">
        <ele>490.4</ele>
        <time>2014-10-26T09:57:33.000Z</time>
      </trkpt>
      <trkpt lat="47.53727" lon="6.64984">
        <ele>488.5</ele>
        <time>2014-10-26T09:57:41.000Z</time>
      </trkpt>
      <trkpt lat="47.53724" lon="6.64984">
        <ele>488.3</ele>
        <time>2014-10-26T09:57:43.000Z</time>
      </trkpt>
      <trkpt lat="47.53722" lon="6.64986">
        <ele>488.2</ele>
        <time>2014-10-26T09:57:44.000Z</time>
      </trkpt>
      <trkpt lat="47.53719" lon="6.64987">
        <ele>487.7</ele>
        <time>2014-10-26T09:57:46.000Z</time>
      </trkpt>
      <trkpt lat="47.53717" lon="6.64989">
        <ele>487.6</ele>
        <time>2014-10-26T09:57:47.000Z</time>
      </trkpt>
      <trkpt lat="47.53715" lon="6.6499">
        <ele>488.4</ele>
        <time>2014-10-26T09:57:48.000Z</time>
      </trkpt>
      <trkpt lat="47.53713" lon="6.64992">
        <ele>487</ele>
        <time>2014-10-26T09:57:49.000Z</time>
      </trkpt>
      <trkpt lat="47.53711" lon="6.64993">
        <ele>488.1</ele>
        <time>2014-10-26T09:57:50.000Z</time>
      </trkpt>
      <trkpt lat="47.53708" lon="6.64995">
        <ele>487.3</ele>
        <time>2014-10-26T09:57:51.000Z</time>
      </trkpt>
      <trkpt lat="47.53705" lon="6.64996">
        <ele>487</ele>
        <time>2014-10-26T09:57:52.000Z</time>
      </trkpt>
      <trkpt lat="47.53703" lon="6.64998">
        <ele>486.6</ele>
        <time>2014-10-26T09:57:53.000Z</time>
      </trkpt>
      <trkpt lat="47.537" lon="6.65">
        <ele>486.5</ele>
        <time>2014-10-26T09:57:54.000Z</time>
      </trkpt>
      <trkpt lat="47.53698" lon="6.65001">
        <ele>486.4</ele>
        <time>2014-10-26T09:57:55.000Z</time>
      </trkpt>
      <trkpt lat="47.53696" lon="6.65003">
        <ele>486.6</ele>
        <time>2014-10-26T09:57:56.000Z</time>
      </trkpt>
      <trkpt lat="47.53693" lon="6.65005">
        <ele>487</ele>
        <time>2014-10-26T09:57:57.000Z</time>
      </trkpt>
      <trkpt lat="47.53691" lon="6.65006">
        <ele>487.2</ele>
        <time>2014-10-26T09:57:58.000Z</time>
      </trkpt>
      <trkpt lat="47.53689" lon="6.65008">
        <ele>487.3</ele>
        <time>2014-10-26T09:57:59.000Z</time>
      </trkpt>
      <trkpt lat="47.53685" lon="6.65011">
        <ele>487.1</ele>
        <time>2014-10-26T09:58:01.000Z</time>
      </trkpt>
      <trkpt lat="47.53683" lon="6.65012">
        <ele>488.4</ele>
        <time>2014-10-26T09:58:02.000Z</time>
      </trkpt>
      <trkpt lat="47.5368" lon="6.65014">
        <ele>488.1</ele>
        <time>2014-10-26T09:58:04.000Z</time>
      </trkpt>
      <trkpt lat="47.53679" lon="6.65015">
        <ele>488.1</ele>
        <time>2014-10-26T09:58:05.000Z</time>
      </trkpt>
      <trkpt lat="47.53676" lon="6.65015">
        <ele>492.6</ele>
        <time>2014-10-26T09:58:06.000Z</time>
      </trkpt>
      <trkpt lat="47.53673" lon="6.65016">
        <ele>493.7</ele>
        <time>2014-10-26T09:58:07.000Z</time>
      </trkpt>
      <trkpt lat="47.5367" lon="6.65017">
        <ele>494.3</ele>
        <time>2014-10-26T09:58:08.000Z</time>
      </trkpt>
      <trkpt lat="47.53667" lon="6.65019">
        <ele>493.6</ele>
        <time>2014-10-26T09:58:09.000Z</time>
      </trkpt>
      <trkpt lat="47.53664" lon="6.65022">
        <ele>491.3</ele>
        <time>2014-10-26T09:58:10.000Z</time>
      </trkpt>
      <trkpt lat="47.53661" lon="6.65025">
        <ele>489.8</ele>
        <time>2014-10-26T09:58:11.000Z</time>
      </trkpt>
      <trkpt lat="47.53658" lon="6.65028">
        <ele>489.4</ele>
        <time>2014-10-26T09:58:12.000Z</time>
      </trkpt>
      <trkpt lat="47.53655" lon="6.65031">
        <ele>487.8</ele>
        <time>2014-10-26T09:58:13.000Z</time>
      </trkpt>
      <trkpt lat="47.53652" lon="6.65034">
        <ele>486.3</ele>
        <time>2014-10-26T09:58:14.000Z</time>
      </trkpt>
      <trkpt lat="47.53648" lon="6.65037">
        <ele>487.4</ele>
        <time>2014-10-26T09:58:15.000Z</time>
      </trkpt>
      <trkpt lat="47.53644" lon="6.65041">
        <ele>486.5</ele>
        <time>2014-10-26T09:58:16.000Z</time>
      </trkpt>
      <trkpt lat="47.5364" lon="6.65044">
        <ele>485.5</ele>
        <time>2014-10-26T09:58:17.000Z</time>
      </trkpt>
      <trkpt lat="47.53637" lon="6.65046">
        <ele>485.1</ele>
        <time>2014-10-26T09:58:18.000Z</time>
      </trkpt>
      <trkpt lat="47.53633" lon="6.65047">
        <ele>484.3</ele>
        <time>2014-10-26T09:58:19.000Z</time>
      </trkpt>
      <trkpt lat="47.5363" lon="6.65047">
        <ele>480.8</ele>
        <time>2014-10-26T09:58:20.000Z</time>
      </trkpt>
      <trkpt lat="47.53626" lon="6.65046">
        <ele>478.4</ele>
        <time>2014-10-26T09:58:21.000Z</time>
      </trkpt>
      <trkpt lat="47.53621" lon="6.65044">
        <ele>477.4</ele>
        <time>2014-10-26T09:58:22.000Z</time>
      </trkpt>
      <trkpt lat="47.53616" lon="6.65042">
        <ele>477.4</ele>
        <time>2014-10-26T09:58:23.000Z</time>
      </trkpt>
      <trkpt lat="47.53611" lon="6.6504">
        <ele>476.2</ele>
        <time>2014-10-26T09:58:24.000Z</time>
      </trkpt>
      <trkpt lat="47.53605" lon="6.65039">
        <ele>475.1</ele>
        <time>2014-10-26T09:58:25.000Z</time>
      </trkpt>
      <trkpt lat="47.536" lon="6.6504">
        <ele>474.3</ele>
        <time>2014-10-26T09:58:26.000Z</time>
      </trkpt>
      <trkpt lat="47.53595" lon="6.65042">
        <ele>474.5</ele>
        <time>2014-10-26T09:58:27.000Z</time>
      </trkpt>
      <trkpt lat="47.53591" lon="6.65045">
        <ele>474.9</ele>
        <time>2014-10-26T09:58:28.000Z</time>
      </trkpt>
      <trkpt lat="47.53587" lon="6.65048">
        <ele>474.8</ele>
        <time>2014-10-26T09:58:29.000Z</time>
      </trkpt>
      <trkpt lat="47.53583" lon="6.65052">
        <ele>475.4</ele>
        <time>2014-10-26T09:58:30.000Z</time>
      </trkpt>
      <trkpt lat="47.5358" lon="6.65055">
        <ele>474.9</ele>
        <time>2014-10-26T09:58:31.000Z</time>
      </trkpt>
      <trkpt lat="47.53576" lon="6.65059">
        <ele>475.1</ele>
        <time>2014-10-26T09:58:32.000Z</time>
      </trkpt>
      <trkpt lat="47.53573" lon="6.65063">
        <ele>477.1</ele>
        <time>2014-10-26T09:58:33.000Z</time>
      </trkpt>
      <trkpt lat="47.53564" lon="6.65073">
        <ele>477.1</ele>
        <time>2014-10-26T09:58:36.000Z</time>
      </trkpt>
      <trkpt lat="47.53561" lon="6.65077">
        <ele>478.9</ele>
        <time>2014-10-26T09:58:37.000Z</time>
      </trkpt>
      <trkpt lat="47.53558" lon="6.65082">
        <ele>480.8</ele>
        <time>2014-10-26T09:58:38.000Z</time>
      </trkpt>
      <trkpt lat="47.53554" lon="6.6509">
        <ele>482.5</ele>
        <time>2014-10-26T09:58:39.000Z</time>
      </trkpt>
      <trkpt lat="47.53551" lon="6.65096">
        <ele>482.1</ele>
        <time>2014-10-26T09:58:40.000Z</time>
      </trkpt>
      <trkpt lat="47.53546" lon="6.65104">
        <ele>481.6</ele>
        <time>2014-10-26T09:58:41.000Z</time>
      </trkpt>
      <trkpt lat="47.53543" lon="6.65108">
        <ele>481.4</ele>
        <time>2014-10-26T09:58:42.000Z</time>
      </trkpt>
      <trkpt lat="47.53539" lon="6.65112">
        <ele>484.7</ele>
        <time>2014-10-26T09:58:43.000Z</time>
      </trkpt>
      <trkpt lat="47.53536" lon="6.65116">
        <ele>484.8</ele>
        <time>2014-10-26T09:58:44.000Z</time>
      </trkpt>
      <trkpt lat="47.53534" lon="6.65121">
        <ele>484.9</ele>
        <time>2014-10-26T09:58:45.000Z</time>
      </trkpt>
      <trkpt lat="47.53532" lon="6.65125">
        <ele>485.1</ele>
        <time>2014-10-26T09:58:46.000Z</time>
      </trkpt>
      <trkpt lat="47.5353" lon="6.65128">
        <ele>485</ele>
        <time>2014-10-26T09:58:47.000Z</time>
      </trkpt>
      <trkpt lat="47.53527" lon="6.65132">
        <ele>485.1</ele>
        <time>2014-10-26T09:58:48.000Z</time>
      </trkpt>
      <trkpt lat="47.53524" lon="6.65136">
        <ele>484.6</ele>
        <time>2014-10-26T09:58:49.000Z</time>
      </trkpt>
      <trkpt lat="47.53521" lon="6.65141">
        <ele>485.1</ele>
        <time>2014-10-26T09:58:50.000Z</time>
      </trkpt>
      <trkpt lat="47.53518" lon="6.65145">
        <ele>485.1</ele>
        <time>2014-10-26T09:58:51.000Z</time>
      </trkpt>
      <trkpt lat="47.53516" lon="6.6515">
        <ele>484.9</ele>
        <time>2014-10-26T09:58:52.000Z</time>
      </trkpt>
      <trkpt lat="47.53513" lon="6.65155">
        <ele>483.7</ele>
        <time>2014-10-26T09:58:53.000Z</time>
      </trkpt>
      <trkpt lat="47.5351" lon="6.6516">
        <ele>483.6</ele>
        <time>2014-10-26T09:58:54.000Z</time>
      </trkpt>
      <trkpt lat="47.53507" lon="6.65166">
        <ele>483.2</ele>
        <time>2014-10-26T09:58:55.000Z</time>
      </trkpt>
      <trkpt lat="47.53504" lon="6.65172">
        <ele>482.2</ele>
        <time>2014-10-26T09:58:56.000Z</time>
      </trkpt>
      <trkpt lat="47.53502" lon="6.65176">
        <ele>482.5</ele>
        <time>2014-10-26T09:58:57.009Z</time>
      </trkpt>
      <trkpt lat="47.53497" lon="6.65184">
        <ele>481.1</ele>
        <time>2014-10-26T09:58:58.000Z</time>
      </trkpt>
      <trkpt lat="47.53493" lon="6.6519">
        <ele>480.5</ele>
        <time>2014-10-26T09:58:59.000Z</time>
      </trkpt>
      <trkpt lat="47.53489" lon="6.65195">
        <ele>479.9</ele>
        <time>2014-10-26T09:59:00.000Z</time>
      </trkpt>
      <trkpt lat="47.53485" lon="6.65199">
        <ele>480.3</ele>
        <time>2014-10-26T09:59:01.000Z</time>
      </trkpt>
      <trkpt lat="47.53481" lon="6.65201">
        <ele>479.8</ele>
        <time>2014-10-26T09:59:02.000Z</time>
      </trkpt>
      <trkpt lat="47.53477" lon="6.65203">
        <ele>479.8</ele>
        <time>2014-10-26T09:59:03.000Z</time>
      </trkpt>
      <trkpt lat="47.53472" lon="6.65202">
        <ele>480</ele>
        <time>2014-10-26T09:59:04.000Z</time>
      </trkpt>
      <trkpt lat="47.53467" lon="6.65201">
        <ele>479.5</ele>
        <time>2014-10-26T09:59:05.000Z</time>
      </trkpt>
      <trkpt lat="47.53446" lon="6.65199">
        <ele>482.9</ele>
        <time>2014-10-26T09:59:06.000Z</time>
      </trkpt>
      <trkpt lat="47.53439" lon="6.65195">
        <ele>482.5</ele>
        <time>2014-10-26T09:59:07.000Z</time>
      </trkpt>
      <trkpt lat="47.53434" lon="6.65189">
        <ele>481.9</ele>
        <time>2014-10-26T09:59:08.000Z</time>
      </trkpt>
      <trkpt lat="47.53428" lon="6.65185">
        <ele>481.1</ele>
        <time>2014-10-26T09:59:09.000Z</time>
      </trkpt>
      <trkpt lat="47.53424" lon="6.6518">
        <ele>480.3</ele>
        <time>2014-10-26T09:59:10.000Z</time>
      </trkpt>
      <trkpt lat="47.5342" lon="6.65175">
        <ele>479.2</ele>
        <time>2014-10-26T09:59:11.000Z</time>
      </trkpt>
      <trkpt lat="47.53415" lon="6.65173">
        <ele>476.8</ele>
        <time>2014-10-26T09:59:12.000Z</time>
      </trkpt>
      <trkpt lat="47.53409" lon="6.65169">
        <ele>475</ele>
        <time>2014-10-26T09:59:13.000Z</time>
      </trkpt>
      <trkpt lat="47.53406" lon="6.65167">
        <ele>471</ele>
        <time>2014-10-26T09:59:15.000Z</time>
      </trkpt>
      <trkpt lat="47.53405" lon="6.65165">
        <ele>470.9</ele>
        <time>2014-10-26T09:59:16.000Z</time>
      </trkpt>
      <trkpt lat="47.53402" lon="6.65165">
        <ele>468.3</ele>
        <time>2014-10-26T09:59:23.000Z</time>
      </trkpt>
      <trkpt lat="47.534" lon="6.65165">
        <ele>469.2</ele>
        <time>2014-10-26T09:59:24.000Z</time>
      </trkpt>
      <trkpt lat="47.53397" lon="6.65166">
        <ele>469.6</ele>
        <time>2014-10-26T09:59:26.000Z</time>
      </trkpt>
      <trkpt lat="47.53395" lon="6.65166">
        <ele>468.6</ele>
        <time>2014-10-26T09:59:27.000Z</time>
      </trkpt>
      <trkpt lat="47.53392" lon="6.65163">
        <ele>470</ele>
        <time>2014-10-26T09:59:30.000Z</time>
      </trkpt>
      <trkpt lat="47.53392" lon="6.65161">
        <ele>469</ele>
        <time>2014-10-26T09:59:31.000Z</time>
      </trkpt>
      <trkpt lat="47.53391" lon="6.65159">
        <ele>468.6</ele>
        <time>2014-10-26T09:59:33.000Z</time>
      </trkpt>
      <trkpt lat="47.53389" lon="6.65155">
        <ele>462.7</ele>
        <time>2014-10-26T09:59:36.000Z</time>
      </trkpt>
      <trkpt lat="47.53387" lon="6.6515">
        <ele>461.2</ele>
        <time>2014-10-26T09:59:38.000Z</time>
      </trkpt>
      <trkpt lat="47.53385" lon="6.65147">
        <ele>458.8</ele>
        <time>2014-10-26T09:59:39.000Z</time>
      </trkpt>
      <trkpt lat="47.53382" lon="6.65144">
        <ele>457.8</ele>
        <time>2014-10-26T09:59:40.000Z</time>
      </trkpt>
      <trkpt lat="47.53379" lon="6.6514">
        <ele>456.7</ele>
        <time>2014-10-26T09:59:41.000Z</time>
      </trkpt>
      <trkpt lat="47.53377" lon="6.65137">
        <ele>455.9</ele>
        <time>2014-10-26T09:59:42.000Z</time>
      </trkpt>
      <trkpt lat="47.53374" lon="6.65133">
        <ele>455.5</ele>
        <time>2014-10-26T09:59:43.000Z</time>
      </trkpt>
      <trkpt lat="47.53371" lon="6.65129">
        <ele>454.9</ele>
        <time>2014-10-26T09:59:44.000Z</time>
      </trkpt>
      <trkpt lat="47.53368" lon="6.65124">
        <ele>454.5</ele>
        <time>2014-10-26T09:59:45.000Z</time>
      </trkpt>
      <trkpt lat="47.53364" lon="6.65119">
        <ele>454.4</ele>
        <time>2014-10-26T09:59:46.000Z</time>
      </trkpt>
      <trkpt lat="47.53361" lon="6.65114">
        <ele>453.6</ele>
        <time>2014-10-26T09:59:47.000Z</time>
      </trkpt>
      <trkpt lat="47.53356" lon="6.65108">
        <ele>453.9</ele>
        <time>2014-10-26T09:59:48.000Z</time>
      </trkpt>
      <trkpt lat="47.53352" lon="6.65102">
        <ele>453.9</ele>
        <time>2014-10-26T09:59:49.000Z</time>
      </trkpt>
      <trkpt lat="47.53348" lon="6.65097">
        <ele>453.1</ele>
        <time>2014-10-26T09:59:50.000Z</time>
      </trkpt>
      <trkpt lat="47.53343" lon="6.65092">
        <ele>453</ele>
        <time>2014-10-26T09:59:51.000Z</time>
      </trkpt>
      <trkpt lat="47.53339" lon="6.65088">
        <ele>452.4</ele>
        <time>2014-10-26T09:59:52.000Z</time>
      </trkpt>
      <trkpt lat="47.53337" lon="6.65084">
        <ele>451.9</ele>
        <time>2014-10-26T09:59:53.000Z</time>
      </trkpt>
      <trkpt lat="47.53334" lon="6.65081">
        <ele>450.8</ele>
        <time>2014-10-26T09:59:54.000Z</time>
      </trkpt>
      <trkpt lat="47.53332" lon="6.65077">
        <ele>450.3</ele>
        <time>2014-10-26T09:59:55.000Z</time>
      </trkpt>
      <trkpt lat="47.5333" lon="6.65074">
        <ele>449.4</ele>
        <time>2014-10-26T09:59:56.000Z</time>
      </trkpt>
      <trkpt lat="47.53328" lon="6.65071">
        <ele>448.8</ele>
        <time>2014-10-26T09:59:57.000Z</time>
      </trkpt>
      <trkpt lat="47.53327" lon="6.65068">
        <ele>448.6</ele>
        <time>2014-10-26T09:59:58.000Z</time>
      </trkpt>
      <trkpt lat="47.53326" lon="6.65065">
        <ele>448.6</ele>
        <time>2014-10-26T09:59:59.000Z</time>
      </trkpt>
      <trkpt lat="47.53325" lon="6.65062">
        <ele>450.4</ele>
        <time>2014-10-26T10:00:00.000Z</time>
      </trkpt>
      <trkpt lat="47.53324" lon="6.65059">
        <ele>449.2</ele>
        <time>2014-10-26T10:00:01.000Z</time>
      </trkpt>
      <trkpt lat="47.53322" lon="6.65055">
        <ele>449.5</ele>
        <time>2014-10-26T10:00:02.000Z</time>
      </trkpt>
      <trkpt lat="47.53321" lon="6.6505">
        <ele>450.4</ele>
        <time>2014-10-26T10:00:04.000Z</time>
      </trkpt>
      <trkpt lat="47.5332" lon="6.65048">
        <ele>450.6</ele>
        <time>2014-10-26T10:00:05.000Z</time>
      </trkpt>
      <trkpt lat="47.53319" lon="6.65044">
        <ele>449.1</ele>
        <time>2014-10-26T10:00:07.000Z</time>
      </trkpt>
      <trkpt lat="47.53318" lon="6.65041">
        <ele>448</ele>
        <time>2014-10-26T10:00:08.000Z</time>
      </trkpt>
      <trkpt lat="47.53315" lon="6.65036">
        <ele>448.7</ele>
        <time>2014-10-26T10:00:10.000Z</time>
      </trkpt>
      <trkpt lat="47.53314" lon="6.65033">
        <ele>448</ele>
        <time>2014-10-26T10:00:11.000Z</time>
      </trkpt>
      <trkpt lat="47.53312" lon="6.65028">
        <ele>447.1</ele>
        <time>2014-10-26T10:00:13.000Z</time>
      </trkpt>
      <trkpt lat="47.53311" lon="6.65026">
        <ele>444.3</ele>
        <time>2014-10-26T10:00:14.000Z</time>
      </trkpt>
      <trkpt lat="47.53308" lon="6.65022">
        <ele>441.5</ele>
        <time>2014-10-26T10:00:17.000Z</time>
      </trkpt>
      <trkpt lat="47.53307" lon="6.6502">
        <ele>439.6</ele>
        <time>2014-10-26T10:00:18.000Z</time>
      </trkpt>
      <trkpt lat="47.53306" lon="6.65018">
        <ele>439.4</ele>
        <time>2014-10-26T10:00:19.000Z</time>
      </trkpt>
      <trkpt lat="47.53303" lon="6.65015">
        <ele>439</ele>
        <time>2014-10-26T10:00:20.000Z</time>
      </trkpt>
      <trkpt lat="47.53301" lon="6.65013">
        <ele>438.3</ele>
        <time>2014-10-26T10:00:21.000Z</time>
      </trkpt>
      <trkpt lat="47.53298" lon="6.65012">
        <ele>437.8</ele>
        <time>2014-10-26T10:00:22.000Z</time>
      </trkpt>
      <trkpt lat="47.53295" lon="6.65011">
        <ele>437.4</ele>
        <time>2014-10-26T10:00:23.000Z</time>
      </trkpt>
      <trkpt lat="47.53292" lon="6.6501">
        <ele>437.1</ele>
        <time>2014-10-26T10:00:24.000Z</time>
      </trkpt>
      <trkpt lat="47.53288" lon="6.6501">
        <ele>437.1</ele>
        <time>2014-10-26T10:00:32.000Z</time>
      </trkpt>
      <trkpt lat="47.53287" lon="6.6501">
        <ele>436.8</ele>
        <time>2014-10-26T10:00:33.000Z</time>
      </trkpt>
      <trkpt lat="47.53283" lon="6.65009">
        <ele>437.4</ele>
        <time>2014-10-26T10:01:13.000Z</time>
      </trkpt>
      <trkpt lat="47.53282" lon="6.6501">
        <ele>438.8</ele>
        <time>2014-10-26T10:01:14.000Z</time>
      </trkpt>
      <trkpt lat="47.53279" lon="6.6501">
        <ele>439.6</ele>
        <time>2014-10-26T10:01:16.000Z</time>
      </trkpt>
      <trkpt lat="47.53277" lon="6.65011">
        <ele>439.6</ele>
        <time>2014-10-26T10:01:17.000Z</time>
      </trkpt>
      <trkpt lat="47.53274" lon="6.6501">
        <ele>439.7</ele>
        <time>2014-10-26T10:01:18.000Z</time>
      </trkpt>
      <trkpt lat="47.53271" lon="6.6501">
        <ele>440.1</ele>
        <time>2014-10-26T10:01:19.000Z</time>
      </trkpt>
      <trkpt lat="47.53267" lon="6.6501">
        <ele>440.1</ele>
        <time>2014-10-26T10:01:20.000Z</time>
      </trkpt>
      <trkpt lat="47.53263" lon="6.65009">
        <ele>440.9</ele>
        <time>2014-10-26T10:01:21.000Z</time>
      </trkpt>
      <trkpt lat="47.5326" lon="6.65009">
        <ele>442.1</ele>
        <time>2014-10-26T10:01:22.000Z</time>
      </trkpt>
      <trkpt lat="47.53257" lon="6.65008">
        <ele>442.4</ele>
        <time>2014-10-26T10:01:23.000Z</time>
      </trkpt>
      <trkpt lat="47.53253" lon="6.65007">
        <ele>442.6</ele>
        <time>2014-10-26T10:01:24.000Z</time>
      </trkpt>
      <trkpt lat="47.53239" lon="6.65006">
        <ele>441.6</ele>
        <time>2014-10-26T10:01:25.000Z</time>
      </trkpt>
      <trkpt lat="47.53232" lon="6.65006">
        <ele>441</ele>
        <time>2014-10-26T10:01:26.000Z</time>
      </trkpt>
      <trkpt lat="47.53226" lon="6.65007">
        <ele>440.3</ele>
        <time>2014-10-26T10:01:27.000Z</time>
      </trkpt>
      <trkpt lat="47.53221" lon="6.65007">
        <ele>439.8</ele>
        <time>2014-10-26T10:01:28.000Z</time>
      </trkpt>
      <trkpt lat="47.53216" lon="6.65006">
        <ele>439.2</ele>
        <time>2014-10-26T10:01:29.000Z</time>
      </trkpt>
      <trkpt lat="47.53213" lon="6.65004">
        <ele>438.8</ele>
        <time>2014-10-26T10:01:30.000Z</time>
      </trkpt>
      <trkpt lat="47.53208" lon="6.65001">
        <ele>440.5</ele>
        <time>2014-10-26T10:01:31.000Z</time>
      </trkpt>
      <trkpt lat="47.53203" lon="6.65">
        <ele>440.8</ele>
        <time>2014-10-26T10:01:32.000Z</time>
      </trkpt>
      <trkpt lat="47.53199" lon="6.65">
        <ele>441.2</ele>
        <time>2014-10-26T10:01:33.000Z</time>
      </trkpt>
      <trkpt lat="47.53179" lon="6.65019">
        <ele>439.2</ele>
        <time>2014-10-26T10:01:41.000Z</time>
      </trkpt>
      <trkpt lat="47.53176" lon="6.6502">
        <ele>439</ele>
        <time>2014-10-26T10:01:42.000Z</time>
      </trkpt>
      <trkpt lat="47.53173" lon="6.65022">
        <ele>438.6</ele>
        <time>2014-10-26T10:01:43.000Z</time>
      </trkpt>
      <trkpt lat="47.53164" lon="6.65019">
        <ele>439.7</ele>
        <time>2014-10-26T10:01:44.000Z</time>
      </trkpt>
      <trkpt lat="47.53155" lon="6.6502">
        <ele>438.1</ele>
        <time>2014-10-26T10:01:45.000Z</time>
      </trkpt>
      <trkpt lat="47.53148" lon="6.65019">
        <ele>438.2</ele>
        <time>2014-10-26T10:01:46.000Z</time>
      </trkpt>
      <trkpt lat="47.53144" lon="6.6502">
        <ele>438.5</ele>
        <time>2014-10-26T10:01:47.000Z</time>
      </trkpt>
      <trkpt lat="47.53139" lon="6.6502">
        <ele>438.9</ele>
        <time>2014-10-26T10:01:48.000Z</time>
      </trkpt>
      <trkpt lat="47.53135" lon="6.6502">
        <ele>439</ele>
        <time>2014-10-26T10:01:49.000Z</time>
      </trkpt>
      <trkpt lat="47.5313" lon="6.65022">
        <ele>439.8</ele>
        <time>2014-10-26T10:01:50.000Z</time>
      </trkpt>
      <trkpt lat="47.53125" lon="6.65023">
        <ele>440.7</ele>
        <time>2014-10-26T10:01:51.000Z</time>
      </trkpt>
      <trkpt lat="47.5312" lon="6.65026">
        <ele>440.6</ele>
        <time>2014-10-26T10:01:52.000Z</time>
      </trkpt>
      <trkpt lat="47.53114" lon="6.65028">
        <ele>440.9</ele>
        <time>2014-10-26T10:01:53.000Z</time>
      </trkpt>
      <trkpt lat="47.53109" lon="6.65033">
        <ele>441.3</ele>
        <time>2014-10-26T10:01:54.000Z</time>
      </trkpt>
      <trkpt lat="47.53105" lon="6.65037">
        <ele>441.9</ele>
        <time>2014-10-26T10:01:55.000Z</time>
      </trkpt>
      <trkpt lat="47.53099" lon="6.6504">
        <ele>439.8</ele>
        <time>2014-10-26T10:01:56.000Z</time>
      </trkpt>
      <trkpt lat="47.53094" lon="6.65044">
        <ele>440</ele>
        <time>2014-10-26T10:01:57.000Z</time>
      </trkpt>
      <trkpt lat="47.53089" lon="6.65047">
        <ele>440.2</ele>
        <time>2014-10-26T10:01:58.000Z</time>
      </trkpt>
      <trkpt lat="47.53077" lon="6.65051">
        <ele>439.6</ele>
        <time>2014-10-26T10:01:59.000Z</time>
      </trkpt>
      <trkpt lat="47.53069" lon="6.65056">
        <ele>439.5</ele>
        <time>2014-10-26T10:02:00.000Z</time>
      </trkpt>
      <trkpt lat="47.5306" lon="6.65062">
        <ele>439.7</ele>
        <time>2014-10-26T10:02:01.000Z</time>
      </trkpt>
      <trkpt lat="47.53054" lon="6.65068">
        <ele>439.5</ele>
        <time>2014-10-26T10:02:02.000Z</time>
      </trkpt>
      <trkpt lat="47.53046" lon="6.65073">
        <ele>438.6</ele>
        <time>2014-10-26T10:02:03.000Z</time>
      </trkpt>
      <trkpt lat="47.53041" lon="6.65078">
        <ele>438.4</ele>
        <time>2014-10-26T10:02:04.000Z</time>
      </trkpt>
      <trkpt lat="47.53035" lon="6.65082">
        <ele>437.9</ele>
        <time>2014-10-26T10:02:05.000Z</time>
      </trkpt>
      <trkpt lat="47.53026" lon="6.65083">
        <ele>437.7</ele>
        <time>2014-10-26T10:02:06.000Z</time>
      </trkpt>
      <trkpt lat="47.53017" lon="6.65084">
        <ele>436.7</ele>
        <time>2014-10-26T10:02:07.000Z</time>
      </trkpt>
      <trkpt lat="47.53008" lon="6.65087">
        <ele>436.3</ele>
        <time>2014-10-26T10:02:08.000Z</time>
      </trkpt>
      <trkpt lat="47.53" lon="6.6509">
        <ele>435.3</ele>
        <time>2014-10-26T10:02:09.000Z</time>
      </trkpt>
      <trkpt lat="47.52987" lon="6.65092">
        <ele>435.3</ele>
        <time>2014-10-26T10:02:10.000Z</time>
      </trkpt>
      <trkpt lat="47.52976" lon="6.65097">
        <ele>434.4</ele>
        <time>2014-10-26T10:02:11.000Z</time>
      </trkpt>
      <trkpt lat="47.52967" lon="6.65103">
        <ele>433.9</ele>
        <time>2014-10-26T10:02:12.000Z</time>
      </trkpt>
      <trkpt lat="47.52957" lon="6.65107">
        <ele>434.4</ele>
        <time>2014-10-26T10:02:13.000Z</time>
      </trkpt>
      <trkpt lat="47.52949" lon="6.65112">
        <ele>432.8</ele>
        <time>2014-10-26T10:02:14.000Z</time>
      </trkpt>
      <trkpt lat="47.52939" lon="6.65115">
        <ele>431.4</ele>
        <time>2014-10-26T10:02:15.000Z</time>
      </trkpt>
      <trkpt lat="47.5293" lon="6.65118">
        <ele>430.7</ele>
        <time>2014-10-26T10:02:16.000Z</time>
      </trkpt>
      <trkpt lat="47.52921" lon="6.6512">
        <ele>429.9</ele>
        <time>2014-10-26T10:02:17.000Z</time>
      </trkpt>
      <trkpt lat="47.52912" lon="6.65122">
        <ele>429</ele>
        <time>2014-10-26T10:02:18.000Z</time>
      </trkpt>
      <trkpt lat="47.52902" lon="6.65123">
        <ele>428.9</ele>
        <time>2014-10-26T10:02:19.000Z</time>
      </trkpt>
      <trkpt lat="47.52894" lon="6.65126">
        <ele>427.5</ele>
        <time>2014-10-26T10:02:20.000Z</time>
      </trkpt>
      <trkpt lat="47.52889" lon="6.6513">
        <ele>427.2</ele>
        <time>2014-10-26T10:02:21.000Z</time>
      </trkpt>
      <trkpt lat="47.52883" lon="6.65135">
        <ele>427</ele>
        <time>2014-10-26T10:02:22.000Z</time>
      </trkpt>
      <trkpt lat="47.52877" lon="6.65142">
        <ele>426.5</ele>
        <time>2014-10-26T10:02:23.000Z</time>
      </trkpt>
      <trkpt lat="47.52871" lon="6.65149">
        <ele>426.3</ele>
        <time>2014-10-26T10:02:24.000Z</time>
      </trkpt>
      <trkpt lat="47.52864" lon="6.65156">
        <ele>426</ele>
        <time>2014-10-26T10:02:25.000Z</time>
      </trkpt>
      <trkpt lat="47.52861" lon="6.65161">
        <ele>425.8</ele>
        <time>2014-10-26T10:02:26.000Z</time>
      </trkpt>
      <trkpt lat="47.52854" lon="6.65166">
        <ele>425.6</ele>
        <time>2014-10-26T10:02:27.000Z</time>
      </trkpt>
      <trkpt lat="47.52847" lon="6.65171">
        <ele>425</ele>
        <time>2014-10-26T10:02:28.000Z</time>
      </trkpt>
      <trkpt lat="47.52838" lon="6.65176">
        <ele>424.6</ele>
        <time>2014-10-26T10:02:29.000Z</time>
      </trkpt>
      <trkpt lat="47.52829" lon="6.65183">
        <ele>424.3</ele>
        <time>2014-10-26T10:02:30.000Z</time>
      </trkpt>
      <trkpt lat="47.52823" lon="6.65191">
        <ele>423.5</ele>
        <time>2014-10-26T10:02:31.000Z</time>
      </trkpt>
      <trkpt lat="47.52815" lon="6.65198">
        <ele>423.2</ele>
        <time>2014-10-26T10:02:32.000Z</time>
      </trkpt>
      <trkpt lat="47.52808" lon="6.65205">
        <ele>422.5</ele>
        <time>2014-10-26T10:02:33.000Z</time>
      </trkpt>
      <trkpt lat="47.5277" lon="6.65199">
        <ele>415.4</ele>
        <time>2014-10-26T10:02:41.000Z</time>
      </trkpt>
      <trkpt lat="47.52768" lon="6.65199">
        <ele>414.9</ele>
        <time>2014-10-26T10:02:42.000Z</time>
      </trkpt>
      <trkpt lat="47.52764" lon="6.65196">
        <ele>414.7</ele>
        <time>2014-10-26T10:02:43.000Z</time>
      </trkpt>
      <trkpt lat="47.52761" lon="6.65193">
        <ele>412.2</ele>
        <time>2014-10-26T10:02:44.000Z</time>
      </trkpt>
      <trkpt lat="47.52758" lon="6.65194">
        <ele>411.6</ele>
        <time>2014-10-26T10:02:45.000Z</time>
      </trkpt>
      <trkpt lat="47.52755" lon="6.65194">
        <ele>413</ele>
        <time>2014-10-26T10:02:46.000Z</time>
      </trkpt>
      <trkpt lat="47.52753" lon="6.65195">
        <ele>412.6</ele>
        <time>2014-10-26T10:02:47.000Z</time>
      </trkpt>
      <trkpt lat="47.52751" lon="6.65197">
        <ele>411.9</ele>
        <time>2014-10-26T10:02:48.000Z</time>
      </trkpt>
      <trkpt lat="47.52749" lon="6.65199">
        <ele>412</ele>
        <time>2014-10-26T10:02:49.000Z</time>
      </trkpt>
      <trkpt lat="47.52747" lon="6.65203">
        <ele>410.2</ele>
        <time>2014-10-26T10:02:50.000Z</time>
      </trkpt>
      <trkpt lat="47.52745" lon="6.65206">
        <ele>408.2</ele>
        <time>2014-10-26T10:02:51.000Z</time>
      </trkpt>
      <trkpt lat="47.52742" lon="6.6521">
        <ele>407.6</ele>
        <time>2014-10-26T10:02:52.000Z</time>
      </trkpt>
      <trkpt lat="47.52739" lon="6.65214">
        <ele>405.6</ele>
        <time>2014-10-26T10:02:53.000Z</time>
      </trkpt>
      <trkpt lat="47.52735" lon="6.65219">
        <ele>404.5</ele>
        <time>2014-10-26T10:02:54.000Z</time>
      </trkpt>
      <trkpt lat="47.52732" lon="6.65223">
        <ele>404.3</ele>
        <time>2014-10-26T10:02:55.000Z</time>
      </trkpt>
      <trkpt lat="47.52728" lon="6.65228">
        <ele>404.2</ele>
        <time>2014-10-26T10:02:56.000Z</time>
      </trkpt>
      <trkpt lat="47.52723" lon="6.65236">
        <ele>404</ele>
        <time>2014-10-26T10:02:57.000Z</time>
      </trkpt>
      <trkpt lat="47.5272" lon="6.65241">
        <ele>403.4</ele>
        <time>2014-10-26T10:02:58.000Z</time>
      </trkpt>
      <trkpt lat="47.52713" lon="6.65248">
        <ele>401.4</ele>
        <time>2014-10-26T10:02:59.000Z</time>
      </trkpt>
      <trkpt lat="47.52708" lon="6.65254">
        <ele>400.6</ele>
        <time>2014-10-26T10:03:00.000Z</time>
      </trkpt>
      <trkpt lat="47.52704" lon="6.6526">
        <ele>399.1</ele>
        <time>2014-10-26T10:03:01.000Z</time>
      </trkpt>
      <trkpt lat="47.52699" lon="6.65267">
        <ele>398.5</ele>
        <time>2014-10-26T10:03:02.000Z</time>
      </trkpt>
      <trkpt lat="47.52694" lon="6.65273">
        <ele>398.4</ele>
        <time>2014-10-26T10:03:03.000Z</time>
      </trkpt>
      <trkpt lat="47.52688" lon="6.65278">
        <ele>397.9</ele>
        <time>2014-10-26T10:03:04.000Z</time>
      </trkpt>
      <trkpt lat="47.52682" lon="6.65283">
        <ele>397.4</ele>
        <time>2014-10-26T10:03:05.000Z</time>
      </trkpt>
      <trkpt lat="47.52674" lon="6.65287">
        <ele>396.9</ele>
        <time>2014-10-26T10:03:06.000Z</time>
      </trkpt>
      <trkpt lat="47.52668" lon="6.65292">
        <ele>396.4</ele>
        <time>2014-10-26T10:03:06.999Z</time>
      </trkpt>
      <trkpt lat="47.5266" lon="6.65296">
        <ele>394.3</ele>
        <time>2014-10-26T10:03:08.000Z</time>
      </trkpt>
      <trkpt lat="47.52653" lon="6.65302">
        <ele>393.5</ele>
        <time>2014-10-26T10:03:09.000Z</time>
      </trkpt>
      <trkpt lat="47.52647" lon="6.6531">
        <ele>392</ele>
        <time>2014-10-26T10:03:10.000Z</time>
      </trkpt>
      <trkpt lat="47.5264" lon="6.65316">
        <ele>391.4</ele>
        <time>2014-10-26T10:03:11.000Z</time>
      </trkpt>
      <trkpt lat="47.52634" lon="6.65322">
        <ele>390.4</ele>
        <time>2014-10-26T10:03:12.000Z</time>
      </trkpt>
      <trkpt lat="47.52628" lon="6.65328">
        <ele>389.6</ele>
        <time>2014-10-26T10:03:13.000Z</time>
      </trkpt>
      <trkpt lat="47.52623" lon="6.65336">
        <ele>388.4</ele>
        <time>2014-10-26T10:03:14.000Z</time>
      </trkpt>
      <trkpt lat="47.52617" lon="6.65343">
        <ele>387.8</ele>
        <time>2014-10-26T10:03:15.000Z</time>
      </trkpt>
      <trkpt lat="47.52612" lon="6.6535">
        <ele>387</ele>
        <time>2014-10-26T10:03:16.000Z</time>
      </trkpt>
      <trkpt lat="47.52606" lon="6.65358">
        <ele>386.9</ele>
        <time>2014-10-26T10:03:17.000Z</time>
      </trkpt>
      <trkpt lat="47.52601" lon="6.65366">
        <ele>385.6</ele>
        <time>2014-10-26T10:03:18.000Z</time>
      </trkpt>
      <trkpt lat="47.52597" lon="6.65375">
        <ele>385.1</ele>
        <time>2014-10-26T10:03:19.000Z</time>
      </trkpt>
      <trkpt lat="47.52592" lon="6.65384">
        <ele>384.4</ele>
        <time>2014-10-26T10:03:20.000Z</time>
      </trkpt>
      <trkpt lat="47.52589" lon="6.65394">
        <ele>383.4</ele>
        <time>2014-10-26T10:03:21.000Z</time>
      </trkpt>
      <trkpt lat="47.52584" lon="6.65404">
        <ele>382.4</ele>
        <time>2014-10-26T10:03:22.000Z</time>
      </trkpt>
      <trkpt lat="47.5258" lon="6.65414">
        <ele>381.2</ele>
        <time>2014-10-26T10:03:23.000Z</time>
      </trkpt>
      <trkpt lat="47.52576" lon="6.65425">
        <ele>380.5</ele>
        <time>2014-10-26T10:03:24.000Z</time>
      </trkpt>
      <trkpt lat="47.52571" lon="6.65436">
        <ele>379.5</ele>
        <time>2014-10-26T10:03:25.000Z</time>
      </trkpt>
      <trkpt lat="47.52568" lon="6.65447">
        <ele>379</ele>
        <time>2014-10-26T10:03:26.000Z</time>
      </trkpt>
      <trkpt lat="47.52564" lon="6.65459">
        <ele>378.9</ele>
        <time>2014-10-26T10:03:27.000Z</time>
      </trkpt>
      <trkpt lat="47.52561" lon="6.6547">
        <ele>378.4</ele>
        <time>2014-10-26T10:03:28.000Z</time>
      </trkpt>
      <trkpt lat="47.52558" lon="6.65481">
        <ele>377.6</ele>
        <time>2014-10-26T10:03:29.000Z</time>
      </trkpt>
      <trkpt lat="47.52554" lon="6.65492">
        <ele>376.7</ele>
        <time>2014-10-26T10:03:30.000Z</time>
      </trkpt>
      <trkpt lat="47.52551" lon="6.65503">
        <ele>375.9</ele>
        <time>2014-10-26T10:03:31.000Z</time>
      </trkpt>
      <trkpt lat="47.52547" lon="6.65513">
        <ele>374.9</ele>
        <time>2014-10-26T10:03:32.000Z</time>
      </trkpt>
      <trkpt lat="47.52542" lon="6.65523">
        <ele>374.6</ele>
        <time>2014-10-26T10:03:33.000Z</time>
      </trkpt>
      <trkpt lat="47.52507" lon="6.65595">
        <ele>374.1</ele>
        <time>2014-10-26T10:03:41.000Z</time>
      </trkpt>
      <trkpt lat="47.52502" lon="6.65604">
        <ele>373.7</ele>
        <time>2014-10-26T10:03:42.000Z</time>
      </trkpt>
      <trkpt lat="47.52498" lon="6.65614">
        <ele>372.7</ele>
        <time>2014-10-26T10:03:43.000Z</time>
      </trkpt>
      <trkpt lat="47.52495" lon="6.65623">
        <ele>371.6</ele>
        <time>2014-10-26T10:03:44.000Z</time>
      </trkpt>
      <trkpt lat="47.5249" lon="6.65631">
        <ele>371.5</ele>
        <time>2014-10-26T10:03:45.000Z</time>
      </trkpt>
      <trkpt lat="47.52486" lon="6.6564">
        <ele>371.7</ele>
        <time>2014-10-26T10:03:46.000Z</time>
      </trkpt>
      <trkpt lat="47.52482" lon="6.65647">
        <ele>372.5</ele>
        <time>2014-10-26T10:03:47.000Z</time>
      </trkpt>
      <trkpt lat="47.52479" lon="6.65654">
        <ele>372.6</ele>
        <time>2014-10-26T10:03:48.000Z</time>
      </trkpt>
      <trkpt lat="47.52476" lon="6.65662">
        <ele>372.5</ele>
        <time>2014-10-26T10:03:49.000Z</time>
      </trkpt>
      <trkpt lat="47.52472" lon="6.6567">
        <ele>372.9</ele>
        <time>2014-10-26T10:03:50.000Z</time>
      </trkpt>
      <trkpt lat="47.52469" lon="6.65677">
        <ele>372.9</ele>
        <time>2014-10-26T10:03:51.000Z</time>
      </trkpt>
      <trkpt lat="47.52466" lon="6.65683">
        <ele>372.7</ele>
        <time>2014-10-26T10:03:52.000Z</time>
      </trkpt>
      <trkpt lat="47.52464" lon="6.65691">
        <ele>372</ele>
        <time>2014-10-26T10:03:53.000Z</time>
      </trkpt>
      <trkpt lat="47.52461" lon="6.65698">
        <ele>370.9</ele>
        <time>2014-10-26T10:03:54.000Z</time>
      </trkpt>
      <trkpt lat="47.52458" lon="6.65705">
        <ele>370.8</ele>
        <time>2014-10-26T10:03:55.000Z</time>
      </trkpt>
      <trkpt lat="47.52454" lon="6.65714">
        <ele>370.5</ele>
        <time>2014-10-26T10:03:56.000Z</time>
      </trkpt>
      <trkpt lat="47.52451" lon="6.65721">
        <ele>370.8</ele>
        <time>2014-10-26T10:03:57.000Z</time>
      </trkpt>
      <trkpt lat="47.52448" lon="6.65727">
        <ele>371.4</ele>
        <time>2014-10-26T10:03:57.999Z</time>
      </trkpt>
      <trkpt lat="47.52443" lon="6.65735">
        <ele>370.4</ele>
        <time>2014-10-26T10:03:59.000Z</time>
      </trkpt>
      <trkpt lat="47.5244" lon="6.65742">
        <ele>370.3</ele>
        <time>2014-10-26T10:04:00.000Z</time>
      </trkpt>
      <trkpt lat="47.52436" lon="6.6575">
        <ele>370.6</ele>
        <time>2014-10-26T10:04:01.000Z</time>
      </trkpt>
      <trkpt lat="47.52433" lon="6.65756">
        <ele>370.4</ele>
        <time>2014-10-26T10:04:02.000Z</time>
      </trkpt>
      <trkpt lat="47.52429" lon="6.65764">
        <ele>369.1</ele>
        <time>2014-10-26T10:04:03.000Z</time>
      </trkpt>
      <trkpt lat="47.52425" lon="6.65772">
        <ele>368</ele>
        <time>2014-10-26T10:04:04.000Z</time>
      </trkpt>
      <trkpt lat="47.52422" lon="6.65778">
        <ele>367.5</ele>
        <time>2014-10-26T10:04:05.000Z</time>
      </trkpt>
      <trkpt lat="47.5242" lon="6.65785">
        <ele>367.3</ele>
        <time>2014-10-26T10:04:06.000Z</time>
      </trkpt>
      <trkpt lat="47.52414" lon="6.65791">
        <ele>367</ele>
        <time>2014-10-26T10:04:07.000Z</time>
      </trkpt>
      <trkpt lat="47.52409" lon="6.65796">
        <ele>367.3</ele>
        <time>2014-10-26T10:04:08.000Z</time>
      </trkpt>
      <trkpt lat="47.52407" lon="6.65802">
        <ele>368.2</ele>
        <time>2014-10-26T10:04:09.000Z</time>
      </trkpt>
      <trkpt lat="47.52404" lon="6.65808">
        <ele>368.6</ele>
        <time>2014-10-26T10:04:10.000Z</time>
      </trkpt>
      <trkpt lat="47.52401" lon="6.65818">
        <ele>368.1</ele>
        <time>2014-10-26T10:04:11.000Z</time>
      </trkpt>
      <trkpt lat="47.52398" lon="6.65826">
        <ele>367.7</ele>
        <time>2014-10-26T10:04:12.000Z</time>
      </trkpt>
      <trkpt lat="47.52395" lon="6.65833">
        <ele>366.8</ele>
        <time>2014-10-26T10:04:13.000Z</time>
      </trkpt>
      <trkpt lat="47.52394" lon="6.6584">
        <ele>367.1</ele>
        <time>2014-10-26T10:04:14.000Z</time>
      </trkpt>
      <trkpt lat="47.52392" lon="6.65848">
        <ele>366.2</ele>
        <time>2014-10-26T10:04:15.000Z</time>
      </trkpt>
      <trkpt lat="47.52388" lon="6.65855">
        <ele>365.9</ele>
        <time>2014-10-26T10:04:16.000Z</time>
      </trkpt>
      <trkpt lat="47.52384" lon="6.65862">
        <ele>367</ele>
        <time>2014-10-26T10:04:17.000Z</time>
      </trkpt>
      <trkpt lat="47.52381" lon="6.6587">
        <ele>366.4</ele>
        <time>2014-10-26T10:04:18.000Z</time>
      </trkpt>
      <trkpt lat="47.52378" lon="6.65877">
        <ele>366.9</ele>
        <time>2014-10-26T10:04:19.000Z</time>
      </trkpt>
      <trkpt lat="47.52375" lon="6.65882">
        <ele>367.5</ele>
        <time>2014-10-26T10:04:20.000Z</time>
      </trkpt>
      <trkpt lat="47.52371" lon="6.65888">
        <ele>367.8</ele>
        <time>2014-10-26T10:04:21.000Z</time>
      </trkpt>
      <trkpt lat="47.52367" lon="6.65895">
        <ele>367.6</ele>
        <time>2014-10-26T10:04:22.000Z</time>
      </trkpt>
      <trkpt lat="47.52363" lon="6.659">
        <ele>368.1</ele>
        <time>2014-10-26T10:04:23.000Z</time>
      </trkpt>
      <trkpt lat="47.52359" lon="6.65905">
        <ele>368.6</ele>
        <time>2014-10-26T10:04:24.000Z</time>
      </trkpt>
      <trkpt lat="47.52355" lon="6.65911">
        <ele>369</ele>
        <time>2014-10-26T10:04:24.998Z</time>
      </trkpt>
      <trkpt lat="47.52351" lon="6.65917">
        <ele>367.3</ele>
        <time>2014-10-26T10:04:26.000Z</time>
      </trkpt>
      <trkpt lat="47.52347" lon="6.65924">
        <ele>366.7</ele>
        <time>2014-10-26T10:04:27.000Z</time>
      </trkpt>
      <trkpt lat="47.52343" lon="6.6593">
        <ele>366.8</ele>
        <time>2014-10-26T10:04:28.000Z</time>
      </trkpt>
      <trkpt lat="47.5234" lon="6.65937">
        <ele>366.6</ele>
        <time>2014-10-26T10:04:28.999Z</time>
      </trkpt>
      <trkpt lat="47.52336" lon="6.65942">
        <ele>366.3</ele>
        <time>2014-10-26T10:04:30.000Z</time>
      </trkpt>
      <trkpt lat="47.52332" lon="6.65947">
        <ele>366.9</ele>
        <time>2014-10-26T10:04:31.000Z</time>
      </trkpt>
      <trkpt lat="47.52329" lon="6.65953">
        <ele>366.9</ele>
        <time>2014-10-26T10:04:31.999Z</time>
      </trkpt>
      <trkpt lat="47.52327" lon="6.65958">
        <ele>366.4</ele>
        <time>2014-10-26T10:04:33.000Z</time>
      </trkpt>
      <trkpt lat="47.52307" lon="6.65999">
        <ele>368</ele>
        <time>2014-10-26T10:04:41.000Z</time>
      </trkpt>
      <trkpt lat="47.52304" lon="6.66005">
        <ele>368.2</ele>
        <time>2014-10-26T10:04:42.000Z</time>
      </trkpt>
      <trkpt lat="47.52301" lon="6.66011">
        <ele>367.8</ele>
        <time>2014-10-26T10:04:43.000Z</time>
      </trkpt>
      <trkpt lat="47.523" lon="6.66014">
        <ele>369.4</ele>
        <time>2014-10-26T10:04:44.000Z</time>
      </trkpt>
      <trkpt lat="47.52296" lon="6.66021">
        <ele>369.3</ele>
        <time>2014-10-26T10:04:45.000Z</time>
      </trkpt>
      <trkpt lat="47.52293" lon="6.66026">
        <ele>369.3</ele>
        <time>2014-10-26T10:04:46.000Z</time>
      </trkpt>
      <trkpt lat="47.5229" lon="6.66031">
        <ele>370.1</ele>
        <time>2014-10-26T10:04:47.000Z</time>
      </trkpt>
      <trkpt lat="47.52288" lon="6.66036">
        <ele>370.4</ele>
        <time>2014-10-26T10:04:48.001Z</time>
      </trkpt>
      <trkpt lat="47.52285" lon="6.66042">
        <ele>370.2</ele>
        <time>2014-10-26T10:04:49.000Z</time>
      </trkpt>
      <trkpt lat="47.52282" lon="6.66047">
        <ele>370.2</ele>
        <time>2014-10-26T10:04:50.000Z</time>
      </trkpt>
      <trkpt lat="47.52279" lon="6.66051">
        <ele>370.9</ele>
        <time>2014-10-26T10:04:51.000Z</time>
      </trkpt>
      <trkpt lat="47.52276" lon="6.66056">
        <ele>371.7</ele>
        <time>2014-10-26T10:04:52.000Z</time>
      </trkpt>
      <trkpt lat="47.52272" lon="6.6606">
        <ele>371.2</ele>
        <time>2014-10-26T10:04:53.000Z</time>
      </trkpt>
      <trkpt lat="47.52269" lon="6.66065">
        <ele>371.9</ele>
        <time>2014-10-26T10:04:54.000Z</time>
      </trkpt>
      <trkpt lat="47.52266" lon="6.66069">
        <ele>372.5</ele>
        <time>2014-10-26T10:04:55.001Z</time>
      </trkpt>
      <trkpt lat="47.52264" lon="6.66073">
        <ele>372</ele>
        <time>2014-10-26T10:04:56.000Z</time>
      </trkpt>
      <trkpt lat="47.52261" lon="6.66077">
        <ele>371.9</ele>
        <time>2014-10-26T10:04:57.000Z</time>
      </trkpt>
      <trkpt lat="47.52258" lon="6.66081">
        <ele>372.2</ele>
        <time>2014-10-26T10:04:58.000Z</time>
      </trkpt>
      <trkpt lat="47.52256" lon="6.66085">
        <ele>372.6</ele>
        <time>2014-10-26T10:04:59.000Z</time>
      </trkpt>
      <trkpt lat="47.52254" lon="6.66088">
        <ele>373.5</ele>
        <time>2014-10-26T10:05:00.000Z</time>
      </trkpt>
      <trkpt lat="47.52253" lon="6.66091">
        <ele>373.3</ele>
        <time>2014-10-26T10:05:01.000Z</time>
      </trkpt>
      <trkpt lat="47.52252" lon="6.66094">
        <ele>372.6</ele>
        <time>2014-10-26T10:05:02.000Z</time>
      </trkpt>
      <trkpt lat="47.52251" lon="6.661">
        <ele>373.2</ele>
        <time>2014-10-26T10:05:04.000Z</time>
      </trkpt>
      <trkpt lat="47.52251" lon="6.66104">
        <ele>373.2</ele>
        <time>2014-10-26T10:05:05.000Z</time>
      </trkpt>
      <trkpt lat="47.52251" lon="6.66109">
        <ele>373.5</ele>
        <time>2014-10-26T10:05:06.000Z</time>
      </trkpt>
      <trkpt lat="47.5225" lon="6.66114">
        <ele>373.4</ele>
        <time>2014-10-26T10:05:07.000Z</time>
      </trkpt>
      <trkpt lat="47.52248" lon="6.66118">
        <ele>373.3</ele>
        <time>2014-10-26T10:05:08.000Z</time>
      </trkpt>
      <trkpt lat="47.52247" lon="6.66123">
        <ele>373.4</ele>
        <time>2014-10-26T10:05:09.001Z</time>
      </trkpt>
      <trkpt lat="47.52246" lon="6.66126">
        <ele>373.2</ele>
        <time>2014-10-26T10:05:10.000Z</time>
      </trkpt>
      <trkpt lat="47.52245" lon="6.6613">
        <ele>374.2</ele>
        <time>2014-10-26T10:05:11.000Z</time>
      </trkpt>
      <trkpt lat="47.52244" lon="6.66133">
        <ele>374.4</ele>
        <time>2014-10-26T10:05:12.000Z</time>
      </trkpt>
      <trkpt lat="47.52242" lon="6.66136">
        <ele>374.7</ele>
        <time>2014-10-26T10:05:13.000Z</time>
      </trkpt>
      <trkpt lat="47.52241" lon="6.66139">
        <ele>376.9</ele>
        <time>2014-10-26T10:05:14.000Z</time>
      </trkpt>
      <trkpt lat="47.52239" lon="6.66142">
        <ele>375.4</ele>
        <time>2014-10-26T10:05:15.000Z</time>
      </trkpt>
      <trkpt lat="47.52237" lon="6.66146">
        <ele>375.2</ele>
        <time>2014-10-26T10:05:16.000Z</time>
      </trkpt>
      <trkpt lat="47.52235" lon="6.66149">
        <ele>374.4</ele>
        <time>2014-10-26T10:05:17.000Z</time>
      </trkpt>
      <trkpt lat="47.52232" lon="6.66151">
        <ele>374.5</ele>
        <time>2014-10-26T10:05:18.000Z</time>
      </trkpt>
      <trkpt lat="47.52229" lon="6.66154">
        <ele>374.7</ele>
        <time>2014-10-26T10:05:19.000Z</time>
      </trkpt>
      <trkpt lat="47.52226" lon="6.66157">
        <ele>374.7</ele>
        <time>2014-10-26T10:05:20.000Z</time>
      </trkpt>
      <trkpt lat="47.52224" lon="6.6616">
        <ele>375.1</ele>
        <time>2014-10-26T10:05:21.000Z</time>
      </trkpt>
      <trkpt lat="47.52221" lon="6.66163">
        <ele>375.7</ele>
        <time>2014-10-26T10:05:22.000Z</time>
      </trkpt>
      <trkpt lat="47.52218" lon="6.66165">
        <ele>376.3</ele>
        <time>2014-10-26T10:05:23.000Z</time>
      </trkpt>
      <trkpt lat="47.52215" lon="6.66168">
        <ele>375.9</ele>
        <time>2014-10-26T10:05:24.000Z</time>
      </trkpt>
      <trkpt lat="47.52213" lon="6.66171">
        <ele>376.5</ele>
        <time>2014-10-26T10:05:25.000Z</time>
      </trkpt>
      <trkpt lat="47.5221" lon="6.66173">
        <ele>377.1</ele>
        <time>2014-10-26T10:05:26.000Z</time>
      </trkpt>
      <trkpt lat="47.52207" lon="6.66176">
        <ele>377.9</ele>
        <time>2014-10-26T10:05:27.000Z</time>
      </trkpt>
      <trkpt lat="47.52205" lon="6.66179">
        <ele>378.1</ele>
        <time>2014-10-26T10:05:28.000Z</time>
      </trkpt>
      <trkpt lat="47.52203" lon="6.66181">
        <ele>377.8</ele>
        <time>2014-10-26T10:05:29.000Z</time>
      </trkpt>
      <trkpt lat="47.52201" lon="6.66184">
        <ele>378.1</ele>
        <time>2014-10-26T10:05:30.000Z</time>
      </trkpt>
      <trkpt lat="47.52199" lon="6.66187">
        <ele>378.1</ele>
        <time>2014-10-26T10:05:31.000Z</time>
      </trkpt>
      <trkpt lat="47.52197" lon="6.6619">
        <ele>378.5</ele>
        <time>2014-10-26T10:05:32.000Z</time>
      </trkpt>
      <trkpt lat="47.52195" lon="6.66193">
        <ele>378.6</ele>
        <time>2014-10-26T10:05:33.000Z</time>
      </trkpt>
      <trkpt lat="47.52193" lon="6.66196">
        <ele>378.9</ele>
        <time>2014-10-26T10:05:34.000Z</time>
      </trkpt>
      <trkpt lat="47.52179" lon="6.6622">
        <ele>377.9</ele>
        <time>2014-10-26T10:05:42.000Z</time>
      </trkpt>
      <trkpt lat="47.52177" lon="6.66223">
        <ele>378.3</ele>
        <time>2014-10-26T10:05:43.000Z</time>
      </trkpt>
      <trkpt lat="47.52175" lon="6.66226">
        <ele>380.6</ele>
        <time>2014-10-26T10:05:44.000Z</time>
      </trkpt>
      <trkpt lat="47.52173" lon="6.66228">
        <ele>381</ele>
        <time>2014-10-26T10:05:45.000Z</time>
      </trkpt>
      <trkpt lat="47.5217" lon="6.6623">
        <ele>381.1</ele>
        <time>2014-10-26T10:05:46.000Z</time>
      </trkpt>
      <trkpt lat="47.52168" lon="6.66233">
        <ele>381.2</ele>
        <time>2014-10-26T10:05:47.000Z</time>
      </trkpt>
      <trkpt lat="47.52165" lon="6.66235">
        <ele>382.5</ele>
        <time>2014-10-26T10:05:48.000Z</time>
      </trkpt>
      <trkpt lat="47.52163" lon="6.66238">
        <ele>382.3</ele>
        <time>2014-10-26T10:05:49.000Z</time>
      </trkpt>
      <trkpt lat="47.52161" lon="6.66242">
        <ele>382.2</ele>
        <time>2014-10-26T10:05:50.000Z</time>
      </trkpt>
      <trkpt lat="47.52159" lon="6.66245">
        <ele>382.2</ele>
        <time>2014-10-26T10:05:51.001Z</time>
      </trkpt>
      <trkpt lat="47.52157" lon="6.66249">
        <ele>382.1</ele>
        <time>2014-10-26T10:05:52.000Z</time>
      </trkpt>
      <trkpt lat="47.52155" lon="6.66252">
        <ele>382.2</ele>
        <time>2014-10-26T10:05:53.000Z</time>
      </trkpt>
      <trkpt lat="47.52153" lon="6.66255">
        <ele>383.4</ele>
        <time>2014-10-26T10:05:54.000Z</time>
      </trkpt>
      <trkpt lat="47.5215" lon="6.66259">
        <ele>383.3</ele>
        <time>2014-10-26T10:05:55.000Z</time>
      </trkpt>
      <trkpt lat="47.52147" lon="6.66262">
        <ele>382.6</ele>
        <time>2014-10-26T10:05:56.000Z</time>
      </trkpt>
      <trkpt lat="47.52144" lon="6.66265">
        <ele>382.1</ele>
        <time>2014-10-26T10:05:57.000Z</time>
      </trkpt>
      <trkpt lat="47.52142" lon="6.66269">
        <ele>381.9</ele>
        <time>2014-10-26T10:05:58.000Z</time>
      </trkpt>
      <trkpt lat="47.52139" lon="6.66273">
        <ele>381.9</ele>
        <time>2014-10-26T10:05:58.998Z</time>
      </trkpt>
      <trkpt lat="47.52135" lon="6.66277">
        <ele>381</ele>
        <time>2014-10-26T10:06:00.000Z</time>
      </trkpt>
      <trkpt lat="47.52132" lon="6.66281">
        <ele>381.1</ele>
        <time>2014-10-26T10:06:01.000Z</time>
      </trkpt>
      <trkpt lat="47.52128" lon="6.66285">
        <ele>381.3</ele>
        <time>2014-10-26T10:06:02.000Z</time>
      </trkpt>
      <trkpt lat="47.52124" lon="6.66289">
        <ele>381.6</ele>
        <time>2014-10-26T10:06:03.000Z</time>
      </trkpt>
      <trkpt lat="47.52121" lon="6.66293">
        <ele>381.6</ele>
        <time>2014-10-26T10:06:04.000Z</time>
      </trkpt>
      <trkpt lat="47.52117" lon="6.66297">
        <ele>381.7</ele>
        <time>2014-10-26T10:06:05.000Z</time>
      </trkpt>
      <trkpt lat="47.52114" lon="6.66302">
        <ele>382</ele>
        <time>2014-10-26T10:06:06.000Z</time>
      </trkpt>
      <trkpt lat="47.52111" lon="6.66306">
        <ele>381.5</ele>
        <time>2014-10-26T10:06:07.000Z</time>
      </trkpt>
      <trkpt lat="47.52108" lon="6.66313">
        <ele>381.5</ele>
        <time>2014-10-26T10:06:08.000Z</time>
      </trkpt>
      <trkpt lat="47.52106" lon="6.66319">
        <ele>381.6</ele>
        <time>2014-10-26T10:06:09.000Z</time>
      </trkpt>
      <trkpt lat="47.52106" lon="6.66324">
        <ele>383.3</ele>
        <time>2014-10-26T10:06:10.000Z</time>
      </trkpt>
      <trkpt lat="47.52105" lon="6.6633">
        <ele>382.8</ele>
        <time>2014-10-26T10:06:11.000Z</time>
      </trkpt>
      <trkpt lat="47.52105" lon="6.66337">
        <ele>382.1</ele>
        <time>2014-10-26T10:06:12.000Z</time>
      </trkpt>
      <trkpt lat="47.52104" lon="6.66343">
        <ele>382.1</ele>
        <time>2014-10-26T10:06:13.000Z</time>
      </trkpt>
      <trkpt lat="47.52105" lon="6.66349">
        <ele>381.5</ele>
        <time>2014-10-26T10:06:14.000Z</time>
      </trkpt>
      <trkpt lat="47.52105" lon="6.66355">
        <ele>381.6</ele>
        <time>2014-10-26T10:06:15.000Z</time>
      </trkpt>
      <trkpt lat="47.52106" lon="6.66361">
        <ele>381.6</ele>
        <time>2014-10-26T10:06:16.000Z</time>
      </trkpt>
      <trkpt lat="47.52106" lon="6.66367">
        <ele>381.4</ele>
        <time>2014-10-26T10:06:17.000Z</time>
      </trkpt>
      <trkpt lat="47.52107" lon="6.66373">
        <ele>381.4</ele>
        <time>2014-10-26T10:06:18.000Z</time>
      </trkpt>
      <trkpt lat="47.52107" lon="6.66379">
        <ele>381.4</ele>
        <time>2014-10-26T10:06:19.000Z</time>
      </trkpt>
      <trkpt lat="47.52108" lon="6.66385">
        <ele>381.5</ele>
        <time>2014-10-26T10:06:20.000Z</time>
      </trkpt>
      <trkpt lat="47.52109" lon="6.66391">
        <ele>381.4</ele>
        <time>2014-10-26T10:06:21.000Z</time>
      </trkpt>
      <trkpt lat="47.5211" lon="6.66398">
        <ele>380.7</ele>
        <time>2014-10-26T10:06:22.000Z</time>
      </trkpt>
      <trkpt lat="47.52111" lon="6.66404">
        <ele>380.9</ele>
        <time>2014-10-26T10:06:23.000Z</time>
      </trkpt>
      <trkpt lat="47.52112" lon="6.6641">
        <ele>381</ele>
        <time>2014-10-26T10:06:24.000Z</time>
      </trkpt>
      <trkpt lat="47.52112" lon="6.66415">
        <ele>381</ele>
        <time>2014-10-26T10:06:25.000Z</time>
      </trkpt>
      <trkpt lat="47.52112" lon="6.66421">
        <ele>381</ele>
        <time>2014-10-26T10:06:26.000Z</time>
      </trkpt>
      <trkpt lat="47.52113" lon="6.66427">
        <ele>381</ele>
        <time>2014-10-26T10:06:27.000Z</time>
      </trkpt>
      <trkpt lat="47.52114" lon="6.66433">
        <ele>381</ele>
        <time>2014-10-26T10:06:28.000Z</time>
      </trkpt>
      <trkpt lat="47.52114" lon="6.66439">
        <ele>381.2</ele>
        <time>2014-10-26T10:06:29.000Z</time>
      </trkpt>
      <trkpt lat="47.52114" lon="6.66445">
        <ele>381.3</ele>
        <time>2014-10-26T10:06:30.000Z</time>
      </trkpt>
      <trkpt lat="47.52114" lon="6.6645">
        <ele>381.4</ele>
        <time>2014-10-26T10:06:31.000Z</time>
      </trkpt>
      <trkpt lat="47.52114" lon="6.66456">
        <ele>381.2</ele>
        <time>2014-10-26T10:06:32.000Z</time>
      </trkpt>
      <trkpt lat="47.52112" lon="6.66506">
        <ele>382.4</ele>
        <time>2014-10-26T10:06:41.000Z</time>
      </trkpt>
      <trkpt lat="47.52112" lon="6.66512">
        <ele>382.9</ele>
        <time>2014-10-26T10:06:42.000Z</time>
      </trkpt>
      <trkpt lat="47.52111" lon="6.66518">
        <ele>382.8</ele>
        <time>2014-10-26T10:06:43.000Z</time>
      </trkpt>
      <trkpt lat="47.52111" lon="6.66524">
        <ele>382.9</ele>
        <time>2014-10-26T10:06:44.000Z</time>
      </trkpt>
      <trkpt lat="47.52111" lon="6.66532">
        <ele>382.7</ele>
        <time>2014-10-26T10:06:45.000Z</time>
      </trkpt>
      <trkpt lat="47.52111" lon="6.66539">
        <ele>382.7</ele>
        <time>2014-10-26T10:06:46.000Z</time>
      </trkpt>
      <trkpt lat="47.52111" lon="6.66546">
        <ele>382.4</ele>
        <time>2014-10-26T10:06:47.000Z</time>
      </trkpt>
      <trkpt lat="47.5211" lon="6.66552">
        <ele>382.3</ele>
        <time>2014-10-26T10:06:48.000Z</time>
      </trkpt>
      <trkpt lat="47.52109" lon="6.66558">
        <ele>382.4</ele>
        <time>2014-10-26T10:06:49.000Z</time>
      </trkpt>
      <trkpt lat="47.52109" lon="6.66563">
        <ele>382.2</ele>
        <time>2014-10-26T10:06:50.000Z</time>
      </trkpt>
      <trkpt lat="47.52109" lon="6.66568">
        <ele>382.3</ele>
        <time>2014-10-26T10:06:51.000Z</time>
      </trkpt>
      <trkpt lat="47.52109" lon="6.66573">
        <ele>382.8</ele>
        <time>2014-10-26T10:06:52.000Z</time>
      </trkpt>
      <trkpt lat="47.52109" lon="6.6658">
        <ele>382.5</ele>
        <time>2014-10-26T10:06:53.000Z</time>
      </trkpt>
      <trkpt lat="47.52109" lon="6.66585">
        <ele>382.7</ele>
        <time>2014-10-26T10:06:54.000Z</time>
      </trkpt>
      <trkpt lat="47.52108" lon="6.66591">
        <ele>382.8</ele>
        <time>2014-10-26T10:06:55.000Z</time>
      </trkpt>
      <trkpt lat="47.52108" lon="6.66597">
        <ele>382.9</ele>
        <time>2014-10-26T10:06:56.000Z</time>
      </trkpt>
      <trkpt lat="47.52108" lon="6.66602">
        <ele>382.9</ele>
        <time>2014-10-26T10:06:57.000Z</time>
      </trkpt>
      <trkpt lat="47.52108" lon="6.66608">
        <ele>382.8</ele>
        <time>2014-10-26T10:06:58.000Z</time>
      </trkpt>
      <trkpt lat="47.52108" lon="6.66614">
        <ele>382.7</ele>
        <time>2014-10-26T10:06:59.000Z</time>
      </trkpt>
      <trkpt lat="47.52108" lon="6.66621">
        <ele>382.7</ele>
        <time>2014-10-26T10:07:00.000Z</time>
      </trkpt>
      <trkpt lat="47.52109" lon="6.66628">
        <ele>382.7</ele>
        <time>2014-10-26T10:07:01.000Z</time>
      </trkpt>
      <trkpt lat="47.52108" lon="6.66634">
        <ele>382.8</ele>
        <time>2014-10-26T10:07:02.000Z</time>
      </trkpt>
      <trkpt lat="47.52109" lon="6.66641">
        <ele>382.9</ele>
        <time>2014-10-26T10:07:03.000Z</time>
      </trkpt>
      <trkpt lat="47.52109" lon="6.66647">
        <ele>382.9</ele>
        <time>2014-10-26T10:07:04.000Z</time>
      </trkpt>
      <trkpt lat="47.52109" lon="6.66654">
        <ele>382.8</ele>
        <time>2014-10-26T10:07:05.000Z</time>
      </trkpt>
      <trkpt lat="47.52109" lon="6.6666">
        <ele>382.7</ele>
        <time>2014-10-26T10:07:06.000Z</time>
      </trkpt>
      <trkpt lat="47.52109" lon="6.66667">
        <ele>383.2</ele>
        <time>2014-10-26T10:07:07.000Z</time>
      </trkpt>
      <trkpt lat="47.52109" lon="6.66674">
        <ele>382.8</ele>
        <time>2014-10-26T10:07:08.000Z</time>
      </trkpt>
      <trkpt lat="47.52109" lon="6.66681">
        <ele>382.7</ele>
        <time>2014-10-26T10:07:09.000Z</time>
      </trkpt>
      <trkpt lat="47.52109" lon="6.66687">
        <ele>382.6</ele>
        <time>2014-10-26T10:07:10.000Z</time>
      </trkpt>
      <trkpt lat="47.52109" lon="6.66694">
        <ele>382.4</ele>
        <time>2014-10-26T10:07:11.000Z</time>
      </trkpt>
      <trkpt lat="47.52109" lon="6.66702">
        <ele>382</ele>
        <time>2014-10-26T10:07:12.000Z</time>
      </trkpt>
      <trkpt lat="47.52109" lon="6.66709">
        <ele>381.8</ele>
        <time>2014-10-26T10:07:13.000Z</time>
      </trkpt>
      <trkpt lat="47.52108" lon="6.66715">
        <ele>381.9</ele>
        <time>2014-10-26T10:07:14.000Z</time>
      </trkpt>
      <trkpt lat="47.52108" lon="6.66722">
        <ele>381.9</ele>
        <time>2014-10-26T10:07:15.000Z</time>
      </trkpt>
      <trkpt lat="47.52108" lon="6.66728">
        <ele>382.3</ele>
        <time>2014-10-26T10:07:16.000Z</time>
      </trkpt>
      <trkpt lat="47.52108" lon="6.66735">
        <ele>382.6</ele>
        <time>2014-10-26T10:07:17.000Z</time>
      </trkpt>
      <trkpt lat="47.52108" lon="6.66742">
        <ele>382.6</ele>
        <time>2014-10-26T10:07:18.000Z</time>
      </trkpt>
      <trkpt lat="47.52107" lon="6.66748">
        <ele>383.1</ele>
        <time>2014-10-26T10:07:19.000Z</time>
      </trkpt>
      <trkpt lat="47.52107" lon="6.66755">
        <ele>382.8</ele>
        <time>2014-10-26T10:07:20.000Z</time>
      </trkpt>
      <trkpt lat="47.52106" lon="6.66762">
        <ele>382.4</ele>
        <time>2014-10-26T10:07:21.000Z</time>
      </trkpt>
      <trkpt lat="47.52106" lon="6.66769">
        <ele>382.3</ele>
        <time>2014-10-26T10:07:22.000Z</time>
      </trkpt>
      <trkpt lat="47.52106" lon="6.66776">
        <ele>382</ele>
        <time>2014-10-26T10:07:23.000Z</time>
      </trkpt>
      <trkpt lat="47.52106" lon="6.66782">
        <ele>381.4</ele>
        <time>2014-10-26T10:07:24.000Z</time>
      </trkpt>
      <trkpt lat="47.52106" lon="6.66788">
        <ele>381.4</ele>
        <time>2014-10-26T10:07:25.000Z</time>
      </trkpt>
      <trkpt lat="47.52106" lon="6.66794">
        <ele>381.1</ele>
        <time>2014-10-26T10:07:26.000Z</time>
      </trkpt>
      <trkpt lat="47.52105" lon="6.66801">
        <ele>381.1</ele>
        <time>2014-10-26T10:07:27.000Z</time>
      </trkpt>
      <trkpt lat="47.52105" lon="6.66807">
        <ele>381.1</ele>
        <time>2014-10-26T10:07:28.000Z</time>
      </trkpt>
      <trkpt lat="47.52106" lon="6.66815">
        <ele>381.1</ele>
        <time>2014-10-26T10:07:29.000Z</time>
      </trkpt>
      <trkpt lat="47.52106" lon="6.66822">
        <ele>381</ele>
        <time>2014-10-26T10:07:30.000Z</time>
      </trkpt>
      <trkpt lat="47.52107" lon="6.6683">
        <ele>380.8</ele>
        <time>2014-10-26T10:07:31.000Z</time>
      </trkpt>
      <trkpt lat="47.52107" lon="6.66838">
        <ele>380.6</ele>
        <time>2014-10-26T10:07:32.000Z</time>
      </trkpt>
      <trkpt lat="47.52108" lon="6.66845">
        <ele>380.5</ele>
        <time>2014-10-26T10:07:33.000Z</time>
      </trkpt>
      <trkpt lat="47.52109" lon="6.66907">
        <ele>380.9</ele>
        <time>2014-10-26T10:07:41.000Z</time>
      </trkpt>
      <trkpt lat="47.52108" lon="6.66912">
        <ele>380.7</ele>
        <time>2014-10-26T10:07:42.000Z</time>
      </trkpt>
      <trkpt lat="47.52108" lon="6.66917">
        <ele>380.6</ele>
        <time>2014-10-26T10:07:43.000Z</time>
      </trkpt>
      <trkpt lat="47.52109" lon="6.66924">
        <ele>381.3</ele>
        <time>2014-10-26T10:07:44.000Z</time>
      </trkpt>
      <trkpt lat="47.5211" lon="6.66928">
        <ele>381.3</ele>
        <time>2014-10-26T10:07:45.000Z</time>
      </trkpt>
      <trkpt lat="47.5211" lon="6.66932">
        <ele>380.4</ele>
        <time>2014-10-26T10:07:47.000Z</time>
      </trkpt>
      <trkpt lat="47.5211" lon="6.66934">
        <ele>380.3</ele>
        <time>2014-10-26T10:07:48.000Z</time>
      </trkpt>
      <trkpt lat="47.5211" lon="6.66941">
        <ele>380.5</ele>
        <time>2014-10-26T10:07:51.000Z</time>
      </trkpt>
      <trkpt lat="47.52111" lon="6.66942">
        <ele>380.5</ele>
        <time>2014-10-26T10:07:52.000Z</time>
      </trkpt>
      <trkpt lat="47.52111" lon="6.66946">
        <ele>380.2</ele>
        <time>2014-10-26T10:07:54.000Z</time>
      </trkpt>
      <trkpt lat="47.52111" lon="6.66949">
        <ele>380.2</ele>
        <time>2014-10-26T10:07:55.000Z</time>
      </trkpt>
      <trkpt lat="47.52111" lon="6.66954">
        <ele>380.6</ele>
        <time>2014-10-26T10:07:57.000Z</time>
      </trkpt>
      <trkpt lat="47.5211" lon="6.66956">
        <ele>380.1</ele>
        <time>2014-10-26T10:07:58.000Z</time>
      </trkpt>
      <trkpt lat="47.5211" lon="6.6696">
        <ele>381.4</ele>
        <time>2014-10-26T10:08:00.000Z</time>
      </trkpt>
      <trkpt lat="47.5211" lon="6.66963">
        <ele>380.5</ele>
        <time>2014-10-26T10:08:01.000Z</time>
      </trkpt>
      <trkpt lat="47.52111" lon="6.66967">
        <ele>380.3</ele>
        <time>2014-10-26T10:08:03.000Z</time>
      </trkpt>
      <trkpt lat="47.52111" lon="6.6697">
        <ele>380.6</ele>
        <time>2014-10-26T10:08:04.000Z</time>
      </trkpt>
      <trkpt lat="47.52112" lon="6.66975">
        <ele>380.9</ele>
        <time>2014-10-26T10:08:06.000Z</time>
      </trkpt>
      <trkpt lat="47.52113" lon="6.66978">
        <ele>380.8</ele>
        <time>2014-10-26T10:08:07.000Z</time>
      </trkpt>
      <trkpt lat="47.52114" lon="6.66985">
        <ele>381</ele>
        <time>2014-10-26T10:08:09.000Z</time>
      </trkpt>
      <trkpt lat="47.52114" lon="6.66987">
        <ele>380.6</ele>
        <time>2014-10-26T10:08:10.000Z</time>
      </trkpt>
      <trkpt lat="47.52115" lon="6.66993">
        <ele>380.5</ele>
        <time>2014-10-26T10:08:12.000Z</time>
      </trkpt>
      <trkpt lat="47.52116" lon="6.66996">
        <ele>380.5</ele>
        <time>2014-10-26T10:08:13.000Z</time>
      </trkpt>
      <trkpt lat="47.52117" lon="6.67001">
        <ele>380.6</ele>
        <time>2014-10-26T10:08:15.000Z</time>
      </trkpt>
      <trkpt lat="47.52117" lon="6.67003">
        <ele>380.6</ele>
        <time>2014-10-26T10:08:16.000Z</time>
      </trkpt>
      <trkpt lat="47.52118" lon="6.67006">
        <ele>380.7</ele>
        <time>2014-10-26T10:08:17.000Z</time>
      </trkpt>
      <trkpt lat="47.52118" lon="6.6701">
        <ele>380.8</ele>
        <time>2014-10-26T10:08:18.000Z</time>
      </trkpt>
      <trkpt lat="47.52119" lon="6.67014">
        <ele>380.6</ele>
        <time>2014-10-26T10:08:19.000Z</time>
      </trkpt>
      <trkpt lat="47.5212" lon="6.67018">
        <ele>380.7</ele>
        <time>2014-10-26T10:08:20.000Z</time>
      </trkpt>
      <trkpt lat="47.5212" lon="6.67022">
        <ele>380.9</ele>
        <time>2014-10-26T10:08:21.000Z</time>
      </trkpt>
      <trkpt lat="47.52121" lon="6.67026">
        <ele>381</ele>
        <time>2014-10-26T10:08:22.000Z</time>
      </trkpt>
      <trkpt lat="47.52122" lon="6.67031">
        <ele>381.2</ele>
        <time>2014-10-26T10:08:23.000Z</time>
      </trkpt>
      <trkpt lat="47.52123" lon="6.67035">
        <ele>380.8</ele>
        <time>2014-10-26T10:08:24.000Z</time>
      </trkpt>
      <trkpt lat="47.52124" lon="6.6704">
        <ele>380.7</ele>
        <time>2014-10-26T10:08:25.000Z</time>
      </trkpt>
      <trkpt lat="47.52125" lon="6.67044">
        <ele>380.4</ele>
        <time>2014-10-26T10:08:26.000Z</time>
      </trkpt>
      <trkpt lat="47.52126" lon="6.67049">
        <ele>380.5</ele>
        <time>2014-10-26T10:08:27.000Z</time>
      </trkpt>
      <trkpt lat="47.52127" lon="6.67053">
        <ele>380.3</ele>
        <time>2014-10-26T10:08:28.000Z</time>
      </trkpt>
      <trkpt lat="47.52128" lon="6.67057">
        <ele>380.5</ele>
        <time>2014-10-26T10:08:29.000Z</time>
      </trkpt>
      <trkpt lat="47.52128" lon="6.67061">
        <ele>380.7</ele>
        <time>2014-10-26T10:08:30.000Z</time>
      </trkpt>
      <trkpt lat="47.52129" lon="6.67064">
        <ele>380.9</ele>
        <time>2014-10-26T10:08:31.000Z</time>
      </trkpt>
      <trkpt lat="47.5213" lon="6.67067">
        <ele>380.7</ele>
        <time>2014-10-26T10:08:32.000Z</time>
      </trkpt>
      <trkpt lat="47.52132" lon="6.67072">
        <ele>379.8</ele>
        <time>2014-10-26T10:08:34.000Z</time>
      </trkpt>
      <trkpt lat="47.52134" lon="6.67078">
        <ele>379.5</ele>
        <time>2014-10-26T10:08:37.000Z</time>
      </trkpt>
      <trkpt lat="47.52135" lon="6.67082">
        <ele>378.3</ele>
        <time>2014-10-26T10:08:39.000Z</time>
      </trkpt>
      <trkpt lat="47.52136" lon="6.67085">
        <ele>377.9</ele>
        <time>2014-10-26T10:08:40.000Z</time>
      </trkpt>
      <trkpt lat="47.52136" lon="6.67088">
        <ele>378</ele>
        <time>2014-10-26T10:08:41.000Z</time>
      </trkpt>
      <trkpt lat="47.52137" lon="6.67091">
        <ele>377.5</ele>
        <time>2014-10-26T10:08:42.000Z</time>
      </trkpt>
      <trkpt lat="47.52138" lon="6.67095">
        <ele>376.8</ele>
        <time>2014-10-26T10:08:43.047Z</time>
      </trkpt>
      <trkpt lat="47.52138" lon="6.67099">
        <ele>378.1</ele>
        <time>2014-10-26T10:08:44.000Z</time>
      </trkpt>
      <trkpt lat="47.52139" lon="6.67103">
        <ele>378</ele>
        <time>2014-10-26T10:08:45.000Z</time>
      </trkpt>
      <trkpt lat="47.5214" lon="6.67107">
        <ele>377.8</ele>
        <time>2014-10-26T10:08:46.000Z</time>
      </trkpt>
      <trkpt lat="47.52142" lon="6.67112">
        <ele>377.6</ele>
        <time>2014-10-26T10:08:47.000Z</time>
      </trkpt>
      <trkpt lat="47.52142" lon="6.67116">
        <ele>377.6</ele>
        <time>2014-10-26T10:08:48.000Z</time>
      </trkpt>
      <trkpt lat="47.52143" lon="6.67121">
        <ele>377.4</ele>
        <time>2014-10-26T10:08:49.000Z</time>
      </trkpt>
      <trkpt lat="47.52144" lon="6.67126">
        <ele>377.4</ele>
        <time>2014-10-26T10:08:49.999Z</time>
      </trkpt>
      <trkpt lat="47.52146" lon="6.67131">
        <ele>377.2</ele>
        <time>2014-10-26T10:08:51.000Z</time>
      </trkpt>
      <trkpt lat="47.52147" lon="6.67135">
        <ele>377</ele>
        <time>2014-10-26T10:08:51.999Z</time>
      </trkpt>
      <trkpt lat="47.52148" lon="6.67141">
        <ele>377.3</ele>
        <time>2014-10-26T10:08:53.000Z</time>
      </trkpt>
      <trkpt lat="47.52149" lon="6.67146">
        <ele>377.4</ele>
        <time>2014-10-26T10:08:54.000Z</time>
      </trkpt>
      <trkpt lat="47.5215" lon="6.67151">
        <ele>377.5</ele>
        <time>2014-10-26T10:08:55.000Z</time>
      </trkpt>
      <trkpt lat="47.52151" lon="6.67157">
        <ele>377.3</ele>
        <time>2014-10-26T10:08:56.000Z</time>
      </trkpt>
      <trkpt lat="47.52152" lon="6.67162">
        <ele>377.2</ele>
        <time>2014-10-26T10:08:57.045Z</time>
      </trkpt>
      <trkpt lat="47.52153" lon="6.67167">
        <ele>377.5</ele>
        <time>2014-10-26T10:08:58.000Z</time>
      </trkpt>
      <trkpt lat="47.52154" lon="6.67173">
        <ele>377.5</ele>
        <time>2014-10-26T10:08:58.999Z</time>
      </trkpt>
      <trkpt lat="47.52156" lon="6.67178">
        <ele>377.4</ele>
        <time>2014-10-26T10:09:00.000Z</time>
      </trkpt>
      <trkpt lat="47.52157" lon="6.67184">
        <ele>377</ele>
        <time>2014-10-26T10:09:01.000Z</time>
      </trkpt>
      <trkpt lat="47.52158" lon="6.67191">
        <ele>377.1</ele>
        <time>2014-10-26T10:09:02.000Z</time>
      </trkpt>
      <trkpt lat="47.52159" lon="6.67197">
        <ele>377.7</ele>
        <time>2014-10-26T10:09:03.000Z</time>
      </trkpt>
      <trkpt lat="47.5216" lon="6.67203">
        <ele>378.1</ele>
        <time>2014-10-26T10:09:04.046Z</time>
      </trkpt>
      <trkpt lat="47.52161" lon="6.67208">
        <ele>377.9</ele>
        <time>2014-10-26T10:09:05.000Z</time>
      </trkpt>
      <trkpt lat="47.52162" lon="6.67214">
        <ele>378</ele>
        <time>2014-10-26T10:09:05.999Z</time>
      </trkpt>
      <trkpt lat="47.52163" lon="6.67219">
        <ele>378.6</ele>
        <time>2014-10-26T10:09:07.000Z</time>
      </trkpt>
      <trkpt lat="47.52164" lon="6.67225">
        <ele>378.9</ele>
        <time>2014-10-26T10:09:08.000Z</time>
      </trkpt>
      <trkpt lat="47.52165" lon="6.67231">
        <ele>378.8</ele>
        <time>2014-10-26T10:09:09.000Z</time>
      </trkpt>
      <trkpt lat="47.52167" lon="6.67236">
        <ele>378.9</ele>
        <time>2014-10-26T10:09:10.000Z</time>
      </trkpt>
      <trkpt lat="47.52167" lon="6.67242">
        <ele>378.6</ele>
        <time>2014-10-26T10:09:11.000Z</time>
      </trkpt>
      <trkpt lat="47.52168" lon="6.67248">
        <ele>378.6</ele>
        <time>2014-10-26T10:09:12.000Z</time>
      </trkpt>
      <trkpt lat="47.52169" lon="6.67254">
        <ele>379</ele>
        <time>2014-10-26T10:09:13.000Z</time>
      </trkpt>
      <trkpt lat="47.5217" lon="6.6726">
        <ele>379</ele>
        <time>2014-10-26T10:09:14.000Z</time>
      </trkpt>
      <trkpt lat="47.52171" lon="6.67266">
        <ele>379.2</ele>
        <time>2014-10-26T10:09:14.999Z</time>
      </trkpt>
      <trkpt lat="47.52172" lon="6.67272">
        <ele>379</ele>
        <time>2014-10-26T10:09:16.000Z</time>
      </trkpt>
      <trkpt lat="47.52172" lon="6.67279">
        <ele>379</ele>
        <time>2014-10-26T10:09:17.000Z</time>
      </trkpt>
      <trkpt lat="47.52172" lon="6.67286">
        <ele>378.7</ele>
        <time>2014-10-26T10:09:18.000Z</time>
      </trkpt>
      <trkpt lat="47.52172" lon="6.67294">
        <ele>378.3</ele>
        <time>2014-10-26T10:09:19.000Z</time>
      </trkpt>
      <trkpt lat="47.52173" lon="6.67302">
        <ele>377.7</ele>
        <time>2014-10-26T10:09:20.049Z</time>
      </trkpt>
      <trkpt lat="47.52173" lon="6.67309">
        <ele>377.8</ele>
        <time>2014-10-26T10:09:21.000Z</time>
      </trkpt>
      <trkpt lat="47.52173" lon="6.67317">
        <ele>377.5</ele>
        <time>2014-10-26T10:09:22.053Z</time>
      </trkpt>
      <trkpt lat="47.52174" lon="6.67325">
        <ele>376.5</ele>
        <time>2014-10-26T10:09:23.000Z</time>
      </trkpt>
      <trkpt lat="47.52174" lon="6.67334">
        <ele>375.8</ele>
        <time>2014-10-26T10:09:23.999Z</time>
      </trkpt>
      <trkpt lat="47.52174" lon="6.6734">
        <ele>377.4</ele>
        <time>2014-10-26T10:09:25.000Z</time>
      </trkpt>
      <trkpt lat="47.52175" lon="6.67348">
        <ele>377.3</ele>
        <time>2014-10-26T10:09:26.000Z</time>
      </trkpt>
      <trkpt lat="47.52176" lon="6.67356">
        <ele>376.9</ele>
        <time>2014-10-26T10:09:27.000Z</time>
      </trkpt>
      <trkpt lat="47.52177" lon="6.67364">
        <ele>376.2</ele>
        <time>2014-10-26T10:09:28.000Z</time>
      </trkpt>
      <trkpt lat="47.52179" lon="6.67372">
        <ele>376</ele>
        <time>2014-10-26T10:09:29.045Z</time>
      </trkpt>
      <trkpt lat="47.5218" lon="6.67377">
        <ele>376.3</ele>
        <time>2014-10-26T10:09:30.000Z</time>
      </trkpt>
      <trkpt lat="47.52181" lon="6.67384">
        <ele>376.1</ele>
        <time>2014-10-26T10:09:31.000Z</time>
      </trkpt>
      <trkpt lat="47.52182" lon="6.67389">
        <ele>376.3</ele>
        <time>2014-10-26T10:09:32.000Z</time>
      </trkpt>
      <trkpt lat="47.52183" lon="6.67394">
        <ele>376.6</ele>
        <time>2014-10-26T10:09:33.000Z</time>
      </trkpt>
      <trkpt lat="47.52185" lon="6.67399">
        <ele>377.1</ele>
        <time>2014-10-26T10:09:34.000Z</time>
      </trkpt>
      <trkpt lat="47.5219" lon="6.67418">
        <ele>377.1</ele>
        <time>2014-10-26T10:09:37.000Z</time>
      </trkpt>
      <trkpt lat="47.52193" lon="6.67424">
        <ele>376.9</ele>
        <time>2014-10-26T10:09:38.000Z</time>
      </trkpt>
      <trkpt lat="47.52195" lon="6.6743">
        <ele>376.7</ele>
        <time>2014-10-26T10:09:39.000Z</time>
      </trkpt>
      <trkpt lat="47.52198" lon="6.67437">
        <ele>376.5</ele>
        <time>2014-10-26T10:09:40.000Z</time>
      </trkpt>
      <trkpt lat="47.522" lon="6.67443">
        <ele>376.5</ele>
        <time>2014-10-26T10:09:41.000Z</time>
      </trkpt>
      <trkpt lat="47.52202" lon="6.67449">
        <ele>376.5</ele>
        <time>2014-10-26T10:09:42.000Z</time>
      </trkpt>
      <trkpt lat="47.52204" lon="6.67456">
        <ele>376.5</ele>
        <time>2014-10-26T10:09:43.000Z</time>
      </trkpt>
      <trkpt lat="47.52206" lon="6.67462">
        <ele>376.4</ele>
        <time>2014-10-26T10:09:44.000Z</time>
      </trkpt>
      <trkpt lat="47.52207" lon="6.67469">
        <ele>376</ele>
        <time>2014-10-26T10:09:45.000Z</time>
      </trkpt>
      <trkpt lat="47.52207" lon="6.67476">
        <ele>376.1</ele>
        <time>2014-10-26T10:09:46.000Z</time>
      </trkpt>
      <trkpt lat="47.52208" lon="6.67483">
        <ele>376.4</ele>
        <time>2014-10-26T10:09:47.000Z</time>
      </trkpt>
      <trkpt lat="47.52208" lon="6.6749">
        <ele>376.1</ele>
        <time>2014-10-26T10:09:48.000Z</time>
      </trkpt>
      <trkpt lat="47.52208" lon="6.67497">
        <ele>374.9</ele>
        <time>2014-10-26T10:09:49.000Z</time>
      </trkpt>
      <trkpt lat="47.52207" lon="6.67504">
        <ele>374.8</ele>
        <time>2014-10-26T10:09:50.000Z</time>
      </trkpt>
      <trkpt lat="47.52207" lon="6.6751">
        <ele>375.2</ele>
        <time>2014-10-26T10:09:51.000Z</time>
      </trkpt>
      <trkpt lat="47.52206" lon="6.67517">
        <ele>375.1</ele>
        <time>2014-10-26T10:09:52.000Z</time>
      </trkpt>
      <trkpt lat="47.52206" lon="6.67525">
        <ele>375.1</ele>
        <time>2014-10-26T10:09:53.000Z</time>
      </trkpt>
      <trkpt lat="47.52206" lon="6.67532">
        <ele>375.1</ele>
        <time>2014-10-26T10:09:54.000Z</time>
      </trkpt>
      <trkpt lat="47.52206" lon="6.6754">
        <ele>374.2</ele>
        <time>2014-10-26T10:09:55.000Z</time>
      </trkpt>
      <trkpt lat="47.52206" lon="6.67547">
        <ele>374.9</ele>
        <time>2014-10-26T10:09:56.000Z</time>
      </trkpt>
      <trkpt lat="47.52205" lon="6.67554">
        <ele>374.9</ele>
        <time>2014-10-26T10:09:57.000Z</time>
      </trkpt>
      <trkpt lat="47.52205" lon="6.6756">
        <ele>374.8</ele>
        <time>2014-10-26T10:09:58.000Z</time>
      </trkpt>
      <trkpt lat="47.52205" lon="6.67568">
        <ele>374.7</ele>
        <time>2014-10-26T10:09:59.000Z</time>
      </trkpt>
      <trkpt lat="47.52205" lon="6.67577">
        <ele>374.2</ele>
        <time>2014-10-26T10:10:00.000Z</time>
      </trkpt>
      <trkpt lat="47.52204" lon="6.67584">
        <ele>373.6</ele>
        <time>2014-10-26T10:10:01.000Z</time>
      </trkpt>
      <trkpt lat="47.52204" lon="6.67592">
        <ele>373.8</ele>
        <time>2014-10-26T10:10:02.000Z</time>
      </trkpt>
      <trkpt lat="47.52204" lon="6.676">
        <ele>373.3</ele>
        <time>2014-10-26T10:10:03.000Z</time>
      </trkpt>
      <trkpt lat="47.52204" lon="6.67608">
        <ele>372.9</ele>
        <time>2014-10-26T10:10:04.000Z</time>
      </trkpt>
      <trkpt lat="47.52204" lon="6.67615">
        <ele>372.9</ele>
        <time>2014-10-26T10:10:05.000Z</time>
      </trkpt>
      <trkpt lat="47.52204" lon="6.67623">
        <ele>372.1</ele>
        <time>2014-10-26T10:10:06.000Z</time>
      </trkpt>
      <trkpt lat="47.52203" lon="6.67631">
        <ele>372.3</ele>
        <time>2014-10-26T10:10:07.000Z</time>
      </trkpt>
      <trkpt lat="47.52203" lon="6.6764">
        <ele>371.9</ele>
        <time>2014-10-26T10:10:08.000Z</time>
      </trkpt>
      <trkpt lat="47.52203" lon="6.67648">
        <ele>371.6</ele>
        <time>2014-10-26T10:10:09.000Z</time>
      </trkpt>
      <trkpt lat="47.52202" lon="6.67657">
        <ele>371.5</ele>
        <time>2014-10-26T10:10:10.000Z</time>
      </trkpt>
      <trkpt lat="47.52202" lon="6.67665">
        <ele>371.4</ele>
        <time>2014-10-26T10:10:11.000Z</time>
      </trkpt>
      <trkpt lat="47.52202" lon="6.67672">
        <ele>371.8</ele>
        <time>2014-10-26T10:10:12.000Z</time>
      </trkpt>
      <trkpt lat="47.52202" lon="6.6768">
        <ele>371.5</ele>
        <time>2014-10-26T10:10:13.000Z</time>
      </trkpt>
      <trkpt lat="47.52203" lon="6.67688">
        <ele>371.6</ele>
        <time>2014-10-26T10:10:14.000Z</time>
      </trkpt>
      <trkpt lat="47.52202" lon="6.67696">
        <ele>371</ele>
        <time>2014-10-26T10:10:15.000Z</time>
      </trkpt>
      <trkpt lat="47.52202" lon="6.67705">
        <ele>370.9</ele>
        <time>2014-10-26T10:10:16.000Z</time>
      </trkpt>
      <trkpt lat="47.52201" lon="6.67714">
        <ele>370.6</ele>
        <time>2014-10-26T10:10:17.000Z</time>
      </trkpt>
      <trkpt lat="47.52201" lon="6.67722">
        <ele>370.6</ele>
        <time>2014-10-26T10:10:18.000Z</time>
      </trkpt>
      <trkpt lat="47.522" lon="6.67731">
        <ele>370.2</ele>
        <time>2014-10-26T10:10:19.000Z</time>
      </trkpt>
      <trkpt lat="47.522" lon="6.67739">
        <ele>370</ele>
        <time>2014-10-26T10:10:20.000Z</time>
      </trkpt>
      <trkpt lat="47.52199" lon="6.67748">
        <ele>370</ele>
        <time>2014-10-26T10:10:21.000Z</time>
      </trkpt>
      <trkpt lat="47.52199" lon="6.67756">
        <ele>369.8</ele>
        <time>2014-10-26T10:10:22.000Z</time>
      </trkpt>
      <trkpt lat="47.52198" lon="6.67765">
        <ele>369.7</ele>
        <time>2014-10-26T10:10:23.000Z</time>
      </trkpt>
      <trkpt lat="47.52198" lon="6.67773">
        <ele>369.6</ele>
        <time>2014-10-26T10:10:24.000Z</time>
      </trkpt>
      <trkpt lat="47.52197" lon="6.67782">
        <ele>369.4</ele>
        <time>2014-10-26T10:10:25.000Z</time>
      </trkpt>
      <trkpt lat="47.52196" lon="6.6779">
        <ele>369.9</ele>
        <time>2014-10-26T10:10:26.000Z</time>
      </trkpt>
      <trkpt lat="47.52196" lon="6.67798">
        <ele>369.9</ele>
        <time>2014-10-26T10:10:26.999Z</time>
      </trkpt>
      <trkpt lat="47.52195" lon="6.67807">
        <ele>369.9</ele>
        <time>2014-10-26T10:10:28.000Z</time>
      </trkpt>
      <trkpt lat="47.52195" lon="6.67816">
        <ele>369.4</ele>
        <time>2014-10-26T10:10:29.000Z</time>
      </trkpt>
      <trkpt lat="47.52193" lon="6.67824">
        <ele>369.1</ele>
        <time>2014-10-26T10:10:30.000Z</time>
      </trkpt>
      <trkpt lat="47.52193" lon="6.67831">
        <ele>369</ele>
        <time>2014-10-26T10:10:31.000Z</time>
      </trkpt>
      <trkpt lat="47.52192" lon="6.67838">
        <ele>368.8</ele>
        <time>2014-10-26T10:10:32.000Z</time>
      </trkpt>
      <trkpt lat="47.52192" lon="6.67845">
        <ele>368.8</ele>
        <time>2014-10-26T10:10:33.000Z</time>
      </trkpt>
      <trkpt lat="47.52188" lon="6.67905">
        <ele>368.2</ele>
        <time>2014-10-26T10:10:41.000Z</time>
      </trkpt>
      <trkpt lat="47.52187" lon="6.67912">
        <ele>367.9</ele>
        <time>2014-10-26T10:10:42.000Z</time>
      </trkpt>
      <trkpt lat="47.52186" lon="6.67919">
        <ele>367.7</ele>
        <time>2014-10-26T10:10:43.000Z</time>
      </trkpt>
      <trkpt lat="47.52186" lon="6.67927">
        <ele>367.7</ele>
        <time>2014-10-26T10:10:44.000Z</time>
      </trkpt>
      <trkpt lat="47.52185" lon="6.67934">
        <ele>367.5</ele>
        <time>2014-10-26T10:10:45.000Z</time>
      </trkpt>
      <trkpt lat="47.52184" lon="6.67941">
        <ele>367.4</ele>
        <time>2014-10-26T10:10:46.000Z</time>
      </trkpt>
      <trkpt lat="47.52183" lon="6.67949">
        <ele>367.4</ele>
        <time>2014-10-26T10:10:47.000Z</time>
      </trkpt>
      <trkpt lat="47.52182" lon="6.67957">
        <ele>367.2</ele>
        <time>2014-10-26T10:10:48.000Z</time>
      </trkpt>
      <trkpt lat="47.52182" lon="6.67964">
        <ele>367.1</ele>
        <time>2014-10-26T10:10:49.000Z</time>
      </trkpt>
      <trkpt lat="47.52181" lon="6.67973">
        <ele>366.4</ele>
        <time>2014-10-26T10:10:50.000Z</time>
      </trkpt>
      <trkpt lat="47.52181" lon="6.6798">
        <ele>366.4</ele>
        <time>2014-10-26T10:10:51.000Z</time>
      </trkpt>
      <trkpt lat="47.5218" lon="6.67988">
        <ele>365.9</ele>
        <time>2014-10-26T10:10:52.000Z</time>
      </trkpt>
      <trkpt lat="47.52179" lon="6.67995">
        <ele>365.7</ele>
        <time>2014-10-26T10:10:53.000Z</time>
      </trkpt>
      <trkpt lat="47.52179" lon="6.68003">
        <ele>365.5</ele>
        <time>2014-10-26T10:10:54.000Z</time>
      </trkpt>
      <trkpt lat="47.52178" lon="6.68011">
        <ele>365.6</ele>
        <time>2014-10-26T10:10:54.999Z</time>
      </trkpt>
      <trkpt lat="47.52178" lon="6.68018">
        <ele>365.4</ele>
        <time>2014-10-26T10:10:56.000Z</time>
      </trkpt>
      <trkpt lat="47.52177" lon="6.68025">
        <ele>365.3</ele>
        <time>2014-10-26T10:10:57.000Z</time>
      </trkpt>
      <trkpt lat="47.52176" lon="6.68033">
        <ele>365.5</ele>
        <time>2014-10-26T10:10:58.000Z</time>
      </trkpt>
      <trkpt lat="47.52176" lon="6.68041">
        <ele>365.5</ele>
        <time>2014-10-26T10:10:59.000Z</time>
      </trkpt>
      <trkpt lat="47.52175" lon="6.6805">
        <ele>365.3</ele>
        <time>2014-10-26T10:11:00.000Z</time>
      </trkpt>
      <trkpt lat="47.52175" lon="6.68057">
        <ele>365.4</ele>
        <time>2014-10-26T10:11:01.000Z</time>
      </trkpt>
      <trkpt lat="47.52174" lon="6.68066">
        <ele>365.2</ele>
        <time>2014-10-26T10:11:02.000Z</time>
      </trkpt>
      <trkpt lat="47.52173" lon="6.68074">
        <ele>365</ele>
        <time>2014-10-26T10:11:03.000Z</time>
      </trkpt>
      <trkpt lat="47.52173" lon="6.68082">
        <ele>365</ele>
        <time>2014-10-26T10:11:04.000Z</time>
      </trkpt>
      <trkpt lat="47.52172" lon="6.6809">
        <ele>365.2</ele>
        <time>2014-10-26T10:11:05.000Z</time>
      </trkpt>
      <trkpt lat="47.52171" lon="6.68097">
        <ele>364.9</ele>
        <time>2014-10-26T10:11:06.000Z</time>
      </trkpt>
      <trkpt lat="47.5217" lon="6.68103">
        <ele>364.6</ele>
        <time>2014-10-26T10:11:07.000Z</time>
      </trkpt>
      <trkpt lat="47.5217" lon="6.6811">
        <ele>364.9</ele>
        <time>2014-10-26T10:11:08.000Z</time>
      </trkpt>
      <trkpt lat="47.52169" lon="6.68116">
        <ele>364.8</ele>
        <time>2014-10-26T10:11:09.000Z</time>
      </trkpt>
      <trkpt lat="47.52168" lon="6.68121">
        <ele>364.6</ele>
        <time>2014-10-26T10:11:10.000Z</time>
      </trkpt>
      <trkpt lat="47.52166" lon="6.68125">
        <ele>364.2</ele>
        <time>2014-10-26T10:11:11.000Z</time>
      </trkpt>
      <trkpt lat="47.52165" lon="6.68129">
        <ele>364.4</ele>
        <time>2014-10-26T10:11:12.000Z</time>
      </trkpt>
      <trkpt lat="47.52163" lon="6.68133">
        <ele>364.3</ele>
        <time>2014-10-26T10:11:13.000Z</time>
      </trkpt>
      <trkpt lat="47.52162" lon="6.68138">
        <ele>363.7</ele>
        <time>2014-10-26T10:11:14.000Z</time>
      </trkpt>
      <trkpt lat="47.52161" lon="6.68142">
        <ele>363.9</ele>
        <time>2014-10-26T10:11:15.000Z</time>
      </trkpt>
      <trkpt lat="47.5216" lon="6.68147">
        <ele>363.6</ele>
        <time>2014-10-26T10:11:16.000Z</time>
      </trkpt>
      <trkpt lat="47.52159" lon="6.68152">
        <ele>363.6</ele>
        <time>2014-10-26T10:11:17.000Z</time>
      </trkpt>
      <trkpt lat="47.52158" lon="6.68157">
        <ele>363.6</ele>
        <time>2014-10-26T10:11:18.000Z</time>
      </trkpt>
      <trkpt lat="47.52158" lon="6.68162">
        <ele>364.1</ele>
        <time>2014-10-26T10:11:19.000Z</time>
      </trkpt>
      <trkpt lat="47.52158" lon="6.68167">
        <ele>364.6</ele>
        <time>2014-10-26T10:11:20.000Z</time>
      </trkpt>
      <trkpt lat="47.52159" lon="6.68172">
        <ele>363.7</ele>
        <time>2014-10-26T10:11:21.000Z</time>
      </trkpt>
      <trkpt lat="47.52159" lon="6.68177">
        <ele>363.4</ele>
        <time>2014-10-26T10:11:22.000Z</time>
      </trkpt>
      <trkpt lat="47.52159" lon="6.68182">
        <ele>363.5</ele>
        <time>2014-10-26T10:11:23.000Z</time>
      </trkpt>
      <trkpt lat="47.5216" lon="6.68187">
        <ele>363.2</ele>
        <time>2014-10-26T10:11:24.000Z</time>
      </trkpt>
      <trkpt lat="47.5216" lon="6.68192">
        <ele>362.9</ele>
        <time>2014-10-26T10:11:25.000Z</time>
      </trkpt>
      <trkpt lat="47.5216" lon="6.68197">
        <ele>362.8</ele>
        <time>2014-10-26T10:11:26.000Z</time>
      </trkpt>
      <trkpt lat="47.52161" lon="6.68203">
        <ele>362.4</ele>
        <time>2014-10-26T10:11:27.000Z</time>
      </trkpt>
      <trkpt lat="47.52161" lon="6.68209">
        <ele>362.4</ele>
        <time>2014-10-26T10:11:28.000Z</time>
      </trkpt>
      <trkpt lat="47.52162" lon="6.68214">
        <ele>361.9</ele>
        <time>2014-10-26T10:11:29.000Z</time>
      </trkpt>
      <trkpt lat="47.52163" lon="6.6822">
        <ele>361.3</ele>
        <time>2014-10-26T10:11:30.000Z</time>
      </trkpt>
      <trkpt lat="47.52164" lon="6.68227">
        <ele>360.9</ele>
        <time>2014-10-26T10:11:31.000Z</time>
      </trkpt>
      <trkpt lat="47.52165" lon="6.68233">
        <ele>360</ele>
        <time>2014-10-26T10:11:32.000Z</time>
      </trkpt>
      <trkpt lat="47.52167" lon="6.68239">
        <ele>359.9</ele>
        <time>2014-10-26T10:11:33.000Z</time>
      </trkpt>
      <trkpt lat="47.52181" lon="6.68288">
        <ele>360.4</ele>
        <time>2014-10-26T10:11:41.000Z</time>
      </trkpt>
      <trkpt lat="47.52183" lon="6.68294">
        <ele>360.3</ele>
        <time>2014-10-26T10:11:42.000Z</time>
      </trkpt>
      <trkpt lat="47.52184" lon="6.68299">
        <ele>360.2</ele>
        <time>2014-10-26T10:11:43.000Z</time>
      </trkpt>
      <trkpt lat="47.52186" lon="6.68306">
        <ele>360.4</ele>
        <time>2014-10-26T10:11:44.000Z</time>
      </trkpt>
      <trkpt lat="47.52187" lon="6.68312">
        <ele>360.5</ele>
        <time>2014-10-26T10:11:45.000Z</time>
      </trkpt>
      <trkpt lat="47.52188" lon="6.68317">
        <ele>360.7</ele>
        <time>2014-10-26T10:11:46.000Z</time>
      </trkpt>
      <trkpt lat="47.52189" lon="6.68323">
        <ele>360.8</ele>
        <time>2014-10-26T10:11:47.000Z</time>
      </trkpt>
      <trkpt lat="47.5219" lon="6.68328">
        <ele>360.9</ele>
        <time>2014-10-26T10:11:48.000Z</time>
      </trkpt>
      <trkpt lat="47.52191" lon="6.68333">
        <ele>361.1</ele>
        <time>2014-10-26T10:11:49.000Z</time>
      </trkpt>
      <trkpt lat="47.52192" lon="6.68338">
        <ele>361.3</ele>
        <time>2014-10-26T10:11:50.000Z</time>
      </trkpt>
      <trkpt lat="47.52194" lon="6.68345">
        <ele>361.2</ele>
        <time>2014-10-26T10:11:51.000Z</time>
      </trkpt>
      <trkpt lat="47.52194" lon="6.6835">
        <ele>361.4</ele>
        <time>2014-10-26T10:11:52.000Z</time>
      </trkpt>
      <trkpt lat="47.52195" lon="6.68356">
        <ele>361.4</ele>
        <time>2014-10-26T10:11:53.000Z</time>
      </trkpt>
      <trkpt lat="47.52196" lon="6.68361">
        <ele>361.8</ele>
        <time>2014-10-26T10:11:54.000Z</time>
      </trkpt>
      <trkpt lat="47.52197" lon="6.68366">
        <ele>362.1</ele>
        <time>2014-10-26T10:11:55.000Z</time>
      </trkpt>
      <trkpt lat="47.52199" lon="6.68371">
        <ele>362.4</ele>
        <time>2014-10-26T10:11:56.000Z</time>
      </trkpt>
      <trkpt lat="47.52199" lon="6.68376">
        <ele>362.4</ele>
        <time>2014-10-26T10:11:57.000Z</time>
      </trkpt>
      <trkpt lat="47.522" lon="6.6838">
        <ele>362.3</ele>
        <time>2014-10-26T10:11:58.000Z</time>
      </trkpt>
      <trkpt lat="47.52201" lon="6.68385">
        <ele>362.1</ele>
        <time>2014-10-26T10:11:59.000Z</time>
      </trkpt>
      <trkpt lat="47.52202" lon="6.68391">
        <ele>362.1</ele>
        <time>2014-10-26T10:12:00.000Z</time>
      </trkpt>
      <trkpt lat="47.52203" lon="6.68395">
        <ele>362.3</ele>
        <time>2014-10-26T10:12:01.000Z</time>
      </trkpt>
      <trkpt lat="47.52204" lon="6.68401">
        <ele>362.5</ele>
        <time>2014-10-26T10:12:02.000Z</time>
      </trkpt>
      <trkpt lat="47.52205" lon="6.68406">
        <ele>362.4</ele>
        <time>2014-10-26T10:12:03.000Z</time>
      </trkpt>
      <trkpt lat="47.52206" lon="6.68411">
        <ele>362.4</ele>
        <time>2014-10-26T10:12:04.000Z</time>
      </trkpt>
      <trkpt lat="47.52207" lon="6.68417">
        <ele>362.4</ele>
        <time>2014-10-26T10:12:05.000Z</time>
      </trkpt>
      <trkpt lat="47.52208" lon="6.68423">
        <ele>362.3</ele>
        <time>2014-10-26T10:12:06.000Z</time>
      </trkpt>
      <trkpt lat="47.52209" lon="6.68429">
        <ele>362.2</ele>
        <time>2014-10-26T10:12:07.000Z</time>
      </trkpt>
      <trkpt lat="47.5221" lon="6.68435">
        <ele>362.1</ele>
        <time>2014-10-26T10:12:08.000Z</time>
      </trkpt>
      <trkpt lat="47.52211" lon="6.68442">
        <ele>361.9</ele>
        <time>2014-10-26T10:12:09.000Z</time>
      </trkpt>
      <trkpt lat="47.52212" lon="6.68448">
        <ele>361.4</ele>
        <time>2014-10-26T10:12:10.000Z</time>
      </trkpt>
      <trkpt lat="47.52213" lon="6.68454">
        <ele>361.3</ele>
        <time>2014-10-26T10:12:11.000Z</time>
      </trkpt>
      <trkpt lat="47.52214" lon="6.68459">
        <ele>361.2</ele>
        <time>2014-10-26T10:12:12.000Z</time>
      </trkpt>
      <trkpt lat="47.52215" lon="6.68464">
        <ele>361.4</ele>
        <time>2014-10-26T10:12:13.000Z</time>
      </trkpt>
      <trkpt lat="47.52217" lon="6.6847">
        <ele>361.3</ele>
        <time>2014-10-26T10:12:14.000Z</time>
      </trkpt>
      <trkpt lat="47.52218" lon="6.68476">
        <ele>361.7</ele>
        <time>2014-10-26T10:12:15.000Z</time>
      </trkpt>
      <trkpt lat="47.52219" lon="6.68481">
        <ele>362.2</ele>
        <time>2014-10-26T10:12:16.000Z</time>
      </trkpt>
      <trkpt lat="47.5222" lon="6.68486">
        <ele>362.2</ele>
        <time>2014-10-26T10:12:17.000Z</time>
      </trkpt>
      <trkpt lat="47.52221" lon="6.68491">
        <ele>362.4</ele>
        <time>2014-10-26T10:12:18.000Z</time>
      </trkpt>
      <trkpt lat="47.52223" lon="6.68496">
        <ele>362.4</ele>
        <time>2014-10-26T10:12:19.000Z</time>
      </trkpt>
      <trkpt lat="47.52224" lon="6.68501">
        <ele>362.7</ele>
        <time>2014-10-26T10:12:20.000Z</time>
      </trkpt>
      <trkpt lat="47.52225" lon="6.68506">
        <ele>363</ele>
        <time>2014-10-26T10:12:21.000Z</time>
      </trkpt>
      <trkpt lat="47.52226" lon="6.68511">
        <ele>362.9</ele>
        <time>2014-10-26T10:12:22.000Z</time>
      </trkpt>
      <trkpt lat="47.52228" lon="6.68516">
        <ele>363.3</ele>
        <time>2014-10-26T10:12:23.000Z</time>
      </trkpt>
      <trkpt lat="47.52229" lon="6.6852">
        <ele>363.8</ele>
        <time>2014-10-26T10:12:24.000Z</time>
      </trkpt>
      <trkpt lat="47.52231" lon="6.68525">
        <ele>363.8</ele>
        <time>2014-10-26T10:12:25.000Z</time>
      </trkpt>
      <trkpt lat="47.52232" lon="6.6853">
        <ele>363.7</ele>
        <time>2014-10-26T10:12:26.000Z</time>
      </trkpt>
      <trkpt lat="47.52234" lon="6.68534">
        <ele>363.7</ele>
        <time>2014-10-26T10:12:27.000Z</time>
      </trkpt>
      <trkpt lat="47.52236" lon="6.68539">
        <ele>363.6</ele>
        <time>2014-10-26T10:12:28.000Z</time>
      </trkpt>
      <trkpt lat="47.52238" lon="6.68543">
        <ele>363.7</ele>
        <time>2014-10-26T10:12:29.000Z</time>
      </trkpt>
      <trkpt lat="47.5224" lon="6.68547">
        <ele>363.9</ele>
        <time>2014-10-26T10:12:30.000Z</time>
      </trkpt>
      <trkpt lat="47.52243" lon="6.68551">
        <ele>364.1</ele>
        <time>2014-10-26T10:12:31.000Z</time>
      </trkpt>
      <trkpt lat="47.52245" lon="6.68554">
        <ele>364.2</ele>
        <time>2014-10-26T10:12:32.000Z</time>
      </trkpt>
      <trkpt lat="47.52248" lon="6.68557">
        <ele>364.3</ele>
        <time>2014-10-26T10:12:33.000Z</time>
      </trkpt>
      <trkpt lat="47.52268" lon="6.68571">
        <ele>365.8</ele>
        <time>2014-10-26T10:12:41.000Z</time>
      </trkpt>
      <trkpt lat="47.52271" lon="6.68571">
        <ele>366</ele>
        <time>2014-10-26T10:12:42.000Z</time>
      </trkpt>
      <trkpt lat="47.52273" lon="6.68571">
        <ele>366.3</ele>
        <time>2014-10-26T10:12:43.000Z</time>
      </trkpt>
      <trkpt lat="47.52276" lon="6.68571">
        <ele>366.4</ele>
        <time>2014-10-26T10:12:44.000Z</time>
      </trkpt>
      <trkpt lat="47.52278" lon="6.68571">
        <ele>366.7</ele>
        <time>2014-10-26T10:12:45.000Z</time>
      </trkpt>
      <trkpt lat="47.52281" lon="6.68571">
        <ele>366</ele>
        <time>2014-10-26T10:12:45.999Z</time>
      </trkpt>
      <trkpt lat="47.52283" lon="6.68571">
        <ele>366.2</ele>
        <time>2014-10-26T10:12:46.999Z</time>
      </trkpt>
      <trkpt lat="47.52287" lon="6.6857">
        <ele>368.2</ele>
        <time>2014-10-26T10:12:49.000Z</time>
      </trkpt>
      <trkpt lat="47.52289" lon="6.6857">
        <ele>367.9</ele>
        <time>2014-10-26T10:12:50.000Z</time>
      </trkpt>
      <trkpt lat="47.52292" lon="6.6857">
        <ele>369.4</ele>
        <time>2014-10-26T10:12:52.000Z</time>
      </trkpt>
      <trkpt lat="47.52294" lon="6.6857">
        <ele>369.1</ele>
        <time>2014-10-26T10:12:53.000Z</time>
      </trkpt>
      <trkpt lat="47.52297" lon="6.68569">
        <ele>371.6</ele>
        <time>2014-10-26T10:12:55.000Z</time>
      </trkpt>
      <trkpt lat="47.52299" lon="6.68569">
        <ele>372.9</ele>
        <time>2014-10-26T10:12:56.000Z</time>
      </trkpt>
      <trkpt lat="47.52303" lon="6.6857">
        <ele>374.4</ele>
        <time>2014-10-26T10:12:59.000Z</time>
      </trkpt>
      <trkpt lat="47.52304" lon="6.6857">
        <ele>376.4</ele>
        <time>2014-10-26T10:13:00.000Z</time>
      </trkpt>
      <trkpt lat="47.52306" lon="6.6857">
        <ele>377.6</ele>
        <time>2014-10-26T10:13:02.000Z</time>
      </trkpt>
      <trkpt lat="47.52308" lon="6.6857">
        <ele>378.7</ele>
        <time>2014-10-26T10:13:03.000Z</time>
      </trkpt>
      <trkpt lat="47.52312" lon="6.68569">
        <ele>379.8</ele>
        <time>2014-10-26T10:13:05.000Z</time>
      </trkpt>
      <trkpt lat="47.52314" lon="6.68569">
        <ele>379.6</ele>
        <time>2014-10-26T10:13:06.000Z</time>
      </trkpt>
      <trkpt lat="47.52319" lon="6.68568">
        <ele>382.2</ele>
        <time>2014-10-26T10:13:08.000Z</time>
      </trkpt>
      <trkpt lat="47.52321" lon="6.68567">
        <ele>382.7</ele>
        <time>2014-10-26T10:13:09.000Z</time>
      </trkpt>
      <trkpt lat="47.52324" lon="6.68567">
        <ele>383.4</ele>
        <time>2014-10-26T10:13:11.000Z</time>
      </trkpt>
      <trkpt lat="47.52325" lon="6.68566">
        <ele>383.6</ele>
        <time>2014-10-26T10:13:12.000Z</time>
      </trkpt>
      <trkpt lat="47.52329" lon="6.68566">
        <ele>385.2</ele>
        <time>2014-10-26T10:13:14.000Z</time>
      </trkpt>
      <trkpt lat="47.5233" lon="6.68565">
        <ele>386.5</ele>
        <time>2014-10-26T10:13:15.000Z</time>
      </trkpt>
      <trkpt lat="47.52334" lon="6.68564">
        <ele>388.1</ele>
        <time>2014-10-26T10:13:17.000Z</time>
      </trkpt>
      <trkpt lat="47.52336" lon="6.68563">
        <ele>388.4</ele>
        <time>2014-10-26T10:13:18.000Z</time>
      </trkpt>
      <trkpt lat="47.5234" lon="6.68562">
        <ele>390.9</ele>
        <time>2014-10-26T10:13:20.000Z</time>
      </trkpt>
      <trkpt lat="47.52342" lon="6.68562">
        <ele>391.5</ele>
        <time>2014-10-26T10:13:21.000Z</time>
      </trkpt>
      <trkpt lat="47.52344" lon="6.68562">
        <ele>390.6</ele>
        <time>2014-10-26T10:13:22.000Z</time>
      </trkpt>
      <trkpt lat="47.52347" lon="6.68562">
        <ele>390.6</ele>
        <time>2014-10-26T10:13:23.000Z</time>
      </trkpt>
      <trkpt lat="47.52349" lon="6.68562">
        <ele>390.6</ele>
        <time>2014-10-26T10:13:24.000Z</time>
      </trkpt>
      <trkpt lat="47.52351" lon="6.68562">
        <ele>390.8</ele>
        <time>2014-10-26T10:13:25.000Z</time>
      </trkpt>
      <trkpt lat="47.52355" lon="6.68562">
        <ele>388.8</ele>
        <time>2014-10-26T10:13:27.000Z</time>
      </trkpt>
      <trkpt lat="47.52357" lon="6.68563">
        <ele>388.3</ele>
        <time>2014-10-26T10:13:28.000Z</time>
      </trkpt>
      <trkpt lat="47.52361" lon="6.68564">
        <ele>391.7</ele>
        <time>2014-10-26T10:13:33.000Z</time>
      </trkpt>
      <trkpt lat="47.52362" lon="6.68566">
        <ele>392</ele>
        <time>2014-10-26T10:13:36.000Z</time>
      </trkpt>
      <trkpt lat="47.52363" lon="6.68571">
        <ele>392.4</ele>
        <time>2014-10-26T10:13:38.000Z</time>
      </trkpt>
      <trkpt lat="47.52363" lon="6.68574">
        <ele>393.4</ele>
        <time>2014-10-26T10:13:39.000Z</time>
      </trkpt>
      <trkpt lat="47.52363" lon="6.68578">
        <ele>391.4</ele>
        <time>2014-10-26T10:13:40.000Z</time>
      </trkpt>
      <trkpt lat="47.52362" lon="6.68582">
        <ele>390.4</ele>
        <time>2014-10-26T10:13:41.000Z</time>
      </trkpt>
      <trkpt lat="47.52362" lon="6.68587">
        <ele>388.5</ele>
        <time>2014-10-26T10:13:42.000Z</time>
      </trkpt>
      <trkpt lat="47.52361" lon="6.68591">
        <ele>387.3</ele>
        <time>2014-10-26T10:13:43.000Z</time>
      </trkpt>
      <trkpt lat="47.52361" lon="6.68595">
        <ele>387</ele>
        <time>2014-10-26T10:13:44.000Z</time>
      </trkpt>
      <trkpt lat="47.5236" lon="6.686">
        <ele>387.1</ele>
        <time>2014-10-26T10:13:45.000Z</time>
      </trkpt>
      <trkpt lat="47.52359" lon="6.68604">
        <ele>387.7</ele>
        <time>2014-10-26T10:13:46.000Z</time>
      </trkpt>
      <trkpt lat="47.52358" lon="6.68608">
        <ele>387.8</ele>
        <time>2014-10-26T10:13:47.000Z</time>
      </trkpt>
      <trkpt lat="47.52357" lon="6.68612">
        <ele>387.4</ele>
        <time>2014-10-26T10:13:48.000Z</time>
      </trkpt>
      <trkpt lat="47.52356" lon="6.68616">
        <ele>387.9</ele>
        <time>2014-10-26T10:13:49.000Z</time>
      </trkpt>
      <trkpt lat="47.52355" lon="6.6862">
        <ele>387</ele>
        <time>2014-10-26T10:13:50.000Z</time>
      </trkpt>
      <trkpt lat="47.52354" lon="6.68624">
        <ele>386.7</ele>
        <time>2014-10-26T10:13:51.000Z</time>
      </trkpt>
      <trkpt lat="47.52352" lon="6.68629">
        <ele>385.2</ele>
        <time>2014-10-26T10:13:52.000Z</time>
      </trkpt>
      <trkpt lat="47.52351" lon="6.68634">
        <ele>385.1</ele>
        <time>2014-10-26T10:13:53.000Z</time>
      </trkpt>
      <trkpt lat="47.5235" lon="6.68639">
        <ele>385</ele>
        <time>2014-10-26T10:13:54.000Z</time>
      </trkpt>
      <trkpt lat="47.52349" lon="6.68644">
        <ele>385.4</ele>
        <time>2014-10-26T10:13:55.000Z</time>
      </trkpt>
      <trkpt lat="47.52347" lon="6.68648">
        <ele>386.4</ele>
        <time>2014-10-26T10:13:56.000Z</time>
      </trkpt>
      <trkpt lat="47.52346" lon="6.68652">
        <ele>384.4</ele>
        <time>2014-10-26T10:13:57.000Z</time>
      </trkpt>
      <trkpt lat="47.52345" lon="6.68657">
        <ele>384.5</ele>
        <time>2014-10-26T10:13:58.000Z</time>
      </trkpt>
      <trkpt lat="47.52344" lon="6.68662">
        <ele>383.7</ele>
        <time>2014-10-26T10:13:59.000Z</time>
      </trkpt>
      <trkpt lat="47.52344" lon="6.68667">
        <ele>383.9</ele>
        <time>2014-10-26T10:14:00.000Z</time>
      </trkpt>
      <trkpt lat="47.52344" lon="6.68672">
        <ele>383.4</ele>
        <time>2014-10-26T10:14:01.000Z</time>
      </trkpt>
      <trkpt lat="47.52344" lon="6.68676">
        <ele>383.5</ele>
        <time>2014-10-26T10:14:02.000Z</time>
      </trkpt>
      <trkpt lat="47.52345" lon="6.68681">
        <ele>383</ele>
        <time>2014-10-26T10:14:03.000Z</time>
      </trkpt>
      <trkpt lat="47.52346" lon="6.68685">
        <ele>382.8</ele>
        <time>2014-10-26T10:14:04.000Z</time>
      </trkpt>
      <trkpt lat="47.52348" lon="6.6869">
        <ele>382.8</ele>
        <time>2014-10-26T10:14:05.000Z</time>
      </trkpt>
      <trkpt lat="47.52349" lon="6.68695">
        <ele>382.3</ele>
        <time>2014-10-26T10:14:06.000Z</time>
      </trkpt>
      <trkpt lat="47.52351" lon="6.687">
        <ele>382.3</ele>
        <time>2014-10-26T10:14:07.000Z</time>
      </trkpt>
      <trkpt lat="47.52353" lon="6.68704">
        <ele>381.9</ele>
        <time>2014-10-26T10:14:08.000Z</time>
      </trkpt>
      <trkpt lat="47.52354" lon="6.68709">
        <ele>381.8</ele>
        <time>2014-10-26T10:14:09.000Z</time>
      </trkpt>
      <trkpt lat="47.52356" lon="6.68713">
        <ele>381.9</ele>
        <time>2014-10-26T10:14:10.000Z</time>
      </trkpt>
      <trkpt lat="47.52358" lon="6.68718">
        <ele>381.9</ele>
        <time>2014-10-26T10:14:11.000Z</time>
      </trkpt>
      <trkpt lat="47.52359" lon="6.68723">
        <ele>381.5</ele>
        <time>2014-10-26T10:14:12.000Z</time>
      </trkpt>
      <trkpt lat="47.52361" lon="6.68727">
        <ele>382.1</ele>
        <time>2014-10-26T10:14:13.000Z</time>
      </trkpt>
      <trkpt lat="47.52362" lon="6.68731">
        <ele>382.8</ele>
        <time>2014-10-26T10:14:14.000Z</time>
      </trkpt>
      <trkpt lat="47.52364" lon="6.68734">
        <ele>383</ele>
        <time>2014-10-26T10:14:15.000Z</time>
      </trkpt>
      <trkpt lat="47.52366" lon="6.68737">
        <ele>382.9</ele>
        <time>2014-10-26T10:14:16.000Z</time>
      </trkpt>
      <trkpt lat="47.52367" lon="6.68741">
        <ele>382.7</ele>
        <time>2014-10-26T10:14:17.000Z</time>
      </trkpt>
      <trkpt lat="47.52369" lon="6.68744">
        <ele>383.1</ele>
        <time>2014-10-26T10:14:18.000Z</time>
      </trkpt>
      <trkpt lat="47.5237" lon="6.68748">
        <ele>383</ele>
        <time>2014-10-26T10:14:19.000Z</time>
      </trkpt>
      <trkpt lat="47.52371" lon="6.68752">
        <ele>383.2</ele>
        <time>2014-10-26T10:14:20.000Z</time>
      </trkpt>
      <trkpt lat="47.52373" lon="6.68756">
        <ele>384</ele>
        <time>2014-10-26T10:14:21.000Z</time>
      </trkpt>
      <trkpt lat="47.52374" lon="6.6876">
        <ele>384.3</ele>
        <time>2014-10-26T10:14:22.000Z</time>
      </trkpt>
      <trkpt lat="47.52375" lon="6.68764">
        <ele>384.2</ele>
        <time>2014-10-26T10:14:23.000Z</time>
      </trkpt>
      <trkpt lat="47.52377" lon="6.68768">
        <ele>384.6</ele>
        <time>2014-10-26T10:14:24.000Z</time>
      </trkpt>
      <trkpt lat="47.52379" lon="6.68772">
        <ele>384.7</ele>
        <time>2014-10-26T10:14:25.000Z</time>
      </trkpt>
      <trkpt lat="47.5238" lon="6.68777">
        <ele>384.6</ele>
        <time>2014-10-26T10:14:26.000Z</time>
      </trkpt>
      <trkpt lat="47.52382" lon="6.68782">
        <ele>384.4</ele>
        <time>2014-10-26T10:14:27.000Z</time>
      </trkpt>
      <trkpt lat="47.52384" lon="6.68787">
        <ele>384.3</ele>
        <time>2014-10-26T10:14:28.000Z</time>
      </trkpt>
      <trkpt lat="47.52385" lon="6.68791">
        <ele>384.3</ele>
        <time>2014-10-26T10:14:29.000Z</time>
      </trkpt>
      <trkpt lat="47.52386" lon="6.68796">
        <ele>383.8</ele>
        <time>2014-10-26T10:14:30.000Z</time>
      </trkpt>
      <trkpt lat="47.52388" lon="6.688">
        <ele>383.7</ele>
        <time>2014-10-26T10:14:31.000Z</time>
      </trkpt>
      <trkpt lat="47.52389" lon="6.68804">
        <ele>383.2</ele>
        <time>2014-10-26T10:14:32.000Z</time>
      </trkpt>
      <trkpt lat="47.52391" lon="6.68808">
        <ele>382.8</ele>
        <time>2014-10-26T10:14:33.000Z</time>
      </trkpt>
      <trkpt lat="47.52406" lon="6.6884">
        <ele>382.4</ele>
        <time>2014-10-26T10:14:41.000Z</time>
      </trkpt>
      <trkpt lat="47.52408" lon="6.68842">
        <ele>382.6</ele>
        <time>2014-10-26T10:14:42.000Z</time>
      </trkpt>
      <trkpt lat="47.52416" lon="6.68852">
        <ele>383.2</ele>
        <time>2014-10-26T10:14:43.000Z</time>
      </trkpt>
      <trkpt lat="47.5242" lon="6.68857">
        <ele>383.6</ele>
        <time>2014-10-26T10:14:44.000Z</time>
      </trkpt>
      <trkpt lat="47.52424" lon="6.68864">
        <ele>383.8</ele>
        <time>2014-10-26T10:14:45.000Z</time>
      </trkpt>
      <trkpt lat="47.52428" lon="6.6887">
        <ele>383.3</ele>
        <time>2014-10-26T10:14:46.000Z</time>
      </trkpt>
      <trkpt lat="47.52432" lon="6.68877">
        <ele>384.6</ele>
        <time>2014-10-26T10:14:47.000Z</time>
      </trkpt>
      <trkpt lat="47.52436" lon="6.68883">
        <ele>384.9</ele>
        <time>2014-10-26T10:14:48.000Z</time>
      </trkpt>
      <trkpt lat="47.5244" lon="6.68889">
        <ele>385.2</ele>
        <time>2014-10-26T10:14:49.000Z</time>
      </trkpt>
      <trkpt lat="47.52445" lon="6.68895">
        <ele>384.7</ele>
        <time>2014-10-26T10:14:50.000Z</time>
      </trkpt>
      <trkpt lat="47.52448" lon="6.68903">
        <ele>384.2</ele>
        <time>2014-10-26T10:14:51.000Z</time>
      </trkpt>
      <trkpt lat="47.52451" lon="6.68909">
        <ele>385</ele>
        <time>2014-10-26T10:14:52.000Z</time>
      </trkpt>
      <trkpt lat="47.52456" lon="6.68915">
        <ele>384.7</ele>
        <time>2014-10-26T10:14:53.000Z</time>
      </trkpt>
      <trkpt lat="47.52459" lon="6.6892">
        <ele>385.3</ele>
        <time>2014-10-26T10:14:54.000Z</time>
      </trkpt>
      <trkpt lat="47.52463" lon="6.68926">
        <ele>385</ele>
        <time>2014-10-26T10:14:55.000Z</time>
      </trkpt>
      <trkpt lat="47.52467" lon="6.68937">
        <ele>383.6</ele>
        <time>2014-10-26T10:14:56.000Z</time>
      </trkpt>
      <trkpt lat="47.52471" lon="6.68945">
        <ele>382.9</ele>
        <time>2014-10-26T10:14:57.000Z</time>
      </trkpt>
      <trkpt lat="47.52475" lon="6.68951">
        <ele>382.8</ele>
        <time>2014-10-26T10:14:57.999Z</time>
      </trkpt>
      <trkpt lat="47.52481" lon="6.6896">
        <ele>381.9</ele>
        <time>2014-10-26T10:14:59.000Z</time>
      </trkpt>
      <trkpt lat="47.52485" lon="6.68967">
        <ele>380.8</ele>
        <time>2014-10-26T10:15:00.000Z</time>
      </trkpt>
      <trkpt lat="47.5249" lon="6.68973">
        <ele>380.3</ele>
        <time>2014-10-26T10:15:01.000Z</time>
      </trkpt>
      <trkpt lat="47.52494" lon="6.6898">
        <ele>380.1</ele>
        <time>2014-10-26T10:15:02.000Z</time>
      </trkpt>
      <trkpt lat="47.52499" lon="6.68987">
        <ele>379.6</ele>
        <time>2014-10-26T10:15:03.000Z</time>
      </trkpt>
      <trkpt lat="47.52503" lon="6.68992">
        <ele>379.7</ele>
        <time>2014-10-26T10:15:04.000Z</time>
      </trkpt>
      <trkpt lat="47.52507" lon="6.68998">
        <ele>379.1</ele>
        <time>2014-10-26T10:15:05.000Z</time>
      </trkpt>
      <trkpt lat="47.52513" lon="6.69003">
        <ele>378.4</ele>
        <time>2014-10-26T10:15:06.000Z</time>
      </trkpt>
      <trkpt lat="47.52518" lon="6.6901">
        <ele>377.7</ele>
        <time>2014-10-26T10:15:07.000Z</time>
      </trkpt>
      <trkpt lat="47.52522" lon="6.69017">
        <ele>376.8</ele>
        <time>2014-10-26T10:15:08.000Z</time>
      </trkpt>
      <trkpt lat="47.52527" lon="6.69024">
        <ele>376.1</ele>
        <time>2014-10-26T10:15:09.000Z</time>
      </trkpt>
      <trkpt lat="47.52532" lon="6.69031">
        <ele>375.7</ele>
        <time>2014-10-26T10:15:10.000Z</time>
      </trkpt>
      <trkpt lat="47.52537" lon="6.69037">
        <ele>374.9</ele>
        <time>2014-10-26T10:15:11.000Z</time>
      </trkpt>
      <trkpt lat="47.52541" lon="6.69043">
        <ele>375</ele>
        <time>2014-10-26T10:15:12.000Z</time>
      </trkpt>
      <trkpt lat="47.52546" lon="6.6905">
        <ele>374.2</ele>
        <time>2014-10-26T10:15:13.000Z</time>
      </trkpt>
      <trkpt lat="47.52551" lon="6.69056">
        <ele>373.7</ele>
        <time>2014-10-26T10:15:14.000Z</time>
      </trkpt>
      <trkpt lat="47.52555" lon="6.69065">
        <ele>373.5</ele>
        <time>2014-10-26T10:15:15.000Z</time>
      </trkpt>
      <trkpt lat="47.52559" lon="6.69074">
        <ele>372.3</ele>
        <time>2014-10-26T10:15:16.000Z</time>
      </trkpt>
      <trkpt lat="47.52562" lon="6.69082">
        <ele>371.7</ele>
        <time>2014-10-26T10:15:17.000Z</time>
      </trkpt>
      <trkpt lat="47.52565" lon="6.69091">
        <ele>370.7</ele>
        <time>2014-10-26T10:15:18.000Z</time>
      </trkpt>
      <trkpt lat="47.52568" lon="6.69101">
        <ele>370.5</ele>
        <time>2014-10-26T10:15:19.000Z</time>
      </trkpt>
      <trkpt lat="47.52571" lon="6.69111">
        <ele>369.5</ele>
        <time>2014-10-26T10:15:20.000Z</time>
      </trkpt>
      <trkpt lat="47.52573" lon="6.69121">
        <ele>369</ele>
        <time>2014-10-26T10:15:21.000Z</time>
      </trkpt>
      <trkpt lat="47.52575" lon="6.69131">
        <ele>368.7</ele>
        <time>2014-10-26T10:15:22.000Z</time>
      </trkpt>
      <trkpt lat="47.52577" lon="6.6914">
        <ele>368.4</ele>
        <time>2014-10-26T10:15:23.000Z</time>
      </trkpt>
      <trkpt lat="47.52579" lon="6.6915">
        <ele>367.8</ele>
        <time>2014-10-26T10:15:24.000Z</time>
      </trkpt>
      <trkpt lat="47.52581" lon="6.6916">
        <ele>366.8</ele>
        <time>2014-10-26T10:15:25.000Z</time>
      </trkpt>
      <trkpt lat="47.52583" lon="6.69169">
        <ele>366</ele>
        <time>2014-10-26T10:15:26.000Z</time>
      </trkpt>
      <trkpt lat="47.52584" lon="6.69179">
        <ele>365.5</ele>
        <time>2014-10-26T10:15:27.000Z</time>
      </trkpt>
      <trkpt lat="47.52585" lon="6.69188">
        <ele>365.4</ele>
        <time>2014-10-26T10:15:28.000Z</time>
      </trkpt>
      <trkpt lat="47.52585" lon="6.69197">
        <ele>364.9</ele>
        <time>2014-10-26T10:15:29.000Z</time>
      </trkpt>
      <trkpt lat="47.52587" lon="6.69206">
        <ele>364.7</ele>
        <time>2014-10-26T10:15:30.000Z</time>
      </trkpt>
      <trkpt lat="47.52588" lon="6.69215">
        <ele>363.8</ele>
        <time>2014-10-26T10:15:31.000Z</time>
      </trkpt>
      <trkpt lat="47.52589" lon="6.69224">
        <ele>363.5</ele>
        <time>2014-10-26T10:15:32.000Z</time>
      </trkpt>
      <trkpt lat="47.5259" lon="6.69234">
        <ele>362.6</ele>
        <time>2014-10-26T10:15:33.000Z</time>
      </trkpt>
      <trkpt lat="47.52597" lon="6.69303">
        <ele>361.2</ele>
        <time>2014-10-26T10:15:41.000Z</time>
      </trkpt>
      <trkpt lat="47.52595" lon="6.69313">
        <ele>360.8</ele>
        <time>2014-10-26T10:15:42.000Z</time>
      </trkpt>
      <trkpt lat="47.52595" lon="6.69322">
        <ele>359.7</ele>
        <time>2014-10-26T10:15:43.000Z</time>
      </trkpt>
      <trkpt lat="47.52595" lon="6.69331">
        <ele>359.2</ele>
        <time>2014-10-26T10:15:44.000Z</time>
      </trkpt>
      <trkpt lat="47.52594" lon="6.69341">
        <ele>357.8</ele>
        <time>2014-10-26T10:15:45.000Z</time>
      </trkpt>
      <trkpt lat="47.52593" lon="6.69351">
        <ele>357.9</ele>
        <time>2014-10-26T10:15:46.000Z</time>
      </trkpt>
      <trkpt lat="47.52592" lon="6.6936">
        <ele>357.8</ele>
        <time>2014-10-26T10:15:47.000Z</time>
      </trkpt>
      <trkpt lat="47.52591" lon="6.69369">
        <ele>357.5</ele>
        <time>2014-10-26T10:15:48.000Z</time>
      </trkpt>
      <trkpt lat="47.5259" lon="6.69378">
        <ele>357.1</ele>
        <time>2014-10-26T10:15:49.000Z</time>
      </trkpt>
      <trkpt lat="47.5259" lon="6.69387">
        <ele>357</ele>
        <time>2014-10-26T10:15:50.000Z</time>
      </trkpt>
      <trkpt lat="47.52591" lon="6.69396">
        <ele>356.1</ele>
        <time>2014-10-26T10:15:51.000Z</time>
      </trkpt>
      <trkpt lat="47.52591" lon="6.69404">
        <ele>355.8</ele>
        <time>2014-10-26T10:15:52.000Z</time>
      </trkpt>
      <trkpt lat="47.52591" lon="6.69413">
        <ele>355.3</ele>
        <time>2014-10-26T10:15:53.000Z</time>
      </trkpt>
      <trkpt lat="47.52592" lon="6.69421">
        <ele>354.2</ele>
        <time>2014-10-26T10:15:54.000Z</time>
      </trkpt>
      <trkpt lat="47.52593" lon="6.69428">
        <ele>354.3</ele>
        <time>2014-10-26T10:15:55.000Z</time>
      </trkpt>
      <trkpt lat="47.52594" lon="6.69434">
        <ele>354.2</ele>
        <time>2014-10-26T10:15:56.000Z</time>
      </trkpt>
      <trkpt lat="47.52594" lon="6.6944">
        <ele>353.7</ele>
        <time>2014-10-26T10:15:57.000Z</time>
      </trkpt>
      <trkpt lat="47.52595" lon="6.69447">
        <ele>353.7</ele>
        <time>2014-10-26T10:15:58.000Z</time>
      </trkpt>
      <trkpt lat="47.52596" lon="6.69454">
        <ele>353</ele>
        <time>2014-10-26T10:15:59.000Z</time>
      </trkpt>
      <trkpt lat="47.52597" lon="6.6946">
        <ele>352.7</ele>
        <time>2014-10-26T10:16:00.000Z</time>
      </trkpt>
      <trkpt lat="47.52597" lon="6.69464">
        <ele>352.6</ele>
        <time>2014-10-26T10:16:01.000Z</time>
      </trkpt>
      <trkpt lat="47.52598" lon="6.69468">
        <ele>352.4</ele>
        <time>2014-10-26T10:16:02.000Z</time>
      </trkpt>
      <trkpt lat="47.52601" lon="6.69473">
        <ele>351.4</ele>
        <time>2014-10-26T10:16:03.000Z</time>
      </trkpt>
      <trkpt lat="47.52605" lon="6.69474">
        <ele>351.6</ele>
        <time>2014-10-26T10:16:04.000Z</time>
      </trkpt>
      <trkpt lat="47.52609" lon="6.69475">
        <ele>351.5</ele>
        <time>2014-10-26T10:16:05.000Z</time>
      </trkpt>
      <trkpt lat="47.52612" lon="6.69475">
        <ele>351</ele>
        <time>2014-10-26T10:16:06.000Z</time>
      </trkpt>
      <trkpt lat="47.52614" lon="6.69476">
        <ele>350.8</ele>
        <time>2014-10-26T10:16:07.000Z</time>
      </trkpt>
      <trkpt lat="47.52618" lon="6.69479">
        <ele>351.1</ele>
        <time>2014-10-26T10:16:10.000Z</time>
      </trkpt>
      <trkpt lat="47.52619" lon="6.69479">
        <ele>351.3</ele>
        <time>2014-10-26T10:16:11.000Z</time>
      </trkpt>
      <trkpt lat="47.52623" lon="6.69479">
        <ele>348.7</ele>
        <time>2014-10-26T10:16:15.000Z</time>
      </trkpt>
      <trkpt lat="47.52624" lon="6.6948">
        <ele>348.3</ele>
        <time>2014-10-26T10:16:16.000Z</time>
      </trkpt>
      <trkpt lat="47.52628" lon="6.69482">
        <ele>349.8</ele>
        <time>2014-10-26T10:16:23.000Z</time>
      </trkpt>
      <trkpt lat="47.52628" lon="6.69483">
        <ele>349.5</ele>
        <time>2014-10-26T10:16:24.000Z</time>
      </trkpt>
      <trkpt lat="47.5263" lon="6.69487">
        <ele>351.2</ele>
        <time>2014-10-26T10:17:00.000Z</time>
      </trkpt>
      <trkpt lat="47.5263" lon="6.69491">
        <ele>350.3</ele>
        <time>2014-10-26T10:17:01.000Z</time>
      </trkpt>
      <trkpt lat="47.5263" lon="6.69495">
        <ele>350.2</ele>
        <time>2014-10-26T10:17:02.000Z</time>
      </trkpt>
      <trkpt lat="47.52629" lon="6.69502">
        <ele>350.1</ele>
        <time>2014-10-26T10:17:03.000Z</time>
      </trkpt>
      <trkpt lat="47.52626" lon="6.69513">
        <ele>349.6</ele>
        <time>2014-10-26T10:17:04.000Z</time>
      </trkpt>
      <trkpt lat="47.52626" lon="6.6952">
        <ele>348.9</ele>
        <time>2014-10-26T10:17:05.000Z</time>
      </trkpt>
      <trkpt lat="47.52625" lon="6.69527">
        <ele>348.8</ele>
        <time>2014-10-26T10:17:06.000Z</time>
      </trkpt>
      <trkpt lat="47.52624" lon="6.69533">
        <ele>349.2</ele>
        <time>2014-10-26T10:17:07.000Z</time>
      </trkpt>
      <trkpt lat="47.52623" lon="6.6954">
        <ele>349</ele>
        <time>2014-10-26T10:17:08.000Z</time>
      </trkpt>
      <trkpt lat="47.52623" lon="6.69546">
        <ele>348.7</ele>
        <time>2014-10-26T10:17:09.000Z</time>
      </trkpt>
      <trkpt lat="47.52622" lon="6.69552">
        <ele>348.8</ele>
        <time>2014-10-26T10:17:10.000Z</time>
      </trkpt>
      <trkpt lat="47.52621" lon="6.69556">
        <ele>350.2</ele>
        <time>2014-10-26T10:17:11.000Z</time>
      </trkpt>
      <trkpt lat="47.5262" lon="6.69562">
        <ele>349.8</ele>
        <time>2014-10-26T10:17:12.000Z</time>
      </trkpt>
      <trkpt lat="47.52619" lon="6.69568">
        <ele>350</ele>
        <time>2014-10-26T10:17:13.000Z</time>
      </trkpt>
      <trkpt lat="47.52618" lon="6.69575">
        <ele>349.1</ele>
        <time>2014-10-26T10:17:14.000Z</time>
      </trkpt>
      <trkpt lat="47.52619" lon="6.69582">
        <ele>348.3</ele>
        <time>2014-10-26T10:17:15.000Z</time>
      </trkpt>
      <trkpt lat="47.52619" lon="6.69588">
        <ele>348.4</ele>
        <time>2014-10-26T10:17:16.000Z</time>
      </trkpt>
      <trkpt lat="47.52619" lon="6.69595">
        <ele>347.2</ele>
        <time>2014-10-26T10:17:17.000Z</time>
      </trkpt>
      <trkpt lat="47.52619" lon="6.69601">
        <ele>347</ele>
        <time>2014-10-26T10:17:18.000Z</time>
      </trkpt>
      <trkpt lat="47.52619" lon="6.69607">
        <ele>347.5</ele>
        <time>2014-10-26T10:17:19.000Z</time>
      </trkpt>
      <trkpt lat="47.5262" lon="6.69614">
        <ele>347.3</ele>
        <time>2014-10-26T10:17:20.000Z</time>
      </trkpt>
      <trkpt lat="47.5262" lon="6.6962">
        <ele>347.7</ele>
        <time>2014-10-26T10:17:21.000Z</time>
      </trkpt>
      <trkpt lat="47.52621" lon="6.69624">
        <ele>348.1</ele>
        <time>2014-10-26T10:17:22.000Z</time>
      </trkpt>
      <trkpt lat="47.52622" lon="6.69629">
        <ele>348.6</ele>
        <time>2014-10-26T10:17:23.000Z</time>
      </trkpt>
      <trkpt lat="47.52622" lon="6.69634">
        <ele>348.5</ele>
        <time>2014-10-26T10:17:24.000Z</time>
      </trkpt>
      <trkpt lat="47.52622" lon="6.69639">
        <ele>349.1</ele>
        <time>2014-10-26T10:17:25.000Z</time>
      </trkpt>
      <trkpt lat="47.52622" lon="6.69644">
        <ele>349.5</ele>
        <time>2014-10-26T10:17:26.000Z</time>
      </trkpt>
      <trkpt lat="47.52622" lon="6.69649">
        <ele>348.4</ele>
        <time>2014-10-26T10:17:27.000Z</time>
      </trkpt>
      <trkpt lat="47.52622" lon="6.69655">
        <ele>348.2</ele>
        <time>2014-10-26T10:17:28.000Z</time>
      </trkpt>
      <trkpt lat="47.52622" lon="6.69661">
        <ele>348.5</ele>
        <time>2014-10-26T10:17:29.000Z</time>
      </trkpt>
      <trkpt lat="47.52621" lon="6.69667">
        <ele>349.1</ele>
        <time>2014-10-26T10:17:30.000Z</time>
      </trkpt>
      <trkpt lat="47.52621" lon="6.69672">
        <ele>348.5</ele>
        <time>2014-10-26T10:17:31.000Z</time>
      </trkpt>
      <trkpt lat="47.5262" lon="6.69678">
        <ele>348.6</ele>
        <time>2014-10-26T10:17:32.000Z</time>
      </trkpt>
      <trkpt lat="47.52619" lon="6.69682">
        <ele>349</ele>
        <time>2014-10-26T10:17:33.000Z</time>
      </trkpt>
      <trkpt lat="47.52605" lon="6.69718">
        <ele>350.3</ele>
        <time>2014-10-26T10:17:41.000Z</time>
      </trkpt>
      <trkpt lat="47.52601" lon="6.6972">
        <ele>350.4</ele>
        <time>2014-10-26T10:17:42.000Z</time>
      </trkpt>
      <trkpt lat="47.52598" lon="6.69721">
        <ele>349.6</ele>
        <time>2014-10-26T10:17:43.000Z</time>
      </trkpt>
      <trkpt lat="47.52593" lon="6.69721">
        <ele>349.2</ele>
        <time>2014-10-26T10:17:44.000Z</time>
      </trkpt>
      <trkpt lat="47.52589" lon="6.69721">
        <ele>349.3</ele>
        <time>2014-10-26T10:17:45.000Z</time>
      </trkpt>
      <trkpt lat="47.52584" lon="6.6972">
        <ele>349.1</ele>
        <time>2014-10-26T10:17:46.000Z</time>
      </trkpt>
      <trkpt lat="47.5258" lon="6.69719">
        <ele>349.1</ele>
        <time>2014-10-26T10:17:47.000Z</time>
      </trkpt>
      <trkpt lat="47.52576" lon="6.69718">
        <ele>349.3</ele>
        <time>2014-10-26T10:17:48.000Z</time>
      </trkpt>
      <trkpt lat="47.52572" lon="6.69716">
        <ele>349.3</ele>
        <time>2014-10-26T10:17:49.000Z</time>
      </trkpt>
      <trkpt lat="47.52568" lon="6.69714">
        <ele>349.1</ele>
        <time>2014-10-26T10:17:50.000Z</time>
      </trkpt>
      <trkpt lat="47.52562" lon="6.69711">
        <ele>348.5</ele>
        <time>2014-10-26T10:17:51.000Z</time>
      </trkpt>
      <trkpt lat="47.52558" lon="6.69709">
        <ele>348.5</ele>
        <time>2014-10-26T10:17:52.000Z</time>
      </trkpt>
      <trkpt lat="47.52553" lon="6.69707">
        <ele>348.4</ele>
        <time>2014-10-26T10:17:53.000Z</time>
      </trkpt>
      <trkpt lat="47.52549" lon="6.69705">
        <ele>348.9</ele>
        <time>2014-10-26T10:17:54.000Z</time>
      </trkpt>
      <trkpt lat="47.52545" lon="6.69703">
        <ele>349.6</ele>
        <time>2014-10-26T10:17:55.000Z</time>
      </trkpt>
      <trkpt lat="47.5254" lon="6.69702">
        <ele>349.2</ele>
        <time>2014-10-26T10:17:56.000Z</time>
      </trkpt>
      <trkpt lat="47.52535" lon="6.697">
        <ele>349.3</ele>
        <time>2014-10-26T10:17:57.000Z</time>
      </trkpt>
      <trkpt lat="47.52531" lon="6.69698">
        <ele>349.2</ele>
        <time>2014-10-26T10:17:58.000Z</time>
      </trkpt>
      <trkpt lat="47.52526" lon="6.69697">
        <ele>349.6</ele>
        <time>2014-10-26T10:17:59.000Z</time>
      </trkpt>
      <trkpt lat="47.52522" lon="6.69695">
        <ele>349.7</ele>
        <time>2014-10-26T10:18:00.000Z</time>
      </trkpt>
      <trkpt lat="47.52517" lon="6.69693">
        <ele>349.6</ele>
        <time>2014-10-26T10:18:01.000Z</time>
      </trkpt>
      <trkpt lat="47.52513" lon="6.69692">
        <ele>349.5</ele>
        <time>2014-10-26T10:18:02.000Z</time>
      </trkpt>
      <trkpt lat="47.52508" lon="6.69691">
        <ele>349.4</ele>
        <time>2014-10-26T10:18:03.000Z</time>
      </trkpt>
      <trkpt lat="47.52503" lon="6.6969">
        <ele>349.1</ele>
        <time>2014-10-26T10:18:04.000Z</time>
      </trkpt>
      <trkpt lat="47.52499" lon="6.6969">
        <ele>349</ele>
        <time>2014-10-26T10:18:05.000Z</time>
      </trkpt>
      <trkpt lat="47.52494" lon="6.6969">
        <ele>348.4</ele>
        <time>2014-10-26T10:18:06.000Z</time>
      </trkpt>
      <trkpt lat="47.52491" lon="6.6969">
        <ele>349.1</ele>
        <time>2014-10-26T10:18:07.000Z</time>
      </trkpt>
      <trkpt lat="47.52487" lon="6.6969">
        <ele>349.2</ele>
        <time>2014-10-26T10:18:08.000Z</time>
      </trkpt>
      <trkpt lat="47.52482" lon="6.6969">
        <ele>349</ele>
        <time>2014-10-26T10:18:09.000Z</time>
      </trkpt>
      <trkpt lat="47.52478" lon="6.6969">
        <ele>349.4</ele>
        <time>2014-10-26T10:18:10.000Z</time>
      </trkpt>
      <trkpt lat="47.52473" lon="6.69691">
        <ele>349.8</ele>
        <time>2014-10-26T10:18:11.000Z</time>
      </trkpt>
      <trkpt lat="47.52469" lon="6.69693">
        <ele>349.6</ele>
        <time>2014-10-26T10:18:12.000Z</time>
      </trkpt>
      <trkpt lat="47.52464" lon="6.69694">
        <ele>349.7</ele>
        <time>2014-10-26T10:18:13.000Z</time>
      </trkpt>
      <trkpt lat="47.52459" lon="6.69695">
        <ele>349.9</ele>
        <time>2014-10-26T10:18:14.000Z</time>
      </trkpt>
      <trkpt lat="47.52454" lon="6.69696">
        <ele>349.9</ele>
        <time>2014-10-26T10:18:15.000Z</time>
      </trkpt>
      <trkpt lat="47.5245" lon="6.69697">
        <ele>350.2</ele>
        <time>2014-10-26T10:18:16.000Z</time>
      </trkpt>
      <trkpt lat="47.52445" lon="6.69697">
        <ele>350.4</ele>
        <time>2014-10-26T10:18:17.000Z</time>
      </trkpt>
      <trkpt lat="47.5244" lon="6.69699">
        <ele>350.4</ele>
        <time>2014-10-26T10:18:18.000Z</time>
      </trkpt>
      <trkpt lat="47.52435" lon="6.697">
        <ele>350.4</ele>
        <time>2014-10-26T10:18:19.000Z</time>
      </trkpt>
      <trkpt lat="47.5243" lon="6.69701">
        <ele>351</ele>
        <time>2014-10-26T10:18:20.000Z</time>
      </trkpt>
      <trkpt lat="47.52426" lon="6.69701">
        <ele>351.6</ele>
        <time>2014-10-26T10:18:21.000Z</time>
      </trkpt>
      <trkpt lat="47.52422" lon="6.697">
        <ele>351.9</ele>
        <time>2014-10-26T10:18:22.000Z</time>
      </trkpt>
      <trkpt lat="47.52418" lon="6.69703">
        <ele>351.4</ele>
        <time>2014-10-26T10:18:23.000Z</time>
      </trkpt>
      <trkpt lat="47.52414" lon="6.69703">
        <ele>352.1</ele>
        <time>2014-10-26T10:18:24.000Z</time>
      </trkpt>
      <trkpt lat="47.5241" lon="6.69704">
        <ele>352.3</ele>
        <time>2014-10-26T10:18:25.000Z</time>
      </trkpt>
      <trkpt lat="47.52405" lon="6.69705">
        <ele>352.9</ele>
        <time>2014-10-26T10:18:26.000Z</time>
      </trkpt>
      <trkpt lat="47.52401" lon="6.69707">
        <ele>352.6</ele>
        <time>2014-10-26T10:18:27.000Z</time>
      </trkpt>
      <trkpt lat="47.52397" lon="6.69709">
        <ele>352.8</ele>
        <time>2014-10-26T10:18:28.000Z</time>
      </trkpt>
      <trkpt lat="47.52393" lon="6.69709">
        <ele>353.9</ele>
        <time>2014-10-26T10:18:29.000Z</time>
      </trkpt>
      <trkpt lat="47.5239" lon="6.69712">
        <ele>353.5</ele>
        <time>2014-10-26T10:18:30.000Z</time>
      </trkpt>
      <trkpt lat="47.52387" lon="6.69714">
        <ele>354.5</ele>
        <time>2014-10-26T10:18:31.000Z</time>
      </trkpt>
      <trkpt lat="47.52383" lon="6.69717">
        <ele>354.6</ele>
        <time>2014-10-26T10:18:32.000Z</time>
      </trkpt>
      <trkpt lat="47.52379" lon="6.69719">
        <ele>355</ele>
        <time>2014-10-26T10:18:33.000Z</time>
      </trkpt>
      <trkpt lat="47.52357" lon="6.69749">
        <ele>358.3</ele>
        <time>2014-10-26T10:18:41.000Z</time>
      </trkpt>
      <trkpt lat="47.52355" lon="6.69752">
        <ele>360.9</ele>
        <time>2014-10-26T10:18:42.000Z</time>
      </trkpt>
      <trkpt lat="47.52354" lon="6.69756">
        <ele>361.8</ele>
        <time>2014-10-26T10:18:43.000Z</time>
      </trkpt>
      <trkpt lat="47.52352" lon="6.69759">
        <ele>362.9</ele>
        <time>2014-10-26T10:18:44.000Z</time>
      </trkpt>
      <trkpt lat="47.52351" lon="6.69763">
        <ele>361.4</ele>
        <time>2014-10-26T10:18:45.000Z</time>
      </trkpt>
      <trkpt lat="47.52349" lon="6.69767">
        <ele>360.4</ele>
        <time>2014-10-26T10:18:46.000Z</time>
      </trkpt>
      <trkpt lat="47.52347" lon="6.69772">
        <ele>363</ele>
        <time>2014-10-26T10:18:47.000Z</time>
      </trkpt>
      <trkpt lat="47.52345" lon="6.69778">
        <ele>362.1</ele>
        <time>2014-10-26T10:18:48.000Z</time>
      </trkpt>
      <trkpt lat="47.52344" lon="6.69783">
        <ele>362.4</ele>
        <time>2014-10-26T10:18:49.000Z</time>
      </trkpt>
      <trkpt lat="47.52342" lon="6.69789">
        <ele>362.2</ele>
        <time>2014-10-26T10:18:50.000Z</time>
      </trkpt>
      <trkpt lat="47.5234" lon="6.69795">
        <ele>361.7</ele>
        <time>2014-10-26T10:18:51.000Z</time>
      </trkpt>
      <trkpt lat="47.52337" lon="6.69801">
        <ele>361.3</ele>
        <time>2014-10-26T10:18:52.000Z</time>
      </trkpt>
      <trkpt lat="47.52331" lon="6.6981">
        <ele>360.6</ele>
        <time>2014-10-26T10:18:53.000Z</time>
      </trkpt>
      <trkpt lat="47.52327" lon="6.69816">
        <ele>360.2</ele>
        <time>2014-10-26T10:18:54.000Z</time>
      </trkpt>
      <trkpt lat="47.52325" lon="6.69822">
        <ele>359.9</ele>
        <time>2014-10-26T10:18:55.000Z</time>
      </trkpt>
      <trkpt lat="47.52322" lon="6.69827">
        <ele>359.7</ele>
        <time>2014-10-26T10:18:56.000Z</time>
      </trkpt>
      <trkpt lat="47.52319" lon="6.69834">
        <ele>359</ele>
        <time>2014-10-26T10:18:57.000Z</time>
      </trkpt>
      <trkpt lat="47.52315" lon="6.6984">
        <ele>359</ele>
        <time>2014-10-26T10:18:58.000Z</time>
      </trkpt>
      <trkpt lat="47.52311" lon="6.69847">
        <ele>358.5</ele>
        <time>2014-10-26T10:18:59.000Z</time>
      </trkpt>
      <trkpt lat="47.52308" lon="6.69853">
        <ele>358.4</ele>
        <time>2014-10-26T10:19:00.000Z</time>
      </trkpt>
      <trkpt lat="47.52306" lon="6.69861">
        <ele>358.6</ele>
        <time>2014-10-26T10:19:01.000Z</time>
      </trkpt>
      <trkpt lat="47.52302" lon="6.69868">
        <ele>357.6</ele>
        <time>2014-10-26T10:19:02.000Z</time>
      </trkpt>
      <trkpt lat="47.523" lon="6.69875">
        <ele>357.5</ele>
        <time>2014-10-26T10:19:03.000Z</time>
      </trkpt>
      <trkpt lat="47.52296" lon="6.69882">
        <ele>357.5</ele>
        <time>2014-10-26T10:19:04.000Z</time>
      </trkpt>
      <trkpt lat="47.52293" lon="6.69889">
        <ele>357.1</ele>
        <time>2014-10-26T10:19:05.000Z</time>
      </trkpt>
      <trkpt lat="47.5229" lon="6.69897">
        <ele>356.4</ele>
        <time>2014-10-26T10:19:06.000Z</time>
      </trkpt>
      <trkpt lat="47.52287" lon="6.69904">
        <ele>356.2</ele>
        <time>2014-10-26T10:19:07.000Z</time>
      </trkpt>
      <trkpt lat="47.52283" lon="6.69911">
        <ele>355.9</ele>
        <time>2014-10-26T10:19:08.000Z</time>
      </trkpt>
      <trkpt lat="47.5228" lon="6.69918">
        <ele>356.6</ele>
        <time>2014-10-26T10:19:09.000Z</time>
      </trkpt>
      <trkpt lat="47.52276" lon="6.69926">
        <ele>356.5</ele>
        <time>2014-10-26T10:19:10.000Z</time>
      </trkpt>
      <trkpt lat="47.52272" lon="6.69933">
        <ele>355.9</ele>
        <time>2014-10-26T10:19:11.000Z</time>
      </trkpt>
      <trkpt lat="47.52268" lon="6.69942">
        <ele>355.6</ele>
        <time>2014-10-26T10:19:12.000Z</time>
      </trkpt>
      <trkpt lat="47.52265" lon="6.69951">
        <ele>355.3</ele>
        <time>2014-10-26T10:19:13.000Z</time>
      </trkpt>
      <trkpt lat="47.5226" lon="6.6996">
        <ele>355.4</ele>
        <time>2014-10-26T10:19:14.000Z</time>
      </trkpt>
      <trkpt lat="47.52256" lon="6.69967">
        <ele>356.2</ele>
        <time>2014-10-26T10:19:15.000Z</time>
      </trkpt>
      <trkpt lat="47.52251" lon="6.69976">
        <ele>355.8</ele>
        <time>2014-10-26T10:19:16.000Z</time>
      </trkpt>
      <trkpt lat="47.52248" lon="6.69986">
        <ele>356.1</ele>
        <time>2014-10-26T10:19:17.000Z</time>
      </trkpt>
      <trkpt lat="47.52244" lon="6.69998">
        <ele>354.7</ele>
        <time>2014-10-26T10:19:18.000Z</time>
      </trkpt>
      <trkpt lat="47.5224" lon="6.70008">
        <ele>354.5</ele>
        <time>2014-10-26T10:19:19.000Z</time>
      </trkpt>
      <trkpt lat="47.52236" lon="6.70018">
        <ele>355.3</ele>
        <time>2014-10-26T10:19:20.000Z</time>
      </trkpt>
      <trkpt lat="47.52232" lon="6.7003">
        <ele>353.6</ele>
        <time>2014-10-26T10:19:21.000Z</time>
      </trkpt>
      <trkpt lat="47.52229" lon="6.70042">
        <ele>353</ele>
        <time>2014-10-26T10:19:22.000Z</time>
      </trkpt>
      <trkpt lat="47.52226" lon="6.70052">
        <ele>353.1</ele>
        <time>2014-10-26T10:19:23.000Z</time>
      </trkpt>
      <trkpt lat="47.52223" lon="6.70061">
        <ele>353.2</ele>
        <time>2014-10-26T10:19:24.000Z</time>
      </trkpt>
      <trkpt lat="47.5222" lon="6.70072">
        <ele>352.6</ele>
        <time>2014-10-26T10:19:25.000Z</time>
      </trkpt>
      <trkpt lat="47.52218" lon="6.70083">
        <ele>352.9</ele>
        <time>2014-10-26T10:19:26.000Z</time>
      </trkpt>
      <trkpt lat="47.52215" lon="6.70093">
        <ele>352.9</ele>
        <time>2014-10-26T10:19:27.000Z</time>
      </trkpt>
      <trkpt lat="47.52212" lon="6.70103">
        <ele>353.1</ele>
        <time>2014-10-26T10:19:28.000Z</time>
      </trkpt>
      <trkpt lat="47.52209" lon="6.70112">
        <ele>353.2</ele>
        <time>2014-10-26T10:19:29.000Z</time>
      </trkpt>
      <trkpt lat="47.52206" lon="6.70121">
        <ele>353.6</ele>
        <time>2014-10-26T10:19:30.000Z</time>
      </trkpt>
      <trkpt lat="47.52204" lon="6.70129">
        <ele>354.4</ele>
        <time>2014-10-26T10:19:31.000Z</time>
      </trkpt>
      <trkpt lat="47.52201" lon="6.70138">
        <ele>354.2</ele>
        <time>2014-10-26T10:19:32.000Z</time>
      </trkpt>
      <trkpt lat="47.52199" lon="6.70147">
        <ele>354.1</ele>
        <time>2014-10-26T10:19:33.000Z</time>
      </trkpt>
      <trkpt lat="47.52184" lon="6.70196">
        <ele>356</ele>
        <time>2014-10-26T10:19:41.000Z</time>
      </trkpt>
      <trkpt lat="47.52183" lon="6.70201">
        <ele>356.3</ele>
        <time>2014-10-26T10:19:42.000Z</time>
      </trkpt>
      <trkpt lat="47.52181" lon="6.70206">
        <ele>356.5</ele>
        <time>2014-10-26T10:19:43.000Z</time>
      </trkpt>
      <trkpt lat="47.52179" lon="6.7021">
        <ele>356.4</ele>
        <time>2014-10-26T10:19:44.000Z</time>
      </trkpt>
      <trkpt lat="47.52179" lon="6.70216">
        <ele>357.6</ele>
        <time>2014-10-26T10:19:45.000Z</time>
      </trkpt>
      <trkpt lat="47.52177" lon="6.70219">
        <ele>356.5</ele>
        <time>2014-10-26T10:19:46.000Z</time>
      </trkpt>
      <trkpt lat="47.52175" lon="6.70223">
        <ele>355.9</ele>
        <time>2014-10-26T10:19:47.000Z</time>
      </trkpt>
      <trkpt lat="47.52175" lon="6.70228">
        <ele>354.9</ele>
        <time>2014-10-26T10:19:48.000Z</time>
      </trkpt>
      <trkpt lat="47.52174" lon="6.70233">
        <ele>356</ele>
        <time>2014-10-26T10:19:49.000Z</time>
      </trkpt>
      <trkpt lat="47.52172" lon="6.70238">
        <ele>356.3</ele>
        <time>2014-10-26T10:19:50.000Z</time>
      </trkpt>
      <trkpt lat="47.52171" lon="6.70243">
        <ele>357.6</ele>
        <time>2014-10-26T10:19:51.000Z</time>
      </trkpt>
      <trkpt lat="47.5217" lon="6.70247">
        <ele>359.6</ele>
        <time>2014-10-26T10:19:52.000Z</time>
      </trkpt>
      <trkpt lat="47.52169" lon="6.70252">
        <ele>361.1</ele>
        <time>2014-10-26T10:19:53.000Z</time>
      </trkpt>
      <trkpt lat="47.52168" lon="6.70256">
        <ele>362.8</ele>
        <time>2014-10-26T10:19:54.000Z</time>
      </trkpt>
      <trkpt lat="47.52167" lon="6.70261">
        <ele>363.6</ele>
        <time>2014-10-26T10:19:55.000Z</time>
      </trkpt>
      <trkpt lat="47.52166" lon="6.70265">
        <ele>363.7</ele>
        <time>2014-10-26T10:19:56.000Z</time>
      </trkpt>
      <trkpt lat="47.52165" lon="6.7027">
        <ele>363.2</ele>
        <time>2014-10-26T10:19:57.000Z</time>
      </trkpt>
      <trkpt lat="47.52164" lon="6.70275">
        <ele>364.1</ele>
        <time>2014-10-26T10:19:58.000Z</time>
      </trkpt>
      <trkpt lat="47.52163" lon="6.7028">
        <ele>364.7</ele>
        <time>2014-10-26T10:19:59.000Z</time>
      </trkpt>
      <trkpt lat="47.5216" lon="6.70288">
        <ele>362.8</ele>
        <time>2014-10-26T10:20:00.000Z</time>
      </trkpt>
      <trkpt lat="47.52159" lon="6.70294">
        <ele>362.4</ele>
        <time>2014-10-26T10:20:01.000Z</time>
      </trkpt>
      <trkpt lat="47.52158" lon="6.70297">
        <ele>362.3</ele>
        <time>2014-10-26T10:20:02.000Z</time>
      </trkpt>
      <trkpt lat="47.52157" lon="6.70303">
        <ele>361.5</ele>
        <time>2014-10-26T10:20:03.000Z</time>
      </trkpt>
      <trkpt lat="47.52156" lon="6.70305">
        <ele>362.2</ele>
        <time>2014-10-26T10:20:04.000Z</time>
      </trkpt>
      <trkpt lat="47.52154" lon="6.70311">
        <ele>362.1</ele>
        <time>2014-10-26T10:20:05.000Z</time>
      </trkpt>
      <trkpt lat="47.52153" lon="6.70316">
        <ele>360.7</ele>
        <time>2014-10-26T10:20:06.000Z</time>
      </trkpt>
      <trkpt lat="47.52152" lon="6.7032">
        <ele>360.5</ele>
        <time>2014-10-26T10:20:07.000Z</time>
      </trkpt>
      <trkpt lat="47.5215" lon="6.70325">
        <ele>360.4</ele>
        <time>2014-10-26T10:20:08.000Z</time>
      </trkpt>
      <trkpt lat="47.52149" lon="6.7033">
        <ele>360</ele>
        <time>2014-10-26T10:20:09.000Z</time>
      </trkpt>
      <trkpt lat="47.52148" lon="6.70335">
        <ele>360.5</ele>
        <time>2014-10-26T10:20:10.000Z</time>
      </trkpt>
      <trkpt lat="47.52147" lon="6.7034">
        <ele>359.9</ele>
        <time>2014-10-26T10:20:11.000Z</time>
      </trkpt>
      <trkpt lat="47.52145" lon="6.70345">
        <ele>359.1</ele>
        <time>2014-10-26T10:20:12.000Z</time>
      </trkpt>
      <trkpt lat="47.52144" lon="6.7035">
        <ele>358.8</ele>
        <time>2014-10-26T10:20:13.000Z</time>
      </trkpt>
      <trkpt lat="47.52142" lon="6.70355">
        <ele>360.1</ele>
        <time>2014-10-26T10:20:14.000Z</time>
      </trkpt>
      <trkpt lat="47.52141" lon="6.70359">
        <ele>359.9</ele>
        <time>2014-10-26T10:20:15.000Z</time>
      </trkpt>
      <trkpt lat="47.52139" lon="6.70364">
        <ele>359.8</ele>
        <time>2014-10-26T10:20:16.000Z</time>
      </trkpt>
      <trkpt lat="47.52138" lon="6.70368">
        <ele>359.8</ele>
        <time>2014-10-26T10:20:17.000Z</time>
      </trkpt>
      <trkpt lat="47.52137" lon="6.70373">
        <ele>359.8</ele>
        <time>2014-10-26T10:20:18.000Z</time>
      </trkpt>
      <trkpt lat="47.52136" lon="6.70377">
        <ele>360.3</ele>
        <time>2014-10-26T10:20:19.000Z</time>
      </trkpt>
      <trkpt lat="47.52134" lon="6.70382">
        <ele>358.9</ele>
        <time>2014-10-26T10:20:20.000Z</time>
      </trkpt>
      <trkpt lat="47.52133" lon="6.70387">
        <ele>358.3</ele>
        <time>2014-10-26T10:20:21.000Z</time>
      </trkpt>
      <trkpt lat="47.52131" lon="6.70393">
        <ele>357.7</ele>
        <time>2014-10-26T10:20:22.000Z</time>
      </trkpt>
      <trkpt lat="47.52129" lon="6.70398">
        <ele>358.3</ele>
        <time>2014-10-26T10:20:23.000Z</time>
      </trkpt>
      <trkpt lat="47.52128" lon="6.70403">
        <ele>359.6</ele>
        <time>2014-10-26T10:20:24.000Z</time>
      </trkpt>
      <trkpt lat="47.52127" lon="6.70408">
        <ele>360.2</ele>
        <time>2014-10-26T10:20:25.000Z</time>
      </trkpt>
      <trkpt lat="47.52126" lon="6.70413">
        <ele>360.2</ele>
        <time>2014-10-26T10:20:26.000Z</time>
      </trkpt>
      <trkpt lat="47.52125" lon="6.70418">
        <ele>360.4</ele>
        <time>2014-10-26T10:20:27.000Z</time>
      </trkpt>
      <trkpt lat="47.52124" lon="6.70423">
        <ele>361.9</ele>
        <time>2014-10-26T10:20:28.000Z</time>
      </trkpt>
      <trkpt lat="47.52122" lon="6.70428">
        <ele>359.2</ele>
        <time>2014-10-26T10:20:29.000Z</time>
      </trkpt>
      <trkpt lat="47.5212" lon="6.70435">
        <ele>358.5</ele>
        <time>2014-10-26T10:20:30.000Z</time>
      </trkpt>
      <trkpt lat="47.52117" lon="6.7044">
        <ele>357.8</ele>
        <time>2014-10-26T10:20:31.000Z</time>
      </trkpt>
      <trkpt lat="47.52116" lon="6.70444">
        <ele>358.8</ele>
        <time>2014-10-26T10:20:32.000Z</time>
      </trkpt>
      <trkpt lat="47.52115" lon="6.70449">
        <ele>358.3</ele>
        <time>2014-10-26T10:20:33.000Z</time>
      </trkpt>
      <trkpt lat="47.52112" lon="6.70455">
        <ele>357.6</ele>
        <time>2014-10-26T10:20:34.000Z</time>
      </trkpt>
      <trkpt lat="47.52109" lon="6.70465">
        <ele>358.2</ele>
        <time>2014-10-26T10:20:37.000Z</time>
      </trkpt>
      <trkpt lat="47.52108" lon="6.70471">
        <ele>358.1</ele>
        <time>2014-10-26T10:20:38.000Z</time>
      </trkpt>
      <trkpt lat="47.52103" lon="6.70477">
        <ele>355</ele>
        <time>2014-10-26T10:20:39.000Z</time>
      </trkpt>
      <trkpt lat="47.52102" lon="6.70481">
        <ele>355.3</ele>
        <time>2014-10-26T10:20:40.000Z</time>
      </trkpt>
      <trkpt lat="47.521" lon="6.70487">
        <ele>355.4</ele>
        <time>2014-10-26T10:20:41.000Z</time>
      </trkpt>
      <trkpt lat="47.521" lon="6.70492">
        <ele>356.3</ele>
        <time>2014-10-26T10:20:42.000Z</time>
      </trkpt>
      <trkpt lat="47.52099" lon="6.70496">
        <ele>356.9</ele>
        <time>2014-10-26T10:20:43.000Z</time>
      </trkpt>
      <trkpt lat="47.52099" lon="6.70501">
        <ele>357.3</ele>
        <time>2014-10-26T10:20:44.000Z</time>
      </trkpt>
      <trkpt lat="47.52098" lon="6.70505">
        <ele>357.5</ele>
        <time>2014-10-26T10:20:45.000Z</time>
      </trkpt>
      <trkpt lat="47.52097" lon="6.7051">
        <ele>359.5</ele>
        <time>2014-10-26T10:20:46.000Z</time>
      </trkpt>
      <trkpt lat="47.52094" lon="6.70516">
        <ele>358.3</ele>
        <time>2014-10-26T10:20:47.000Z</time>
      </trkpt>
      <trkpt lat="47.52093" lon="6.70521">
        <ele>358.3</ele>
        <time>2014-10-26T10:20:48.000Z</time>
      </trkpt>
      <trkpt lat="47.52091" lon="6.70526">
        <ele>357.3</ele>
        <time>2014-10-26T10:20:49.000Z</time>
      </trkpt>
      <trkpt lat="47.52089" lon="6.70531">
        <ele>356.8</ele>
        <time>2014-10-26T10:20:50.000Z</time>
      </trkpt>
      <trkpt lat="47.52087" lon="6.70536">
        <ele>356.9</ele>
        <time>2014-10-26T10:20:51.000Z</time>
      </trkpt>
      <trkpt lat="47.52086" lon="6.70541">
        <ele>357.4</ele>
        <time>2014-10-26T10:20:52.000Z</time>
      </trkpt>
      <trkpt lat="47.52084" lon="6.70546">
        <ele>357.4</ele>
        <time>2014-10-26T10:20:53.000Z</time>
      </trkpt>
      <trkpt lat="47.52083" lon="6.7055">
        <ele>357.4</ele>
        <time>2014-10-26T10:20:54.000Z</time>
      </trkpt>
      <trkpt lat="47.52082" lon="6.70554">
        <ele>360.3</ele>
        <time>2014-10-26T10:20:55.000Z</time>
      </trkpt>
      <trkpt lat="47.52081" lon="6.70558">
        <ele>360.4</ele>
        <time>2014-10-26T10:20:56.000Z</time>
      </trkpt>
      <trkpt lat="47.52079" lon="6.70562">
        <ele>359.4</ele>
        <time>2014-10-26T10:20:57.000Z</time>
      </trkpt>
      <trkpt lat="47.52078" lon="6.70567">
        <ele>359.7</ele>
        <time>2014-10-26T10:20:58.000Z</time>
      </trkpt>
      <trkpt lat="47.52077" lon="6.70572">
        <ele>359.7</ele>
        <time>2014-10-26T10:20:59.000Z</time>
      </trkpt>
      <trkpt lat="47.52075" lon="6.70577">
        <ele>359.7</ele>
        <time>2014-10-26T10:21:00.000Z</time>
      </trkpt>
      <trkpt lat="47.52073" lon="6.70582">
        <ele>359.7</ele>
        <time>2014-10-26T10:21:01.000Z</time>
      </trkpt>
      <trkpt lat="47.52071" lon="6.70587">
        <ele>359.8</ele>
        <time>2014-10-26T10:21:02.000Z</time>
      </trkpt>
      <trkpt lat="47.52069" lon="6.70592">
        <ele>360.5</ele>
        <time>2014-10-26T10:21:03.000Z</time>
      </trkpt>
      <trkpt lat="47.52068" lon="6.70597">
        <ele>361</ele>
        <time>2014-10-26T10:21:04.000Z</time>
      </trkpt>
      <trkpt lat="47.52066" lon="6.70602">
        <ele>361.3</ele>
        <time>2014-10-26T10:21:05.000Z</time>
      </trkpt>
      <trkpt lat="47.52065" lon="6.70607">
        <ele>361.4</ele>
        <time>2014-10-26T10:21:06.000Z</time>
      </trkpt>
      <trkpt lat="47.52064" lon="6.70612">
        <ele>363.7</ele>
        <time>2014-10-26T10:21:07.000Z</time>
      </trkpt>
      <trkpt lat="47.52063" lon="6.70617">
        <ele>363.7</ele>
        <time>2014-10-26T10:21:08.000Z</time>
      </trkpt>
      <trkpt lat="47.52062" lon="6.70622">
        <ele>363.3</ele>
        <time>2014-10-26T10:21:09.000Z</time>
      </trkpt>
      <trkpt lat="47.5206" lon="6.70626">
        <ele>364</ele>
        <time>2014-10-26T10:21:10.000Z</time>
      </trkpt>
      <trkpt lat="47.52058" lon="6.70631">
        <ele>363.6</ele>
        <time>2014-10-26T10:21:11.000Z</time>
      </trkpt>
      <trkpt lat="47.52056" lon="6.70635">
        <ele>363.8</ele>
        <time>2014-10-26T10:21:12.000Z</time>
      </trkpt>
      <trkpt lat="47.52054" lon="6.7064">
        <ele>363.8</ele>
        <time>2014-10-26T10:21:13.000Z</time>
      </trkpt>
      <trkpt lat="47.52053" lon="6.70645">
        <ele>364.8</ele>
        <time>2014-10-26T10:21:14.000Z</time>
      </trkpt>
      <trkpt lat="47.52052" lon="6.7065">
        <ele>366.1</ele>
        <time>2014-10-26T10:21:15.000Z</time>
      </trkpt>
      <trkpt lat="47.52052" lon="6.70655">
        <ele>366.3</ele>
        <time>2014-10-26T10:21:16.000Z</time>
      </trkpt>
      <trkpt lat="47.52051" lon="6.7066">
        <ele>366.3</ele>
        <time>2014-10-26T10:21:17.000Z</time>
      </trkpt>
      <trkpt lat="47.52051" lon="6.70665">
        <ele>366.7</ele>
        <time>2014-10-26T10:21:18.000Z</time>
      </trkpt>
      <trkpt lat="47.52049" lon="6.7067">
        <ele>364.9</ele>
        <time>2014-10-26T10:21:19.000Z</time>
      </trkpt>
      <trkpt lat="47.52047" lon="6.70675">
        <ele>364</ele>
        <time>2014-10-26T10:21:20.000Z</time>
      </trkpt>
      <trkpt lat="47.52045" lon="6.70681">
        <ele>364.3</ele>
        <time>2014-10-26T10:21:21.000Z</time>
      </trkpt>
      <trkpt lat="47.52043" lon="6.70686">
        <ele>363.8</ele>
        <time>2014-10-26T10:21:22.000Z</time>
      </trkpt>
      <trkpt lat="47.52041" lon="6.70691">
        <ele>363.5</ele>
        <time>2014-10-26T10:21:23.000Z</time>
      </trkpt>
      <trkpt lat="47.52039" lon="6.70696">
        <ele>363.2</ele>
        <time>2014-10-26T10:21:24.000Z</time>
      </trkpt>
      <trkpt lat="47.52037" lon="6.70701">
        <ele>362.6</ele>
        <time>2014-10-26T10:21:25.000Z</time>
      </trkpt>
      <trkpt lat="47.52035" lon="6.70706">
        <ele>362.7</ele>
        <time>2014-10-26T10:21:26.000Z</time>
      </trkpt>
      <trkpt lat="47.52034" lon="6.70711">
        <ele>362.6</ele>
        <time>2014-10-26T10:21:27.000Z</time>
      </trkpt>
      <trkpt lat="47.52032" lon="6.70716">
        <ele>362.7</ele>
        <time>2014-10-26T10:21:28.000Z</time>
      </trkpt>
      <trkpt lat="47.52031" lon="6.70721">
        <ele>362.5</ele>
        <time>2014-10-26T10:21:29.000Z</time>
      </trkpt>
      <trkpt lat="47.52029" lon="6.70726">
        <ele>361.3</ele>
        <time>2014-10-26T10:21:30.000Z</time>
      </trkpt>
      <trkpt lat="47.52027" lon="6.70732">
        <ele>361.6</ele>
        <time>2014-10-26T10:21:31.000Z</time>
      </trkpt>
      <trkpt lat="47.52025" lon="6.70737">
        <ele>361.8</ele>
        <time>2014-10-26T10:21:32.000Z</time>
      </trkpt>
      <trkpt lat="47.52023" lon="6.70743">
        <ele>361.2</ele>
        <time>2014-10-26T10:21:33.000Z</time>
      </trkpt>
      <trkpt lat="47.52019" lon="6.70759">
        <ele>362.1</ele>
        <time>2014-10-26T10:21:36.000Z</time>
      </trkpt>
      <trkpt lat="47.52017" lon="6.70765">
        <ele>362.4</ele>
        <time>2014-10-26T10:21:37.000Z</time>
      </trkpt>
      <trkpt lat="47.52015" lon="6.7077">
        <ele>363.1</ele>
        <time>2014-10-26T10:21:38.000Z</time>
      </trkpt>
      <trkpt lat="47.52012" lon="6.70778">
        <ele>361.6</ele>
        <time>2014-10-26T10:21:39.000Z</time>
      </trkpt>
      <trkpt lat="47.5201" lon="6.70783">
        <ele>361</ele>
        <time>2014-10-26T10:21:40.000Z</time>
      </trkpt>
      <trkpt lat="47.52009" lon="6.70788">
        <ele>361.1</ele>
        <time>2014-10-26T10:21:41.000Z</time>
      </trkpt>
      <trkpt lat="47.52008" lon="6.70795">
        <ele>360.1</ele>
        <time>2014-10-26T10:21:42.000Z</time>
      </trkpt>
      <trkpt lat="47.52006" lon="6.70802">
        <ele>359.4</ele>
        <time>2014-10-26T10:21:43.000Z</time>
      </trkpt>
      <trkpt lat="47.52004" lon="6.70808">
        <ele>359.2</ele>
        <time>2014-10-26T10:21:44.000Z</time>
      </trkpt>
      <trkpt lat="47.52002" lon="6.70814">
        <ele>359.2</ele>
        <time>2014-10-26T10:21:45.000Z</time>
      </trkpt>
      <trkpt lat="47.52001" lon="6.70819">
        <ele>359.6</ele>
        <time>2014-10-26T10:21:46.000Z</time>
      </trkpt>
      <trkpt lat="47.51999" lon="6.70824">
        <ele>359.9</ele>
        <time>2014-10-26T10:21:47.000Z</time>
      </trkpt>
      <trkpt lat="47.51997" lon="6.70828">
        <ele>361.8</ele>
        <time>2014-10-26T10:21:48.000Z</time>
      </trkpt>
      <trkpt lat="47.51996" lon="6.70834">
        <ele>362.2</ele>
        <time>2014-10-26T10:21:49.000Z</time>
      </trkpt>
      <trkpt lat="47.51994" lon="6.70837">
        <ele>364.7</ele>
        <time>2014-10-26T10:21:50.000Z</time>
      </trkpt>
      <trkpt lat="47.51992" lon="6.70842">
        <ele>364.2</ele>
        <time>2014-10-26T10:21:51.000Z</time>
      </trkpt>
      <trkpt lat="47.5199" lon="6.70847">
        <ele>364.1</ele>
        <time>2014-10-26T10:21:52.000Z</time>
      </trkpt>
      <trkpt lat="47.51988" lon="6.70853">
        <ele>363.5</ele>
        <time>2014-10-26T10:21:53.000Z</time>
      </trkpt>
      <trkpt lat="47.51987" lon="6.70857">
        <ele>364.3</ele>
        <time>2014-10-26T10:21:54.000Z</time>
      </trkpt>
      <trkpt lat="47.51985" lon="6.70862">
        <ele>364.2</ele>
        <time>2014-10-26T10:21:55.000Z</time>
      </trkpt>
      <trkpt lat="47.51984" lon="6.70867">
        <ele>363.4</ele>
        <time>2014-10-26T10:21:56.000Z</time>
      </trkpt>
      <trkpt lat="47.51983" lon="6.70872">
        <ele>363.3</ele>
        <time>2014-10-26T10:21:57.000Z</time>
      </trkpt>
      <trkpt lat="47.51983" lon="6.70877">
        <ele>363.6</ele>
        <time>2014-10-26T10:21:58.000Z</time>
      </trkpt>
      <trkpt lat="47.51982" lon="6.70882">
        <ele>364.8</ele>
        <time>2014-10-26T10:21:59.000Z</time>
      </trkpt>
      <trkpt lat="47.51981" lon="6.70886">
        <ele>365.2</ele>
        <time>2014-10-26T10:22:00.000Z</time>
      </trkpt>
      <trkpt lat="47.51981" lon="6.7089">
        <ele>365.7</ele>
        <time>2014-10-26T10:22:01.000Z</time>
      </trkpt>
      <trkpt lat="47.51982" lon="6.70894">
        <ele>366.1</ele>
        <time>2014-10-26T10:22:02.000Z</time>
      </trkpt>
      <trkpt lat="47.51983" lon="6.70898">
        <ele>366.6</ele>
        <time>2014-10-26T10:22:03.000Z</time>
      </trkpt>
      <trkpt lat="47.51984" lon="6.70903">
        <ele>366.4</ele>
        <time>2014-10-26T10:22:04.000Z</time>
      </trkpt>
      <trkpt lat="47.51985" lon="6.70907">
        <ele>366.2</ele>
        <time>2014-10-26T10:22:05.000Z</time>
      </trkpt>
      <trkpt lat="47.51987" lon="6.7091">
        <ele>366.5</ele>
        <time>2014-10-26T10:22:06.000Z</time>
      </trkpt>
      <trkpt lat="47.51988" lon="6.70914">
        <ele>366.7</ele>
        <time>2014-10-26T10:22:07.000Z</time>
      </trkpt>
      <trkpt lat="47.5199" lon="6.70917">
        <ele>367</ele>
        <time>2014-10-26T10:22:08.000Z</time>
      </trkpt>
      <trkpt lat="47.51993" lon="6.70921">
        <ele>367.4</ele>
        <time>2014-10-26T10:22:09.000Z</time>
      </trkpt>
      <trkpt lat="47.51996" lon="6.70924">
        <ele>367.5</ele>
        <time>2014-10-26T10:22:10.000Z</time>
      </trkpt>
      <trkpt lat="47.51998" lon="6.70928">
        <ele>367.3</ele>
        <time>2014-10-26T10:22:11.000Z</time>
      </trkpt>
      <trkpt lat="47.52001" lon="6.70931">
        <ele>368</ele>
        <time>2014-10-26T10:22:12.000Z</time>
      </trkpt>
      <trkpt lat="47.52004" lon="6.70935">
        <ele>367.8</ele>
        <time>2014-10-26T10:22:13.000Z</time>
      </trkpt>
      <trkpt lat="47.52006" lon="6.70938">
        <ele>368.3</ele>
        <time>2014-10-26T10:22:14.000Z</time>
      </trkpt>
      <trkpt lat="47.52009" lon="6.7094">
        <ele>368.9</ele>
        <time>2014-10-26T10:22:15.000Z</time>
      </trkpt>
      <trkpt lat="47.52011" lon="6.70943">
        <ele>369.1</ele>
        <time>2014-10-26T10:22:16.000Z</time>
      </trkpt>
      <trkpt lat="47.52014" lon="6.70945">
        <ele>369.7</ele>
        <time>2014-10-26T10:22:17.000Z</time>
      </trkpt>
      <trkpt lat="47.52017" lon="6.70947">
        <ele>370.3</ele>
        <time>2014-10-26T10:22:18.000Z</time>
      </trkpt>
      <trkpt lat="47.5202" lon="6.7095">
        <ele>371.2</ele>
        <time>2014-10-26T10:22:19.000Z</time>
      </trkpt>
      <trkpt lat="47.52023" lon="6.70952">
        <ele>371.9</ele>
        <time>2014-10-26T10:22:20.000Z</time>
      </trkpt>
      <trkpt lat="47.52025" lon="6.70955">
        <ele>372.6</ele>
        <time>2014-10-26T10:22:21.000Z</time>
      </trkpt>
      <trkpt lat="47.52028" lon="6.70958">
        <ele>372.6</ele>
        <time>2014-10-26T10:22:22.000Z</time>
      </trkpt>
      <trkpt lat="47.5203" lon="6.70961">
        <ele>372.8</ele>
        <time>2014-10-26T10:22:23.000Z</time>
      </trkpt>
      <trkpt lat="47.52033" lon="6.70965">
        <ele>373.1</ele>
        <time>2014-10-26T10:22:24.000Z</time>
      </trkpt>
      <trkpt lat="47.52035" lon="6.70969">
        <ele>373.8</ele>
        <time>2014-10-26T10:22:25.000Z</time>
      </trkpt>
      <trkpt lat="47.52036" lon="6.70973">
        <ele>374.2</ele>
        <time>2014-10-26T10:22:26.000Z</time>
      </trkpt>
      <trkpt lat="47.52038" lon="6.70977">
        <ele>374.9</ele>
        <time>2014-10-26T10:22:27.000Z</time>
      </trkpt>
      <trkpt lat="47.52039" lon="6.7098">
        <ele>376.1</ele>
        <time>2014-10-26T10:22:28.000Z</time>
      </trkpt>
      <trkpt lat="47.5204" lon="6.70984">
        <ele>376.9</ele>
        <time>2014-10-26T10:22:29.000Z</time>
      </trkpt>
      <trkpt lat="47.52041" lon="6.7099">
        <ele>377.3</ele>
        <time>2014-10-26T10:22:31.000Z</time>
      </trkpt>
      <trkpt lat="47.5204" lon="6.70993">
        <ele>377.1</ele>
        <time>2014-10-26T10:22:32.000Z</time>
      </trkpt>
      <trkpt lat="47.52038" lon="6.70996">
        <ele>376.6</ele>
        <time>2014-10-26T10:22:33.000Z</time>
      </trkpt>
      <trkpt lat="47.52015" lon="6.70984">
        <ele>375.3</ele>
        <time>2014-10-26T10:22:41.000Z</time>
      </trkpt>
      <trkpt lat="47.52012" lon="6.70983">
        <ele>375.3</ele>
        <time>2014-10-26T10:22:42.000Z</time>
      </trkpt>
      <trkpt lat="47.52009" lon="6.70982">
        <ele>375.4</ele>
        <time>2014-10-26T10:22:43.000Z</time>
      </trkpt>
      <trkpt lat="47.52006" lon="6.70981">
        <ele>374.9</ele>
        <time>2014-10-26T10:22:44.000Z</time>
      </trkpt>
      <trkpt lat="47.52002" lon="6.7098">
        <ele>374.6</ele>
        <time>2014-10-26T10:22:45.000Z</time>
      </trkpt>
      <trkpt lat="47.51999" lon="6.7098">
        <ele>374.6</ele>
        <time>2014-10-26T10:22:46.000Z</time>
      </trkpt>
      <trkpt lat="47.51996" lon="6.7098">
        <ele>374.9</ele>
        <time>2014-10-26T10:22:47.000Z</time>
      </trkpt>
      <trkpt lat="47.51993" lon="6.7098">
        <ele>375.1</ele>
        <time>2014-10-26T10:22:48.000Z</time>
      </trkpt>
      <trkpt lat="47.5199" lon="6.70981">
        <ele>374.3</ele>
        <time>2014-10-26T10:22:49.000Z</time>
      </trkpt>
      <trkpt lat="47.51988" lon="6.70981">
        <ele>374.2</ele>
        <time>2014-10-26T10:22:50.000Z</time>
      </trkpt>
      <trkpt lat="47.51985" lon="6.70982">
        <ele>373.8</ele>
        <time>2014-10-26T10:22:51.000Z</time>
      </trkpt>
      <trkpt lat="47.51982" lon="6.70982">
        <ele>373.7</ele>
        <time>2014-10-26T10:22:52.000Z</time>
      </trkpt>
      <trkpt lat="47.5198" lon="6.70982">
        <ele>373.8</ele>
        <time>2014-10-26T10:22:53.000Z</time>
      </trkpt>
      <trkpt lat="47.51977" lon="6.70983">
        <ele>374.1</ele>
        <time>2014-10-26T10:22:54.000Z</time>
      </trkpt>
      <trkpt lat="47.51974" lon="6.70983">
        <ele>373.8</ele>
        <time>2014-10-26T10:22:55.000Z</time>
      </trkpt>
      <trkpt lat="47.51972" lon="6.70983">
        <ele>373.8</ele>
        <time>2014-10-26T10:22:56.000Z</time>
      </trkpt>
      <trkpt lat="47.51969" lon="6.70983">
        <ele>373.7</ele>
        <time>2014-10-26T10:22:57.000Z</time>
      </trkpt>
      <trkpt lat="47.51967" lon="6.70984">
        <ele>373.8</ele>
        <time>2014-10-26T10:22:58.000Z</time>
      </trkpt>
      <trkpt lat="47.51965" lon="6.70984">
        <ele>374</ele>
        <time>2014-10-26T10:22:59.000Z</time>
      </trkpt>
      <trkpt lat="47.51963" lon="6.70985">
        <ele>374</ele>
        <time>2014-10-26T10:23:00.000Z</time>
      </trkpt>
      <trkpt lat="47.5196" lon="6.70986">
        <ele>374.2</ele>
        <time>2014-10-26T10:23:01.000Z</time>
      </trkpt>
      <trkpt lat="47.51956" lon="6.70987">
        <ele>374.8</ele>
        <time>2014-10-26T10:23:03.000Z</time>
      </trkpt>
      <trkpt lat="47.51954" lon="6.70987">
        <ele>374.3</ele>
        <time>2014-10-26T10:23:04.000Z</time>
      </trkpt>
      <trkpt lat="47.51951" lon="6.70989">
        <ele>375.1</ele>
        <time>2014-10-26T10:23:06.000Z</time>
      </trkpt>
      <trkpt lat="47.5195" lon="6.70989">
        <ele>375.9</ele>
        <time>2014-10-26T10:23:07.000Z</time>
      </trkpt>
      <trkpt lat="47.51946" lon="6.7099">
        <ele>376.3</ele>
        <time>2014-10-26T10:23:10.000Z</time>
      </trkpt>
      <trkpt lat="47.51944" lon="6.7099">
        <ele>375.9</ele>
        <time>2014-10-26T10:23:11.000Z</time>
      </trkpt>
      <trkpt lat="47.51941" lon="6.7099">
        <ele>376.1</ele>
        <time>2014-10-26T10:23:13.000Z</time>
      </trkpt>
      <trkpt lat="47.5194" lon="6.7099">
        <ele>377</ele>
        <time>2014-10-26T10:23:14.000Z</time>
      </trkpt>
      <trkpt lat="47.51936" lon="6.7099">
        <ele>377.4</ele>
        <time>2014-10-26T10:23:17.000Z</time>
      </trkpt>
      <trkpt lat="47.51935" lon="6.7099">
        <ele>377.5</ele>
        <time>2014-10-26T10:23:18.000Z</time>
      </trkpt>
      <trkpt lat="47.51931" lon="6.70989">
        <ele>379</ele>
        <time>2014-10-26T10:23:21.000Z</time>
      </trkpt>
      <trkpt lat="47.5193" lon="6.70988">
        <ele>379.2</ele>
        <time>2014-10-26T10:23:22.000Z</time>
      </trkpt>
      <trkpt lat="47.51926" lon="6.70988">
        <ele>379.7</ele>
        <time>2014-10-26T10:23:25.000Z</time>
      </trkpt>
      <trkpt lat="47.51924" lon="6.70988">
        <ele>379.2</ele>
        <time>2014-10-26T10:23:26.000Z</time>
      </trkpt>
      <trkpt lat="47.5192" lon="6.70989">
        <ele>379.2</ele>
        <time>2014-10-26T10:23:28.000Z</time>
      </trkpt>
      <trkpt lat="47.51918" lon="6.70989">
        <ele>379.6</ele>
        <time>2014-10-26T10:23:29.000Z</time>
      </trkpt>
      <trkpt lat="47.51914" lon="6.70989">
        <ele>381.2</ele>
        <time>2014-10-26T10:23:32.000Z</time>
      </trkpt>
      <trkpt lat="47.51913" lon="6.7099">
        <ele>382.1</ele>
        <time>2014-10-26T10:23:33.000Z</time>
      </trkpt>
      <trkpt lat="47.51908" lon="6.70991">
        <ele>388.2</ele>
        <time>2014-10-26T10:23:41.000Z</time>
      </trkpt>
      <trkpt lat="47.51904" lon="6.70992">
        <ele>393.2</ele>
        <time>2014-10-26T10:23:47.000Z</time>
      </trkpt>
      <trkpt lat="47.51902" lon="6.70992">
        <ele>394.5</ele>
        <time>2014-10-26T10:23:48.000Z</time>
      </trkpt>
      <trkpt lat="47.51899" lon="6.70991">
        <ele>397.6</ele>
        <time>2014-10-26T10:23:52.000Z</time>
      </trkpt>
      <trkpt lat="47.51898" lon="6.70992">
        <ele>399.7</ele>
        <time>2014-10-26T10:23:53.000Z</time>
      </trkpt>
      <trkpt lat="47.51894" lon="6.70995">
        <ele>401.5</ele>
        <time>2014-10-26T10:23:56.000Z</time>
      </trkpt>
      <trkpt lat="47.51893" lon="6.70996">
        <ele>402.2</ele>
        <time>2014-10-26T10:23:57.000Z</time>
      </trkpt>
      <trkpt lat="47.51889" lon="6.70998">
        <ele>402.7</ele>
        <time>2014-10-26T10:24:00.000Z</time>
      </trkpt>
      <trkpt lat="47.51888" lon="6.70999">
        <ele>403.3</ele>
        <time>2014-10-26T10:24:01.000Z</time>
      </trkpt>
      <trkpt lat="47.51885" lon="6.71002">
        <ele>405.5</ele>
        <time>2014-10-26T10:24:03.000Z</time>
      </trkpt>
      <trkpt lat="47.51883" lon="6.71003">
        <ele>406.3</ele>
        <time>2014-10-26T10:24:04.000Z</time>
      </trkpt>
      <trkpt lat="47.51879" lon="6.71005">
        <ele>405.9</ele>
        <time>2014-10-26T10:24:06.000Z</time>
      </trkpt>
      <trkpt lat="47.51877" lon="6.71005">
        <ele>406.2</ele>
        <time>2014-10-26T10:24:07.000Z</time>
      </trkpt>
      <trkpt lat="47.51873" lon="6.71006">
        <ele>406.5</ele>
        <time>2014-10-26T10:24:09.000Z</time>
      </trkpt>
      <trkpt lat="47.51871" lon="6.71007">
        <ele>406</ele>
        <time>2014-10-26T10:24:10.000Z</time>
      </trkpt>
      <trkpt lat="47.51867" lon="6.71009">
        <ele>405.5</ele>
        <time>2014-10-26T10:24:12.000Z</time>
      </trkpt>
      <trkpt lat="47.51865" lon="6.7101">
        <ele>405</ele>
        <time>2014-10-26T10:24:13.000Z</time>
      </trkpt>
      <trkpt lat="47.51862" lon="6.71012">
        <ele>406.4</ele>
        <time>2014-10-26T10:24:15.000Z</time>
      </trkpt>
      <trkpt lat="47.5186" lon="6.71012">
        <ele>407.4</ele>
        <time>2014-10-26T10:24:16.000Z</time>
      </trkpt>
      <trkpt lat="47.51857" lon="6.71013">
        <ele>408.6</ele>
        <time>2014-10-26T10:24:18.000Z</time>
      </trkpt>
      <trkpt lat="47.51856" lon="6.71013">
        <ele>409</ele>
        <time>2014-10-26T10:24:19.000Z</time>
      </trkpt>
      <trkpt lat="47.51853" lon="6.71013">
        <ele>410.5</ele>
        <time>2014-10-26T10:24:21.000Z</time>
      </trkpt>
      <trkpt lat="47.51851" lon="6.71013">
        <ele>410.6</ele>
        <time>2014-10-26T10:24:22.000Z</time>
      </trkpt>
      <trkpt lat="47.51847" lon="6.71014">
        <ele>410.7</ele>
        <time>2014-10-26T10:24:25.000Z</time>
      </trkpt>
      <trkpt lat="47.51846" lon="6.71015">
        <ele>411.4</ele>
        <time>2014-10-26T10:24:26.000Z</time>
      </trkpt>
      <trkpt lat="47.51842" lon="6.71016">
        <ele>414.5</ele>
        <time>2014-10-26T10:24:29.000Z</time>
      </trkpt>
      <trkpt lat="47.5184" lon="6.71016">
        <ele>412.1</ele>
        <time>2014-10-26T10:24:30.000Z</time>
      </trkpt>
      <trkpt lat="47.51838" lon="6.71016">
        <ele>411.6</ele>
        <time>2014-10-26T10:24:31.000Z</time>
      </trkpt>
      <trkpt lat="47.51836" lon="6.71016">
        <ele>412.3</ele>
        <time>2014-10-26T10:24:32.000Z</time>
      </trkpt>
      <trkpt lat="47.51833" lon="6.71017">
        <ele>412.3</ele>
        <time>2014-10-26T10:24:33.000Z</time>
      </trkpt>
      <trkpt lat="47.5182" lon="6.71018">
        <ele>417</ele>
        <time>2014-10-26T10:24:41.000Z</time>
      </trkpt>
      <trkpt lat="47.51816" lon="6.71017">
        <ele>418.3</ele>
        <time>2014-10-26T10:24:44.000Z</time>
      </trkpt>
      <trkpt lat="47.51815" lon="6.71017">
        <ele>419.4</ele>
        <time>2014-10-26T10:24:45.000Z</time>
      </trkpt>
      <trkpt lat="47.51811" lon="6.71017">
        <ele>419.4</ele>
        <time>2014-10-26T10:24:47.000Z</time>
      </trkpt>
      <trkpt lat="47.51809" lon="6.71018">
        <ele>419.1</ele>
        <time>2014-10-26T10:24:48.000Z</time>
      </trkpt>
      <trkpt lat="47.51806" lon="6.71019">
        <ele>420</ele>
        <time>2014-10-26T10:24:50.000Z</time>
      </trkpt>
      <trkpt lat="47.51804" lon="6.71019">
        <ele>420.4</ele>
        <time>2014-10-26T10:24:51.000Z</time>
      </trkpt>
      <trkpt lat="47.518" lon="6.71019">
        <ele>421</ele>
        <time>2014-10-26T10:24:53.000Z</time>
      </trkpt>
      <trkpt lat="47.51798" lon="6.71019">
        <ele>421.5</ele>
        <time>2014-10-26T10:24:54.000Z</time>
      </trkpt>
      <trkpt lat="47.51794" lon="6.71019">
        <ele>420.9</ele>
        <time>2014-10-26T10:24:56.000Z</time>
      </trkpt>
      <trkpt lat="47.51792" lon="6.7102">
        <ele>421.2</ele>
        <time>2014-10-26T10:24:57.000Z</time>
      </trkpt>
      <trkpt lat="47.51788" lon="6.71021">
        <ele>422</ele>
        <time>2014-10-26T10:24:59.000Z</time>
      </trkpt>
      <trkpt lat="47.51786" lon="6.71021">
        <ele>422.3</ele>
        <time>2014-10-26T10:25:00.000Z</time>
      </trkpt>
      <trkpt lat="47.51783" lon="6.71022">
        <ele>422.3</ele>
        <time>2014-10-26T10:25:01.000Z</time>
      </trkpt>
      <trkpt lat="47.51781" lon="6.71022">
        <ele>420.9</ele>
        <time>2014-10-26T10:25:02.000Z</time>
      </trkpt>
      <trkpt lat="47.51778" lon="6.71022">
        <ele>419.3</ele>
        <time>2014-10-26T10:25:03.000Z</time>
      </trkpt>
      <trkpt lat="47.51775" lon="6.71022">
        <ele>419.3</ele>
        <time>2014-10-26T10:25:04.000Z</time>
      </trkpt>
      <trkpt lat="47.51772" lon="6.71023">
        <ele>419.6</ele>
        <time>2014-10-26T10:25:05.000Z</time>
      </trkpt>
      <trkpt lat="47.51769" lon="6.71023">
        <ele>418.6</ele>
        <time>2014-10-26T10:25:06.000Z</time>
      </trkpt>
      <trkpt lat="47.51767" lon="6.71024">
        <ele>418.6</ele>
        <time>2014-10-26T10:25:07.000Z</time>
      </trkpt>
      <trkpt lat="47.51764" lon="6.71024">
        <ele>418.5</ele>
        <time>2014-10-26T10:25:08.000Z</time>
      </trkpt>
      <trkpt lat="47.51761" lon="6.71025">
        <ele>418.6</ele>
        <time>2014-10-26T10:25:09.000Z</time>
      </trkpt>
      <trkpt lat="47.51759" lon="6.71025">
        <ele>419</ele>
        <time>2014-10-26T10:25:10.000Z</time>
      </trkpt>
      <trkpt lat="47.51757" lon="6.71025">
        <ele>419.5</ele>
        <time>2014-10-26T10:25:11.000Z</time>
      </trkpt>
      <trkpt lat="47.51754" lon="6.71025">
        <ele>419.3</ele>
        <time>2014-10-26T10:25:12.000Z</time>
      </trkpt>
      <trkpt lat="47.51752" lon="6.71026">
        <ele>419</ele>
        <time>2014-10-26T10:25:13.000Z</time>
      </trkpt>
      <trkpt lat="47.51749" lon="6.71026">
        <ele>418.4</ele>
        <time>2014-10-26T10:25:14.000Z</time>
      </trkpt>
      <trkpt lat="47.51745" lon="6.71026">
        <ele>420.1</ele>
        <time>2014-10-26T10:25:16.000Z</time>
      </trkpt>
      <trkpt lat="47.51744" lon="6.71025">
        <ele>420.3</ele>
        <time>2014-10-26T10:25:17.000Z</time>
      </trkpt>
      <trkpt lat="47.5174" lon="6.71025">
        <ele>421.7</ele>
        <time>2014-10-26T10:25:19.000Z</time>
      </trkpt>
      <trkpt lat="47.51738" lon="6.71024">
        <ele>422.6</ele>
        <time>2014-10-26T10:25:20.000Z</time>
      </trkpt>
      <trkpt lat="47.51735" lon="6.71023">
        <ele>423.3</ele>
        <time>2014-10-26T10:25:22.000Z</time>
      </trkpt>
      <trkpt lat="47.51733" lon="6.71022">
        <ele>423.5</ele>
        <time>2014-10-26T10:25:23.000Z</time>
      </trkpt>
      <trkpt lat="47.5173" lon="6.71021">
        <ele>425.8</ele>
        <time>2014-10-26T10:25:25.000Z</time>
      </trkpt>
      <trkpt lat="47.51728" lon="6.7102">
        <ele>426.3</ele>
        <time>2014-10-26T10:25:26.000Z</time>
      </trkpt>
      <trkpt lat="47.51725" lon="6.71019">
        <ele>427.8</ele>
        <time>2014-10-26T10:25:28.000Z</time>
      </trkpt>
      <trkpt lat="47.51723" lon="6.71019">
        <ele>428.4</ele>
        <time>2014-10-26T10:25:29.000Z</time>
      </trkpt>
      <trkpt lat="47.51718" lon="6.71018">
        <ele>427.7</ele>
        <time>2014-10-26T10:25:31.000Z</time>
      </trkpt>
      <trkpt lat="47.51715" lon="6.71018">
        <ele>427.2</ele>
        <time>2014-10-26T10:25:32.000Z</time>
      </trkpt>
      <trkpt lat="47.51712" lon="6.71017">
        <ele>427</ele>
        <time>2014-10-26T10:25:33.000Z</time>
      </trkpt>
      <trkpt lat="47.51709" lon="6.71016">
        <ele>426.7</ele>
        <time>2014-10-26T10:25:34.000Z</time>
      </trkpt>
      <trkpt lat="47.51702" lon="6.71014">
        <ele>427.5</ele>
        <time>2014-10-26T10:25:37.000Z</time>
      </trkpt>
      <trkpt lat="47.51699" lon="6.71014">
        <ele>427.6</ele>
        <time>2014-10-26T10:25:38.000Z</time>
      </trkpt>
      <trkpt lat="47.51697" lon="6.71013">
        <ele>428.4</ele>
        <time>2014-10-26T10:25:39.000Z</time>
      </trkpt>
      <trkpt lat="47.51695" lon="6.71013">
        <ele>428.3</ele>
        <time>2014-10-26T10:25:40.000Z</time>
      </trkpt>
      <trkpt lat="47.51693" lon="6.71012">
        <ele>427.9</ele>
        <time>2014-10-26T10:25:41.000Z</time>
      </trkpt>
      <trkpt lat="47.51689" lon="6.71011">
        <ele>430</ele>
        <time>2014-10-26T10:25:43.000Z</time>
      </trkpt>
      <trkpt lat="47.51687" lon="6.7101">
        <ele>430.7</ele>
        <time>2014-10-26T10:25:44.000Z</time>
      </trkpt>
      <trkpt lat="47.51683" lon="6.71008">
        <ele>429.9</ele>
        <time>2014-10-26T10:25:46.000Z</time>
      </trkpt>
      <trkpt lat="47.51681" lon="6.71007">
        <ele>429.6</ele>
        <time>2014-10-26T10:25:47.000Z</time>
      </trkpt>
      <trkpt lat="47.51677" lon="6.71005">
        <ele>431.1</ele>
        <time>2014-10-26T10:25:49.000Z</time>
      </trkpt>
      <trkpt lat="47.51675" lon="6.71003">
        <ele>431.1</ele>
        <time>2014-10-26T10:25:50.000Z</time>
      </trkpt>
      <trkpt lat="47.51671" lon="6.71001">
        <ele>432.4</ele>
        <time>2014-10-26T10:25:52.000Z</time>
      </trkpt>
      <trkpt lat="47.51669" lon="6.71">
        <ele>433.1</ele>
        <time>2014-10-26T10:25:53.000Z</time>
      </trkpt>
      <trkpt lat="47.51665" lon="6.70998">
        <ele>434.1</ele>
        <time>2014-10-26T10:25:55.000Z</time>
      </trkpt>
      <trkpt lat="47.51664" lon="6.70997">
        <ele>435.2</ele>
        <time>2014-10-26T10:25:56.000Z</time>
      </trkpt>
      <trkpt lat="47.5166" lon="6.70995">
        <ele>434.6</ele>
        <time>2014-10-26T10:25:58.000Z</time>
      </trkpt>
      <trkpt lat="47.51658" lon="6.70994">
        <ele>435.3</ele>
        <time>2014-10-26T10:25:59.000Z</time>
      </trkpt>
      <trkpt lat="47.51655" lon="6.70993">
        <ele>435.9</ele>
        <time>2014-10-26T10:26:01.000Z</time>
      </trkpt>
      <trkpt lat="47.51654" lon="6.70992">
        <ele>436.7</ele>
        <time>2014-10-26T10:26:02.000Z</time>
      </trkpt>
      <trkpt lat="47.5165" lon="6.70991">
        <ele>436.3</ele>
        <time>2014-10-26T10:26:04.000Z</time>
      </trkpt>
      <trkpt lat="47.51648" lon="6.7099">
        <ele>436.9</ele>
        <time>2014-10-26T10:26:05.000Z</time>
      </trkpt>
      <trkpt lat="47.51644" lon="6.70989">
        <ele>438.5</ele>
        <time>2014-10-26T10:26:08.000Z</time>
      </trkpt>
      <trkpt lat="47.51642" lon="6.70988">
        <ele>438.9</ele>
        <time>2014-10-26T10:26:09.000Z</time>
      </trkpt>
      <trkpt lat="47.51638" lon="6.70987">
        <ele>436.4</ele>
        <time>2014-10-26T10:26:11.000Z</time>
      </trkpt>
      <trkpt lat="47.51636" lon="6.70987">
        <ele>437.6</ele>
        <time>2014-10-26T10:26:12.000Z</time>
      </trkpt>
      <trkpt lat="47.51632" lon="6.70987">
        <ele>437.6</ele>
        <time>2014-10-26T10:26:14.000Z</time>
      </trkpt>
      <trkpt lat="47.51631" lon="6.70986">
        <ele>439</ele>
        <time>2014-10-26T10:26:15.000Z</time>
      </trkpt>
      <trkpt lat="47.51628" lon="6.70984">
        <ele>439</ele>
        <time>2014-10-26T10:26:17.000Z</time>
      </trkpt>
      <trkpt lat="47.51626" lon="6.70983">
        <ele>437.8</ele>
        <time>2014-10-26T10:26:18.000Z</time>
      </trkpt>
      <trkpt lat="47.51624" lon="6.70983">
        <ele>437.7</ele>
        <time>2014-10-26T10:26:19.000Z</time>
      </trkpt>
      <trkpt lat="47.51622" lon="6.70982">
        <ele>437.9</ele>
        <time>2014-10-26T10:26:20.000Z</time>
      </trkpt>
      <trkpt lat="47.51618" lon="6.70981">
        <ele>440.3</ele>
        <time>2014-10-26T10:26:22.000Z</time>
      </trkpt>
      <trkpt lat="47.51616" lon="6.70981">
        <ele>441</ele>
        <time>2014-10-26T10:26:23.000Z</time>
      </trkpt>
      <trkpt lat="47.51613" lon="6.70979">
        <ele>443.4</ele>
        <time>2014-10-26T10:26:26.000Z</time>
      </trkpt>
      <trkpt lat="47.51612" lon="6.70979">
        <ele>444.1</ele>
        <time>2014-10-26T10:26:27.000Z</time>
      </trkpt>
      <trkpt lat="47.51608" lon="6.70978">
        <ele>445.5</ele>
        <time>2014-10-26T10:26:29.000Z</time>
      </trkpt>
      <trkpt lat="47.51607" lon="6.70977">
        <ele>445.8</ele>
        <time>2014-10-26T10:26:30.000Z</time>
      </trkpt>
      <trkpt lat="47.51603" lon="6.70977">
        <ele>445.9</ele>
        <time>2014-10-26T10:26:33.000Z</time>
      </trkpt>
      <trkpt lat="47.516" lon="6.70976">
        <ele>446.9</ele>
        <time>2014-10-26T10:26:36.000Z</time>
      </trkpt>
      <trkpt lat="47.51598" lon="6.70975">
        <ele>445.5</ele>
        <time>2014-10-26T10:26:38.000Z</time>
      </trkpt>
      <trkpt lat="47.51596" lon="6.70974">
        <ele>445.2</ele>
        <time>2014-10-26T10:26:39.000Z</time>
      </trkpt>
      <trkpt lat="47.51592" lon="6.70972">
        <ele>448.1</ele>
        <time>2014-10-26T10:26:41.000Z</time>
      </trkpt>
      <trkpt lat="47.51591" lon="6.70972">
        <ele>448.3</ele>
        <time>2014-10-26T10:26:42.000Z</time>
      </trkpt>
      <trkpt lat="47.51588" lon="6.70971">
        <ele>447.8</ele>
        <time>2014-10-26T10:26:44.000Z</time>
      </trkpt>
      <trkpt lat="47.51586" lon="6.7097">
        <ele>450.5</ele>
        <time>2014-10-26T10:26:45.000Z</time>
      </trkpt>
      <trkpt lat="47.51583" lon="6.7097">
        <ele>449</ele>
        <time>2014-10-26T10:26:46.000Z</time>
      </trkpt>
      <trkpt lat="47.51581" lon="6.7097">
        <ele>449.4</ele>
        <time>2014-10-26T10:26:47.000Z</time>
      </trkpt>
      <trkpt lat="47.51577" lon="6.70969">
        <ele>451.7</ele>
        <time>2014-10-26T10:26:49.000Z</time>
      </trkpt>
      <trkpt lat="47.51576" lon="6.70968">
        <ele>452.6</ele>
        <time>2014-10-26T10:26:50.000Z</time>
      </trkpt>
      <trkpt lat="47.51572" lon="6.70966">
        <ele>455.8</ele>
        <time>2014-10-26T10:26:53.000Z</time>
      </trkpt>
      <trkpt lat="47.51571" lon="6.70965">
        <ele>456.4</ele>
        <time>2014-10-26T10:26:54.000Z</time>
      </trkpt>
      <trkpt lat="47.51567" lon="6.70963">
        <ele>456.3</ele>
        <time>2014-10-26T10:26:56.000Z</time>
      </trkpt>
      <trkpt lat="47.51566" lon="6.70963">
        <ele>456.2</ele>
        <time>2014-10-26T10:26:57.000Z</time>
      </trkpt>
      <trkpt lat="47.51563" lon="6.70962">
        <ele>458.4</ele>
        <time>2014-10-26T10:26:59.000Z</time>
      </trkpt>
      <trkpt lat="47.5156" lon="6.70961">
        <ele>457.6</ele>
        <time>2014-10-26T10:27:00.000Z</time>
      </trkpt>
      <trkpt lat="47.51556" lon="6.70961">
        <ele>457.3</ele>
        <time>2014-10-26T10:27:03.000Z</time>
      </trkpt>
      <trkpt lat="47.51555" lon="6.70961">
        <ele>457.8</ele>
        <time>2014-10-26T10:27:04.000Z</time>
      </trkpt>
      <trkpt lat="47.51551" lon="6.70959">
        <ele>457.3</ele>
        <time>2014-10-26T10:27:10.000Z</time>
      </trkpt>
      <trkpt lat="47.51551" lon="6.70959">
        <ele>457.4</ele>
        <time>2014-10-26T10:27:11.000Z</time>
      </trkpt>
      <trkpt lat="47.51546" lon="6.70958">
        <ele>459</ele>
        <time>2014-10-26T10:27:14.000Z</time>
      </trkpt>
      <trkpt lat="47.51544" lon="6.70957">
        <ele>459.5</ele>
        <time>2014-10-26T10:27:15.000Z</time>
      </trkpt>
      <trkpt lat="47.51541" lon="6.70957">
        <ele>460.2</ele>
        <time>2014-10-26T10:27:16.000Z</time>
      </trkpt>
      <trkpt lat="47.51539" lon="6.70957">
        <ele>461.1</ele>
        <time>2014-10-26T10:27:17.000Z</time>
      </trkpt>
      <trkpt lat="47.51536" lon="6.70957">
        <ele>462.2</ele>
        <time>2014-10-26T10:27:18.000Z</time>
      </trkpt>
      <trkpt lat="47.51533" lon="6.70956">
        <ele>461.1</ele>
        <time>2014-10-26T10:27:19.000Z</time>
      </trkpt>
      <trkpt lat="47.51531" lon="6.70956">
        <ele>459.8</ele>
        <time>2014-10-26T10:27:20.000Z</time>
      </trkpt>
      <trkpt lat="47.51527" lon="6.70955">
        <ele>459.4</ele>
        <time>2014-10-26T10:27:21.000Z</time>
      </trkpt>
      <trkpt lat="47.51524" lon="6.70954">
        <ele>460.5</ele>
        <time>2014-10-26T10:27:22.000Z</time>
      </trkpt>
      <trkpt lat="47.51521" lon="6.70953">
        <ele>460.6</ele>
        <time>2014-10-26T10:27:23.000Z</time>
      </trkpt>
      <trkpt lat="47.51518" lon="6.70952">
        <ele>460.7</ele>
        <time>2014-10-26T10:27:24.000Z</time>
      </trkpt>
      <trkpt lat="47.51516" lon="6.70951">
        <ele>461.6</ele>
        <time>2014-10-26T10:27:25.000Z</time>
      </trkpt>
      <trkpt lat="47.51512" lon="6.7095">
        <ele>462.3</ele>
        <time>2014-10-26T10:27:27.000Z</time>
      </trkpt>
      <trkpt lat="47.5151" lon="6.70949">
        <ele>463.6</ele>
        <time>2014-10-26T10:27:28.000Z</time>
      </trkpt>
      <trkpt lat="47.51508" lon="6.70948">
        <ele>464.5</ele>
        <time>2014-10-26T10:27:29.000Z</time>
      </trkpt>
      <trkpt lat="47.51505" lon="6.70948">
        <ele>462.8</ele>
        <time>2014-10-26T10:27:30.000Z</time>
      </trkpt>
      <trkpt lat="47.51502" lon="6.70948">
        <ele>463.6</ele>
        <time>2014-10-26T10:27:31.000Z</time>
      </trkpt>
      <trkpt lat="47.515" lon="6.70948">
        <ele>463.2</ele>
        <time>2014-10-26T10:27:32.000Z</time>
      </trkpt>
      <trkpt lat="47.51497" lon="6.70948">
        <ele>462.7</ele>
        <time>2014-10-26T10:27:33.000Z</time>
      </trkpt>
      <trkpt lat="47.51495" lon="6.70948">
        <ele>461.8</ele>
        <time>2014-10-26T10:27:34.000Z</time>
      </trkpt>
      <trkpt lat="47.51483" lon="6.70944">
        <ele>415.2</ele>
        <time>2014-10-26T10:27:42.000Z</time>
      </trkpt>
      <trkpt lat="47.5148" lon="6.70944">
        <ele>415.9</ele>
        <time>2014-10-26T10:27:43.000Z</time>
      </trkpt>
      <trkpt lat="47.51475" lon="6.70943">
        <ele>416.9</ele>
        <time>2014-10-26T10:27:44.000Z</time>
      </trkpt>
      <trkpt lat="47.5147" lon="6.70942">
        <ele>419.4</ele>
        <time>2014-10-26T10:27:45.000Z</time>
      </trkpt>
      <trkpt lat="47.51465" lon="6.70941">
        <ele>420.9</ele>
        <time>2014-10-26T10:27:46.000Z</time>
      </trkpt>
      <trkpt lat="47.51461" lon="6.7094">
        <ele>422.6</ele>
        <time>2014-10-26T10:27:47.000Z</time>
      </trkpt>
      <trkpt lat="47.51457" lon="6.7094">
        <ele>423.5</ele>
        <time>2014-10-26T10:27:48.000Z</time>
      </trkpt>
      <trkpt lat="47.51452" lon="6.70939">
        <ele>425</ele>
        <time>2014-10-26T10:27:49.000Z</time>
      </trkpt>
      <trkpt lat="47.51448" lon="6.70939">
        <ele>426.5</ele>
        <time>2014-10-26T10:27:50.000Z</time>
      </trkpt>
      <trkpt lat="47.51445" lon="6.70938">
        <ele>428</ele>
        <time>2014-10-26T10:27:51.000Z</time>
      </trkpt>
      <trkpt lat="47.51442" lon="6.70937">
        <ele>429.1</ele>
        <time>2014-10-26T10:27:52.000Z</time>
      </trkpt>
      <trkpt lat="47.51439" lon="6.70936">
        <ele>429.8</ele>
        <time>2014-10-26T10:27:53.000Z</time>
      </trkpt>
      <trkpt lat="47.51436" lon="6.70935">
        <ele>435.1</ele>
        <time>2014-10-26T10:27:55.000Z</time>
      </trkpt>
      <trkpt lat="47.51434" lon="6.70933">
        <ele>437.1</ele>
        <time>2014-10-26T10:27:56.000Z</time>
      </trkpt>
      <trkpt lat="47.51431" lon="6.70931">
        <ele>439.8</ele>
        <time>2014-10-26T10:27:58.000Z</time>
      </trkpt>
      <trkpt lat="47.51429" lon="6.7093">
        <ele>441.7</ele>
        <time>2014-10-26T10:27:59.000Z</time>
      </trkpt>
      <trkpt lat="47.51426" lon="6.70929">
        <ele>445.9</ele>
        <time>2014-10-26T10:28:01.000Z</time>
      </trkpt>
      <trkpt lat="47.51424" lon="6.70928">
        <ele>447.1</ele>
        <time>2014-10-26T10:28:02.000Z</time>
      </trkpt>
      <trkpt lat="47.51421" lon="6.70926">
        <ele>447.9</ele>
        <time>2014-10-26T10:28:03.000Z</time>
      </trkpt>
      <trkpt lat="47.51418" lon="6.70925">
        <ele>447.9</ele>
        <time>2014-10-26T10:28:04.000Z</time>
      </trkpt>
      <trkpt lat="47.51414" lon="6.70923">
        <ele>448</ele>
        <time>2014-10-26T10:28:05.000Z</time>
      </trkpt>
      <trkpt lat="47.51411" lon="6.70922">
        <ele>448.9</ele>
        <time>2014-10-26T10:28:06.000Z</time>
      </trkpt>
      <trkpt lat="47.51408" lon="6.70922">
        <ele>449.3</ele>
        <time>2014-10-26T10:28:07.000Z</time>
      </trkpt>
      <trkpt lat="47.51406" lon="6.70921">
        <ele>450.1</ele>
        <time>2014-10-26T10:28:08.000Z</time>
      </trkpt>
      <trkpt lat="47.51402" lon="6.7092">
        <ele>450.6</ele>
        <time>2014-10-26T10:28:10.000Z</time>
      </trkpt>
      <trkpt lat="47.514" lon="6.70919">
        <ele>451.8</ele>
        <time>2014-10-26T10:28:11.000Z</time>
      </trkpt>
      <trkpt lat="47.51396" lon="6.70918">
        <ele>453.6</ele>
        <time>2014-10-26T10:28:13.000Z</time>
      </trkpt>
      <trkpt lat="47.51394" lon="6.70917">
        <ele>454.1</ele>
        <time>2014-10-26T10:28:14.000Z</time>
      </trkpt>
      <trkpt lat="47.51391" lon="6.70916">
        <ele>454.2</ele>
        <time>2014-10-26T10:28:15.000Z</time>
      </trkpt>
      <trkpt lat="47.51388" lon="6.70915">
        <ele>453.9</ele>
        <time>2014-10-26T10:28:16.000Z</time>
      </trkpt>
      <trkpt lat="47.51386" lon="6.70914">
        <ele>453.4</ele>
        <time>2014-10-26T10:28:17.000Z</time>
      </trkpt>
      <trkpt lat="47.51383" lon="6.70913">
        <ele>453</ele>
        <time>2014-10-26T10:28:18.000Z</time>
      </trkpt>
      <trkpt lat="47.5138" lon="6.70912">
        <ele>454.9</ele>
        <time>2014-10-26T10:28:20.000Z</time>
      </trkpt>
      <trkpt lat="47.51379" lon="6.70911">
        <ele>455.3</ele>
        <time>2014-10-26T10:28:21.000Z</time>
      </trkpt>
      <trkpt lat="47.51374" lon="6.7091">
        <ele>458.3</ele>
        <time>2014-10-26T10:28:24.000Z</time>
      </trkpt>
      <trkpt lat="47.51373" lon="6.70909">
        <ele>458.9</ele>
        <time>2014-10-26T10:28:25.000Z</time>
      </trkpt>
      <trkpt lat="47.5137" lon="6.70908">
        <ele>460</ele>
        <time>2014-10-26T10:28:27.000Z</time>
      </trkpt>
      <trkpt lat="47.51368" lon="6.70907">
        <ele>460</ele>
        <time>2014-10-26T10:28:28.000Z</time>
      </trkpt>
      <trkpt lat="47.51364" lon="6.70906">
        <ele>460.7</ele>
        <time>2014-10-26T10:28:30.000Z</time>
      </trkpt>
      <trkpt lat="47.51362" lon="6.70906">
        <ele>461.8</ele>
        <time>2014-10-26T10:28:31.000Z</time>
      </trkpt>
      <trkpt lat="47.51359" lon="6.70906">
        <ele>461.7</ele>
        <time>2014-10-26T10:28:33.000Z</time>
      </trkpt>
      <trkpt lat="47.51355" lon="6.70906">
        <ele>457.5</ele>
        <time>2014-10-26T10:28:36.000Z</time>
      </trkpt>
      <trkpt lat="47.51351" lon="6.70906">
        <ele>458.6</ele>
        <time>2014-10-26T10:28:39.000Z</time>
      </trkpt>
      <trkpt lat="47.5135" lon="6.70906">
        <ele>458.6</ele>
        <time>2014-10-26T10:28:40.000Z</time>
      </trkpt>
      <trkpt lat="47.51346" lon="6.70907">
        <ele>458.5</ele>
        <time>2014-10-26T10:28:42.000Z</time>
      </trkpt>
      <trkpt lat="47.51344" lon="6.70907">
        <ele>458.9</ele>
        <time>2014-10-26T10:28:43.000Z</time>
      </trkpt>
      <trkpt lat="47.51341" lon="6.70905">
        <ele>458.3</ele>
        <time>2014-10-26T10:28:44.000Z</time>
      </trkpt>
      <trkpt lat="47.51339" lon="6.70904">
        <ele>458</ele>
        <time>2014-10-26T10:28:45.000Z</time>
      </trkpt>
      <trkpt lat="47.51336" lon="6.70904">
        <ele>457.5</ele>
        <time>2014-10-26T10:28:47.000Z</time>
      </trkpt>
      <trkpt lat="47.51334" lon="6.70904">
        <ele>456.6</ele>
        <time>2014-10-26T10:28:48.000Z</time>
      </trkpt>
      <trkpt lat="47.51331" lon="6.70903">
        <ele>457</ele>
        <time>2014-10-26T10:28:49.000Z</time>
      </trkpt>
      <trkpt lat="47.51328" lon="6.70904">
        <ele>456.2</ele>
        <time>2014-10-26T10:28:50.000Z</time>
      </trkpt>
      <trkpt lat="47.51324" lon="6.70905">
        <ele>456.6</ele>
        <time>2014-10-26T10:28:52.000Z</time>
      </trkpt>
      <trkpt lat="47.51323" lon="6.70905">
        <ele>456.5</ele>
        <time>2014-10-26T10:28:53.000Z</time>
      </trkpt>
      <trkpt lat="47.5132" lon="6.70906">
        <ele>456.1</ele>
        <time>2014-10-26T10:28:54.000Z</time>
      </trkpt>
      <trkpt lat="47.51318" lon="6.70906">
        <ele>455.7</ele>
        <time>2014-10-26T10:28:55.000Z</time>
      </trkpt>
      <trkpt lat="47.51315" lon="6.70906">
        <ele>455.9</ele>
        <time>2014-10-26T10:28:56.000Z</time>
      </trkpt>
      <trkpt lat="47.51313" lon="6.70907">
        <ele>456.4</ele>
        <time>2014-10-26T10:28:57.000Z</time>
      </trkpt>
      <trkpt lat="47.51309" lon="6.70908">
        <ele>457.2</ele>
        <time>2014-10-26T10:29:00.000Z</time>
      </trkpt>
      <trkpt lat="47.51306" lon="6.70907">
        <ele>456.6</ele>
        <time>2014-10-26T10:29:01.000Z</time>
      </trkpt>
      <trkpt lat="47.51302" lon="6.7091">
        <ele>457.5</ele>
        <time>2014-10-26T10:29:06.000Z</time>
      </trkpt>
      <trkpt lat="47.51302" lon="6.7091">
        <ele>457.2</ele>
        <time>2014-10-26T10:29:07.000Z</time>
      </trkpt>
      <trkpt lat="47.51299" lon="6.70915">
        <ele>456.5</ele>
        <time>2014-10-26T10:29:11.000Z</time>
      </trkpt>
      <trkpt lat="47.51298" lon="6.70916">
        <ele>456.6</ele>
        <time>2014-10-26T10:29:12.000Z</time>
      </trkpt>
      <trkpt lat="47.51294" lon="6.7092">
        <ele>453.2</ele>
        <time>2014-10-26T10:29:18.000Z</time>
      </trkpt>
      <trkpt lat="47.51294" lon="6.70921">
        <ele>451.6</ele>
        <time>2014-10-26T10:29:19.000Z</time>
      </trkpt>
      <trkpt lat="47.51291" lon="6.70926">
        <ele>452.3</ele>
        <time>2014-10-26T10:29:41.000Z</time>
      </trkpt>
      <trkpt lat="47.51291" lon="6.70926">
        <ele>452.3</ele>
        <time>2014-10-26T10:29:42.000Z</time>
      </trkpt>
      <trkpt lat="47.51295" lon="6.70925">
        <ele>454.6</ele>
        <time>2014-10-26T10:32:10.000Z</time>
      </trkpt>
      <trkpt lat="47.51296" lon="6.70925">
        <ele>454.7</ele>
        <time>2014-10-26T10:32:11.000Z</time>
      </trkpt>
      <trkpt lat="47.51293" lon="6.7093">
        <ele>458.3</ele>
        <time>2014-10-26T10:32:42.000Z</time>
      </trkpt>
      <trkpt lat="47.51292" lon="6.70932">
        <ele>459</ele>
        <time>2014-10-26T10:32:43.000Z</time>
      </trkpt>
      <trkpt lat="47.51291" lon="6.70935">
        <ele>457.3</ele>
        <time>2014-10-26T10:32:44.000Z</time>
      </trkpt>
      <trkpt lat="47.51289" lon="6.70938">
        <ele>457.1</ele>
        <time>2014-10-26T10:32:45.000Z</time>
      </trkpt>
      <trkpt lat="47.51288" lon="6.7094">
        <ele>457.2</ele>
        <time>2014-10-26T10:32:46.000Z</time>
      </trkpt>
      <trkpt lat="47.51286" lon="6.70943">
        <ele>457</ele>
        <time>2014-10-26T10:32:47.000Z</time>
      </trkpt>
      <trkpt lat="47.51284" lon="6.70947">
        <ele>457.5</ele>
        <time>2014-10-26T10:32:49.000Z</time>
      </trkpt>
      <trkpt lat="47.51283" lon="6.70949">
        <ele>458.3</ele>
        <time>2014-10-26T10:32:50.000Z</time>
      </trkpt>
      <trkpt lat="47.5128" lon="6.70953">
        <ele>466.4</ele>
        <time>2014-10-26T10:33:00.000Z</time>
      </trkpt>
      <trkpt lat="47.51279" lon="6.70954">
        <ele>467.3</ele>
        <time>2014-10-26T10:33:01.000Z</time>
      </trkpt>
      <trkpt lat="47.51275" lon="6.70957">
        <ele>468.1</ele>
        <time>2014-10-26T10:33:11.000Z</time>
      </trkpt>
      <trkpt lat="47.51275" lon="6.70957">
        <ele>468</ele>
        <time>2014-10-26T10:33:12.000Z</time>
      </trkpt>
      <trkpt lat="47.51271" lon="6.70959">
        <ele>462.7</ele>
        <time>2014-10-26T10:34:27.000Z</time>
      </trkpt>
      <trkpt lat="47.5127" lon="6.70959">
        <ele>462.5</ele>
        <time>2014-10-26T10:34:28.000Z</time>
      </trkpt>
      <trkpt lat="47.51267" lon="6.70961">
        <ele>444.8</ele>
        <time>2014-10-26T10:35:21.000Z</time>
      </trkpt>
      <trkpt lat="47.51265" lon="6.70961">
        <ele>444.5</ele>
        <time>2014-10-26T10:35:22.000Z</time>
      </trkpt>
      <trkpt lat="47.51263" lon="6.70961">
        <ele>444.4</ele>
        <time>2014-10-26T10:35:23.000Z</time>
      </trkpt>
      <trkpt lat="47.5126" lon="6.70961">
        <ele>443.9</ele>
        <time>2014-10-26T10:35:24.000Z</time>
      </trkpt>
      <trkpt lat="47.51257" lon="6.7096">
        <ele>442.2</ele>
        <time>2014-10-26T10:35:26.000Z</time>
      </trkpt>
      <trkpt lat="47.51256" lon="6.7096">
        <ele>442.4</ele>
        <time>2014-10-26T10:35:27.000Z</time>
      </trkpt>
      <trkpt lat="47.51256" lon="6.70966">
        <ele>457.8</ele>
        <time>2014-10-26T10:36:25.000Z</time>
      </trkpt>
      <trkpt lat="47.51256" lon="6.70968">
        <ele>458.6</ele>
        <time>2014-10-26T10:36:26.000Z</time>
      </trkpt>
      <trkpt lat="47.51256" lon="6.70973">
        <ele>462.7</ele>
        <time>2014-10-26T10:36:29.000Z</time>
      </trkpt>
      <trkpt lat="47.51256" lon="6.70975">
        <ele>464.1</ele>
        <time>2014-10-26T10:36:30.000Z</time>
      </trkpt>
      <trkpt lat="47.51256" lon="6.7098">
        <ele>469.7</ele>
        <time>2014-10-26T10:36:33.000Z</time>
      </trkpt>
      <trkpt lat="47.51253" lon="6.71">
        <ele>456.3</ele>
        <time>2014-10-26T10:36:41.000Z</time>
      </trkpt>
      <trkpt lat="47.51253" lon="6.71004">
        <ele>455.7</ele>
        <time>2014-10-26T10:36:42.000Z</time>
      </trkpt>
      <trkpt lat="47.51253" lon="6.71008">
        <ele>456.2</ele>
        <time>2014-10-26T10:36:43.000Z</time>
      </trkpt>
      <trkpt lat="47.51254" lon="6.71012">
        <ele>456.2</ele>
        <time>2014-10-26T10:36:44.000Z</time>
      </trkpt>
      <trkpt lat="47.51255" lon="6.71016">
        <ele>456.8</ele>
        <time>2014-10-26T10:36:45.000Z</time>
      </trkpt>
      <trkpt lat="47.51255" lon="6.7102">
        <ele>459.3</ele>
        <time>2014-10-26T10:36:46.000Z</time>
      </trkpt>
      <trkpt lat="47.51255" lon="6.71025">
        <ele>460.7</ele>
        <time>2014-10-26T10:36:47.000Z</time>
      </trkpt>
      <trkpt lat="47.51256" lon="6.7103">
        <ele>461.2</ele>
        <time>2014-10-26T10:36:48.000Z</time>
      </trkpt>
      <trkpt lat="47.51256" lon="6.71037">
        <ele>459.6</ele>
        <time>2014-10-26T10:36:49.000Z</time>
      </trkpt>
      <trkpt lat="47.51256" lon="6.71044">
        <ele>458.6</ele>
        <time>2014-10-26T10:36:50.000Z</time>
      </trkpt>
      <trkpt lat="47.51256" lon="6.7105">
        <ele>458.5</ele>
        <time>2014-10-26T10:36:51.000Z</time>
      </trkpt>
      <trkpt lat="47.51256" lon="6.71057">
        <ele>459.4</ele>
        <time>2014-10-26T10:36:52.000Z</time>
      </trkpt>
      <trkpt lat="47.51256" lon="6.71063">
        <ele>467</ele>
        <time>2014-10-26T10:36:53.000Z</time>
      </trkpt>
      <trkpt lat="47.51255" lon="6.7107">
        <ele>468.4</ele>
        <time>2014-10-26T10:36:54.000Z</time>
      </trkpt>
      <trkpt lat="47.51254" lon="6.71076">
        <ele>469.4</ele>
        <time>2014-10-26T10:36:55.000Z</time>
      </trkpt>
      <trkpt lat="47.51254" lon="6.71082">
        <ele>471</ele>
        <time>2014-10-26T10:36:56.000Z</time>
      </trkpt>
      <trkpt lat="47.51254" lon="6.71088">
        <ele>471.6</ele>
        <time>2014-10-26T10:36:57.000Z</time>
      </trkpt>
      <trkpt lat="47.51254" lon="6.71094">
        <ele>471.1</ele>
        <time>2014-10-26T10:36:58.000Z</time>
      </trkpt>
      <trkpt lat="47.51253" lon="6.711">
        <ele>471</ele>
        <time>2014-10-26T10:36:59.000Z</time>
      </trkpt>
      <trkpt lat="47.51253" lon="6.71106">
        <ele>471.2</ele>
        <time>2014-10-26T10:37:00.000Z</time>
      </trkpt>
      <trkpt lat="47.51254" lon="6.71112">
        <ele>471</ele>
        <time>2014-10-26T10:37:01.000Z</time>
      </trkpt>
      <trkpt lat="47.51254" lon="6.71116">
        <ele>472</ele>
        <time>2014-10-26T10:37:02.000Z</time>
      </trkpt>
      <trkpt lat="47.51251" lon="6.71139">
        <ele>471.8</ele>
        <time>2014-10-26T10:37:03.000Z</time>
      </trkpt>
      <trkpt lat="47.51249" lon="6.71149">
        <ele>471.8</ele>
        <time>2014-10-26T10:37:04.000Z</time>
      </trkpt>
      <trkpt lat="47.51249" lon="6.71156">
        <ele>474.4</ele>
        <time>2014-10-26T10:37:05.000Z</time>
      </trkpt>
      <trkpt lat="47.51247" lon="6.71163">
        <ele>476.4</ele>
        <time>2014-10-26T10:37:06.000Z</time>
      </trkpt>
      <trkpt lat="47.51247" lon="6.71168">
        <ele>477</ele>
        <time>2014-10-26T10:37:07.000Z</time>
      </trkpt>
      <trkpt lat="47.51246" lon="6.71173">
        <ele>477.4</ele>
        <time>2014-10-26T10:37:08.000Z</time>
      </trkpt>
      <trkpt lat="47.51246" lon="6.71184">
        <ele>474.8</ele>
        <time>2014-10-26T10:37:09.000Z</time>
      </trkpt>
      <trkpt lat="47.51246" lon="6.71191">
        <ele>474.3</ele>
        <time>2014-10-26T10:37:10.000Z</time>
      </trkpt>
      <trkpt lat="47.51247" lon="6.71197">
        <ele>473.4</ele>
        <time>2014-10-26T10:37:11.000Z</time>
      </trkpt>
      <trkpt lat="47.51245" lon="6.71201">
        <ele>473.1</ele>
        <time>2014-10-26T10:37:12.000Z</time>
      </trkpt>
      <trkpt lat="47.51244" lon="6.71205">
        <ele>474</ele>
        <time>2014-10-26T10:37:13.000Z</time>
      </trkpt>
      <trkpt lat="47.51242" lon="6.7121">
        <ele>474.5</ele>
        <time>2014-10-26T10:37:14.000Z</time>
      </trkpt>
      <trkpt lat="47.51241" lon="6.71214">
        <ele>475.1</ele>
        <time>2014-10-26T10:37:15.000Z</time>
      </trkpt>
      <trkpt lat="47.5124" lon="6.71218">
        <ele>475.9</ele>
        <time>2014-10-26T10:37:16.000Z</time>
      </trkpt>
      <trkpt lat="47.51239" lon="6.71224">
        <ele>476.6</ele>
        <time>2014-10-26T10:37:17.000Z</time>
      </trkpt>
      <trkpt lat="47.51238" lon="6.7123">
        <ele>478.1</ele>
        <time>2014-10-26T10:37:18.000Z</time>
      </trkpt>
      <trkpt lat="47.51238" lon="6.71236">
        <ele>478.8</ele>
        <time>2014-10-26T10:37:19.000Z</time>
      </trkpt>
      <trkpt lat="47.51237" lon="6.71242">
        <ele>479.9</ele>
        <time>2014-10-26T10:37:20.000Z</time>
      </trkpt>
      <trkpt lat="47.51235" lon="6.71249">
        <ele>480.4</ele>
        <time>2014-10-26T10:37:21.000Z</time>
      </trkpt>
      <trkpt lat="47.51233" lon="6.71256">
        <ele>480.9</ele>
        <time>2014-10-26T10:37:22.000Z</time>
      </trkpt>
      <trkpt lat="47.51231" lon="6.71262">
        <ele>481.2</ele>
        <time>2014-10-26T10:37:23.000Z</time>
      </trkpt>
      <trkpt lat="47.51229" lon="6.71268">
        <ele>481.4</ele>
        <time>2014-10-26T10:37:24.000Z</time>
      </trkpt>
      <trkpt lat="47.51227" lon="6.71274">
        <ele>481.8</ele>
        <time>2014-10-26T10:37:25.000Z</time>
      </trkpt>
      <trkpt lat="47.51225" lon="6.7128">
        <ele>482.1</ele>
        <time>2014-10-26T10:37:26.000Z</time>
      </trkpt>
      <trkpt lat="47.51224" lon="6.71286">
        <ele>482.5</ele>
        <time>2014-10-26T10:37:27.000Z</time>
      </trkpt>
      <trkpt lat="47.51223" lon="6.71292">
        <ele>483.6</ele>
        <time>2014-10-26T10:37:28.000Z</time>
      </trkpt>
      <trkpt lat="47.51221" lon="6.71298">
        <ele>484.9</ele>
        <time>2014-10-26T10:37:29.000Z</time>
      </trkpt>
      <trkpt lat="47.5122" lon="6.71305">
        <ele>486.8</ele>
        <time>2014-10-26T10:37:30.000Z</time>
      </trkpt>
      <trkpt lat="47.5122" lon="6.71312">
        <ele>492.6</ele>
        <time>2014-10-26T10:37:31.000Z</time>
      </trkpt>
      <trkpt lat="47.5122" lon="6.7132">
        <ele>493.9</ele>
        <time>2014-10-26T10:37:32.000Z</time>
      </trkpt>
      <trkpt lat="47.51219" lon="6.71327">
        <ele>494.5</ele>
        <time>2014-10-26T10:37:33.000Z</time>
      </trkpt>
      <trkpt lat="47.51217" lon="6.7134">
        <ele>451.1</ele>
        <time>2014-10-26T10:37:36.000Z</time>
      </trkpt>
      <trkpt lat="47.51216" lon="6.71348">
        <ele>453.7</ele>
        <time>2014-10-26T10:37:37.000Z</time>
      </trkpt>
      <trkpt lat="47.51215" lon="6.71355">
        <ele>454.6</ele>
        <time>2014-10-26T10:37:38.000Z</time>
      </trkpt>
      <trkpt lat="47.51214" lon="6.71363">
        <ele>455.6</ele>
        <time>2014-10-26T10:37:39.000Z</time>
      </trkpt>
      <trkpt lat="47.51214" lon="6.71394">
        <ele>457.8</ele>
        <time>2014-10-26T10:37:40.000Z</time>
      </trkpt>
      <trkpt lat="47.51214" lon="6.71399">
        <ele>459.2</ele>
        <time>2014-10-26T10:37:41.000Z</time>
      </trkpt>
      <trkpt lat="47.51214" lon="6.71406">
        <ele>460.3</ele>
        <time>2014-10-26T10:37:42.000Z</time>
      </trkpt>
      <trkpt lat="47.51215" lon="6.71413">
        <ele>461.3</ele>
        <time>2014-10-26T10:37:43.000Z</time>
      </trkpt>
      <trkpt lat="47.51215" lon="6.71419">
        <ele>461.9</ele>
        <time>2014-10-26T10:37:44.000Z</time>
      </trkpt>
      <trkpt lat="47.51214" lon="6.71426">
        <ele>461.7</ele>
        <time>2014-10-26T10:37:45.000Z</time>
      </trkpt>
      <trkpt lat="47.51214" lon="6.71433">
        <ele>462.5</ele>
        <time>2014-10-26T10:37:46.000Z</time>
      </trkpt>
      <trkpt lat="47.51214" lon="6.71439">
        <ele>462.4</ele>
        <time>2014-10-26T10:37:47.000Z</time>
      </trkpt>
      <trkpt lat="47.51214" lon="6.71445">
        <ele>463.4</ele>
        <time>2014-10-26T10:37:48.000Z</time>
      </trkpt>
      <trkpt lat="47.51213" lon="6.71452">
        <ele>464.7</ele>
        <time>2014-10-26T10:37:49.000Z</time>
      </trkpt>
      <trkpt lat="47.51212" lon="6.71458">
        <ele>466.1</ele>
        <time>2014-10-26T10:37:50.000Z</time>
      </trkpt>
      <trkpt lat="47.51212" lon="6.71464">
        <ele>467.8</ele>
        <time>2014-10-26T10:37:51.000Z</time>
      </trkpt>
      <trkpt lat="47.51211" lon="6.71471">
        <ele>470.3</ele>
        <time>2014-10-26T10:37:52.000Z</time>
      </trkpt>
      <trkpt lat="47.5121" lon="6.71477">
        <ele>470.6</ele>
        <time>2014-10-26T10:37:53.000Z</time>
      </trkpt>
      <trkpt lat="47.51209" lon="6.71483">
        <ele>476.6</ele>
        <time>2014-10-26T10:37:54.000Z</time>
      </trkpt>
      <trkpt lat="47.51209" lon="6.71491">
        <ele>476.3</ele>
        <time>2014-10-26T10:37:55.000Z</time>
      </trkpt>
      <trkpt lat="47.51208" lon="6.71498">
        <ele>477.6</ele>
        <time>2014-10-26T10:37:56.000Z</time>
      </trkpt>
      <trkpt lat="47.51208" lon="6.71504">
        <ele>481.3</ele>
        <time>2014-10-26T10:37:57.000Z</time>
      </trkpt>
      <trkpt lat="47.51208" lon="6.71511">
        <ele>481.8</ele>
        <time>2014-10-26T10:37:58.000Z</time>
      </trkpt>
      <trkpt lat="47.51208" lon="6.71517">
        <ele>482.1</ele>
        <time>2014-10-26T10:37:59.000Z</time>
      </trkpt>
      <trkpt lat="47.51207" lon="6.71522">
        <ele>481.1</ele>
        <time>2014-10-26T10:38:00.000Z</time>
      </trkpt>
      <trkpt lat="47.51205" lon="6.71528">
        <ele>482.1</ele>
        <time>2014-10-26T10:38:01.000Z</time>
      </trkpt>
      <trkpt lat="47.51203" lon="6.71533">
        <ele>482.6</ele>
        <time>2014-10-26T10:38:02.000Z</time>
      </trkpt>
      <trkpt lat="47.51202" lon="6.71538">
        <ele>483.9</ele>
        <time>2014-10-26T10:38:03.000Z</time>
      </trkpt>
      <trkpt lat="47.512" lon="6.71543">
        <ele>484.3</ele>
        <time>2014-10-26T10:38:04.000Z</time>
      </trkpt>
      <trkpt lat="47.512" lon="6.71548">
        <ele>484.7</ele>
        <time>2014-10-26T10:38:05.000Z</time>
      </trkpt>
      <trkpt lat="47.51199" lon="6.71553">
        <ele>485.2</ele>
        <time>2014-10-26T10:38:06.000Z</time>
      </trkpt>
      <trkpt lat="47.51199" lon="6.71557">
        <ele>485</ele>
        <time>2014-10-26T10:38:07.000Z</time>
      </trkpt>
      <trkpt lat="47.51198" lon="6.71564">
        <ele>489.8</ele>
        <time>2014-10-26T10:38:08.000Z</time>
      </trkpt>
      <trkpt lat="47.51199" lon="6.71571">
        <ele>489.4</ele>
        <time>2014-10-26T10:38:09.000Z</time>
      </trkpt>
      <trkpt lat="47.51199" lon="6.71579">
        <ele>488.8</ele>
        <time>2014-10-26T10:38:10.000Z</time>
      </trkpt>
      <trkpt lat="47.51198" lon="6.71586">
        <ele>490.1</ele>
        <time>2014-10-26T10:38:11.000Z</time>
      </trkpt>
      <trkpt lat="47.51198" lon="6.71592">
        <ele>490.5</ele>
        <time>2014-10-26T10:38:12.000Z</time>
      </trkpt>
      <trkpt lat="47.51198" lon="6.71597">
        <ele>490.4</ele>
        <time>2014-10-26T10:38:13.000Z</time>
      </trkpt>
      <trkpt lat="47.51199" lon="6.71601">
        <ele>491.4</ele>
        <time>2014-10-26T10:38:14.000Z</time>
      </trkpt>
      <trkpt lat="47.51199" lon="6.71606">
        <ele>493.4</ele>
        <time>2014-10-26T10:38:15.000Z</time>
      </trkpt>
      <trkpt lat="47.51199" lon="6.71611">
        <ele>494.4</ele>
        <time>2014-10-26T10:38:16.000Z</time>
      </trkpt>
      <trkpt lat="47.51199" lon="6.71617">
        <ele>493.9</ele>
        <time>2014-10-26T10:38:17.000Z</time>
      </trkpt>
      <trkpt lat="47.51198" lon="6.71622">
        <ele>494.6</ele>
        <time>2014-10-26T10:38:18.000Z</time>
      </trkpt>
      <trkpt lat="47.51197" lon="6.71626">
        <ele>494.7</ele>
        <time>2014-10-26T10:38:19.000Z</time>
      </trkpt>
      <trkpt lat="47.51196" lon="6.7163">
        <ele>495.3</ele>
        <time>2014-10-26T10:38:20.000Z</time>
      </trkpt>
      <trkpt lat="47.51195" lon="6.71634">
        <ele>494.7</ele>
        <time>2014-10-26T10:38:21.000Z</time>
      </trkpt>
      <trkpt lat="47.51195" lon="6.71638">
        <ele>501.4</ele>
        <time>2014-10-26T10:38:22.000Z</time>
      </trkpt>
      <trkpt lat="47.51194" lon="6.71643">
        <ele>501.2</ele>
        <time>2014-10-26T10:38:23.000Z</time>
      </trkpt>
      <trkpt lat="47.51193" lon="6.71649">
        <ele>500</ele>
        <time>2014-10-26T10:38:24.000Z</time>
      </trkpt>
      <trkpt lat="47.51191" lon="6.71654">
        <ele>500.5</ele>
        <time>2014-10-26T10:38:25.000Z</time>
      </trkpt>
      <trkpt lat="47.51191" lon="6.71659">
        <ele>502.9</ele>
        <time>2014-10-26T10:38:26.000Z</time>
      </trkpt>
      <trkpt lat="47.51191" lon="6.71664">
        <ele>504</ele>
        <time>2014-10-26T10:38:27.000Z</time>
      </trkpt>
      <trkpt lat="47.51191" lon="6.71669">
        <ele>503.5</ele>
        <time>2014-10-26T10:38:28.000Z</time>
      </trkpt>
      <trkpt lat="47.51192" lon="6.71673">
        <ele>504</ele>
        <time>2014-10-26T10:38:29.000Z</time>
      </trkpt>
      <trkpt lat="47.51193" lon="6.71677">
        <ele>504.1</ele>
        <time>2014-10-26T10:38:30.000Z</time>
      </trkpt>
      <trkpt lat="47.51193" lon="6.7168">
        <ele>504.2</ele>
        <time>2014-10-26T10:38:31.000Z</time>
      </trkpt>
      <trkpt lat="47.51193" lon="6.71685">
        <ele>510.8</ele>
        <time>2014-10-26T10:38:32.000Z</time>
      </trkpt>
      <trkpt lat="47.51193" lon="6.7169">
        <ele>515.2</ele>
        <time>2014-10-26T10:38:33.000Z</time>
      </trkpt>
      <trkpt lat="47.51193" lon="6.71701">
        <ele>514.3</ele>
        <time>2014-10-26T10:38:36.000Z</time>
      </trkpt>
      <trkpt lat="47.51194" lon="6.71705">
        <ele>516</ele>
        <time>2014-10-26T10:38:37.000Z</time>
      </trkpt>
      <trkpt lat="47.51195" lon="6.7171">
        <ele>516.5</ele>
        <time>2014-10-26T10:38:38.000Z</time>
      </trkpt>
      <trkpt lat="47.51198" lon="6.71715">
        <ele>516.6</ele>
        <time>2014-10-26T10:38:39.000Z</time>
      </trkpt>
      <trkpt lat="47.512" lon="6.7172">
        <ele>516</ele>
        <time>2014-10-26T10:38:40.000Z</time>
      </trkpt>
      <trkpt lat="47.51202" lon="6.71726">
        <ele>515.9</ele>
        <time>2014-10-26T10:38:41.000Z</time>
      </trkpt>
      <trkpt lat="47.51203" lon="6.71731">
        <ele>515.8</ele>
        <time>2014-10-26T10:38:42.000Z</time>
      </trkpt>
      <trkpt lat="47.51204" lon="6.71736">
        <ele>515.7</ele>
        <time>2014-10-26T10:38:43.000Z</time>
      </trkpt>
      <trkpt lat="47.51204" lon="6.71741">
        <ele>515.2</ele>
        <time>2014-10-26T10:38:44.000Z</time>
      </trkpt>
      <trkpt lat="47.51204" lon="6.71747">
        <ele>514.6</ele>
        <time>2014-10-26T10:38:45.000Z</time>
      </trkpt>
      <trkpt lat="47.51204" lon="6.71753">
        <ele>514.8</ele>
        <time>2014-10-26T10:38:46.000Z</time>
      </trkpt>
      <trkpt lat="47.51205" lon="6.71759">
        <ele>514.2</ele>
        <time>2014-10-26T10:38:47.000Z</time>
      </trkpt>
      <trkpt lat="47.51205" lon="6.71765">
        <ele>513.8</ele>
        <time>2014-10-26T10:38:48.000Z</time>
      </trkpt>
      <trkpt lat="47.51206" lon="6.71772">
        <ele>513.3</ele>
        <time>2014-10-26T10:38:49.000Z</time>
      </trkpt>
      <trkpt lat="47.51206" lon="6.71779">
        <ele>513.1</ele>
        <time>2014-10-26T10:38:50.000Z</time>
      </trkpt>
      <trkpt lat="47.51206" lon="6.71787">
        <ele>511.5</ele>
        <time>2014-10-26T10:38:51.000Z</time>
      </trkpt>
      <trkpt lat="47.51207" lon="6.71819">
        <ele>509.5</ele>
        <time>2014-10-26T10:38:52.000Z</time>
      </trkpt>
      <trkpt lat="47.51207" lon="6.71825">
        <ele>509.6</ele>
        <time>2014-10-26T10:38:53.000Z</time>
      </trkpt>
      <trkpt lat="47.51206" lon="6.7183">
        <ele>509.8</ele>
        <time>2014-10-26T10:38:54.000Z</time>
      </trkpt>
      <trkpt lat="47.51206" lon="6.71836">
        <ele>508.6</ele>
        <time>2014-10-26T10:38:55.000Z</time>
      </trkpt>
      <trkpt lat="47.51207" lon="6.71842">
        <ele>508.6</ele>
        <time>2014-10-26T10:38:56.000Z</time>
      </trkpt>
      <trkpt lat="47.51207" lon="6.71847">
        <ele>508.5</ele>
        <time>2014-10-26T10:38:57.000Z</time>
      </trkpt>
      <trkpt lat="47.51207" lon="6.71853">
        <ele>508.2</ele>
        <time>2014-10-26T10:38:58.000Z</time>
      </trkpt>
      <trkpt lat="47.51207" lon="6.71858">
        <ele>508.6</ele>
        <time>2014-10-26T10:38:59.000Z</time>
      </trkpt>
      <trkpt lat="47.51208" lon="6.71864">
        <ele>508.8</ele>
        <time>2014-10-26T10:39:00.000Z</time>
      </trkpt>
      <trkpt lat="47.51209" lon="6.7187">
        <ele>508.7</ele>
        <time>2014-10-26T10:39:01.000Z</time>
      </trkpt>
      <trkpt lat="47.5121" lon="6.71877">
        <ele>507.6</ele>
        <time>2014-10-26T10:39:02.000Z</time>
      </trkpt>
      <trkpt lat="47.5121" lon="6.71885">
        <ele>507.2</ele>
        <time>2014-10-26T10:39:03.000Z</time>
      </trkpt>
      <trkpt lat="47.5121" lon="6.71893">
        <ele>506.5</ele>
        <time>2014-10-26T10:39:04.000Z</time>
      </trkpt>
      <trkpt lat="47.5121" lon="6.719">
        <ele>506.9</ele>
        <time>2014-10-26T10:39:05.000Z</time>
      </trkpt>
      <trkpt lat="47.51211" lon="6.71907">
        <ele>507.3</ele>
        <time>2014-10-26T10:39:06.000Z</time>
      </trkpt>
      <trkpt lat="47.51211" lon="6.71914">
        <ele>506.9</ele>
        <time>2014-10-26T10:39:07.000Z</time>
      </trkpt>
      <trkpt lat="47.51211" lon="6.71922">
        <ele>506.2</ele>
        <time>2014-10-26T10:39:08.000Z</time>
      </trkpt>
      <trkpt lat="47.51212" lon="6.7193">
        <ele>505</ele>
        <time>2014-10-26T10:39:09.000Z</time>
      </trkpt>
      <trkpt lat="47.51212" lon="6.71938">
        <ele>504.6</ele>
        <time>2014-10-26T10:39:10.000Z</time>
      </trkpt>
      <trkpt lat="47.51211" lon="6.71946">
        <ele>502.6</ele>
        <time>2014-10-26T10:39:11.000Z</time>
      </trkpt>
      <trkpt lat="47.51214" lon="6.71976">
        <ele>502.3</ele>
        <time>2014-10-26T10:39:12.000Z</time>
      </trkpt>
      <trkpt lat="47.51213" lon="6.7198">
        <ele>501.6</ele>
        <time>2014-10-26T10:39:13.000Z</time>
      </trkpt>
      <trkpt lat="47.51213" lon="6.71985">
        <ele>500.7</ele>
        <time>2014-10-26T10:39:14.000Z</time>
      </trkpt>
      <trkpt lat="47.51212" lon="6.71992">
        <ele>500.7</ele>
        <time>2014-10-26T10:39:15.000Z</time>
      </trkpt>
      <trkpt lat="47.51212" lon="6.71998">
        <ele>497.9</ele>
        <time>2014-10-26T10:39:16.000Z</time>
      </trkpt>
      <trkpt lat="47.51212" lon="6.72004">
        <ele>498</ele>
        <time>2014-10-26T10:39:17.000Z</time>
      </trkpt>
      <trkpt lat="47.51211" lon="6.7201">
        <ele>495.4</ele>
        <time>2014-10-26T10:39:18.000Z</time>
      </trkpt>
      <trkpt lat="47.51211" lon="6.72015">
        <ele>496.2</ele>
        <time>2014-10-26T10:39:19.000Z</time>
      </trkpt>
      <trkpt lat="47.51211" lon="6.72022">
        <ele>494.6</ele>
        <time>2014-10-26T10:39:20.000Z</time>
      </trkpt>
      <trkpt lat="47.51211" lon="6.72029">
        <ele>491.3</ele>
        <time>2014-10-26T10:39:21.000Z</time>
      </trkpt>
      <trkpt lat="47.51218" lon="6.72065">
        <ele>487.5</ele>
        <time>2014-10-26T10:39:22.000Z</time>
      </trkpt>
      <trkpt lat="47.51216" lon="6.72069">
        <ele>489.6</ele>
        <time>2014-10-26T10:39:23.000Z</time>
      </trkpt>
      <trkpt lat="47.51216" lon="6.72076">
        <ele>488.3</ele>
        <time>2014-10-26T10:39:24.000Z</time>
      </trkpt>
      <trkpt lat="47.51216" lon="6.72082">
        <ele>487.7</ele>
        <time>2014-10-26T10:39:25.000Z</time>
      </trkpt>
      <trkpt lat="47.51215" lon="6.72087">
        <ele>486.8</ele>
        <time>2014-10-26T10:39:26.000Z</time>
      </trkpt>
      <trkpt lat="47.51215" lon="6.72093">
        <ele>491.3</ele>
        <time>2014-10-26T10:39:27.000Z</time>
      </trkpt>
      <trkpt lat="47.51216" lon="6.72099">
        <ele>492.2</ele>
        <time>2014-10-26T10:39:28.000Z</time>
      </trkpt>
      <trkpt lat="47.51217" lon="6.72104">
        <ele>492.1</ele>
        <time>2014-10-26T10:39:29.000Z</time>
      </trkpt>
      <trkpt lat="47.51218" lon="6.72108">
        <ele>492.6</ele>
        <time>2014-10-26T10:39:30.000Z</time>
      </trkpt>
      <trkpt lat="47.51218" lon="6.72114">
        <ele>495.1</ele>
        <time>2014-10-26T10:39:31.000Z</time>
      </trkpt>
      <trkpt lat="47.51218" lon="6.7212">
        <ele>498.3</ele>
        <time>2014-10-26T10:39:32.000Z</time>
      </trkpt>
      <trkpt lat="47.51218" lon="6.72126">
        <ele>500.8</ele>
        <time>2014-10-26T10:39:33.000Z</time>
      </trkpt>
      <trkpt lat="47.51214" lon="6.72173">
        <ele>502.9</ele>
        <time>2014-10-26T10:39:41.000Z</time>
      </trkpt>
      <trkpt lat="47.51212" lon="6.72192">
        <ele>504.9</ele>
        <time>2014-10-26T10:39:42.000Z</time>
      </trkpt>
      <trkpt lat="47.51212" lon="6.72198">
        <ele>505.8</ele>
        <time>2014-10-26T10:39:43.000Z</time>
      </trkpt>
      <trkpt lat="47.51212" lon="6.72205">
        <ele>505.7</ele>
        <time>2014-10-26T10:39:44.000Z</time>
      </trkpt>
      <trkpt lat="47.51214" lon="6.72211">
        <ele>506.6</ele>
        <time>2014-10-26T10:39:45.000Z</time>
      </trkpt>
      <trkpt lat="47.51215" lon="6.72219">
        <ele>507.5</ele>
        <time>2014-10-26T10:39:46.000Z</time>
      </trkpt>
      <trkpt lat="47.51215" lon="6.72227">
        <ele>507.3</ele>
        <time>2014-10-26T10:39:47.000Z</time>
      </trkpt>
      <trkpt lat="47.51216" lon="6.72235">
        <ele>506.6</ele>
        <time>2014-10-26T10:39:48.000Z</time>
      </trkpt>
      <trkpt lat="47.51216" lon="6.72243">
        <ele>506</ele>
        <time>2014-10-26T10:39:49.000Z</time>
      </trkpt>
      <trkpt lat="47.51216" lon="6.72251">
        <ele>505.7</ele>
        <time>2014-10-26T10:39:50.000Z</time>
      </trkpt>
      <trkpt lat="47.51216" lon="6.72258">
        <ele>504.8</ele>
        <time>2014-10-26T10:39:51.000Z</time>
      </trkpt>
      <trkpt lat="47.51216" lon="6.72262">
        <ele>504.3</ele>
        <time>2014-10-26T10:39:52.000Z</time>
      </trkpt>
      <trkpt lat="47.51214" lon="6.72267">
        <ele>503.3</ele>
        <time>2014-10-26T10:39:53.000Z</time>
      </trkpt>
      <trkpt lat="47.51213" lon="6.72273">
        <ele>502.4</ele>
        <time>2014-10-26T10:39:54.000Z</time>
      </trkpt>
      <trkpt lat="47.51212" lon="6.7228">
        <ele>501.1</ele>
        <time>2014-10-26T10:39:55.000Z</time>
      </trkpt>
      <trkpt lat="47.51211" lon="6.72286">
        <ele>500.5</ele>
        <time>2014-10-26T10:39:56.000Z</time>
      </trkpt>
      <trkpt lat="47.51208" lon="6.72306">
        <ele>503.7</ele>
        <time>2014-10-26T10:39:57.000Z</time>
      </trkpt>
      <trkpt lat="47.51208" lon="6.72317">
        <ele>504.5</ele>
        <time>2014-10-26T10:39:58.000Z</time>
      </trkpt>
      <trkpt lat="47.51208" lon="6.72329">
        <ele>502.2</ele>
        <time>2014-10-26T10:39:59.000Z</time>
      </trkpt>
      <trkpt lat="47.51208" lon="6.72337">
        <ele>501.5</ele>
        <time>2014-10-26T10:40:00.000Z</time>
      </trkpt>
      <trkpt lat="47.51206" lon="6.72342">
        <ele>501.1</ele>
        <time>2014-10-26T10:40:01.000Z</time>
      </trkpt>
      <trkpt lat="47.51205" lon="6.72347">
        <ele>500.8</ele>
        <time>2014-10-26T10:40:02.000Z</time>
      </trkpt>
      <trkpt lat="47.51202" lon="6.72357">
        <ele>499</ele>
        <time>2014-10-26T10:40:03.000Z</time>
      </trkpt>
      <trkpt lat="47.51201" lon="6.72364">
        <ele>497.4</ele>
        <time>2014-10-26T10:40:04.000Z</time>
      </trkpt>
      <trkpt lat="47.51201" lon="6.72377">
        <ele>493.1</ele>
        <time>2014-10-26T10:40:05.000Z</time>
      </trkpt>
      <trkpt lat="47.512" lon="6.72388">
        <ele>490.1</ele>
        <time>2014-10-26T10:40:06.000Z</time>
      </trkpt>
      <trkpt lat="47.51201" lon="6.72408">
        <ele>481.1</ele>
        <time>2014-10-26T10:40:07.000Z</time>
      </trkpt>
      <trkpt lat="47.512" lon="6.72414">
        <ele>477.7</ele>
        <time>2014-10-26T10:40:08.000Z</time>
      </trkpt>
      <trkpt lat="47.512" lon="6.72421">
        <ele>473.6</ele>
        <time>2014-10-26T10:40:09.000Z</time>
      </trkpt>
      <trkpt lat="47.51198" lon="6.72426">
        <ele>476.7</ele>
        <time>2014-10-26T10:40:10.000Z</time>
      </trkpt>
      <trkpt lat="47.51197" lon="6.72431">
        <ele>476.6</ele>
        <time>2014-10-26T10:40:11.000Z</time>
      </trkpt>
      <trkpt lat="47.51195" lon="6.72436">
        <ele>476.6</ele>
        <time>2014-10-26T10:40:12.000Z</time>
      </trkpt>
      <trkpt lat="47.51194" lon="6.72441">
        <ele>476.4</ele>
        <time>2014-10-26T10:40:13.000Z</time>
      </trkpt>
      <trkpt lat="47.51193" lon="6.72446">
        <ele>476.4</ele>
        <time>2014-10-26T10:40:14.000Z</time>
      </trkpt>
      <trkpt lat="47.51191" lon="6.72451">
        <ele>476.2</ele>
        <time>2014-10-26T10:40:15.000Z</time>
      </trkpt>
      <trkpt lat="47.5119" lon="6.72457">
        <ele>478</ele>
        <time>2014-10-26T10:40:16.000Z</time>
      </trkpt>
      <trkpt lat="47.51189" lon="6.72463">
        <ele>478</ele>
        <time>2014-10-26T10:40:17.000Z</time>
      </trkpt>
      <trkpt lat="47.51188" lon="6.72469">
        <ele>477.3</ele>
        <time>2014-10-26T10:40:18.000Z</time>
      </trkpt>
      <trkpt lat="47.51187" lon="6.72475">
        <ele>477.1</ele>
        <time>2014-10-26T10:40:19.000Z</time>
      </trkpt>
      <trkpt lat="47.51185" lon="6.7248">
        <ele>475.6</ele>
        <time>2014-10-26T10:40:20.000Z</time>
      </trkpt>
      <trkpt lat="47.51183" lon="6.72484">
        <ele>474.6</ele>
        <time>2014-10-26T10:40:21.000Z</time>
      </trkpt>
      <trkpt lat="47.51181" lon="6.72488">
        <ele>474.7</ele>
        <time>2014-10-26T10:40:22.000Z</time>
      </trkpt>
      <trkpt lat="47.5118" lon="6.72491">
        <ele>474.1</ele>
        <time>2014-10-26T10:40:23.000Z</time>
      </trkpt>
      <trkpt lat="47.51178" lon="6.72495">
        <ele>472.6</ele>
        <time>2014-10-26T10:40:24.000Z</time>
      </trkpt>
      <trkpt lat="47.51176" lon="6.72498">
        <ele>472.1</ele>
        <time>2014-10-26T10:40:25.000Z</time>
      </trkpt>
      <trkpt lat="47.51174" lon="6.72502">
        <ele>471</ele>
        <time>2014-10-26T10:40:26.000Z</time>
      </trkpt>
      <trkpt lat="47.51172" lon="6.72507">
        <ele>470.4</ele>
        <time>2014-10-26T10:40:27.000Z</time>
      </trkpt>
      <trkpt lat="47.51171" lon="6.72511">
        <ele>469.6</ele>
        <time>2014-10-26T10:40:28.000Z</time>
      </trkpt>
      <trkpt lat="47.51169" lon="6.72516">
        <ele>468.5</ele>
        <time>2014-10-26T10:40:29.000Z</time>
      </trkpt>
      <trkpt lat="47.51168" lon="6.72521">
        <ele>467.6</ele>
        <time>2014-10-26T10:40:30.000Z</time>
      </trkpt>
      <trkpt lat="47.51166" lon="6.72526">
        <ele>467.7</ele>
        <time>2014-10-26T10:40:31.000Z</time>
      </trkpt>
      <trkpt lat="47.51164" lon="6.72532">
        <ele>473.1</ele>
        <time>2014-10-26T10:40:32.000Z</time>
      </trkpt>
      <trkpt lat="47.51161" lon="6.72538">
        <ele>472.9</ele>
        <time>2014-10-26T10:40:33.000Z</time>
      </trkpt>
      <trkpt lat="47.51158" lon="6.72545">
        <ele>472.4</ele>
        <time>2014-10-26T10:40:34.000Z</time>
      </trkpt>
      <trkpt lat="47.51151" lon="6.72559">
        <ele>465.7</ele>
        <time>2014-10-26T10:40:37.000Z</time>
      </trkpt>
      <trkpt lat="47.51149" lon="6.72563">
        <ele>465.3</ele>
        <time>2014-10-26T10:40:38.000Z</time>
      </trkpt>
      <trkpt lat="47.51147" lon="6.72567">
        <ele>465.2</ele>
        <time>2014-10-26T10:40:39.000Z</time>
      </trkpt>
      <trkpt lat="47.51144" lon="6.7257">
        <ele>465</ele>
        <time>2014-10-26T10:40:40.000Z</time>
      </trkpt>
      <trkpt lat="47.51141" lon="6.72574">
        <ele>464.4</ele>
        <time>2014-10-26T10:40:41.000Z</time>
      </trkpt>
      <trkpt lat="47.51138" lon="6.72578">
        <ele>464</ele>
        <time>2014-10-26T10:40:42.000Z</time>
      </trkpt>
      <trkpt lat="47.51134" lon="6.72583">
        <ele>463.3</ele>
        <time>2014-10-26T10:40:43.000Z</time>
      </trkpt>
      <trkpt lat="47.51131" lon="6.72587">
        <ele>462.5</ele>
        <time>2014-10-26T10:40:44.000Z</time>
      </trkpt>
      <trkpt lat="47.51127" lon="6.72591">
        <ele>461.6</ele>
        <time>2014-10-26T10:40:45.000Z</time>
      </trkpt>
      <trkpt lat="47.51123" lon="6.72595">
        <ele>461.1</ele>
        <time>2014-10-26T10:40:46.000Z</time>
      </trkpt>
      <trkpt lat="47.51119" lon="6.72599">
        <ele>459.5</ele>
        <time>2014-10-26T10:40:47.000Z</time>
      </trkpt>
      <trkpt lat="47.51115" lon="6.72603">
        <ele>456.9</ele>
        <time>2014-10-26T10:40:48.000Z</time>
      </trkpt>
      <trkpt lat="47.51094" lon="6.72615">
        <ele>454.4</ele>
        <time>2014-10-26T10:40:49.000Z</time>
      </trkpt>
      <trkpt lat="47.51089" lon="6.72618">
        <ele>453.2</ele>
        <time>2014-10-26T10:40:50.000Z</time>
      </trkpt>
      <trkpt lat="47.51085" lon="6.72621">
        <ele>453.8</ele>
        <time>2014-10-26T10:40:51.000Z</time>
      </trkpt>
      <trkpt lat="47.51083" lon="6.72625">
        <ele>452.9</ele>
        <time>2014-10-26T10:40:52.000Z</time>
      </trkpt>
      <trkpt lat="47.5108" lon="6.72628">
        <ele>450.5</ele>
        <time>2014-10-26T10:40:53.000Z</time>
      </trkpt>
      <trkpt lat="47.51078" lon="6.72631">
        <ele>448.8</ele>
        <time>2014-10-26T10:40:54.000Z</time>
      </trkpt>
      <trkpt lat="47.51076" lon="6.72635">
        <ele>448.1</ele>
        <time>2014-10-26T10:40:55.000Z</time>
      </trkpt>
      <trkpt lat="47.51074" lon="6.72639">
        <ele>447.5</ele>
        <time>2014-10-26T10:40:56.000Z</time>
      </trkpt>
      <trkpt lat="47.51071" lon="6.72643">
        <ele>447</ele>
        <time>2014-10-26T10:40:57.000Z</time>
      </trkpt>
      <trkpt lat="47.51069" lon="6.72647">
        <ele>446.1</ele>
        <time>2014-10-26T10:40:58.000Z</time>
      </trkpt>
      <trkpt lat="47.51066" lon="6.7265">
        <ele>450.1</ele>
        <time>2014-10-26T10:40:59.000Z</time>
      </trkpt>
      <trkpt lat="47.51063" lon="6.72654">
        <ele>450</ele>
        <time>2014-10-26T10:41:00.000Z</time>
      </trkpt>
      <trkpt lat="47.5106" lon="6.72657">
        <ele>449.3</ele>
        <time>2014-10-26T10:41:01.000Z</time>
      </trkpt>
      <trkpt lat="47.51057" lon="6.7266">
        <ele>449</ele>
        <time>2014-10-26T10:41:02.000Z</time>
      </trkpt>
      <trkpt lat="47.51053" lon="6.72663">
        <ele>450.7</ele>
        <time>2014-10-26T10:41:03.000Z</time>
      </trkpt>
      <trkpt lat="47.5105" lon="6.72666">
        <ele>450.5</ele>
        <time>2014-10-26T10:41:04.000Z</time>
      </trkpt>
      <trkpt lat="47.51047" lon="6.7267">
        <ele>450.6</ele>
        <time>2014-10-26T10:41:05.000Z</time>
      </trkpt>
      <trkpt lat="47.51044" lon="6.72673">
        <ele>450.2</ele>
        <time>2014-10-26T10:41:06.000Z</time>
      </trkpt>
      <trkpt lat="47.51042" lon="6.72676">
        <ele>449.9</ele>
        <time>2014-10-26T10:41:07.000Z</time>
      </trkpt>
      <trkpt lat="47.5104" lon="6.72679">
        <ele>449.2</ele>
        <time>2014-10-26T10:41:08.000Z</time>
      </trkpt>
      <trkpt lat="47.51037" lon="6.72682">
        <ele>450.8</ele>
        <time>2014-10-26T10:41:09.000Z</time>
      </trkpt>
      <trkpt lat="47.51035" lon="6.72685">
        <ele>450.7</ele>
        <time>2014-10-26T10:41:10.000Z</time>
      </trkpt>
      <trkpt lat="47.51033" lon="6.72688">
        <ele>450.1</ele>
        <time>2014-10-26T10:41:11.000Z</time>
      </trkpt>
      <trkpt lat="47.51031" lon="6.72691">
        <ele>449.4</ele>
        <time>2014-10-26T10:41:12.000Z</time>
      </trkpt>
      <trkpt lat="47.51028" lon="6.72694">
        <ele>448.7</ele>
        <time>2014-10-26T10:41:14.000Z</time>
      </trkpt>
      <trkpt lat="47.51026" lon="6.72697">
        <ele>448</ele>
        <time>2014-10-26T10:41:15.000Z</time>
      </trkpt>
      <trkpt lat="47.51023" lon="6.72699">
        <ele>447.2</ele>
        <time>2014-10-26T10:41:16.000Z</time>
      </trkpt>
      <trkpt lat="47.5102" lon="6.72703">
        <ele>450.2</ele>
        <time>2014-10-26T10:41:17.000Z</time>
      </trkpt>
      <trkpt lat="47.51016" lon="6.72707">
        <ele>450.7</ele>
        <time>2014-10-26T10:41:18.000Z</time>
      </trkpt>
      <trkpt lat="47.51013" lon="6.72711">
        <ele>451.2</ele>
        <time>2014-10-26T10:41:19.000Z</time>
      </trkpt>
      <trkpt lat="47.51009" lon="6.72716">
        <ele>453</ele>
        <time>2014-10-26T10:41:20.000Z</time>
      </trkpt>
      <trkpt lat="47.51004" lon="6.7272">
        <ele>450.8</ele>
        <time>2014-10-26T10:41:21.000Z</time>
      </trkpt>
      <trkpt lat="47.51" lon="6.72725">
        <ele>450.8</ele>
        <time>2014-10-26T10:41:22.000Z</time>
      </trkpt>
      <trkpt lat="47.50996" lon="6.7273">
        <ele>450.1</ele>
        <time>2014-10-26T10:41:23.000Z</time>
      </trkpt>
      <trkpt lat="47.50991" lon="6.72735">
        <ele>451.5</ele>
        <time>2014-10-26T10:41:24.000Z</time>
      </trkpt>
      <trkpt lat="47.50988" lon="6.72739">
        <ele>451.3</ele>
        <time>2014-10-26T10:41:25.000Z</time>
      </trkpt>
      <trkpt lat="47.50984" lon="6.72743">
        <ele>451.5</ele>
        <time>2014-10-26T10:41:26.000Z</time>
      </trkpt>
      <trkpt lat="47.5098" lon="6.72747">
        <ele>451.3</ele>
        <time>2014-10-26T10:41:27.000Z</time>
      </trkpt>
      <trkpt lat="47.50977" lon="6.72751">
        <ele>452.8</ele>
        <time>2014-10-26T10:41:28.000Z</time>
      </trkpt>
      <trkpt lat="47.50973" lon="6.72756">
        <ele>453.6</ele>
        <time>2014-10-26T10:41:29.000Z</time>
      </trkpt>
      <trkpt lat="47.50969" lon="6.7276">
        <ele>453</ele>
        <time>2014-10-26T10:41:30.000Z</time>
      </trkpt>
      <trkpt lat="47.50966" lon="6.72764">
        <ele>453.7</ele>
        <time>2014-10-26T10:41:31.000Z</time>
      </trkpt>
      <trkpt lat="47.50962" lon="6.72768">
        <ele>453.5</ele>
        <time>2014-10-26T10:41:32.000Z</time>
      </trkpt>
      <trkpt lat="47.50959" lon="6.72772">
        <ele>453.4</ele>
        <time>2014-10-26T10:41:33.000Z</time>
      </trkpt>
      <trkpt lat="47.50956" lon="6.72777">
        <ele>455.9</ele>
        <time>2014-10-26T10:41:34.000Z</time>
      </trkpt>
      <trkpt lat="47.50949" lon="6.72788">
        <ele>459.1</ele>
        <time>2014-10-26T10:41:37.000Z</time>
      </trkpt>
      <trkpt lat="47.50932" lon="6.7282">
        <ele>459.9</ele>
        <time>2014-10-26T10:41:45.000Z</time>
      </trkpt>
      <trkpt lat="47.50929" lon="6.72823">
        <ele>460.1</ele>
        <time>2014-10-26T10:41:46.000Z</time>
      </trkpt>
      <trkpt lat="47.50928" lon="6.72826">
        <ele>460.4</ele>
        <time>2014-10-26T10:41:47.000Z</time>
      </trkpt>
      <trkpt lat="47.50925" lon="6.72829">
        <ele>460.3</ele>
        <time>2014-10-26T10:41:49.000Z</time>
      </trkpt>
      <trkpt lat="47.50924" lon="6.72831">
        <ele>458.9</ele>
        <time>2014-10-26T10:41:50.000Z</time>
      </trkpt>
      <trkpt lat="47.50921" lon="6.72835">
        <ele>455.4</ele>
        <time>2014-10-26T10:41:52.000Z</time>
      </trkpt>
      <trkpt lat="47.5092" lon="6.72837">
        <ele>453.8</ele>
        <time>2014-10-26T10:41:53.000Z</time>
      </trkpt>
      <trkpt lat="47.50918" lon="6.72842">
        <ele>452.3</ele>
        <time>2014-10-26T10:41:57.000Z</time>
      </trkpt>
      <trkpt lat="47.50918" lon="6.72843">
        <ele>452.4</ele>
        <time>2014-10-26T10:41:58.000Z</time>
      </trkpt>
      <trkpt lat="47.50913" lon="6.72842">
        <ele>448.3</ele>
        <time>2014-10-26T10:42:06.000Z</time>
      </trkpt>
      <trkpt lat="47.50913" lon="6.72844">
        <ele>447.7</ele>
        <time>2014-10-26T10:42:07.000Z</time>
      </trkpt>
      <trkpt lat="47.50911" lon="6.72848">
        <ele>447.3</ele>
        <time>2014-10-26T10:43:04.000Z</time>
      </trkpt>
      <trkpt lat="47.50912" lon="6.72851">
        <ele>447.5</ele>
        <time>2014-10-26T10:43:05.000Z</time>
      </trkpt>
      <trkpt lat="47.50912" lon="6.72855">
        <ele>445.5</ele>
        <time>2014-10-26T10:43:06.000Z</time>
      </trkpt>
      <trkpt lat="47.50912" lon="6.72859">
        <ele>444</ele>
        <time>2014-10-26T10:43:07.000Z</time>
      </trkpt>
      <trkpt lat="47.50912" lon="6.72863">
        <ele>444.8</ele>
        <time>2014-10-26T10:43:08.000Z</time>
      </trkpt>
      <trkpt lat="47.50911" lon="6.72868">
        <ele>442.1</ele>
        <time>2014-10-26T10:43:09.000Z</time>
      </trkpt>
      <trkpt lat="47.50911" lon="6.72872">
        <ele>441.8</ele>
        <time>2014-10-26T10:43:10.000Z</time>
      </trkpt>
      <trkpt lat="47.5091" lon="6.72877">
        <ele>444.2</ele>
        <time>2014-10-26T10:43:11.000Z</time>
      </trkpt>
      <trkpt lat="47.50909" lon="6.72881">
        <ele>445</ele>
        <time>2014-10-26T10:43:12.000Z</time>
      </trkpt>
      <trkpt lat="47.50909" lon="6.72885">
        <ele>444.6</ele>
        <time>2014-10-26T10:43:13.000Z</time>
      </trkpt>
      <trkpt lat="47.50908" lon="6.7289">
        <ele>449.3</ele>
        <time>2014-10-26T10:43:14.000Z</time>
      </trkpt>
      <trkpt lat="47.50908" lon="6.72895">
        <ele>449.9</ele>
        <time>2014-10-26T10:43:15.000Z</time>
      </trkpt>
      <trkpt lat="47.50907" lon="6.729">
        <ele>450.2</ele>
        <time>2014-10-26T10:43:16.000Z</time>
      </trkpt>
      <trkpt lat="47.50905" lon="6.72906">
        <ele>450.8</ele>
        <time>2014-10-26T10:43:17.000Z</time>
      </trkpt>
      <trkpt lat="47.50903" lon="6.72912">
        <ele>451.7</ele>
        <time>2014-10-26T10:43:18.000Z</time>
      </trkpt>
      <trkpt lat="47.50901" lon="6.72917">
        <ele>457.1</ele>
        <time>2014-10-26T10:43:19.000Z</time>
      </trkpt>
      <trkpt lat="47.50899" lon="6.72921">
        <ele>458.6</ele>
        <time>2014-10-26T10:43:20.000Z</time>
      </trkpt>
      <trkpt lat="47.50897" lon="6.72925">
        <ele>460.4</ele>
        <time>2014-10-26T10:43:21.000Z</time>
      </trkpt>
      <trkpt lat="47.50895" lon="6.72929">
        <ele>460.8</ele>
        <time>2014-10-26T10:43:22.000Z</time>
      </trkpt>
      <trkpt lat="47.50894" lon="6.72933">
        <ele>461.6</ele>
        <time>2014-10-26T10:43:23.000Z</time>
      </trkpt>
      <trkpt lat="47.50891" lon="6.72937">
        <ele>463.8</ele>
        <time>2014-10-26T10:43:24.000Z</time>
      </trkpt>
      <trkpt lat="47.50888" lon="6.72941">
        <ele>467.4</ele>
        <time>2014-10-26T10:43:25.000Z</time>
      </trkpt>
      <trkpt lat="47.50885" lon="6.72944">
        <ele>468.2</ele>
        <time>2014-10-26T10:43:26.000Z</time>
      </trkpt>
      <trkpt lat="47.50882" lon="6.72947">
        <ele>468.5</ele>
        <time>2014-10-26T10:43:27.000Z</time>
      </trkpt>
      <trkpt lat="47.50879" lon="6.72949">
        <ele>468.8</ele>
        <time>2014-10-26T10:43:28.000Z</time>
      </trkpt>
      <trkpt lat="47.50877" lon="6.72952">
        <ele>469.1</ele>
        <time>2014-10-26T10:43:29.000Z</time>
      </trkpt>
      <trkpt lat="47.50875" lon="6.72956">
        <ele>468.5</ele>
        <time>2014-10-26T10:43:30.000Z</time>
      </trkpt>
      <trkpt lat="47.50873" lon="6.72961">
        <ele>467.3</ele>
        <time>2014-10-26T10:43:31.000Z</time>
      </trkpt>
      <trkpt lat="47.50872" lon="6.72966">
        <ele>466.1</ele>
        <time>2014-10-26T10:43:32.000Z</time>
      </trkpt>
      <trkpt lat="47.5087" lon="6.72971">
        <ele>467.3</ele>
        <time>2014-10-26T10:43:33.000Z</time>
      </trkpt>
      <trkpt lat="47.50867" lon="6.72985">
        <ele>457.6</ele>
        <time>2014-10-26T10:43:36.000Z</time>
      </trkpt>
      <trkpt lat="47.50866" lon="6.7299">
        <ele>458.3</ele>
        <time>2014-10-26T10:43:37.000Z</time>
      </trkpt>
      <trkpt lat="47.50865" lon="6.72995">
        <ele>459.9</ele>
        <time>2014-10-26T10:43:38.000Z</time>
      </trkpt>
      <trkpt lat="47.50864" lon="6.72999">
        <ele>460.6</ele>
        <time>2014-10-26T10:43:39.000Z</time>
      </trkpt>
      <trkpt lat="47.50863" lon="6.73004">
        <ele>460.6</ele>
        <time>2014-10-26T10:43:40.000Z</time>
      </trkpt>
      <trkpt lat="47.50862" lon="6.73008">
        <ele>461.3</ele>
        <time>2014-10-26T10:43:41.000Z</time>
      </trkpt>
      <trkpt lat="47.50861" lon="6.73013">
        <ele>459.3</ele>
        <time>2014-10-26T10:43:42.000Z</time>
      </trkpt>
      <trkpt lat="47.50859" lon="6.7302">
        <ele>457.5</ele>
        <time>2014-10-26T10:43:43.000Z</time>
      </trkpt>
      <trkpt lat="47.50858" lon="6.73027">
        <ele>457.5</ele>
        <time>2014-10-26T10:43:44.000Z</time>
      </trkpt>
      <trkpt lat="47.50856" lon="6.73035">
        <ele>457.2</ele>
        <time>2014-10-26T10:43:45.000Z</time>
      </trkpt>
      <trkpt lat="47.50855" lon="6.73042">
        <ele>455.2</ele>
        <time>2014-10-26T10:43:46.000Z</time>
      </trkpt>
      <trkpt lat="47.50853" lon="6.73049">
        <ele>453.9</ele>
        <time>2014-10-26T10:43:47.000Z</time>
      </trkpt>
      <trkpt lat="47.50851" lon="6.73057">
        <ele>454.2</ele>
        <time>2014-10-26T10:43:48.000Z</time>
      </trkpt>
      <trkpt lat="47.5085" lon="6.73089">
        <ele>451.1</ele>
        <time>2014-10-26T10:43:49.000Z</time>
      </trkpt>
      <trkpt lat="47.50849" lon="6.73097">
        <ele>449.2</ele>
        <time>2014-10-26T10:43:50.000Z</time>
      </trkpt>
      <trkpt lat="47.50847" lon="6.73102">
        <ele>449.1</ele>
        <time>2014-10-26T10:43:51.000Z</time>
      </trkpt>
      <trkpt lat="47.50845" lon="6.73107">
        <ele>447.6</ele>
        <time>2014-10-26T10:43:52.000Z</time>
      </trkpt>
      <trkpt lat="47.50843" lon="6.73114">
        <ele>444</ele>
        <time>2014-10-26T10:43:53.000Z</time>
      </trkpt>
      <trkpt lat="47.50841" lon="6.73121">
        <ele>443.1</ele>
        <time>2014-10-26T10:43:54.000Z</time>
      </trkpt>
      <trkpt lat="47.50838" lon="6.73129">
        <ele>441.1</ele>
        <time>2014-10-26T10:43:55.000Z</time>
      </trkpt>
      <trkpt lat="47.50832" lon="6.73155">
        <ele>437.9</ele>
        <time>2014-10-26T10:43:56.000Z</time>
      </trkpt>
      <trkpt lat="47.50827" lon="6.73167">
        <ele>435.4</ele>
        <time>2014-10-26T10:43:57.000Z</time>
      </trkpt>
      <trkpt lat="47.50822" lon="6.73178">
        <ele>434.9</ele>
        <time>2014-10-26T10:43:58.000Z</time>
      </trkpt>
      <trkpt lat="47.50817" lon="6.73191">
        <ele>432.2</ele>
        <time>2014-10-26T10:43:59.000Z</time>
      </trkpt>
      <trkpt lat="47.50812" lon="6.73199">
        <ele>429.8</ele>
        <time>2014-10-26T10:44:00.000Z</time>
      </trkpt>
      <trkpt lat="47.50808" lon="6.73208">
        <ele>427.4</ele>
        <time>2014-10-26T10:44:01.000Z</time>
      </trkpt>
      <trkpt lat="47.50805" lon="6.73216">
        <ele>425.1</ele>
        <time>2014-10-26T10:44:02.000Z</time>
      </trkpt>
      <trkpt lat="47.50802" lon="6.73224">
        <ele>422.1</ele>
        <time>2014-10-26T10:44:03.000Z</time>
      </trkpt>
      <trkpt lat="47.50797" lon="6.73231">
        <ele>420.5</ele>
        <time>2014-10-26T10:44:04.000Z</time>
      </trkpt>
      <trkpt lat="47.50794" lon="6.73239">
        <ele>419.7</ele>
        <time>2014-10-26T10:44:05.000Z</time>
      </trkpt>
      <trkpt lat="47.50789" lon="6.73246">
        <ele>419.2</ele>
        <time>2014-10-26T10:44:06.000Z</time>
      </trkpt>
      <trkpt lat="47.50783" lon="6.73254">
        <ele>416.9</ele>
        <time>2014-10-26T10:44:07.000Z</time>
      </trkpt>
      <trkpt lat="47.50779" lon="6.73263">
        <ele>416.2</ele>
        <time>2014-10-26T10:44:08.000Z</time>
      </trkpt>
      <trkpt lat="47.50773" lon="6.73271">
        <ele>415.7</ele>
        <time>2014-10-26T10:44:09.000Z</time>
      </trkpt>
      <trkpt lat="47.50767" lon="6.73279">
        <ele>415</ele>
        <time>2014-10-26T10:44:10.000Z</time>
      </trkpt>
      <trkpt lat="47.50761" lon="6.73287">
        <ele>413.5</ele>
        <time>2014-10-26T10:44:11.000Z</time>
      </trkpt>
      <trkpt lat="47.50756" lon="6.73293">
        <ele>413.5</ele>
        <time>2014-10-26T10:44:12.000Z</time>
      </trkpt>
      <trkpt lat="47.50752" lon="6.733">
        <ele>413.9</ele>
        <time>2014-10-26T10:44:13.000Z</time>
      </trkpt>
      <trkpt lat="47.50751" lon="6.73308">
        <ele>413.5</ele>
        <time>2014-10-26T10:44:14.000Z</time>
      </trkpt>
      <trkpt lat="47.50748" lon="6.73315">
        <ele>413.4</ele>
        <time>2014-10-26T10:44:15.000Z</time>
      </trkpt>
      <trkpt lat="47.50745" lon="6.73321">
        <ele>413.6</ele>
        <time>2014-10-26T10:44:16.000Z</time>
      </trkpt>
      <trkpt lat="47.50742" lon="6.73326">
        <ele>414.1</ele>
        <time>2014-10-26T10:44:17.000Z</time>
      </trkpt>
      <trkpt lat="47.50739" lon="6.7333">
        <ele>415.4</ele>
        <time>2014-10-26T10:44:18.000Z</time>
      </trkpt>
      <trkpt lat="47.50734" lon="6.73336">
        <ele>415</ele>
        <time>2014-10-26T10:44:19.000Z</time>
      </trkpt>
      <trkpt lat="47.50728" lon="6.73343">
        <ele>413.3</ele>
        <time>2014-10-26T10:44:20.000Z</time>
      </trkpt>
      <trkpt lat="47.50723" lon="6.73349">
        <ele>412.3</ele>
        <time>2014-10-26T10:44:21.000Z</time>
      </trkpt>
      <trkpt lat="47.50719" lon="6.73356">
        <ele>411.5</ele>
        <time>2014-10-26T10:44:22.000Z</time>
      </trkpt>
      <trkpt lat="47.50716" lon="6.73363">
        <ele>411.3</ele>
        <time>2014-10-26T10:44:23.000Z</time>
      </trkpt>
      <trkpt lat="47.50713" lon="6.73368">
        <ele>410.7</ele>
        <time>2014-10-26T10:44:24.000Z</time>
      </trkpt>
      <trkpt lat="47.50711" lon="6.73374">
        <ele>410.8</ele>
        <time>2014-10-26T10:44:25.000Z</time>
      </trkpt>
      <trkpt lat="47.50709" lon="6.73381">
        <ele>411.1</ele>
        <time>2014-10-26T10:44:26.000Z</time>
      </trkpt>
      <trkpt lat="47.50706" lon="6.73386">
        <ele>410.9</ele>
        <time>2014-10-26T10:44:27.000Z</time>
      </trkpt>
      <trkpt lat="47.507" lon="6.73395">
        <ele>409.2</ele>
        <time>2014-10-26T10:44:28.000Z</time>
      </trkpt>
      <trkpt lat="47.50697" lon="6.73401">
        <ele>408.9</ele>
        <time>2014-10-26T10:44:28.999Z</time>
      </trkpt>
      <trkpt lat="47.50694" lon="6.73409">
        <ele>408.1</ele>
        <time>2014-10-26T10:44:30.000Z</time>
      </trkpt>
      <trkpt lat="47.50691" lon="6.73415">
        <ele>407.3</ele>
        <time>2014-10-26T10:44:31.000Z</time>
      </trkpt>
      <trkpt lat="47.50688" lon="6.73418">
        <ele>407.7</ele>
        <time>2014-10-26T10:44:32.000Z</time>
      </trkpt>
      <trkpt lat="47.50686" lon="6.73422">
        <ele>408</ele>
        <time>2014-10-26T10:44:33.000Z</time>
      </trkpt>
      <trkpt lat="47.50681" lon="6.73429">
        <ele>409</ele>
        <time>2014-10-26T10:44:36.000Z</time>
      </trkpt>
      <trkpt lat="47.50678" lon="6.73433">
        <ele>407.4</ele>
        <time>2014-10-26T10:44:37.000Z</time>
      </trkpt>
      <trkpt lat="47.50675" lon="6.73439">
        <ele>405.7</ele>
        <time>2014-10-26T10:44:38.000Z</time>
      </trkpt>
      <trkpt lat="47.50673" lon="6.73443">
        <ele>405.3</ele>
        <time>2014-10-26T10:44:39.000Z</time>
      </trkpt>
      <trkpt lat="47.5067" lon="6.73447">
        <ele>404.5</ele>
        <time>2014-10-26T10:44:40.000Z</time>
      </trkpt>
      <trkpt lat="47.50669" lon="6.73452">
        <ele>405.1</ele>
        <time>2014-10-26T10:44:41.000Z</time>
      </trkpt>
      <trkpt lat="47.5067" lon="6.73456">
        <ele>404</ele>
        <time>2014-10-26T10:44:42.000Z</time>
      </trkpt>
      <trkpt lat="47.50668" lon="6.73459">
        <ele>403.8</ele>
        <time>2014-10-26T10:44:43.000Z</time>
      </trkpt>
      <trkpt lat="47.50666" lon="6.73462">
        <ele>403.7</ele>
        <time>2014-10-26T10:44:44.000Z</time>
      </trkpt>
      <trkpt lat="47.50665" lon="6.73465">
        <ele>403.5</ele>
        <time>2014-10-26T10:44:45.000Z</time>
      </trkpt>
      <trkpt lat="47.50664" lon="6.73468">
        <ele>402.6</ele>
        <time>2014-10-26T10:44:46.000Z</time>
      </trkpt>
      <trkpt lat="47.50662" lon="6.7347">
        <ele>402</ele>
        <time>2014-10-26T10:44:47.000Z</time>
      </trkpt>
      <trkpt lat="47.5066" lon="6.73473">
        <ele>401.5</ele>
        <time>2014-10-26T10:44:48.000Z</time>
      </trkpt>
      <trkpt lat="47.50657" lon="6.73476">
        <ele>400.1</ele>
        <time>2014-10-26T10:44:50.000Z</time>
      </trkpt>
      <trkpt lat="47.50656" lon="6.73478">
        <ele>400.1</ele>
        <time>2014-10-26T10:44:51.000Z</time>
      </trkpt>
      <trkpt lat="47.50652" lon="6.7348">
        <ele>397.2</ele>
        <time>2014-10-26T10:44:53.000Z</time>
      </trkpt>
      <trkpt lat="47.5065" lon="6.73482">
        <ele>396.6</ele>
        <time>2014-10-26T10:44:54.000Z</time>
      </trkpt>
      <trkpt lat="47.50648" lon="6.73485">
        <ele>394.9</ele>
        <time>2014-10-26T10:44:55.000Z</time>
      </trkpt>
      <trkpt lat="47.50645" lon="6.73489">
        <ele>393.7</ele>
        <time>2014-10-26T10:44:56.000Z</time>
      </trkpt>
      <trkpt lat="47.50643" lon="6.73493">
        <ele>393.5</ele>
        <time>2014-10-26T10:44:57.000Z</time>
      </trkpt>
      <trkpt lat="47.5064" lon="6.73499">
        <ele>392.7</ele>
        <time>2014-10-26T10:44:58.000Z</time>
      </trkpt>
      <trkpt lat="47.50638" lon="6.73504">
        <ele>392.1</ele>
        <time>2014-10-26T10:44:59.000Z</time>
      </trkpt>
      <trkpt lat="47.50637" lon="6.73509">
        <ele>392.2</ele>
        <time>2014-10-26T10:45:00.000Z</time>
      </trkpt>
      <trkpt lat="47.50635" lon="6.73514">
        <ele>392.2</ele>
        <time>2014-10-26T10:45:01.000Z</time>
      </trkpt>
      <trkpt lat="47.50633" lon="6.73518">
        <ele>391.9</ele>
        <time>2014-10-26T10:45:02.000Z</time>
      </trkpt>
      <trkpt lat="47.50632" lon="6.73522">
        <ele>391.5</ele>
        <time>2014-10-26T10:45:03.000Z</time>
      </trkpt>
      <trkpt lat="47.5063" lon="6.73525">
        <ele>391.4</ele>
        <time>2014-10-26T10:45:04.000Z</time>
      </trkpt>
      <trkpt lat="47.50628" lon="6.7353">
        <ele>397.3</ele>
        <time>2014-10-26T10:45:07.000Z</time>
      </trkpt>
      <trkpt lat="47.50629" lon="6.73531">
        <ele>396.1</ele>
        <time>2014-10-26T10:45:08.000Z</time>
      </trkpt>
      <trkpt lat="47.50633" lon="6.73535">
        <ele>391.8</ele>
        <time>2014-10-26T10:45:10.000Z</time>
      </trkpt>
      <trkpt lat="47.50634" lon="6.73536">
        <ele>391.4</ele>
        <time>2014-10-26T10:45:11.000Z</time>
      </trkpt>
      <trkpt lat="47.50635" lon="6.73542">
        <ele>389</ele>
        <time>2014-10-26T10:45:15.000Z</time>
      </trkpt>
      <trkpt lat="47.50636" lon="6.73544">
        <ele>388.6</ele>
        <time>2014-10-26T10:45:16.000Z</time>
      </trkpt>
      <trkpt lat="47.50637" lon="6.73549">
        <ele>391.9</ele>
        <time>2014-10-26T10:45:21.000Z</time>
      </trkpt>
      <trkpt lat="47.50636" lon="6.73551">
        <ele>396.6</ele>
        <time>2014-10-26T10:45:22.000Z</time>
      </trkpt>
      <trkpt lat="47.50635" lon="6.73555">
        <ele>399.2</ele>
        <time>2014-10-26T10:45:24.000Z</time>
      </trkpt>
      <trkpt lat="47.50634" lon="6.73557">
        <ele>399.8</ele>
        <time>2014-10-26T10:45:25.000Z</time>
      </trkpt>
      <trkpt lat="47.50634" lon="6.73563">
        <ele>399.2</ele>
        <time>2014-10-26T10:45:31.000Z</time>
      </trkpt>
      <trkpt lat="47.50634" lon="6.73564">
        <ele>398.8</ele>
        <time>2014-10-26T10:45:32.000Z</time>
      </trkpt>
      <trkpt lat="47.50633" lon="6.7357">
        <ele>398.8</ele>
        <time>2014-10-26T10:45:39.000Z</time>
      </trkpt>
      <trkpt lat="47.50634" lon="6.73571">
        <ele>396.6</ele>
        <time>2014-10-26T10:45:40.000Z</time>
      </trkpt>
      <trkpt lat="47.50636" lon="6.73575">
        <ele>397</ele>
        <time>2014-10-26T10:45:42.000Z</time>
      </trkpt>
      <trkpt lat="47.50638" lon="6.73577">
        <ele>397.3</ele>
        <time>2014-10-26T10:45:43.000Z</time>
      </trkpt>
      <trkpt lat="47.50639" lon="6.7358">
        <ele>397.5</ele>
        <time>2014-10-26T10:45:44.000Z</time>
      </trkpt>
      <trkpt lat="47.50641" lon="6.73582">
        <ele>397.1</ele>
        <time>2014-10-26T10:45:45.000Z</time>
      </trkpt>
      <trkpt lat="47.50643" lon="6.73586">
        <ele>398.5</ele>
        <time>2014-10-26T10:45:46.000Z</time>
      </trkpt>
      <trkpt lat="47.50645" lon="6.73589">
        <ele>399.4</ele>
        <time>2014-10-26T10:45:47.000Z</time>
      </trkpt>
      <trkpt lat="47.50647" lon="6.73592">
        <ele>398.8</ele>
        <time>2014-10-26T10:45:48.000Z</time>
      </trkpt>
      <trkpt lat="47.50649" lon="6.73595">
        <ele>398.3</ele>
        <time>2014-10-26T10:45:49.000Z</time>
      </trkpt>
      <trkpt lat="47.5065" lon="6.73599">
        <ele>396.9</ele>
        <time>2014-10-26T10:45:50.000Z</time>
      </trkpt>
      <trkpt lat="47.50651" lon="6.73603">
        <ele>397.5</ele>
        <time>2014-10-26T10:45:51.063Z</time>
      </trkpt>
      <trkpt lat="47.50651" lon="6.73612">
        <ele>394.5</ele>
        <time>2014-10-26T10:45:52.000Z</time>
      </trkpt>
      <trkpt lat="47.50651" lon="6.7362">
        <ele>393.8</ele>
        <time>2014-10-26T10:45:53.000Z</time>
      </trkpt>
      <trkpt lat="47.50651" lon="6.73627">
        <ele>393.6</ele>
        <time>2014-10-26T10:45:54.000Z</time>
      </trkpt>
      <trkpt lat="47.50651" lon="6.73633">
        <ele>394.1</ele>
        <time>2014-10-26T10:45:55.000Z</time>
      </trkpt>
      <trkpt lat="47.50652" lon="6.73638">
        <ele>393.9</ele>
        <time>2014-10-26T10:45:56.000Z</time>
      </trkpt>
      <trkpt lat="47.50652" lon="6.73643">
        <ele>394.7</ele>
        <time>2014-10-26T10:45:57.060Z</time>
      </trkpt>
      <trkpt lat="47.50653" lon="6.73646">
        <ele>393.6</ele>
        <time>2014-10-26T10:45:58.000Z</time>
      </trkpt>
      <trkpt lat="47.50653" lon="6.73651">
        <ele>393.7</ele>
        <time>2014-10-26T10:45:59.000Z</time>
      </trkpt>
      <trkpt lat="47.50654" lon="6.73657">
        <ele>392.8</ele>
        <time>2014-10-26T10:46:00.000Z</time>
      </trkpt>
      <trkpt lat="47.50657" lon="6.73671">
        <ele>392.5</ele>
        <time>2014-10-26T10:46:01.000Z</time>
      </trkpt>
      <trkpt lat="47.50657" lon="6.73678">
        <ele>391.4</ele>
        <time>2014-10-26T10:46:02.000Z</time>
      </trkpt>
      <trkpt lat="47.50657" lon="6.73686">
        <ele>390.9</ele>
        <time>2014-10-26T10:46:03.000Z</time>
      </trkpt>
      <trkpt lat="47.50656" lon="6.73693">
        <ele>389.2</ele>
        <time>2014-10-26T10:46:04.000Z</time>
      </trkpt>
      <trkpt lat="47.50655" lon="6.73701">
        <ele>388.2</ele>
        <time>2014-10-26T10:46:05.000Z</time>
      </trkpt>
      <trkpt lat="47.50653" lon="6.73708">
        <ele>386.7</ele>
        <time>2014-10-26T10:46:06.000Z</time>
      </trkpt>
      <trkpt lat="47.50653" lon="6.73716">
        <ele>385.6</ele>
        <time>2014-10-26T10:46:07.000Z</time>
      </trkpt>
      <trkpt lat="47.50653" lon="6.73724">
        <ele>384.4</ele>
        <time>2014-10-26T10:46:08.000Z</time>
      </trkpt>
      <trkpt lat="47.50653" lon="6.73732">
        <ele>384.1</ele>
        <time>2014-10-26T10:46:09.000Z</time>
      </trkpt>
      <trkpt lat="47.50652" lon="6.73739">
        <ele>382.9</ele>
        <time>2014-10-26T10:46:10.000Z</time>
      </trkpt>
      <trkpt lat="47.50651" lon="6.73748">
        <ele>382.1</ele>
        <time>2014-10-26T10:46:11.000Z</time>
      </trkpt>
      <trkpt lat="47.50651" lon="6.73756">
        <ele>380.8</ele>
        <time>2014-10-26T10:46:12.000Z</time>
      </trkpt>
      <trkpt lat="47.50651" lon="6.73764">
        <ele>380.2</ele>
        <time>2014-10-26T10:46:13.000Z</time>
      </trkpt>
      <trkpt lat="47.5065" lon="6.7377">
        <ele>379.6</ele>
        <time>2014-10-26T10:46:14.000Z</time>
      </trkpt>
      <trkpt lat="47.50649" lon="6.73776">
        <ele>379.7</ele>
        <time>2014-10-26T10:46:15.067Z</time>
      </trkpt>
      <trkpt lat="47.50649" lon="6.73789">
        <ele>378.6</ele>
        <time>2014-10-26T10:46:16.000Z</time>
      </trkpt>
      <trkpt lat="47.50648" lon="6.73797">
        <ele>377.6</ele>
        <time>2014-10-26T10:46:17.000Z</time>
      </trkpt>
      <trkpt lat="47.50648" lon="6.73805">
        <ele>377.7</ele>
        <time>2014-10-26T10:46:18.000Z</time>
      </trkpt>
      <trkpt lat="47.50647" lon="6.73814">
        <ele>377.2</ele>
        <time>2014-10-26T10:46:19.000Z</time>
      </trkpt>
      <trkpt lat="47.50646" lon="6.73824">
        <ele>377</ele>
        <time>2014-10-26T10:46:20.000Z</time>
      </trkpt>
      <trkpt lat="47.50645" lon="6.73832">
        <ele>377.2</ele>
        <time>2014-10-26T10:46:21.000Z</time>
      </trkpt>
      <trkpt lat="47.50643" lon="6.7384">
        <ele>376.9</ele>
        <time>2014-10-26T10:46:22.000Z</time>
      </trkpt>
      <trkpt lat="47.50642" lon="6.73851">
        <ele>375.1</ele>
        <time>2014-10-26T10:46:23.000Z</time>
      </trkpt>
      <trkpt lat="47.50639" lon="6.73858">
        <ele>374.4</ele>
        <time>2014-10-26T10:46:24.000Z</time>
      </trkpt>
      <trkpt lat="47.50637" lon="6.73865">
        <ele>374.3</ele>
        <time>2014-10-26T10:46:25.000Z</time>
      </trkpt>
      <trkpt lat="47.50635" lon="6.73872">
        <ele>374.2</ele>
        <time>2014-10-26T10:46:26.000Z</time>
      </trkpt>
      <trkpt lat="47.50632" lon="6.73879">
        <ele>373.9</ele>
        <time>2014-10-26T10:46:27.000Z</time>
      </trkpt>
      <trkpt lat="47.50629" lon="6.73886">
        <ele>373.5</ele>
        <time>2014-10-26T10:46:28.000Z</time>
      </trkpt>
      <trkpt lat="47.50626" lon="6.73892">
        <ele>373.7</ele>
        <time>2014-10-26T10:46:29.000Z</time>
      </trkpt>
      <trkpt lat="47.50623" lon="6.73899">
        <ele>373.3</ele>
        <time>2014-10-26T10:46:30.000Z</time>
      </trkpt>
      <trkpt lat="47.5062" lon="6.73906">
        <ele>373.1</ele>
        <time>2014-10-26T10:46:31.000Z</time>
      </trkpt>
      <trkpt lat="47.50617" lon="6.73913">
        <ele>373.2</ele>
        <time>2014-10-26T10:46:32.000Z</time>
      </trkpt>
      <trkpt lat="47.50615" lon="6.73922">
        <ele>372.2</ele>
        <time>2014-10-26T10:46:33.000Z</time>
      </trkpt>
      <trkpt lat="47.50609" lon="6.73937">
        <ele>373.4</ele>
        <time>2014-10-26T10:46:36.000Z</time>
      </trkpt>
      <trkpt lat="47.50603" lon="6.73945">
        <ele>372.4</ele>
        <time>2014-10-26T10:46:37.000Z</time>
      </trkpt>
      <trkpt lat="47.506" lon="6.73954">
        <ele>371.5</ele>
        <time>2014-10-26T10:46:38.000Z</time>
      </trkpt>
      <trkpt lat="47.50597" lon="6.73963">
        <ele>371.4</ele>
        <time>2014-10-26T10:46:39.000Z</time>
      </trkpt>
      <trkpt lat="47.50594" lon="6.73972">
        <ele>371</ele>
        <time>2014-10-26T10:46:40.000Z</time>
      </trkpt>
      <trkpt lat="47.50592" lon="6.73979">
        <ele>371.2</ele>
        <time>2014-10-26T10:46:41.000Z</time>
      </trkpt>
      <trkpt lat="47.50589" lon="6.73988">
        <ele>371.2</ele>
        <time>2014-10-26T10:46:42.000Z</time>
      </trkpt>
      <trkpt lat="47.50585" lon="6.73996">
        <ele>370.9</ele>
        <time>2014-10-26T10:46:43.000Z</time>
      </trkpt>
      <trkpt lat="47.50583" lon="6.74004">
        <ele>370.4</ele>
        <time>2014-10-26T10:46:44.000Z</time>
      </trkpt>
      <trkpt lat="47.5058" lon="6.74012">
        <ele>369.9</ele>
        <time>2014-10-26T10:46:45.000Z</time>
      </trkpt>
      <trkpt lat="47.50576" lon="6.7402">
        <ele>369.9</ele>
        <time>2014-10-26T10:46:46.000Z</time>
      </trkpt>
      <trkpt lat="47.50573" lon="6.74027">
        <ele>369.2</ele>
        <time>2014-10-26T10:46:47.000Z</time>
      </trkpt>
      <trkpt lat="47.50571" lon="6.74033">
        <ele>371.1</ele>
        <time>2014-10-26T10:46:48.000Z</time>
      </trkpt>
      <trkpt lat="47.50569" lon="6.74039">
        <ele>370.7</ele>
        <time>2014-10-26T10:46:49.000Z</time>
      </trkpt>
      <trkpt lat="47.50568" lon="6.74046">
        <ele>370.7</ele>
        <time>2014-10-26T10:46:50.000Z</time>
      </trkpt>
      <trkpt lat="47.50566" lon="6.74052">
        <ele>370.6</ele>
        <time>2014-10-26T10:46:51.000Z</time>
      </trkpt>
      <trkpt lat="47.50564" lon="6.74058">
        <ele>370.8</ele>
        <time>2014-10-26T10:46:52.000Z</time>
      </trkpt>
      <trkpt lat="47.50561" lon="6.74064">
        <ele>370.6</ele>
        <time>2014-10-26T10:46:53.000Z</time>
      </trkpt>
      <trkpt lat="47.50559" lon="6.74069">
        <ele>371</ele>
        <time>2014-10-26T10:46:54.000Z</time>
      </trkpt>
      <trkpt lat="47.50559" lon="6.74075">
        <ele>373.5</ele>
        <time>2014-10-26T10:46:55.000Z</time>
      </trkpt>
      <trkpt lat="47.50556" lon="6.74081">
        <ele>373.2</ele>
        <time>2014-10-26T10:46:56.000Z</time>
      </trkpt>
      <trkpt lat="47.50551" lon="6.74088">
        <ele>372.8</ele>
        <time>2014-10-26T10:46:57.000Z</time>
      </trkpt>
      <trkpt lat="47.50549" lon="6.74096">
        <ele>372.2</ele>
        <time>2014-10-26T10:46:58.000Z</time>
      </trkpt>
      <trkpt lat="47.50547" lon="6.74102">
        <ele>372.8</ele>
        <time>2014-10-26T10:46:59.000Z</time>
      </trkpt>
      <trkpt lat="47.50545" lon="6.74108">
        <ele>373.5</ele>
        <time>2014-10-26T10:47:00.000Z</time>
      </trkpt>
      <trkpt lat="47.50544" lon="6.74112">
        <ele>374.4</ele>
        <time>2014-10-26T10:47:01.000Z</time>
      </trkpt>
      <trkpt lat="47.50539" lon="6.74117">
        <ele>374.8</ele>
        <time>2014-10-26T10:47:02.000Z</time>
      </trkpt>
      <trkpt lat="47.50536" lon="6.7412">
        <ele>375.4</ele>
        <time>2014-10-26T10:47:03.000Z</time>
      </trkpt>
      <trkpt lat="47.50532" lon="6.74124">
        <ele>376.4</ele>
        <time>2014-10-26T10:47:04.000Z</time>
      </trkpt>
      <trkpt lat="47.50528" lon="6.74128">
        <ele>377.7</ele>
        <time>2014-10-26T10:47:05.000Z</time>
      </trkpt>
      <trkpt lat="47.50524" lon="6.74131">
        <ele>376.9</ele>
        <time>2014-10-26T10:47:06.000Z</time>
      </trkpt>
      <trkpt lat="47.50521" lon="6.74137">
        <ele>376.5</ele>
        <time>2014-10-26T10:47:07.000Z</time>
      </trkpt>
      <trkpt lat="47.50518" lon="6.74143">
        <ele>376.5</ele>
        <time>2014-10-26T10:47:08.000Z</time>
      </trkpt>
      <trkpt lat="47.50516" lon="6.74149">
        <ele>376.4</ele>
        <time>2014-10-26T10:47:09.000Z</time>
      </trkpt>
      <trkpt lat="47.50514" lon="6.74154">
        <ele>378.1</ele>
        <time>2014-10-26T10:47:10.000Z</time>
      </trkpt>
      <trkpt lat="47.50513" lon="6.7416">
        <ele>378.1</ele>
        <time>2014-10-26T10:47:11.000Z</time>
      </trkpt>
      <trkpt lat="47.50511" lon="6.74165">
        <ele>379.1</ele>
        <time>2014-10-26T10:47:12.000Z</time>
      </trkpt>
      <trkpt lat="47.5051" lon="6.74171">
        <ele>379.4</ele>
        <time>2014-10-26T10:47:13.000Z</time>
      </trkpt>
      <trkpt lat="47.50508" lon="6.74176">
        <ele>380</ele>
        <time>2014-10-26T10:47:14.000Z</time>
      </trkpt>
      <trkpt lat="47.50507" lon="6.74181">
        <ele>380</ele>
        <time>2014-10-26T10:47:15.000Z</time>
      </trkpt>
      <trkpt lat="47.50506" lon="6.74186">
        <ele>380.3</ele>
        <time>2014-10-26T10:47:16.000Z</time>
      </trkpt>
      <trkpt lat="47.50505" lon="6.74189">
        <ele>381.1</ele>
        <time>2014-10-26T10:47:17.000Z</time>
      </trkpt>
      <trkpt lat="47.50503" lon="6.74195">
        <ele>381.8</ele>
        <time>2014-10-26T10:47:19.000Z</time>
      </trkpt>
      <trkpt lat="47.50501" lon="6.74197">
        <ele>380.9</ele>
        <time>2014-10-26T10:47:20.000Z</time>
      </trkpt>
      <trkpt lat="47.50499" lon="6.742">
        <ele>381.8</ele>
        <time>2014-10-26T10:47:21.000Z</time>
      </trkpt>
      <trkpt lat="47.50496" lon="6.74203">
        <ele>381.1</ele>
        <time>2014-10-26T10:47:22.000Z</time>
      </trkpt>
      <trkpt lat="47.50492" lon="6.74207">
        <ele>381</ele>
        <time>2014-10-26T10:47:23.000Z</time>
      </trkpt>
      <trkpt lat="47.50489" lon="6.74211">
        <ele>380.8</ele>
        <time>2014-10-26T10:47:24.000Z</time>
      </trkpt>
      <trkpt lat="47.50485" lon="6.74215">
        <ele>383.2</ele>
        <time>2014-10-26T10:47:25.000Z</time>
      </trkpt>
      <trkpt lat="47.50481" lon="6.74219">
        <ele>383</ele>
        <time>2014-10-26T10:47:26.000Z</time>
      </trkpt>
      <trkpt lat="47.50469" lon="6.74232">
        <ele>381.6</ele>
        <time>2014-10-26T10:47:27.000Z</time>
      </trkpt>
      <trkpt lat="47.50466" lon="6.74238">
        <ele>381.5</ele>
        <time>2014-10-26T10:47:28.000Z</time>
      </trkpt>
      <trkpt lat="47.50464" lon="6.74245">
        <ele>381.3</ele>
        <time>2014-10-26T10:47:29.000Z</time>
      </trkpt>
      <trkpt lat="47.5046" lon="6.74251">
        <ele>382.1</ele>
        <time>2014-10-26T10:47:30.000Z</time>
      </trkpt>
      <trkpt lat="47.50457" lon="6.74263">
        <ele>380.2</ele>
        <time>2014-10-26T10:47:31.000Z</time>
      </trkpt>
      <trkpt lat="47.50453" lon="6.7427">
        <ele>379.5</ele>
        <time>2014-10-26T10:47:32.000Z</time>
      </trkpt>
      <trkpt lat="47.5045" lon="6.74277">
        <ele>380.8</ele>
        <time>2014-10-26T10:47:33.000Z</time>
      </trkpt>
      <trkpt lat="47.50447" lon="6.74285">
        <ele>381.1</ele>
        <time>2014-10-26T10:47:34.000Z</time>
      </trkpt>
      <trkpt lat="47.50423" lon="6.74332">
        <ele>380.2</ele>
        <time>2014-10-26T10:47:42.000Z</time>
      </trkpt>
      <trkpt lat="47.50421" lon="6.74337">
        <ele>380.6</ele>
        <time>2014-10-26T10:47:43.000Z</time>
      </trkpt>
      <trkpt lat="47.5042" lon="6.74342">
        <ele>380.6</ele>
        <time>2014-10-26T10:47:44.000Z</time>
      </trkpt>
      <trkpt lat="47.50419" lon="6.74348">
        <ele>380.1</ele>
        <time>2014-10-26T10:47:45.000Z</time>
      </trkpt>
      <trkpt lat="47.50415" lon="6.74352">
        <ele>380.2</ele>
        <time>2014-10-26T10:47:46.000Z</time>
      </trkpt>
      <trkpt lat="47.50413" lon="6.74357">
        <ele>380.7</ele>
        <time>2014-10-26T10:47:47.000Z</time>
      </trkpt>
      <trkpt lat="47.50411" lon="6.74362">
        <ele>381.4</ele>
        <time>2014-10-26T10:47:48.000Z</time>
      </trkpt>
      <trkpt lat="47.50409" lon="6.74367">
        <ele>381.8</ele>
        <time>2014-10-26T10:47:49.000Z</time>
      </trkpt>
      <trkpt lat="47.50407" lon="6.74374">
        <ele>381</ele>
        <time>2014-10-26T10:47:50.000Z</time>
      </trkpt>
      <trkpt lat="47.50407" lon="6.7438">
        <ele>377.4</ele>
        <time>2014-10-26T10:47:51.000Z</time>
      </trkpt>
      <trkpt lat="47.50406" lon="6.74386">
        <ele>375.2</ele>
        <time>2014-10-26T10:47:52.000Z</time>
      </trkpt>
      <trkpt lat="47.50405" lon="6.74391">
        <ele>372.9</ele>
        <time>2014-10-26T10:47:53.000Z</time>
      </trkpt>
      <trkpt lat="47.50407" lon="6.74396">
        <ele>370</ele>
        <time>2014-10-26T10:47:57.000Z</time>
      </trkpt>
      <trkpt lat="47.50408" lon="6.74397">
        <ele>369.8</ele>
        <time>2014-10-26T10:47:58.000Z</time>
      </trkpt>
      <trkpt lat="47.50407" lon="6.74399">
        <ele>365.8</ele>
        <time>2014-10-26T10:48:36.000Z</time>
      </trkpt>
      <trkpt lat="47.5041" lon="6.74404">
        <ele>366.3</ele>
        <time>2014-10-26T10:48:37.000Z</time>
      </trkpt>
      <trkpt lat="47.50411" lon="6.74407">
        <ele>366.3</ele>
        <time>2014-10-26T10:48:38.000Z</time>
      </trkpt>
      <trkpt lat="47.50413" lon="6.7441">
        <ele>367.2</ele>
        <time>2014-10-26T10:48:39.000Z</time>
      </trkpt>
      <trkpt lat="47.50416" lon="6.74413">
        <ele>365.7</ele>
        <time>2014-10-26T10:48:40.000Z</time>
      </trkpt>
      <trkpt lat="47.5042" lon="6.74414">
        <ele>364.9</ele>
        <time>2014-10-26T10:48:41.000Z</time>
      </trkpt>
      <trkpt lat="47.50423" lon="6.74416">
        <ele>366.5</ele>
        <time>2014-10-26T10:48:42.000Z</time>
      </trkpt>
      <trkpt lat="47.50427" lon="6.74417">
        <ele>366.2</ele>
        <time>2014-10-26T10:48:43.000Z</time>
      </trkpt>
      <trkpt lat="47.5043" lon="6.74418">
        <ele>366.1</ele>
        <time>2014-10-26T10:48:44.000Z</time>
      </trkpt>
      <trkpt lat="47.50433" lon="6.7442">
        <ele>365.4</ele>
        <time>2014-10-26T10:48:45.000Z</time>
      </trkpt>
      <trkpt lat="47.50437" lon="6.74422">
        <ele>365.1</ele>
        <time>2014-10-26T10:48:46.000Z</time>
      </trkpt>
      <trkpt lat="47.50441" lon="6.74424">
        <ele>364.4</ele>
        <time>2014-10-26T10:48:47.000Z</time>
      </trkpt>
      <trkpt lat="47.50445" lon="6.74426">
        <ele>364.3</ele>
        <time>2014-10-26T10:48:48.055Z</time>
      </trkpt>
      <trkpt lat="47.50449" lon="6.74428">
        <ele>364.6</ele>
        <time>2014-10-26T10:48:49.000Z</time>
      </trkpt>
      <trkpt lat="47.50452" lon="6.74431">
        <ele>365.1</ele>
        <time>2014-10-26T10:48:50.000Z</time>
      </trkpt>
      <trkpt lat="47.50455" lon="6.74435">
        <ele>366.9</ele>
        <time>2014-10-26T10:48:51.000Z</time>
      </trkpt>
      <trkpt lat="47.50457" lon="6.7444">
        <ele>367.2</ele>
        <time>2014-10-26T10:48:52.000Z</time>
      </trkpt>
      <trkpt lat="47.50457" lon="6.74446">
        <ele>366.8</ele>
        <time>2014-10-26T10:48:53.000Z</time>
      </trkpt>
      <trkpt lat="47.50457" lon="6.74453">
        <ele>367.2</ele>
        <time>2014-10-26T10:48:54.000Z</time>
      </trkpt>
      <trkpt lat="47.50458" lon="6.74459">
        <ele>367.1</ele>
        <time>2014-10-26T10:48:55.057Z</time>
      </trkpt>
      <trkpt lat="47.50454" lon="6.74472">
        <ele>367</ele>
        <time>2014-10-26T10:48:56.000Z</time>
      </trkpt>
      <trkpt lat="47.50454" lon="6.74477">
        <ele>366.6</ele>
        <time>2014-10-26T10:48:57.000Z</time>
      </trkpt>
      <trkpt lat="47.50455" lon="6.74484">
        <ele>367.2</ele>
        <time>2014-10-26T10:48:58.000Z</time>
      </trkpt>
      <trkpt lat="47.50455" lon="6.74489">
        <ele>367</ele>
        <time>2014-10-26T10:48:59.000Z</time>
      </trkpt>
      <trkpt lat="47.50455" lon="6.74495">
        <ele>367.2</ele>
        <time>2014-10-26T10:49:00.000Z</time>
      </trkpt>
      <trkpt lat="47.50455" lon="6.74501">
        <ele>367.1</ele>
        <time>2014-10-26T10:49:01.000Z</time>
      </trkpt>
      <trkpt lat="47.50455" lon="6.74507">
        <ele>367.2</ele>
        <time>2014-10-26T10:49:02.000Z</time>
      </trkpt>
      <trkpt lat="47.50456" lon="6.74514">
        <ele>367.1</ele>
        <time>2014-10-26T10:49:03.000Z</time>
      </trkpt>
      <trkpt lat="47.50456" lon="6.74521">
        <ele>366.5</ele>
        <time>2014-10-26T10:49:04.000Z</time>
      </trkpt>
      <trkpt lat="47.50456" lon="6.74528">
        <ele>366.2</ele>
        <time>2014-10-26T10:49:05.000Z</time>
      </trkpt>
      <trkpt lat="47.50457" lon="6.74536">
        <ele>366.7</ele>
        <time>2014-10-26T10:49:06.000Z</time>
      </trkpt>
      <trkpt lat="47.50457" lon="6.74544">
        <ele>366.5</ele>
        <time>2014-10-26T10:49:07.000Z</time>
      </trkpt>
      <trkpt lat="47.50457" lon="6.74552">
        <ele>366.8</ele>
        <time>2014-10-26T10:49:08.000Z</time>
      </trkpt>
      <trkpt lat="47.50458" lon="6.74559">
        <ele>366.9</ele>
        <time>2014-10-26T10:49:09.000Z</time>
      </trkpt>
      <trkpt lat="47.50459" lon="6.74567">
        <ele>366.8</ele>
        <time>2014-10-26T10:49:10.000Z</time>
      </trkpt>
      <trkpt lat="47.50459" lon="6.74574">
        <ele>366.6</ele>
        <time>2014-10-26T10:49:11.000Z</time>
      </trkpt>
      <trkpt lat="47.5046" lon="6.74581">
        <ele>367.1</ele>
        <time>2014-10-26T10:49:12.000Z</time>
      </trkpt>
      <trkpt lat="47.5046" lon="6.74587">
        <ele>367.6</ele>
        <time>2014-10-26T10:49:13.000Z</time>
      </trkpt>
      <trkpt lat="47.5046" lon="6.74594">
        <ele>367.8</ele>
        <time>2014-10-26T10:49:14.000Z</time>
      </trkpt>
      <trkpt lat="47.5046" lon="6.74602">
        <ele>367.5</ele>
        <time>2014-10-26T10:49:15.000Z</time>
      </trkpt>
      <trkpt lat="47.50461" lon="6.74608">
        <ele>368</ele>
        <time>2014-10-26T10:49:16.000Z</time>
      </trkpt>
      <trkpt lat="47.50462" lon="6.74616">
        <ele>367.2</ele>
        <time>2014-10-26T10:49:17.000Z</time>
      </trkpt>
      <trkpt lat="47.50463" lon="6.74623">
        <ele>366.2</ele>
        <time>2014-10-26T10:49:18.054Z</time>
      </trkpt>
      <trkpt lat="47.50465" lon="6.74628">
        <ele>367.2</ele>
        <time>2014-10-26T10:49:19.000Z</time>
      </trkpt>
      <trkpt lat="47.50467" lon="6.74634">
        <ele>367</ele>
        <time>2014-10-26T10:49:19.999Z</time>
      </trkpt>
      <trkpt lat="47.50475" lon="6.74631">
        <ele>367.8</ele>
        <time>2014-10-26T10:49:21.000Z</time>
      </trkpt>
      <trkpt lat="47.5048" lon="6.7463">
        <ele>367.1</ele>
        <time>2014-10-26T10:49:22.000Z</time>
      </trkpt>
      <trkpt lat="47.50486" lon="6.7463">
        <ele>365.7</ele>
        <time>2014-10-26T10:49:23.000Z</time>
      </trkpt>
      <trkpt lat="47.50492" lon="6.7463">
        <ele>364.5</ele>
        <time>2014-10-26T10:49:24.000Z</time>
      </trkpt>
      <trkpt lat="47.50497" lon="6.74629">
        <ele>363.9</ele>
        <time>2014-10-26T10:49:25.000Z</time>
      </trkpt>
      <trkpt lat="47.50503" lon="6.74629">
        <ele>363.4</ele>
        <time>2014-10-26T10:49:26.000Z</time>
      </trkpt>
      <trkpt lat="47.50508" lon="6.74627">
        <ele>363.3</ele>
        <time>2014-10-26T10:49:27.049Z</time>
      </trkpt>
      <trkpt lat="47.50514" lon="6.74632">
        <ele>362.1</ele>
        <time>2014-10-26T10:49:28.000Z</time>
      </trkpt>
      <trkpt lat="47.50517" lon="6.74637">
        <ele>362.2</ele>
        <time>2014-10-26T10:49:29.000Z</time>
      </trkpt>
      <trkpt lat="47.50519" lon="6.74644">
        <ele>361.5</ele>
        <time>2014-10-26T10:49:30.000Z</time>
      </trkpt>
      <trkpt lat="47.50518" lon="6.74653">
        <ele>360.5</ele>
        <time>2014-10-26T10:49:31.000Z</time>
      </trkpt>
      <trkpt lat="47.50517" lon="6.74661">
        <ele>360.4</ele>
        <time>2014-10-26T10:49:32.000Z</time>
      </trkpt>
      <trkpt lat="47.50515" lon="6.74668">
        <ele>359.7</ele>
        <time>2014-10-26T10:49:33.000Z</time>
      </trkpt>
      <trkpt lat="47.50514" lon="6.74684">
        <ele>361.3</ele>
        <time>2014-10-26T10:49:36.000Z</time>
      </trkpt>
      <trkpt lat="47.50514" lon="6.74693">
        <ele>361</ele>
        <time>2014-10-26T10:49:37.000Z</time>
      </trkpt>
      <trkpt lat="47.50513" lon="6.74699">
        <ele>360.9</ele>
        <time>2014-10-26T10:49:38.000Z</time>
      </trkpt>
      <trkpt lat="47.50512" lon="6.74707">
        <ele>360.9</ele>
        <time>2014-10-26T10:49:39.000Z</time>
      </trkpt>
      <trkpt lat="47.50511" lon="6.74715">
        <ele>360.5</ele>
        <time>2014-10-26T10:49:40.000Z</time>
      </trkpt>
      <trkpt lat="47.5051" lon="6.74723">
        <ele>359.3</ele>
        <time>2014-10-26T10:49:41.000Z</time>
      </trkpt>
      <trkpt lat="47.50509" lon="6.74731">
        <ele>359.5</ele>
        <time>2014-10-26T10:49:42.000Z</time>
      </trkpt>
      <trkpt lat="47.50507" lon="6.74739">
        <ele>359.4</ele>
        <time>2014-10-26T10:49:43.000Z</time>
      </trkpt>
      <trkpt lat="47.50506" lon="6.74746">
        <ele>359.3</ele>
        <time>2014-10-26T10:49:44.000Z</time>
      </trkpt>
      <trkpt lat="47.50506" lon="6.74755">
        <ele>359</ele>
        <time>2014-10-26T10:49:45.000Z</time>
      </trkpt>
      <trkpt lat="47.50504" lon="6.74763">
        <ele>358.5</ele>
        <time>2014-10-26T10:49:46.000Z</time>
      </trkpt>
      <trkpt lat="47.50501" lon="6.74771">
        <ele>358.1</ele>
        <time>2014-10-26T10:49:47.000Z</time>
      </trkpt>
      <trkpt lat="47.50498" lon="6.7478">
        <ele>358.1</ele>
        <time>2014-10-26T10:49:48.000Z</time>
      </trkpt>
      <trkpt lat="47.50494" lon="6.74788">
        <ele>356.8</ele>
        <time>2014-10-26T10:49:49.000Z</time>
      </trkpt>
      <trkpt lat="47.50491" lon="6.74797">
        <ele>356.6</ele>
        <time>2014-10-26T10:49:50.000Z</time>
      </trkpt>
      <trkpt lat="47.50487" lon="6.74805">
        <ele>356.6</ele>
        <time>2014-10-26T10:49:51.000Z</time>
      </trkpt>
      <trkpt lat="47.50485" lon="6.74813">
        <ele>356.6</ele>
        <time>2014-10-26T10:49:52.000Z</time>
      </trkpt>
      <trkpt lat="47.50483" lon="6.7482">
        <ele>356.4</ele>
        <time>2014-10-26T10:49:53.000Z</time>
      </trkpt>
      <trkpt lat="47.5048" lon="6.74825">
        <ele>356.2</ele>
        <time>2014-10-26T10:49:54.000Z</time>
      </trkpt>
      <trkpt lat="47.50479" lon="6.74829">
        <ele>356.1</ele>
        <time>2014-10-26T10:49:55.000Z</time>
      </trkpt>
      <trkpt lat="47.5048" lon="6.74834">
        <ele>355.7</ele>
        <time>2014-10-26T10:49:56.000Z</time>
      </trkpt>
      <trkpt lat="47.50482" lon="6.74839">
        <ele>355.4</ele>
        <time>2014-10-26T10:49:57.000Z</time>
      </trkpt>
      <trkpt lat="47.50484" lon="6.74844">
        <ele>354.4</ele>
        <time>2014-10-26T10:49:58.000Z</time>
      </trkpt>
      <trkpt lat="47.50487" lon="6.74849">
        <ele>354.1</ele>
        <time>2014-10-26T10:49:59.000Z</time>
      </trkpt>
      <trkpt lat="47.50491" lon="6.74854">
        <ele>353.3</ele>
        <time>2014-10-26T10:50:00.000Z</time>
      </trkpt>
      <trkpt lat="47.50494" lon="6.7486">
        <ele>352.8</ele>
        <time>2014-10-26T10:50:01.000Z</time>
      </trkpt>
      <trkpt lat="47.50498" lon="6.74867">
        <ele>352.5</ele>
        <time>2014-10-26T10:50:02.000Z</time>
      </trkpt>
      <trkpt lat="47.50502" lon="6.74875">
        <ele>352.3</ele>
        <time>2014-10-26T10:50:03.000Z</time>
      </trkpt>
      <trkpt lat="47.50506" lon="6.74883">
        <ele>351.8</ele>
        <time>2014-10-26T10:50:04.000Z</time>
      </trkpt>
      <trkpt lat="47.50509" lon="6.7489">
        <ele>351.2</ele>
        <time>2014-10-26T10:50:05.000Z</time>
      </trkpt>
      <trkpt lat="47.50513" lon="6.74901">
        <ele>349.9</ele>
        <time>2014-10-26T10:50:06.000Z</time>
      </trkpt>
      <trkpt lat="47.50516" lon="6.74912">
        <ele>348.9</ele>
        <time>2014-10-26T10:50:07.000Z</time>
      </trkpt>
      <trkpt lat="47.50517" lon="6.74924">
        <ele>347.8</ele>
        <time>2014-10-26T10:50:08.000Z</time>
      </trkpt>
      <trkpt lat="47.50518" lon="6.74935">
        <ele>347.7</ele>
        <time>2014-10-26T10:50:09.000Z</time>
      </trkpt>
      <trkpt lat="47.50518" lon="6.74947">
        <ele>346.7</ele>
        <time>2014-10-26T10:50:10.000Z</time>
      </trkpt>
      <trkpt lat="47.50516" lon="6.7496">
        <ele>345.8</ele>
        <time>2014-10-26T10:50:11.000Z</time>
      </trkpt>
      <trkpt lat="47.50514" lon="6.74972">
        <ele>344.8</ele>
        <time>2014-10-26T10:50:12.000Z</time>
      </trkpt>
      <trkpt lat="47.50512" lon="6.74985">
        <ele>344.1</ele>
        <time>2014-10-26T10:50:13.000Z</time>
      </trkpt>
      <trkpt lat="47.5051" lon="6.74998">
        <ele>343</ele>
        <time>2014-10-26T10:50:14.000Z</time>
      </trkpt>
      <trkpt lat="47.50508" lon="6.75011">
        <ele>342.7</ele>
        <time>2014-10-26T10:50:15.000Z</time>
      </trkpt>
      <trkpt lat="47.50507" lon="6.75026">
        <ele>341.5</ele>
        <time>2014-10-26T10:50:16.000Z</time>
      </trkpt>
      <trkpt lat="47.50506" lon="6.7504">
        <ele>339.9</ele>
        <time>2014-10-26T10:50:17.000Z</time>
      </trkpt>
      <trkpt lat="47.50506" lon="6.75054">
        <ele>340</ele>
        <time>2014-10-26T10:50:18.000Z</time>
      </trkpt>
      <trkpt lat="47.50506" lon="6.75069">
        <ele>338.4</ele>
        <time>2014-10-26T10:50:19.000Z</time>
      </trkpt>
      <trkpt lat="47.50506" lon="6.75082">
        <ele>338</ele>
        <time>2014-10-26T10:50:20.000Z</time>
      </trkpt>
      <trkpt lat="47.50506" lon="6.75095">
        <ele>336.6</ele>
        <time>2014-10-26T10:50:21.000Z</time>
      </trkpt>
      <trkpt lat="47.50508" lon="6.75106">
        <ele>335.4</ele>
        <time>2014-10-26T10:50:22.000Z</time>
      </trkpt>
      <trkpt lat="47.50507" lon="6.75116">
        <ele>333.9</ele>
        <time>2014-10-26T10:50:23.000Z</time>
      </trkpt>
      <trkpt lat="47.50506" lon="6.75125">
        <ele>332.8</ele>
        <time>2014-10-26T10:50:24.000Z</time>
      </trkpt>
      <trkpt lat="47.50504" lon="6.75132">
        <ele>331.2</ele>
        <time>2014-10-26T10:50:25.000Z</time>
      </trkpt>
      <trkpt lat="47.50502" lon="6.75137">
        <ele>330.8</ele>
        <time>2014-10-26T10:50:26.000Z</time>
      </trkpt>
      <trkpt lat="47.505" lon="6.75141">
        <ele>329.8</ele>
        <time>2014-10-26T10:50:27.000Z</time>
      </trkpt>
      <trkpt lat="47.50498" lon="6.75145">
        <ele>328.1</ele>
        <time>2014-10-26T10:50:28.000Z</time>
      </trkpt>
      <trkpt lat="47.50494" lon="6.75148">
        <ele>326.8</ele>
        <time>2014-10-26T10:50:29.000Z</time>
      </trkpt>
      <trkpt lat="47.5049" lon="6.75151">
        <ele>326.5</ele>
        <time>2014-10-26T10:50:30.000Z</time>
      </trkpt>
      <trkpt lat="47.50487" lon="6.75155">
        <ele>325.9</ele>
        <time>2014-10-26T10:50:31.000Z</time>
      </trkpt>
      <trkpt lat="47.50486" lon="6.7516">
        <ele>326.2</ele>
        <time>2014-10-26T10:50:32.000Z</time>
      </trkpt>
      <trkpt lat="47.50484" lon="6.75166">
        <ele>325.9</ele>
        <time>2014-10-26T10:50:33.000Z</time>
      </trkpt>
      <trkpt lat="47.50481" lon="6.75181">
        <ele>326.6</ele>
        <time>2014-10-26T10:50:36.000Z</time>
      </trkpt>
      <trkpt lat="47.50484" lon="6.75198">
        <ele>326.5</ele>
        <time>2014-10-26T10:50:37.000Z</time>
      </trkpt>
      <trkpt lat="47.50486" lon="6.75209">
        <ele>326.5</ele>
        <time>2014-10-26T10:50:38.000Z</time>
      </trkpt>
      <trkpt lat="47.50487" lon="6.75221">
        <ele>326.1</ele>
        <time>2014-10-26T10:50:39.000Z</time>
      </trkpt>
      <trkpt lat="47.50488" lon="6.75231">
        <ele>328.2</ele>
        <time>2014-10-26T10:50:40.000Z</time>
      </trkpt>
      <trkpt lat="47.50489" lon="6.7524">
        <ele>329.7</ele>
        <time>2014-10-26T10:50:41.000Z</time>
      </trkpt>
      <trkpt lat="47.5049" lon="6.75249">
        <ele>329.7</ele>
        <time>2014-10-26T10:50:42.000Z</time>
      </trkpt>
      <trkpt lat="47.50491" lon="6.75258">
        <ele>329.7</ele>
        <time>2014-10-26T10:50:43.000Z</time>
      </trkpt>
      <trkpt lat="47.50492" lon="6.75267">
        <ele>329.2</ele>
        <time>2014-10-26T10:50:44.000Z</time>
      </trkpt>
      <trkpt lat="47.50492" lon="6.75275">
        <ele>329.7</ele>
        <time>2014-10-26T10:50:45.000Z</time>
      </trkpt>
      <trkpt lat="47.50494" lon="6.75284">
        <ele>329.6</ele>
        <time>2014-10-26T10:50:46.000Z</time>
      </trkpt>
      <trkpt lat="47.50495" lon="6.75293">
        <ele>329.7</ele>
        <time>2014-10-26T10:50:47.045Z</time>
      </trkpt>
      <trkpt lat="47.50496" lon="6.753">
        <ele>329.4</ele>
        <time>2014-10-26T10:50:48.000Z</time>
      </trkpt>
      <trkpt lat="47.50498" lon="6.75309">
        <ele>329</ele>
        <time>2014-10-26T10:50:49.000Z</time>
      </trkpt>
      <trkpt lat="47.50499" lon="6.75318">
        <ele>329.4</ele>
        <time>2014-10-26T10:50:50.000Z</time>
      </trkpt>
      <trkpt lat="47.50501" lon="6.75327">
        <ele>329.6</ele>
        <time>2014-10-26T10:50:51.000Z</time>
      </trkpt>
      <trkpt lat="47.50502" lon="6.75333">
        <ele>331.2</ele>
        <time>2014-10-26T10:50:52.000Z</time>
      </trkpt>
      <trkpt lat="47.50505" lon="6.75339">
        <ele>331.3</ele>
        <time>2014-10-26T10:50:53.000Z</time>
      </trkpt>
      <trkpt lat="47.50509" lon="6.75344">
        <ele>331.3</ele>
        <time>2014-10-26T10:50:54.000Z</time>
      </trkpt>
      <trkpt lat="47.50512" lon="6.7535">
        <ele>331.5</ele>
        <time>2014-10-26T10:50:55.000Z</time>
      </trkpt>
      <trkpt lat="47.50515" lon="6.75355">
        <ele>331.8</ele>
        <time>2014-10-26T10:50:56.000Z</time>
      </trkpt>
      <trkpt lat="47.5052" lon="6.75358">
        <ele>332.5</ele>
        <time>2014-10-26T10:50:57.000Z</time>
      </trkpt>
      <trkpt lat="47.50525" lon="6.75361">
        <ele>333</ele>
        <time>2014-10-26T10:50:58.000Z</time>
      </trkpt>
      <trkpt lat="47.5053" lon="6.75364">
        <ele>333.3</ele>
        <time>2014-10-26T10:50:59.000Z</time>
      </trkpt>
      <trkpt lat="47.50535" lon="6.75365">
        <ele>334.5</ele>
        <time>2014-10-26T10:51:00.000Z</time>
      </trkpt>
      <trkpt lat="47.50541" lon="6.75369">
        <ele>334.3</ele>
        <time>2014-10-26T10:51:01.000Z</time>
      </trkpt>
      <trkpt lat="47.50547" lon="6.75372">
        <ele>334.1</ele>
        <time>2014-10-26T10:51:02.000Z</time>
      </trkpt>
      <trkpt lat="47.50552" lon="6.75374">
        <ele>334.2</ele>
        <time>2014-10-26T10:51:03.000Z</time>
      </trkpt>
      <trkpt lat="47.50558" lon="6.75378">
        <ele>333.1</ele>
        <time>2014-10-26T10:51:04.000Z</time>
      </trkpt>
      <trkpt lat="47.50563" lon="6.75379">
        <ele>333.4</ele>
        <time>2014-10-26T10:51:05.000Z</time>
      </trkpt>
      <trkpt lat="47.50567" lon="6.7538">
        <ele>334.3</ele>
        <time>2014-10-26T10:51:06.000Z</time>
      </trkpt>
      <trkpt lat="47.50571" lon="6.7538">
        <ele>334.7</ele>
        <time>2014-10-26T10:51:07.000Z</time>
      </trkpt>
      <trkpt lat="47.50576" lon="6.75381">
        <ele>335.3</ele>
        <time>2014-10-26T10:51:08.000Z</time>
      </trkpt>
      <trkpt lat="47.50581" lon="6.75381">
        <ele>335.5</ele>
        <time>2014-10-26T10:51:09.000Z</time>
      </trkpt>
      <trkpt lat="47.50586" lon="6.75383">
        <ele>334.8</ele>
        <time>2014-10-26T10:51:10.000Z</time>
      </trkpt>
      <trkpt lat="47.5059" lon="6.75383">
        <ele>334.8</ele>
        <time>2014-10-26T10:51:11.000Z</time>
      </trkpt>
      <trkpt lat="47.50593" lon="6.75383">
        <ele>336.6</ele>
        <time>2014-10-26T10:51:12.000Z</time>
      </trkpt>
      <trkpt lat="47.50598" lon="6.75385">
        <ele>335.2</ele>
        <time>2014-10-26T10:51:13.000Z</time>
      </trkpt>
      <trkpt lat="47.50602" lon="6.75385">
        <ele>335.9</ele>
        <time>2014-10-26T10:51:14.000Z</time>
      </trkpt>
      <trkpt lat="47.50605" lon="6.75385">
        <ele>337.5</ele>
        <time>2014-10-26T10:51:15.000Z</time>
      </trkpt>
      <trkpt lat="47.5061" lon="6.75386">
        <ele>338.1</ele>
        <time>2014-10-26T10:51:16.000Z</time>
      </trkpt>
      <trkpt lat="47.50613" lon="6.75387">
        <ele>338.6</ele>
        <time>2014-10-26T10:51:17.042Z</time>
      </trkpt>
      <trkpt lat="47.50617" lon="6.75388">
        <ele>338.3</ele>
        <time>2014-10-26T10:51:18.000Z</time>
      </trkpt>
      <trkpt lat="47.5062" lon="6.75389">
        <ele>338.4</ele>
        <time>2014-10-26T10:51:18.999Z</time>
      </trkpt>
      <trkpt lat="47.50624" lon="6.75389">
        <ele>339.5</ele>
        <time>2014-10-26T10:51:20.000Z</time>
      </trkpt>
      <trkpt lat="47.50628" lon="6.7539">
        <ele>339.7</ele>
        <time>2014-10-26T10:51:21.000Z</time>
      </trkpt>
      <trkpt lat="47.50631" lon="6.75391">
        <ele>339.2</ele>
        <time>2014-10-26T10:51:22.000Z</time>
      </trkpt>
      <trkpt lat="47.50634" lon="6.75392">
        <ele>339.1</ele>
        <time>2014-10-26T10:51:23.000Z</time>
      </trkpt>
      <trkpt lat="47.50638" lon="6.75393">
        <ele>339.2</ele>
        <time>2014-10-26T10:51:24.046Z</time>
      </trkpt>
      <trkpt lat="47.50641" lon="6.75394">
        <ele>338.9</ele>
        <time>2014-10-26T10:51:25.000Z</time>
      </trkpt>
      <trkpt lat="47.50644" lon="6.75395">
        <ele>339.3</ele>
        <time>2014-10-26T10:51:26.000Z</time>
      </trkpt>
      <trkpt lat="47.50647" lon="6.75396">
        <ele>339.5</ele>
        <time>2014-10-26T10:51:27.000Z</time>
      </trkpt>
      <trkpt lat="47.5065" lon="6.75396">
        <ele>340.2</ele>
        <time>2014-10-26T10:51:27.999Z</time>
      </trkpt>
      <trkpt lat="47.50653" lon="6.75398">
        <ele>339</ele>
        <time>2014-10-26T10:51:29.000Z</time>
      </trkpt>
      <trkpt lat="47.50656" lon="6.754">
        <ele>339.5</ele>
        <time>2014-10-26T10:51:30.000Z</time>
      </trkpt>
      <trkpt lat="47.50659" lon="6.75402">
        <ele>338.8</ele>
        <time>2014-10-26T10:51:31.000Z</time>
      </trkpt>
      <trkpt lat="47.50662" lon="6.75404">
        <ele>338.7</ele>
        <time>2014-10-26T10:51:32.000Z</time>
      </trkpt>
      <trkpt lat="47.50665" lon="6.75406">
        <ele>338.9</ele>
        <time>2014-10-26T10:51:33.042Z</time>
      </trkpt>
      <trkpt lat="47.50682" lon="6.7543">
        <ele>342.5</ele>
        <time>2014-10-26T10:51:41.000Z</time>
      </trkpt>
      <trkpt lat="47.50683" lon="6.75434">
        <ele>341.9</ele>
        <time>2014-10-26T10:51:42.000Z</time>
      </trkpt>
      <trkpt lat="47.50684" lon="6.75438">
        <ele>342.4</ele>
        <time>2014-10-26T10:51:43.000Z</time>
      </trkpt>
      <trkpt lat="47.50686" lon="6.75442">
        <ele>342.8</ele>
        <time>2014-10-26T10:51:44.000Z</time>
      </trkpt>
      <trkpt lat="47.50687" lon="6.75446">
        <ele>343.1</ele>
        <time>2014-10-26T10:51:45.000Z</time>
      </trkpt>
      <trkpt lat="47.50689" lon="6.75451">
        <ele>342.9</ele>
        <time>2014-10-26T10:51:46.000Z</time>
      </trkpt>
      <trkpt lat="47.5069" lon="6.75455">
        <ele>342.8</ele>
        <time>2014-10-26T10:51:47.000Z</time>
      </trkpt>
      <trkpt lat="47.50692" lon="6.75459">
        <ele>342.6</ele>
        <time>2014-10-26T10:51:48.000Z</time>
      </trkpt>
      <trkpt lat="47.50693" lon="6.75463">
        <ele>342.6</ele>
        <time>2014-10-26T10:51:49.000Z</time>
      </trkpt>
      <trkpt lat="47.50694" lon="6.75467">
        <ele>343</ele>
        <time>2014-10-26T10:51:50.000Z</time>
      </trkpt>
      <trkpt lat="47.50696" lon="6.75471">
        <ele>343.6</ele>
        <time>2014-10-26T10:51:51.000Z</time>
      </trkpt>
      <trkpt lat="47.50697" lon="6.75474">
        <ele>343.8</ele>
        <time>2014-10-26T10:51:52.000Z</time>
      </trkpt>
      <trkpt lat="47.50698" lon="6.75478">
        <ele>342.4</ele>
        <time>2014-10-26T10:51:53.000Z</time>
      </trkpt>
      <trkpt lat="47.507" lon="6.75482">
        <ele>342.2</ele>
        <time>2014-10-26T10:51:54.000Z</time>
      </trkpt>
      <trkpt lat="47.50701" lon="6.75487">
        <ele>342</ele>
        <time>2014-10-26T10:51:55.000Z</time>
      </trkpt>
      <trkpt lat="47.50702" lon="6.75491">
        <ele>342.4</ele>
        <time>2014-10-26T10:51:56.000Z</time>
      </trkpt>
      <trkpt lat="47.50703" lon="6.75495">
        <ele>342.3</ele>
        <time>2014-10-26T10:51:57.000Z</time>
      </trkpt>
      <trkpt lat="47.50704" lon="6.75498">
        <ele>342.2</ele>
        <time>2014-10-26T10:51:58.000Z</time>
      </trkpt>
      <trkpt lat="47.50705" lon="6.75501">
        <ele>343.6</ele>
        <time>2014-10-26T10:51:59.000Z</time>
      </trkpt>
      <trkpt lat="47.50707" lon="6.75507">
        <ele>344.1</ele>
        <time>2014-10-26T10:52:01.000Z</time>
      </trkpt>
      <trkpt lat="47.50708" lon="6.7551">
        <ele>343.8</ele>
        <time>2014-10-26T10:52:02.000Z</time>
      </trkpt>
      <trkpt lat="47.50709" lon="6.75514">
        <ele>343.5</ele>
        <time>2014-10-26T10:52:03.000Z</time>
      </trkpt>
      <trkpt lat="47.5071" lon="6.75517">
        <ele>343.2</ele>
        <time>2014-10-26T10:52:04.000Z</time>
      </trkpt>
      <trkpt lat="47.50711" lon="6.75521">
        <ele>343.5</ele>
        <time>2014-10-26T10:52:05.000Z</time>
      </trkpt>
      <trkpt lat="47.50712" lon="6.75525">
        <ele>343.9</ele>
        <time>2014-10-26T10:52:06.000Z</time>
      </trkpt>
      <trkpt lat="47.50712" lon="6.75528">
        <ele>344.6</ele>
        <time>2014-10-26T10:52:07.000Z</time>
      </trkpt>
      <trkpt lat="47.50713" lon="6.75532">
        <ele>345</ele>
        <time>2014-10-26T10:52:08.000Z</time>
      </trkpt>
      <trkpt lat="47.50713" lon="6.75535">
        <ele>344.8</ele>
        <time>2014-10-26T10:52:09.000Z</time>
      </trkpt>
      <trkpt lat="47.50714" lon="6.75539">
        <ele>345.8</ele>
        <time>2014-10-26T10:52:10.000Z</time>
      </trkpt>
      <trkpt lat="47.50715" lon="6.75542">
        <ele>347</ele>
        <time>2014-10-26T10:52:11.000Z</time>
      </trkpt>
      <trkpt lat="47.50715" lon="6.75546">
        <ele>347.2</ele>
        <time>2014-10-26T10:52:12.000Z</time>
      </trkpt>
      <trkpt lat="47.50716" lon="6.7555">
        <ele>347.2</ele>
        <time>2014-10-26T10:52:13.000Z</time>
      </trkpt>
      <trkpt lat="47.50716" lon="6.75553">
        <ele>347.1</ele>
        <time>2014-10-26T10:52:14.000Z</time>
      </trkpt>
      <trkpt lat="47.50716" lon="6.75557">
        <ele>348</ele>
        <time>2014-10-26T10:52:15.000Z</time>
      </trkpt>
      <trkpt lat="47.50717" lon="6.7556">
        <ele>348.4</ele>
        <time>2014-10-26T10:52:16.000Z</time>
      </trkpt>
      <trkpt lat="47.50718" lon="6.75563">
        <ele>349.2</ele>
        <time>2014-10-26T10:52:17.000Z</time>
      </trkpt>
      <trkpt lat="47.50718" lon="6.75566">
        <ele>349.7</ele>
        <time>2014-10-26T10:52:18.000Z</time>
      </trkpt>
      <trkpt lat="47.50719" lon="6.75572">
        <ele>351.9</ele>
        <time>2014-10-26T10:52:20.000Z</time>
      </trkpt>
      <trkpt lat="47.5072" lon="6.75575">
        <ele>352.5</ele>
        <time>2014-10-26T10:52:21.000Z</time>
      </trkpt>
      <trkpt lat="47.5072" lon="6.75581">
        <ele>352.9</ele>
        <time>2014-10-26T10:52:23.000Z</time>
      </trkpt>
      <trkpt lat="47.5072" lon="6.75584">
        <ele>353.4</ele>
        <time>2014-10-26T10:52:24.000Z</time>
      </trkpt>
      <trkpt lat="47.5072" lon="6.7559">
        <ele>353.6</ele>
        <time>2014-10-26T10:52:26.000Z</time>
      </trkpt>
      <trkpt lat="47.50721" lon="6.75593">
        <ele>354.9</ele>
        <time>2014-10-26T10:52:27.000Z</time>
      </trkpt>
      <trkpt lat="47.50721" lon="6.75597">
        <ele>354.8</ele>
        <time>2014-10-26T10:52:28.000Z</time>
      </trkpt>
      <trkpt lat="47.50721" lon="6.75601">
        <ele>353.7</ele>
        <time>2014-10-26T10:52:29.000Z</time>
      </trkpt>
      <trkpt lat="47.50721" lon="6.75605">
        <ele>353.2</ele>
        <time>2014-10-26T10:52:30.000Z</time>
      </trkpt>
      <trkpt lat="47.50721" lon="6.75609">
        <ele>354.2</ele>
        <time>2014-10-26T10:52:31.000Z</time>
      </trkpt>
      <trkpt lat="47.50721" lon="6.75613">
        <ele>354.6</ele>
        <time>2014-10-26T10:52:32.000Z</time>
      </trkpt>
      <trkpt lat="47.50721" lon="6.75616">
        <ele>355.4</ele>
        <time>2014-10-26T10:52:33.000Z</time>
      </trkpt>
      <trkpt lat="47.5072" lon="6.75625">
        <ele>357.9</ele>
        <time>2014-10-26T10:52:36.000Z</time>
      </trkpt>
      <trkpt lat="47.5072" lon="6.75628">
        <ele>357.8</ele>
        <time>2014-10-26T10:52:37.000Z</time>
      </trkpt>
      <trkpt lat="47.5072" lon="6.75632">
        <ele>358.2</ele>
        <time>2014-10-26T10:52:38.000Z</time>
      </trkpt>
      <trkpt lat="47.5072" lon="6.75635">
        <ele>358.7</ele>
        <time>2014-10-26T10:52:39.000Z</time>
      </trkpt>
      <trkpt lat="47.5072" lon="6.75639">
        <ele>359.9</ele>
        <time>2014-10-26T10:52:40.000Z</time>
      </trkpt>
      <trkpt lat="47.5072" lon="6.75644">
        <ele>361.9</ele>
        <time>2014-10-26T10:52:42.000Z</time>
      </trkpt>
      <trkpt lat="47.5072" lon="6.75647">
        <ele>362</ele>
        <time>2014-10-26T10:52:43.000Z</time>
      </trkpt>
      <trkpt lat="47.5072" lon="6.75652">
        <ele>365.1</ele>
        <time>2014-10-26T10:52:45.000Z</time>
      </trkpt>
      <trkpt lat="47.50721" lon="6.75655">
        <ele>365.8</ele>
        <time>2014-10-26T10:52:46.000Z</time>
      </trkpt>
      <trkpt lat="47.50721" lon="6.75661">
        <ele>366.4</ele>
        <time>2014-10-26T10:52:48.000Z</time>
      </trkpt>
      <trkpt lat="47.50721" lon="6.75665">
        <ele>366.7</ele>
        <time>2014-10-26T10:52:49.000Z</time>
      </trkpt>
      <trkpt lat="47.50721" lon="6.75668">
        <ele>367</ele>
        <time>2014-10-26T10:52:50.000Z</time>
      </trkpt>
      <trkpt lat="47.5072" lon="6.75671">
        <ele>367.9</ele>
        <time>2014-10-26T10:52:51.000Z</time>
      </trkpt>
      <trkpt lat="47.5072" lon="6.75675">
        <ele>368.5</ele>
        <time>2014-10-26T10:52:52.000Z</time>
      </trkpt>
      <trkpt lat="47.5072" lon="6.75679">
        <ele>367.9</ele>
        <time>2014-10-26T10:52:53.000Z</time>
      </trkpt>
      <trkpt lat="47.50721" lon="6.75683">
        <ele>367</ele>
        <time>2014-10-26T10:52:54.000Z</time>
      </trkpt>
      <trkpt lat="47.50721" lon="6.75687">
        <ele>366.9</ele>
        <time>2014-10-26T10:52:55.000Z</time>
      </trkpt>
      <trkpt lat="47.50722" lon="6.75691">
        <ele>367.7</ele>
        <time>2014-10-26T10:52:56.000Z</time>
      </trkpt>
      <trkpt lat="47.50722" lon="6.75695">
        <ele>367.9</ele>
        <time>2014-10-26T10:52:57.000Z</time>
      </trkpt>
      <trkpt lat="47.50723" lon="6.75698">
        <ele>368</ele>
        <time>2014-10-26T10:52:58.000Z</time>
      </trkpt>
      <trkpt lat="47.50723" lon="6.75702">
        <ele>368.5</ele>
        <time>2014-10-26T10:52:59.000Z</time>
      </trkpt>
      <trkpt lat="47.50723" lon="6.75705">
        <ele>368.4</ele>
        <time>2014-10-26T10:53:00.000Z</time>
      </trkpt>
      <trkpt lat="47.50723" lon="6.75708">
        <ele>368.9</ele>
        <time>2014-10-26T10:53:01.000Z</time>
      </trkpt>
      <trkpt lat="47.50723" lon="6.75712">
        <ele>369.5</ele>
        <time>2014-10-26T10:53:02.000Z</time>
      </trkpt>
      <trkpt lat="47.50724" lon="6.75715">
        <ele>370.2</ele>
        <time>2014-10-26T10:53:03.000Z</time>
      </trkpt>
      <trkpt lat="47.50724" lon="6.75719">
        <ele>369.9</ele>
        <time>2014-10-26T10:53:04.000Z</time>
      </trkpt>
      <trkpt lat="47.50725" lon="6.75723">
        <ele>369.6</ele>
        <time>2014-10-26T10:53:05.000Z</time>
      </trkpt>
      <trkpt lat="47.50725" lon="6.75727">
        <ele>369.9</ele>
        <time>2014-10-26T10:53:06.000Z</time>
      </trkpt>
      <trkpt lat="47.50725" lon="6.75731">
        <ele>370.6</ele>
        <time>2014-10-26T10:53:07.000Z</time>
      </trkpt>
      <trkpt lat="47.50725" lon="6.75737">
        <ele>371.7</ele>
        <time>2014-10-26T10:53:09.000Z</time>
      </trkpt>
      <trkpt lat="47.50725" lon="6.7574">
        <ele>372.7</ele>
        <time>2014-10-26T10:53:10.000Z</time>
      </trkpt>
      <trkpt lat="47.50725" lon="6.75745">
        <ele>372.8</ele>
        <time>2014-10-26T10:53:12.000Z</time>
      </trkpt>
      <trkpt lat="47.50725" lon="6.75748">
        <ele>374.2</ele>
        <time>2014-10-26T10:53:13.000Z</time>
      </trkpt>
      <trkpt lat="47.50725" lon="6.75754">
        <ele>374.1</ele>
        <time>2014-10-26T10:53:15.000Z</time>
      </trkpt>
      <trkpt lat="47.50725" lon="6.75757">
        <ele>374.6</ele>
        <time>2014-10-26T10:53:16.000Z</time>
      </trkpt>
      <trkpt lat="47.50725" lon="6.75764">
        <ele>374.9</ele>
        <time>2014-10-26T10:53:18.000Z</time>
      </trkpt>
      <trkpt lat="47.50725" lon="6.75767">
        <ele>375.2</ele>
        <time>2014-10-26T10:53:19.000Z</time>
      </trkpt>
      <trkpt lat="47.50725" lon="6.75773">
        <ele>376.1</ele>
        <time>2014-10-26T10:53:21.000Z</time>
      </trkpt>
      <trkpt lat="47.50725" lon="6.75776">
        <ele>375.9</ele>
        <time>2014-10-26T10:53:22.000Z</time>
      </trkpt>
      <trkpt lat="47.50725" lon="6.75781">
        <ele>376.1</ele>
        <time>2014-10-26T10:53:24.000Z</time>
      </trkpt>
      <trkpt lat="47.50726" lon="6.75784">
        <ele>375.7</ele>
        <time>2014-10-26T10:53:25.000Z</time>
      </trkpt>
      <trkpt lat="47.50726" lon="6.7579">
        <ele>375.6</ele>
        <time>2014-10-26T10:53:27.000Z</time>
      </trkpt>
      <trkpt lat="47.50727" lon="6.75794">
        <ele>375.2</ele>
        <time>2014-10-26T10:53:28.000Z</time>
      </trkpt>
      <trkpt lat="47.50727" lon="6.75797">
        <ele>374.9</ele>
        <time>2014-10-26T10:53:29.000Z</time>
      </trkpt>
      <trkpt lat="47.50727" lon="6.75801">
        <ele>375.2</ele>
        <time>2014-10-26T10:53:30.000Z</time>
      </trkpt>
      <trkpt lat="47.50726" lon="6.75805">
        <ele>375.9</ele>
        <time>2014-10-26T10:53:31.000Z</time>
      </trkpt>
      <trkpt lat="47.50726" lon="6.75808">
        <ele>376.2</ele>
        <time>2014-10-26T10:53:32.000Z</time>
      </trkpt>
      <trkpt lat="47.50726" lon="6.75812">
        <ele>376.7</ele>
        <time>2014-10-26T10:53:33.000Z</time>
      </trkpt>
      <trkpt lat="47.50725" lon="6.7582">
        <ele>378.3</ele>
        <time>2014-10-26T10:53:36.000Z</time>
      </trkpt>
      <trkpt lat="47.50725" lon="6.75826">
        <ele>378.4</ele>
        <time>2014-10-26T10:53:38.000Z</time>
      </trkpt>
      <trkpt lat="47.50725" lon="6.7583">
        <ele>378.3</ele>
        <time>2014-10-26T10:53:39.000Z</time>
      </trkpt>
      <trkpt lat="47.50724" lon="6.75833">
        <ele>377.6</ele>
        <time>2014-10-26T10:53:40.000Z</time>
      </trkpt>
      <trkpt lat="47.50724" lon="6.75836">
        <ele>378.8</ele>
        <time>2014-10-26T10:53:41.000Z</time>
      </trkpt>
      <trkpt lat="47.50724" lon="6.75842">
        <ele>379.6</ele>
        <time>2014-10-26T10:53:43.000Z</time>
      </trkpt>
      <trkpt lat="47.50724" lon="6.75845">
        <ele>379.6</ele>
        <time>2014-10-26T10:53:44.000Z</time>
      </trkpt>
      <trkpt lat="47.50724" lon="6.75852">
        <ele>380.2</ele>
        <time>2014-10-26T10:53:46.000Z</time>
      </trkpt>
      <trkpt lat="47.50723" lon="6.75855">
        <ele>380</ele>
        <time>2014-10-26T10:53:47.000Z</time>
      </trkpt>
      <trkpt lat="47.50723" lon="6.75858">
        <ele>380.1</ele>
        <time>2014-10-26T10:53:48.000Z</time>
      </trkpt>
      <trkpt lat="47.50723" lon="6.75862">
        <ele>379.8</ele>
        <time>2014-10-26T10:53:49.000Z</time>
      </trkpt>
      <trkpt lat="47.50723" lon="6.75866">
        <ele>379.8</ele>
        <time>2014-10-26T10:53:50.000Z</time>
      </trkpt>
      <trkpt lat="47.50723" lon="6.75869">
        <ele>380.1</ele>
        <time>2014-10-26T10:53:51.000Z</time>
      </trkpt>
      <trkpt lat="47.50723" lon="6.75873">
        <ele>380.4</ele>
        <time>2014-10-26T10:53:52.000Z</time>
      </trkpt>
      <trkpt lat="47.50723" lon="6.75876">
        <ele>380.4</ele>
        <time>2014-10-26T10:53:53.000Z</time>
      </trkpt>
      <trkpt lat="47.50723" lon="6.75882">
        <ele>380.9</ele>
        <time>2014-10-26T10:53:55.000Z</time>
      </trkpt>
      <trkpt lat="47.50723" lon="6.75885">
        <ele>380.7</ele>
        <time>2014-10-26T10:53:56.000Z</time>
      </trkpt>
      <trkpt lat="47.50723" lon="6.75891">
        <ele>380.5</ele>
        <time>2014-10-26T10:53:58.000Z</time>
      </trkpt>
      <trkpt lat="47.50724" lon="6.75893">
        <ele>381.2</ele>
        <time>2014-10-26T10:53:59.000Z</time>
      </trkpt>
      <trkpt lat="47.50724" lon="6.75898">
        <ele>382.7</ele>
        <time>2014-10-26T10:54:01.000Z</time>
      </trkpt>
      <trkpt lat="47.50724" lon="6.759">
        <ele>383.4</ele>
        <time>2014-10-26T10:54:02.000Z</time>
      </trkpt>
      <trkpt lat="47.50725" lon="6.75905">
        <ele>384.6</ele>
        <time>2014-10-26T10:54:04.000Z</time>
      </trkpt>
      <trkpt lat="47.50724" lon="6.75907">
        <ele>385.3</ele>
        <time>2014-10-26T10:54:05.000Z</time>
      </trkpt>
      <trkpt lat="47.50724" lon="6.75912">
        <ele>386.6</ele>
        <time>2014-10-26T10:54:07.000Z</time>
      </trkpt>
      <trkpt lat="47.50724" lon="6.75915">
        <ele>386.3</ele>
        <time>2014-10-26T10:54:08.000Z</time>
      </trkpt>
      <trkpt lat="47.50723" lon="6.75921">
        <ele>387.8</ele>
        <time>2014-10-26T10:54:10.000Z</time>
      </trkpt>
      <trkpt lat="47.50723" lon="6.75924">
        <ele>387.6</ele>
        <time>2014-10-26T10:54:11.000Z</time>
      </trkpt>
      <trkpt lat="47.50723" lon="6.75928">
        <ele>387.9</ele>
        <time>2014-10-26T10:54:12.000Z</time>
      </trkpt>
      <trkpt lat="47.50722" lon="6.75931">
        <ele>388.5</ele>
        <time>2014-10-26T10:54:13.000Z</time>
      </trkpt>
      <trkpt lat="47.50722" lon="6.75937">
        <ele>389.8</ele>
        <time>2014-10-26T10:54:15.000Z</time>
      </trkpt>
      <trkpt lat="47.50722" lon="6.7594">
        <ele>390.1</ele>
        <time>2014-10-26T10:54:16.000Z</time>
      </trkpt>
      <trkpt lat="47.50721" lon="6.75947">
        <ele>391</ele>
        <time>2014-10-26T10:54:18.000Z</time>
      </trkpt>
      <trkpt lat="47.50721" lon="6.7595">
        <ele>391.3</ele>
        <time>2014-10-26T10:54:19.000Z</time>
      </trkpt>
      <trkpt lat="47.50722" lon="6.75956">
        <ele>392.4</ele>
        <time>2014-10-26T10:54:21.000Z</time>
      </trkpt>
      <trkpt lat="47.50722" lon="6.75959">
        <ele>393.3</ele>
        <time>2014-10-26T10:54:22.000Z</time>
      </trkpt>
      <trkpt lat="47.50723" lon="6.75962">
        <ele>393.6</ele>
        <time>2014-10-26T10:54:23.000Z</time>
      </trkpt>
      <trkpt lat="47.50724" lon="6.75966">
        <ele>393.6</ele>
        <time>2014-10-26T10:54:24.000Z</time>
      </trkpt>
      <trkpt lat="47.50724" lon="6.75972">
        <ele>394.5</ele>
        <time>2014-10-26T10:54:26.000Z</time>
      </trkpt>
      <trkpt lat="47.50724" lon="6.75975">
        <ele>394.8</ele>
        <time>2014-10-26T10:54:27.000Z</time>
      </trkpt>
      <trkpt lat="47.50723" lon="6.75982">
        <ele>395.9</ele>
        <time>2014-10-26T10:54:29.000Z</time>
      </trkpt>
      <trkpt lat="47.50723" lon="6.75985">
        <ele>396.8</ele>
        <time>2014-10-26T10:54:30.000Z</time>
      </trkpt>
      <trkpt lat="47.50723" lon="6.7599">
        <ele>397.7</ele>
        <time>2014-10-26T10:54:32.000Z</time>
      </trkpt>
      <trkpt lat="47.50722" lon="6.75992">
        <ele>397.6</ele>
        <time>2014-10-26T10:54:33.000Z</time>
      </trkpt>
      <trkpt lat="47.50722" lon="6.75995">
        <ele>398</ele>
        <time>2014-10-26T10:54:34.000Z</time>
      </trkpt>
      <trkpt lat="47.50722" lon="6.76001">
        <ele>399.6</ele>
        <time>2014-10-26T10:54:36.000Z</time>
      </trkpt>
      <trkpt lat="47.50722" lon="6.76008">
        <ele>400.1</ele>
        <time>2014-10-26T10:54:38.000Z</time>
      </trkpt>
      <trkpt lat="47.50722" lon="6.76011">
        <ele>400.4</ele>
        <time>2014-10-26T10:54:39.000Z</time>
      </trkpt>
      <trkpt lat="47.50722" lon="6.76014">
        <ele>400.8</ele>
        <time>2014-10-26T10:54:40.000Z</time>
      </trkpt>
      <trkpt lat="47.50722" lon="6.76017">
        <ele>401.2</ele>
        <time>2014-10-26T10:54:41.000Z</time>
      </trkpt>
      <trkpt lat="47.50722" lon="6.76021">
        <ele>400.8</ele>
        <time>2014-10-26T10:54:42.000Z</time>
      </trkpt>
      <trkpt lat="47.50721" lon="6.76026">
        <ele>400.9</ele>
        <time>2014-10-26T10:54:43.000Z</time>
      </trkpt>
      <trkpt lat="47.50721" lon="6.7603">
        <ele>401.2</ele>
        <time>2014-10-26T10:54:44.000Z</time>
      </trkpt>
      <trkpt lat="47.50722" lon="6.76034">
        <ele>400.8</ele>
        <time>2014-10-26T10:54:45.000Z</time>
      </trkpt>
      <trkpt lat="47.50721" lon="6.76039">
        <ele>400.3</ele>
        <time>2014-10-26T10:54:46.000Z</time>
      </trkpt>
      <trkpt lat="47.50721" lon="6.76043">
        <ele>401.1</ele>
        <time>2014-10-26T10:54:47.000Z</time>
      </trkpt>
      <trkpt lat="47.5072" lon="6.76047">
        <ele>402</ele>
        <time>2014-10-26T10:54:48.000Z</time>
      </trkpt>
      <trkpt lat="47.50719" lon="6.7605">
        <ele>401.5</ele>
        <time>2014-10-26T10:54:49.000Z</time>
      </trkpt>
      <trkpt lat="47.50719" lon="6.76054">
        <ele>401.9</ele>
        <time>2014-10-26T10:54:50.000Z</time>
      </trkpt>
      <trkpt lat="47.50718" lon="6.76057">
        <ele>402</ele>
        <time>2014-10-26T10:54:51.000Z</time>
      </trkpt>
      <trkpt lat="47.50717" lon="6.76061">
        <ele>403</ele>
        <time>2014-10-26T10:54:52.000Z</time>
      </trkpt>
      <trkpt lat="47.50717" lon="6.76066">
        <ele>403.1</ele>
        <time>2014-10-26T10:54:53.000Z</time>
      </trkpt>
      <trkpt lat="47.50716" lon="6.76071">
        <ele>403.4</ele>
        <time>2014-10-26T10:54:54.000Z</time>
      </trkpt>
      <trkpt lat="47.50716" lon="6.76077">
        <ele>403.5</ele>
        <time>2014-10-26T10:54:55.000Z</time>
      </trkpt>
      <trkpt lat="47.50715" lon="6.76082">
        <ele>403.5</ele>
        <time>2014-10-26T10:54:56.000Z</time>
      </trkpt>
      <trkpt lat="47.50715" lon="6.76088">
        <ele>403.4</ele>
        <time>2014-10-26T10:54:57.000Z</time>
      </trkpt>
      <trkpt lat="47.50715" lon="6.76094">
        <ele>403.5</ele>
        <time>2014-10-26T10:54:58.000Z</time>
      </trkpt>
      <trkpt lat="47.50715" lon="6.761">
        <ele>402.6</ele>
        <time>2014-10-26T10:54:59.000Z</time>
      </trkpt>
      <trkpt lat="47.50715" lon="6.76106">
        <ele>402.3</ele>
        <time>2014-10-26T10:55:00.000Z</time>
      </trkpt>
      <trkpt lat="47.50714" lon="6.76113">
        <ele>400.9</ele>
        <time>2014-10-26T10:55:01.000Z</time>
      </trkpt>
      <trkpt lat="47.50714" lon="6.76119">
        <ele>400.1</ele>
        <time>2014-10-26T10:55:02.000Z</time>
      </trkpt>
      <trkpt lat="47.50714" lon="6.76125">
        <ele>401.2</ele>
        <time>2014-10-26T10:55:03.000Z</time>
      </trkpt>
      <trkpt lat="47.50714" lon="6.7613">
        <ele>400.8</ele>
        <time>2014-10-26T10:55:04.000Z</time>
      </trkpt>
      <trkpt lat="47.50714" lon="6.76136">
        <ele>400.9</ele>
        <time>2014-10-26T10:55:05.000Z</time>
      </trkpt>
      <trkpt lat="47.50713" lon="6.7614">
        <ele>401.8</ele>
        <time>2014-10-26T10:55:06.000Z</time>
      </trkpt>
      <trkpt lat="47.50713" lon="6.76145">
        <ele>402.3</ele>
        <time>2014-10-26T10:55:07.000Z</time>
      </trkpt>
      <trkpt lat="47.50713" lon="6.76148">
        <ele>403.2</ele>
        <time>2014-10-26T10:55:08.000Z</time>
      </trkpt>
      <trkpt lat="47.50713" lon="6.76152">
        <ele>403.9</ele>
        <time>2014-10-26T10:55:09.000Z</time>
      </trkpt>
      <trkpt lat="47.50712" lon="6.76156">
        <ele>404</ele>
        <time>2014-10-26T10:55:10.000Z</time>
      </trkpt>
      <trkpt lat="47.50712" lon="6.7616">
        <ele>405</ele>
        <time>2014-10-26T10:55:11.000Z</time>
      </trkpt>
      <trkpt lat="47.50712" lon="6.76164">
        <ele>406.2</ele>
        <time>2014-10-26T10:55:12.000Z</time>
      </trkpt>
      <trkpt lat="47.50713" lon="6.76168">
        <ele>407.6</ele>
        <time>2014-10-26T10:55:13.000Z</time>
      </trkpt>
      <trkpt lat="47.50713" lon="6.76172">
        <ele>408.2</ele>
        <time>2014-10-26T10:55:14.000Z</time>
      </trkpt>
      <trkpt lat="47.50713" lon="6.76176">
        <ele>409.6</ele>
        <time>2014-10-26T10:55:15.000Z</time>
      </trkpt>
      <trkpt lat="47.50714" lon="6.7618">
        <ele>409.3</ele>
        <time>2014-10-26T10:55:16.000Z</time>
      </trkpt>
      <trkpt lat="47.50714" lon="6.76184">
        <ele>410.4</ele>
        <time>2014-10-26T10:55:17.000Z</time>
      </trkpt>
      <trkpt lat="47.50715" lon="6.76188">
        <ele>411.1</ele>
        <time>2014-10-26T10:55:18.000Z</time>
      </trkpt>
      <trkpt lat="47.50715" lon="6.76192">
        <ele>411.3</ele>
        <time>2014-10-26T10:55:19.000Z</time>
      </trkpt>
      <trkpt lat="47.50716" lon="6.76195">
        <ele>414.3</ele>
        <time>2014-10-26T10:55:20.000Z</time>
      </trkpt>
      <trkpt lat="47.50716" lon="6.76199">
        <ele>416.1</ele>
        <time>2014-10-26T10:55:21.000Z</time>
      </trkpt>
      <trkpt lat="47.50717" lon="6.76203">
        <ele>417</ele>
        <time>2014-10-26T10:55:22.000Z</time>
      </trkpt>
      <trkpt lat="47.50718" lon="6.76207">
        <ele>417.2</ele>
        <time>2014-10-26T10:55:23.000Z</time>
      </trkpt>
      <trkpt lat="47.50719" lon="6.7621">
        <ele>418.1</ele>
        <time>2014-10-26T10:55:23.999Z</time>
      </trkpt>
      <trkpt lat="47.5072" lon="6.76216">
        <ele>418.1</ele>
        <time>2014-10-26T10:55:25.000Z</time>
      </trkpt>
      <trkpt lat="47.50721" lon="6.7622">
        <ele>419.8</ele>
        <time>2014-10-26T10:55:26.000Z</time>
      </trkpt>
      <trkpt lat="47.50722" lon="6.76224">
        <ele>420.9</ele>
        <time>2014-10-26T10:55:27.000Z</time>
      </trkpt>
      <trkpt lat="47.50723" lon="6.76228">
        <ele>421.3</ele>
        <time>2014-10-26T10:55:28.000Z</time>
      </trkpt>
      <trkpt lat="47.50724" lon="6.76233">
        <ele>420.9</ele>
        <time>2014-10-26T10:55:29.000Z</time>
      </trkpt>
      <trkpt lat="47.50726" lon="6.76238">
        <ele>420.9</ele>
        <time>2014-10-26T10:55:30.000Z</time>
      </trkpt>
      <trkpt lat="47.50727" lon="6.76242">
        <ele>420.4</ele>
        <time>2014-10-26T10:55:31.000Z</time>
      </trkpt>
      <trkpt lat="47.50729" lon="6.76247">
        <ele>421</ele>
        <time>2014-10-26T10:55:32.000Z</time>
      </trkpt>
      <trkpt lat="47.5073" lon="6.76252">
        <ele>421.1</ele>
        <time>2014-10-26T10:55:33.000Z</time>
      </trkpt>
      <trkpt lat="47.50732" lon="6.76256">
        <ele>423.2</ele>
        <time>2014-10-26T10:55:34.000Z</time>
      </trkpt>
      <trkpt lat="47.50743" lon="6.76288">
        <ele>426.6</ele>
        <time>2014-10-26T10:55:43.000Z</time>
      </trkpt>
      <trkpt lat="47.50744" lon="6.76292">
        <ele>427.5</ele>
        <time>2014-10-26T10:55:44.000Z</time>
      </trkpt>
      <trkpt lat="47.50746" lon="6.76297">
        <ele>426.3</ele>
        <time>2014-10-26T10:55:45.000Z</time>
      </trkpt>
      <trkpt lat="47.50748" lon="6.76303">
        <ele>425.6</ele>
        <time>2014-10-26T10:55:46.000Z</time>
      </trkpt>
      <trkpt lat="47.5075" lon="6.76308">
        <ele>425.3</ele>
        <time>2014-10-26T10:55:47.000Z</time>
      </trkpt>
      <trkpt lat="47.50751" lon="6.76312">
        <ele>425.2</ele>
        <time>2014-10-26T10:55:48.000Z</time>
      </trkpt>
      <trkpt lat="47.50753" lon="6.76317">
        <ele>425.1</ele>
        <time>2014-10-26T10:55:49.000Z</time>
      </trkpt>
      <trkpt lat="47.50754" lon="6.76321">
        <ele>424.9</ele>
        <time>2014-10-26T10:55:50.000Z</time>
      </trkpt>
      <trkpt lat="47.50756" lon="6.76325">
        <ele>424.8</ele>
        <time>2014-10-26T10:55:51.000Z</time>
      </trkpt>
      <trkpt lat="47.50757" lon="6.76329">
        <ele>424.8</ele>
        <time>2014-10-26T10:55:52.000Z</time>
      </trkpt>
      <trkpt lat="47.50758" lon="6.76333">
        <ele>424.6</ele>
        <time>2014-10-26T10:55:53.000Z</time>
      </trkpt>
      <trkpt lat="47.50759" lon="6.76336">
        <ele>425.8</ele>
        <time>2014-10-26T10:55:54.000Z</time>
      </trkpt>
      <trkpt lat="47.50761" lon="6.7634">
        <ele>425.2</ele>
        <time>2014-10-26T10:55:55.000Z</time>
      </trkpt>
      <trkpt lat="47.50762" lon="6.76343">
        <ele>425.6</ele>
        <time>2014-10-26T10:55:56.000Z</time>
      </trkpt>
      <trkpt lat="47.50763" lon="6.76347">
        <ele>425.5</ele>
        <time>2014-10-26T10:55:57.000Z</time>
      </trkpt>
      <trkpt lat="47.50764" lon="6.76351">
        <ele>424.6</ele>
        <time>2014-10-26T10:55:58.000Z</time>
      </trkpt>
      <trkpt lat="47.50766" lon="6.76355">
        <ele>423.5</ele>
        <time>2014-10-26T10:55:59.000Z</time>
      </trkpt>
      <trkpt lat="47.50767" lon="6.76359">
        <ele>423</ele>
        <time>2014-10-26T10:56:00.000Z</time>
      </trkpt>
      <trkpt lat="47.50769" lon="6.76362">
        <ele>423</ele>
        <time>2014-10-26T10:56:01.000Z</time>
      </trkpt>
      <trkpt lat="47.5077" lon="6.76366">
        <ele>423.9</ele>
        <time>2014-10-26T10:56:02.000Z</time>
      </trkpt>
      <trkpt lat="47.5077" lon="6.76369">
        <ele>425.8</ele>
        <time>2014-10-26T10:56:03.000Z</time>
      </trkpt>
      <trkpt lat="47.50771" lon="6.76372">
        <ele>426.3</ele>
        <time>2014-10-26T10:56:04.000Z</time>
      </trkpt>
      <trkpt lat="47.50771" lon="6.76376">
        <ele>426.5</ele>
        <time>2014-10-26T10:56:05.000Z</time>
      </trkpt>
      <trkpt lat="47.50772" lon="6.76379">
        <ele>425.9</ele>
        <time>2014-10-26T10:56:06.000Z</time>
      </trkpt>
      <trkpt lat="47.50773" lon="6.76383">
        <ele>426.5</ele>
        <time>2014-10-26T10:56:07.000Z</time>
      </trkpt>
      <trkpt lat="47.50774" lon="6.76387">
        <ele>426.5</ele>
        <time>2014-10-26T10:56:08.000Z</time>
      </trkpt>
      <trkpt lat="47.50775" lon="6.76391">
        <ele>426.3</ele>
        <time>2014-10-26T10:56:09.000Z</time>
      </trkpt>
      <trkpt lat="47.50775" lon="6.76395">
        <ele>426.5</ele>
        <time>2014-10-26T10:56:10.000Z</time>
      </trkpt>
      <trkpt lat="47.50776" lon="6.76398">
        <ele>426.6</ele>
        <time>2014-10-26T10:56:11.000Z</time>
      </trkpt>
      <trkpt lat="47.50777" lon="6.76402">
        <ele>426.7</ele>
        <time>2014-10-26T10:56:12.000Z</time>
      </trkpt>
      <trkpt lat="47.50777" lon="6.76406">
        <ele>426.3</ele>
        <time>2014-10-26T10:56:13.000Z</time>
      </trkpt>
      <trkpt lat="47.50778" lon="6.7641">
        <ele>425.9</ele>
        <time>2014-10-26T10:56:14.000Z</time>
      </trkpt>
      <trkpt lat="47.50778" lon="6.76414">
        <ele>425.7</ele>
        <time>2014-10-26T10:56:15.000Z</time>
      </trkpt>
      <trkpt lat="47.50779" lon="6.76417">
        <ele>425.3</ele>
        <time>2014-10-26T10:56:16.000Z</time>
      </trkpt>
      <trkpt lat="47.50779" lon="6.76421">
        <ele>424.9</ele>
        <time>2014-10-26T10:56:17.000Z</time>
      </trkpt>
      <trkpt lat="47.5078" lon="6.76425">
        <ele>425.3</ele>
        <time>2014-10-26T10:56:18.000Z</time>
      </trkpt>
      <trkpt lat="47.5078" lon="6.76429">
        <ele>425</ele>
        <time>2014-10-26T10:56:19.000Z</time>
      </trkpt>
      <trkpt lat="47.50781" lon="6.76432">
        <ele>425.2</ele>
        <time>2014-10-26T10:56:20.000Z</time>
      </trkpt>
      <trkpt lat="47.50781" lon="6.76436">
        <ele>424.5</ele>
        <time>2014-10-26T10:56:21.000Z</time>
      </trkpt>
      <trkpt lat="47.50782" lon="6.76439">
        <ele>424.3</ele>
        <time>2014-10-26T10:56:22.000Z</time>
      </trkpt>
      <trkpt lat="47.50782" lon="6.76443">
        <ele>423.5</ele>
        <time>2014-10-26T10:56:23.000Z</time>
      </trkpt>
      <trkpt lat="47.50781" lon="6.76448">
        <ele>423.2</ele>
        <time>2014-10-26T10:56:24.000Z</time>
      </trkpt>
      <trkpt lat="47.50781" lon="6.76452">
        <ele>422.9</ele>
        <time>2014-10-26T10:56:25.000Z</time>
      </trkpt>
      <trkpt lat="47.5078" lon="6.76456">
        <ele>420.6</ele>
        <time>2014-10-26T10:56:26.000Z</time>
      </trkpt>
      <trkpt lat="47.5078" lon="6.76461">
        <ele>419.7</ele>
        <time>2014-10-26T10:56:27.000Z</time>
      </trkpt>
      <trkpt lat="47.50781" lon="6.76467">
        <ele>419.6</ele>
        <time>2014-10-26T10:56:28.000Z</time>
      </trkpt>
      <trkpt lat="47.50781" lon="6.76472">
        <ele>418.9</ele>
        <time>2014-10-26T10:56:29.000Z</time>
      </trkpt>
      <trkpt lat="47.50783" lon="6.76476">
        <ele>419</ele>
        <time>2014-10-26T10:56:30.000Z</time>
      </trkpt>
      <trkpt lat="47.50784" lon="6.76481">
        <ele>418.4</ele>
        <time>2014-10-26T10:56:31.000Z</time>
      </trkpt>
      <trkpt lat="47.50786" lon="6.76485">
        <ele>418.5</ele>
        <time>2014-10-26T10:56:32.000Z</time>
      </trkpt>
      <trkpt lat="47.50789" lon="6.76489">
        <ele>417.8</ele>
        <time>2014-10-26T10:56:33.000Z</time>
      </trkpt>
      <trkpt lat="47.50794" lon="6.76499">
        <ele>418.5</ele>
        <time>2014-10-26T10:56:36.000Z</time>
      </trkpt>
      <trkpt lat="47.50796" lon="6.76502">
        <ele>418.6</ele>
        <time>2014-10-26T10:56:36.999Z</time>
      </trkpt>
      <trkpt lat="47.50799" lon="6.76503">
        <ele>418.2</ele>
        <time>2014-10-26T10:56:38.000Z</time>
      </trkpt>
      <trkpt lat="47.50802" lon="6.76507">
        <ele>417.8</ele>
        <time>2014-10-26T10:56:40.000Z</time>
      </trkpt>
      <trkpt lat="47.50803" lon="6.76509">
        <ele>415.8</ele>
        <time>2014-10-26T10:56:41.000Z</time>
      </trkpt>
      <trkpt lat="47.50805" lon="6.76514">
        <ele>413.9</ele>
        <time>2014-10-26T10:57:07.000Z</time>
      </trkpt>
      <trkpt lat="47.50805" lon="6.76515">
        <ele>413.9</ele>
        <time>2014-10-26T10:57:08.000Z</time>
      </trkpt>
      <trkpt lat="47.50808" lon="6.76518">
        <ele>406.7</ele>
        <time>2014-10-26T10:57:16.998Z</time>
      </trkpt>
      <trkpt lat="47.5081" lon="6.76528">
        <ele>401.2</ele>
        <time>2014-10-26T10:57:18.000Z</time>
      </trkpt>
      <trkpt lat="47.50812" lon="6.76534">
        <ele>398.3</ele>
        <time>2014-10-26T10:57:21.000Z</time>
      </trkpt>
      <trkpt lat="47.50812" lon="6.76534">
        <ele>397.7</ele>
        <time>2014-10-26T10:57:22.000Z</time>
      </trkpt>
      <trkpt lat="47.50812" lon="6.7654">
        <ele>394.5</ele>
        <time>2014-10-26T10:58:11.000Z</time>
      </trkpt>
      <trkpt lat="47.50812" lon="6.76542">
        <ele>394.1</ele>
        <time>2014-10-26T10:58:12.000Z</time>
      </trkpt>
      <trkpt lat="47.50813" lon="6.76545">
        <ele>393.4</ele>
        <time>2014-10-26T10:58:13.000Z</time>
      </trkpt>
      <trkpt lat="47.50814" lon="6.76549">
        <ele>392.7</ele>
        <time>2014-10-26T10:58:14.000Z</time>
      </trkpt>
      <trkpt lat="47.50816" lon="6.76553">
        <ele>392.4</ele>
        <time>2014-10-26T10:58:15.000Z</time>
      </trkpt>
      <trkpt lat="47.50818" lon="6.76557">
        <ele>391.8</ele>
        <time>2014-10-26T10:58:16.000Z</time>
      </trkpt>
      <trkpt lat="47.5082" lon="6.76562">
        <ele>391</ele>
        <time>2014-10-26T10:58:17.000Z</time>
      </trkpt>
      <trkpt lat="47.50821" lon="6.76567">
        <ele>390.7</ele>
        <time>2014-10-26T10:58:18.000Z</time>
      </trkpt>
      <trkpt lat="47.50823" lon="6.76572">
        <ele>390.3</ele>
        <time>2014-10-26T10:58:19.000Z</time>
      </trkpt>
      <trkpt lat="47.50824" lon="6.76578">
        <ele>389.4</ele>
        <time>2014-10-26T10:58:20.000Z</time>
      </trkpt>
      <trkpt lat="47.50826" lon="6.76584">
        <ele>388.7</ele>
        <time>2014-10-26T10:58:21.000Z</time>
      </trkpt>
      <trkpt lat="47.50827" lon="6.7659">
        <ele>388.5</ele>
        <time>2014-10-26T10:58:22.000Z</time>
      </trkpt>
      <trkpt lat="47.50827" lon="6.76601">
        <ele>387.9</ele>
        <time>2014-10-26T10:58:23.000Z</time>
      </trkpt>
      <trkpt lat="47.50829" lon="6.76607">
        <ele>387.2</ele>
        <time>2014-10-26T10:58:24.000Z</time>
      </trkpt>
      <trkpt lat="47.50831" lon="6.76613">
        <ele>386.2</ele>
        <time>2014-10-26T10:58:25.000Z</time>
      </trkpt>
      <trkpt lat="47.50834" lon="6.76619">
        <ele>386</ele>
        <time>2014-10-26T10:58:26.000Z</time>
      </trkpt>
      <trkpt lat="47.50836" lon="6.76623">
        <ele>384.6</ele>
        <time>2014-10-26T10:58:27.000Z</time>
      </trkpt>
      <trkpt lat="47.50838" lon="6.76627">
        <ele>384.4</ele>
        <time>2014-10-26T10:58:28.000Z</time>
      </trkpt>
      <trkpt lat="47.50839" lon="6.76631">
        <ele>384.1</ele>
        <time>2014-10-26T10:58:29.000Z</time>
      </trkpt>
      <trkpt lat="47.50841" lon="6.76635">
        <ele>383.7</ele>
        <time>2014-10-26T10:58:30.000Z</time>
      </trkpt>
      <trkpt lat="47.50843" lon="6.7664">
        <ele>383</ele>
        <time>2014-10-26T10:58:31.000Z</time>
      </trkpt>
      <trkpt lat="47.50846" lon="6.76645">
        <ele>382.6</ele>
        <time>2014-10-26T10:58:32.000Z</time>
      </trkpt>
      <trkpt lat="47.50848" lon="6.7665">
        <ele>382.1</ele>
        <time>2014-10-26T10:58:33.000Z</time>
      </trkpt>
      <trkpt lat="47.5085" lon="6.76657">
        <ele>381.4</ele>
        <time>2014-10-26T10:58:34.000Z</time>
      </trkpt>
      <trkpt lat="47.50858" lon="6.76674">
        <ele>381</ele>
        <time>2014-10-26T10:58:37.000Z</time>
      </trkpt>
      <trkpt lat="47.50861" lon="6.76681">
        <ele>380.4</ele>
        <time>2014-10-26T10:58:38.000Z</time>
      </trkpt>
      <trkpt lat="47.50863" lon="6.7669">
        <ele>380</ele>
        <time>2014-10-26T10:58:39.000Z</time>
      </trkpt>
      <trkpt lat="47.50867" lon="6.76697">
        <ele>379.4</ele>
        <time>2014-10-26T10:58:40.000Z</time>
      </trkpt>
      <trkpt lat="47.50869" lon="6.76705">
        <ele>378.6</ele>
        <time>2014-10-26T10:58:41.000Z</time>
      </trkpt>
      <trkpt lat="47.50873" lon="6.76713">
        <ele>378.6</ele>
        <time>2014-10-26T10:58:42.000Z</time>
      </trkpt>
      <trkpt lat="47.50875" lon="6.76721">
        <ele>378.8</ele>
        <time>2014-10-26T10:58:43.000Z</time>
      </trkpt>
      <trkpt lat="47.50877" lon="6.76728">
        <ele>379.1</ele>
        <time>2014-10-26T10:58:44.000Z</time>
      </trkpt>
      <trkpt lat="47.50879" lon="6.76737">
        <ele>379.1</ele>
        <time>2014-10-26T10:58:45.000Z</time>
      </trkpt>
      <trkpt lat="47.50881" lon="6.76745">
        <ele>378.9</ele>
        <time>2014-10-26T10:58:46.000Z</time>
      </trkpt>
      <trkpt lat="47.50884" lon="6.76752">
        <ele>379</ele>
        <time>2014-10-26T10:58:47.000Z</time>
      </trkpt>
      <trkpt lat="47.50887" lon="6.76761">
        <ele>378.7</ele>
        <time>2014-10-26T10:58:48.000Z</time>
      </trkpt>
      <trkpt lat="47.5089" lon="6.76771">
        <ele>378.6</ele>
        <time>2014-10-26T10:58:49.000Z</time>
      </trkpt>
      <trkpt lat="47.50893" lon="6.76779">
        <ele>377.8</ele>
        <time>2014-10-26T10:58:50.000Z</time>
      </trkpt>
      <trkpt lat="47.50896" lon="6.76788">
        <ele>377.8</ele>
        <time>2014-10-26T10:58:51.000Z</time>
      </trkpt>
      <trkpt lat="47.50899" lon="6.76799">
        <ele>377.8</ele>
        <time>2014-10-26T10:58:52.000Z</time>
      </trkpt>
      <trkpt lat="47.50901" lon="6.76809">
        <ele>378.2</ele>
        <time>2014-10-26T10:58:53.000Z</time>
      </trkpt>
      <trkpt lat="47.50903" lon="6.76817">
        <ele>377.8</ele>
        <time>2014-10-26T10:58:54.000Z</time>
      </trkpt>
      <trkpt lat="47.50907" lon="6.76826">
        <ele>378.9</ele>
        <time>2014-10-26T10:58:55.000Z</time>
      </trkpt>
      <trkpt lat="47.5091" lon="6.76835">
        <ele>379.1</ele>
        <time>2014-10-26T10:58:56.000Z</time>
      </trkpt>
      <trkpt lat="47.50913" lon="6.76844">
        <ele>379</ele>
        <time>2014-10-26T10:58:57.000Z</time>
      </trkpt>
      <trkpt lat="47.50919" lon="6.76853">
        <ele>378.1</ele>
        <time>2014-10-26T10:58:58.000Z</time>
      </trkpt>
      <trkpt lat="47.50924" lon="6.7686">
        <ele>378.7</ele>
        <time>2014-10-26T10:58:59.000Z</time>
      </trkpt>
      <trkpt lat="47.50928" lon="6.76869">
        <ele>377.1</ele>
        <time>2014-10-26T10:59:00.000Z</time>
      </trkpt>
      <trkpt lat="47.50932" lon="6.76875">
        <ele>376.9</ele>
        <time>2014-10-26T10:59:01.000Z</time>
      </trkpt>
      <trkpt lat="47.50936" lon="6.76882">
        <ele>376.1</ele>
        <time>2014-10-26T10:59:02.000Z</time>
      </trkpt>
      <trkpt lat="47.50942" lon="6.76886">
        <ele>376.1</ele>
        <time>2014-10-26T10:59:03.000Z</time>
      </trkpt>
      <trkpt lat="47.50947" lon="6.76891">
        <ele>375.2</ele>
        <time>2014-10-26T10:59:04.000Z</time>
      </trkpt>
      <trkpt lat="47.50952" lon="6.76896">
        <ele>374.3</ele>
        <time>2014-10-26T10:59:05.000Z</time>
      </trkpt>
      <trkpt lat="47.50957" lon="6.76901">
        <ele>374.2</ele>
        <time>2014-10-26T10:59:06.000Z</time>
      </trkpt>
      <trkpt lat="47.50964" lon="6.76904">
        <ele>374.3</ele>
        <time>2014-10-26T10:59:07.000Z</time>
      </trkpt>
      <trkpt lat="47.5097" lon="6.76907">
        <ele>373.5</ele>
        <time>2014-10-26T10:59:08.000Z</time>
      </trkpt>
      <trkpt lat="47.50977" lon="6.76901">
        <ele>374.4</ele>
        <time>2014-10-26T10:59:09.000Z</time>
      </trkpt>
      <trkpt lat="47.50982" lon="6.76901">
        <ele>374.4</ele>
        <time>2014-10-26T10:59:10.000Z</time>
      </trkpt>
      <trkpt lat="47.50985" lon="6.769">
        <ele>374.2</ele>
        <time>2014-10-26T10:59:11.000Z</time>
      </trkpt>
      <trkpt lat="47.50991" lon="6.76904">
        <ele>373.9</ele>
        <time>2014-10-26T10:59:12.000Z</time>
      </trkpt>
      <trkpt lat="47.50996" lon="6.7691">
        <ele>372</ele>
        <time>2014-10-26T10:59:13.000Z</time>
      </trkpt>
      <trkpt lat="47.51" lon="6.76918">
        <ele>371.4</ele>
        <time>2014-10-26T10:59:14.000Z</time>
      </trkpt>
      <trkpt lat="47.51001" lon="6.76922">
        <ele>370</ele>
        <time>2014-10-26T10:59:15.000Z</time>
      </trkpt>
      <trkpt lat="47.51005" lon="6.76922">
        <ele>370.6</ele>
        <time>2014-10-26T10:59:16.000Z</time>
      </trkpt>
      <trkpt lat="47.5101" lon="6.76924">
        <ele>370.1</ele>
        <time>2014-10-26T10:59:17.000Z</time>
      </trkpt>
      <trkpt lat="47.51015" lon="6.76922">
        <ele>369.8</ele>
        <time>2014-10-26T10:59:18.000Z</time>
      </trkpt>
      <trkpt lat="47.5102" lon="6.76926">
        <ele>368.3</ele>
        <time>2014-10-26T10:59:19.000Z</time>
      </trkpt>
      <trkpt lat="47.51026" lon="6.76925">
        <ele>367.7</ele>
        <time>2014-10-26T10:59:20.000Z</time>
      </trkpt>
      <trkpt lat="47.51031" lon="6.76928">
        <ele>367.7</ele>
        <time>2014-10-26T10:59:21.000Z</time>
      </trkpt>
      <trkpt lat="47.51033" lon="6.76936">
        <ele>365.6</ele>
        <time>2014-10-26T10:59:22.000Z</time>
      </trkpt>
      <trkpt lat="47.51037" lon="6.76944">
        <ele>365.7</ele>
        <time>2014-10-26T10:59:23.000Z</time>
      </trkpt>
      <trkpt lat="47.51044" lon="6.76949">
        <ele>366</ele>
        <time>2014-10-26T10:59:24.000Z</time>
      </trkpt>
      <trkpt lat="47.51047" lon="6.76955">
        <ele>366.3</ele>
        <time>2014-10-26T10:59:25.000Z</time>
      </trkpt>
      <trkpt lat="47.5105" lon="6.76961">
        <ele>366</ele>
        <time>2014-10-26T10:59:26.000Z</time>
      </trkpt>
      <trkpt lat="47.51053" lon="6.76969">
        <ele>365.5</ele>
        <time>2014-10-26T10:59:27.000Z</time>
      </trkpt>
      <trkpt lat="47.51058" lon="6.76973">
        <ele>364.8</ele>
        <time>2014-10-26T10:59:27.999Z</time>
      </trkpt>
      <trkpt lat="47.51061" lon="6.76984">
        <ele>365.9</ele>
        <time>2014-10-26T10:59:29.000Z</time>
      </trkpt>
      <trkpt lat="47.51064" lon="6.76989">
        <ele>363.6</ele>
        <time>2014-10-26T10:59:30.000Z</time>
      </trkpt>
      <trkpt lat="47.51068" lon="6.76993">
        <ele>364</ele>
        <time>2014-10-26T10:59:31.000Z</time>
      </trkpt>
      <trkpt lat="47.51072" lon="6.76999">
        <ele>363.7</ele>
        <time>2014-10-26T10:59:32.000Z</time>
      </trkpt>
      <trkpt lat="47.51076" lon="6.77004">
        <ele>362.8</ele>
        <time>2014-10-26T10:59:33.000Z</time>
      </trkpt>
      <trkpt lat="47.51093" lon="6.77023">
        <ele>367.4</ele>
        <time>2014-10-26T10:59:41.000Z</time>
      </trkpt>
      <trkpt lat="47.51096" lon="6.77025">
        <ele>368.5</ele>
        <time>2014-10-26T10:59:42.000Z</time>
      </trkpt>
      <trkpt lat="47.51101" lon="6.77029">
        <ele>368.9</ele>
        <time>2014-10-26T10:59:43.000Z</time>
      </trkpt>
      <trkpt lat="47.51104" lon="6.77033">
        <ele>368.9</ele>
        <time>2014-10-26T10:59:44.000Z</time>
      </trkpt>
      <trkpt lat="47.51109" lon="6.77038">
        <ele>369.3</ele>
        <time>2014-10-26T10:59:45.000Z</time>
      </trkpt>
      <trkpt lat="47.51113" lon="6.77041">
        <ele>370.7</ele>
        <time>2014-10-26T10:59:46.000Z</time>
      </trkpt>
      <trkpt lat="47.51118" lon="6.77044">
        <ele>371</ele>
        <time>2014-10-26T10:59:47.000Z</time>
      </trkpt>
      <trkpt lat="47.51122" lon="6.77045">
        <ele>373.9</ele>
        <time>2014-10-26T10:59:48.000Z</time>
      </trkpt>
      <trkpt lat="47.51127" lon="6.77049">
        <ele>372.3</ele>
        <time>2014-10-26T10:59:49.000Z</time>
      </trkpt>
      <trkpt lat="47.51132" lon="6.77052">
        <ele>372.8</ele>
        <time>2014-10-26T10:59:50.000Z</time>
      </trkpt>
      <trkpt lat="47.51136" lon="6.77056">
        <ele>373.1</ele>
        <time>2014-10-26T10:59:51.000Z</time>
      </trkpt>
      <trkpt lat="47.5114" lon="6.77059">
        <ele>372.6</ele>
        <time>2014-10-26T10:59:52.000Z</time>
      </trkpt>
      <trkpt lat="47.51144" lon="6.77062">
        <ele>372.4</ele>
        <time>2014-10-26T10:59:53.001Z</time>
      </trkpt>
      <trkpt lat="47.51149" lon="6.77065">
        <ele>371.9</ele>
        <time>2014-10-26T10:59:54.000Z</time>
      </trkpt>
      <trkpt lat="47.51153" lon="6.77069">
        <ele>372.2</ele>
        <time>2014-10-26T10:59:55.000Z</time>
      </trkpt>
      <trkpt lat="47.51157" lon="6.77073">
        <ele>372.3</ele>
        <time>2014-10-26T10:59:56.000Z</time>
      </trkpt>
      <trkpt lat="47.5116" lon="6.77078">
        <ele>371.8</ele>
        <time>2014-10-26T10:59:57.000Z</time>
      </trkpt>
      <trkpt lat="47.51163" lon="6.77082">
        <ele>373.1</ele>
        <time>2014-10-26T10:59:58.000Z</time>
      </trkpt>
      <trkpt lat="47.51166" lon="6.77086">
        <ele>374</ele>
        <time>2014-10-26T10:59:59.000Z</time>
      </trkpt>
      <trkpt lat="47.5117" lon="6.77091">
        <ele>374.7</ele>
        <time>2014-10-26T11:00:00.000Z</time>
      </trkpt>
      <trkpt lat="47.51172" lon="6.77095">
        <ele>374.3</ele>
        <time>2014-10-26T11:00:01.000Z</time>
      </trkpt>
      <trkpt lat="47.51175" lon="6.77101">
        <ele>374</ele>
        <time>2014-10-26T11:00:02.000Z</time>
      </trkpt>
      <trkpt lat="47.51178" lon="6.77105">
        <ele>373.9</ele>
        <time>2014-10-26T11:00:03.000Z</time>
      </trkpt>
      <trkpt lat="47.51182" lon="6.77109">
        <ele>373.6</ele>
        <time>2014-10-26T11:00:04.000Z</time>
      </trkpt>
      <trkpt lat="47.51183" lon="6.77114">
        <ele>373.7</ele>
        <time>2014-10-26T11:00:05.000Z</time>
      </trkpt>
      <trkpt lat="47.51189" lon="6.77118">
        <ele>373.7</ele>
        <time>2014-10-26T11:00:06.000Z</time>
      </trkpt>
      <trkpt lat="47.51191" lon="6.77124">
        <ele>373.4</ele>
        <time>2014-10-26T11:00:07.000Z</time>
      </trkpt>
      <trkpt lat="47.51191" lon="6.77131">
        <ele>374.2</ele>
        <time>2014-10-26T11:00:08.000Z</time>
      </trkpt>
      <trkpt lat="47.51193" lon="6.77138">
        <ele>372.5</ele>
        <time>2014-10-26T11:00:09.000Z</time>
      </trkpt>
      <trkpt lat="47.51196" lon="6.77142">
        <ele>372.8</ele>
        <time>2014-10-26T11:00:10.000Z</time>
      </trkpt>
      <trkpt lat="47.51197" lon="6.77147">
        <ele>372.2</ele>
        <time>2014-10-26T11:00:11.000Z</time>
      </trkpt>
      <trkpt lat="47.51199" lon="6.77152">
        <ele>371.9</ele>
        <time>2014-10-26T11:00:12.001Z</time>
      </trkpt>
      <trkpt lat="47.51201" lon="6.77157">
        <ele>371.5</ele>
        <time>2014-10-26T11:00:13.000Z</time>
      </trkpt>
      <trkpt lat="47.51204" lon="6.7716">
        <ele>372.5</ele>
        <time>2014-10-26T11:00:14.000Z</time>
      </trkpt>
      <trkpt lat="47.51206" lon="6.77164">
        <ele>372.5</ele>
        <time>2014-10-26T11:00:15.001Z</time>
      </trkpt>
      <trkpt lat="47.51208" lon="6.77168">
        <ele>373.1</ele>
        <time>2014-10-26T11:00:16.000Z</time>
      </trkpt>
      <trkpt lat="47.51211" lon="6.77173">
        <ele>374.1</ele>
        <time>2014-10-26T11:00:17.000Z</time>
      </trkpt>
      <trkpt lat="47.51213" lon="6.77177">
        <ele>374.3</ele>
        <time>2014-10-26T11:00:18.000Z</time>
      </trkpt>
      <trkpt lat="47.51215" lon="6.77182">
        <ele>374.8</ele>
        <time>2014-10-26T11:00:19.000Z</time>
      </trkpt>
      <trkpt lat="47.51217" lon="6.77186">
        <ele>376.3</ele>
        <time>2014-10-26T11:00:20.000Z</time>
      </trkpt>
      <trkpt lat="47.5122" lon="6.7719">
        <ele>376.7</ele>
        <time>2014-10-26T11:00:21.000Z</time>
      </trkpt>
      <trkpt lat="47.51222" lon="6.77194">
        <ele>376.8</ele>
        <time>2014-10-26T11:00:22.000Z</time>
      </trkpt>
      <trkpt lat="47.51225" lon="6.77198">
        <ele>376.7</ele>
        <time>2014-10-26T11:00:23.000Z</time>
      </trkpt>
      <trkpt lat="47.51227" lon="6.77202">
        <ele>376.6</ele>
        <time>2014-10-26T11:00:24.000Z</time>
      </trkpt>
      <trkpt lat="47.51229" lon="6.77207">
        <ele>376.4</ele>
        <time>2014-10-26T11:00:25.000Z</time>
      </trkpt>
      <trkpt lat="47.51232" lon="6.77212">
        <ele>377.2</ele>
        <time>2014-10-26T11:00:26.000Z</time>
      </trkpt>
      <trkpt lat="47.51234" lon="6.77216">
        <ele>377.3</ele>
        <time>2014-10-26T11:00:27.000Z</time>
      </trkpt>
      <trkpt lat="47.51237" lon="6.77221">
        <ele>377.7</ele>
        <time>2014-10-26T11:00:28.000Z</time>
      </trkpt>
      <trkpt lat="47.51239" lon="6.77225">
        <ele>378.2</ele>
        <time>2014-10-26T11:00:29.000Z</time>
      </trkpt>
      <trkpt lat="47.51242" lon="6.77229">
        <ele>377.9</ele>
        <time>2014-10-26T11:00:30.000Z</time>
      </trkpt>
      <trkpt lat="47.51244" lon="6.77233">
        <ele>378.4</ele>
        <time>2014-10-26T11:00:31.000Z</time>
      </trkpt>
      <trkpt lat="47.51247" lon="6.77237">
        <ele>378.2</ele>
        <time>2014-10-26T11:00:32.000Z</time>
      </trkpt>
      <trkpt lat="47.51249" lon="6.77241">
        <ele>378.3</ele>
        <time>2014-10-26T11:00:33.000Z</time>
      </trkpt>
      <trkpt lat="47.51258" lon="6.77252">
        <ele>379.8</ele>
        <time>2014-10-26T11:00:36.000Z</time>
      </trkpt>
      <trkpt lat="47.51261" lon="6.77255">
        <ele>379.9</ele>
        <time>2014-10-26T11:00:37.000Z</time>
      </trkpt>
      <trkpt lat="47.51264" lon="6.77258">
        <ele>381</ele>
        <time>2014-10-26T11:00:37.999Z</time>
      </trkpt>
      <trkpt lat="47.51268" lon="6.77261">
        <ele>380.6</ele>
        <time>2014-10-26T11:00:39.000Z</time>
      </trkpt>
      <trkpt lat="47.51271" lon="6.77264">
        <ele>379.7</ele>
        <time>2014-10-26T11:00:40.000Z</time>
      </trkpt>
      <trkpt lat="47.51274" lon="6.77267">
        <ele>379.8</ele>
        <time>2014-10-26T11:00:41.000Z</time>
      </trkpt>
      <trkpt lat="47.51278" lon="6.77269">
        <ele>379.9</ele>
        <time>2014-10-26T11:00:42.001Z</time>
      </trkpt>
      <trkpt lat="47.51281" lon="6.77272">
        <ele>380</ele>
        <time>2014-10-26T11:00:43.000Z</time>
      </trkpt>
      <trkpt lat="47.51286" lon="6.77274">
        <ele>380</ele>
        <time>2014-10-26T11:00:44.000Z</time>
      </trkpt>
      <trkpt lat="47.51293" lon="6.77276">
        <ele>379.3</ele>
        <time>2014-10-26T11:00:45.000Z</time>
      </trkpt>
      <trkpt lat="47.51297" lon="6.77278">
        <ele>379.1</ele>
        <time>2014-10-26T11:00:46.000Z</time>
      </trkpt>
      <trkpt lat="47.51302" lon="6.77281">
        <ele>379.2</ele>
        <time>2014-10-26T11:00:47.000Z</time>
      </trkpt>
      <trkpt lat="47.51307" lon="6.77285">
        <ele>379.6</ele>
        <time>2014-10-26T11:00:48.000Z</time>
      </trkpt>
      <trkpt lat="47.51312" lon="6.77288">
        <ele>380.4</ele>
        <time>2014-10-26T11:00:49.000Z</time>
      </trkpt>
      <trkpt lat="47.51318" lon="6.77289">
        <ele>380.6</ele>
        <time>2014-10-26T11:00:50.000Z</time>
      </trkpt>
      <trkpt lat="47.51324" lon="6.7729">
        <ele>380</ele>
        <time>2014-10-26T11:00:51.000Z</time>
      </trkpt>
      <trkpt lat="47.5133" lon="6.77289">
        <ele>379.6</ele>
        <time>2014-10-26T11:00:52.000Z</time>
      </trkpt>
      <trkpt lat="47.51336" lon="6.77288">
        <ele>380</ele>
        <time>2014-10-26T11:00:52.999Z</time>
      </trkpt>
      <trkpt lat="47.51342" lon="6.77282">
        <ele>380.3</ele>
        <time>2014-10-26T11:00:54.000Z</time>
      </trkpt>
      <trkpt lat="47.51348" lon="6.77278">
        <ele>379.7</ele>
        <time>2014-10-26T11:00:55.000Z</time>
      </trkpt>
      <trkpt lat="47.51355" lon="6.77273">
        <ele>379</ele>
        <time>2014-10-26T11:00:56.000Z</time>
      </trkpt>
      <trkpt lat="47.51362" lon="6.77267">
        <ele>378.9</ele>
        <time>2014-10-26T11:00:57.000Z</time>
      </trkpt>
      <trkpt lat="47.5137" lon="6.77261">
        <ele>378.3</ele>
        <time>2014-10-26T11:00:58.000Z</time>
      </trkpt>
      <trkpt lat="47.51378" lon="6.77255">
        <ele>378.2</ele>
        <time>2014-10-26T11:00:59.000Z</time>
      </trkpt>
      <trkpt lat="47.51387" lon="6.77251">
        <ele>376.6</ele>
        <time>2014-10-26T11:01:00.000Z</time>
      </trkpt>
      <trkpt lat="47.51395" lon="6.77245">
        <ele>376.2</ele>
        <time>2014-10-26T11:01:01.000Z</time>
      </trkpt>
      <trkpt lat="47.51404" lon="6.7724">
        <ele>376</ele>
        <time>2014-10-26T11:01:02.000Z</time>
      </trkpt>
      <trkpt lat="47.51412" lon="6.77235">
        <ele>375.6</ele>
        <time>2014-10-26T11:01:03.000Z</time>
      </trkpt>
      <trkpt lat="47.5142" lon="6.77231">
        <ele>374.9</ele>
        <time>2014-10-26T11:01:04.000Z</time>
      </trkpt>
      <trkpt lat="47.51429" lon="6.77227">
        <ele>374.3</ele>
        <time>2014-10-26T11:01:05.000Z</time>
      </trkpt>
      <trkpt lat="47.51437" lon="6.77222">
        <ele>374.3</ele>
        <time>2014-10-26T11:01:06.000Z</time>
      </trkpt>
      <trkpt lat="47.51445" lon="6.77218">
        <ele>373.8</ele>
        <time>2014-10-26T11:01:07.000Z</time>
      </trkpt>
      <trkpt lat="47.51453" lon="6.77214">
        <ele>373.6</ele>
        <time>2014-10-26T11:01:08.000Z</time>
      </trkpt>
      <trkpt lat="47.51461" lon="6.7721">
        <ele>373.9</ele>
        <time>2014-10-26T11:01:09.000Z</time>
      </trkpt>
      <trkpt lat="47.51468" lon="6.77207">
        <ele>374.2</ele>
        <time>2014-10-26T11:01:10.000Z</time>
      </trkpt>
      <trkpt lat="47.51475" lon="6.77205">
        <ele>374.8</ele>
        <time>2014-10-26T11:01:11.000Z</time>
      </trkpt>
      <trkpt lat="47.51481" lon="6.77207">
        <ele>374.8</ele>
        <time>2014-10-26T11:01:12.000Z</time>
      </trkpt>
      <trkpt lat="47.51484" lon="6.77213">
        <ele>374.6</ele>
        <time>2014-10-26T11:01:13.000Z</time>
      </trkpt>
      <trkpt lat="47.51486" lon="6.77222">
        <ele>374</ele>
        <time>2014-10-26T11:01:14.000Z</time>
      </trkpt>
      <trkpt lat="47.51485" lon="6.7723">
        <ele>373.1</ele>
        <time>2014-10-26T11:01:15.000Z</time>
      </trkpt>
      <trkpt lat="47.51485" lon="6.77238">
        <ele>372.9</ele>
        <time>2014-10-26T11:01:16.000Z</time>
      </trkpt>
      <trkpt lat="47.51486" lon="6.77245">
        <ele>372.7</ele>
        <time>2014-10-26T11:01:17.000Z</time>
      </trkpt>
      <trkpt lat="47.51487" lon="6.77253">
        <ele>372.5</ele>
        <time>2014-10-26T11:01:18.000Z</time>
      </trkpt>
      <trkpt lat="47.51487" lon="6.7726">
        <ele>372.2</ele>
        <time>2014-10-26T11:01:19.000Z</time>
      </trkpt>
      <trkpt lat="47.51488" lon="6.77267">
        <ele>371.9</ele>
        <time>2014-10-26T11:01:20.000Z</time>
      </trkpt>
      <trkpt lat="47.51488" lon="6.77274">
        <ele>371.2</ele>
        <time>2014-10-26T11:01:21.000Z</time>
      </trkpt>
      <trkpt lat="47.5149" lon="6.77281">
        <ele>371.1</ele>
        <time>2014-10-26T11:01:22.000Z</time>
      </trkpt>
      <trkpt lat="47.51491" lon="6.77288">
        <ele>371.6</ele>
        <time>2014-10-26T11:01:23.000Z</time>
      </trkpt>
      <trkpt lat="47.51491" lon="6.77294">
        <ele>372.4</ele>
        <time>2014-10-26T11:01:24.000Z</time>
      </trkpt>
      <trkpt lat="47.51491" lon="6.77301">
        <ele>372.1</ele>
        <time>2014-10-26T11:01:25.000Z</time>
      </trkpt>
      <trkpt lat="47.51492" lon="6.77308">
        <ele>371.6</ele>
        <time>2014-10-26T11:01:26.000Z</time>
      </trkpt>
      <trkpt lat="47.51494" lon="6.77315">
        <ele>371.7</ele>
        <time>2014-10-26T11:01:27.000Z</time>
      </trkpt>
      <trkpt lat="47.51496" lon="6.7732">
        <ele>371.8</ele>
        <time>2014-10-26T11:01:28.000Z</time>
      </trkpt>
      <trkpt lat="47.515" lon="6.77323">
        <ele>371.8</ele>
        <time>2014-10-26T11:01:29.000Z</time>
      </trkpt>
      <trkpt lat="47.51503" lon="6.77326">
        <ele>371.2</ele>
        <time>2014-10-26T11:01:30.000Z</time>
      </trkpt>
      <trkpt lat="47.51506" lon="6.7733">
        <ele>371.1</ele>
        <time>2014-10-26T11:01:31.000Z</time>
      </trkpt>
      <trkpt lat="47.5151" lon="6.77333">
        <ele>373</ele>
        <time>2014-10-26T11:01:32.000Z</time>
      </trkpt>
      <trkpt lat="47.51513" lon="6.77336">
        <ele>374.2</ele>
        <time>2014-10-26T11:01:33.000Z</time>
      </trkpt>
      <trkpt lat="47.5152" lon="6.77342">
        <ele>374</ele>
        <time>2014-10-26T11:01:36.000Z</time>
      </trkpt>
      <trkpt lat="47.51524" lon="6.77346">
        <ele>373.9</ele>
        <time>2014-10-26T11:01:37.000Z</time>
      </trkpt>
      <trkpt lat="47.51526" lon="6.77349">
        <ele>373.5</ele>
        <time>2014-10-26T11:01:38.000Z</time>
      </trkpt>
      <trkpt lat="47.51529" lon="6.77352">
        <ele>373.9</ele>
        <time>2014-10-26T11:01:39.000Z</time>
      </trkpt>
      <trkpt lat="47.51531" lon="6.77356">
        <ele>375</ele>
        <time>2014-10-26T11:01:40.000Z</time>
      </trkpt>
      <trkpt lat="47.51532" lon="6.77361">
        <ele>375.3</ele>
        <time>2014-10-26T11:01:41.000Z</time>
      </trkpt>
      <trkpt lat="47.51535" lon="6.77363">
        <ele>375.6</ele>
        <time>2014-10-26T11:01:42.000Z</time>
      </trkpt>
      <trkpt lat="47.51537" lon="6.77366">
        <ele>375.9</ele>
        <time>2014-10-26T11:01:43.000Z</time>
      </trkpt>
      <trkpt lat="47.51539" lon="6.77369">
        <ele>375.8</ele>
        <time>2014-10-26T11:01:44.000Z</time>
      </trkpt>
      <trkpt lat="47.51542" lon="6.77372">
        <ele>376.7</ele>
        <time>2014-10-26T11:01:45.000Z</time>
      </trkpt>
      <trkpt lat="47.51545" lon="6.77375">
        <ele>376.9</ele>
        <time>2014-10-26T11:01:46.000Z</time>
      </trkpt>
      <trkpt lat="47.51547" lon="6.77378">
        <ele>377.4</ele>
        <time>2014-10-26T11:01:47.000Z</time>
      </trkpt>
      <trkpt lat="47.5155" lon="6.77381">
        <ele>377.5</ele>
        <time>2014-10-26T11:01:48.000Z</time>
      </trkpt>
      <trkpt lat="47.51553" lon="6.77384">
        <ele>378.4</ele>
        <time>2014-10-26T11:01:49.000Z</time>
      </trkpt>
      <trkpt lat="47.51556" lon="6.77386">
        <ele>381.4</ele>
        <time>2014-10-26T11:01:50.000Z</time>
      </trkpt>
      <trkpt lat="47.51559" lon="6.77388">
        <ele>383</ele>
        <time>2014-10-26T11:01:51.000Z</time>
      </trkpt>
      <trkpt lat="47.51562" lon="6.7739">
        <ele>383.7</ele>
        <time>2014-10-26T11:01:52.000Z</time>
      </trkpt>
      <trkpt lat="47.51565" lon="6.77392">
        <ele>383.5</ele>
        <time>2014-10-26T11:01:53.000Z</time>
      </trkpt>
      <trkpt lat="47.51567" lon="6.77395">
        <ele>383.6</ele>
        <time>2014-10-26T11:01:54.000Z</time>
      </trkpt>
      <trkpt lat="47.5157" lon="6.77399">
        <ele>382.9</ele>
        <time>2014-10-26T11:01:55.000Z</time>
      </trkpt>
      <trkpt lat="47.51572" lon="6.77402">
        <ele>382.7</ele>
        <time>2014-10-26T11:01:56.000Z</time>
      </trkpt>
      <trkpt lat="47.51574" lon="6.77406">
        <ele>382.1</ele>
        <time>2014-10-26T11:01:57.000Z</time>
      </trkpt>
      <trkpt lat="47.51576" lon="6.7741">
        <ele>382</ele>
        <time>2014-10-26T11:01:58.000Z</time>
      </trkpt>
      <trkpt lat="47.51578" lon="6.77413">
        <ele>381.8</ele>
        <time>2014-10-26T11:01:59.000Z</time>
      </trkpt>
      <trkpt lat="47.5158" lon="6.77416">
        <ele>381.6</ele>
        <time>2014-10-26T11:02:00.000Z</time>
      </trkpt>
      <trkpt lat="47.51583" lon="6.77419">
        <ele>381.9</ele>
        <time>2014-10-26T11:02:01.000Z</time>
      </trkpt>
      <trkpt lat="47.51585" lon="6.77422">
        <ele>381.5</ele>
        <time>2014-10-26T11:02:02.000Z</time>
      </trkpt>
      <trkpt lat="47.51587" lon="6.77426">
        <ele>381.2</ele>
        <time>2014-10-26T11:02:03.000Z</time>
      </trkpt>
      <trkpt lat="47.5159" lon="6.77429">
        <ele>380.9</ele>
        <time>2014-10-26T11:02:04.000Z</time>
      </trkpt>
      <trkpt lat="47.51592" lon="6.77432">
        <ele>380.8</ele>
        <time>2014-10-26T11:02:05.000Z</time>
      </trkpt>
      <trkpt lat="47.51594" lon="6.77435">
        <ele>380.7</ele>
        <time>2014-10-26T11:02:06.000Z</time>
      </trkpt>
      <trkpt lat="47.51597" lon="6.77438">
        <ele>380.3</ele>
        <time>2014-10-26T11:02:07.000Z</time>
      </trkpt>
      <trkpt lat="47.51599" lon="6.77441">
        <ele>379.9</ele>
        <time>2014-10-26T11:02:08.000Z</time>
      </trkpt>
      <trkpt lat="47.51601" lon="6.77444">
        <ele>379.4</ele>
        <time>2014-10-26T11:02:09.000Z</time>
      </trkpt>
      <trkpt lat="47.51604" lon="6.77447">
        <ele>380</ele>
        <time>2014-10-26T11:02:10.000Z</time>
      </trkpt>
      <trkpt lat="47.51606" lon="6.7745">
        <ele>380.2</ele>
        <time>2014-10-26T11:02:11.000Z</time>
      </trkpt>
      <trkpt lat="47.51608" lon="6.77454">
        <ele>379.7</ele>
        <time>2014-10-26T11:02:12.000Z</time>
      </trkpt>
      <trkpt lat="47.5161" lon="6.77457">
        <ele>379.5</ele>
        <time>2014-10-26T11:02:13.000Z</time>
      </trkpt>
      <trkpt lat="47.51612" lon="6.7746">
        <ele>380.2</ele>
        <time>2014-10-26T11:02:14.000Z</time>
      </trkpt>
      <trkpt lat="47.51615" lon="6.77463">
        <ele>380.5</ele>
        <time>2014-10-26T11:02:15.000Z</time>
      </trkpt>
      <trkpt lat="47.51617" lon="6.77466">
        <ele>380.7</ele>
        <time>2014-10-26T11:02:16.000Z</time>
      </trkpt>
      <trkpt lat="47.51619" lon="6.77469">
        <ele>381.1</ele>
        <time>2014-10-26T11:02:17.000Z</time>
      </trkpt>
      <trkpt lat="47.51622" lon="6.77471">
        <ele>381.7</ele>
        <time>2014-10-26T11:02:18.000Z</time>
      </trkpt>
      <trkpt lat="47.51624" lon="6.77473">
        <ele>382</ele>
        <time>2014-10-26T11:02:19.000Z</time>
      </trkpt>
      <trkpt lat="47.51627" lon="6.77475">
        <ele>382.6</ele>
        <time>2014-10-26T11:02:20.000Z</time>
      </trkpt>
      <trkpt lat="47.51629" lon="6.77478">
        <ele>384.3</ele>
        <time>2014-10-26T11:02:21.000Z</time>
      </trkpt>
      <trkpt lat="47.51632" lon="6.7748">
        <ele>384.5</ele>
        <time>2014-10-26T11:02:22.000Z</time>
      </trkpt>
      <trkpt lat="47.51634" lon="6.77483">
        <ele>385.1</ele>
        <time>2014-10-26T11:02:23.000Z</time>
      </trkpt>
      <trkpt lat="47.51637" lon="6.77486">
        <ele>385.2</ele>
        <time>2014-10-26T11:02:24.000Z</time>
      </trkpt>
      <trkpt lat="47.51639" lon="6.77488">
        <ele>383.5</ele>
        <time>2014-10-26T11:02:25.000Z</time>
      </trkpt>
      <trkpt lat="47.51642" lon="6.77491">
        <ele>383.6</ele>
        <time>2014-10-26T11:02:26.000Z</time>
      </trkpt>
      <trkpt lat="47.51644" lon="6.77494">
        <ele>383.8</ele>
        <time>2014-10-26T11:02:27.000Z</time>
      </trkpt>
      <trkpt lat="47.51647" lon="6.77498">
        <ele>383.7</ele>
        <time>2014-10-26T11:02:28.000Z</time>
      </trkpt>
      <trkpt lat="47.51649" lon="6.775">
        <ele>383.3</ele>
        <time>2014-10-26T11:02:29.000Z</time>
      </trkpt>
      <trkpt lat="47.51652" lon="6.77503">
        <ele>383.9</ele>
        <time>2014-10-26T11:02:30.000Z</time>
      </trkpt>
      <trkpt lat="47.51655" lon="6.77506">
        <ele>383.6</ele>
        <time>2014-10-26T11:02:31.000Z</time>
      </trkpt>
      <trkpt lat="47.51657" lon="6.77509">
        <ele>383.8</ele>
        <time>2014-10-26T11:02:32.000Z</time>
      </trkpt>
      <trkpt lat="47.5166" lon="6.77512">
        <ele>385.7</ele>
        <time>2014-10-26T11:02:33.000Z</time>
      </trkpt>
      <trkpt lat="47.51668" lon="6.7752">
        <ele>386.5</ele>
        <time>2014-10-26T11:02:36.000Z</time>
      </trkpt>
      <trkpt lat="47.51671" lon="6.77523">
        <ele>388.1</ele>
        <time>2014-10-26T11:02:37.000Z</time>
      </trkpt>
      <trkpt lat="47.51673" lon="6.77527">
        <ele>388.6</ele>
        <time>2014-10-26T11:02:38.000Z</time>
      </trkpt>
      <trkpt lat="47.51676" lon="6.7753">
        <ele>388.3</ele>
        <time>2014-10-26T11:02:39.000Z</time>
      </trkpt>
      <trkpt lat="47.51679" lon="6.77533">
        <ele>388</ele>
        <time>2014-10-26T11:02:40.000Z</time>
      </trkpt>
      <trkpt lat="47.51681" lon="6.77536">
        <ele>387.6</ele>
        <time>2014-10-26T11:02:41.000Z</time>
      </trkpt>
      <trkpt lat="47.51684" lon="6.77539">
        <ele>387.6</ele>
        <time>2014-10-26T11:02:42.000Z</time>
      </trkpt>
      <trkpt lat="47.51686" lon="6.77543">
        <ele>387</ele>
        <time>2014-10-26T11:02:43.000Z</time>
      </trkpt>
      <trkpt lat="47.51689" lon="6.77546">
        <ele>387</ele>
        <time>2014-10-26T11:02:44.000Z</time>
      </trkpt>
      <trkpt lat="47.51691" lon="6.7755">
        <ele>387.1</ele>
        <time>2014-10-26T11:02:45.000Z</time>
      </trkpt>
      <trkpt lat="47.51693" lon="6.77554">
        <ele>386.4</ele>
        <time>2014-10-26T11:02:46.000Z</time>
      </trkpt>
      <trkpt lat="47.51696" lon="6.77558">
        <ele>385.5</ele>
        <time>2014-10-26T11:02:47.000Z</time>
      </trkpt>
      <trkpt lat="47.51698" lon="6.77561">
        <ele>385.6</ele>
        <time>2014-10-26T11:02:48.000Z</time>
      </trkpt>
      <trkpt lat="47.517" lon="6.77564">
        <ele>386.1</ele>
        <time>2014-10-26T11:02:49.000Z</time>
      </trkpt>
      <trkpt lat="47.51702" lon="6.77565">
        <ele>386.3</ele>
        <time>2014-10-26T11:02:50.000Z</time>
      </trkpt>
      <trkpt lat="47.51705" lon="6.77561">
        <ele>386.1</ele>
        <time>2014-10-26T11:02:52.000Z</time>
      </trkpt>
      <trkpt lat="47.51706" lon="6.77557">
        <ele>386</ele>
        <time>2014-10-26T11:02:53.000Z</time>
      </trkpt>
      <trkpt lat="47.51707" lon="6.77553">
        <ele>386.2</ele>
        <time>2014-10-26T11:02:54.000Z</time>
      </trkpt>
      <trkpt lat="47.51709" lon="6.7755">
        <ele>385.5</ele>
        <time>2014-10-26T11:02:55.000Z</time>
      </trkpt>
      <trkpt lat="47.51711" lon="6.77546">
        <ele>384.6</ele>
        <time>2014-10-26T11:02:56.000Z</time>
      </trkpt>
      <trkpt lat="47.51713" lon="6.77542">
        <ele>384.6</ele>
        <time>2014-10-26T11:02:57.000Z</time>
      </trkpt>
      <trkpt lat="47.51714" lon="6.77538">
        <ele>384.8</ele>
        <time>2014-10-26T11:02:58.000Z</time>
      </trkpt>
      <trkpt lat="47.51715" lon="6.77533">
        <ele>385.3</ele>
        <time>2014-10-26T11:02:59.000Z</time>
      </trkpt>
      <trkpt lat="47.51716" lon="6.77527">
        <ele>385.3</ele>
        <time>2014-10-26T11:03:00.000Z</time>
      </trkpt>
      <trkpt lat="47.51718" lon="6.77522">
        <ele>386</ele>
        <time>2014-10-26T11:03:01.000Z</time>
      </trkpt>
      <trkpt lat="47.51719" lon="6.77516">
        <ele>385.9</ele>
        <time>2014-10-26T11:03:02.000Z</time>
      </trkpt>
      <trkpt lat="47.5172" lon="6.7751">
        <ele>386.2</ele>
        <time>2014-10-26T11:03:03.000Z</time>
      </trkpt>
      <trkpt lat="47.51723" lon="6.77502">
        <ele>386.3</ele>
        <time>2014-10-26T11:03:04.000Z</time>
      </trkpt>
      <trkpt lat="47.51724" lon="6.77495">
        <ele>387.4</ele>
        <time>2014-10-26T11:03:05.000Z</time>
      </trkpt>
      <trkpt lat="47.51726" lon="6.77489">
        <ele>387.7</ele>
        <time>2014-10-26T11:03:06.000Z</time>
      </trkpt>
      <trkpt lat="47.51729" lon="6.77492">
        <ele>384.5</ele>
        <time>2014-10-26T11:03:07.000Z</time>
      </trkpt>
      <trkpt lat="47.51734" lon="6.77492">
        <ele>383.3</ele>
        <time>2014-10-26T11:03:08.000Z</time>
      </trkpt>
      <trkpt lat="47.51738" lon="6.77493">
        <ele>381.6</ele>
        <time>2014-10-26T11:03:09.000Z</time>
      </trkpt>
      <trkpt lat="47.51744" lon="6.77493">
        <ele>382.4</ele>
        <time>2014-10-26T11:03:10.000Z</time>
      </trkpt>
      <trkpt lat="47.51751" lon="6.77491">
        <ele>384.7</ele>
        <time>2014-10-26T11:03:11.000Z</time>
      </trkpt>
      <trkpt lat="47.51756" lon="6.77491">
        <ele>384.6</ele>
        <time>2014-10-26T11:03:12.000Z</time>
      </trkpt>
      <trkpt lat="47.51762" lon="6.77491">
        <ele>385.4</ele>
        <time>2014-10-26T11:03:13.000Z</time>
      </trkpt>
      <trkpt lat="47.51767" lon="6.7749">
        <ele>386</ele>
        <time>2014-10-26T11:03:14.000Z</time>
      </trkpt>
      <trkpt lat="47.51773" lon="6.7749">
        <ele>386.3</ele>
        <time>2014-10-26T11:03:15.000Z</time>
      </trkpt>
      <trkpt lat="47.51779" lon="6.77492">
        <ele>386.9</ele>
        <time>2014-10-26T11:03:16.000Z</time>
      </trkpt>
      <trkpt lat="47.51784" lon="6.77493">
        <ele>386.7</ele>
        <time>2014-10-26T11:03:17.000Z</time>
      </trkpt>
      <trkpt lat="47.51791" lon="6.77492">
        <ele>387.3</ele>
        <time>2014-10-26T11:03:18.000Z</time>
      </trkpt>
      <trkpt lat="47.51795" lon="6.77498">
        <ele>388.8</ele>
        <time>2014-10-26T11:03:19.000Z</time>
      </trkpt>
      <trkpt lat="47.518" lon="6.77498">
        <ele>389.6</ele>
        <time>2014-10-26T11:03:20.000Z</time>
      </trkpt>
      <trkpt lat="47.51805" lon="6.77496">
        <ele>389.5</ele>
        <time>2014-10-26T11:03:20.999Z</time>
      </trkpt>
      <trkpt lat="47.51806" lon="6.77493">
        <ele>388.4</ele>
        <time>2014-10-26T11:03:22.000Z</time>
      </trkpt>
      <trkpt lat="47.51807" lon="6.77488">
        <ele>386.8</ele>
        <time>2014-10-26T11:03:23.000Z</time>
      </trkpt>
      <trkpt lat="47.51807" lon="6.77481">
        <ele>385.2</ele>
        <time>2014-10-26T11:03:25.000Z</time>
      </trkpt>
      <trkpt lat="47.51806" lon="6.77478">
        <ele>384.3</ele>
        <time>2014-10-26T11:03:26.000Z</time>
      </trkpt>
      <trkpt lat="47.51805" lon="6.77475">
        <ele>383.1</ele>
        <time>2014-10-26T11:03:27.000Z</time>
      </trkpt>
      <trkpt lat="47.51803" lon="6.77471">
        <ele>383.1</ele>
        <time>2014-10-26T11:03:28.000Z</time>
      </trkpt>
      <trkpt lat="47.51802" lon="6.77467">
        <ele>383.4</ele>
        <time>2014-10-26T11:03:29.000Z</time>
      </trkpt>
      <trkpt lat="47.51801" lon="6.77464">
        <ele>383.8</ele>
        <time>2014-10-26T11:03:30.000Z</time>
      </trkpt>
      <trkpt lat="47.51802" lon="6.77459">
        <ele>384.5</ele>
        <time>2014-10-26T11:03:32.000Z</time>
      </trkpt>
      <trkpt lat="47.51801" lon="6.77457">
        <ele>384.1</ele>
        <time>2014-10-26T11:03:33.000Z</time>
      </trkpt>
      <trkpt lat="47.518" lon="6.77463">
        <ele>384</ele>
        <time>2014-10-26T11:03:55.000Z</time>
      </trkpt>
      <trkpt lat="47.518" lon="6.77463">
        <ele>383.9</ele>
        <time>2014-10-26T11:03:56.000Z</time>
      </trkpt>
      <trkpt lat="47.51804" lon="6.77464">
        <ele>382</ele>
        <time>2014-10-26T11:05:08.000Z</time>
      </trkpt>
      <trkpt lat="47.51805" lon="6.77464">
        <ele>381.3</ele>
        <time>2014-10-26T11:05:09.000Z</time>
      </trkpt>
      <trkpt lat="47.51801" lon="6.77464">
        <ele>386.2</ele>
        <time>2014-10-26T11:05:41.000Z</time>
      </trkpt>
      <trkpt lat="47.518" lon="6.77464">
        <ele>386.8</ele>
        <time>2014-10-26T11:05:42.001Z</time>
      </trkpt>
      <trkpt lat="47.51803" lon="6.77464">
        <ele>384.2</ele>
        <time>2014-10-26T11:05:51.000Z</time>
      </trkpt>
      <trkpt lat="47.51804" lon="6.77464">
        <ele>383.3</ele>
        <time>2014-10-26T11:05:52.000Z</time>
      </trkpt>
      <trkpt lat="47.51806" lon="6.77468">
        <ele>383</ele>
        <time>2014-10-26T11:05:55.000Z</time>
      </trkpt>
      <trkpt lat="47.51807" lon="6.77469">
        <ele>382.2</ele>
        <time>2014-10-26T11:05:56.000Z</time>
      </trkpt>
      <trkpt lat="47.51809" lon="6.77474">
        <ele>382.2</ele>
        <time>2014-10-26T11:05:59.000Z</time>
      </trkpt>
      <trkpt lat="47.5181" lon="6.77476">
        <ele>382.8</ele>
        <time>2014-10-26T11:06:00.000Z</time>
      </trkpt>
      <trkpt lat="47.51807" lon="6.77481">
        <ele>380.1</ele>
        <time>2014-10-26T11:06:07.000Z</time>
      </trkpt>
      <trkpt lat="47.51806" lon="6.7748">
        <ele>380.3</ele>
        <time>2014-10-26T11:06:08.000Z</time>
      </trkpt>
      <trkpt lat="47.51803" lon="6.77479">
        <ele>385</ele>
        <time>2014-10-26T11:09:08.000Z</time>
      </trkpt>
    </trkseg>
  </trk>
</gpx>